<?xml version='1.0' encoding='UTF-8'?><gpx version="1.1" creator="JPX - https://github.com/jenetics/jpx" xmlns="http://www.topografix.com/GPX/1/1"><trk><trkseg><trkpt lat="43.0530712" lon="12.326005"><ele>291.0</ele><time>2026-05-02T07:36:35.731Z</time></trkpt><trkpt lat="43.053126" lon="12.325884"><ele>291.0</ele><time>2026-05-02T07:36:36.727Z</time></trkpt><trkpt lat="43.0531788" lon="12.3257694"><ele>291.0</ele><time>2026-05-02T07:36:37.723Z</time></trkpt><trkpt lat="43.0532246" lon="12.3256614"><ele>291.0</ele><time>2026-05-02T07:36:38.729Z</time></trkpt><trkpt lat="43.0532724" lon="12.3255498"><ele>291.0</ele><time>2026-05-02T07:36:39.729Z</time></trkpt><trkpt lat="43.0533221" lon="12.3254338"><ele>289.8</ele><time>2026-05-02T07:36:40.729Z</time></trkpt><trkpt lat="43.0533776" lon="12.325316"><ele>288.6</ele><time>2026-05-02T07:36:41.729Z</time></trkpt><trkpt lat="43.0534267" lon="12.3251798"><ele>287.4</ele><time>2026-05-02T07:36:42.729Z</time></trkpt><trkpt lat="43.0534712" lon="12.3250405"><ele>286.2</ele><time>2026-05-02T07:36:43.729Z</time></trkpt><trkpt lat="43.0535085" lon="12.3248967"><ele>285.0</ele><time>2026-05-02T07:36:44.728Z</time></trkpt><trkpt lat="43.0535328" lon="12.3247534"><ele>283.6</ele><time>2026-05-02T07:36:45.729Z</time></trkpt><trkpt lat="43.0535433" lon="12.3246013"><ele>282.2</ele><time>2026-05-02T07:36:46.729Z</time></trkpt><trkpt lat="43.0535447" lon="12.3244533"><ele>280.8</ele><time>2026-05-02T07:36:47.729Z</time></trkpt><trkpt lat="43.0535444" lon="12.3243053"><ele>279.4</ele><time>2026-05-02T07:36:48.729Z</time></trkpt><trkpt lat="43.0535009" lon="12.3241752"><ele>278.0</ele><time>2026-05-02T07:36:49.729Z</time></trkpt><trkpt lat="43.0534574" lon="12.3240435"><ele>278.0</ele><time>2026-05-02T07:36:50.729Z</time></trkpt><trkpt lat="43.0534074" lon="12.3239175"><ele>278.0</ele><time>2026-05-02T07:36:51.729Z</time></trkpt><trkpt lat="43.053346" lon="12.323799"><ele>278.0</ele><time>2026-05-02T07:36:52.729Z</time></trkpt><trkpt lat="43.0532731" lon="12.3236891"><ele>278.0</ele><time>2026-05-02T07:36:53.729Z</time></trkpt><trkpt lat="43.0531881" lon="12.3235973"><ele>278.0</ele><time>2026-05-02T07:36:54.729Z</time></trkpt><trkpt lat="43.0530972" lon="12.3235168"><ele>277.2</ele><time>2026-05-02T07:36:55.729Z</time></trkpt><trkpt lat="43.0530039" lon="12.3234345"><ele>276.4</ele><time>2026-05-02T07:36:56.729Z</time></trkpt><trkpt lat="43.0529182" lon="12.3233533"><ele>275.59999999999997</ele><time>2026-05-02T07:36:57.729Z</time></trkpt><trkpt lat="43.0528672" lon="12.3232298"><ele>274.8</ele><time>2026-05-02T07:36:58.729Z</time></trkpt><trkpt lat="43.0528506" lon="12.3231029"><ele>274.0</ele><time>2026-05-02T07:36:59.729Z</time></trkpt><trkpt lat="43.0528727" lon="12.3229658"><ele>272.5</ele><time>2026-05-02T07:37:00.729Z</time></trkpt><trkpt lat="43.0529407" lon="12.3228477"><ele>271.0</ele><time>2026-05-02T07:37:01.729Z</time></trkpt><trkpt lat="43.0530114" lon="12.3227212"><ele>269.5</ele><time>2026-05-02T07:37:02.729Z</time></trkpt><trkpt lat="43.0531411" lon="12.3226037"><ele>268.0</ele><time>2026-05-02T07:37:03.729Z</time></trkpt><trkpt lat="43.0532524" lon="12.3224865"><ele>267.25</ele><time>2026-05-02T07:37:04.729Z</time></trkpt><trkpt lat="43.0533416" lon="12.3223578"><ele>266.5</ele><time>2026-05-02T07:37:05.729Z</time></trkpt><trkpt lat="43.0534232" lon="12.3222454"><ele>265.75</ele><time>2026-05-02T07:37:06.729Z</time></trkpt><trkpt lat="43.0534927" lon="12.3221284"><ele>265.0</ele><time>2026-05-02T07:37:07.729Z</time></trkpt><trkpt lat="43.0535629" lon="12.3220185"><ele>264.4</ele><time>2026-05-02T07:37:08.729Z</time></trkpt><trkpt lat="43.0536298" lon="12.3219034"><ele>263.8</ele><time>2026-05-02T07:37:09.729Z</time></trkpt><trkpt lat="43.0536942" lon="12.3217947"><ele>263.2</ele><time>2026-05-02T07:37:10.729Z</time></trkpt><trkpt lat="43.053761" lon="12.3216864"><ele>262.6</ele><time>2026-05-02T07:37:11.729Z</time></trkpt><trkpt lat="43.0538273" lon="12.3215866"><ele>262.0</ele><time>2026-05-02T07:37:12.729Z</time></trkpt><trkpt lat="43.0539035" lon="12.3215075"><ele>262.0</ele><time>2026-05-02T07:37:13.729Z</time></trkpt><trkpt lat="43.0539764" lon="12.3214304"><ele>262.0</ele><time>2026-05-02T07:37:14.729Z</time></trkpt><trkpt lat="43.0540719" lon="12.3213914"><ele>262.0</ele><time>2026-05-02T07:37:15.729Z</time></trkpt><trkpt lat="43.0541707" lon="12.3213609"><ele>262.0</ele><time>2026-05-02T07:37:16.729Z</time></trkpt><trkpt lat="43.0542757" lon="12.3213425"><ele>262.0</ele><time>2026-05-02T07:37:17.729Z</time></trkpt><trkpt lat="43.0543917" lon="12.3213331"><ele>261.0</ele><time>2026-05-02T07:37:18.729Z</time></trkpt><trkpt lat="43.0545029" lon="12.3212981"><ele>260.0</ele><time>2026-05-02T07:37:19.729Z</time></trkpt><trkpt lat="43.0546112" lon="12.3212362"><ele>259.0</ele><time>2026-05-02T07:37:20.729Z</time></trkpt><trkpt lat="43.0547066" lon="12.3211375"><ele>258.0</ele><time>2026-05-02T07:37:21.729Z</time></trkpt><trkpt lat="43.05479" lon="12.3210107"><ele>258.0</ele><time>2026-05-02T07:37:22.729Z</time></trkpt><trkpt lat="43.0548668" lon="12.3208696"><ele>258.0</ele><time>2026-05-02T07:37:23.729Z</time></trkpt><trkpt lat="43.0549412" lon="12.3207148"><ele>258.0</ele><time>2026-05-02T07:37:24.729Z</time></trkpt><trkpt lat="43.0550159" lon="12.3205541"><ele>258.0</ele><time>2026-05-02T07:37:25.729Z</time></trkpt><trkpt lat="43.0550869" lon="12.3203851"><ele>255.66666666666669</ele><time>2026-05-02T07:37:26.729Z</time></trkpt><trkpt lat="43.0551592" lon="12.3202193"><ele>253.33333333333334</ele><time>2026-05-02T07:37:27.729Z</time></trkpt><trkpt lat="43.0552372" lon="12.3200316"><ele>251.0</ele><time>2026-05-02T07:37:28.728Z</time></trkpt><trkpt lat="43.055316" lon="12.319848"><ele>250.0</ele><time>2026-05-02T07:37:29.729Z</time></trkpt><trkpt lat="43.0553988" lon="12.319664"><ele>249.0</ele><time>2026-05-02T07:37:30.729Z</time></trkpt><trkpt lat="43.0554812" lon="12.3194722"><ele>248.0</ele><time>2026-05-02T07:37:31.729Z</time></trkpt><trkpt lat="43.0555551" lon="12.3192865"><ele>248.0</ele><time>2026-05-02T07:37:32.729Z</time></trkpt><trkpt lat="43.0556322" lon="12.3191022"><ele>248.0</ele><time>2026-05-02T07:37:33.729Z</time></trkpt><trkpt lat="43.055706" lon="12.3189178"><ele>248.0</ele><time>2026-05-02T07:37:34.729Z</time></trkpt><trkpt lat="43.055781" lon="12.3187341"><ele>247.0</ele><time>2026-05-02T07:37:35.729Z</time></trkpt><trkpt lat="43.0558564" lon="12.3185517"><ele>246.0</ele><time>2026-05-02T07:37:36.729Z</time></trkpt><trkpt lat="43.0559302" lon="12.3183704"><ele>245.0</ele><time>2026-05-02T07:37:37.729Z</time></trkpt><trkpt lat="43.0559943" lon="12.3182186"><ele>244.0</ele><time>2026-05-02T07:37:38.729Z</time></trkpt><trkpt lat="43.0560619" lon="12.3180567"><ele>243.0</ele><time>2026-05-02T07:37:39.729Z</time></trkpt><trkpt lat="43.0561323" lon="12.3178909"><ele>242.0</ele><time>2026-05-02T07:37:40.729Z</time></trkpt><trkpt lat="43.0562095" lon="12.3177317"><ele>241.0</ele><time>2026-05-02T07:37:41.729Z</time></trkpt><trkpt lat="43.0562995" lon="12.3175872"><ele>240.0</ele><time>2026-05-02T07:37:42.729Z</time></trkpt><trkpt lat="43.0564104" lon="12.3174563"><ele>240.0</ele><time>2026-05-02T07:37:43.729Z</time></trkpt><trkpt lat="43.056535" lon="12.3173412"><ele>240.0</ele><time>2026-05-02T07:37:44.729Z</time></trkpt><trkpt lat="43.0566639" lon="12.3172374"><ele>240.0</ele><time>2026-05-02T07:37:45.729Z</time></trkpt><trkpt lat="43.0567862" lon="12.3171433"><ele>240.0</ele><time>2026-05-02T07:37:46.729Z</time></trkpt><trkpt lat="43.0569135" lon="12.31705"><ele>238.5</ele><time>2026-05-02T07:37:47.729Z</time></trkpt><trkpt lat="43.0570415" lon="12.3169579"><ele>237.0</ele><time>2026-05-02T07:37:48.729Z</time></trkpt><trkpt lat="43.0571701" lon="12.3168669"><ele>235.5</ele><time>2026-05-02T07:37:49.729Z</time></trkpt><trkpt lat="43.0573023" lon="12.3167735"><ele>234.0</ele><time>2026-05-02T07:37:50.729Z</time></trkpt><trkpt lat="43.0574304" lon="12.3166749"><ele>233.25</ele><time>2026-05-02T07:37:51.729Z</time></trkpt><trkpt lat="43.0575573" lon="12.3165756"><ele>232.5</ele><time>2026-05-02T07:37:52.729Z</time></trkpt><trkpt lat="43.0576824" lon="12.3164712"><ele>231.75</ele><time>2026-05-02T07:37:53.729Z</time></trkpt><trkpt lat="43.0578108" lon="12.3163547"><ele>231.0</ele><time>2026-05-02T07:37:54.729Z</time></trkpt><trkpt lat="43.0579235" lon="12.3162137"><ele>231.0</ele><time>2026-05-02T07:37:55.729Z</time></trkpt><trkpt lat="43.0580337" lon="12.3160924"><ele>231.0</ele><time>2026-05-02T07:37:56.729Z</time></trkpt><trkpt lat="43.0581401" lon="12.3159628"><ele>231.0</ele><time>2026-05-02T07:37:57.729Z</time></trkpt><trkpt lat="43.0582431" lon="12.3158347"><ele>231.0</ele><time>2026-05-02T07:37:58.729Z</time></trkpt><trkpt lat="43.0583556" lon="12.3157155"><ele>231.0</ele><time>2026-05-02T07:37:59.729Z</time></trkpt><trkpt lat="43.0584644" lon="12.3155984"><ele>231.0</ele><time>2026-05-02T07:38:00.729Z</time></trkpt><trkpt lat="43.0585965" lon="12.3155279"><ele>231.0</ele><time>2026-05-02T07:38:01.729Z</time></trkpt><trkpt lat="43.0587215" lon="12.3154738"><ele>231.0</ele><time>2026-05-02T07:38:02.729Z</time></trkpt><trkpt lat="43.0588447" lon="12.3154137"><ele>231.0</ele><time>2026-05-02T07:38:03.729Z</time></trkpt><trkpt lat="43.0589211" lon="12.3153147"><ele>231.0</ele><time>2026-05-02T07:38:04.729Z</time></trkpt><trkpt lat="43.0589795" lon="12.3151879"><ele>231.0</ele><time>2026-05-02T07:38:05.729Z</time></trkpt><trkpt lat="43.0590073" lon="12.3150336"><ele>231.0</ele><time>2026-05-02T07:38:06.729Z</time></trkpt><trkpt lat="43.0590131" lon="12.3148631"><ele>231.25</ele><time>2026-05-02T07:38:07.729Z</time></trkpt><trkpt lat="43.0589828" lon="12.3146768"><ele>231.5</ele><time>2026-05-02T07:38:08.729Z</time></trkpt><trkpt lat="43.0589534" lon="12.3145018"><ele>231.75</ele><time>2026-05-02T07:38:09.729Z</time></trkpt><trkpt lat="43.0589171" lon="12.3143319"><ele>232.0</ele><time>2026-05-02T07:38:10.729Z</time></trkpt><trkpt lat="43.0588855" lon="12.3141515"><ele>232.0</ele><time>2026-05-02T07:38:11.729Z</time></trkpt><trkpt lat="43.0588537" lon="12.3139798"><ele>232.0</ele><time>2026-05-02T07:38:12.729Z</time></trkpt><trkpt lat="43.0588249" lon="12.3137688"><ele>232.0</ele><time>2026-05-02T07:38:13.729Z</time></trkpt><trkpt lat="43.058807" lon="12.3135832"><ele>232.0</ele><time>2026-05-02T07:38:14.729Z</time></trkpt><trkpt lat="43.0587846" lon="12.3133867"><ele>232.25</ele><time>2026-05-02T07:38:15.729Z</time></trkpt><trkpt lat="43.0587648" lon="12.3131999"><ele>232.5</ele><time>2026-05-02T07:38:16.729Z</time></trkpt><trkpt lat="43.0587513" lon="12.3130164"><ele>232.75</ele><time>2026-05-02T07:38:17.729Z</time></trkpt><trkpt lat="43.0587338" lon="12.3128358"><ele>233.0</ele><time>2026-05-02T07:38:18.729Z</time></trkpt><trkpt lat="43.0587202" lon="12.3126559"><ele>233.0</ele><time>2026-05-02T07:38:19.729Z</time></trkpt><trkpt lat="43.0587055" lon="12.3124738"><ele>233.0</ele><time>2026-05-02T07:38:20.729Z</time></trkpt><trkpt lat="43.0586895" lon="12.3122797"><ele>233.0</ele><time>2026-05-02T07:38:21.729Z</time></trkpt><trkpt lat="43.0586721" lon="12.3120926"><ele>233.0</ele><time>2026-05-02T07:38:22.729Z</time></trkpt><trkpt lat="43.0586556" lon="12.3119024"><ele>233.0</ele><time>2026-05-02T07:38:23.729Z</time></trkpt><trkpt lat="43.0586443" lon="12.3117014"><ele>233.0</ele><time>2026-05-02T07:38:24.729Z</time></trkpt><trkpt lat="43.0586282" lon="12.3115147"><ele>233.0</ele><time>2026-05-02T07:38:25.729Z</time></trkpt><trkpt lat="43.0586119" lon="12.3113341"><ele>233.0</ele><time>2026-05-02T07:38:26.729Z</time></trkpt><trkpt lat="43.0585975" lon="12.3111512"><ele>233.0</ele><time>2026-05-02T07:38:27.729Z</time></trkpt><trkpt lat="43.0585812" lon="12.3109702"><ele>233.0</ele><time>2026-05-02T07:38:28.729Z</time></trkpt><trkpt lat="43.0585639" lon="12.3107862"><ele>233.0</ele><time>2026-05-02T07:38:29.729Z</time></trkpt><trkpt lat="43.058547" lon="12.3105981"><ele>233.0</ele><time>2026-05-02T07:38:30.729Z</time></trkpt><trkpt lat="43.0585295" lon="12.3104043"><ele>232.75</ele><time>2026-05-02T07:38:31.729Z</time></trkpt><trkpt lat="43.0585129" lon="12.310214"><ele>232.5</ele><time>2026-05-02T07:38:32.729Z</time></trkpt><trkpt lat="43.0585028" lon="12.3100269"><ele>232.25</ele><time>2026-05-02T07:38:33.729Z</time></trkpt><trkpt lat="43.0584821" lon="12.3098426"><ele>232.0</ele><time>2026-05-02T07:38:34.729Z</time></trkpt><trkpt lat="43.0584721" lon="12.309657"><ele>232.0</ele><time>2026-05-02T07:38:35.729Z</time></trkpt><trkpt lat="43.0584657" lon="12.3094689"><ele>232.0</ele><time>2026-05-02T07:38:36.729Z</time></trkpt><trkpt lat="43.0585183" lon="12.3092768"><ele>232.0</ele><time>2026-05-02T07:38:37.729Z</time></trkpt><trkpt lat="43.0585573" lon="12.3091083"><ele>232.0</ele><time>2026-05-02T07:38:38.729Z</time></trkpt><trkpt lat="43.0585999" lon="12.3089534"><ele>232.5</ele><time>2026-05-02T07:38:39.729Z</time></trkpt><trkpt lat="43.0586441" lon="12.3088014"><ele>233.0</ele><time>2026-05-02T07:38:40.729Z</time></trkpt><trkpt lat="43.0586888" lon="12.3086445"><ele>233.5</ele><time>2026-05-02T07:38:41.729Z</time></trkpt><trkpt lat="43.0587361" lon="12.3084962"><ele>234.0</ele><time>2026-05-02T07:38:42.729Z</time></trkpt><trkpt lat="43.0587653" lon="12.3083639"><ele>234.0</ele><time>2026-05-02T07:38:43.729Z</time></trkpt><trkpt lat="43.058807" lon="12.3082277"><ele>233.99999999999997</ele><time>2026-05-02T07:38:44.729Z</time></trkpt><trkpt lat="43.0588512" lon="12.3080925"><ele>233.99999999999997</ele><time>2026-05-02T07:38:45.729Z</time></trkpt><trkpt lat="43.0588883" lon="12.3079672"><ele>234.0</ele><time>2026-05-02T07:38:46.729Z</time></trkpt><trkpt lat="43.058923" lon="12.3078332"><ele>234.0</ele><time>2026-05-02T07:38:47.729Z</time></trkpt><trkpt lat="43.0589585" lon="12.3077123"><ele>234.33333333333334</ele><time>2026-05-02T07:38:48.729Z</time></trkpt><trkpt lat="43.0589924" lon="12.3075935"><ele>234.66666666666669</ele><time>2026-05-02T07:38:49.729Z</time></trkpt><trkpt lat="43.0590261" lon="12.3074879"><ele>235.0</ele><time>2026-05-02T07:38:50.729Z</time></trkpt><trkpt lat="43.0590563" lon="12.307378"><ele>235.33333333333334</ele><time>2026-05-02T07:38:51.729Z</time></trkpt><trkpt lat="43.0590874" lon="12.3072681"><ele>235.66666666666669</ele><time>2026-05-02T07:38:52.729Z</time></trkpt><trkpt lat="43.0591193" lon="12.3071621"><ele>236.0</ele><time>2026-05-02T07:38:53.729Z</time></trkpt><trkpt lat="43.0591478" lon="12.3070653"><ele>236.83333333333334</ele><time>2026-05-02T07:38:54.729Z</time></trkpt><trkpt lat="43.0591764" lon="12.3069834"><ele>237.66666666666669</ele><time>2026-05-02T07:38:55.729Z</time></trkpt><trkpt lat="43.0592112" lon="12.3068513"><ele>238.5</ele><time>2026-05-02T07:38:57.729Z</time></trkpt><trkpt lat="43.0592649" lon="12.3067723"><ele>239.33333333333331</ele><time>2026-05-02T07:38:59.729Z</time></trkpt><trkpt lat="43.0593118" lon="12.3066883"><ele>240.16666666666666</ele><time>2026-05-02T07:39:03.729Z</time></trkpt><trkpt lat="43.059364" lon="12.3065969"><ele>241.0</ele><time>2026-05-02T07:39:06.729Z</time></trkpt><trkpt lat="43.0594419" lon="12.3065269"><ele>241.0</ele><time>2026-05-02T07:39:08.729Z</time></trkpt><trkpt lat="43.0595225" lon="12.3065545"><ele>241.00000000000003</ele><time>2026-05-02T07:39:10.729Z</time></trkpt><trkpt lat="43.0596117" lon="12.3066301"><ele>241.00000000000003</ele><time>2026-05-02T07:39:12.729Z</time></trkpt><trkpt lat="43.0597066" lon="12.3067254"><ele>241.0</ele><time>2026-05-02T07:39:14.729Z</time></trkpt><trkpt lat="43.0597955" lon="12.306813"><ele>241.0</ele><time>2026-05-02T07:39:16.729Z</time></trkpt><trkpt lat="43.0598779" lon="12.3068927"><ele>240.99999999999997</ele><time>2026-05-02T07:39:18.729Z</time></trkpt><trkpt lat="43.059964" lon="12.3069815"><ele>241.0</ele><time>2026-05-02T07:39:20.729Z</time></trkpt><trkpt lat="43.0600255" lon="12.3070376"><ele>241.0</ele><time>2026-05-02T07:39:21.729Z</time></trkpt><trkpt lat="43.0600871" lon="12.3070925"><ele>241.0</ele><time>2026-05-02T07:39:22.729Z</time></trkpt><trkpt lat="43.0601465" lon="12.307168"><ele>240.99999999999997</ele><time>2026-05-02T07:39:23.729Z</time></trkpt><trkpt lat="43.0602056" lon="12.3072301"><ele>241.0</ele><time>2026-05-02T07:39:24.729Z</time></trkpt><trkpt lat="43.060263" lon="12.3072885"><ele>240.83333333333331</ele><time>2026-05-02T07:39:25.728Z</time></trkpt><trkpt lat="43.0603277" lon="12.3073498"><ele>240.66666666666666</ele><time>2026-05-02T07:39:26.729Z</time></trkpt><trkpt lat="43.060393" lon="12.3074029"><ele>240.5</ele><time>2026-05-02T07:39:27.729Z</time></trkpt><trkpt lat="43.0604615" lon="12.3074635"><ele>240.33333333333331</ele><time>2026-05-02T07:39:28.729Z</time></trkpt><trkpt lat="43.0605349" lon="12.3075354"><ele>240.16666666666666</ele><time>2026-05-02T07:39:29.729Z</time></trkpt><trkpt lat="43.0606058" lon="12.3075994"><ele>240.0</ele><time>2026-05-02T07:39:30.729Z</time></trkpt><trkpt lat="43.0606756" lon="12.3076593"><ele>240.0</ele><time>2026-05-02T07:39:31.729Z</time></trkpt><trkpt lat="43.0607414" lon="12.3077187"><ele>240.0</ele><time>2026-05-02T07:39:32.729Z</time></trkpt><trkpt lat="43.0608069" lon="12.3077785"><ele>240.0</ele><time>2026-05-02T07:39:33.729Z</time></trkpt><trkpt lat="43.0608799" lon="12.3078429"><ele>240.0</ele><time>2026-05-02T07:39:34.729Z</time></trkpt><trkpt lat="43.0609438" lon="12.3079075"><ele>240.0</ele><time>2026-05-02T07:39:35.729Z</time></trkpt><trkpt lat="43.0610008" lon="12.3079592"><ele>240.0</ele><time>2026-05-02T07:39:36.729Z</time></trkpt><trkpt lat="43.0610607" lon="12.3080102"><ele>240.16666666666666</ele><time>2026-05-02T07:39:37.729Z</time></trkpt><trkpt lat="43.0611687" lon="12.308095"><ele>240.33333333333331</ele><time>2026-05-02T07:39:39.729Z</time></trkpt><trkpt lat="43.0612258" lon="12.3081446"><ele>240.5</ele><time>2026-05-02T07:39:40.729Z</time></trkpt><trkpt lat="43.0612791" lon="12.3081952"><ele>240.66666666666666</ele><time>2026-05-02T07:39:41.729Z</time></trkpt><trkpt lat="43.0613272" lon="12.3082606"><ele>240.83333333333331</ele><time>2026-05-02T07:39:42.729Z</time></trkpt><trkpt lat="43.0613867" lon="12.3083173"><ele>241.0</ele><time>2026-05-02T07:39:43.729Z</time></trkpt><trkpt lat="43.0614493" lon="12.3083823"><ele>240.99999999999997</ele><time>2026-05-02T07:39:44.729Z</time></trkpt><trkpt lat="43.0615217" lon="12.3084562"><ele>241.0</ele><time>2026-05-02T07:39:45.729Z</time></trkpt><trkpt lat="43.0615846" lon="12.3085203"><ele>241.0</ele><time>2026-05-02T07:39:46.729Z</time></trkpt><trkpt lat="43.0616457" lon="12.3085861"><ele>241.0</ele><time>2026-05-02T07:39:47.729Z</time></trkpt><trkpt lat="43.061707" lon="12.308662"><ele>240.99999999999997</ele><time>2026-05-02T07:39:48.729Z</time></trkpt><trkpt lat="43.0617692" lon="12.3087292"><ele>241.0</ele><time>2026-05-02T07:39:49.729Z</time></trkpt><trkpt lat="43.0618275" lon="12.308797"><ele>241.16666666666666</ele><time>2026-05-02T07:39:50.729Z</time></trkpt><trkpt lat="43.061888" lon="12.3088716"><ele>241.33333333333331</ele><time>2026-05-02T07:39:51.729Z</time></trkpt><trkpt lat="43.0619469" lon="12.3089441"><ele>241.5</ele><time>2026-05-02T07:39:52.729Z</time></trkpt><trkpt lat="43.0620107" lon="12.3090142"><ele>241.66666666666669</ele><time>2026-05-02T07:39:53.729Z</time></trkpt><trkpt lat="43.0620719" lon="12.3090715"><ele>241.83333333333334</ele><time>2026-05-02T07:39:54.729Z</time></trkpt><trkpt lat="43.0621314" lon="12.3091295"><ele>242.0</ele><time>2026-05-02T07:39:55.729Z</time></trkpt><trkpt lat="43.0621884" lon="12.3091872"><ele>242.00000000000003</ele><time>2026-05-02T07:39:56.729Z</time></trkpt><trkpt lat="43.0622504" lon="12.3092453"><ele>242.0</ele><time>2026-05-02T07:39:57.729Z</time></trkpt><trkpt lat="43.0623176" lon="12.3093055"><ele>242.0</ele><time>2026-05-02T07:39:58.729Z</time></trkpt><trkpt lat="43.0623899" lon="12.3093682"><ele>242.0</ele><time>2026-05-02T07:39:59.729Z</time></trkpt><trkpt lat="43.0624735" lon="12.3094365"><ele>242.00000000000003</ele><time>2026-05-02T07:40:00.729Z</time></trkpt><trkpt lat="43.0625581" lon="12.3094969"><ele>242.0</ele><time>2026-05-02T07:40:01.729Z</time></trkpt><trkpt lat="43.0626395" lon="12.3095466"><ele>241.83333333333334</ele><time>2026-05-02T07:40:02.729Z</time></trkpt><trkpt lat="43.0627104" lon="12.3095983"><ele>241.66666666666669</ele><time>2026-05-02T07:40:03.729Z</time></trkpt><trkpt lat="43.0627863" lon="12.3096522"><ele>241.5</ele><time>2026-05-02T07:40:04.729Z</time></trkpt><trkpt lat="43.0628552" lon="12.3096991"><ele>241.33333333333331</ele><time>2026-05-02T07:40:05.729Z</time></trkpt><trkpt lat="43.0629229" lon="12.30975"><ele>241.16666666666666</ele><time>2026-05-02T07:40:06.729Z</time></trkpt><trkpt lat="43.0630008" lon="12.3098057"><ele>241.0</ele><time>2026-05-02T07:40:07.729Z</time></trkpt><trkpt lat="43.063096" lon="12.3098707"><ele>241.0</ele><time>2026-05-02T07:40:08.729Z</time></trkpt><trkpt lat="43.0632076" lon="12.3099349"><ele>241.00000000000003</ele><time>2026-05-02T07:40:09.729Z</time></trkpt><trkpt lat="43.0633157" lon="12.3100058"><ele>241.00000000000003</ele><time>2026-05-02T07:40:10.729Z</time></trkpt><trkpt lat="43.0634102" lon="12.3100708"><ele>241.0</ele><time>2026-05-02T07:40:11.729Z</time></trkpt><trkpt lat="43.0634912" lon="12.3101276"><ele>241.0</ele><time>2026-05-02T07:40:12.729Z</time></trkpt><trkpt lat="43.0635667" lon="12.3101754"><ele>240.99999999999997</ele><time>2026-05-02T07:40:13.729Z</time></trkpt><trkpt lat="43.0636359" lon="12.3102288"><ele>241.0</ele><time>2026-05-02T07:40:14.729Z</time></trkpt><trkpt lat="43.0637023" lon="12.3102823"><ele>241.0</ele><time>2026-05-02T07:40:15.729Z</time></trkpt><trkpt lat="43.0637731" lon="12.3103378"><ele>241.0</ele><time>2026-05-02T07:40:16.729Z</time></trkpt><trkpt lat="43.0638484" lon="12.3104021"><ele>240.99999999999997</ele><time>2026-05-02T07:40:17.729Z</time></trkpt><trkpt lat="43.0639176" lon="12.3104597"><ele>241.0</ele><time>2026-05-02T07:40:18.729Z</time></trkpt><trkpt lat="43.0639777" lon="12.3105205"><ele>241.0</ele><time>2026-05-02T07:40:19.729Z</time></trkpt><trkpt lat="43.06403" lon="12.3105751"><ele>241.00000000000003</ele><time>2026-05-02T07:40:20.729Z</time></trkpt><trkpt lat="43.0640841" lon="12.3106227"><ele>241.0</ele><time>2026-05-02T07:40:21.729Z</time></trkpt><trkpt lat="43.0641568" lon="12.3107222"><ele>241.0</ele><time>2026-05-02T07:40:23.729Z</time></trkpt><trkpt lat="43.0641872" lon="12.3108012"><ele>241.00000000000003</ele><time>2026-05-02T07:40:25.729Z</time></trkpt><trkpt lat="43.0642376" lon="12.3108815"><ele>241.0</ele><time>2026-05-02T07:40:28.729Z</time></trkpt><trkpt lat="43.0642581" lon="12.3107864"><ele>241.0</ele><time>2026-05-02T07:41:03.729Z</time></trkpt><trkpt lat="43.0643065" lon="12.3108531"><ele>240.99999999999997</ele><time>2026-05-02T07:46:35.729Z</time></trkpt><trkpt lat="43.0642936" lon="12.3107568"><ele>241.0</ele><time>2026-05-02T07:46:51.729Z</time></trkpt><trkpt lat="43.0642256" lon="12.310692"><ele>241.0</ele><time>2026-05-02T07:46:53.729Z</time></trkpt><trkpt lat="43.064117" lon="12.3105906"><ele>241.0</ele><time>2026-05-02T07:46:55.729Z</time></trkpt><trkpt lat="43.0640595" lon="12.3105357"><ele>240.99999999999997</ele><time>2026-05-02T07:46:56.729Z</time></trkpt><trkpt lat="43.0640037" lon="12.3104899"><ele>241.0</ele><time>2026-05-02T07:46:57.729Z</time></trkpt><trkpt lat="43.0639508" lon="12.3104366"><ele>240.99999999999997</ele><time>2026-05-02T07:46:58.729Z</time></trkpt><trkpt lat="43.0638917" lon="12.3103949"><ele>241.0</ele><time>2026-05-02T07:46:59.729Z</time></trkpt><trkpt lat="43.0637786" lon="12.3103128"><ele>241.0</ele><time>2026-05-02T07:47:01.729Z</time></trkpt><trkpt lat="43.0637164" lon="12.3102635"><ele>241.0</ele><time>2026-05-02T07:47:02.729Z</time></trkpt><trkpt lat="43.063652" lon="12.3102206"><ele>240.99999999999997</ele><time>2026-05-02T07:47:03.729Z</time></trkpt><trkpt lat="43.0635816" lon="12.3101678"><ele>241.0</ele><time>2026-05-02T07:47:04.729Z</time></trkpt><trkpt lat="43.0635048" lon="12.3101161"><ele>240.99999999999997</ele><time>2026-05-02T07:47:05.729Z</time></trkpt><trkpt lat="43.0634309" lon="12.3100633"><ele>241.0</ele><time>2026-05-02T07:47:06.729Z</time></trkpt><trkpt lat="43.0633653" lon="12.3100211"><ele>241.0</ele><time>2026-05-02T07:47:07.729Z</time></trkpt><trkpt lat="43.0632937" lon="12.309972"><ele>241.0</ele><time>2026-05-02T07:47:08.729Z</time></trkpt><trkpt lat="43.0632249" lon="12.3099236"><ele>240.99999999999997</ele><time>2026-05-02T07:47:09.729Z</time></trkpt><trkpt lat="43.0631471" lon="12.3098723"><ele>241.0</ele><time>2026-05-02T07:47:10.729Z</time></trkpt><trkpt lat="43.0630621" lon="12.3098205"><ele>241.0</ele><time>2026-05-02T07:47:11.729Z</time></trkpt><trkpt lat="43.062966" lon="12.3097574"><ele>241.00000000000003</ele><time>2026-05-02T07:47:12.729Z</time></trkpt><trkpt lat="43.0628728" lon="12.3096879"><ele>241.00000000000003</ele><time>2026-05-02T07:47:13.729Z</time></trkpt><trkpt lat="43.0627887" lon="12.3096267"><ele>241.0</ele><time>2026-05-02T07:47:14.729Z</time></trkpt><trkpt lat="43.0627035" lon="12.3095622"><ele>241.0</ele><time>2026-05-02T07:47:15.729Z</time></trkpt><trkpt lat="43.0626194" lon="12.3095012"><ele>241.0</ele><time>2026-05-02T07:47:16.729Z</time></trkpt><trkpt lat="43.0625186" lon="12.3094292"><ele>241.00000000000003</ele><time>2026-05-02T07:47:17.728Z</time></trkpt><trkpt lat="43.0624362" lon="12.3093641"><ele>241.00000000000003</ele><time>2026-05-02T07:47:18.729Z</time></trkpt><trkpt lat="43.0623574" lon="12.3092926"><ele>241.0</ele><time>2026-05-02T07:47:19.729Z</time></trkpt><trkpt lat="43.0622774" lon="12.3092213"><ele>241.0</ele><time>2026-05-02T07:47:20.729Z</time></trkpt><trkpt lat="43.0621963" lon="12.3091426"><ele>241.20000000000002</ele><time>2026-05-02T07:47:21.729Z</time></trkpt><trkpt lat="43.0621028" lon="12.3090655"><ele>241.40000000000003</ele><time>2026-05-02T07:47:22.729Z</time></trkpt><trkpt lat="43.0620179" lon="12.3089738"><ele>241.6</ele><time>2026-05-02T07:47:23.729Z</time></trkpt><trkpt lat="43.0619363" lon="12.3088832"><ele>241.8</ele><time>2026-05-02T07:47:24.729Z</time></trkpt><trkpt lat="43.0618538" lon="12.3087927"><ele>242.0</ele><time>2026-05-02T07:47:25.729Z</time></trkpt><trkpt lat="43.0617832" lon="12.3087011"><ele>242.16666666666669</ele><time>2026-05-02T07:47:26.729Z</time></trkpt><trkpt lat="43.0617106" lon="12.3086118"><ele>242.33333333333334</ele><time>2026-05-02T07:47:27.729Z</time></trkpt><trkpt lat="43.0616393" lon="12.3085419"><ele>242.5</ele><time>2026-05-02T07:47:28.729Z</time></trkpt><trkpt lat="43.0615732" lon="12.308472"><ele>242.66666666666669</ele><time>2026-05-02T07:47:29.729Z</time></trkpt><trkpt lat="43.0615157" lon="12.3084109"><ele>242.83333333333334</ele><time>2026-05-02T07:47:30.729Z</time></trkpt><trkpt lat="43.061441" lon="12.3083049"><ele>243.0</ele><time>2026-05-02T07:47:32.729Z</time></trkpt><trkpt lat="43.0614426" lon="12.3081822"><ele>242.83333333333334</ele><time>2026-05-02T07:47:34.729Z</time></trkpt><trkpt lat="43.0614936" lon="12.3080438"><ele>242.66666666666669</ele><time>2026-05-02T07:47:36.729Z</time></trkpt><trkpt lat="43.0615434" lon="12.3079557"><ele>242.5</ele><time>2026-05-02T07:47:37.729Z</time></trkpt><trkpt lat="43.0615905" lon="12.3078689"><ele>242.33333333333334</ele><time>2026-05-02T07:47:38.729Z</time></trkpt><trkpt lat="43.06163" lon="12.3077851"><ele>242.16666666666669</ele><time>2026-05-02T07:47:39.729Z</time></trkpt><trkpt lat="43.0616656" lon="12.3077105"><ele>242.0</ele><time>2026-05-02T07:47:40.729Z</time></trkpt><trkpt lat="43.0617585" lon="12.3075938"><ele>242.0</ele><time>2026-05-02T07:47:42.729Z</time></trkpt><trkpt lat="43.061881" lon="12.3075151"><ele>242.0</ele><time>2026-05-02T07:47:44.729Z</time></trkpt><trkpt lat="43.0619414" lon="12.3074719"><ele>242.0</ele><time>2026-05-02T07:47:45.729Z</time></trkpt><trkpt lat="43.0620527" lon="12.3074115"><ele>242.0</ele><time>2026-05-02T07:47:47.729Z</time></trkpt><trkpt lat="43.0621616" lon="12.3073474"><ele>242.0</ele><time>2026-05-02T07:47:49.729Z</time></trkpt><trkpt lat="43.0622618" lon="12.3073066"><ele>242.2</ele><time>2026-05-02T07:47:51.729Z</time></trkpt><trkpt lat="43.0623344" lon="12.3072229"><ele>242.39999999999998</ele><time>2026-05-02T07:47:53.729Z</time></trkpt><trkpt lat="43.0623212" lon="12.307091"><ele>242.60000000000002</ele><time>2026-05-02T07:47:55.729Z</time></trkpt><trkpt lat="43.0622796" lon="12.3069421"><ele>242.8</ele><time>2026-05-02T07:47:57.729Z</time></trkpt><trkpt lat="43.0622489" lon="12.3068365"><ele>243.0</ele><time>2026-05-02T07:47:59.729Z</time></trkpt><trkpt lat="43.0622207" lon="12.3067452"><ele>243.0</ele><time>2026-05-02T07:48:02.729Z</time></trkpt><trkpt lat="43.0621921" lon="12.3066368"><ele>243.0</ele><time>2026-05-02T07:48:05.729Z</time></trkpt><trkpt lat="43.0621749" lon="12.3065459"><ele>243.0</ele><time>2026-05-02T07:48:07.729Z</time></trkpt><trkpt lat="43.0621581" lon="12.3064347"><ele>243.0</ele><time>2026-05-02T07:48:09.729Z</time></trkpt><trkpt lat="43.0622087" lon="12.3063209"><ele>243.0</ele><time>2026-05-02T07:48:11.729Z</time></trkpt><trkpt lat="43.062328" lon="12.306247"><ele>243.0</ele><time>2026-05-02T07:48:13.729Z</time></trkpt><trkpt lat="43.0623952" lon="12.3062038"><ele>243.0</ele><time>2026-05-02T07:48:14.729Z</time></trkpt><trkpt lat="43.0624686" lon="12.3061416"><ele>243.0</ele><time>2026-05-02T07:48:15.729Z</time></trkpt><trkpt lat="43.0625356" lon="12.3060495"><ele>243.0</ele><time>2026-05-02T07:48:16.729Z</time></trkpt><trkpt lat="43.0625759" lon="12.3059346"><ele>243.0</ele><time>2026-05-02T07:48:17.729Z</time></trkpt><trkpt lat="43.0625996" lon="12.3058116"><ele>243.0</ele><time>2026-05-02T07:48:18.729Z</time></trkpt><trkpt lat="43.0626184" lon="12.3056881"><ele>242.16666666666666</ele><time>2026-05-02T07:48:19.729Z</time></trkpt><trkpt lat="43.062656" lon="12.3056122"><ele>241.33333333333331</ele><time>2026-05-02T07:48:20.729Z</time></trkpt><trkpt lat="43.0627005" lon="12.3055362"><ele>240.5</ele><time>2026-05-02T07:48:21.729Z</time></trkpt><trkpt lat="43.0627496" lon="12.3054679"><ele>239.66666666666666</ele><time>2026-05-02T07:48:22.729Z</time></trkpt><trkpt lat="43.0628099" lon="12.3054045"><ele>238.83333333333331</ele><time>2026-05-02T07:48:23.729Z</time></trkpt><trkpt lat="43.062893" lon="12.305357"><ele>238.0</ele><time>2026-05-02T07:48:24.729Z</time></trkpt><trkpt lat="43.0629819" lon="12.3053164"><ele>237.99999999999997</ele><time>2026-05-02T07:48:25.729Z</time></trkpt><trkpt lat="43.063057" lon="12.3052846"><ele>238.0</ele><time>2026-05-02T07:48:26.729Z</time></trkpt><trkpt lat="43.0631371" lon="12.3052524"><ele>238.0</ele><time>2026-05-02T07:48:27.729Z</time></trkpt><trkpt lat="43.0632219" lon="12.3052263"><ele>238.0</ele><time>2026-05-02T07:48:28.729Z</time></trkpt><trkpt lat="43.0633079" lon="12.3051905"><ele>237.99999999999997</ele><time>2026-05-02T07:48:29.729Z</time></trkpt><trkpt lat="43.063399" lon="12.3051596"><ele>238.0</ele><time>2026-05-02T07:48:30.729Z</time></trkpt><trkpt lat="43.0634876" lon="12.3051267"><ele>237.99999999999997</ele><time>2026-05-02T07:48:31.729Z</time></trkpt><trkpt lat="43.0635656" lon="12.3050946"><ele>238.0</ele><time>2026-05-02T07:48:32.728Z</time></trkpt><trkpt lat="43.0636372" lon="12.305062"><ele>238.0</ele><time>2026-05-02T07:48:33.729Z</time></trkpt><trkpt lat="43.0637205" lon="12.3050294"><ele>238.0</ele><time>2026-05-02T07:48:34.729Z</time></trkpt><trkpt lat="43.063803" lon="12.3049898"><ele>237.99999999999997</ele><time>2026-05-02T07:48:35.729Z</time></trkpt><trkpt lat="43.0638895" lon="12.3049494"><ele>238.0</ele><time>2026-05-02T07:48:36.729Z</time></trkpt><trkpt lat="43.063967" lon="12.3049021"><ele>237.99999999999997</ele><time>2026-05-02T07:48:37.729Z</time></trkpt><trkpt lat="43.0640382" lon="12.304853"><ele>238.0</ele><time>2026-05-02T07:48:38.729Z</time></trkpt><trkpt lat="43.0641093" lon="12.3047984"><ele>238.0</ele><time>2026-05-02T07:48:39.729Z</time></trkpt><trkpt lat="43.0641797" lon="12.3047369"><ele>238.0</ele><time>2026-05-02T07:48:40.729Z</time></trkpt><trkpt lat="43.0642463" lon="12.3046657"><ele>237.99999999999997</ele><time>2026-05-02T07:48:41.729Z</time></trkpt><trkpt lat="43.0643088" lon="12.3045967"><ele>238.0</ele><time>2026-05-02T07:48:42.729Z</time></trkpt><trkpt lat="43.0643714" lon="12.3045298"><ele>237.71428571428572</ele><time>2026-05-02T07:48:43.729Z</time></trkpt><trkpt lat="43.0644332" lon="12.3044625"><ele>237.42857142857144</ele><time>2026-05-02T07:48:44.729Z</time></trkpt><trkpt lat="43.0644858" lon="12.3044007"><ele>237.14285714285714</ele><time>2026-05-02T07:48:45.729Z</time></trkpt><trkpt lat="43.0645383" lon="12.3043382"><ele>236.85714285714286</ele><time>2026-05-02T07:48:46.729Z</time></trkpt><trkpt lat="43.0645956" lon="12.3042788"><ele>236.57142857142858</ele><time>2026-05-02T07:48:47.729Z</time></trkpt><trkpt lat="43.064653" lon="12.3042178"><ele>236.28571428571428</ele><time>2026-05-02T07:48:48.729Z</time></trkpt><trkpt lat="43.0647154" lon="12.3041507"><ele>236.0</ele><time>2026-05-02T07:48:49.729Z</time></trkpt><trkpt lat="43.0647762" lon="12.3040841"><ele>236.00000000000003</ele><time>2026-05-02T07:48:50.729Z</time></trkpt><trkpt lat="43.0648314" lon="12.3040238"><ele>236.0</ele><time>2026-05-02T07:48:51.729Z</time></trkpt><trkpt lat="43.0648849" lon="12.3039735"><ele>236.0</ele><time>2026-05-02T07:48:52.729Z</time></trkpt><trkpt lat="43.0649724" lon="12.3039117"><ele>236.0</ele><time>2026-05-02T07:48:54.729Z</time></trkpt><trkpt lat="43.065048" lon="12.3038822"><ele>236.00000000000003</ele><time>2026-05-02T07:49:02.729Z</time></trkpt><trkpt lat="43.0651145" lon="12.3038596"><ele>236.0</ele><time>2026-05-02T07:49:05.729Z</time></trkpt><trkpt lat="43.0651497" lon="12.3037663"><ele>235.8</ele><time>2026-05-02T07:49:08.729Z</time></trkpt><trkpt lat="43.0651112" lon="12.3035884"><ele>235.60000000000002</ele><time>2026-05-02T07:49:10.729Z</time></trkpt><trkpt lat="43.0650787" lon="12.3034883"><ele>235.4</ele><time>2026-05-02T07:49:11.729Z</time></trkpt><trkpt lat="43.0650273" lon="12.3033733"><ele>235.2</ele><time>2026-05-02T07:49:12.729Z</time></trkpt><trkpt lat="43.064972" lon="12.3032624"><ele>235.0</ele><time>2026-05-02T07:49:13.729Z</time></trkpt><trkpt lat="43.0649224" lon="12.3031452"><ele>235.8</ele><time>2026-05-02T07:49:14.729Z</time></trkpt><trkpt lat="43.0648696" lon="12.3030226"><ele>236.6</ele><time>2026-05-02T07:49:15.729Z</time></trkpt><trkpt lat="43.0648181" lon="12.3028997"><ele>237.39999999999998</ele><time>2026-05-02T07:49:16.729Z</time></trkpt><trkpt lat="43.064765" lon="12.3027795"><ele>238.2</ele><time>2026-05-02T07:49:17.729Z</time></trkpt><trkpt lat="43.064716" lon="12.3026652"><ele>239.0</ele><time>2026-05-02T07:49:18.729Z</time></trkpt><trkpt lat="43.0646682" lon="12.3025537"><ele>239.00000000000003</ele><time>2026-05-02T07:49:19.729Z</time></trkpt><trkpt lat="43.0646236" lon="12.3024539"><ele>239.0</ele><time>2026-05-02T07:49:20.729Z</time></trkpt><trkpt lat="43.0645801" lon="12.3023527"><ele>239.0</ele><time>2026-05-02T07:49:21.729Z</time></trkpt><trkpt lat="43.0645324" lon="12.3022524"><ele>239.0</ele><time>2026-05-02T07:49:22.729Z</time></trkpt><trkpt lat="43.0644883" lon="12.3021462"><ele>239.00000000000003</ele><time>2026-05-02T07:49:23.729Z</time></trkpt><trkpt lat="43.0644409" lon="12.3020445"><ele>239.0</ele><time>2026-05-02T07:49:24.729Z</time></trkpt><trkpt lat="43.0644004" lon="12.3019393"><ele>239.0</ele><time>2026-05-02T07:49:25.729Z</time></trkpt><trkpt lat="43.0643509" lon="12.3018264"><ele>238.99999999999997</ele><time>2026-05-02T07:49:26.729Z</time></trkpt><trkpt lat="43.0642972" lon="12.3017107"><ele>238.99999999999997</ele><time>2026-05-02T07:49:27.729Z</time></trkpt><trkpt lat="43.0642469" lon="12.3015917"><ele>239.0</ele><time>2026-05-02T07:49:28.729Z</time></trkpt><trkpt lat="43.0641896" lon="12.3014694"><ele>239.0</ele><time>2026-05-02T07:49:29.729Z</time></trkpt><trkpt lat="43.0641327" lon="12.3013484"><ele>238.6</ele><time>2026-05-02T07:49:30.729Z</time></trkpt><trkpt lat="43.06408" lon="12.3012305"><ele>238.2</ele><time>2026-05-02T07:49:31.729Z</time></trkpt><trkpt lat="43.0640259" lon="12.3011058"><ele>237.79999999999998</ele><time>2026-05-02T07:49:32.729Z</time></trkpt><trkpt lat="43.0639703" lon="12.3009844"><ele>237.39999999999998</ele><time>2026-05-02T07:49:33.729Z</time></trkpt><trkpt lat="43.0639146" lon="12.3008601"><ele>237.0</ele><time>2026-05-02T07:49:34.729Z</time></trkpt><trkpt lat="43.0638579" lon="12.3007342"><ele>237.0</ele><time>2026-05-02T07:49:35.729Z</time></trkpt><trkpt lat="43.0638011" lon="12.3006082"><ele>237.0</ele><time>2026-05-02T07:49:36.729Z</time></trkpt><trkpt lat="43.0637415" lon="12.3004756"><ele>237.0</ele><time>2026-05-02T07:49:37.729Z</time></trkpt><trkpt lat="43.0636839" lon="12.300349"><ele>237.0</ele><time>2026-05-02T07:49:38.729Z</time></trkpt><trkpt lat="43.0636264" lon="12.3002203"><ele>237.0</ele><time>2026-05-02T07:49:39.729Z</time></trkpt><trkpt lat="43.0635792" lon="12.3001"><ele>237.0</ele><time>2026-05-02T07:49:40.729Z</time></trkpt><trkpt lat="43.063524" lon="12.2999744"><ele>237.0</ele><time>2026-05-02T07:49:41.729Z</time></trkpt><trkpt lat="43.0634665" lon="12.2998487"><ele>237.0</ele><time>2026-05-02T07:49:42.729Z</time></trkpt><trkpt lat="43.0634093" lon="12.299722"><ele>237.0</ele><time>2026-05-02T07:49:43.729Z</time></trkpt><trkpt lat="43.063355" lon="12.299598"><ele>237.0</ele><time>2026-05-02T07:49:44.729Z</time></trkpt><trkpt lat="43.0633011" lon="12.2994733"><ele>237.0</ele><time>2026-05-02T07:49:45.729Z</time></trkpt><trkpt lat="43.0632366" lon="12.2993298"><ele>237.0</ele><time>2026-05-02T07:49:46.729Z</time></trkpt><trkpt lat="43.0631737" lon="12.2991946"><ele>237.0</ele><time>2026-05-02T07:49:47.729Z</time></trkpt><trkpt lat="43.0631112" lon="12.2990664"><ele>237.0</ele><time>2026-05-02T07:49:48.729Z</time></trkpt><trkpt lat="43.0630517" lon="12.2989378"><ele>237.16666666666666</ele><time>2026-05-02T07:49:49.729Z</time></trkpt><trkpt lat="43.0630074" lon="12.2988343"><ele>237.33333333333331</ele><time>2026-05-02T07:49:50.729Z</time></trkpt><trkpt lat="43.0629584" lon="12.2987245"><ele>237.5</ele><time>2026-05-02T07:49:51.729Z</time></trkpt><trkpt lat="43.062912" lon="12.2986166"><ele>237.66666666666666</ele><time>2026-05-02T07:49:52.729Z</time></trkpt><trkpt lat="43.0628671" lon="12.2985131"><ele>237.83333333333331</ele><time>2026-05-02T07:49:53.728Z</time></trkpt><trkpt lat="43.0628207" lon="12.298411"><ele>238.0</ele><time>2026-05-02T07:49:54.729Z</time></trkpt><trkpt lat="43.0627786" lon="12.2983128"><ele>237.99999999999997</ele><time>2026-05-02T07:49:55.729Z</time></trkpt><trkpt lat="43.0627344" lon="12.2982168"><ele>238.0</ele><time>2026-05-02T07:49:56.729Z</time></trkpt><trkpt lat="43.0626931" lon="12.2981256"><ele>238.0</ele><time>2026-05-02T07:49:57.729Z</time></trkpt><trkpt lat="43.0626501" lon="12.2980328"><ele>238.0</ele><time>2026-05-02T07:49:58.729Z</time></trkpt><trkpt lat="43.0626048" lon="12.2979167"><ele>237.99999999999997</ele><time>2026-05-02T07:49:59.729Z</time></trkpt><trkpt lat="43.0625554" lon="12.2977979"><ele>238.0</ele><time>2026-05-02T07:50:00.729Z</time></trkpt><trkpt lat="43.0625034" lon="12.2976822"><ele>238.0</ele><time>2026-05-02T07:50:01.729Z</time></trkpt><trkpt lat="43.0624506" lon="12.2975679"><ele>238.0</ele><time>2026-05-02T07:50:02.729Z</time></trkpt><trkpt lat="43.0624009" lon="12.2974544"><ele>238.0</ele><time>2026-05-02T07:50:03.729Z</time></trkpt><trkpt lat="43.0623541" lon="12.2973429"><ele>238.0</ele><time>2026-05-02T07:50:04.729Z</time></trkpt><trkpt lat="43.0623016" lon="12.2972316"><ele>238.0</ele><time>2026-05-02T07:50:05.729Z</time></trkpt><trkpt lat="43.0622485" lon="12.2971122"><ele>237.8</ele><time>2026-05-02T07:50:06.729Z</time></trkpt><trkpt lat="43.0621952" lon="12.2969949"><ele>237.60000000000002</ele><time>2026-05-02T07:50:07.729Z</time></trkpt><trkpt lat="43.0621356" lon="12.2968583"><ele>237.39999999999998</ele><time>2026-05-02T07:50:08.729Z</time></trkpt><trkpt lat="43.0620847" lon="12.2967372"><ele>237.2</ele><time>2026-05-02T07:50:09.729Z</time></trkpt><trkpt lat="43.0620356" lon="12.2966254"><ele>237.0</ele><time>2026-05-02T07:50:10.729Z</time></trkpt><trkpt lat="43.0619881" lon="12.2965153"><ele>236.8</ele><time>2026-05-02T07:50:11.729Z</time></trkpt><trkpt lat="43.0619389" lon="12.2964053"><ele>236.6</ele><time>2026-05-02T07:50:12.729Z</time></trkpt><trkpt lat="43.0618886" lon="12.2962979"><ele>236.40000000000003</ele><time>2026-05-02T07:50:13.729Z</time></trkpt><trkpt lat="43.0618407" lon="12.2961869"><ele>236.20000000000002</ele><time>2026-05-02T07:50:14.729Z</time></trkpt><trkpt lat="43.0617847" lon="12.296061"><ele>236.0</ele><time>2026-05-02T07:50:15.729Z</time></trkpt><trkpt lat="43.0617231" lon="12.2959193"><ele>236.0</ele><time>2026-05-02T07:50:16.729Z</time></trkpt><trkpt lat="43.0616578" lon="12.2957732"><ele>236.0</ele><time>2026-05-02T07:50:17.729Z</time></trkpt><trkpt lat="43.0615908" lon="12.2956248"><ele>236.0</ele><time>2026-05-02T07:50:18.729Z</time></trkpt><trkpt lat="43.0615227" lon="12.2954727"><ele>236.0</ele><time>2026-05-02T07:50:19.729Z</time></trkpt><trkpt lat="43.0614573" lon="12.2953252"><ele>234.75</ele><time>2026-05-02T07:50:20.729Z</time></trkpt><trkpt lat="43.0613918" lon="12.2951739"><ele>233.5</ele><time>2026-05-02T07:50:21.729Z</time></trkpt><trkpt lat="43.0613222" lon="12.2950251"><ele>232.25</ele><time>2026-05-02T07:50:22.729Z</time></trkpt><trkpt lat="43.0612556" lon="12.294872"><ele>231.0</ele><time>2026-05-02T07:50:23.729Z</time></trkpt><trkpt lat="43.0611949" lon="12.2947329"><ele>230.4</ele><time>2026-05-02T07:50:24.729Z</time></trkpt><trkpt lat="43.0611378" lon="12.2946053"><ele>229.8</ele><time>2026-05-02T07:50:25.729Z</time></trkpt><trkpt lat="43.0610794" lon="12.2944803"><ele>229.20000000000002</ele><time>2026-05-02T07:50:26.729Z</time></trkpt><trkpt lat="43.0610265" lon="12.2943627"><ele>228.60000000000002</ele><time>2026-05-02T07:50:27.729Z</time></trkpt><trkpt lat="43.0609697" lon="12.2942316"><ele>228.0</ele><time>2026-05-02T07:50:28.729Z</time></trkpt><trkpt lat="43.0609123" lon="12.2940926"><ele>228.0</ele><time>2026-05-02T07:50:29.729Z</time></trkpt><trkpt lat="43.0608462" lon="12.2939313"><ele>228.0</ele><time>2026-05-02T07:50:30.729Z</time></trkpt><trkpt lat="43.0607739" lon="12.2937711"><ele>228.0</ele><time>2026-05-02T07:50:31.729Z</time></trkpt><trkpt lat="43.0606982" lon="12.2936043"><ele>228.0</ele><time>2026-05-02T07:50:32.729Z</time></trkpt><trkpt lat="43.0606223" lon="12.2934361"><ele>227.5</ele><time>2026-05-02T07:50:33.729Z</time></trkpt><trkpt lat="43.0605465" lon="12.2932623"><ele>227.0</ele><time>2026-05-02T07:50:34.729Z</time></trkpt><trkpt lat="43.0604705" lon="12.2930904"><ele>226.5</ele><time>2026-05-02T07:50:35.729Z</time></trkpt><trkpt lat="43.0604034" lon="12.292927"><ele>226.0</ele><time>2026-05-02T07:50:36.729Z</time></trkpt><trkpt lat="43.0603405" lon="12.2927753"><ele>225.75</ele><time>2026-05-02T07:50:37.729Z</time></trkpt><trkpt lat="43.0602781" lon="12.2926218"><ele>225.5</ele><time>2026-05-02T07:50:38.729Z</time></trkpt><trkpt lat="43.0602348" lon="12.292499"><ele>225.25</ele><time>2026-05-02T07:50:39.729Z</time></trkpt><trkpt lat="43.0601736" lon="12.2923602"><ele>225.0</ele><time>2026-05-02T07:50:40.729Z</time></trkpt><trkpt lat="43.060096" lon="12.2922115"><ele>225.0</ele><time>2026-05-02T07:50:41.729Z</time></trkpt><trkpt lat="43.060025" lon="12.29206"><ele>225.0</ele><time>2026-05-02T07:50:42.729Z</time></trkpt><trkpt lat="43.0599562" lon="12.2919177"><ele>225.0</ele><time>2026-05-02T07:50:43.729Z</time></trkpt><trkpt lat="43.0598901" lon="12.2917747"><ele>225.0</ele><time>2026-05-02T07:50:44.729Z</time></trkpt><trkpt lat="43.0598274" lon="12.2916306"><ele>224.75</ele><time>2026-05-02T07:50:45.729Z</time></trkpt><trkpt lat="43.0597626" lon="12.2914854"><ele>224.5</ele><time>2026-05-02T07:50:46.729Z</time></trkpt><trkpt lat="43.0596949" lon="12.2913267"><ele>224.25</ele><time>2026-05-02T07:50:47.729Z</time></trkpt><trkpt lat="43.0596282" lon="12.2911728"><ele>224.0</ele><time>2026-05-02T07:50:48.729Z</time></trkpt><trkpt lat="43.0595579" lon="12.2910157"><ele>223.75</ele><time>2026-05-02T07:50:49.729Z</time></trkpt><trkpt lat="43.0594869" lon="12.2908562"><ele>223.5</ele><time>2026-05-02T07:50:50.729Z</time></trkpt><trkpt lat="43.0594181" lon="12.290697"><ele>223.25</ele><time>2026-05-02T07:50:51.729Z</time></trkpt><trkpt lat="43.0593517" lon="12.290537"><ele>223.0</ele><time>2026-05-02T07:50:52.729Z</time></trkpt><trkpt lat="43.0592847" lon="12.2903792"><ele>222.75</ele><time>2026-05-02T07:50:53.729Z</time></trkpt><trkpt lat="43.0592219" lon="12.2902284"><ele>222.5</ele><time>2026-05-02T07:50:54.729Z</time></trkpt><trkpt lat="43.0591567" lon="12.290083"><ele>222.25</ele><time>2026-05-02T07:50:55.729Z</time></trkpt><trkpt lat="43.0590904" lon="12.2899367"><ele>222.0</ele><time>2026-05-02T07:50:56.729Z</time></trkpt><trkpt lat="43.0590293" lon="12.2897906"><ele>221.16666666666666</ele><time>2026-05-02T07:50:57.729Z</time></trkpt><trkpt lat="43.0589707" lon="12.2896554"><ele>220.33333333333331</ele><time>2026-05-02T07:50:58.729Z</time></trkpt><trkpt lat="43.0589318" lon="12.2895538"><ele>219.5</ele><time>2026-05-02T07:50:59.729Z</time></trkpt><trkpt lat="43.0588917" lon="12.2894586"><ele>218.66666666666666</ele><time>2026-05-02T07:51:00.729Z</time></trkpt><trkpt lat="43.0588465" lon="12.2893789"><ele>217.83333333333331</ele><time>2026-05-02T07:51:01.728Z</time></trkpt><trkpt lat="43.0587909" lon="12.2893255"><ele>217.0</ele><time>2026-05-02T07:51:02.729Z</time></trkpt><trkpt lat="43.0587258" lon="12.2893044"><ele>216.99999999999997</ele><time>2026-05-02T07:51:03.729Z</time></trkpt><trkpt lat="43.0586522" lon="12.2893192"><ele>217.0</ele><time>2026-05-02T07:51:04.729Z</time></trkpt><trkpt lat="43.0585707" lon="12.2893281"><ele>217.0</ele><time>2026-05-02T07:51:05.729Z</time></trkpt><trkpt lat="43.0584905" lon="12.2893411"><ele>217.0</ele><time>2026-05-02T07:51:06.729Z</time></trkpt><trkpt lat="43.0583832" lon="12.2893496"><ele>216.99999999999997</ele><time>2026-05-02T07:51:07.729Z</time></trkpt><trkpt lat="43.0583014" lon="12.2893659"><ele>217.0</ele><time>2026-05-02T07:51:08.729Z</time></trkpt><trkpt lat="43.0582233" lon="12.2893886"><ele>216.71428571428572</ele><time>2026-05-02T07:51:09.729Z</time></trkpt><trkpt lat="43.0581507" lon="12.2894145"><ele>216.42857142857144</ele><time>2026-05-02T07:51:10.729Z</time></trkpt><trkpt lat="43.0580808" lon="12.2894387"><ele>216.14285714285714</ele><time>2026-05-02T07:51:11.729Z</time></trkpt><trkpt lat="43.0580155" lon="12.2894591"><ele>215.85714285714286</ele><time>2026-05-02T07:51:12.729Z</time></trkpt><trkpt lat="43.0579536" lon="12.2894773"><ele>215.57142857142858</ele><time>2026-05-02T07:51:13.729Z</time></trkpt><trkpt lat="43.0578862" lon="12.2894972"><ele>215.28571428571428</ele><time>2026-05-02T07:51:14.729Z</time></trkpt><trkpt lat="43.0578003" lon="12.2895232"><ele>215.0</ele><time>2026-05-02T07:51:15.729Z</time></trkpt><trkpt lat="43.057697" lon="12.2895543"><ele>215.0</ele><time>2026-05-02T07:51:16.729Z</time></trkpt><trkpt lat="43.0575842" lon="12.2895836"><ele>215.0</ele><time>2026-05-02T07:51:17.729Z</time></trkpt><trkpt lat="43.0574665" lon="12.2896129"><ele>215.0</ele><time>2026-05-02T07:51:18.729Z</time></trkpt><trkpt lat="43.0573494" lon="12.2896366"><ele>215.0</ele><time>2026-05-02T07:51:19.729Z</time></trkpt><trkpt lat="43.0572332" lon="12.2896617"><ele>215.0</ele><time>2026-05-02T07:51:20.729Z</time></trkpt><trkpt lat="43.057115" lon="12.2896716"><ele>215.0</ele><time>2026-05-02T07:51:21.729Z</time></trkpt><trkpt lat="43.0569956" lon="12.2896713"><ele>215.0</ele><time>2026-05-02T07:51:22.729Z</time></trkpt><trkpt lat="43.0568669" lon="12.2896747"><ele>215.0</ele><time>2026-05-02T07:51:23.729Z</time></trkpt><trkpt lat="43.0567269" lon="12.289695"><ele>214.33333333333334</ele><time>2026-05-02T07:51:24.729Z</time></trkpt><trkpt lat="43.0565746" lon="12.2897224"><ele>213.66666666666669</ele><time>2026-05-02T07:51:25.729Z</time></trkpt><trkpt lat="43.0564232" lon="12.2897547"><ele>213.0</ele><time>2026-05-02T07:51:26.729Z</time></trkpt><trkpt lat="43.0562716" lon="12.2897799"><ele>213.0</ele><time>2026-05-02T07:51:27.729Z</time></trkpt><trkpt lat="43.0561169" lon="12.2898041"><ele>213.0</ele><time>2026-05-02T07:51:28.729Z</time></trkpt><trkpt lat="43.0559672" lon="12.2898342"><ele>213.0</ele><time>2026-05-02T07:51:29.729Z</time></trkpt><trkpt lat="43.0558241" lon="12.2898802"><ele>214.25</ele><time>2026-05-02T07:51:30.729Z</time></trkpt><trkpt lat="43.0556845" lon="12.2899513"><ele>215.5</ele><time>2026-05-02T07:51:31.729Z</time></trkpt><trkpt lat="43.0555546" lon="12.2900448"><ele>216.75</ele><time>2026-05-02T07:51:32.729Z</time></trkpt><trkpt lat="43.0554475" lon="12.2901657"><ele>218.0</ele><time>2026-05-02T07:51:33.729Z</time></trkpt><trkpt lat="43.0553613" lon="12.2903055"><ele>218.0</ele><time>2026-05-02T07:51:34.729Z</time></trkpt><trkpt lat="43.0552936" lon="12.2904746"><ele>218.0</ele><time>2026-05-02T07:51:35.729Z</time></trkpt><trkpt lat="43.0552397" lon="12.2906621"><ele>218.0</ele><time>2026-05-02T07:51:36.729Z</time></trkpt><trkpt lat="43.055199" lon="12.2908598"><ele>218.0</ele><time>2026-05-02T07:51:37.729Z</time></trkpt><trkpt lat="43.0551577" lon="12.2910542"><ele>218.5</ele><time>2026-05-02T07:51:38.729Z</time></trkpt><trkpt lat="43.0551024" lon="12.2912398"><ele>219.0</ele><time>2026-05-02T07:51:39.729Z</time></trkpt><trkpt lat="43.0550219" lon="12.2914058"><ele>219.5</ele><time>2026-05-02T07:51:40.729Z</time></trkpt><trkpt lat="43.0549384" lon="12.2915691"><ele>220.0</ele><time>2026-05-02T07:51:41.729Z</time></trkpt><trkpt lat="43.0548434" lon="12.2917292"><ele>221.33333333333331</ele><time>2026-05-02T07:51:42.729Z</time></trkpt><trkpt lat="43.0547504" lon="12.2918943"><ele>222.66666666666669</ele><time>2026-05-02T07:51:43.729Z</time></trkpt><trkpt lat="43.0546527" lon="12.2920652"><ele>224.0</ele><time>2026-05-02T07:51:44.729Z</time></trkpt><trkpt lat="43.0545546" lon="12.2922394"><ele>225.0</ele><time>2026-05-02T07:51:45.729Z</time></trkpt><trkpt lat="43.0544568" lon="12.2924213"><ele>226.0</ele><time>2026-05-02T07:51:46.729Z</time></trkpt><trkpt lat="43.0543605" lon="12.2926027"><ele>227.0</ele><time>2026-05-02T07:51:47.729Z</time></trkpt><trkpt lat="43.0542633" lon="12.2927793"><ele>227.0</ele><time>2026-05-02T07:51:48.729Z</time></trkpt><trkpt lat="43.0541678" lon="12.292951"><ele>227.0</ele><time>2026-05-02T07:51:49.729Z</time></trkpt><trkpt lat="43.0540797" lon="12.2931175"><ele>227.0</ele><time>2026-05-02T07:51:50.729Z</time></trkpt><trkpt lat="43.0539945" lon="12.2932813"><ele>229.5</ele><time>2026-05-02T07:51:51.729Z</time></trkpt><trkpt lat="43.0539015" lon="12.2934391"><ele>232.0</ele><time>2026-05-02T07:51:52.729Z</time></trkpt><trkpt lat="43.0537951" lon="12.2935814"><ele>234.5</ele><time>2026-05-02T07:51:53.729Z</time></trkpt><trkpt lat="43.0536654" lon="12.2936843"><ele>237.0</ele><time>2026-05-02T07:51:54.729Z</time></trkpt><trkpt lat="43.0535209" lon="12.2937547"><ele>237.0</ele><time>2026-05-02T07:51:55.729Z</time></trkpt><trkpt lat="43.0533679" lon="12.2938083"><ele>237.0</ele><time>2026-05-02T07:51:56.729Z</time></trkpt><trkpt lat="43.0532049" lon="12.2938443"><ele>237.0</ele><time>2026-05-02T07:51:57.729Z</time></trkpt><trkpt lat="43.0530456" lon="12.2938775"><ele>238.33333333333331</ele><time>2026-05-02T07:51:58.729Z</time></trkpt><trkpt lat="43.0528924" lon="12.293889"><ele>239.66666666666666</ele><time>2026-05-02T07:51:59.729Z</time></trkpt><trkpt lat="43.0527437" lon="12.2938633"><ele>241.0</ele><time>2026-05-02T07:52:00.729Z</time></trkpt><trkpt lat="43.0525892" lon="12.2938107"><ele>242.0</ele><time>2026-05-02T07:52:01.729Z</time></trkpt><trkpt lat="43.0524408" lon="12.2937332"><ele>243.0</ele><time>2026-05-02T07:52:02.729Z</time></trkpt><trkpt lat="43.0522925" lon="12.2936397"><ele>244.0</ele><time>2026-05-02T07:52:03.729Z</time></trkpt><trkpt lat="43.052141" lon="12.293544"><ele>244.0</ele><time>2026-05-02T07:52:04.729Z</time></trkpt><trkpt lat="43.0519957" lon="12.293431"><ele>244.0</ele><time>2026-05-02T07:52:05.729Z</time></trkpt><trkpt lat="43.0518551" lon="12.2933293"><ele>244.0</ele><time>2026-05-02T07:52:06.729Z</time></trkpt><trkpt lat="43.0517127" lon="12.2932335"><ele>245.0</ele><time>2026-05-02T07:52:07.729Z</time></trkpt><trkpt lat="43.051579" lon="12.2931431"><ele>246.0</ele><time>2026-05-02T07:52:08.729Z</time></trkpt><trkpt lat="43.0514549" lon="12.2930592"><ele>247.0</ele><time>2026-05-02T07:52:09.729Z</time></trkpt><trkpt lat="43.0513421" lon="12.2929795"><ele>248.0</ele><time>2026-05-02T07:52:10.729Z</time></trkpt><trkpt lat="43.0512375" lon="12.2929045"><ele>248.00000000000003</ele><time>2026-05-02T07:52:11.729Z</time></trkpt><trkpt lat="43.051144" lon="12.2928384"><ele>248.0</ele><time>2026-05-02T07:52:12.729Z</time></trkpt><trkpt lat="43.0510607" lon="12.2927744"><ele>248.0</ele><time>2026-05-02T07:52:13.729Z</time></trkpt><trkpt lat="43.0509859" lon="12.2927177"><ele>248.0</ele><time>2026-05-02T07:52:14.729Z</time></trkpt><trkpt lat="43.0509189" lon="12.2926647"><ele>248.00000000000003</ele><time>2026-05-02T07:52:15.729Z</time></trkpt><trkpt lat="43.05086" lon="12.2926093"><ele>248.0</ele><time>2026-05-02T07:52:16.729Z</time></trkpt><trkpt lat="43.0508015" lon="12.2925508"><ele>247.5</ele><time>2026-05-02T07:52:17.729Z</time></trkpt><trkpt lat="43.0507319" lon="12.2924426"><ele>247.0</ele><time>2026-05-02T07:52:18.729Z</time></trkpt><trkpt lat="43.050645" lon="12.2923267"><ele>246.5</ele><time>2026-05-02T07:52:19.729Z</time></trkpt><trkpt lat="43.0505613" lon="12.2922076"><ele>246.0</ele><time>2026-05-02T07:52:20.729Z</time></trkpt><trkpt lat="43.0504818" lon="12.2920914"><ele>246.0</ele><time>2026-05-02T07:52:21.729Z</time></trkpt><trkpt lat="43.0503981" lon="12.2919774"><ele>246.0</ele><time>2026-05-02T07:52:22.729Z</time></trkpt><trkpt lat="43.0503177" lon="12.2918594"><ele>246.0</ele><time>2026-05-02T07:52:23.729Z</time></trkpt><trkpt lat="43.05024" lon="12.2917433"><ele>246.0</ele><time>2026-05-02T07:52:24.729Z</time></trkpt><trkpt lat="43.0501604" lon="12.2916282"><ele>246.0</ele><time>2026-05-02T07:52:25.729Z</time></trkpt><trkpt lat="43.0500764" lon="12.291511"><ele>246.00000000000003</ele><time>2026-05-02T07:52:26.729Z</time></trkpt><trkpt lat="43.0499941" lon="12.2913925"><ele>246.00000000000003</ele><time>2026-05-02T07:52:27.729Z</time></trkpt><trkpt lat="43.0499259" lon="12.2912988"><ele>246.0</ele><time>2026-05-02T07:52:28.729Z</time></trkpt><trkpt lat="43.0498546" lon="12.291197"><ele>246.0</ele><time>2026-05-02T07:52:29.729Z</time></trkpt><trkpt lat="43.0497902" lon="12.2911018"><ele>246.0</ele><time>2026-05-02T07:52:30.729Z</time></trkpt><trkpt lat="43.049715" lon="12.2910144"><ele>246.0</ele><time>2026-05-02T07:52:31.729Z</time></trkpt><trkpt lat="43.0496118" lon="12.2909498"><ele>246.0</ele><time>2026-05-02T07:52:32.729Z</time></trkpt><trkpt lat="43.0494843" lon="12.2909052"><ele>246.0</ele><time>2026-05-02T07:52:33.729Z</time></trkpt><trkpt lat="43.0493538" lon="12.2908994"><ele>246.0</ele><time>2026-05-02T07:52:34.729Z</time></trkpt><trkpt lat="43.0492224" lon="12.2909081"><ele>246.0</ele><time>2026-05-02T07:52:35.729Z</time></trkpt><trkpt lat="43.0490829" lon="12.290928"><ele>246.0</ele><time>2026-05-02T07:52:36.729Z</time></trkpt><trkpt lat="43.0489417" lon="12.2909431"><ele>246.0</ele><time>2026-05-02T07:52:37.729Z</time></trkpt><trkpt lat="43.0487967" lon="12.290962"><ele>244.66666666666669</ele><time>2026-05-02T07:52:38.729Z</time></trkpt><trkpt lat="43.0486342" lon="12.2909906"><ele>243.33333333333334</ele><time>2026-05-02T07:52:39.729Z</time></trkpt><trkpt lat="43.0484812" lon="12.291012"><ele>242.0</ele><time>2026-05-02T07:52:40.729Z</time></trkpt><trkpt lat="43.0483235" lon="12.2910344"><ele>239.33333333333334</ele><time>2026-05-02T07:52:41.729Z</time></trkpt><trkpt lat="43.0481613" lon="12.2910582"><ele>236.66666666666669</ele><time>2026-05-02T07:52:42.729Z</time></trkpt><trkpt lat="43.0480003" lon="12.2910802"><ele>234.0</ele><time>2026-05-02T07:52:43.729Z</time></trkpt><trkpt lat="43.0478381" lon="12.2911027"><ele>234.0</ele><time>2026-05-02T07:52:44.729Z</time></trkpt><trkpt lat="43.0476745" lon="12.2911244"><ele>234.0</ele><time>2026-05-02T07:52:45.729Z</time></trkpt><trkpt lat="43.0475078" lon="12.2911374"><ele>234.0</ele><time>2026-05-02T07:52:46.729Z</time></trkpt><trkpt lat="43.0473406" lon="12.2911634"><ele>233.0</ele><time>2026-05-02T07:52:47.729Z</time></trkpt><trkpt lat="43.0471726" lon="12.291187"><ele>232.0</ele><time>2026-05-02T07:52:48.729Z</time></trkpt><trkpt lat="43.0470084" lon="12.2912119"><ele>231.0</ele><time>2026-05-02T07:52:49.729Z</time></trkpt><trkpt lat="43.0468433" lon="12.2912365"><ele>231.0</ele><time>2026-05-02T07:52:50.729Z</time></trkpt><trkpt lat="43.04668" lon="12.2912651"><ele>231.0</ele><time>2026-05-02T07:52:51.729Z</time></trkpt><trkpt lat="43.0465239" lon="12.2912791"><ele>231.0</ele><time>2026-05-02T07:52:52.729Z</time></trkpt><trkpt lat="43.046382" lon="12.2912512"><ele>231.33333333333331</ele><time>2026-05-02T07:52:53.728Z</time></trkpt><trkpt lat="43.0462291" lon="12.2911841"><ele>231.66666666666666</ele><time>2026-05-02T07:52:54.729Z</time></trkpt><trkpt lat="43.0460787" lon="12.2911153"><ele>232.0</ele><time>2026-05-02T07:52:55.729Z</time></trkpt><trkpt lat="43.0459487" lon="12.2909378"><ele>232.0</ele><time>2026-05-02T07:52:56.729Z</time></trkpt><trkpt lat="43.0458119" lon="12.2907946"><ele>232.0</ele><time>2026-05-02T07:52:57.729Z</time></trkpt><trkpt lat="43.0456799" lon="12.2906309"><ele>232.0</ele><time>2026-05-02T07:52:58.729Z</time></trkpt><trkpt lat="43.0455387" lon="12.2905056"><ele>232.33333333333331</ele><time>2026-05-02T07:52:59.729Z</time></trkpt><trkpt lat="43.0454029" lon="12.2903844"><ele>232.66666666666669</ele><time>2026-05-02T07:53:00.729Z</time></trkpt><trkpt lat="43.0452694" lon="12.2902632"><ele>233.0</ele><time>2026-05-02T07:53:01.729Z</time></trkpt><trkpt lat="43.045139" lon="12.2901416"><ele>233.0</ele><time>2026-05-02T07:53:02.729Z</time></trkpt><trkpt lat="43.0450137" lon="12.29001"><ele>233.0</ele><time>2026-05-02T07:53:03.729Z</time></trkpt><trkpt lat="43.0448898" lon="12.2898626"><ele>233.0</ele><time>2026-05-02T07:53:04.729Z</time></trkpt><trkpt lat="43.0447697" lon="12.2897071"><ele>232.0</ele><time>2026-05-02T07:53:05.728Z</time></trkpt><trkpt lat="43.0446503" lon="12.2895597"><ele>231.0</ele><time>2026-05-02T07:53:06.729Z</time></trkpt><trkpt lat="43.0445451" lon="12.2893834"><ele>230.0</ele><time>2026-05-02T07:53:07.729Z</time></trkpt><trkpt lat="43.0444321" lon="12.289217"><ele>230.0</ele><time>2026-05-02T07:53:08.729Z</time></trkpt><trkpt lat="43.0443279" lon="12.2890564"><ele>230.0</ele><time>2026-05-02T07:53:09.729Z</time></trkpt><trkpt lat="43.0442207" lon="12.2888895"><ele>230.0</ele><time>2026-05-02T07:53:10.729Z</time></trkpt><trkpt lat="43.0441042" lon="12.2887377"><ele>229.66666666666669</ele><time>2026-05-02T07:53:11.729Z</time></trkpt><trkpt lat="43.0439851" lon="12.2885845"><ele>229.33333333333331</ele><time>2026-05-02T07:53:12.729Z</time></trkpt><trkpt lat="43.0438664" lon="12.2884371"><ele>229.0</ele><time>2026-05-02T07:53:13.729Z</time></trkpt><trkpt lat="43.0437426" lon="12.2882888"><ele>229.0</ele><time>2026-05-02T07:53:14.729Z</time></trkpt><trkpt lat="43.0436145" lon="12.2881499"><ele>229.0</ele><time>2026-05-02T07:53:15.729Z</time></trkpt><trkpt lat="43.0434761" lon="12.2880275"><ele>229.0</ele><time>2026-05-02T07:53:16.729Z</time></trkpt><trkpt lat="43.0433344" lon="12.2879115"><ele>228.66666666666666</ele><time>2026-05-02T07:53:17.729Z</time></trkpt><trkpt lat="43.0431848" lon="12.2878242"><ele>228.33333333333331</ele><time>2026-05-02T07:53:18.729Z</time></trkpt><trkpt lat="43.0430332" lon="12.2877434"><ele>228.0</ele><time>2026-05-02T07:53:19.729Z</time></trkpt><trkpt lat="43.0428859" lon="12.2876544"><ele>228.0</ele><time>2026-05-02T07:53:20.729Z</time></trkpt><trkpt lat="43.0427398" lon="12.2875624"><ele>228.0</ele><time>2026-05-02T07:53:21.729Z</time></trkpt><trkpt lat="43.0425973" lon="12.2874685"><ele>228.0</ele><time>2026-05-02T07:53:22.729Z</time></trkpt><trkpt lat="43.0424545" lon="12.287376"><ele>228.66666666666669</ele><time>2026-05-02T07:53:23.729Z</time></trkpt><trkpt lat="43.0423103" lon="12.2872826"><ele>229.33333333333334</ele><time>2026-05-02T07:53:24.729Z</time></trkpt><trkpt lat="43.0421668" lon="12.2871823"><ele>230.0</ele><time>2026-05-02T07:53:25.729Z</time></trkpt><trkpt lat="43.0420226" lon="12.2870803"><ele>230.0</ele><time>2026-05-02T07:53:26.729Z</time></trkpt><trkpt lat="43.0418841" lon="12.2869705"><ele>230.0</ele><time>2026-05-02T07:53:27.729Z</time></trkpt><trkpt lat="43.0417479" lon="12.2868517"><ele>230.0</ele><time>2026-05-02T07:53:28.729Z</time></trkpt><trkpt lat="43.0416104" lon="12.2867292"><ele>229.0</ele><time>2026-05-02T07:53:29.729Z</time></trkpt><trkpt lat="43.0414958" lon="12.2865705"><ele>228.0</ele><time>2026-05-02T07:53:30.729Z</time></trkpt><trkpt lat="43.0413844" lon="12.286416"><ele>227.0</ele><time>2026-05-02T07:53:31.729Z</time></trkpt><trkpt lat="43.0412752" lon="12.2862532"><ele>227.0</ele><time>2026-05-02T07:53:32.729Z</time></trkpt><trkpt lat="43.0411657" lon="12.2860984"><ele>227.0</ele><time>2026-05-02T07:53:33.729Z</time></trkpt><trkpt lat="43.041061" lon="12.285936"><ele>227.0</ele><time>2026-05-02T07:53:34.729Z</time></trkpt><trkpt lat="43.0409521" lon="12.2857592"><ele>228.33333333333334</ele><time>2026-05-02T07:53:35.729Z</time></trkpt><trkpt lat="43.04084" lon="12.2855857"><ele>229.66666666666669</ele><time>2026-05-02T07:53:36.729Z</time></trkpt><trkpt lat="43.0407281" lon="12.2854139"><ele>231.0</ele><time>2026-05-02T07:53:37.729Z</time></trkpt><trkpt lat="43.0406119" lon="12.2852409"><ele>231.0</ele><time>2026-05-02T07:53:38.729Z</time></trkpt><trkpt lat="43.0404957" lon="12.2850617"><ele>231.0</ele><time>2026-05-02T07:53:39.729Z</time></trkpt><trkpt lat="43.0403849" lon="12.2848786"><ele>231.0</ele><time>2026-05-02T07:53:40.729Z</time></trkpt><trkpt lat="43.0402706" lon="12.2847002"><ele>231.66666666666669</ele><time>2026-05-02T07:53:41.729Z</time></trkpt><trkpt lat="43.0401558" lon="12.2845281"><ele>232.33333333333334</ele><time>2026-05-02T07:53:42.729Z</time></trkpt><trkpt lat="43.0400395" lon="12.2843543"><ele>233.0</ele><time>2026-05-02T07:53:43.729Z</time></trkpt><trkpt lat="43.0399214" lon="12.2841845"><ele>233.0</ele><time>2026-05-02T07:53:44.729Z</time></trkpt><trkpt lat="43.0398006" lon="12.2840157"><ele>233.0</ele><time>2026-05-02T07:53:45.729Z</time></trkpt><trkpt lat="43.0396782" lon="12.283847"><ele>233.0</ele><time>2026-05-02T07:53:46.729Z</time></trkpt><trkpt lat="43.0395601" lon="12.2836742"><ele>234.33333333333334</ele><time>2026-05-02T07:53:47.729Z</time></trkpt><trkpt lat="43.0394459" lon="12.2834985"><ele>235.66666666666669</ele><time>2026-05-02T07:53:48.729Z</time></trkpt><trkpt lat="43.0393326" lon="12.2833186"><ele>237.0</ele><time>2026-05-02T07:53:49.729Z</time></trkpt><trkpt lat="43.0392252" lon="12.283134"><ele>234.0</ele><time>2026-05-02T07:53:50.729Z</time></trkpt><trkpt lat="43.0391281" lon="12.2829315"><ele>231.0</ele><time>2026-05-02T07:53:51.729Z</time></trkpt><trkpt lat="43.0390293" lon="12.2827348"><ele>228.0</ele><time>2026-05-02T07:53:52.729Z</time></trkpt><trkpt lat="43.0389395" lon="12.2825307"><ele>228.0</ele><time>2026-05-02T07:53:53.729Z</time></trkpt><trkpt lat="43.0388584" lon="12.2823293"><ele>228.0</ele><time>2026-05-02T07:53:54.729Z</time></trkpt><trkpt lat="43.0387657" lon="12.2821353"><ele>228.0</ele><time>2026-05-02T07:53:55.729Z</time></trkpt><trkpt lat="43.0386651" lon="12.2819434"><ele>228.0</ele><time>2026-05-02T07:53:56.729Z</time></trkpt><trkpt lat="43.0385621" lon="12.2817516"><ele>228.0</ele><time>2026-05-02T07:53:57.729Z</time></trkpt><trkpt lat="43.0384574" lon="12.2815546"><ele>228.0</ele><time>2026-05-02T07:53:58.729Z</time></trkpt><trkpt lat="43.0383497" lon="12.2813558"><ele>227.33333333333331</ele><time>2026-05-02T07:53:59.729Z</time></trkpt><trkpt lat="43.0382409" lon="12.2811562"><ele>226.66666666666666</ele><time>2026-05-02T07:54:00.729Z</time></trkpt><trkpt lat="43.0381361" lon="12.280948"><ele>226.0</ele><time>2026-05-02T07:54:01.729Z</time></trkpt><trkpt lat="43.0380233" lon="12.2807628"><ele>226.0</ele><time>2026-05-02T07:54:02.729Z</time></trkpt><trkpt lat="43.0378968" lon="12.2806002"><ele>226.0</ele><time>2026-05-02T07:54:03.729Z</time></trkpt><trkpt lat="43.0377478" lon="12.2804565"><ele>226.0</ele><time>2026-05-02T07:54:04.729Z</time></trkpt><trkpt lat="43.0375901" lon="12.2803238"><ele>226.66666666666666</ele><time>2026-05-02T07:54:05.729Z</time></trkpt><trkpt lat="43.0374364" lon="12.280192"><ele>227.33333333333331</ele><time>2026-05-02T07:54:06.729Z</time></trkpt><trkpt lat="43.0372911" lon="12.2800685"><ele>228.0</ele><time>2026-05-02T07:54:07.729Z</time></trkpt><trkpt lat="43.0371503" lon="12.2799523"><ele>228.0</ele><time>2026-05-02T07:54:08.729Z</time></trkpt><trkpt lat="43.0370148" lon="12.2798338"><ele>228.0</ele><time>2026-05-02T07:54:09.729Z</time></trkpt><trkpt lat="43.0368802" lon="12.2797258"><ele>228.0</ele><time>2026-05-02T07:54:10.729Z</time></trkpt><trkpt lat="43.0367467" lon="12.2796198"><ele>229.0</ele><time>2026-05-02T07:54:11.729Z</time></trkpt><trkpt lat="43.0366072" lon="12.2795162"><ele>230.0</ele><time>2026-05-02T07:54:12.729Z</time></trkpt><trkpt lat="43.036467" lon="12.2794008"><ele>231.0</ele><time>2026-05-02T07:54:13.729Z</time></trkpt><trkpt lat="43.0363313" lon="12.2792789"><ele>231.0</ele><time>2026-05-02T07:54:14.729Z</time></trkpt><trkpt lat="43.0362042" lon="12.2791416"><ele>231.0</ele><time>2026-05-02T07:54:15.729Z</time></trkpt><trkpt lat="43.0360894" lon="12.2789909"><ele>231.0</ele><time>2026-05-02T07:54:16.729Z</time></trkpt><trkpt lat="43.0359805" lon="12.2788417"><ele>231.0</ele><time>2026-05-02T07:54:17.729Z</time></trkpt><trkpt lat="43.0358624" lon="12.2787001"><ele>231.0</ele><time>2026-05-02T07:54:18.729Z</time></trkpt><trkpt lat="43.0357398" lon="12.2785543"><ele>231.0</ele><time>2026-05-02T07:54:19.729Z</time></trkpt><trkpt lat="43.0356035" lon="12.2784234"><ele>231.0</ele><time>2026-05-02T07:54:20.729Z</time></trkpt><trkpt lat="43.0354721" lon="12.2782988"><ele>231.0</ele><time>2026-05-02T07:54:21.729Z</time></trkpt><trkpt lat="43.035342" lon="12.2781796"><ele>231.0</ele><time>2026-05-02T07:54:22.729Z</time></trkpt><trkpt lat="43.0352137" lon="12.2780651"><ele>231.33333333333331</ele><time>2026-05-02T07:54:23.729Z</time></trkpt><trkpt lat="43.0350889" lon="12.277949"><ele>231.66666666666666</ele><time>2026-05-02T07:54:24.729Z</time></trkpt><trkpt lat="43.0349602" lon="12.2778329"><ele>232.0</ele><time>2026-05-02T07:54:25.729Z</time></trkpt><trkpt lat="43.0348296" lon="12.2777053"><ele>231.33333333333331</ele><time>2026-05-02T07:54:26.728Z</time></trkpt><trkpt lat="43.0347022" lon="12.2775711"><ele>230.66666666666669</ele><time>2026-05-02T07:54:27.729Z</time></trkpt><trkpt lat="43.0345791" lon="12.2774226"><ele>230.0</ele><time>2026-05-02T07:54:28.729Z</time></trkpt><trkpt lat="43.0344606" lon="12.2772603"><ele>229.66666666666669</ele><time>2026-05-02T07:54:29.729Z</time></trkpt><trkpt lat="43.0343399" lon="12.2770952"><ele>229.33333333333331</ele><time>2026-05-02T07:54:30.729Z</time></trkpt><trkpt lat="43.0342165" lon="12.2769317"><ele>229.0</ele><time>2026-05-02T07:54:31.729Z</time></trkpt><trkpt lat="43.0340867" lon="12.2767713"><ele>228.33333333333331</ele><time>2026-05-02T07:54:32.729Z</time></trkpt><trkpt lat="43.0339556" lon="12.2766157"><ele>227.66666666666669</ele><time>2026-05-02T07:54:33.729Z</time></trkpt><trkpt lat="43.0338268" lon="12.2764721"><ele>227.0</ele><time>2026-05-02T07:54:34.729Z</time></trkpt><trkpt lat="43.0337031" lon="12.2763292"><ele>227.0</ele><time>2026-05-02T07:54:35.729Z</time></trkpt><trkpt lat="43.0335764" lon="12.2761875"><ele>227.0</ele><time>2026-05-02T07:54:36.729Z</time></trkpt><trkpt lat="43.0334603" lon="12.2760604"><ele>227.0</ele><time>2026-05-02T07:54:37.729Z</time></trkpt><trkpt lat="43.0333401" lon="12.2759238"><ele>227.0</ele><time>2026-05-02T07:54:38.729Z</time></trkpt><trkpt lat="43.0332299" lon="12.2757592"><ele>227.0</ele><time>2026-05-02T07:54:39.729Z</time></trkpt><trkpt lat="43.0331213" lon="12.275582"><ele>227.0</ele><time>2026-05-02T07:54:40.729Z</time></trkpt><trkpt lat="43.0330256" lon="12.2753976"><ele>227.0</ele><time>2026-05-02T07:54:41.729Z</time></trkpt><trkpt lat="43.032936" lon="12.2752196"><ele>227.0</ele><time>2026-05-02T07:54:42.729Z</time></trkpt><trkpt lat="43.0328539" lon="12.275057"><ele>227.0</ele><time>2026-05-02T07:54:43.729Z</time></trkpt><trkpt lat="43.0327715" lon="12.2748991"><ele>227.0</ele><time>2026-05-02T07:54:44.729Z</time></trkpt><trkpt lat="43.0326927" lon="12.2747466"><ele>226.25</ele><time>2026-05-02T07:54:45.729Z</time></trkpt><trkpt lat="43.0326144" lon="12.2745942"><ele>225.5</ele><time>2026-05-02T07:54:46.729Z</time></trkpt><trkpt lat="43.0325351" lon="12.2744434"><ele>224.75</ele><time>2026-05-02T07:54:47.729Z</time></trkpt><trkpt lat="43.0324579" lon="12.2743035"><ele>224.0</ele><time>2026-05-02T07:54:48.729Z</time></trkpt><trkpt lat="43.0323745" lon="12.2741757"><ele>224.0</ele><time>2026-05-02T07:54:49.729Z</time></trkpt><trkpt lat="43.0322833" lon="12.2740745"><ele>223.99999999999997</ele><time>2026-05-02T07:54:50.729Z</time></trkpt><trkpt lat="43.0321924" lon="12.2739719"><ele>223.99999999999997</ele><time>2026-05-02T07:54:51.729Z</time></trkpt><trkpt lat="43.0321026" lon="12.273916"><ele>224.0</ele><time>2026-05-02T07:54:52.729Z</time></trkpt><trkpt lat="43.0320282" lon="12.2738443"><ele>224.0</ele><time>2026-05-02T07:54:53.729Z</time></trkpt><trkpt lat="43.0319671" lon="12.2737644"><ele>224.33333333333334</ele><time>2026-05-02T07:54:54.729Z</time></trkpt><trkpt lat="43.0319145" lon="12.2736808"><ele>224.66666666666669</ele><time>2026-05-02T07:54:55.729Z</time></trkpt><trkpt lat="43.0318632" lon="12.2735897"><ele>225.0</ele><time>2026-05-02T07:54:56.729Z</time></trkpt><trkpt lat="43.0318173" lon="12.2734951"><ele>225.33333333333331</ele><time>2026-05-02T07:54:57.729Z</time></trkpt><trkpt lat="43.0317794" lon="12.2734081"><ele>225.66666666666666</ele><time>2026-05-02T07:54:58.729Z</time></trkpt><trkpt lat="43.0317528" lon="12.2733263"><ele>226.0</ele><time>2026-05-02T07:54:59.729Z</time></trkpt><trkpt lat="43.0317556" lon="12.2731636"><ele>225.0</ele><time>2026-05-02T07:55:01.729Z</time></trkpt><trkpt lat="43.0317832" lon="12.2730307"><ele>224.00000000000003</ele><time>2026-05-02T07:55:03.729Z</time></trkpt><trkpt lat="43.031846" lon="12.2729313"><ele>223.00000000000003</ele><time>2026-05-02T07:55:05.729Z</time></trkpt><trkpt lat="43.0319412" lon="12.2728346"><ele>222.0</ele><time>2026-05-02T07:55:07.729Z</time></trkpt><trkpt lat="43.0320008" lon="12.2727761"><ele>221.0</ele><time>2026-05-02T07:55:08.729Z</time></trkpt><trkpt lat="43.0320669" lon="12.2727052"><ele>221.00000000000003</ele><time>2026-05-02T07:55:09.729Z</time></trkpt><trkpt lat="43.0321245" lon="12.2726148"><ele>221.0</ele><time>2026-05-02T07:55:10.729Z</time></trkpt><trkpt lat="43.0321633" lon="12.2725053"><ele>221.0</ele><time>2026-05-02T07:55:11.729Z</time></trkpt><trkpt lat="43.0322024" lon="12.2723993"><ele>221.0</ele><time>2026-05-02T07:55:12.729Z</time></trkpt><trkpt lat="43.032227" lon="12.2722801"><ele>221.00000000000003</ele><time>2026-05-02T07:55:13.729Z</time></trkpt><trkpt lat="43.0322552" lon="12.2721639"><ele>221.0</ele><time>2026-05-02T07:55:14.729Z</time></trkpt><trkpt lat="43.0322812" lon="12.2720504"><ele>220.00000000000003</ele><time>2026-05-02T07:55:15.729Z</time></trkpt><trkpt lat="43.0323097" lon="12.2719423"><ele>219.0</ele><time>2026-05-02T07:55:16.729Z</time></trkpt><trkpt lat="43.032332" lon="12.2718418"><ele>218.0</ele><time>2026-05-02T07:55:17.729Z</time></trkpt><trkpt lat="43.0323552" lon="12.2717344"><ele>217.0</ele><time>2026-05-02T07:55:18.729Z</time></trkpt><trkpt lat="43.0323781" lon="12.2716295"><ele>216.00000000000003</ele><time>2026-05-02T07:55:19.729Z</time></trkpt><trkpt lat="43.0323984" lon="12.2715292"><ele>215.0</ele><time>2026-05-02T07:55:20.729Z</time></trkpt><trkpt lat="43.0324243" lon="12.2714258"><ele>215.00000000000003</ele><time>2026-05-02T07:55:21.729Z</time></trkpt><trkpt lat="43.0324473" lon="12.2713239"><ele>215.0</ele><time>2026-05-02T07:55:22.729Z</time></trkpt><trkpt lat="43.0324725" lon="12.271222"><ele>215.0</ele><time>2026-05-02T07:55:23.729Z</time></trkpt><trkpt lat="43.0324954" lon="12.2711129"><ele>215.0</ele><time>2026-05-02T07:55:24.729Z</time></trkpt><trkpt lat="43.0325177" lon="12.2710075"><ele>215.00000000000003</ele><time>2026-05-02T07:55:25.729Z</time></trkpt><trkpt lat="43.0325818" lon="12.2709067"><ele>215.0</ele><time>2026-05-02T07:55:26.729Z</time></trkpt><trkpt lat="43.0326235" lon="12.270805"><ele>215.0</ele><time>2026-05-02T07:55:27.729Z</time></trkpt><trkpt lat="43.0327724" lon="12.2707533"><ele>215.0</ele><time>2026-05-02T07:55:28.729Z</time></trkpt><trkpt lat="43.0328463" lon="12.2706532"><ele>215.0</ele><time>2026-05-02T07:55:29.729Z</time></trkpt><trkpt lat="43.0329103" lon="12.2705435"><ele>215.0</ele><time>2026-05-02T07:55:30.729Z</time></trkpt><trkpt lat="43.032971" lon="12.2704279"><ele>214.2</ele><time>2026-05-02T07:55:31.729Z</time></trkpt><trkpt lat="43.0330234" lon="12.2703176"><ele>213.4</ele><time>2026-05-02T07:55:32.729Z</time></trkpt><trkpt lat="43.0330855" lon="12.2702027"><ele>212.60000000000002</ele><time>2026-05-02T07:55:33.729Z</time></trkpt><trkpt lat="43.0331388" lon="12.2700844"><ele>211.8</ele><time>2026-05-02T07:55:34.729Z</time></trkpt><trkpt lat="43.0331954" lon="12.2699701"><ele>211.0</ele><time>2026-05-02T07:55:35.728Z</time></trkpt><trkpt lat="43.0332571" lon="12.2698524"><ele>210.8</ele><time>2026-05-02T07:55:36.729Z</time></trkpt><trkpt lat="43.0333199" lon="12.2697286"><ele>210.60000000000002</ele><time>2026-05-02T07:55:37.729Z</time></trkpt><trkpt lat="43.0333865" lon="12.2696043"><ele>210.4</ele><time>2026-05-02T07:55:38.729Z</time></trkpt><trkpt lat="43.0334464" lon="12.2694899"><ele>210.2</ele><time>2026-05-02T07:55:39.729Z</time></trkpt><trkpt lat="43.0335006" lon="12.2693802"><ele>210.0</ele><time>2026-05-02T07:55:40.729Z</time></trkpt><trkpt lat="43.0335566" lon="12.2692606"><ele>210.0</ele><time>2026-05-02T07:55:41.729Z</time></trkpt><trkpt lat="43.0336045" lon="12.2691477"><ele>210.0</ele><time>2026-05-02T07:55:42.729Z</time></trkpt><trkpt lat="43.0336382" lon="12.2690454"><ele>210.0</ele><time>2026-05-02T07:55:43.729Z</time></trkpt><trkpt lat="43.0336718" lon="12.2689393"><ele>210.0</ele><time>2026-05-02T07:55:44.729Z</time></trkpt><trkpt lat="43.0336958" lon="12.2688312"><ele>210.0</ele><time>2026-05-02T07:55:45.729Z</time></trkpt><trkpt lat="43.0337263" lon="12.2687246"><ele>210.0</ele><time>2026-05-02T07:55:46.729Z</time></trkpt><trkpt lat="43.0337638" lon="12.2685716"><ele>209.25</ele><time>2026-05-02T07:55:47.729Z</time></trkpt><trkpt lat="43.0337966" lon="12.2684306"><ele>208.5</ele><time>2026-05-02T07:55:48.729Z</time></trkpt><trkpt lat="43.0338418" lon="12.268224"><ele>207.75</ele><time>2026-05-02T07:55:49.729Z</time></trkpt><trkpt lat="43.0338865" lon="12.2680126"><ele>207.0</ele><time>2026-05-02T07:55:50.729Z</time></trkpt><trkpt lat="43.0339406" lon="12.2677967"><ele>207.0</ele><time>2026-05-02T07:55:51.729Z</time></trkpt><trkpt lat="43.0339811" lon="12.2675948"><ele>207.0</ele><time>2026-05-02T07:55:52.729Z</time></trkpt><trkpt lat="43.0340149" lon="12.2673858"><ele>207.0</ele><time>2026-05-02T07:55:53.729Z</time></trkpt><trkpt lat="43.0340383" lon="12.2671729"><ele>207.0</ele><time>2026-05-02T07:55:54.729Z</time></trkpt><trkpt lat="43.0340515" lon="12.2669622"><ele>207.0</ele><time>2026-05-02T07:55:55.729Z</time></trkpt><trkpt lat="43.034001" lon="12.2667557"><ele>207.0</ele><time>2026-05-02T07:55:56.729Z</time></trkpt><trkpt lat="43.0339663" lon="12.2665428"><ele>207.33333333333331</ele><time>2026-05-02T07:55:57.729Z</time></trkpt><trkpt lat="43.033932" lon="12.2663253"><ele>207.66666666666666</ele><time>2026-05-02T07:55:58.729Z</time></trkpt><trkpt lat="43.0338995" lon="12.2661053"><ele>208.0</ele><time>2026-05-02T07:55:59.729Z</time></trkpt><trkpt lat="43.0338602" lon="12.265886"><ele>208.0</ele><time>2026-05-02T07:56:00.728Z</time></trkpt><trkpt lat="43.0338242" lon="12.2656717"><ele>208.0</ele><time>2026-05-02T07:56:01.729Z</time></trkpt><trkpt lat="43.0337877" lon="12.2654604"><ele>208.0</ele><time>2026-05-02T07:56:02.729Z</time></trkpt><trkpt lat="43.0337511" lon="12.2652469"><ele>207.66666666666666</ele><time>2026-05-02T07:56:03.729Z</time></trkpt><trkpt lat="43.033714" lon="12.2650383"><ele>207.33333333333331</ele><time>2026-05-02T07:56:04.729Z</time></trkpt><trkpt lat="43.0336789" lon="12.2648273"><ele>207.0</ele><time>2026-05-02T07:56:05.729Z</time></trkpt><trkpt lat="43.0336372" lon="12.2646089"><ele>206.66666666666669</ele><time>2026-05-02T07:56:06.729Z</time></trkpt><trkpt lat="43.0336073" lon="12.2644037"><ele>206.33333333333334</ele><time>2026-05-02T07:56:07.729Z</time></trkpt><trkpt lat="43.0335727" lon="12.2641998"><ele>206.0</ele><time>2026-05-02T07:56:08.729Z</time></trkpt><trkpt lat="43.0335347" lon="12.2639932"><ele>206.5</ele><time>2026-05-02T07:56:09.729Z</time></trkpt><trkpt lat="43.0334925" lon="12.2637885"><ele>207.0</ele><time>2026-05-02T07:56:10.729Z</time></trkpt><trkpt lat="43.0334453" lon="12.2635911"><ele>207.5</ele><time>2026-05-02T07:56:11.729Z</time></trkpt><trkpt lat="43.0333983" lon="12.2634131"><ele>208.0</ele><time>2026-05-02T07:56:12.729Z</time></trkpt><trkpt lat="43.0333646" lon="12.263283"><ele>208.0</ele><time>2026-05-02T07:56:13.729Z</time></trkpt><trkpt lat="43.033331" lon="12.2631495"><ele>208.0</ele><time>2026-05-02T07:56:14.729Z</time></trkpt><trkpt lat="43.0332724" lon="12.2630887"><ele>208.0</ele><time>2026-05-02T07:56:17.729Z</time></trkpt><trkpt lat="43.03318" lon="12.2630672"><ele>208.0</ele><time>2026-05-02T07:56:19.729Z</time></trkpt><trkpt lat="43.0330534" lon="12.2630199"><ele>208.0</ele><time>2026-05-02T07:56:21.729Z</time></trkpt><trkpt lat="43.0329866" lon="12.2629931"><ele>208.2</ele><time>2026-05-02T07:56:22.729Z</time></trkpt><trkpt lat="43.0329017" lon="12.2629494"><ele>208.4</ele><time>2026-05-02T07:56:23.729Z</time></trkpt><trkpt lat="43.0328092" lon="12.2628996"><ele>208.6</ele><time>2026-05-02T07:56:24.729Z</time></trkpt><trkpt lat="43.0327179" lon="12.2628504"><ele>208.79999999999998</ele><time>2026-05-02T07:56:25.729Z</time></trkpt><trkpt lat="43.0326289" lon="12.2628026"><ele>209.0</ele><time>2026-05-02T07:56:26.729Z</time></trkpt><trkpt lat="43.032542" lon="12.2627559"><ele>208.6</ele><time>2026-05-02T07:56:27.729Z</time></trkpt><trkpt lat="43.0324569" lon="12.2627078"><ele>208.2</ele><time>2026-05-02T07:56:28.729Z</time></trkpt><trkpt lat="43.0323727" lon="12.2626561"><ele>207.79999999999998</ele><time>2026-05-02T07:56:29.729Z</time></trkpt><trkpt lat="43.0322884" lon="12.2626049"><ele>207.39999999999998</ele><time>2026-05-02T07:56:30.729Z</time></trkpt><trkpt lat="43.0321924" lon="12.2625257"><ele>207.0</ele><time>2026-05-02T07:56:31.729Z</time></trkpt><trkpt lat="43.0320977" lon="12.2624546"><ele>207.0</ele><time>2026-05-02T07:56:32.729Z</time></trkpt><trkpt lat="43.0320054" lon="12.2623836"><ele>207.0</ele><time>2026-05-02T07:56:33.729Z</time></trkpt><trkpt lat="43.0319248" lon="12.2623225"><ele>207.0</ele><time>2026-05-02T07:56:34.729Z</time></trkpt><trkpt lat="43.0318535" lon="12.2622635"><ele>207.0</ele><time>2026-05-02T07:56:35.729Z</time></trkpt><trkpt lat="43.0317776" lon="12.2622043"><ele>207.0</ele><time>2026-05-02T07:56:36.729Z</time></trkpt><trkpt lat="43.0317024" lon="12.2621395"><ele>207.0</ele><time>2026-05-02T07:56:37.729Z</time></trkpt><trkpt lat="43.0316295" lon="12.2620739"><ele>207.0</ele><time>2026-05-02T07:56:38.728Z</time></trkpt><trkpt lat="43.0315583" lon="12.2620006"><ele>207.0</ele><time>2026-05-02T07:56:39.729Z</time></trkpt><trkpt lat="43.0314814" lon="12.2619241"><ele>207.0</ele><time>2026-05-02T07:56:40.729Z</time></trkpt><trkpt lat="43.0314081" lon="12.261848"><ele>207.0</ele><time>2026-05-02T07:56:41.729Z</time></trkpt><trkpt lat="43.031333" lon="12.2617712"><ele>207.0</ele><time>2026-05-02T07:56:42.729Z</time></trkpt><trkpt lat="43.0312599" lon="12.2616937"><ele>207.0</ele><time>2026-05-02T07:56:43.729Z</time></trkpt><trkpt lat="43.0311841" lon="12.2616157"><ele>207.0</ele><time>2026-05-02T07:56:44.729Z</time></trkpt><trkpt lat="43.0311089" lon="12.261533"><ele>207.0</ele><time>2026-05-02T07:56:45.729Z</time></trkpt><trkpt lat="43.0310338" lon="12.2614545"><ele>207.0</ele><time>2026-05-02T07:56:46.729Z</time></trkpt><trkpt lat="43.0309613" lon="12.2613754"><ele>207.0</ele><time>2026-05-02T07:56:47.729Z</time></trkpt><trkpt lat="43.0308863" lon="12.2612903"><ele>207.0</ele><time>2026-05-02T07:56:48.729Z</time></trkpt><trkpt lat="43.0308113" lon="12.2612085"><ele>207.0</ele><time>2026-05-02T07:56:49.729Z</time></trkpt><trkpt lat="43.0307373" lon="12.2611295"><ele>207.0</ele><time>2026-05-02T07:56:50.729Z</time></trkpt><trkpt lat="43.030646" lon="12.2610282"><ele>207.0</ele><time>2026-05-02T07:56:51.729Z</time></trkpt><trkpt lat="43.0305715" lon="12.2609457"><ele>207.0</ele><time>2026-05-02T07:56:52.729Z</time></trkpt><trkpt lat="43.0304946" lon="12.2608575"><ele>207.0</ele><time>2026-05-02T07:56:53.729Z</time></trkpt><trkpt lat="43.0304151" lon="12.2607761"><ele>207.0</ele><time>2026-05-02T07:56:54.729Z</time></trkpt><trkpt lat="43.0303392" lon="12.2606937"><ele>207.0</ele><time>2026-05-02T07:56:55.729Z</time></trkpt><trkpt lat="43.0302631" lon="12.2606157"><ele>207.0</ele><time>2026-05-02T07:56:56.729Z</time></trkpt><trkpt lat="43.0301866" lon="12.260536"><ele>207.39999999999998</ele><time>2026-05-02T07:56:57.729Z</time></trkpt><trkpt lat="43.030114" lon="12.2604607"><ele>207.79999999999998</ele><time>2026-05-02T07:56:58.729Z</time></trkpt><trkpt lat="43.0300403" lon="12.2603857"><ele>208.2</ele><time>2026-05-02T07:56:59.729Z</time></trkpt><trkpt lat="43.0299735" lon="12.2603097"><ele>208.6</ele><time>2026-05-02T07:57:00.729Z</time></trkpt><trkpt lat="43.0298965" lon="12.2602308"><ele>209.0</ele><time>2026-05-02T07:57:01.729Z</time></trkpt><trkpt lat="43.0298268" lon="12.2601508"><ele>209.2</ele><time>2026-05-02T07:57:02.729Z</time></trkpt><trkpt lat="43.0297543" lon="12.2600665"><ele>209.39999999999998</ele><time>2026-05-02T07:57:03.729Z</time></trkpt><trkpt lat="43.0296815" lon="12.2599777"><ele>209.6</ele><time>2026-05-02T07:57:04.729Z</time></trkpt><trkpt lat="43.0295995" lon="12.2598953"><ele>209.8</ele><time>2026-05-02T07:57:05.729Z</time></trkpt><trkpt lat="43.0295197" lon="12.2598079"><ele>210.0</ele><time>2026-05-02T07:57:06.729Z</time></trkpt><trkpt lat="43.0294476" lon="12.2597275"><ele>209.83333333333334</ele><time>2026-05-02T07:57:07.729Z</time></trkpt><trkpt lat="43.0293734" lon="12.259647"><ele>209.66666666666669</ele><time>2026-05-02T07:57:08.729Z</time></trkpt><trkpt lat="43.0293032" lon="12.2595682"><ele>209.5</ele><time>2026-05-02T07:57:09.729Z</time></trkpt><trkpt lat="43.0292357" lon="12.2594921"><ele>209.33333333333334</ele><time>2026-05-02T07:57:10.729Z</time></trkpt><trkpt lat="43.029175" lon="12.2594203"><ele>209.16666666666669</ele><time>2026-05-02T07:57:11.729Z</time></trkpt><trkpt lat="43.0291147" lon="12.2593598"><ele>209.0</ele><time>2026-05-02T07:57:12.729Z</time></trkpt><trkpt lat="43.0290624" lon="12.2592996"><ele>209.00000000000003</ele><time>2026-05-02T07:57:13.729Z</time></trkpt><trkpt lat="43.028989" lon="12.259224"><ele>209.0</ele><time>2026-05-02T07:57:15.729Z</time></trkpt><trkpt lat="43.0289159" lon="12.2592372"><ele>209.0</ele><time>2026-05-02T07:57:17.729Z</time></trkpt><trkpt lat="43.0288568" lon="12.2593574"><ele>209.0</ele><time>2026-05-02T07:57:19.729Z</time></trkpt><trkpt lat="43.0288219" lon="12.2594318"><ele>209.00000000000003</ele><time>2026-05-02T07:57:20.729Z</time></trkpt><trkpt lat="43.0287846" lon="12.2595102"><ele>209.0</ele><time>2026-05-02T07:57:21.729Z</time></trkpt><trkpt lat="43.0287375" lon="12.2595986"><ele>209.00000000000003</ele><time>2026-05-02T07:57:22.729Z</time></trkpt><trkpt lat="43.0286882" lon="12.2596864"><ele>209.0</ele><time>2026-05-02T07:57:23.729Z</time></trkpt><trkpt lat="43.0286417" lon="12.2597561"><ele>209.0</ele><time>2026-05-02T07:57:24.729Z</time></trkpt><trkpt lat="43.0285744" lon="12.2598136"><ele>209.0</ele><time>2026-05-02T07:57:25.729Z</time></trkpt><trkpt lat="43.0284777" lon="12.2598527"><ele>209.00000000000003</ele><time>2026-05-02T07:57:26.729Z</time></trkpt><trkpt lat="43.0283985" lon="12.2598795"><ele>209.0</ele><time>2026-05-02T07:57:27.729Z</time></trkpt><trkpt lat="43.0283225" lon="12.2599163"><ele>208.50000000000003</ele><time>2026-05-02T07:57:28.729Z</time></trkpt><trkpt lat="43.0282521" lon="12.2599781"><ele>208.0</ele><time>2026-05-02T07:57:29.729Z</time></trkpt><trkpt lat="43.0281836" lon="12.26004"><ele>207.5</ele><time>2026-05-02T07:57:30.729Z</time></trkpt><trkpt lat="43.028146" lon="12.2601533"><ele>207.0</ele><time>2026-05-02T07:57:31.729Z</time></trkpt><trkpt lat="43.0281035" lon="12.2602653"><ele>206.50000000000003</ele><time>2026-05-02T07:57:32.729Z</time></trkpt><trkpt lat="43.0280631" lon="12.26038"><ele>206.0</ele><time>2026-05-02T07:57:33.729Z</time></trkpt><trkpt lat="43.028024" lon="12.2605066"><ele>206.0</ele><time>2026-05-02T07:57:34.729Z</time></trkpt><trkpt lat="43.0279763" lon="12.2606369"><ele>206.0</ele><time>2026-05-02T07:57:35.729Z</time></trkpt><trkpt lat="43.0279293" lon="12.260765"><ele>206.0</ele><time>2026-05-02T07:57:36.729Z</time></trkpt><trkpt lat="43.0278876" lon="12.2608881"><ele>206.0</ele><time>2026-05-02T07:57:37.729Z</time></trkpt><trkpt lat="43.0278377" lon="12.2610122"><ele>206.0</ele><time>2026-05-02T07:57:38.729Z</time></trkpt><trkpt lat="43.0278011" lon="12.2611224"><ele>206.00000000000003</ele><time>2026-05-02T07:57:39.729Z</time></trkpt><trkpt lat="43.0277669" lon="12.2612189"><ele>206.0</ele><time>2026-05-02T07:57:40.729Z</time></trkpt><trkpt lat="43.0277323" lon="12.2613051"><ele>206.0</ele><time>2026-05-02T07:57:41.729Z</time></trkpt><trkpt lat="43.0276928" lon="12.2613976"><ele>206.0</ele><time>2026-05-02T07:57:42.729Z</time></trkpt><trkpt lat="43.0276568" lon="12.2614763"><ele>206.00000000000003</ele><time>2026-05-02T07:57:43.729Z</time></trkpt><trkpt lat="43.027556" lon="12.2615602"><ele>206.0</ele><time>2026-05-02T07:57:45.729Z</time></trkpt><trkpt lat="43.0274853" lon="12.2615541"><ele>206.0</ele><time>2026-05-02T07:57:46.729Z</time></trkpt><trkpt lat="43.0274023" lon="12.2615315"><ele>206.0</ele><time>2026-05-02T07:57:47.728Z</time></trkpt><trkpt lat="43.027311" lon="12.2615063"><ele>206.0</ele><time>2026-05-02T07:57:48.729Z</time></trkpt><trkpt lat="43.0272282" lon="12.2614724"><ele>206.0</ele><time>2026-05-02T07:57:49.729Z</time></trkpt><trkpt lat="43.0271566" lon="12.2614444"><ele>206.0</ele><time>2026-05-02T07:57:50.729Z</time></trkpt><trkpt lat="43.0270381" lon="12.2614059"><ele>205.83333333333334</ele><time>2026-05-02T07:57:52.729Z</time></trkpt><trkpt lat="43.0269338" lon="12.2613618"><ele>205.66666666666669</ele><time>2026-05-02T07:57:54.729Z</time></trkpt><trkpt lat="43.0268698" lon="12.2613349"><ele>205.5</ele><time>2026-05-02T07:57:55.729Z</time></trkpt><trkpt lat="43.026798" lon="12.2613109"><ele>205.33333333333331</ele><time>2026-05-02T07:57:56.729Z</time></trkpt><trkpt lat="43.0267236" lon="12.2612929"><ele>205.16666666666666</ele><time>2026-05-02T07:57:57.729Z</time></trkpt><trkpt lat="43.0266488" lon="12.2612752"><ele>205.0</ele><time>2026-05-02T07:57:58.729Z</time></trkpt><trkpt lat="43.0265772" lon="12.2612571"><ele>204.83333333333331</ele><time>2026-05-02T07:57:59.729Z</time></trkpt><trkpt lat="43.0264986" lon="12.2612428"><ele>204.66666666666666</ele><time>2026-05-02T07:58:00.729Z</time></trkpt><trkpt lat="43.0264063" lon="12.2612185"><ele>204.5</ele><time>2026-05-02T07:58:01.729Z</time></trkpt><trkpt lat="43.0263048" lon="12.2611908"><ele>204.33333333333331</ele><time>2026-05-02T07:58:02.729Z</time></trkpt><trkpt lat="43.0262165" lon="12.2611619"><ele>204.16666666666666</ele><time>2026-05-02T07:58:03.729Z</time></trkpt><trkpt lat="43.0261389" lon="12.2611409"><ele>204.0</ele><time>2026-05-02T07:58:04.729Z</time></trkpt><trkpt lat="43.0260655" lon="12.2611165"><ele>204.0</ele><time>2026-05-02T07:58:05.729Z</time></trkpt><trkpt lat="43.0259915" lon="12.2610928"><ele>204.0</ele><time>2026-05-02T07:58:06.729Z</time></trkpt><trkpt lat="43.0259239" lon="12.2610693"><ele>204.0</ele><time>2026-05-02T07:58:07.729Z</time></trkpt><trkpt lat="43.0258598" lon="12.2610461"><ele>204.0</ele><time>2026-05-02T07:58:08.728Z</time></trkpt><trkpt lat="43.025742" lon="12.2610091"><ele>204.0</ele><time>2026-05-02T07:58:10.729Z</time></trkpt><trkpt lat="43.025678" lon="12.260996"><ele>204.0</ele><time>2026-05-02T07:58:11.729Z</time></trkpt><trkpt lat="43.0255637" lon="12.2609635"><ele>204.5</ele><time>2026-05-02T07:58:13.728Z</time></trkpt><trkpt lat="43.025453" lon="12.2609219"><ele>205.0</ele><time>2026-05-02T07:58:15.729Z</time></trkpt><trkpt lat="43.0253909" lon="12.2608999"><ele>205.5</ele><time>2026-05-02T07:58:16.729Z</time></trkpt><trkpt lat="43.025329" lon="12.260881"><ele>206.0</ele><time>2026-05-02T07:58:17.729Z</time></trkpt><trkpt lat="43.0252637" lon="12.2608655"><ele>206.5</ele><time>2026-05-02T07:58:18.729Z</time></trkpt><trkpt lat="43.0251543" lon="12.2608292"><ele>207.0</ele><time>2026-05-02T07:58:20.729Z</time></trkpt><trkpt lat="43.0250573" lon="12.2608028"><ele>207.2</ele><time>2026-05-02T07:58:22.729Z</time></trkpt><trkpt lat="43.0249558" lon="12.2607675"><ele>207.39999999999998</ele><time>2026-05-02T07:58:24.729Z</time></trkpt><trkpt lat="43.0248596" lon="12.2607378"><ele>207.60000000000002</ele><time>2026-05-02T07:58:26.729Z</time></trkpt><trkpt lat="43.0247513" lon="12.2607058"><ele>207.8</ele><time>2026-05-02T07:58:28.729Z</time></trkpt><trkpt lat="43.0246447" lon="12.2606665"><ele>208.0</ele><time>2026-05-02T07:58:30.729Z</time></trkpt><trkpt lat="43.0245428" lon="12.2606295"><ele>207.8</ele><time>2026-05-02T07:58:32.729Z</time></trkpt><trkpt lat="43.0244256" lon="12.2606033"><ele>207.60000000000002</ele><time>2026-05-02T07:58:34.729Z</time></trkpt><trkpt lat="43.0242823" lon="12.2606009"><ele>207.39999999999998</ele><time>2026-05-02T07:58:36.729Z</time></trkpt><trkpt lat="43.0242024" lon="12.2606102"><ele>207.2</ele><time>2026-05-02T07:58:37.729Z</time></trkpt><trkpt lat="43.0241238" lon="12.2606152"><ele>207.0</ele><time>2026-05-02T07:58:38.729Z</time></trkpt><trkpt lat="43.0240335" lon="12.2606242"><ele>206.66666666666666</ele><time>2026-05-02T07:58:39.729Z</time></trkpt><trkpt lat="43.0239588" lon="12.2606292"><ele>206.33333333333331</ele><time>2026-05-02T07:58:40.729Z</time></trkpt><trkpt lat="43.0238807" lon="12.2606298"><ele>206.0</ele><time>2026-05-02T07:58:41.729Z</time></trkpt><trkpt lat="43.0237907" lon="12.2606306"><ele>205.66666666666666</ele><time>2026-05-02T07:58:42.729Z</time></trkpt><trkpt lat="43.0236973" lon="12.2606374"><ele>205.33333333333331</ele><time>2026-05-02T07:58:43.729Z</time></trkpt><trkpt lat="43.0236004" lon="12.2606418"><ele>205.0</ele><time>2026-05-02T07:58:44.729Z</time></trkpt><trkpt lat="43.0235086" lon="12.2606444"><ele>205.0</ele><time>2026-05-02T07:58:45.729Z</time></trkpt><trkpt lat="43.0234208" lon="12.2606489"><ele>205.0</ele><time>2026-05-02T07:58:46.729Z</time></trkpt><trkpt lat="43.0233323" lon="12.260653"><ele>205.0</ele><time>2026-05-02T07:58:47.729Z</time></trkpt><trkpt lat="43.0232351" lon="12.2606606"><ele>205.0</ele><time>2026-05-02T07:58:48.729Z</time></trkpt><trkpt lat="43.0231435" lon="12.2606689"><ele>205.0</ele><time>2026-05-02T07:58:49.729Z</time></trkpt><trkpt lat="43.0230506" lon="12.2606783"><ele>205.4</ele><time>2026-05-02T07:58:50.729Z</time></trkpt><trkpt lat="43.0229619" lon="12.2606843"><ele>205.8</ele><time>2026-05-02T07:58:51.729Z</time></trkpt><trkpt lat="43.0228686" lon="12.2606886"><ele>206.2</ele><time>2026-05-02T07:58:52.729Z</time></trkpt><trkpt lat="43.0227689" lon="12.260694"><ele>206.6</ele><time>2026-05-02T07:58:53.729Z</time></trkpt><trkpt lat="43.0226763" lon="12.2606948"><ele>207.0</ele><time>2026-05-02T07:58:54.729Z</time></trkpt><trkpt lat="43.0225937" lon="12.2607019"><ele>207.0</ele><time>2026-05-02T07:58:55.729Z</time></trkpt><trkpt lat="43.0225188" lon="12.260709"><ele>207.0</ele><time>2026-05-02T07:58:56.729Z</time></trkpt><trkpt lat="43.0224388" lon="12.2607131"><ele>207.0</ele><time>2026-05-02T07:58:57.729Z</time></trkpt><trkpt lat="43.0223122" lon="12.2607254"><ele>207.0</ele><time>2026-05-02T07:58:59.729Z</time></trkpt><trkpt lat="43.0222492" lon="12.2607387"><ele>207.0</ele><time>2026-05-02T07:59:00.729Z</time></trkpt><trkpt lat="43.0221807" lon="12.2607414"><ele>207.0</ele><time>2026-05-02T07:59:01.729Z</time></trkpt><trkpt lat="43.0221083" lon="12.2607472"><ele>207.0</ele><time>2026-05-02T07:59:02.729Z</time></trkpt><trkpt lat="43.0220372" lon="12.2607542"><ele>207.0</ele><time>2026-05-02T07:59:03.729Z</time></trkpt><trkpt lat="43.0219625" lon="12.2607627"><ele>207.0</ele><time>2026-05-02T07:59:04.729Z</time></trkpt><trkpt lat="43.0218806" lon="12.2607652"><ele>207.0</ele><time>2026-05-02T07:59:05.729Z</time></trkpt><trkpt lat="43.021798" lon="12.2607705"><ele>207.0</ele><time>2026-05-02T07:59:06.729Z</time></trkpt><trkpt lat="43.0217155" lon="12.2607759"><ele>207.0</ele><time>2026-05-02T07:59:07.729Z</time></trkpt><trkpt lat="43.021633" lon="12.2607839"><ele>206.83333333333334</ele><time>2026-05-02T07:59:08.729Z</time></trkpt><trkpt lat="43.0215528" lon="12.2607923"><ele>206.66666666666669</ele><time>2026-05-02T07:59:09.729Z</time></trkpt><trkpt lat="43.021475" lon="12.2607972"><ele>206.5</ele><time>2026-05-02T07:59:10.729Z</time></trkpt><trkpt lat="43.021396" lon="12.2608038"><ele>206.33333333333334</ele><time>2026-05-02T07:59:11.729Z</time></trkpt><trkpt lat="43.0213106" lon="12.2608035"><ele>206.16666666666669</ele><time>2026-05-02T07:59:12.729Z</time></trkpt><trkpt lat="43.0212303" lon="12.2608056"><ele>206.0</ele><time>2026-05-02T07:59:13.729Z</time></trkpt><trkpt lat="43.0211466" lon="12.2608017"><ele>206.00000000000003</ele><time>2026-05-02T07:59:14.729Z</time></trkpt><trkpt lat="43.0210623" lon="12.2608008"><ele>206.0</ele><time>2026-05-02T07:59:15.729Z</time></trkpt><trkpt lat="43.0209771" lon="12.2608001"><ele>206.0</ele><time>2026-05-02T07:59:16.729Z</time></trkpt><trkpt lat="43.0208981" lon="12.2607977"><ele>206.0</ele><time>2026-05-02T07:59:17.729Z</time></trkpt><trkpt lat="43.0208293" lon="12.2608013"><ele>206.00000000000003</ele><time>2026-05-02T07:59:18.729Z</time></trkpt><trkpt lat="43.0207077" lon="12.2608061"><ele>206.0</ele><time>2026-05-02T07:59:20.729Z</time></trkpt><trkpt lat="43.0206536" lon="12.2607111"><ele>205.83333333333334</ele><time>2026-05-02T07:59:22.729Z</time></trkpt><trkpt lat="43.0206445" lon="12.2605307"><ele>205.66666666666669</ele><time>2026-05-02T07:59:24.729Z</time></trkpt><trkpt lat="43.0206407" lon="12.2604276"><ele>205.5</ele><time>2026-05-02T07:59:25.729Z</time></trkpt><trkpt lat="43.0206337" lon="12.2603285"><ele>205.33333333333331</ele><time>2026-05-02T07:59:26.729Z</time></trkpt><trkpt lat="43.0206288" lon="12.2602374"><ele>205.16666666666666</ele><time>2026-05-02T07:59:27.729Z</time></trkpt><trkpt lat="43.0206229" lon="12.2601508"><ele>205.0</ele><time>2026-05-02T07:59:28.729Z</time></trkpt><trkpt lat="43.0206155" lon="12.260062"><ele>204.99999999999997</ele><time>2026-05-02T07:59:29.729Z</time></trkpt><trkpt lat="43.0206076" lon="12.2599709"><ele>205.0</ele><time>2026-05-02T07:59:30.729Z</time></trkpt><trkpt lat="43.0205999" lon="12.2598727"><ele>205.0</ele><time>2026-05-02T07:59:31.729Z</time></trkpt><trkpt lat="43.0205933" lon="12.2597653"><ele>205.0</ele><time>2026-05-02T07:59:32.729Z</time></trkpt><trkpt lat="43.020588" lon="12.2596597"><ele>204.99999999999997</ele><time>2026-05-02T07:59:33.729Z</time></trkpt><trkpt lat="43.0205849" lon="12.2595396"><ele>205.0</ele><time>2026-05-02T07:59:34.729Z</time></trkpt><trkpt lat="43.0205866" lon="12.259429"><ele>204.99999999999997</ele><time>2026-05-02T07:59:35.729Z</time></trkpt><trkpt lat="43.0205762" lon="12.2593106"><ele>205.0</ele><time>2026-05-02T07:59:36.729Z</time></trkpt><trkpt lat="43.0205609" lon="12.2591946"><ele>205.0</ele><time>2026-05-02T07:59:37.729Z</time></trkpt><trkpt lat="43.0205498" lon="12.2590794"><ele>205.0</ele><time>2026-05-02T07:59:38.729Z</time></trkpt><trkpt lat="43.0205393" lon="12.2589652"><ele>204.99999999999997</ele><time>2026-05-02T07:59:39.729Z</time></trkpt><trkpt lat="43.0205356" lon="12.2588497"><ele>205.0</ele><time>2026-05-02T07:59:40.729Z</time></trkpt><trkpt lat="43.0205351" lon="12.2587425"><ele>204.99999999999997</ele><time>2026-05-02T07:59:41.729Z</time></trkpt><trkpt lat="43.020531" lon="12.2586288"><ele>205.0</ele><time>2026-05-02T07:59:42.728Z</time></trkpt><trkpt lat="43.0205331" lon="12.2585208"><ele>205.0</ele><time>2026-05-02T07:59:43.729Z</time></trkpt><trkpt lat="43.0205334" lon="12.258407"><ele>205.0</ele><time>2026-05-02T07:59:44.729Z</time></trkpt><trkpt lat="43.0205271" lon="12.2582937"><ele>204.99999999999997</ele><time>2026-05-02T07:59:45.729Z</time></trkpt><trkpt lat="43.020523" lon="12.2581838"><ele>205.0</ele><time>2026-05-02T07:59:46.729Z</time></trkpt><trkpt lat="43.020516" lon="12.258083"><ele>205.2</ele><time>2026-05-02T07:59:47.729Z</time></trkpt><trkpt lat="43.0205129" lon="12.2579175"><ele>205.4</ele><time>2026-05-02T07:59:49.729Z</time></trkpt><trkpt lat="43.0203945" lon="12.2578148"><ele>205.60000000000002</ele><time>2026-05-02T07:59:51.729Z</time></trkpt><trkpt lat="43.0203148" lon="12.2577655"><ele>205.8</ele><time>2026-05-02T07:59:52.729Z</time></trkpt><trkpt lat="43.0202464" lon="12.257739"><ele>206.0</ele><time>2026-05-02T07:59:53.729Z</time></trkpt><trkpt lat="43.0201587" lon="12.2577187"><ele>206.0</ele><time>2026-05-02T07:59:54.729Z</time></trkpt><trkpt lat="43.0200745" lon="12.2576944"><ele>206.0</ele><time>2026-05-02T07:59:55.729Z</time></trkpt><trkpt lat="43.0199914" lon="12.2576401"><ele>206.0</ele><time>2026-05-02T07:59:56.729Z</time></trkpt><trkpt lat="43.0199036" lon="12.2576019"><ele>206.0</ele><time>2026-05-02T07:59:57.729Z</time></trkpt><trkpt lat="43.0198166" lon="12.2575588"><ele>206.0</ele><time>2026-05-02T07:59:58.729Z</time></trkpt><trkpt lat="43.0197348" lon="12.2575125"><ele>206.00000000000003</ele><time>2026-05-02T07:59:59.729Z</time></trkpt><trkpt lat="43.0196594" lon="12.2574735"><ele>206.0</ele><time>2026-05-02T08:00:00.729Z</time></trkpt><trkpt lat="43.0195853" lon="12.2574327"><ele>206.0</ele><time>2026-05-02T08:00:01.728Z</time></trkpt><trkpt lat="43.019518" lon="12.2573965"><ele>206.0</ele><time>2026-05-02T08:00:02.729Z</time></trkpt><trkpt lat="43.019448" lon="12.2573606"><ele>206.00000000000003</ele><time>2026-05-02T08:00:03.729Z</time></trkpt><trkpt lat="43.0193516" lon="12.2573151"><ele>206.0</ele><time>2026-05-02T08:00:05.729Z</time></trkpt><trkpt lat="43.0192394" lon="12.2573071"><ele>206.20000000000002</ele><time>2026-05-02T08:00:07.729Z</time></trkpt><trkpt lat="43.0191253" lon="12.2573741"><ele>206.4</ele><time>2026-05-02T08:00:09.729Z</time></trkpt><trkpt lat="43.0190716" lon="12.2574271"><ele>206.6</ele><time>2026-05-02T08:00:10.729Z</time></trkpt><trkpt lat="43.0189772" lon="12.2575119"><ele>206.8</ele><time>2026-05-02T08:00:12.729Z</time></trkpt><trkpt lat="43.0188845" lon="12.2575957"><ele>207.0</ele><time>2026-05-02T08:00:14.729Z</time></trkpt><trkpt lat="43.018827" lon="12.2576419"><ele>207.0</ele><time>2026-05-02T08:00:15.729Z</time></trkpt><trkpt lat="43.0187617" lon="12.2577024"><ele>207.0</ele><time>2026-05-02T08:00:16.729Z</time></trkpt><trkpt lat="43.0186967" lon="12.2577576"><ele>207.0</ele><time>2026-05-02T08:00:17.729Z</time></trkpt><trkpt lat="43.0186282" lon="12.2578169"><ele>207.0</ele><time>2026-05-02T08:00:18.729Z</time></trkpt><trkpt lat="43.0185649" lon="12.2578756"><ele>207.0</ele><time>2026-05-02T08:00:19.729Z</time></trkpt><trkpt lat="43.0185073" lon="12.2579289"><ele>207.0</ele><time>2026-05-02T08:00:20.729Z</time></trkpt><trkpt lat="43.0184529" lon="12.2579856"><ele>207.0</ele><time>2026-05-02T08:00:21.729Z</time></trkpt><trkpt lat="43.0183943" lon="12.2580411"><ele>207.0</ele><time>2026-05-02T08:00:22.729Z</time></trkpt><trkpt lat="43.0183443" lon="12.2580962"><ele>207.0</ele><time>2026-05-02T08:00:23.729Z</time></trkpt><trkpt lat="43.018292" lon="12.2581529"><ele>207.0</ele><time>2026-05-02T08:00:24.729Z</time></trkpt><trkpt lat="43.0182342" lon="12.2582102"><ele>207.0</ele><time>2026-05-02T08:00:25.729Z</time></trkpt><trkpt lat="43.0181256" lon="12.2582843"><ele>207.0</ele><time>2026-05-02T08:00:27.729Z</time></trkpt><trkpt lat="43.0180483" lon="12.2582808"><ele>207.0</ele><time>2026-05-02T08:00:29.729Z</time></trkpt><trkpt lat="43.0180064" lon="12.2582159"><ele>207.0</ele><time>2026-05-02T08:00:31.729Z</time></trkpt><trkpt lat="43.0179809" lon="12.2581114"><ele>207.0</ele><time>2026-05-02T08:00:34.729Z</time></trkpt><trkpt lat="43.0179453" lon="12.2579949"><ele>207.0</ele><time>2026-05-02T08:00:38.729Z</time></trkpt><trkpt lat="43.0179057" lon="12.2578975"><ele>207.0</ele><time>2026-05-02T08:00:40.729Z</time></trkpt><trkpt lat="43.0178596" lon="12.2577695"><ele>207.0</ele><time>2026-05-02T08:00:42.729Z</time></trkpt><trkpt lat="43.0178092" lon="12.2576432"><ele>207.0</ele><time>2026-05-02T08:00:44.729Z</time></trkpt><trkpt lat="43.0177559" lon="12.2575331"><ele>207.0</ele><time>2026-05-02T08:00:46.729Z</time></trkpt><trkpt lat="43.0177015" lon="12.2574108"><ele>207.0</ele><time>2026-05-02T08:00:48.729Z</time></trkpt><trkpt lat="43.0176453" lon="12.2572968"><ele>207.0</ele><time>2026-05-02T08:00:50.729Z</time></trkpt><trkpt lat="43.0175933" lon="12.2571786"><ele>207.0</ele><time>2026-05-02T08:00:52.729Z</time></trkpt><trkpt lat="43.0175715" lon="12.2570826"><ele>207.0</ele><time>2026-05-02T08:00:55.729Z</time></trkpt><trkpt lat="43.0175723" lon="12.2569904"><ele>207.0</ele><time>2026-05-02T08:00:57.729Z</time></trkpt><trkpt lat="43.0176052" lon="12.256874"><ele>207.0</ele><time>2026-05-02T08:00:59.729Z</time></trkpt><trkpt lat="43.0176184" lon="12.2567564"><ele>207.0</ele><time>2026-05-02T08:01:01.729Z</time></trkpt><trkpt lat="43.0175624" lon="12.2566443"><ele>207.0</ele><time>2026-05-02T08:01:03.729Z</time></trkpt><trkpt lat="43.0174585" lon="12.2566115"><ele>207.2</ele><time>2026-05-02T08:01:05.729Z</time></trkpt><trkpt lat="43.01735" lon="12.2565496"><ele>207.39999999999998</ele><time>2026-05-02T08:01:07.729Z</time></trkpt><trkpt lat="43.0173031" lon="12.2564786"><ele>207.60000000000002</ele><time>2026-05-02T08:01:08.729Z</time></trkpt><trkpt lat="43.017258" lon="12.2564045"><ele>207.8</ele><time>2026-05-02T08:01:09.729Z</time></trkpt><trkpt lat="43.0172642" lon="12.2562663"><ele>208.0</ele><time>2026-05-02T08:01:10.729Z</time></trkpt><trkpt lat="43.0172538" lon="12.256137"><ele>208.0</ele><time>2026-05-02T08:01:11.729Z</time></trkpt><trkpt lat="43.0172339" lon="12.2559941"><ele>208.0</ele><time>2026-05-02T08:01:12.729Z</time></trkpt><trkpt lat="43.0172125" lon="12.255846"><ele>208.0</ele><time>2026-05-02T08:01:13.729Z</time></trkpt><trkpt lat="43.0171935" lon="12.2556971"><ele>208.0</ele><time>2026-05-02T08:01:14.729Z</time></trkpt><trkpt lat="43.017185" lon="12.2555275"><ele>208.0</ele><time>2026-05-02T08:01:15.729Z</time></trkpt><trkpt lat="43.0171732" lon="12.2553636"><ele>208.0</ele><time>2026-05-02T08:01:16.729Z</time></trkpt><trkpt lat="43.0171609" lon="12.2551951"><ele>208.0</ele><time>2026-05-02T08:01:17.729Z</time></trkpt><trkpt lat="43.0171484" lon="12.2550248"><ele>208.0</ele><time>2026-05-02T08:01:18.729Z</time></trkpt><trkpt lat="43.0171366" lon="12.2548357"><ele>208.0</ele><time>2026-05-02T08:01:19.729Z</time></trkpt><trkpt lat="43.0171295" lon="12.2546573"><ele>208.0</ele><time>2026-05-02T08:01:20.729Z</time></trkpt><trkpt lat="43.0171244" lon="12.2544766"><ele>208.0</ele><time>2026-05-02T08:01:21.729Z</time></trkpt><trkpt lat="43.01712" lon="12.2542926"><ele>208.0</ele><time>2026-05-02T08:01:22.729Z</time></trkpt><trkpt lat="43.0171204" lon="12.2541054"><ele>208.25</ele><time>2026-05-02T08:01:23.729Z</time></trkpt><trkpt lat="43.0171242" lon="12.2539166"><ele>208.5</ele><time>2026-05-02T08:01:24.729Z</time></trkpt><trkpt lat="43.0171292" lon="12.2537297"><ele>208.75</ele><time>2026-05-02T08:01:25.729Z</time></trkpt><trkpt lat="43.0171382" lon="12.2535371"><ele>209.0</ele><time>2026-05-02T08:01:26.729Z</time></trkpt><trkpt lat="43.0171445" lon="12.2533472"><ele>209.0</ele><time>2026-05-02T08:01:27.729Z</time></trkpt><trkpt lat="43.0171423" lon="12.2531595"><ele>209.0</ele><time>2026-05-02T08:01:28.729Z</time></trkpt><trkpt lat="43.0171474" lon="12.2529669"><ele>209.0</ele><time>2026-05-02T08:01:29.729Z</time></trkpt><trkpt lat="43.0171535" lon="12.2527751"><ele>209.0</ele><time>2026-05-02T08:01:30.729Z</time></trkpt><trkpt lat="43.0171604" lon="12.2525874"><ele>209.0</ele><time>2026-05-02T08:01:31.729Z</time></trkpt><trkpt lat="43.0171702" lon="12.2524033"><ele>209.0</ele><time>2026-05-02T08:01:32.729Z</time></trkpt><trkpt lat="43.017176" lon="12.2522096"><ele>209.0</ele><time>2026-05-02T08:01:33.729Z</time></trkpt><trkpt lat="43.0171822" lon="12.2520121"><ele>209.0</ele><time>2026-05-02T08:01:34.729Z</time></trkpt><trkpt lat="43.017192" lon="12.2518067"><ele>209.0</ele><time>2026-05-02T08:01:35.729Z</time></trkpt><trkpt lat="43.0172002" lon="12.2516017"><ele>209.0</ele><time>2026-05-02T08:01:36.729Z</time></trkpt><trkpt lat="43.0172078" lon="12.2513956"><ele>209.0</ele><time>2026-05-02T08:01:37.729Z</time></trkpt><trkpt lat="43.0172117" lon="12.2511903"><ele>209.0</ele><time>2026-05-02T08:01:38.728Z</time></trkpt><trkpt lat="43.0172172" lon="12.2509868"><ele>209.0</ele><time>2026-05-02T08:01:39.729Z</time></trkpt><trkpt lat="43.0172241" lon="12.2507834"><ele>209.0</ele><time>2026-05-02T08:01:40.729Z</time></trkpt><trkpt lat="43.0172334" lon="12.2505798"><ele>209.0</ele><time>2026-05-02T08:01:41.729Z</time></trkpt><trkpt lat="43.0172467" lon="12.2503749"><ele>209.0</ele><time>2026-05-02T08:01:42.729Z</time></trkpt><trkpt lat="43.0172619" lon="12.2501849"><ele>209.0</ele><time>2026-05-02T08:01:43.729Z</time></trkpt><trkpt lat="43.0172741" lon="12.2499871"><ele>209.0</ele><time>2026-05-02T08:01:44.729Z</time></trkpt><trkpt lat="43.0172795" lon="12.2498729"><ele>209.0</ele><time>2026-05-02T08:01:46.729Z</time></trkpt><trkpt lat="43.0172299" lon="12.2497908"><ele>209.0</ele><time>2026-05-02T08:01:48.729Z</time></trkpt><trkpt lat="43.0171674" lon="12.2498219"><ele>209.00000000000003</ele><time>2026-05-02T08:01:49.729Z</time></trkpt><trkpt lat="43.0170478" lon="12.2498243"><ele>209.0</ele><time>2026-05-02T08:01:51.729Z</time></trkpt><trkpt lat="43.0169823" lon="12.2498316"><ele>209.0</ele><time>2026-05-02T08:01:52.729Z</time></trkpt><trkpt lat="43.0169073" lon="12.2498398"><ele>209.0</ele><time>2026-05-02T08:01:53.729Z</time></trkpt><trkpt lat="43.0168241" lon="12.249847"><ele>209.00000000000003</ele><time>2026-05-02T08:01:54.728Z</time></trkpt><trkpt lat="43.0167497" lon="12.2498604"><ele>209.0</ele><time>2026-05-02T08:01:55.729Z</time></trkpt><trkpt lat="43.0166734" lon="12.2498808"><ele>208.85714285714286</ele><time>2026-05-02T08:01:56.729Z</time></trkpt><trkpt lat="43.016604" lon="12.2499071"><ele>208.71428571428572</ele><time>2026-05-02T08:01:57.729Z</time></trkpt><trkpt lat="43.01654" lon="12.2499411"><ele>208.57142857142856</ele><time>2026-05-02T08:01:58.729Z</time></trkpt><trkpt lat="43.0164761" lon="12.2499719"><ele>208.42857142857144</ele><time>2026-05-02T08:01:59.729Z</time></trkpt><trkpt lat="43.0164148" lon="12.2500016"><ele>208.2857142857143</ele><time>2026-05-02T08:02:00.729Z</time></trkpt><trkpt lat="43.0163444" lon="12.2500344"><ele>208.14285714285714</ele><time>2026-05-02T08:02:03.729Z</time></trkpt><trkpt lat="43.0162487" lon="12.2500145"><ele>208.0</ele><time>2026-05-02T08:02:06.729Z</time></trkpt><trkpt lat="43.0161692" lon="12.2499035"><ele>208.25</ele><time>2026-05-02T08:02:08.729Z</time></trkpt><trkpt lat="43.0161289" lon="12.2497168"><ele>208.5</ele><time>2026-05-02T08:02:10.729Z</time></trkpt><trkpt lat="43.0161184" lon="12.2495861"><ele>208.75</ele><time>2026-05-02T08:02:11.729Z</time></trkpt><trkpt lat="43.0161073" lon="12.2494376"><ele>209.0</ele><time>2026-05-02T08:02:12.729Z</time></trkpt><trkpt lat="43.016094" lon="12.2492792"><ele>209.0</ele><time>2026-05-02T08:02:13.729Z</time></trkpt><trkpt lat="43.0160782" lon="12.2491204"><ele>209.0</ele><time>2026-05-02T08:02:14.729Z</time></trkpt><trkpt lat="43.0160647" lon="12.2489609"><ele>209.0</ele><time>2026-05-02T08:02:15.729Z</time></trkpt><trkpt lat="43.0160382" lon="12.2488169"><ele>209.0</ele><time>2026-05-02T08:02:16.729Z</time></trkpt><trkpt lat="43.016006" lon="12.2486689"><ele>209.0</ele><time>2026-05-02T08:02:17.729Z</time></trkpt><trkpt lat="43.0159586" lon="12.2485271"><ele>209.0</ele><time>2026-05-02T08:02:18.729Z</time></trkpt><trkpt lat="43.0159112" lon="12.2483889"><ele>209.0</ele><time>2026-05-02T08:02:19.729Z</time></trkpt><trkpt lat="43.0158617" lon="12.2482572"><ele>209.0</ele><time>2026-05-02T08:02:20.729Z</time></trkpt><trkpt lat="43.0158095" lon="12.2481354"><ele>209.0</ele><time>2026-05-02T08:02:21.729Z</time></trkpt><trkpt lat="43.01575" lon="12.2480194"><ele>209.0</ele><time>2026-05-02T08:02:22.729Z</time></trkpt><trkpt lat="43.0156848" lon="12.2478981"><ele>209.0</ele><time>2026-05-02T08:02:23.729Z</time></trkpt><trkpt lat="43.0156128" lon="12.2477761"><ele>209.0</ele><time>2026-05-02T08:02:24.729Z</time></trkpt><trkpt lat="43.0155257" lon="12.2476599"><ele>209.0</ele><time>2026-05-02T08:02:25.729Z</time></trkpt><trkpt lat="43.0154507" lon="12.2475632"><ele>209.0</ele><time>2026-05-02T08:02:26.729Z</time></trkpt><trkpt lat="43.0153826" lon="12.2474745"><ele>209.00000000000003</ele><time>2026-05-02T08:02:27.729Z</time></trkpt><trkpt lat="43.0153153" lon="12.2473823"><ele>209.0</ele><time>2026-05-02T08:02:28.729Z</time></trkpt><trkpt lat="43.015244" lon="12.247294"><ele>209.0</ele><time>2026-05-02T08:02:29.729Z</time></trkpt><trkpt lat="43.0151762" lon="12.2472178"><ele>209.0</ele><time>2026-05-02T08:02:30.729Z</time></trkpt><trkpt lat="43.0151147" lon="12.2471428"><ele>209.00000000000003</ele><time>2026-05-02T08:02:31.729Z</time></trkpt><trkpt lat="43.0150508" lon="12.2470686"><ele>209.0</ele><time>2026-05-02T08:02:32.729Z</time></trkpt><trkpt lat="43.0149873" lon="12.2470524"><ele>209.33333333333334</ele><time>2026-05-02T08:02:33.729Z</time></trkpt><trkpt lat="43.0148615" lon="12.2470915"><ele>209.66666666666669</ele><time>2026-05-02T08:02:35.729Z</time></trkpt><trkpt lat="43.0147958" lon="12.2471502"><ele>210.0</ele><time>2026-05-02T08:02:36.729Z</time></trkpt><trkpt lat="43.0147304" lon="12.2472127"><ele>210.33333333333331</ele><time>2026-05-02T08:02:37.729Z</time></trkpt><trkpt lat="43.0146762" lon="12.2472761"><ele>210.66666666666666</ele><time>2026-05-02T08:02:38.729Z</time></trkpt><trkpt lat="43.0146371" lon="12.2473485"><ele>211.0</ele><time>2026-05-02T08:02:39.729Z</time></trkpt><trkpt lat="43.0146077" lon="12.2474297"><ele>211.83333333333331</ele><time>2026-05-02T08:02:40.729Z</time></trkpt><trkpt lat="43.0145709" lon="12.2475072"><ele>212.66666666666666</ele><time>2026-05-02T08:02:41.729Z</time></trkpt><trkpt lat="43.0144736" lon="12.2476124"><ele>213.5</ele><time>2026-05-02T08:02:43.729Z</time></trkpt><trkpt lat="43.0144071" lon="12.247632"><ele>214.33333333333331</ele><time>2026-05-02T08:02:44.729Z</time></trkpt><trkpt lat="43.0143294" lon="12.2476319"><ele>215.16666666666666</ele><time>2026-05-02T08:02:45.729Z</time></trkpt><trkpt lat="43.0142532" lon="12.2476259"><ele>216.0</ele><time>2026-05-02T08:02:46.729Z</time></trkpt><trkpt lat="43.0141733" lon="12.2476457"><ele>219.16666666666666</ele><time>2026-05-02T08:02:47.729Z</time></trkpt><trkpt lat="43.014097" lon="12.2476635"><ele>222.33333333333331</ele><time>2026-05-02T08:02:48.729Z</time></trkpt><trkpt lat="43.0140235" lon="12.2477119"><ele>225.5</ele><time>2026-05-02T08:02:49.729Z</time></trkpt><trkpt lat="43.0139625" lon="12.247737"><ele>228.66666666666666</ele><time>2026-05-02T08:02:50.729Z</time></trkpt><trkpt lat="43.0138661" lon="12.2477716"><ele>231.83333333333331</ele><time>2026-05-02T08:02:52.729Z</time></trkpt><trkpt lat="43.0137872" lon="12.2476788"><ele>235.0</ele><time>2026-05-02T08:02:55.729Z</time></trkpt><trkpt lat="43.0137439" lon="12.2475471"><ele>235.0</ele><time>2026-05-02T08:02:57.729Z</time></trkpt><trkpt lat="43.0136839" lon="12.2474048"><ele>235.0</ele><time>2026-05-02T08:02:59.729Z</time></trkpt><trkpt lat="43.0136423" lon="12.2473226"><ele>235.0</ele><time>2026-05-02T08:03:00.728Z</time></trkpt><trkpt lat="43.0135729" lon="12.2472407"><ele>235.0</ele><time>2026-05-02T08:03:02.729Z</time></trkpt><trkpt lat="43.0134924" lon="12.2472153"><ele>235.0</ele><time>2026-05-02T08:03:04.729Z</time></trkpt><trkpt lat="43.0134033" lon="12.2472562"><ele>236.66666666666666</ele><time>2026-05-02T08:03:06.729Z</time></trkpt><trkpt lat="43.0133047" lon="12.2472956"><ele>238.33333333333331</ele><time>2026-05-02T08:03:08.729Z</time></trkpt><trkpt lat="43.0132438" lon="12.2473373"><ele>240.0</ele><time>2026-05-02T08:03:09.729Z</time></trkpt><trkpt lat="43.0131846" lon="12.2473723"><ele>241.66666666666669</ele><time>2026-05-02T08:03:10.729Z</time></trkpt><trkpt lat="43.0130888" lon="12.2474148"><ele>243.33333333333334</ele><time>2026-05-02T08:03:11.729Z</time></trkpt><trkpt lat="43.0130115" lon="12.2474309"><ele>245.0</ele><time>2026-05-02T08:03:12.729Z</time></trkpt><trkpt lat="43.0129348" lon="12.2474231"><ele>245.00000000000003</ele><time>2026-05-02T08:03:13.729Z</time></trkpt><trkpt lat="43.0128556" lon="12.2473895"><ele>245.0</ele><time>2026-05-02T08:03:14.729Z</time></trkpt><trkpt lat="43.0127804" lon="12.2473558"><ele>245.0</ele><time>2026-05-02T08:03:15.729Z</time></trkpt><trkpt lat="43.0127096" lon="12.247299"><ele>245.0</ele><time>2026-05-02T08:03:16.729Z</time></trkpt><trkpt lat="43.0126406" lon="12.2472254"><ele>245.00000000000003</ele><time>2026-05-02T08:03:17.729Z</time></trkpt><trkpt lat="43.0125675" lon="12.2471426"><ele>245.0</ele><time>2026-05-02T08:03:18.729Z</time></trkpt><trkpt lat="43.0124977" lon="12.2470656"><ele>247.33333333333334</ele><time>2026-05-02T08:03:19.729Z</time></trkpt><trkpt lat="43.0124233" lon="12.2469962"><ele>249.66666666666669</ele><time>2026-05-02T08:03:20.729Z</time></trkpt><trkpt lat="43.0123525" lon="12.2469236"><ele>252.0</ele><time>2026-05-02T08:03:21.729Z</time></trkpt><trkpt lat="43.0122726" lon="12.246902"><ele>254.33333333333331</ele><time>2026-05-02T08:03:22.729Z</time></trkpt><trkpt lat="43.012193" lon="12.2468598"><ele>256.66666666666663</ele><time>2026-05-02T08:03:23.729Z</time></trkpt><trkpt lat="43.0121214" lon="12.2468144"><ele>259.0</ele><time>2026-05-02T08:03:24.729Z</time></trkpt><trkpt lat="43.0120576" lon="12.2467671"><ele>259.0</ele><time>2026-05-02T08:03:25.729Z</time></trkpt><trkpt lat="43.0120053" lon="12.2467011"><ele>259.0</ele><time>2026-05-02T08:03:26.729Z</time></trkpt><trkpt lat="43.0119652" lon="12.2466227"><ele>259.0</ele><time>2026-05-02T08:03:27.729Z</time></trkpt><trkpt lat="43.0119243" lon="12.2465475"><ele>259.0</ele><time>2026-05-02T08:03:28.729Z</time></trkpt><trkpt lat="43.0118788" lon="12.2464695"><ele>259.0</ele><time>2026-05-02T08:03:29.729Z</time></trkpt><trkpt lat="43.0118023" lon="12.2464034"><ele>259.0</ele><time>2026-05-02T08:03:30.729Z</time></trkpt><trkpt lat="43.0117395" lon="12.2463446"><ele>259.0</ele><time>2026-05-02T08:03:31.729Z</time></trkpt><trkpt lat="43.011685" lon="12.2462758"><ele>261.66666666666663</ele><time>2026-05-02T08:03:32.729Z</time></trkpt><trkpt lat="43.0116267" lon="12.2462035"><ele>264.3333333333333</ele><time>2026-05-02T08:03:33.729Z</time></trkpt><trkpt lat="43.0115613" lon="12.246117"><ele>267.0</ele><time>2026-05-02T08:03:34.729Z</time></trkpt><trkpt lat="43.011492" lon="12.2460276"><ele>269.6666666666667</ele><time>2026-05-02T08:03:35.729Z</time></trkpt><trkpt lat="43.0114227" lon="12.2459367"><ele>272.33333333333337</ele><time>2026-05-02T08:03:36.729Z</time></trkpt><trkpt lat="43.0113594" lon="12.2458726"><ele>275.0</ele><time>2026-05-02T08:03:37.729Z</time></trkpt><trkpt lat="43.0112953" lon="12.2458078"><ele>275.0</ele><time>2026-05-02T08:03:38.729Z</time></trkpt><trkpt lat="43.0112273" lon="12.2457587"><ele>275.0</ele><time>2026-05-02T08:03:39.728Z</time></trkpt><trkpt lat="43.0111706" lon="12.2457197"><ele>275.0</ele><time>2026-05-02T08:03:40.729Z</time></trkpt><trkpt lat="43.0110582" lon="12.2456559"><ele>275.0</ele><time>2026-05-02T08:03:42.729Z</time></trkpt><trkpt lat="43.010941" lon="12.2456504"><ele>275.0</ele><time>2026-05-02T08:03:44.729Z</time></trkpt><trkpt lat="43.0108778" lon="12.2456847"><ele>275.0</ele><time>2026-05-02T08:03:45.729Z</time></trkpt><trkpt lat="43.0108049" lon="12.2457255"><ele>276.33333333333337</ele><time>2026-05-02T08:03:46.729Z</time></trkpt><trkpt lat="43.0107246" lon="12.2457687"><ele>277.6666666666667</ele><time>2026-05-02T08:03:47.729Z</time></trkpt><trkpt lat="43.010647" lon="12.2458155"><ele>279.0</ele><time>2026-05-02T08:03:48.729Z</time></trkpt><trkpt lat="43.0105679" lon="12.2458689"><ele>280.3333333333333</ele><time>2026-05-02T08:03:49.729Z</time></trkpt><trkpt lat="43.0104999" lon="12.2459234"><ele>281.66666666666663</ele><time>2026-05-02T08:03:50.729Z</time></trkpt><trkpt lat="43.0104342" lon="12.2459772"><ele>283.0</ele><time>2026-05-02T08:03:51.729Z</time></trkpt><trkpt lat="43.0103674" lon="12.2460284"><ele>283.0</ele><time>2026-05-02T08:03:52.729Z</time></trkpt><trkpt lat="43.0102521" lon="12.2461202"><ele>283.0</ele><time>2026-05-02T08:03:54.729Z</time></trkpt><trkpt lat="43.0101698" lon="12.2461052"><ele>283.0</ele><time>2026-05-02T08:03:55.729Z</time></trkpt><trkpt lat="43.0100772" lon="12.2461364"><ele>283.0</ele><time>2026-05-02T08:03:56.729Z</time></trkpt><trkpt lat="43.0099843" lon="12.2461639"><ele>283.0</ele><time>2026-05-02T08:03:57.729Z</time></trkpt><trkpt lat="43.0098949" lon="12.2461915"><ele>285.6</ele><time>2026-05-02T08:03:58.729Z</time></trkpt><trkpt lat="43.0098041" lon="12.2462331"><ele>288.20000000000005</ele><time>2026-05-02T08:03:59.729Z</time></trkpt><trkpt lat="43.0097192" lon="12.2462678"><ele>290.8</ele><time>2026-05-02T08:04:00.729Z</time></trkpt><trkpt lat="43.009626" lon="12.2462917"><ele>293.40000000000003</ele><time>2026-05-02T08:04:01.729Z</time></trkpt><trkpt lat="43.0095328" lon="12.24631"><ele>296.0</ele><time>2026-05-02T08:04:02.729Z</time></trkpt><trkpt lat="43.0094405" lon="12.2463236"><ele>296.0</ele><time>2026-05-02T08:04:03.729Z</time></trkpt><trkpt lat="43.0093559" lon="12.246302"><ele>296.0</ele><time>2026-05-02T08:04:04.729Z</time></trkpt><trkpt lat="43.0092886" lon="12.2462706"><ele>296.0</ele><time>2026-05-02T08:04:05.729Z</time></trkpt><trkpt lat="43.0092331" lon="12.2462179"><ele>296.0</ele><time>2026-05-02T08:04:06.729Z</time></trkpt><trkpt lat="43.009188" lon="12.24614"><ele>296.0</ele><time>2026-05-02T08:04:07.729Z</time></trkpt><trkpt lat="43.0091541" lon="12.2460354"><ele>296.0</ele><time>2026-05-02T08:04:08.729Z</time></trkpt><trkpt lat="43.0091234" lon="12.2459584"><ele>296.0</ele><time>2026-05-02T08:04:09.729Z</time></trkpt><trkpt lat="43.0090715" lon="12.2458993"><ele>297.0</ele><time>2026-05-02T08:04:10.729Z</time></trkpt><trkpt lat="43.0090051" lon="12.2458595"><ele>298.0</ele><time>2026-05-02T08:04:11.729Z</time></trkpt><trkpt lat="43.0089405" lon="12.2458306"><ele>299.0</ele><time>2026-05-02T08:04:12.729Z</time></trkpt><trkpt lat="43.008879" lon="12.2457827"><ele>300.0</ele><time>2026-05-02T08:04:13.729Z</time></trkpt><trkpt lat="43.0088315" lon="12.2457183"><ele>301.0</ele><time>2026-05-02T08:04:14.729Z</time></trkpt><trkpt lat="43.0087931" lon="12.2456368"><ele>302.0</ele><time>2026-05-02T08:04:15.728Z</time></trkpt><trkpt lat="43.0087564" lon="12.2455533"><ele>303.0</ele><time>2026-05-02T08:04:16.729Z</time></trkpt><trkpt lat="43.0087269" lon="12.2454597"><ele>304.4</ele><time>2026-05-02T08:04:17.729Z</time></trkpt><trkpt lat="43.0086818" lon="12.2453842"><ele>305.8</ele><time>2026-05-02T08:04:18.729Z</time></trkpt><trkpt lat="43.0086428" lon="12.2453114"><ele>307.2</ele><time>2026-05-02T08:04:19.729Z</time></trkpt><trkpt lat="43.0085763" lon="12.2451963"><ele>308.6</ele><time>2026-05-02T08:04:21.729Z</time></trkpt><trkpt lat="43.008485" lon="12.2451183"><ele>310.0</ele><time>2026-05-02T08:04:23.729Z</time></trkpt><trkpt lat="43.008367" lon="12.2451091"><ele>310.66666666666663</ele><time>2026-05-02T08:04:25.729Z</time></trkpt><trkpt lat="43.0083016" lon="12.2451064"><ele>311.3333333333333</ele><time>2026-05-02T08:04:26.729Z</time></trkpt><trkpt lat="43.0082273" lon="12.2451255"><ele>312.0</ele><time>2026-05-02T08:04:27.729Z</time></trkpt><trkpt lat="43.0081529" lon="12.2451583"><ele>312.6666666666667</ele><time>2026-05-02T08:04:28.729Z</time></trkpt><trkpt lat="43.0080768" lon="12.2451967"><ele>313.33333333333337</ele><time>2026-05-02T08:04:29.729Z</time></trkpt><trkpt lat="43.0079916" lon="12.245235"><ele>314.0</ele><time>2026-05-02T08:04:30.729Z</time></trkpt><trkpt lat="43.0078994" lon="12.2452627"><ele>314.0</ele><time>2026-05-02T08:04:31.728Z</time></trkpt><trkpt lat="43.0077986" lon="12.2452797"><ele>314.0</ele><time>2026-05-02T08:04:32.729Z</time></trkpt><trkpt lat="43.0076997" lon="12.2452878"><ele>314.0</ele><time>2026-05-02T08:04:33.729Z</time></trkpt><trkpt lat="43.0076059" lon="12.245284"><ele>314.0</ele><time>2026-05-02T08:04:34.729Z</time></trkpt><trkpt lat="43.0075003" lon="12.2452781"><ele>314.0</ele><time>2026-05-02T08:04:35.729Z</time></trkpt><trkpt lat="43.0073955" lon="12.2452732"><ele>313.59999999999997</ele><time>2026-05-02T08:04:36.729Z</time></trkpt><trkpt lat="43.0072904" lon="12.2452635"><ele>313.2</ele><time>2026-05-02T08:04:37.729Z</time></trkpt><trkpt lat="43.0071869" lon="12.2452562"><ele>312.79999999999995</ele><time>2026-05-02T08:04:38.729Z</time></trkpt><trkpt lat="43.0070969" lon="12.2452733"><ele>312.4</ele><time>2026-05-02T08:04:39.729Z</time></trkpt><trkpt lat="43.0070032" lon="12.2452897"><ele>312.0</ele><time>2026-05-02T08:04:40.729Z</time></trkpt><trkpt lat="43.0069018" lon="12.245312"><ele>312.0</ele><time>2026-05-02T08:04:41.729Z</time></trkpt><trkpt lat="43.0068021" lon="12.2453336"><ele>312.0</ele><time>2026-05-02T08:04:42.729Z</time></trkpt><trkpt lat="43.0066659" lon="12.2453122"><ele>312.0</ele><time>2026-05-02T08:04:43.729Z</time></trkpt><trkpt lat="43.0065617" lon="12.2453114"><ele>312.0</ele><time>2026-05-02T08:04:44.729Z</time></trkpt><trkpt lat="43.0064582" lon="12.2453128"><ele>312.0</ele><time>2026-05-02T08:04:45.729Z</time></trkpt><trkpt lat="43.0063793" lon="12.245336"><ele>312.8</ele><time>2026-05-02T08:04:46.729Z</time></trkpt><trkpt lat="43.006286" lon="12.2453797"><ele>313.6</ele><time>2026-05-02T08:04:47.729Z</time></trkpt><trkpt lat="43.0061914" lon="12.2454267"><ele>314.40000000000003</ele><time>2026-05-02T08:04:48.729Z</time></trkpt><trkpt lat="43.0061079" lon="12.2454757"><ele>315.2</ele><time>2026-05-02T08:04:49.729Z</time></trkpt><trkpt lat="43.0060273" lon="12.2455088"><ele>316.0</ele><time>2026-05-02T08:04:50.729Z</time></trkpt><trkpt lat="43.0059416" lon="12.2455395"><ele>316.0</ele><time>2026-05-02T08:04:51.729Z</time></trkpt><trkpt lat="43.005859" lon="12.2455704"><ele>316.0</ele><time>2026-05-02T08:04:52.729Z</time></trkpt><trkpt lat="43.0057698" lon="12.2455888"><ele>316.0</ele><time>2026-05-02T08:04:53.729Z</time></trkpt><trkpt lat="43.0056824" lon="12.2456098"><ele>316.0</ele><time>2026-05-02T08:04:54.729Z</time></trkpt><trkpt lat="43.0055944" lon="12.2456317"><ele>316.0</ele><time>2026-05-02T08:04:55.729Z</time></trkpt><trkpt lat="43.005502" lon="12.2456525"><ele>316.0</ele><time>2026-05-02T08:04:56.729Z</time></trkpt><trkpt lat="43.0054142" lon="12.2456771"><ele>315.66666666666663</ele><time>2026-05-02T08:04:57.729Z</time></trkpt><trkpt lat="43.0053323" lon="12.2457046"><ele>315.3333333333333</ele><time>2026-05-02T08:04:58.729Z</time></trkpt><trkpt lat="43.0052544" lon="12.2457283"><ele>315.0</ele><time>2026-05-02T08:04:59.729Z</time></trkpt><trkpt lat="43.0051723" lon="12.2457548"><ele>314.6666666666667</ele><time>2026-05-02T08:05:00.729Z</time></trkpt><trkpt lat="43.0050922" lon="12.2457815"><ele>314.33333333333337</ele><time>2026-05-02T08:05:01.729Z</time></trkpt><trkpt lat="43.0050009" lon="12.2458205"><ele>314.0</ele><time>2026-05-02T08:05:02.729Z</time></trkpt><trkpt lat="43.0049076" lon="12.2458587"><ele>313.2</ele><time>2026-05-02T08:05:03.729Z</time></trkpt><trkpt lat="43.0048036" lon="12.245894"><ele>312.4</ele><time>2026-05-02T08:05:04.729Z</time></trkpt><trkpt lat="43.0047003" lon="12.2459233"><ele>311.6</ele><time>2026-05-02T08:05:05.729Z</time></trkpt><trkpt lat="43.0046071" lon="12.245952"><ele>310.8</ele><time>2026-05-02T08:05:06.729Z</time></trkpt><trkpt lat="43.0045135" lon="12.2459844"><ele>310.0</ele><time>2026-05-02T08:05:07.729Z</time></trkpt><trkpt lat="43.0044225" lon="12.2460157"><ele>310.0</ele><time>2026-05-02T08:05:08.729Z</time></trkpt><trkpt lat="43.0043444" lon="12.2460537"><ele>310.0</ele><time>2026-05-02T08:05:09.729Z</time></trkpt><trkpt lat="43.0042651" lon="12.2460874"><ele>310.0</ele><time>2026-05-02T08:05:10.729Z</time></trkpt><trkpt lat="43.0041844" lon="12.2461232"><ele>310.0</ele><time>2026-05-02T08:05:11.729Z</time></trkpt><trkpt lat="43.00409" lon="12.246134"><ele>310.0</ele><time>2026-05-02T08:05:12.729Z</time></trkpt><trkpt lat="43.0039787" lon="12.2461423"><ele>311.6</ele><time>2026-05-02T08:05:13.729Z</time></trkpt><trkpt lat="43.0038582" lon="12.2461539"><ele>313.2</ele><time>2026-05-02T08:05:14.729Z</time></trkpt><trkpt lat="43.0037437" lon="12.2461735"><ele>314.8</ele><time>2026-05-02T08:05:15.729Z</time></trkpt><trkpt lat="43.0036381" lon="12.246201"><ele>316.4</ele><time>2026-05-02T08:05:16.729Z</time></trkpt><trkpt lat="43.0035366" lon="12.2462272"><ele>318.0</ele><time>2026-05-02T08:05:17.729Z</time></trkpt><trkpt lat="43.003427" lon="12.2462328"><ele>318.2</ele><time>2026-05-02T08:05:18.729Z</time></trkpt><trkpt lat="43.0033219" lon="12.2462109"><ele>318.4</ele><time>2026-05-02T08:05:19.729Z</time></trkpt><trkpt lat="43.0032316" lon="12.2461806"><ele>318.59999999999997</ele><time>2026-05-02T08:05:20.729Z</time></trkpt><trkpt lat="43.0031448" lon="12.2461486"><ele>318.8</ele><time>2026-05-02T08:05:21.729Z</time></trkpt><trkpt lat="43.0030641" lon="12.2461223"><ele>319.0</ele><time>2026-05-02T08:05:22.729Z</time></trkpt><trkpt lat="43.0029754" lon="12.2460851"><ele>319.0</ele><time>2026-05-02T08:05:23.729Z</time></trkpt><trkpt lat="43.0028829" lon="12.2460412"><ele>319.0</ele><time>2026-05-02T08:05:24.729Z</time></trkpt><trkpt lat="43.0027859" lon="12.2459973"><ele>319.0</ele><time>2026-05-02T08:05:25.729Z</time></trkpt><trkpt lat="43.0026978" lon="12.2459686"><ele>319.0</ele><time>2026-05-02T08:05:26.729Z</time></trkpt><trkpt lat="43.0026078" lon="12.2459512"><ele>319.0</ele><time>2026-05-02T08:05:27.729Z</time></trkpt><trkpt lat="43.0025131" lon="12.2459379"><ele>320.16666666666663</ele><time>2026-05-02T08:05:28.729Z</time></trkpt><trkpt lat="43.0024184" lon="12.2459475"><ele>321.3333333333333</ele><time>2026-05-02T08:05:29.729Z</time></trkpt><trkpt lat="43.0023313" lon="12.2459741"><ele>322.5</ele><time>2026-05-02T08:05:30.729Z</time></trkpt><trkpt lat="43.0022441" lon="12.2459992"><ele>323.6666666666667</ele><time>2026-05-02T08:05:31.729Z</time></trkpt><trkpt lat="43.0021699" lon="12.2460549"><ele>324.83333333333337</ele><time>2026-05-02T08:05:32.729Z</time></trkpt><trkpt lat="43.0020933" lon="12.2461148"><ele>326.0</ele><time>2026-05-02T08:05:33.729Z</time></trkpt><trkpt lat="43.0020167" lon="12.2461865"><ele>326.0</ele><time>2026-05-02T08:05:34.729Z</time></trkpt><trkpt lat="43.0019377" lon="12.2462586"><ele>326.0</ele><time>2026-05-02T08:05:35.729Z</time></trkpt><trkpt lat="43.0018668" lon="12.2463088"><ele>326.0</ele><time>2026-05-02T08:05:36.729Z</time></trkpt><trkpt lat="43.0017798" lon="12.246362"><ele>326.0</ele><time>2026-05-02T08:05:37.729Z</time></trkpt><trkpt lat="43.0016812" lon="12.2464067"><ele>326.0</ele><time>2026-05-02T08:05:38.729Z</time></trkpt><trkpt lat="43.0015779" lon="12.246449"><ele>325.20000000000005</ele><time>2026-05-02T08:05:39.729Z</time></trkpt><trkpt lat="43.0014713" lon="12.246491"><ele>324.40000000000003</ele><time>2026-05-02T08:05:40.729Z</time></trkpt><trkpt lat="43.0013631" lon="12.2465348"><ele>323.6</ele><time>2026-05-02T08:05:41.729Z</time></trkpt><trkpt lat="43.0012634" lon="12.2465753"><ele>322.8</ele><time>2026-05-02T08:05:42.729Z</time></trkpt><trkpt lat="43.0011646" lon="12.2466014"><ele>322.0</ele><time>2026-05-02T08:05:43.729Z</time></trkpt><trkpt lat="43.0010631" lon="12.2466181"><ele>322.0</ele><time>2026-05-02T08:05:44.729Z</time></trkpt><trkpt lat="43.0009482" lon="12.246639"><ele>322.0</ele><time>2026-05-02T08:05:45.729Z</time></trkpt><trkpt lat="43.0008253" lon="12.2466581"><ele>322.0</ele><time>2026-05-02T08:05:46.729Z</time></trkpt><trkpt lat="43.0006863" lon="12.2466882"><ele>322.0</ele><time>2026-05-02T08:05:47.729Z</time></trkpt><trkpt lat="43.0005484" lon="12.246715"><ele>322.0</ele><time>2026-05-02T08:05:48.729Z</time></trkpt><trkpt lat="43.0004494" lon="12.2467346"><ele>322.0</ele><time>2026-05-02T08:05:49.729Z</time></trkpt><trkpt lat="43.0003425" lon="12.2467502"><ele>322.0</ele><time>2026-05-02T08:05:50.729Z</time></trkpt><trkpt lat="43.0002714" lon="12.2467151"><ele>322.0</ele><time>2026-05-02T08:05:51.729Z</time></trkpt><trkpt lat="43.0001739" lon="12.2466582"><ele>322.0</ele><time>2026-05-02T08:05:52.729Z</time></trkpt><trkpt lat="43.00008" lon="12.2466057"><ele>322.0</ele><time>2026-05-02T08:05:53.729Z</time></trkpt><trkpt lat="42.9999911" lon="12.2465644"><ele>322.0</ele><time>2026-05-02T08:05:54.728Z</time></trkpt><trkpt lat="42.999903" lon="12.24653"><ele>322.0</ele><time>2026-05-02T08:05:55.729Z</time></trkpt><trkpt lat="42.9998267" lon="12.2464895"><ele>322.0</ele><time>2026-05-02T08:05:56.729Z</time></trkpt><trkpt lat="42.9997607" lon="12.2464373"><ele>322.0</ele><time>2026-05-02T08:05:57.729Z</time></trkpt><trkpt lat="42.9997033" lon="12.2463625"><ele>322.0</ele><time>2026-05-02T08:05:58.729Z</time></trkpt><trkpt lat="42.9996538" lon="12.2462745"><ele>321.16666666666663</ele><time>2026-05-02T08:05:59.729Z</time></trkpt><trkpt lat="42.9996061" lon="12.2462136"><ele>320.3333333333333</ele><time>2026-05-02T08:06:00.729Z</time></trkpt><trkpt lat="42.9995474" lon="12.2461583"><ele>319.5</ele><time>2026-05-02T08:06:01.729Z</time></trkpt><trkpt lat="42.9994868" lon="12.2461214"><ele>318.6666666666667</ele><time>2026-05-02T08:06:02.729Z</time></trkpt><trkpt lat="42.9993775" lon="12.2461121"><ele>317.83333333333337</ele><time>2026-05-02T08:06:04.729Z</time></trkpt><trkpt lat="42.9992585" lon="12.2461495"><ele>317.0</ele><time>2026-05-02T08:06:06.729Z</time></trkpt><trkpt lat="42.9991843" lon="12.2461759"><ele>319.4</ele><time>2026-05-02T08:06:07.729Z</time></trkpt><trkpt lat="42.9990891" lon="12.2461935"><ele>321.79999999999995</ele><time>2026-05-02T08:06:08.729Z</time></trkpt><trkpt lat="42.9989947" lon="12.246212"><ele>324.2</ele><time>2026-05-02T08:06:09.729Z</time></trkpt><trkpt lat="42.9988606" lon="12.2462242"><ele>326.59999999999997</ele><time>2026-05-02T08:06:10.729Z</time></trkpt><trkpt lat="42.9987392" lon="12.246231"><ele>329.0</ele><time>2026-05-02T08:06:11.729Z</time></trkpt><trkpt lat="42.9986148" lon="12.2462403"><ele>329.0</ele><time>2026-05-02T08:06:12.729Z</time></trkpt><trkpt lat="42.9984841" lon="12.2462486"><ele>329.0</ele><time>2026-05-02T08:06:13.729Z</time></trkpt><trkpt lat="42.9983639" lon="12.2462698"><ele>329.0</ele><time>2026-05-02T08:06:14.729Z</time></trkpt><trkpt lat="42.9982576" lon="12.2462964"><ele>329.0</ele><time>2026-05-02T08:06:15.729Z</time></trkpt><trkpt lat="42.9981555" lon="12.2463159"><ele>329.0</ele><time>2026-05-02T08:06:16.729Z</time></trkpt><trkpt lat="42.9980473" lon="12.2463184"><ele>329.0</ele><time>2026-05-02T08:06:17.729Z</time></trkpt><trkpt lat="42.9979222" lon="12.2462969"><ele>329.0</ele><time>2026-05-02T08:06:18.729Z</time></trkpt><trkpt lat="42.9977913" lon="12.2462739"><ele>329.0</ele><time>2026-05-02T08:06:19.729Z</time></trkpt><trkpt lat="42.9976563" lon="12.2462535"><ele>329.0</ele><time>2026-05-02T08:06:20.729Z</time></trkpt><trkpt lat="42.997524" lon="12.2462306"><ele>329.0</ele><time>2026-05-02T08:06:21.729Z</time></trkpt><trkpt lat="42.997425" lon="12.2462061"><ele>329.0</ele><time>2026-05-02T08:06:22.729Z</time></trkpt><trkpt lat="42.9973343" lon="12.2461718"><ele>329.0</ele><time>2026-05-02T08:06:23.729Z</time></trkpt><trkpt lat="42.9972552" lon="12.2461318"><ele>329.0</ele><time>2026-05-02T08:06:24.729Z</time></trkpt><trkpt lat="42.9971629" lon="12.2460834"><ele>330.2</ele><time>2026-05-02T08:06:25.729Z</time></trkpt><trkpt lat="42.9970742" lon="12.2460249"><ele>331.4</ele><time>2026-05-02T08:06:26.729Z</time></trkpt><trkpt lat="42.9969803" lon="12.2459709"><ele>332.6</ele><time>2026-05-02T08:06:27.729Z</time></trkpt><trkpt lat="42.9968836" lon="12.2459021"><ele>333.8</ele><time>2026-05-02T08:06:28.729Z</time></trkpt><trkpt lat="42.9967911" lon="12.2458254"><ele>335.0</ele><time>2026-05-02T08:06:29.729Z</time></trkpt><trkpt lat="42.9967002" lon="12.2457405"><ele>336.0</ele><time>2026-05-02T08:06:30.729Z</time></trkpt><trkpt lat="42.9966121" lon="12.2456453"><ele>337.0</ele><time>2026-05-02T08:06:31.729Z</time></trkpt><trkpt lat="42.9965264" lon="12.2455571"><ele>338.0</ele><time>2026-05-02T08:06:32.729Z</time></trkpt><trkpt lat="42.996439" lon="12.2454654"><ele>339.0</ele><time>2026-05-02T08:06:33.729Z</time></trkpt><trkpt lat="42.9963547" lon="12.2453847"><ele>340.0</ele><time>2026-05-02T08:06:34.729Z</time></trkpt><trkpt lat="42.9962544" lon="12.2452822"><ele>337.4</ele><time>2026-05-02T08:06:35.729Z</time></trkpt><trkpt lat="42.9961816" lon="12.2451886"><ele>334.8</ele><time>2026-05-02T08:06:36.729Z</time></trkpt><trkpt lat="42.9961106" lon="12.2450949"><ele>332.20000000000005</ele><time>2026-05-02T08:06:37.729Z</time></trkpt><trkpt lat="42.9960403" lon="12.2450014"><ele>329.6</ele><time>2026-05-02T08:06:38.729Z</time></trkpt><trkpt lat="42.9959635" lon="12.2449207"><ele>327.0</ele><time>2026-05-02T08:06:39.729Z</time></trkpt><trkpt lat="42.9958736" lon="12.2448388"><ele>327.75</ele><time>2026-05-02T08:06:40.729Z</time></trkpt><trkpt lat="42.9957871" lon="12.2447623"><ele>328.5</ele><time>2026-05-02T08:06:41.729Z</time></trkpt><trkpt lat="42.9956544" lon="12.2447107"><ele>329.25</ele><time>2026-05-02T08:06:42.729Z</time></trkpt><trkpt lat="42.9955541" lon="12.2446362"><ele>330.0</ele><time>2026-05-02T08:06:43.729Z</time></trkpt><trkpt lat="42.9954534" lon="12.2445706"><ele>330.0</ele><time>2026-05-02T08:06:44.729Z</time></trkpt><trkpt lat="42.9953537" lon="12.2445098"><ele>330.0</ele><time>2026-05-02T08:06:45.729Z</time></trkpt><trkpt lat="42.9952557" lon="12.2444493"><ele>330.0</ele><time>2026-05-02T08:06:46.729Z</time></trkpt><trkpt lat="42.9951509" lon="12.2444051"><ele>330.0</ele><time>2026-05-02T08:06:47.729Z</time></trkpt><trkpt lat="42.9950468" lon="12.2443748"><ele>330.0</ele><time>2026-05-02T08:06:48.729Z</time></trkpt><trkpt lat="42.9949537" lon="12.244352"><ele>332.0</ele><time>2026-05-02T08:06:49.729Z</time></trkpt><trkpt lat="42.9948645" lon="12.2443226"><ele>334.0</ele><time>2026-05-02T08:06:50.729Z</time></trkpt><trkpt lat="42.99478" lon="12.2442963"><ele>336.0</ele><time>2026-05-02T08:06:51.729Z</time></trkpt><trkpt lat="42.9946897" lon="12.2443325"><ele>338.0</ele><time>2026-05-02T08:06:52.729Z</time></trkpt><trkpt lat="42.994588" lon="12.2443666"><ele>340.0</ele><time>2026-05-02T08:06:53.729Z</time></trkpt><trkpt lat="42.9944775" lon="12.2443693"><ele>340.0</ele><time>2026-05-02T08:06:54.729Z</time></trkpt><trkpt lat="42.994378" lon="12.2443759"><ele>340.0</ele><time>2026-05-02T08:06:55.729Z</time></trkpt><trkpt lat="42.9942843" lon="12.2443835"><ele>340.0</ele><time>2026-05-02T08:06:56.729Z</time></trkpt><trkpt lat="42.9942" lon="12.2443846"><ele>340.0</ele><time>2026-05-02T08:06:57.729Z</time></trkpt><trkpt lat="42.99412" lon="12.2443653"><ele>340.0</ele><time>2026-05-02T08:06:58.729Z</time></trkpt><trkpt lat="42.9940505" lon="12.2443275"><ele>340.0</ele><time>2026-05-02T08:06:59.729Z</time></trkpt><trkpt lat="42.9939921" lon="12.2442561"><ele>339.6</ele><time>2026-05-02T08:07:00.729Z</time></trkpt><trkpt lat="42.9939182" lon="12.2442132"><ele>339.2</ele><time>2026-05-02T08:07:01.729Z</time></trkpt><trkpt lat="42.993826" lon="12.2441873"><ele>338.79999999999995</ele><time>2026-05-02T08:07:02.729Z</time></trkpt><trkpt lat="42.9937157" lon="12.2441712"><ele>338.4</ele><time>2026-05-02T08:07:03.729Z</time></trkpt><trkpt lat="42.9936053" lon="12.2441538"><ele>338.0</ele><time>2026-05-02T08:07:04.729Z</time></trkpt><trkpt lat="42.9934971" lon="12.2441404"><ele>338.0</ele><time>2026-05-02T08:07:05.729Z</time></trkpt><trkpt lat="42.9934171" lon="12.2441118"><ele>338.0</ele><time>2026-05-02T08:07:06.729Z</time></trkpt><trkpt lat="42.9933367" lon="12.244086"><ele>338.0</ele><time>2026-05-02T08:07:07.729Z</time></trkpt><trkpt lat="42.9932638" lon="12.2440407"><ele>338.0</ele><time>2026-05-02T08:07:08.729Z</time></trkpt><trkpt lat="42.9931922" lon="12.2439918"><ele>338.0</ele><time>2026-05-02T08:07:09.729Z</time></trkpt><trkpt lat="42.9931253" lon="12.24394"><ele>338.0</ele><time>2026-05-02T08:07:10.729Z</time></trkpt><trkpt lat="42.9930531" lon="12.243888"><ele>336.1666666666667</ele><time>2026-05-02T08:07:11.729Z</time></trkpt><trkpt lat="42.9929708" lon="12.2438429"><ele>334.33333333333337</ele><time>2026-05-02T08:07:12.729Z</time></trkpt><trkpt lat="42.9928911" lon="12.2437966"><ele>332.5</ele><time>2026-05-02T08:07:13.729Z</time></trkpt><trkpt lat="42.9928117" lon="12.2437739"><ele>330.6666666666667</ele><time>2026-05-02T08:07:14.729Z</time></trkpt><trkpt lat="42.9927431" lon="12.2437533"><ele>328.8333333333333</ele><time>2026-05-02T08:07:15.729Z</time></trkpt><trkpt lat="42.9926805" lon="12.2437403"><ele>327.0</ele><time>2026-05-02T08:07:16.729Z</time></trkpt><trkpt lat="42.992614" lon="12.2437139"><ele>327.0</ele><time>2026-05-02T08:07:17.729Z</time></trkpt><trkpt lat="42.992526" lon="12.2436784"><ele>327.0</ele><time>2026-05-02T08:07:18.729Z</time></trkpt><trkpt lat="42.9924334" lon="12.2436342"><ele>327.0</ele><time>2026-05-02T08:07:19.729Z</time></trkpt><trkpt lat="42.9923396" lon="12.2435861"><ele>327.0</ele><time>2026-05-02T08:07:20.729Z</time></trkpt><trkpt lat="42.9922427" lon="12.2435341"><ele>327.0</ele><time>2026-05-02T08:07:21.729Z</time></trkpt><trkpt lat="42.9921512" lon="12.2434832"><ele>326.8</ele><time>2026-05-02T08:07:22.728Z</time></trkpt><trkpt lat="42.9920685" lon="12.2434372"><ele>326.6</ele><time>2026-05-02T08:07:23.729Z</time></trkpt><trkpt lat="42.9919862" lon="12.2433917"><ele>326.40000000000003</ele><time>2026-05-02T08:07:24.729Z</time></trkpt><trkpt lat="42.9919015" lon="12.2433476"><ele>326.20000000000005</ele><time>2026-05-02T08:07:25.729Z</time></trkpt><trkpt lat="42.9918091" lon="12.243304"><ele>326.0</ele><time>2026-05-02T08:07:26.729Z</time></trkpt><trkpt lat="42.9916978" lon="12.2432628"><ele>325.0</ele><time>2026-05-02T08:07:27.729Z</time></trkpt><trkpt lat="42.9915964" lon="12.2432201"><ele>324.0</ele><time>2026-05-02T08:07:28.729Z</time></trkpt><trkpt lat="42.9915093" lon="12.2431819"><ele>323.0</ele><time>2026-05-02T08:07:29.729Z</time></trkpt><trkpt lat="42.9914238" lon="12.24314"><ele>322.0</ele><time>2026-05-02T08:07:30.729Z</time></trkpt><trkpt lat="42.9913454" lon="12.2430989"><ele>321.0</ele><time>2026-05-02T08:07:31.729Z</time></trkpt><trkpt lat="42.9912653" lon="12.2430593"><ele>320.8</ele><time>2026-05-02T08:07:32.729Z</time></trkpt><trkpt lat="42.99116" lon="12.2429831"><ele>320.6</ele><time>2026-05-02T08:07:34.729Z</time></trkpt><trkpt lat="42.991088" lon="12.2429802"><ele>320.4</ele><time>2026-05-02T08:07:35.729Z</time></trkpt><trkpt lat="42.9910097" lon="12.2429716"><ele>320.2</ele><time>2026-05-02T08:07:36.729Z</time></trkpt><trkpt lat="42.9909198" lon="12.242966"><ele>320.0</ele><time>2026-05-02T08:07:37.729Z</time></trkpt><trkpt lat="42.9908278" lon="12.2429406"><ele>320.0</ele><time>2026-05-02T08:07:38.729Z</time></trkpt><trkpt lat="42.9907356" lon="12.242912"><ele>320.0</ele><time>2026-05-02T08:07:39.729Z</time></trkpt><trkpt lat="42.9906542" lon="12.2428824"><ele>320.0</ele><time>2026-05-02T08:07:40.729Z</time></trkpt><trkpt lat="42.9905782" lon="12.2428545"><ele>320.0</ele><time>2026-05-02T08:07:41.729Z</time></trkpt><trkpt lat="42.9905051" lon="12.2428152"><ele>320.0</ele><time>2026-05-02T08:07:42.729Z</time></trkpt><trkpt lat="42.9904456" lon="12.2427518"><ele>320.0</ele><time>2026-05-02T08:07:43.729Z</time></trkpt><trkpt lat="42.9903882" lon="12.2426633"><ele>320.0</ele><time>2026-05-02T08:07:44.729Z</time></trkpt><trkpt lat="42.9903208" lon="12.2425607"><ele>320.0</ele><time>2026-05-02T08:07:45.729Z</time></trkpt><trkpt lat="42.9902564" lon="12.2424746"><ele>320.0</ele><time>2026-05-02T08:07:46.729Z</time></trkpt><trkpt lat="42.9901947" lon="12.2423894"><ele>320.0</ele><time>2026-05-02T08:07:47.729Z</time></trkpt><trkpt lat="42.9901342" lon="12.2423113"><ele>320.0</ele><time>2026-05-02T08:07:48.729Z</time></trkpt><trkpt lat="42.9900752" lon="12.2422447"><ele>320.0</ele><time>2026-05-02T08:07:49.729Z</time></trkpt><trkpt lat="42.9900171" lon="12.2421749"><ele>320.8</ele><time>2026-05-02T08:07:50.729Z</time></trkpt><trkpt lat="42.9899038" lon="12.2422268"><ele>321.6</ele><time>2026-05-02T08:07:52.729Z</time></trkpt><trkpt lat="42.9898416" lon="12.2422967"><ele>322.4</ele><time>2026-05-02T08:07:53.729Z</time></trkpt><trkpt lat="42.9897627" lon="12.2423946"><ele>323.2</ele><time>2026-05-02T08:07:54.729Z</time></trkpt><trkpt lat="42.9896824" lon="12.2424865"><ele>324.0</ele><time>2026-05-02T08:07:55.729Z</time></trkpt><trkpt lat="42.9896027" lon="12.2425764"><ele>324.0</ele><time>2026-05-02T08:07:56.729Z</time></trkpt><trkpt lat="42.9895306" lon="12.24265"><ele>324.0</ele><time>2026-05-02T08:07:57.729Z</time></trkpt><trkpt lat="42.989457" lon="12.2427085"><ele>324.0</ele><time>2026-05-02T08:07:58.729Z</time></trkpt><trkpt lat="42.989378" lon="12.2427652"><ele>324.0</ele><time>2026-05-02T08:07:59.729Z</time></trkpt><trkpt lat="42.9892935" lon="12.2427785"><ele>324.0</ele><time>2026-05-02T08:08:00.729Z</time></trkpt><trkpt lat="42.989214" lon="12.2427984"><ele>324.0</ele><time>2026-05-02T08:08:01.729Z</time></trkpt><trkpt lat="42.9891203" lon="12.242816"><ele>322.8333333333333</ele><time>2026-05-02T08:08:02.729Z</time></trkpt><trkpt lat="42.9890235" lon="12.2428318"><ele>321.6666666666667</ele><time>2026-05-02T08:08:03.729Z</time></trkpt><trkpt lat="42.9889387" lon="12.2428533"><ele>320.5</ele><time>2026-05-02T08:08:04.729Z</time></trkpt><trkpt lat="42.9888683" lon="12.2428565"><ele>319.33333333333337</ele><time>2026-05-02T08:08:05.729Z</time></trkpt><trkpt lat="42.9887717" lon="12.2428309"><ele>318.1666666666667</ele><time>2026-05-02T08:08:07.729Z</time></trkpt><trkpt lat="42.9887052" lon="12.2427445"><ele>317.0</ele><time>2026-05-02T08:08:09.729Z</time></trkpt><trkpt lat="42.9886867" lon="12.2426041"><ele>317.0</ele><time>2026-05-02T08:08:11.729Z</time></trkpt><trkpt lat="42.9887088" lon="12.2425007"><ele>317.0</ele><time>2026-05-02T08:08:12.729Z</time></trkpt><trkpt lat="42.9887266" lon="12.2424039"><ele>317.0</ele><time>2026-05-02T08:08:13.729Z</time></trkpt><trkpt lat="42.9887253" lon="12.2422556"><ele>317.0</ele><time>2026-05-02T08:08:15.729Z</time></trkpt><trkpt lat="42.9886912" lon="12.2421414"><ele>317.0</ele><time>2026-05-02T08:08:17.729Z</time></trkpt><trkpt lat="42.9886221" lon="12.2421104"><ele>317.0</ele><time>2026-05-02T08:08:18.729Z</time></trkpt><trkpt lat="42.9885501" lon="12.2420787"><ele>318.0</ele><time>2026-05-02T08:08:19.729Z</time></trkpt><trkpt lat="42.9884664" lon="12.2420523"><ele>319.0</ele><time>2026-05-02T08:08:20.729Z</time></trkpt><trkpt lat="42.9883855" lon="12.2420216"><ele>320.0</ele><time>2026-05-02T08:08:21.729Z</time></trkpt><trkpt lat="42.9883009" lon="12.2419796"><ele>321.0</ele><time>2026-05-02T08:08:22.729Z</time></trkpt><trkpt lat="42.9882223" lon="12.24194"><ele>322.0</ele><time>2026-05-02T08:08:23.729Z</time></trkpt><trkpt lat="42.9881593" lon="12.2419176"><ele>323.0</ele><time>2026-05-02T08:08:24.729Z</time></trkpt><trkpt lat="42.9880362" lon="12.2419016"><ele>323.0</ele><time>2026-05-02T08:08:26.729Z</time></trkpt><trkpt lat="42.9879666" lon="12.2419466"><ele>323.0</ele><time>2026-05-02T08:08:27.729Z</time></trkpt><trkpt lat="42.9878955" lon="12.2419798"><ele>323.0</ele><time>2026-05-02T08:08:28.729Z</time></trkpt><trkpt lat="42.9878179" lon="12.2420085"><ele>323.0</ele><time>2026-05-02T08:08:29.729Z</time></trkpt><trkpt lat="42.9877343" lon="12.2420323"><ele>323.0</ele><time>2026-05-02T08:08:30.729Z</time></trkpt><trkpt lat="42.987651" lon="12.2420567"><ele>323.0</ele><time>2026-05-02T08:08:31.729Z</time></trkpt><trkpt lat="42.9875684" lon="12.2420795"><ele>324.1666666666667</ele><time>2026-05-02T08:08:32.729Z</time></trkpt><trkpt lat="42.9874895" lon="12.2421215"><ele>325.33333333333337</ele><time>2026-05-02T08:08:33.729Z</time></trkpt><trkpt lat="42.9874078" lon="12.2421574"><ele>326.5</ele><time>2026-05-02T08:08:34.729Z</time></trkpt><trkpt lat="42.9873311" lon="12.2422108"><ele>327.6666666666667</ele><time>2026-05-02T08:08:35.729Z</time></trkpt><trkpt lat="42.9872534" lon="12.2422657"><ele>328.8333333333333</ele><time>2026-05-02T08:08:36.729Z</time></trkpt><trkpt lat="42.9871692" lon="12.2423162"><ele>330.0</ele><time>2026-05-02T08:08:37.729Z</time></trkpt><trkpt lat="42.9870923" lon="12.2423729"><ele>331.3333333333333</ele><time>2026-05-02T08:08:38.729Z</time></trkpt><trkpt lat="42.9870204" lon="12.2424306"><ele>332.6666666666667</ele><time>2026-05-02T08:08:39.729Z</time></trkpt><trkpt lat="42.9869403" lon="12.2424647"><ele>334.0</ele><time>2026-05-02T08:08:40.729Z</time></trkpt><trkpt lat="42.9868516" lon="12.2424845"><ele>335.33333333333337</ele><time>2026-05-02T08:08:41.729Z</time></trkpt><trkpt lat="42.986757" lon="12.2424809"><ele>336.6666666666667</ele><time>2026-05-02T08:08:42.729Z</time></trkpt><trkpt lat="42.9866669" lon="12.2424593"><ele>338.0</ele><time>2026-05-02T08:08:43.729Z</time></trkpt><trkpt lat="42.986583" lon="12.2424371"><ele>339.1666666666667</ele><time>2026-05-02T08:08:44.729Z</time></trkpt><trkpt lat="42.986502" lon="12.2424178"><ele>340.33333333333337</ele><time>2026-05-02T08:08:45.729Z</time></trkpt><trkpt lat="42.986422" lon="12.2423967"><ele>341.5</ele><time>2026-05-02T08:08:46.729Z</time></trkpt><trkpt lat="42.9863533" lon="12.2423621"><ele>342.6666666666667</ele><time>2026-05-02T08:08:47.729Z</time></trkpt><trkpt lat="42.9862776" lon="12.2423341"><ele>343.8333333333333</ele><time>2026-05-02T08:08:48.729Z</time></trkpt><trkpt lat="42.9861982" lon="12.2422943"><ele>345.0</ele><time>2026-05-02T08:08:49.729Z</time></trkpt><trkpt lat="42.9861262" lon="12.242262"><ele>345.0</ele><time>2026-05-02T08:08:50.729Z</time></trkpt><trkpt lat="42.9860512" lon="12.2422303"><ele>345.0</ele><time>2026-05-02T08:08:51.729Z</time></trkpt><trkpt lat="42.9859725" lon="12.2422057"><ele>345.0</ele><time>2026-05-02T08:08:52.729Z</time></trkpt><trkpt lat="42.9858928" lon="12.2421743"><ele>345.0</ele><time>2026-05-02T08:08:53.729Z</time></trkpt><trkpt lat="42.985811" lon="12.2421464"><ele>345.0</ele><time>2026-05-02T08:08:54.729Z</time></trkpt><trkpt lat="42.9857317" lon="12.242102"><ele>345.0</ele><time>2026-05-02T08:08:55.729Z</time></trkpt><trkpt lat="42.9856448" lon="12.2420575"><ele>347.8333333333333</ele><time>2026-05-02T08:08:56.729Z</time></trkpt><trkpt lat="42.9855614" lon="12.242015"><ele>350.6666666666667</ele><time>2026-05-02T08:08:57.729Z</time></trkpt><trkpt lat="42.9854784" lon="12.2419638"><ele>353.5</ele><time>2026-05-02T08:08:58.729Z</time></trkpt><trkpt lat="42.9854028" lon="12.2419094"><ele>356.33333333333337</ele><time>2026-05-02T08:08:59.729Z</time></trkpt><trkpt lat="42.9853304" lon="12.2418605"><ele>359.1666666666667</ele><time>2026-05-02T08:09:00.729Z</time></trkpt><trkpt lat="42.9852504" lon="12.2418075"><ele>362.0</ele><time>2026-05-02T08:09:01.729Z</time></trkpt><trkpt lat="42.9851767" lon="12.2417531"><ele>362.0</ele><time>2026-05-02T08:09:02.729Z</time></trkpt><trkpt lat="42.9851011" lon="12.2417053"><ele>362.0</ele><time>2026-05-02T08:09:03.729Z</time></trkpt><trkpt lat="42.9850284" lon="12.2416523"><ele>362.0</ele><time>2026-05-02T08:09:04.729Z</time></trkpt><trkpt lat="42.9849655" lon="12.2415945"><ele>362.0</ele><time>2026-05-02T08:09:05.729Z</time></trkpt><trkpt lat="42.9849019" lon="12.2415216"><ele>362.0</ele><time>2026-05-02T08:09:06.729Z</time></trkpt><trkpt lat="42.9848424" lon="12.2414446"><ele>362.0</ele><time>2026-05-02T08:09:07.729Z</time></trkpt><trkpt lat="42.9847646" lon="12.241377"><ele>364.5</ele><time>2026-05-02T08:09:08.729Z</time></trkpt><trkpt lat="42.9846864" lon="12.241307"><ele>367.0</ele><time>2026-05-02T08:09:09.729Z</time></trkpt><trkpt lat="42.9846033" lon="12.2412612"><ele>369.5</ele><time>2026-05-02T08:09:10.729Z</time></trkpt><trkpt lat="42.9845387" lon="12.2412246"><ele>372.0</ele><time>2026-05-02T08:09:11.729Z</time></trkpt><trkpt lat="42.984463" lon="12.2411809"><ele>374.5</ele><time>2026-05-02T08:09:12.729Z</time></trkpt><trkpt lat="42.9843891" lon="12.241142"><ele>377.0</ele><time>2026-05-02T08:09:13.729Z</time></trkpt><trkpt lat="42.9843141" lon="12.241112"><ele>377.0</ele><time>2026-05-02T08:09:14.729Z</time></trkpt><trkpt lat="42.9842437" lon="12.2410725"><ele>377.0</ele><time>2026-05-02T08:09:15.729Z</time></trkpt><trkpt lat="42.9841752" lon="12.2410182"><ele>377.0</ele><time>2026-05-02T08:09:16.729Z</time></trkpt><trkpt lat="42.9841102" lon="12.2409527"><ele>377.0</ele><time>2026-05-02T08:09:17.729Z</time></trkpt><trkpt lat="42.9840385" lon="12.2408853"><ele>377.0</ele><time>2026-05-02T08:09:18.729Z</time></trkpt><trkpt lat="42.9839694" lon="12.2408156"><ele>377.0</ele><time>2026-05-02T08:09:19.729Z</time></trkpt><trkpt lat="42.9838907" lon="12.2407187"><ele>377.8</ele><time>2026-05-02T08:09:21.729Z</time></trkpt><trkpt lat="42.9838331" lon="12.2405591"><ele>378.6</ele><time>2026-05-02T08:09:23.729Z</time></trkpt><trkpt lat="42.9838137" lon="12.2404378"><ele>379.40000000000003</ele><time>2026-05-02T08:09:25.729Z</time></trkpt><trkpt lat="42.9837948" lon="12.2403157"><ele>380.20000000000005</ele><time>2026-05-02T08:09:27.728Z</time></trkpt><trkpt lat="42.983739" lon="12.2402273"><ele>381.0</ele><time>2026-05-02T08:09:29.729Z</time></trkpt><trkpt lat="42.9836798" lon="12.2401835"><ele>381.0</ele><time>2026-05-02T08:09:31.729Z</time></trkpt><trkpt lat="42.9835912" lon="12.2401615"><ele>381.0</ele><time>2026-05-02T08:09:33.729Z</time></trkpt><trkpt lat="42.9835325" lon="12.2401288"><ele>381.0</ele><time>2026-05-02T08:09:36.729Z</time></trkpt><trkpt lat="42.983455" lon="12.2400999"><ele>381.0</ele><time>2026-05-02T08:11:26.729Z</time></trkpt><trkpt lat="42.9833704" lon="12.240082"><ele>381.0</ele><time>2026-05-02T08:11:28.729Z</time></trkpt><trkpt lat="42.98327" lon="12.2400665"><ele>381.0</ele><time>2026-05-02T08:11:30.729Z</time></trkpt><trkpt lat="42.9831461" lon="12.2400543"><ele>380.8333333333333</ele><time>2026-05-02T08:11:32.729Z</time></trkpt><trkpt lat="42.9830756" lon="12.2400563"><ele>380.6666666666667</ele><time>2026-05-02T08:11:33.728Z</time></trkpt><trkpt lat="42.9829966" lon="12.2400636"><ele>380.5</ele><time>2026-05-02T08:11:34.729Z</time></trkpt><trkpt lat="42.9829157" lon="12.2400791"><ele>380.33333333333337</ele><time>2026-05-02T08:11:35.729Z</time></trkpt><trkpt lat="42.9828227" lon="12.2400967"><ele>380.1666666666667</ele><time>2026-05-02T08:11:36.729Z</time></trkpt><trkpt lat="42.982726" lon="12.2401085"><ele>380.0</ele><time>2026-05-02T08:11:37.729Z</time></trkpt><trkpt lat="42.982627" lon="12.2401175"><ele>380.0</ele><time>2026-05-02T08:11:38.729Z</time></trkpt><trkpt lat="42.9825292" lon="12.2401152"><ele>380.0</ele><time>2026-05-02T08:11:39.729Z</time></trkpt><trkpt lat="42.982427" lon="12.2401086"><ele>380.0</ele><time>2026-05-02T08:11:40.729Z</time></trkpt><trkpt lat="42.9823302" lon="12.2400945"><ele>380.0</ele><time>2026-05-02T08:11:41.729Z</time></trkpt><trkpt lat="42.9822351" lon="12.2400857"><ele>380.0</ele><time>2026-05-02T08:11:42.729Z</time></trkpt><trkpt lat="42.9821352" lon="12.2400749"><ele>382.0</ele><time>2026-05-02T08:11:43.729Z</time></trkpt><trkpt lat="42.9820297" lon="12.2400495"><ele>384.0</ele><time>2026-05-02T08:11:44.729Z</time></trkpt><trkpt lat="42.9819215" lon="12.2400212"><ele>386.0</ele><time>2026-05-02T08:11:45.729Z</time></trkpt><trkpt lat="42.9818249" lon="12.2399748"><ele>388.0</ele><time>2026-05-02T08:11:46.729Z</time></trkpt><trkpt lat="42.9817354" lon="12.2399142"><ele>390.0</ele><time>2026-05-02T08:11:47.729Z</time></trkpt><trkpt lat="42.9816498" lon="12.2398525"><ele>393.75</ele><time>2026-05-02T08:11:48.729Z</time></trkpt><trkpt lat="42.9815732" lon="12.2397311"><ele>397.5</ele><time>2026-05-02T08:11:49.729Z</time></trkpt><trkpt lat="42.9815037" lon="12.2396129"><ele>401.25</ele><time>2026-05-02T08:11:50.729Z</time></trkpt><trkpt lat="42.9814337" lon="12.2394902"><ele>405.0</ele><time>2026-05-02T08:11:51.729Z</time></trkpt><trkpt lat="42.981364" lon="12.2393695"><ele>405.0</ele><time>2026-05-02T08:11:52.729Z</time></trkpt><trkpt lat="42.9812991" lon="12.2392588"><ele>405.0</ele><time>2026-05-02T08:11:53.729Z</time></trkpt><trkpt lat="42.981249" lon="12.2391689"><ele>405.0</ele><time>2026-05-02T08:11:54.729Z</time></trkpt><trkpt lat="42.9812207" lon="12.2390737"><ele>405.0</ele><time>2026-05-02T08:11:55.729Z</time></trkpt><trkpt lat="42.9812177" lon="12.2389719"><ele>405.0</ele><time>2026-05-02T08:11:56.729Z</time></trkpt><trkpt lat="42.9812455" lon="12.2388815"><ele>405.0</ele><time>2026-05-02T08:11:57.729Z</time></trkpt><trkpt lat="42.9812838" lon="12.2387944"><ele>405.2</ele><time>2026-05-02T08:11:58.729Z</time></trkpt><trkpt lat="42.9813419" lon="12.2387088"><ele>405.4</ele><time>2026-05-02T08:11:59.729Z</time></trkpt><trkpt lat="42.9814065" lon="12.2386212"><ele>405.6</ele><time>2026-05-02T08:12:00.729Z</time></trkpt><trkpt lat="42.9814854" lon="12.2385281"><ele>405.8</ele><time>2026-05-02T08:12:01.729Z</time></trkpt><trkpt lat="42.9815684" lon="12.2384228"><ele>406.0</ele><time>2026-05-02T08:12:02.729Z</time></trkpt><trkpt lat="42.9816415" lon="12.2383253"><ele>403.4</ele><time>2026-05-02T08:12:03.729Z</time></trkpt><trkpt lat="42.9817171" lon="12.2382246"><ele>400.8</ele><time>2026-05-02T08:12:04.729Z</time></trkpt><trkpt lat="42.9817889" lon="12.2381323"><ele>398.2</ele><time>2026-05-02T08:12:05.729Z</time></trkpt><trkpt lat="42.9818616" lon="12.2380442"><ele>395.59999999999997</ele><time>2026-05-02T08:12:06.729Z</time></trkpt><trkpt lat="42.9819341" lon="12.2379519"><ele>393.0</ele><time>2026-05-02T08:12:07.729Z</time></trkpt><trkpt lat="42.9820054" lon="12.2378419"><ele>393.0</ele><time>2026-05-02T08:12:08.729Z</time></trkpt><trkpt lat="42.9820688" lon="12.2376986"><ele>393.0</ele><time>2026-05-02T08:12:09.729Z</time></trkpt><trkpt lat="42.9821189" lon="12.2375437"><ele>393.0</ele><time>2026-05-02T08:12:10.729Z</time></trkpt><trkpt lat="42.9821802" lon="12.2374055"><ele>393.0</ele><time>2026-05-02T08:12:11.729Z</time></trkpt><trkpt lat="42.9822399" lon="12.2372641"><ele>391.75</ele><time>2026-05-02T08:12:12.729Z</time></trkpt><trkpt lat="42.9823675" lon="12.2371881"><ele>390.5</ele><time>2026-05-02T08:12:13.729Z</time></trkpt><trkpt lat="42.982488" lon="12.2371159"><ele>389.25</ele><time>2026-05-02T08:12:14.729Z</time></trkpt><trkpt lat="42.9825943" lon="12.2370389"><ele>388.0</ele><time>2026-05-02T08:12:15.729Z</time></trkpt><trkpt lat="42.9826777" lon="12.2369342"><ele>388.0</ele><time>2026-05-02T08:12:16.729Z</time></trkpt><trkpt lat="42.9827406" lon="12.2367953"><ele>388.0</ele><time>2026-05-02T08:12:17.729Z</time></trkpt><trkpt lat="42.9827853" lon="12.236648"><ele>388.0</ele><time>2026-05-02T08:12:18.729Z</time></trkpt><trkpt lat="42.9828314" lon="12.2364973"><ele>388.0</ele><time>2026-05-02T08:12:19.729Z</time></trkpt><trkpt lat="42.98279" lon="12.2363754"><ele>386.79999999999995</ele><time>2026-05-02T08:12:20.729Z</time></trkpt><trkpt lat="42.9827449" lon="12.2362477"><ele>385.6</ele><time>2026-05-02T08:12:21.729Z</time></trkpt><trkpt lat="42.9826664" lon="12.2361424"><ele>384.4</ele><time>2026-05-02T08:12:22.729Z</time></trkpt><trkpt lat="42.9826085" lon="12.2360298"><ele>383.20000000000005</ele><time>2026-05-02T08:12:23.729Z</time></trkpt><trkpt lat="42.9825718" lon="12.2358941"><ele>382.0</ele><time>2026-05-02T08:12:24.729Z</time></trkpt><trkpt lat="42.9825543" lon="12.2357466"><ele>381.20000000000005</ele><time>2026-05-02T08:12:25.729Z</time></trkpt><trkpt lat="42.982539" lon="12.2356033"><ele>380.4</ele><time>2026-05-02T08:12:26.729Z</time></trkpt><trkpt lat="42.9825354" lon="12.2354597"><ele>379.6</ele><time>2026-05-02T08:12:27.729Z</time></trkpt><trkpt lat="42.9825245" lon="12.2353148"><ele>378.79999999999995</ele><time>2026-05-02T08:12:28.729Z</time></trkpt><trkpt lat="42.9825449" lon="12.2351467"><ele>378.0</ele><time>2026-05-02T08:12:29.729Z</time></trkpt><trkpt lat="42.9825546" lon="12.2350035"><ele>378.0</ele><time>2026-05-02T08:12:30.729Z</time></trkpt><trkpt lat="42.9825707" lon="12.2348609"><ele>378.0</ele><time>2026-05-02T08:12:31.729Z</time></trkpt><trkpt lat="42.9825715" lon="12.2346962"><ele>378.0</ele><time>2026-05-02T08:12:32.729Z</time></trkpt><trkpt lat="42.9825634" lon="12.2345334"><ele>378.0</ele><time>2026-05-02T08:12:33.729Z</time></trkpt><trkpt lat="42.9825626" lon="12.2343656"><ele>379.4</ele><time>2026-05-02T08:12:34.729Z</time></trkpt><trkpt lat="42.9825646" lon="12.2342006"><ele>380.79999999999995</ele><time>2026-05-02T08:12:35.729Z</time></trkpt><trkpt lat="42.9825795" lon="12.2340468"><ele>382.2</ele><time>2026-05-02T08:12:36.729Z</time></trkpt><trkpt lat="42.9826069" lon="12.2339024"><ele>383.6</ele><time>2026-05-02T08:12:37.729Z</time></trkpt><trkpt lat="42.982635" lon="12.2337628"><ele>385.0</ele><time>2026-05-02T08:12:38.729Z</time></trkpt><trkpt lat="42.9826702" lon="12.233627"><ele>388.75</ele><time>2026-05-02T08:12:39.729Z</time></trkpt><trkpt lat="42.9827274" lon="12.2334996"><ele>392.5</ele><time>2026-05-02T08:12:40.729Z</time></trkpt><trkpt lat="42.9828072" lon="12.2333875"><ele>396.25</ele><time>2026-05-02T08:12:41.729Z</time></trkpt><trkpt lat="42.9828857" lon="12.2332768"><ele>400.0</ele><time>2026-05-02T08:12:42.729Z</time></trkpt><trkpt lat="42.9830044" lon="12.2332121"><ele>400.0</ele><time>2026-05-02T08:12:43.729Z</time></trkpt><trkpt lat="42.9831041" lon="12.2331357"><ele>400.0</ele><time>2026-05-02T08:12:44.729Z</time></trkpt><trkpt lat="42.9831906" lon="12.2330557"><ele>400.0</ele><time>2026-05-02T08:12:45.729Z</time></trkpt><trkpt lat="42.9832688" lon="12.2329804"><ele>400.0</ele><time>2026-05-02T08:12:46.729Z</time></trkpt><trkpt lat="42.9833416" lon="12.232915"><ele>400.0</ele><time>2026-05-02T08:12:47.729Z</time></trkpt><trkpt lat="42.9834107" lon="12.2328605"><ele>400.00000000000006</ele><time>2026-05-02T08:12:48.729Z</time></trkpt><trkpt lat="42.9834722" lon="12.2328174"><ele>400.0</ele><time>2026-05-02T08:12:49.729Z</time></trkpt><trkpt lat="42.9835254" lon="12.2327521"><ele>400.0</ele><time>2026-05-02T08:12:51.729Z</time></trkpt><trkpt lat="42.9834469" lon="12.2326786"><ele>400.0</ele><time>2026-05-02T08:12:54.729Z</time></trkpt><trkpt lat="42.9833801" lon="12.2326779"><ele>400.00000000000006</ele><time>2026-05-02T08:12:55.729Z</time></trkpt><trkpt lat="42.9833049" lon="12.2326793"><ele>400.0</ele><time>2026-05-02T08:12:56.729Z</time></trkpt><trkpt lat="42.9832264" lon="12.2326836"><ele>403.00000000000006</ele><time>2026-05-02T08:12:57.729Z</time></trkpt><trkpt lat="42.9831429" lon="12.2326673"><ele>406.0</ele><time>2026-05-02T08:12:58.729Z</time></trkpt><trkpt lat="42.9830619" lon="12.2326535"><ele>409.0</ele><time>2026-05-02T08:12:59.729Z</time></trkpt><trkpt lat="42.9829786" lon="12.2326414"><ele>412.0</ele><time>2026-05-02T08:13:00.729Z</time></trkpt><trkpt lat="42.9828967" lon="12.2326269"><ele>415.00000000000006</ele><time>2026-05-02T08:13:01.729Z</time></trkpt><trkpt lat="42.9828155" lon="12.2326668"><ele>418.0</ele><time>2026-05-02T08:13:02.729Z</time></trkpt><trkpt lat="42.9827343" lon="12.23269"><ele>418.00000000000006</ele><time>2026-05-02T08:13:03.729Z</time></trkpt><trkpt lat="42.9826527" lon="12.2327181"><ele>418.0</ele><time>2026-05-02T08:13:04.729Z</time></trkpt><trkpt lat="42.982569" lon="12.2327497"><ele>418.0</ele><time>2026-05-02T08:13:05.729Z</time></trkpt><trkpt lat="42.9824998" lon="12.2327925"><ele>418.0</ele><time>2026-05-02T08:13:06.729Z</time></trkpt><trkpt lat="42.9824382" lon="12.232843"><ele>418.00000000000006</ele><time>2026-05-02T08:13:07.729Z</time></trkpt><trkpt lat="42.9823781" lon="12.2329103"><ele>418.0</ele><time>2026-05-02T08:13:08.729Z</time></trkpt><trkpt lat="42.9823172" lon="12.2329822"><ele>418.1666666666667</ele><time>2026-05-02T08:13:09.729Z</time></trkpt><trkpt lat="42.982257" lon="12.2330486"><ele>418.33333333333337</ele><time>2026-05-02T08:13:10.729Z</time></trkpt><trkpt lat="42.9821942" lon="12.2331208"><ele>418.5</ele><time>2026-05-02T08:13:11.729Z</time></trkpt><trkpt lat="42.9821378" lon="12.233192"><ele>418.66666666666663</ele><time>2026-05-02T08:13:12.729Z</time></trkpt><trkpt lat="42.9820923" lon="12.2332733"><ele>418.8333333333333</ele><time>2026-05-02T08:13:13.729Z</time></trkpt><trkpt lat="42.9820371" lon="12.2333617"><ele>419.0</ele><time>2026-05-02T08:13:14.729Z</time></trkpt><trkpt lat="42.9819822" lon="12.233449"><ele>418.99999999999994</ele><time>2026-05-02T08:13:15.729Z</time></trkpt><trkpt lat="42.981929" lon="12.2335367"><ele>419.0</ele><time>2026-05-02T08:13:16.729Z</time></trkpt><trkpt lat="42.9818738" lon="12.2336199"><ele>419.0</ele><time>2026-05-02T08:13:17.729Z</time></trkpt><trkpt lat="42.9818181" lon="12.2336972"><ele>419.0</ele><time>2026-05-02T08:13:18.729Z</time></trkpt><trkpt lat="42.9817662" lon="12.2337722"><ele>418.99999999999994</ele><time>2026-05-02T08:13:19.729Z</time></trkpt><trkpt lat="42.9817102" lon="12.2338525"><ele>419.0</ele><time>2026-05-02T08:13:20.729Z</time></trkpt><trkpt lat="42.9816465" lon="12.2339234"><ele>423.0</ele><time>2026-05-02T08:13:21.729Z</time></trkpt><trkpt lat="42.9815823" lon="12.2339947"><ele>427.0</ele><time>2026-05-02T08:13:22.729Z</time></trkpt><trkpt lat="42.9815157" lon="12.234061"><ele>431.0</ele><time>2026-05-02T08:13:23.729Z</time></trkpt><trkpt lat="42.9814479" lon="12.2341445"><ele>435.0</ele><time>2026-05-02T08:13:24.729Z</time></trkpt><trkpt lat="42.9813832" lon="12.2342474"><ele>439.0</ele><time>2026-05-02T08:13:25.729Z</time></trkpt><trkpt lat="42.9813293" lon="12.2343527"><ele>439.00000000000006</ele><time>2026-05-02T08:13:26.729Z</time></trkpt><trkpt lat="42.98128" lon="12.2344566"><ele>439.0</ele><time>2026-05-02T08:13:27.729Z</time></trkpt><trkpt lat="42.9812373" lon="12.2345466"><ele>439.0</ele><time>2026-05-02T08:13:28.729Z</time></trkpt><trkpt lat="42.9811917" lon="12.2346455"><ele>439.0</ele><time>2026-05-02T08:13:29.729Z</time></trkpt><trkpt lat="42.9811505" lon="12.2347398"><ele>439.00000000000006</ele><time>2026-05-02T08:13:30.729Z</time></trkpt><trkpt lat="42.9810746" lon="12.2348454"><ele>439.0</ele><time>2026-05-02T08:13:32.729Z</time></trkpt><trkpt lat="42.9810086" lon="12.2348333"><ele>439.00000000000006</ele><time>2026-05-02T08:13:33.729Z</time></trkpt><trkpt lat="42.980939" lon="12.2348184"><ele>439.0</ele><time>2026-05-02T08:13:34.729Z</time></trkpt><trkpt lat="42.9808685" lon="12.2348096"><ele>439.0</ele><time>2026-05-02T08:13:35.729Z</time></trkpt><trkpt lat="42.9807978" lon="12.2348067"><ele>439.0</ele><time>2026-05-02T08:13:36.729Z</time></trkpt><trkpt lat="42.9807315" lon="12.2348088"><ele>439.00000000000006</ele><time>2026-05-02T08:13:37.729Z</time></trkpt><trkpt lat="42.9806627" lon="12.2348162"><ele>439.0</ele><time>2026-05-02T08:13:38.729Z</time></trkpt><trkpt lat="42.9805485" lon="12.2348391"><ele>443.6</ele><time>2026-05-02T08:13:40.729Z</time></trkpt><trkpt lat="42.9804321" lon="12.2348528"><ele>448.2</ele><time>2026-05-02T08:13:42.729Z</time></trkpt><trkpt lat="42.9803446" lon="12.2348657"><ele>452.80000000000007</ele><time>2026-05-02T08:13:44.729Z</time></trkpt><trkpt lat="42.9802382" lon="12.234889"><ele>457.40000000000003</ele><time>2026-05-02T08:13:46.729Z</time></trkpt><trkpt lat="42.9801481" lon="12.2349218"><ele>462.0</ele><time>2026-05-02T08:13:48.729Z</time></trkpt><trkpt lat="42.9800526" lon="12.2349499"><ele>462.6666666666667</ele><time>2026-05-02T08:13:50.729Z</time></trkpt><trkpt lat="42.9799669" lon="12.2349821"><ele>463.33333333333337</ele><time>2026-05-02T08:14:11.729Z</time></trkpt><trkpt lat="42.9798861" lon="12.2350491"><ele>464.0</ele><time>2026-05-02T08:14:13.729Z</time></trkpt><trkpt lat="42.9798269" lon="12.2350935"><ele>464.6666666666667</ele><time>2026-05-02T08:14:14.729Z</time></trkpt><trkpt lat="42.9797725" lon="12.2351466"><ele>465.33333333333337</ele><time>2026-05-02T08:14:15.729Z</time></trkpt><trkpt lat="42.9797016" lon="12.2351929"><ele>466.0</ele><time>2026-05-02T08:14:16.729Z</time></trkpt><trkpt lat="42.9796127" lon="12.235254"><ele>466.0</ele><time>2026-05-02T08:14:17.729Z</time></trkpt><trkpt lat="42.9795326" lon="12.2353125"><ele>466.0</ele><time>2026-05-02T08:14:18.729Z</time></trkpt><trkpt lat="42.9794529" lon="12.2353802"><ele>466.0</ele><time>2026-05-02T08:14:19.729Z</time></trkpt><trkpt lat="42.9793734" lon="12.2354619"><ele>466.0</ele><time>2026-05-02T08:14:20.729Z</time></trkpt><trkpt lat="42.9793173" lon="12.2355155"><ele>466.0</ele><time>2026-05-02T08:14:21.729Z</time></trkpt><trkpt lat="42.9791846" lon="12.2354922"><ele>466.6</ele><time>2026-05-02T08:14:23.729Z</time></trkpt><trkpt lat="42.9791254" lon="12.2354347"><ele>467.20000000000005</ele><time>2026-05-02T08:14:24.729Z</time></trkpt><trkpt lat="42.9790722" lon="12.2353448"><ele>467.79999999999995</ele><time>2026-05-02T08:14:25.729Z</time></trkpt><trkpt lat="42.979027" lon="12.2352426"><ele>468.4</ele><time>2026-05-02T08:14:26.729Z</time></trkpt><trkpt lat="42.9789592" lon="12.2351511"><ele>469.0</ele><time>2026-05-02T08:14:27.729Z</time></trkpt><trkpt lat="42.9788765" lon="12.2350497"><ele>469.0</ele><time>2026-05-02T08:14:28.729Z</time></trkpt><trkpt lat="42.9787984" lon="12.2349492"><ele>469.0</ele><time>2026-05-02T08:14:29.729Z</time></trkpt><trkpt lat="42.978731" lon="12.2348848"><ele>469.0</ele><time>2026-05-02T08:14:30.729Z</time></trkpt><trkpt lat="42.9786598" lon="12.2348049"><ele>469.0</ele><time>2026-05-02T08:14:31.728Z</time></trkpt><trkpt lat="42.978583" lon="12.234756"><ele>469.0</ele><time>2026-05-02T08:14:32.729Z</time></trkpt><trkpt lat="42.9785049" lon="12.2347133"><ele>470.4</ele><time>2026-05-02T08:14:33.729Z</time></trkpt><trkpt lat="42.9784321" lon="12.2346704"><ele>471.79999999999995</ele><time>2026-05-02T08:14:34.729Z</time></trkpt><trkpt lat="42.9783559" lon="12.2346031"><ele>473.20000000000005</ele><time>2026-05-02T08:14:35.729Z</time></trkpt><trkpt lat="42.9782704" lon="12.2345035"><ele>474.6</ele><time>2026-05-02T08:14:36.729Z</time></trkpt><trkpt lat="42.9781973" lon="12.234404"><ele>476.0</ele><time>2026-05-02T08:14:37.729Z</time></trkpt><trkpt lat="42.9781319" lon="12.2343058"><ele>476.0</ele><time>2026-05-02T08:14:38.729Z</time></trkpt><trkpt lat="42.9780585" lon="12.2341956"><ele>476.0</ele><time>2026-05-02T08:14:39.729Z</time></trkpt><trkpt lat="42.9779914" lon="12.2340834"><ele>476.0</ele><time>2026-05-02T08:14:40.729Z</time></trkpt><trkpt lat="42.9779339" lon="12.2339573"><ele>476.0</ele><time>2026-05-02T08:14:41.729Z</time></trkpt><trkpt lat="42.9778718" lon="12.2338342"><ele>476.0</ele><time>2026-05-02T08:14:42.729Z</time></trkpt><trkpt lat="42.9778049" lon="12.2337221"><ele>476.16666666666663</ele><time>2026-05-02T08:14:43.729Z</time></trkpt><trkpt lat="42.9777422" lon="12.2336168"><ele>476.3333333333333</ele><time>2026-05-02T08:14:44.729Z</time></trkpt><trkpt lat="42.9776854" lon="12.2335248"><ele>476.5</ele><time>2026-05-02T08:14:45.729Z</time></trkpt><trkpt lat="42.9776276" lon="12.233437"><ele>476.66666666666663</ele><time>2026-05-02T08:14:46.729Z</time></trkpt><trkpt lat="42.9775711" lon="12.233347"><ele>476.8333333333333</ele><time>2026-05-02T08:14:47.729Z</time></trkpt><trkpt lat="42.9775139" lon="12.233265"><ele>477.0</ele><time>2026-05-02T08:14:48.729Z</time></trkpt><trkpt lat="42.9774465" lon="12.2331911"><ele>476.20000000000005</ele><time>2026-05-02T08:14:49.729Z</time></trkpt><trkpt lat="42.9773698" lon="12.2331121"><ele>475.40000000000003</ele><time>2026-05-02T08:14:50.729Z</time></trkpt><trkpt lat="42.9772842" lon="12.2330411"><ele>474.59999999999997</ele><time>2026-05-02T08:14:51.729Z</time></trkpt><trkpt lat="42.9771957" lon="12.2329685"><ele>473.79999999999995</ele><time>2026-05-02T08:14:52.729Z</time></trkpt><trkpt lat="42.9771047" lon="12.232894"><ele>473.0</ele><time>2026-05-02T08:14:53.729Z</time></trkpt><trkpt lat="42.9770173" lon="12.2328128"><ele>473.0</ele><time>2026-05-02T08:14:54.729Z</time></trkpt><trkpt lat="42.9769313" lon="12.2327305"><ele>472.99999999999994</ele><time>2026-05-02T08:14:55.729Z</time></trkpt><trkpt lat="42.9768453" lon="12.2326473"><ele>472.99999999999994</ele><time>2026-05-02T08:14:56.729Z</time></trkpt><trkpt lat="42.976755" lon="12.2325673"><ele>473.0</ele><time>2026-05-02T08:14:57.729Z</time></trkpt><trkpt lat="42.9766705" lon="12.2324974"><ele>473.0</ele><time>2026-05-02T08:14:58.729Z</time></trkpt><trkpt lat="42.9765851" lon="12.2324192"><ele>473.79999999999995</ele><time>2026-05-02T08:14:59.729Z</time></trkpt><trkpt lat="42.9765156" lon="12.2323211"><ele>474.59999999999997</ele><time>2026-05-02T08:15:00.729Z</time></trkpt><trkpt lat="42.9764589" lon="12.2322202"><ele>475.40000000000003</ele><time>2026-05-02T08:15:01.729Z</time></trkpt><trkpt lat="42.9764084" lon="12.2321205"><ele>476.20000000000005</ele><time>2026-05-02T08:15:02.729Z</time></trkpt><trkpt lat="42.9763582" lon="12.23202"><ele>477.0</ele><time>2026-05-02T08:15:03.729Z</time></trkpt><trkpt lat="42.9763072" lon="12.2319224"><ele>477.0</ele><time>2026-05-02T08:15:04.729Z</time></trkpt><trkpt lat="42.9762582" lon="12.2318282"><ele>477.00000000000006</ele><time>2026-05-02T08:15:05.729Z</time></trkpt><trkpt lat="42.9762008" lon="12.2317376"><ele>477.00000000000006</ele><time>2026-05-02T08:15:06.729Z</time></trkpt><trkpt lat="42.9761399" lon="12.2316494"><ele>477.0</ele><time>2026-05-02T08:15:07.729Z</time></trkpt><trkpt lat="42.9760613" lon="12.2315641"><ele>477.0</ele><time>2026-05-02T08:15:08.729Z</time></trkpt><trkpt lat="42.9759825" lon="12.2314799"><ele>479.0</ele><time>2026-05-02T08:15:09.728Z</time></trkpt><trkpt lat="42.9759015" lon="12.2313939"><ele>481.00000000000006</ele><time>2026-05-02T08:15:10.729Z</time></trkpt><trkpt lat="42.9758227" lon="12.231313"><ele>483.00000000000006</ele><time>2026-05-02T08:15:11.729Z</time></trkpt><trkpt lat="42.9757525" lon="12.2312367"><ele>485.0</ele><time>2026-05-02T08:15:12.729Z</time></trkpt><trkpt lat="42.9756741" lon="12.2311673"><ele>487.0</ele><time>2026-05-02T08:15:13.729Z</time></trkpt><trkpt lat="42.9756008" lon="12.2310909"><ele>487.00000000000006</ele><time>2026-05-02T08:15:14.729Z</time></trkpt><trkpt lat="42.9755324" lon="12.2310205"><ele>487.0</ele><time>2026-05-02T08:15:15.729Z</time></trkpt><trkpt lat="42.9754645" lon="12.2309408"><ele>487.0</ele><time>2026-05-02T08:15:16.729Z</time></trkpt><trkpt lat="42.9753962" lon="12.2308642"><ele>487.0</ele><time>2026-05-02T08:15:17.729Z</time></trkpt><trkpt lat="42.9753303" lon="12.2307864"><ele>487.00000000000006</ele><time>2026-05-02T08:15:18.729Z</time></trkpt><trkpt lat="42.9752667" lon="12.2307112"><ele>487.0</ele><time>2026-05-02T08:15:19.729Z</time></trkpt><trkpt lat="42.9751946" lon="12.2306423"><ele>488.20000000000005</ele><time>2026-05-02T08:15:20.729Z</time></trkpt><trkpt lat="42.9751207" lon="12.2305556"><ele>489.40000000000003</ele><time>2026-05-02T08:15:21.728Z</time></trkpt><trkpt lat="42.9750366" lon="12.2304756"><ele>490.59999999999997</ele><time>2026-05-02T08:15:22.729Z</time></trkpt><trkpt lat="42.9749549" lon="12.2304"><ele>491.79999999999995</ele><time>2026-05-02T08:15:23.729Z</time></trkpt><trkpt lat="42.974866" lon="12.2303228"><ele>493.0</ele><time>2026-05-02T08:15:24.729Z</time></trkpt><trkpt lat="42.9747745" lon="12.2302486"><ele>493.0</ele><time>2026-05-02T08:15:25.729Z</time></trkpt><trkpt lat="42.9746815" lon="12.2301828"><ele>492.99999999999994</ele><time>2026-05-02T08:15:26.729Z</time></trkpt><trkpt lat="42.9746028" lon="12.2301229"><ele>492.99999999999994</ele><time>2026-05-02T08:15:27.729Z</time></trkpt><trkpt lat="42.974519" lon="12.2300637"><ele>493.0</ele><time>2026-05-02T08:15:28.729Z</time></trkpt><trkpt lat="42.9744378" lon="12.2299949"><ele>493.0</ele><time>2026-05-02T08:15:29.729Z</time></trkpt><trkpt lat="42.9743598" lon="12.229929"><ele>493.00000000000006</ele><time>2026-05-02T08:15:30.729Z</time></trkpt><trkpt lat="42.9742569" lon="12.2298785"><ele>493.0</ele><time>2026-05-02T08:15:31.729Z</time></trkpt><trkpt lat="42.9741801" lon="12.2298353"><ele>493.0</ele><time>2026-05-02T08:15:32.729Z</time></trkpt><trkpt lat="42.9741107" lon="12.2297902"><ele>493.0</ele><time>2026-05-02T08:15:34.729Z</time></trkpt><trkpt lat="42.9740497" lon="12.2297329"><ele>493.00000000000006</ele><time>2026-05-02T08:15:36.729Z</time></trkpt><trkpt lat="42.9739715" lon="12.2296448"><ele>493.0</ele><time>2026-05-02T08:15:38.729Z</time></trkpt><trkpt lat="42.9738868" lon="12.2295509"><ele>493.1666666666667</ele><time>2026-05-02T08:15:40.729Z</time></trkpt><trkpt lat="42.9738335" lon="12.2294637"><ele>493.33333333333337</ele><time>2026-05-02T08:15:41.729Z</time></trkpt><trkpt lat="42.9737902" lon="12.2293844"><ele>493.5</ele><time>2026-05-02T08:15:42.729Z</time></trkpt><trkpt lat="42.9737071" lon="12.229256"><ele>493.66666666666663</ele><time>2026-05-02T08:15:44.729Z</time></trkpt><trkpt lat="42.973662" lon="12.2291957"><ele>493.8333333333333</ele><time>2026-05-02T08:15:45.729Z</time></trkpt><trkpt lat="42.9736021" lon="12.2291349"><ele>494.0</ele><time>2026-05-02T08:15:46.729Z</time></trkpt><trkpt lat="42.9735402" lon="12.2290791"><ele>493.99999999999994</ele><time>2026-05-02T08:15:47.729Z</time></trkpt><trkpt lat="42.9734771" lon="12.2290287"><ele>494.0</ele><time>2026-05-02T08:15:48.729Z</time></trkpt><trkpt lat="42.9734164" lon="12.2289914"><ele>494.0</ele><time>2026-05-02T08:15:49.729Z</time></trkpt><trkpt lat="42.9733431" lon="12.228962"><ele>494.0</ele><time>2026-05-02T08:15:50.729Z</time></trkpt><trkpt lat="42.9732653" lon="12.2289342"><ele>493.99999999999994</ele><time>2026-05-02T08:15:51.729Z</time></trkpt><trkpt lat="42.9731883" lon="12.2288952"><ele>494.0</ele><time>2026-05-02T08:15:52.729Z</time></trkpt><trkpt lat="42.9731164" lon="12.2288409"><ele>496.66666666666663</ele><time>2026-05-02T08:15:53.729Z</time></trkpt><trkpt lat="42.9730539" lon="12.2287659"><ele>499.3333333333333</ele><time>2026-05-02T08:15:54.729Z</time></trkpt><trkpt lat="42.9730036" lon="12.2286919"><ele>502.0</ele><time>2026-05-02T08:15:55.729Z</time></trkpt><trkpt lat="42.9729562" lon="12.2286118"><ele>504.66666666666663</ele><time>2026-05-02T08:15:56.729Z</time></trkpt><trkpt lat="42.9729068" lon="12.2285228"><ele>507.3333333333333</ele><time>2026-05-02T08:15:57.729Z</time></trkpt><trkpt lat="42.9728608" lon="12.2284398"><ele>510.0</ele><time>2026-05-02T08:15:58.729Z</time></trkpt><trkpt lat="42.9727962" lon="12.2283634"><ele>510.0</ele><time>2026-05-02T08:15:59.728Z</time></trkpt><trkpt lat="42.9727458" lon="12.2282654"><ele>510.0</ele><time>2026-05-02T08:16:00.729Z</time></trkpt><trkpt lat="42.9727091" lon="12.228166"><ele>510.0</ele><time>2026-05-02T08:16:01.729Z</time></trkpt><trkpt lat="42.9726825" lon="12.2280684"><ele>510.0</ele><time>2026-05-02T08:16:02.729Z</time></trkpt><trkpt lat="42.9726548" lon="12.2279705"><ele>510.0</ele><time>2026-05-02T08:16:03.729Z</time></trkpt><trkpt lat="42.9726478" lon="12.2278627"><ele>510.0</ele><time>2026-05-02T08:16:04.729Z</time></trkpt><trkpt lat="42.9726451" lon="12.2277578"><ele>510.6</ele><time>2026-05-02T08:16:05.729Z</time></trkpt><trkpt lat="42.9726323" lon="12.2276081"><ele>511.2</ele><time>2026-05-02T08:16:07.729Z</time></trkpt><trkpt lat="42.972621" lon="12.227497"><ele>511.79999999999995</ele><time>2026-05-02T08:16:09.729Z</time></trkpt><trkpt lat="42.9726594" lon="12.2273569"><ele>512.4</ele><time>2026-05-02T08:16:11.729Z</time></trkpt><trkpt lat="42.9726824" lon="12.2272456"><ele>513.0</ele><time>2026-05-02T08:16:12.729Z</time></trkpt><trkpt lat="42.972702" lon="12.2271451"><ele>514.4285714285714</ele><time>2026-05-02T08:16:13.729Z</time></trkpt><trkpt lat="42.9727268" lon="12.227048"><ele>515.8571428571429</ele><time>2026-05-02T08:16:14.729Z</time></trkpt><trkpt lat="42.972757" lon="12.2269612"><ele>517.2857142857142</ele><time>2026-05-02T08:16:15.729Z</time></trkpt><trkpt lat="42.9727966" lon="12.2268752"><ele>518.7142857142858</ele><time>2026-05-02T08:16:16.729Z</time></trkpt><trkpt lat="42.9728438" lon="12.2268071"><ele>520.1428571428571</ele><time>2026-05-02T08:16:17.729Z</time></trkpt><trkpt lat="42.9728866" lon="12.226742"><ele>521.5714285714286</ele><time>2026-05-02T08:16:18.729Z</time></trkpt><trkpt lat="42.9729315" lon="12.2266765"><ele>523.0</ele><time>2026-05-02T08:16:19.729Z</time></trkpt><trkpt lat="42.9729557" lon="12.2265965"><ele>523.0</ele><time>2026-05-02T08:16:20.729Z</time></trkpt><trkpt lat="42.9729646" lon="12.2265029"><ele>523.0</ele><time>2026-05-02T08:16:21.729Z</time></trkpt><trkpt lat="42.9729791" lon="12.2264107"><ele>523.0</ele><time>2026-05-02T08:16:22.729Z</time></trkpt><trkpt lat="42.973001" lon="12.2262845"><ele>523.0</ele><time>2026-05-02T08:16:23.729Z</time></trkpt><trkpt lat="42.9730307" lon="12.2261763"><ele>523.0</ele><time>2026-05-02T08:16:24.729Z</time></trkpt><trkpt lat="42.9730582" lon="12.2260765"><ele>523.0</ele><time>2026-05-02T08:16:25.729Z</time></trkpt><trkpt lat="42.9731039" lon="12.2259924"><ele>524.8333333333334</ele><time>2026-05-02T08:16:26.729Z</time></trkpt><trkpt lat="42.9731565" lon="12.2259224"><ele>526.6666666666667</ele><time>2026-05-02T08:16:27.729Z</time></trkpt><trkpt lat="42.9732109" lon="12.2258397"><ele>528.5</ele><time>2026-05-02T08:16:28.729Z</time></trkpt><trkpt lat="42.9732681" lon="12.2257623"><ele>530.3333333333334</ele><time>2026-05-02T08:16:29.729Z</time></trkpt><trkpt lat="42.9733162" lon="12.2256752"><ele>532.1666666666666</ele><time>2026-05-02T08:16:30.729Z</time></trkpt><trkpt lat="42.9733506" lon="12.2255896"><ele>534.0</ele><time>2026-05-02T08:16:31.729Z</time></trkpt><trkpt lat="42.9733862" lon="12.2255086"><ele>534.0</ele><time>2026-05-02T08:16:32.729Z</time></trkpt><trkpt lat="42.9733763" lon="12.2253199"><ele>534.0</ele><time>2026-05-02T08:16:34.729Z</time></trkpt><trkpt lat="42.9734125" lon="12.2251531"><ele>534.0</ele><time>2026-05-02T08:16:36.729Z</time></trkpt><trkpt lat="42.9734957" lon="12.2250197"><ele>534.0</ele><time>2026-05-02T08:16:38.729Z</time></trkpt><trkpt lat="42.9735501" lon="12.2249641"><ele>534.0</ele><time>2026-05-02T08:16:39.729Z</time></trkpt><trkpt lat="42.9736098" lon="12.2249122"><ele>534.0</ele><time>2026-05-02T08:16:40.729Z</time></trkpt><trkpt lat="42.9736309" lon="12.2248189"><ele>534.0</ele><time>2026-05-02T08:16:42.729Z</time></trkpt><trkpt lat="42.9736323" lon="12.2246773"><ele>534.0</ele><time>2026-05-02T08:16:44.729Z</time></trkpt><trkpt lat="42.9735576" lon="12.224583"><ele>534.0</ele><time>2026-05-02T08:16:46.729Z</time></trkpt><trkpt lat="42.9734431" lon="12.2245404"><ele>536.0</ele><time>2026-05-02T08:16:48.728Z</time></trkpt><trkpt lat="42.973375" lon="12.2245375"><ele>538.0</ele><time>2026-05-02T08:16:49.729Z</time></trkpt><trkpt lat="42.9733043" lon="12.2245374"><ele>540.0</ele><time>2026-05-02T08:16:50.729Z</time></trkpt><trkpt lat="42.9732228" lon="12.2245789"><ele>542.0</ele><time>2026-05-02T08:16:51.729Z</time></trkpt><trkpt lat="42.9731427" lon="12.2246068"><ele>544.0</ele><time>2026-05-02T08:16:52.729Z</time></trkpt><trkpt lat="42.9730619" lon="12.2246362"><ele>546.0</ele><time>2026-05-02T08:16:53.729Z</time></trkpt><trkpt lat="42.9729849" lon="12.2246805"><ele>547.3333333333334</ele><time>2026-05-02T08:16:54.729Z</time></trkpt><trkpt lat="42.9729134" lon="12.2247506"><ele>548.6666666666666</ele><time>2026-05-02T08:16:55.729Z</time></trkpt><trkpt lat="42.9728427" lon="12.2248117"><ele>550.0</ele><time>2026-05-02T08:16:56.729Z</time></trkpt><trkpt lat="42.9727746" lon="12.2249047"><ele>551.3333333333333</ele><time>2026-05-02T08:16:57.729Z</time></trkpt><trkpt lat="42.9727146" lon="12.2249906"><ele>552.6666666666666</ele><time>2026-05-02T08:16:58.729Z</time></trkpt><trkpt lat="42.9726591" lon="12.225077"><ele>554.0</ele><time>2026-05-02T08:16:59.729Z</time></trkpt><trkpt lat="42.9726004" lon="12.2251687"><ele>554.0</ele><time>2026-05-02T08:17:00.729Z</time></trkpt><trkpt lat="42.9725393" lon="12.2252416"><ele>554.0</ele><time>2026-05-02T08:17:01.729Z</time></trkpt><trkpt lat="42.9724784" lon="12.22532"><ele>554.0</ele><time>2026-05-02T08:17:02.729Z</time></trkpt><trkpt lat="42.9724166" lon="12.2253867"><ele>554.0</ele><time>2026-05-02T08:17:03.729Z</time></trkpt><trkpt lat="42.9723548" lon="12.2254317"><ele>554.0</ele><time>2026-05-02T08:17:04.729Z</time></trkpt><trkpt lat="42.972281" lon="12.2254773"><ele>554.0</ele><time>2026-05-02T08:17:05.729Z</time></trkpt><trkpt lat="42.9722078" lon="12.2255263"><ele>556.1666666666666</ele><time>2026-05-02T08:17:06.729Z</time></trkpt><trkpt lat="42.9721237" lon="12.2255832"><ele>558.3333333333333</ele><time>2026-05-02T08:17:07.729Z</time></trkpt><trkpt lat="42.9720443" lon="12.2256399"><ele>560.5</ele><time>2026-05-02T08:17:08.729Z</time></trkpt><trkpt lat="42.971966" lon="12.2256674"><ele>562.6666666666666</ele><time>2026-05-02T08:17:09.729Z</time></trkpt><trkpt lat="42.9718842" lon="12.2256918"><ele>564.8333333333334</ele><time>2026-05-02T08:17:10.729Z</time></trkpt><trkpt lat="42.9718074" lon="12.2257051"><ele>567.0</ele><time>2026-05-02T08:17:11.729Z</time></trkpt><trkpt lat="42.9717328" lon="12.2256887"><ele>568.8333333333334</ele><time>2026-05-02T08:17:12.729Z</time></trkpt><trkpt lat="42.9716496" lon="12.2256637"><ele>570.6666666666666</ele><time>2026-05-02T08:17:13.729Z</time></trkpt><trkpt lat="42.9715704" lon="12.2256475"><ele>572.5</ele><time>2026-05-02T08:17:14.729Z</time></trkpt><trkpt lat="42.9714924" lon="12.2256337"><ele>574.3333333333333</ele><time>2026-05-02T08:17:15.729Z</time></trkpt><trkpt lat="42.971421" lon="12.2256052"><ele>576.1666666666666</ele><time>2026-05-02T08:17:16.729Z</time></trkpt><trkpt lat="42.9713561" lon="12.2255564"><ele>578.0</ele><time>2026-05-02T08:17:17.729Z</time></trkpt><trkpt lat="42.9712925" lon="12.2255056"><ele>578.5</ele><time>2026-05-02T08:17:18.729Z</time></trkpt><trkpt lat="42.9712309" lon="12.2254656"><ele>579.0</ele><time>2026-05-02T08:17:19.729Z</time></trkpt><trkpt lat="42.9711577" lon="12.2254178"><ele>579.5</ele><time>2026-05-02T08:17:20.729Z</time></trkpt><trkpt lat="42.9710887" lon="12.2253814"><ele>580.0</ele><time>2026-05-02T08:17:21.729Z</time></trkpt><trkpt lat="42.9710208" lon="12.2253348"><ele>580.5</ele><time>2026-05-02T08:17:22.729Z</time></trkpt><trkpt lat="42.9709513" lon="12.2252809"><ele>581.0</ele><time>2026-05-02T08:17:23.729Z</time></trkpt><trkpt lat="42.970881" lon="12.2252336"><ele>583.1666666666666</ele><time>2026-05-02T08:17:24.729Z</time></trkpt><trkpt lat="42.9708129" lon="12.2251732"><ele>585.3333333333333</ele><time>2026-05-02T08:17:25.729Z</time></trkpt><trkpt lat="42.9707412" lon="12.2251132"><ele>587.5</ele><time>2026-05-02T08:17:26.729Z</time></trkpt><trkpt lat="42.9706697" lon="12.225054"><ele>589.6666666666666</ele><time>2026-05-02T08:17:27.729Z</time></trkpt><trkpt lat="42.9705951" lon="12.225002"><ele>591.8333333333334</ele><time>2026-05-02T08:17:28.729Z</time></trkpt><trkpt lat="42.9705243" lon="12.2249493"><ele>594.0</ele><time>2026-05-02T08:17:29.729Z</time></trkpt><trkpt lat="42.9704499" lon="12.2248999"><ele>594.0</ele><time>2026-05-02T08:17:30.729Z</time></trkpt><trkpt lat="42.9703751" lon="12.2248459"><ele>594.0</ele><time>2026-05-02T08:17:31.729Z</time></trkpt><trkpt lat="42.9703089" lon="12.2248119"><ele>594.0</ele><time>2026-05-02T08:17:32.729Z</time></trkpt><trkpt lat="42.9702394" lon="12.2247949"><ele>594.0</ele><time>2026-05-02T08:17:33.729Z</time></trkpt><trkpt lat="42.9701567" lon="12.2247792"><ele>594.0</ele><time>2026-05-02T08:17:34.729Z</time></trkpt><trkpt lat="42.9700801" lon="12.224759"><ele>594.0</ele><time>2026-05-02T08:17:35.729Z</time></trkpt><trkpt lat="42.9700102" lon="12.2247097"><ele>595.3333333333334</ele><time>2026-05-02T08:17:36.729Z</time></trkpt><trkpt lat="42.9699453" lon="12.2246624"><ele>596.6666666666666</ele><time>2026-05-02T08:17:37.729Z</time></trkpt><trkpt lat="42.9698734" lon="12.2246118"><ele>598.0</ele><time>2026-05-02T08:17:38.729Z</time></trkpt><trkpt lat="42.9698044" lon="12.2245692"><ele>599.3333333333333</ele><time>2026-05-02T08:17:39.729Z</time></trkpt><trkpt lat="42.9697238" lon="12.2245217"><ele>600.6666666666666</ele><time>2026-05-02T08:17:40.729Z</time></trkpt><trkpt lat="42.9696292" lon="12.2244761"><ele>602.0</ele><time>2026-05-02T08:17:41.729Z</time></trkpt><trkpt lat="42.9695367" lon="12.2244317"><ele>602.0</ele><time>2026-05-02T08:17:42.729Z</time></trkpt><trkpt lat="42.9694191" lon="12.2244285"><ele>602.0</ele><time>2026-05-02T08:17:43.729Z</time></trkpt><trkpt lat="42.9693244" lon="12.2244042"><ele>602.0</ele><time>2026-05-02T08:17:44.729Z</time></trkpt><trkpt lat="42.9692336" lon="12.2243966"><ele>602.0</ele><time>2026-05-02T08:17:45.729Z</time></trkpt><trkpt lat="42.9691503" lon="12.2243841"><ele>602.0</ele><time>2026-05-02T08:17:46.729Z</time></trkpt><trkpt lat="42.9690676" lon="12.2243597"><ele>602.1428571428571</ele><time>2026-05-02T08:17:47.729Z</time></trkpt><trkpt lat="42.9689947" lon="12.2243283"><ele>602.2857142857142</ele><time>2026-05-02T08:17:48.729Z</time></trkpt><trkpt lat="42.9689239" lon="12.2242933"><ele>602.4285714285714</ele><time>2026-05-02T08:17:49.729Z</time></trkpt><trkpt lat="42.9688548" lon="12.2242585"><ele>602.5714285714286</ele><time>2026-05-02T08:17:50.729Z</time></trkpt><trkpt lat="42.968786" lon="12.224226"><ele>602.7142857142857</ele><time>2026-05-02T08:17:51.729Z</time></trkpt><trkpt lat="42.9687149" lon="12.2242127"><ele>602.8571428571429</ele><time>2026-05-02T08:17:52.729Z</time></trkpt><trkpt lat="42.968642" lon="12.2241926"><ele>603.0</ele><time>2026-05-02T08:17:53.729Z</time></trkpt><trkpt lat="42.9685785" lon="12.2241686"><ele>603.0</ele><time>2026-05-02T08:17:54.729Z</time></trkpt><trkpt lat="42.9684675" lon="12.2241513"><ele>603.0</ele><time>2026-05-02T08:17:56.729Z</time></trkpt><trkpt lat="42.9683449" lon="12.2241443"><ele>603.0</ele><time>2026-05-02T08:17:58.729Z</time></trkpt><trkpt lat="42.9682787" lon="12.2241438"><ele>603.0</ele><time>2026-05-02T08:17:59.729Z</time></trkpt><trkpt lat="42.9682025" lon="12.2241441"><ele>603.0</ele><time>2026-05-02T08:18:00.728Z</time></trkpt><trkpt lat="42.9681201" lon="12.2241313"><ele>602.8333333333334</ele><time>2026-05-02T08:18:01.729Z</time></trkpt><trkpt lat="42.9680367" lon="12.2241185"><ele>602.6666666666666</ele><time>2026-05-02T08:18:02.729Z</time></trkpt><trkpt lat="42.9679619" lon="12.2240867"><ele>602.5</ele><time>2026-05-02T08:18:03.729Z</time></trkpt><trkpt lat="42.9678864" lon="12.2240461"><ele>602.3333333333333</ele><time>2026-05-02T08:18:04.729Z</time></trkpt><trkpt lat="42.9678099" lon="12.224007"><ele>602.1666666666666</ele><time>2026-05-02T08:18:05.729Z</time></trkpt><trkpt lat="42.967739" lon="12.223985"><ele>602.0</ele><time>2026-05-02T08:18:06.729Z</time></trkpt><trkpt lat="42.9676756" lon="12.2239762"><ele>602.0</ele><time>2026-05-02T08:18:07.729Z</time></trkpt><trkpt lat="42.9675783" lon="12.2239899"><ele>602.0</ele><time>2026-05-02T08:18:09.729Z</time></trkpt><trkpt lat="42.9675037" lon="12.2240005"><ele>602.0</ele><time>2026-05-02T08:18:12.729Z</time></trkpt><trkpt lat="42.9674244" lon="12.2239929"><ele>602.0</ele><time>2026-05-02T08:18:14.729Z</time></trkpt><trkpt lat="42.9673498" lon="12.2239929"><ele>602.0</ele><time>2026-05-02T08:18:17.729Z</time></trkpt><trkpt lat="42.9672751" lon="12.223993"><ele>602.0</ele><time>2026-05-02T08:18:20.729Z</time></trkpt><trkpt lat="42.9672117" lon="12.2239797"><ele>601.8333333333333</ele><time>2026-05-02T08:18:23.729Z</time></trkpt><trkpt lat="42.9671346" lon="12.2239744"><ele>601.6666666666666</ele><time>2026-05-02T08:18:27.729Z</time></trkpt><trkpt lat="42.9670378" lon="12.2239895"><ele>601.5</ele><time>2026-05-02T08:18:30.729Z</time></trkpt><trkpt lat="42.9669246" lon="12.2239945"><ele>601.3333333333334</ele><time>2026-05-02T08:18:32.729Z</time></trkpt><trkpt lat="42.9668583" lon="12.2239885"><ele>601.1666666666667</ele><time>2026-05-02T08:18:33.729Z</time></trkpt><trkpt lat="42.9667894" lon="12.2239945"><ele>601.0</ele><time>2026-05-02T08:18:34.729Z</time></trkpt><trkpt lat="42.96672" lon="12.2240021"><ele>600.8</ele><time>2026-05-02T08:18:35.729Z</time></trkpt><trkpt lat="42.9666485" lon="12.2239973"><ele>600.6</ele><time>2026-05-02T08:18:36.729Z</time></trkpt><trkpt lat="42.9665738" lon="12.2239857"><ele>600.4</ele><time>2026-05-02T08:18:37.729Z</time></trkpt><trkpt lat="42.966489" lon="12.2239453"><ele>600.2</ele><time>2026-05-02T08:18:38.729Z</time></trkpt><trkpt lat="42.9663807" lon="12.223872"><ele>600.0</ele><time>2026-05-02T08:18:39.729Z</time></trkpt><trkpt lat="42.9662581" lon="12.2237973"><ele>600.0</ele><time>2026-05-02T08:18:40.729Z</time></trkpt><trkpt lat="42.966142" lon="12.2237164"><ele>600.0</ele><time>2026-05-02T08:18:41.729Z</time></trkpt><trkpt lat="42.9660334" lon="12.2236258"><ele>600.0</ele><time>2026-05-02T08:18:42.729Z</time></trkpt><trkpt lat="42.9659293" lon="12.2235485"><ele>600.0</ele><time>2026-05-02T08:18:43.729Z</time></trkpt><trkpt lat="42.9658339" lon="12.2234832"><ele>600.4</ele><time>2026-05-02T08:18:44.729Z</time></trkpt><trkpt lat="42.9657405" lon="12.2234172"><ele>600.8</ele><time>2026-05-02T08:18:45.729Z</time></trkpt><trkpt lat="42.9656823" lon="12.2233506"><ele>601.2</ele><time>2026-05-02T08:18:46.729Z</time></trkpt><trkpt lat="42.9656283" lon="12.2232522"><ele>601.6</ele><time>2026-05-02T08:18:47.729Z</time></trkpt><trkpt lat="42.9655851" lon="12.2231446"><ele>602.0</ele><time>2026-05-02T08:18:48.729Z</time></trkpt><trkpt lat="42.9655319" lon="12.2230364"><ele>602.0</ele><time>2026-05-02T08:18:49.729Z</time></trkpt><trkpt lat="42.9654716" lon="12.222923"><ele>602.0</ele><time>2026-05-02T08:18:50.729Z</time></trkpt><trkpt lat="42.9654021" lon="12.222815"><ele>602.0</ele><time>2026-05-02T08:18:51.729Z</time></trkpt><trkpt lat="42.9653295" lon="12.2227075"><ele>602.0</ele><time>2026-05-02T08:18:52.729Z</time></trkpt><trkpt lat="42.9652342" lon="12.222625"><ele>602.0</ele><time>2026-05-02T08:18:53.729Z</time></trkpt><trkpt lat="42.9651414" lon="12.2225452"><ele>602.0</ele><time>2026-05-02T08:18:54.729Z</time></trkpt><trkpt lat="42.9650526" lon="12.2224855"><ele>602.0</ele><time>2026-05-02T08:18:55.729Z</time></trkpt><trkpt lat="42.9649594" lon="12.2224426"><ele>602.0</ele><time>2026-05-02T08:18:56.729Z</time></trkpt><trkpt lat="42.9648558" lon="12.2224142"><ele>602.0</ele><time>2026-05-02T08:18:57.729Z</time></trkpt><trkpt lat="42.9647097" lon="12.222408"><ele>602.0</ele><time>2026-05-02T08:18:58.729Z</time></trkpt><trkpt lat="42.964573" lon="12.2224175"><ele>602.8000000000001</ele><time>2026-05-02T08:18:59.729Z</time></trkpt><trkpt lat="42.9644423" lon="12.2224217"><ele>603.6</ele><time>2026-05-02T08:19:00.728Z</time></trkpt><trkpt lat="42.9643157" lon="12.2224269"><ele>604.4000000000001</ele><time>2026-05-02T08:19:01.729Z</time></trkpt><trkpt lat="42.9642273" lon="12.2224222"><ele>605.2</ele><time>2026-05-02T08:19:02.729Z</time></trkpt><trkpt lat="42.9641368" lon="12.2224092"><ele>606.0</ele><time>2026-05-02T08:19:03.729Z</time></trkpt><trkpt lat="42.9640668" lon="12.222334"><ele>605.4</ele><time>2026-05-02T08:19:04.729Z</time></trkpt><trkpt lat="42.9639964" lon="12.2222676"><ele>604.8</ele><time>2026-05-02T08:19:05.729Z</time></trkpt><trkpt lat="42.9639308" lon="12.222181"><ele>604.1999999999999</ele><time>2026-05-02T08:19:06.729Z</time></trkpt><trkpt lat="42.9638721" lon="12.2220601"><ele>603.6</ele><time>2026-05-02T08:19:07.729Z</time></trkpt><trkpt lat="42.9638142" lon="12.22192"><ele>603.0</ele><time>2026-05-02T08:19:08.729Z</time></trkpt><trkpt lat="42.9637687" lon="12.2217897"><ele>603.0</ele><time>2026-05-02T08:19:09.729Z</time></trkpt><trkpt lat="42.9637286" lon="12.2216667"><ele>603.0</ele><time>2026-05-02T08:19:10.728Z</time></trkpt><trkpt lat="42.9636897" lon="12.2215454"><ele>603.0</ele><time>2026-05-02T08:19:11.729Z</time></trkpt><trkpt lat="42.963652" lon="12.2214294"><ele>603.0</ele><time>2026-05-02T08:19:12.729Z</time></trkpt><trkpt lat="42.9636012" lon="12.2213349"><ele>603.0</ele><time>2026-05-02T08:19:13.729Z</time></trkpt><trkpt lat="42.9635438" lon="12.2212589"><ele>601.8333333333334</ele><time>2026-05-02T08:19:14.729Z</time></trkpt><trkpt lat="42.9634813" lon="12.2211862"><ele>600.6666666666666</ele><time>2026-05-02T08:19:15.729Z</time></trkpt><trkpt lat="42.9634237" lon="12.2211044"><ele>599.5</ele><time>2026-05-02T08:19:16.729Z</time></trkpt><trkpt lat="42.9633635" lon="12.2210225"><ele>598.3333333333333</ele><time>2026-05-02T08:19:17.729Z</time></trkpt><trkpt lat="42.9633137" lon="12.2209393"><ele>597.1666666666666</ele><time>2026-05-02T08:19:18.729Z</time></trkpt><trkpt lat="42.9632471" lon="12.2208615"><ele>596.0</ele><time>2026-05-02T08:19:19.729Z</time></trkpt><trkpt lat="42.9631812" lon="12.2208046"><ele>596.0</ele><time>2026-05-02T08:19:20.729Z</time></trkpt><trkpt lat="42.9631227" lon="12.2207386"><ele>596.0</ele><time>2026-05-02T08:19:21.728Z</time></trkpt><trkpt lat="42.9630614" lon="12.2206749"><ele>596.0</ele><time>2026-05-02T08:19:22.729Z</time></trkpt><trkpt lat="42.9629975" lon="12.220607"><ele>596.0</ele><time>2026-05-02T08:19:23.729Z</time></trkpt><trkpt lat="42.9629375" lon="12.2205354"><ele>596.0</ele><time>2026-05-02T08:19:24.729Z</time></trkpt><trkpt lat="42.962885" lon="12.220475"><ele>596.0</ele><time>2026-05-02T08:19:25.729Z</time></trkpt><trkpt lat="42.9628308" lon="12.2204199"><ele>594.8333333333333</ele><time>2026-05-02T08:19:26.729Z</time></trkpt><trkpt lat="42.9627654" lon="12.2203866"><ele>593.6666666666666</ele><time>2026-05-02T08:19:27.729Z</time></trkpt><trkpt lat="42.9626906" lon="12.2203562"><ele>592.5</ele><time>2026-05-02T08:19:28.729Z</time></trkpt><trkpt lat="42.9626135" lon="12.2203365"><ele>591.3333333333334</ele><time>2026-05-02T08:19:29.729Z</time></trkpt><trkpt lat="42.9625301" lon="12.2203182"><ele>590.1666666666667</ele><time>2026-05-02T08:19:30.729Z</time></trkpt><trkpt lat="42.9624497" lon="12.2202841"><ele>589.0</ele><time>2026-05-02T08:19:31.729Z</time></trkpt><trkpt lat="42.9623844" lon="12.2202548"><ele>588.0</ele><time>2026-05-02T08:19:32.729Z</time></trkpt><trkpt lat="42.9623212" lon="12.220221"><ele>587.0</ele><time>2026-05-02T08:19:33.729Z</time></trkpt><trkpt lat="42.9622078" lon="12.2201609"><ele>586.0</ele><time>2026-05-02T08:19:35.729Z</time></trkpt><trkpt lat="42.9620818" lon="12.2201308"><ele>585.0</ele><time>2026-05-02T08:19:37.729Z</time></trkpt><trkpt lat="42.9619553" lon="12.2201467"><ele>584.0</ele><time>2026-05-02T08:19:39.729Z</time></trkpt><trkpt lat="42.961889" lon="12.2201573"><ele>584.0</ele><time>2026-05-02T08:19:40.729Z</time></trkpt><trkpt lat="42.9618232" lon="12.2201748"><ele>584.0</ele><time>2026-05-02T08:19:41.729Z</time></trkpt><trkpt lat="42.9617581" lon="12.2201899"><ele>584.0</ele><time>2026-05-02T08:19:42.729Z</time></trkpt><trkpt lat="42.961644" lon="12.2202372"><ele>584.0</ele><time>2026-05-02T08:19:44.729Z</time></trkpt><trkpt lat="42.9615781" lon="12.2202614"><ele>584.0</ele><time>2026-05-02T08:19:45.729Z</time></trkpt><trkpt lat="42.9615056" lon="12.2202854"><ele>584.0</ele><time>2026-05-02T08:19:46.729Z</time></trkpt><trkpt lat="42.9614209" lon="12.2203048"><ele>582.3333333333333</ele><time>2026-05-02T08:19:47.729Z</time></trkpt><trkpt lat="42.9613315" lon="12.2203099"><ele>580.6666666666666</ele><time>2026-05-02T08:19:48.729Z</time></trkpt><trkpt lat="42.9612523" lon="12.2203013"><ele>579.0</ele><time>2026-05-02T08:19:49.729Z</time></trkpt><trkpt lat="42.9611711" lon="12.2202956"><ele>577.3333333333334</ele><time>2026-05-02T08:19:50.729Z</time></trkpt><trkpt lat="42.9610912" lon="12.2203092"><ele>575.6666666666667</ele><time>2026-05-02T08:19:51.729Z</time></trkpt><trkpt lat="42.9610007" lon="12.2203161"><ele>574.0</ele><time>2026-05-02T08:19:52.729Z</time></trkpt><trkpt lat="42.96091" lon="12.220308"><ele>572.8</ele><time>2026-05-02T08:19:53.729Z</time></trkpt><trkpt lat="42.9608161" lon="12.2202934"><ele>571.5999999999999</ele><time>2026-05-02T08:19:54.729Z</time></trkpt><trkpt lat="42.9607271" lon="12.2202652"><ele>570.4</ele><time>2026-05-02T08:19:55.729Z</time></trkpt><trkpt lat="42.9606605" lon="12.2202403"><ele>569.1999999999999</ele><time>2026-05-02T08:19:56.729Z</time></trkpt><trkpt lat="42.960547" lon="12.2202137"><ele>568.0</ele><time>2026-05-02T08:19:58.729Z</time></trkpt><trkpt lat="42.9604666" lon="12.2201315"><ele>568.0</ele><time>2026-05-02T08:19:59.729Z</time></trkpt><trkpt lat="42.9603919" lon="12.220102"><ele>568.0</ele><time>2026-05-02T08:20:00.729Z</time></trkpt><trkpt lat="42.9603213" lon="12.220067"><ele>568.0</ele><time>2026-05-02T08:20:01.729Z</time></trkpt><trkpt lat="42.9602504" lon="12.220023"><ele>568.0</ele><time>2026-05-02T08:20:02.729Z</time></trkpt><trkpt lat="42.9601842" lon="12.2199701"><ele>568.0</ele><time>2026-05-02T08:20:03.729Z</time></trkpt><trkpt lat="42.9601315" lon="12.2199062"><ele>568.0</ele><time>2026-05-02T08:20:04.729Z</time></trkpt><trkpt lat="42.9600712" lon="12.2197793"><ele>567.0</ele><time>2026-05-02T08:20:06.729Z</time></trkpt><trkpt lat="42.9600536" lon="12.2196355"><ele>566.0</ele><time>2026-05-02T08:20:08.729Z</time></trkpt><trkpt lat="42.9600107" lon="12.219478"><ele>565.0</ele><time>2026-05-02T08:20:10.729Z</time></trkpt><trkpt lat="42.9599733" lon="12.2194075"><ele>564.0</ele><time>2026-05-02T08:20:11.729Z</time></trkpt><trkpt lat="42.9598929" lon="12.2193015"><ele>563.0</ele><time>2026-05-02T08:20:13.729Z</time></trkpt><trkpt lat="42.9598047" lon="12.2192116"><ele>564.6666666666666</ele><time>2026-05-02T08:20:15.729Z</time></trkpt><trkpt lat="42.9597003" lon="12.2191798"><ele>566.3333333333333</ele><time>2026-05-02T08:20:17.729Z</time></trkpt><trkpt lat="42.9595938" lon="12.2191749"><ele>568.0</ele><time>2026-05-02T08:20:19.729Z</time></trkpt><trkpt lat="42.9595281" lon="12.2191744"><ele>569.6666666666666</ele><time>2026-05-02T08:20:20.729Z</time></trkpt><trkpt lat="42.9594638" lon="12.2191599"><ele>571.3333333333334</ele><time>2026-05-02T08:20:21.729Z</time></trkpt><trkpt lat="42.959391" lon="12.2191313"><ele>573.0</ele><time>2026-05-02T08:20:22.729Z</time></trkpt><trkpt lat="42.9593092" lon="12.2190954"><ele>573.0</ele><time>2026-05-02T08:20:23.729Z</time></trkpt><trkpt lat="42.9592203" lon="12.2190348"><ele>573.0</ele><time>2026-05-02T08:20:24.729Z</time></trkpt><trkpt lat="42.9591428" lon="12.2189797"><ele>573.0</ele><time>2026-05-02T08:20:25.729Z</time></trkpt><trkpt lat="42.9590651" lon="12.2189569"><ele>573.0</ele><time>2026-05-02T08:20:26.729Z</time></trkpt><trkpt lat="42.9589898" lon="12.2189393"><ele>573.0</ele><time>2026-05-02T08:20:27.729Z</time></trkpt><trkpt lat="42.9589215" lon="12.2189331"><ele>573.0</ele><time>2026-05-02T08:20:28.729Z</time></trkpt><trkpt lat="42.9588567" lon="12.2189297"><ele>571.1666666666666</ele><time>2026-05-02T08:20:29.729Z</time></trkpt><trkpt lat="42.958771" lon="12.2189371"><ele>569.3333333333334</ele><time>2026-05-02T08:20:30.729Z</time></trkpt><trkpt lat="42.9586977" lon="12.2189355"><ele>567.5</ele><time>2026-05-02T08:20:31.729Z</time></trkpt><trkpt lat="42.958616" lon="12.2189221"><ele>565.6666666666667</ele><time>2026-05-02T08:20:32.729Z</time></trkpt><trkpt lat="42.9585409" lon="12.2188787"><ele>563.8333333333334</ele><time>2026-05-02T08:20:33.729Z</time></trkpt><trkpt lat="42.9584754" lon="12.2188467"><ele>562.0</ele><time>2026-05-02T08:20:34.729Z</time></trkpt><trkpt lat="42.9583958" lon="12.2188282"><ele>562.6</ele><time>2026-05-02T08:20:35.729Z</time></trkpt><trkpt lat="42.9583322" lon="12.2188108"><ele>563.2</ele><time>2026-05-02T08:20:36.729Z</time></trkpt><trkpt lat="42.9582302" lon="12.2187486"><ele>563.8</ele><time>2026-05-02T08:20:38.729Z</time></trkpt><trkpt lat="42.9581619" lon="12.2186669"><ele>564.4</ele><time>2026-05-02T08:20:40.729Z</time></trkpt><trkpt lat="42.9581319" lon="12.2185357"><ele>565.0</ele><time>2026-05-02T08:20:42.729Z</time></trkpt><trkpt lat="42.9580522" lon="12.2184136"><ele>565.0</ele><time>2026-05-02T08:20:44.729Z</time></trkpt><trkpt lat="42.9579977" lon="12.2183609"><ele>565.0</ele><time>2026-05-02T08:20:45.729Z</time></trkpt><trkpt lat="42.9579403" lon="12.2183109"><ele>565.0</ele><time>2026-05-02T08:20:46.729Z</time></trkpt><trkpt lat="42.9578744" lon="12.2182591"><ele>565.0</ele><time>2026-05-02T08:20:47.729Z</time></trkpt><trkpt lat="42.9578004" lon="12.2182069"><ele>565.0</ele><time>2026-05-02T08:20:48.729Z</time></trkpt><trkpt lat="42.9577271" lon="12.2181564"><ele>565.0</ele><time>2026-05-02T08:20:49.729Z</time></trkpt><trkpt lat="42.9576457" lon="12.2181102"><ele>565.6666666666667</ele><time>2026-05-02T08:20:50.729Z</time></trkpt><trkpt lat="42.957563" lon="12.2180669"><ele>566.3333333333334</ele><time>2026-05-02T08:20:51.729Z</time></trkpt><trkpt lat="42.9574913" lon="12.2180141"><ele>567.0</ele><time>2026-05-02T08:20:52.729Z</time></trkpt><trkpt lat="42.9574216" lon="12.2179505"><ele>567.6666666666666</ele><time>2026-05-02T08:20:53.729Z</time></trkpt><trkpt lat="42.9573587" lon="12.2178908"><ele>568.3333333333333</ele><time>2026-05-02T08:20:54.729Z</time></trkpt><trkpt lat="42.957292" lon="12.2178178"><ele>569.0</ele><time>2026-05-02T08:20:55.729Z</time></trkpt><trkpt lat="42.9572158" lon="12.2177441"><ele>569.0</ele><time>2026-05-02T08:20:56.729Z</time></trkpt><trkpt lat="42.9571394" lon="12.2176742"><ele>569.0</ele><time>2026-05-02T08:20:57.729Z</time></trkpt><trkpt lat="42.957075" lon="12.2176101"><ele>569.0</ele><time>2026-05-02T08:20:58.729Z</time></trkpt><trkpt lat="42.9570173" lon="12.2175488"><ele>569.0</ele><time>2026-05-02T08:20:59.729Z</time></trkpt><trkpt lat="42.9569669" lon="12.2174733"><ele>569.0</ele><time>2026-05-02T08:21:00.729Z</time></trkpt><trkpt lat="42.9569321" lon="12.2173684"><ele>569.0</ele><time>2026-05-02T08:21:01.729Z</time></trkpt><trkpt lat="42.9568983" lon="12.2172651"><ele>568.6666666666666</ele><time>2026-05-02T08:21:02.729Z</time></trkpt><trkpt lat="42.9568796" lon="12.217155"><ele>568.3333333333333</ele><time>2026-05-02T08:21:03.729Z</time></trkpt><trkpt lat="42.9568362" lon="12.2170471"><ele>568.0</ele><time>2026-05-02T08:21:04.729Z</time></trkpt><trkpt lat="42.956782" lon="12.2169655"><ele>567.6666666666666</ele><time>2026-05-02T08:21:05.729Z</time></trkpt><trkpt lat="42.9567302" lon="12.2168937"><ele>567.3333333333334</ele><time>2026-05-02T08:21:06.729Z</time></trkpt><trkpt lat="42.9566722" lon="12.2168302"><ele>567.0</ele><time>2026-05-02T08:21:07.729Z</time></trkpt><trkpt lat="42.9566161" lon="12.2167731"><ele>567.0</ele><time>2026-05-02T08:21:08.729Z</time></trkpt><trkpt lat="42.9565574" lon="12.2167138"><ele>567.0</ele><time>2026-05-02T08:21:09.729Z</time></trkpt><trkpt lat="42.956486" lon="12.2166532"><ele>567.0</ele><time>2026-05-02T08:21:10.729Z</time></trkpt><trkpt lat="42.956429" lon="12.2166055"><ele>567.0</ele><time>2026-05-02T08:21:11.729Z</time></trkpt><trkpt lat="42.9563658" lon="12.2165349"><ele>567.0</ele><time>2026-05-02T08:21:12.728Z</time></trkpt><trkpt lat="42.9563012" lon="12.2164773"><ele>567.0</ele><time>2026-05-02T08:21:13.729Z</time></trkpt><trkpt lat="42.9562362" lon="12.2164163"><ele>565.1666666666666</ele><time>2026-05-02T08:21:14.729Z</time></trkpt><trkpt lat="42.9561786" lon="12.2163473"><ele>563.3333333333334</ele><time>2026-05-02T08:21:15.729Z</time></trkpt><trkpt lat="42.9561148" lon="12.2162824"><ele>561.5</ele><time>2026-05-02T08:21:16.729Z</time></trkpt><trkpt lat="42.95605" lon="12.2162129"><ele>559.6666666666667</ele><time>2026-05-02T08:21:17.729Z</time></trkpt><trkpt lat="42.9559829" lon="12.2161403"><ele>557.8333333333334</ele><time>2026-05-02T08:21:18.729Z</time></trkpt><trkpt lat="42.9559204" lon="12.2160597"><ele>556.0</ele><time>2026-05-02T08:21:19.729Z</time></trkpt><trkpt lat="42.955859" lon="12.2159637"><ele>556.0</ele><time>2026-05-02T08:21:20.729Z</time></trkpt><trkpt lat="42.9558019" lon="12.2158635"><ele>556.0</ele><time>2026-05-02T08:21:21.729Z</time></trkpt><trkpt lat="42.9557473" lon="12.2157714"><ele>556.0</ele><time>2026-05-02T08:21:22.729Z</time></trkpt><trkpt lat="42.9556968" lon="12.2156766"><ele>556.0</ele><time>2026-05-02T08:21:23.729Z</time></trkpt><trkpt lat="42.955646" lon="12.2155802"><ele>556.0</ele><time>2026-05-02T08:21:24.729Z</time></trkpt><trkpt lat="42.9555857" lon="12.2154938"><ele>556.0</ele><time>2026-05-02T08:21:25.729Z</time></trkpt><trkpt lat="42.9555276" lon="12.2154056"><ele>555.1666666666667</ele><time>2026-05-02T08:21:26.729Z</time></trkpt><trkpt lat="42.9554677" lon="12.215343"><ele>554.3333333333334</ele><time>2026-05-02T08:21:27.729Z</time></trkpt><trkpt lat="42.955416" lon="12.2152505"><ele>553.5</ele><time>2026-05-02T08:21:28.729Z</time></trkpt><trkpt lat="42.9553661" lon="12.2151592"><ele>552.6666666666666</ele><time>2026-05-02T08:21:29.729Z</time></trkpt><trkpt lat="42.9553128" lon="12.2150744"><ele>551.8333333333333</ele><time>2026-05-02T08:21:30.729Z</time></trkpt><trkpt lat="42.9552588" lon="12.2149949"><ele>551.0</ele><time>2026-05-02T08:21:31.729Z</time></trkpt><trkpt lat="42.9552102" lon="12.2149313"><ele>551.0</ele><time>2026-05-02T08:21:32.729Z</time></trkpt><trkpt lat="42.9551635" lon="12.214868"><ele>551.0</ele><time>2026-05-02T08:21:33.729Z</time></trkpt><trkpt lat="42.9550933" lon="12.2147522"><ele>551.0</ele><time>2026-05-02T08:21:35.729Z</time></trkpt><trkpt lat="42.9550373" lon="12.2145971"><ele>551.0</ele><time>2026-05-02T08:21:37.729Z</time></trkpt><trkpt lat="42.9550143" lon="12.214512"><ele>551.0</ele><time>2026-05-02T08:21:38.729Z</time></trkpt><trkpt lat="42.9549428" lon="12.2143843"><ele>552.0</ele><time>2026-05-02T08:21:40.729Z</time></trkpt><trkpt lat="42.9548907" lon="12.2143355"><ele>553.0</ele><time>2026-05-02T08:21:41.729Z</time></trkpt><trkpt lat="42.9547647" lon="12.2143211"><ele>554.0</ele><time>2026-05-02T08:21:43.729Z</time></trkpt><trkpt lat="42.954688" lon="12.2142034"><ele>555.0</ele><time>2026-05-02T08:21:45.729Z</time></trkpt><trkpt lat="42.9546739" lon="12.2140969"><ele>556.0</ele><time>2026-05-02T08:21:46.729Z</time></trkpt><trkpt lat="42.9546541" lon="12.2139986"><ele>554.4285714285714</ele><time>2026-05-02T08:21:47.729Z</time></trkpt><trkpt lat="42.9546308" lon="12.2139072"><ele>552.8571428571429</ele><time>2026-05-02T08:21:48.729Z</time></trkpt><trkpt lat="42.954606" lon="12.2138214"><ele>551.2857142857143</ele><time>2026-05-02T08:21:49.729Z</time></trkpt><trkpt lat="42.9545599" lon="12.2137422"><ele>549.7142857142858</ele><time>2026-05-02T08:21:50.729Z</time></trkpt><trkpt lat="42.9545145" lon="12.2136716"><ele>548.1428571428572</ele><time>2026-05-02T08:21:51.729Z</time></trkpt><trkpt lat="42.9544723" lon="12.2135936"><ele>546.5714285714286</ele><time>2026-05-02T08:21:52.729Z</time></trkpt><trkpt lat="42.9544396" lon="12.2135092"><ele>545.0</ele><time>2026-05-02T08:21:53.729Z</time></trkpt><trkpt lat="42.9544158" lon="12.2134115"><ele>545.0</ele><time>2026-05-02T08:21:54.729Z</time></trkpt><trkpt lat="42.9543983" lon="12.2133053"><ele>545.0</ele><time>2026-05-02T08:21:55.729Z</time></trkpt><trkpt lat="42.9543834" lon="12.2131905"><ele>545.0</ele><time>2026-05-02T08:21:56.729Z</time></trkpt><trkpt lat="42.9543669" lon="12.2130785"><ele>545.0</ele><time>2026-05-02T08:21:57.729Z</time></trkpt><trkpt lat="42.9543355" lon="12.2129879"><ele>545.0</ele><time>2026-05-02T08:21:58.729Z</time></trkpt><trkpt lat="42.9542775" lon="12.2129075"><ele>545.0</ele><time>2026-05-02T08:21:59.729Z</time></trkpt><trkpt lat="42.9542068" lon="12.2128336"><ele>548.8</ele><time>2026-05-02T08:22:00.729Z</time></trkpt><trkpt lat="42.9541338" lon="12.2127648"><ele>552.6</ele><time>2026-05-02T08:22:01.729Z</time></trkpt><trkpt lat="42.9540628" lon="12.2126934"><ele>556.4</ele><time>2026-05-02T08:22:02.729Z</time></trkpt><trkpt lat="42.9539875" lon="12.2126159"><ele>560.2</ele><time>2026-05-02T08:22:03.729Z</time></trkpt><trkpt lat="42.9539203" lon="12.2125254"><ele>564.0</ele><time>2026-05-02T08:22:04.729Z</time></trkpt><trkpt lat="42.9538508" lon="12.212437"><ele>561.6</ele><time>2026-05-02T08:22:05.729Z</time></trkpt><trkpt lat="42.9537946" lon="12.2123228"><ele>559.2</ele><time>2026-05-02T08:22:06.729Z</time></trkpt><trkpt lat="42.9537316" lon="12.2122213"><ele>556.8000000000001</ele><time>2026-05-02T08:22:07.729Z</time></trkpt><trkpt lat="42.9536564" lon="12.2121388"><ele>554.4</ele><time>2026-05-02T08:22:08.729Z</time></trkpt><trkpt lat="42.9535717" lon="12.2120754"><ele>552.0</ele><time>2026-05-02T08:22:09.729Z</time></trkpt><trkpt lat="42.9534767" lon="12.2120168"><ele>552.0</ele><time>2026-05-02T08:22:10.729Z</time></trkpt><trkpt lat="42.9533787" lon="12.2119654"><ele>552.0</ele><time>2026-05-02T08:22:11.729Z</time></trkpt><trkpt lat="42.9532781" lon="12.2119178"><ele>552.0</ele><time>2026-05-02T08:22:12.729Z</time></trkpt><trkpt lat="42.9531769" lon="12.2118782"><ele>552.0</ele><time>2026-05-02T08:22:13.729Z</time></trkpt><trkpt lat="42.9530841" lon="12.2118372"><ele>552.0</ele><time>2026-05-02T08:22:14.729Z</time></trkpt><trkpt lat="42.9529986" lon="12.2117822"><ele>552.0</ele><time>2026-05-02T08:22:15.729Z</time></trkpt><trkpt lat="42.9529161" lon="12.2117218"><ele>552.0</ele><time>2026-05-02T08:22:16.729Z</time></trkpt><trkpt lat="42.9528258" lon="12.2116484"><ele>552.0</ele><time>2026-05-02T08:22:17.729Z</time></trkpt><trkpt lat="42.9527404" lon="12.2115622"><ele>552.0</ele><time>2026-05-02T08:22:18.729Z</time></trkpt><trkpt lat="42.952678" lon="12.2114668"><ele>552.0</ele><time>2026-05-02T08:22:19.729Z</time></trkpt><trkpt lat="42.9526266" lon="12.2113445"><ele>552.0</ele><time>2026-05-02T08:22:20.729Z</time></trkpt><trkpt lat="42.9525756" lon="12.2112226"><ele>552.0</ele><time>2026-05-02T08:22:21.729Z</time></trkpt><trkpt lat="42.9525326" lon="12.211098"><ele>552.0</ele><time>2026-05-02T08:22:22.729Z</time></trkpt><trkpt lat="42.9524901" lon="12.2109791"><ele>552.0</ele><time>2026-05-02T08:22:23.729Z</time></trkpt><trkpt lat="42.952481" lon="12.2108779"><ele>552.0</ele><time>2026-05-02T08:22:24.729Z</time></trkpt><trkpt lat="42.9524815" lon="12.2107654"><ele>554.2857142857143</ele><time>2026-05-02T08:22:25.729Z</time></trkpt><trkpt lat="42.9524814" lon="12.2106561"><ele>556.5714285714287</ele><time>2026-05-02T08:22:26.729Z</time></trkpt><trkpt lat="42.9524784" lon="12.2105585"><ele>558.8571428571429</ele><time>2026-05-02T08:22:27.729Z</time></trkpt><trkpt lat="42.9524812" lon="12.2104421"><ele>561.1428571428571</ele><time>2026-05-02T08:22:29.729Z</time></trkpt><trkpt lat="42.9524566" lon="12.2103529"><ele>563.4285714285713</ele><time>2026-05-02T08:22:31.729Z</time></trkpt><trkpt lat="42.9523855" lon="12.2103552"><ele>565.7142857142857</ele><time>2026-05-02T08:22:35.729Z</time></trkpt><trkpt lat="42.9523707" lon="12.2104434"><ele>568.0</ele><time>2026-05-02T08:22:40.729Z</time></trkpt><trkpt lat="42.9523894" lon="12.2105419"><ele>569.0</ele><time>2026-05-02T08:22:48.729Z</time></trkpt><trkpt lat="42.9524073" lon="12.210669"><ele>570.0</ele><time>2026-05-02T08:22:50.729Z</time></trkpt><trkpt lat="42.9523866" lon="12.2107841"><ele>571.0</ele><time>2026-05-02T08:22:52.729Z</time></trkpt><trkpt lat="42.9523737" lon="12.2109056"><ele>572.0</ele><time>2026-05-02T08:22:54.729Z</time></trkpt><trkpt lat="42.95234" lon="12.2110213"><ele>573.0</ele><time>2026-05-02T08:22:56.729Z</time></trkpt><trkpt lat="42.9522668" lon="12.2111048"><ele>573.0</ele><time>2026-05-02T08:22:58.729Z</time></trkpt><trkpt lat="42.9521648" lon="12.2111372"><ele>573.0</ele><time>2026-05-02T08:23:00.729Z</time></trkpt><trkpt lat="42.9520941" lon="12.2111172"><ele>573.0</ele><time>2026-05-02T08:23:01.729Z</time></trkpt><trkpt lat="42.9520246" lon="12.2110943"><ele>573.0</ele><time>2026-05-02T08:23:02.729Z</time></trkpt><trkpt lat="42.9519465" lon="12.2110728"><ele>573.0</ele><time>2026-05-02T08:23:03.729Z</time></trkpt><trkpt lat="42.9518695" lon="12.2110453"><ele>573.0</ele><time>2026-05-02T08:23:04.729Z</time></trkpt><trkpt lat="42.9517903" lon="12.2110204"><ele>573.0</ele><time>2026-05-02T08:23:05.729Z</time></trkpt><trkpt lat="42.9517097" lon="12.2109939"><ele>573.0</ele><time>2026-05-02T08:23:06.729Z</time></trkpt><trkpt lat="42.9516266" lon="12.2109757"><ele>573.0</ele><time>2026-05-02T08:23:07.729Z</time></trkpt><trkpt lat="42.9515398" lon="12.2109535"><ele>573.0</ele><time>2026-05-02T08:23:08.729Z</time></trkpt><trkpt lat="42.9514454" lon="12.2109486"><ele>573.0</ele><time>2026-05-02T08:23:09.729Z</time></trkpt><trkpt lat="42.9513443" lon="12.2109481"><ele>573.6</ele><time>2026-05-02T08:23:10.729Z</time></trkpt><trkpt lat="42.9512391" lon="12.210957"><ele>574.1999999999999</ele><time>2026-05-02T08:23:11.729Z</time></trkpt><trkpt lat="42.9511365" lon="12.2109586"><ele>574.8</ele><time>2026-05-02T08:23:12.729Z</time></trkpt><trkpt lat="42.9510333" lon="12.2109588"><ele>575.4</ele><time>2026-05-02T08:23:13.729Z</time></trkpt><trkpt lat="42.95093" lon="12.2109716"><ele>576.0</ele><time>2026-05-02T08:23:14.729Z</time></trkpt><trkpt lat="42.950841" lon="12.2109918"><ele>576.0</ele><time>2026-05-02T08:23:15.729Z</time></trkpt><trkpt lat="42.9507462" lon="12.2110106"><ele>576.0</ele><time>2026-05-02T08:23:16.729Z</time></trkpt><trkpt lat="42.9506543" lon="12.2110211"><ele>576.0</ele><time>2026-05-02T08:23:17.729Z</time></trkpt><trkpt lat="42.9505557" lon="12.2109813"><ele>576.0</ele><time>2026-05-02T08:23:18.729Z</time></trkpt><trkpt lat="42.9504613" lon="12.2109585"><ele>576.0</ele><time>2026-05-02T08:23:19.729Z</time></trkpt><trkpt lat="42.9503495" lon="12.2109734"><ele>576.0</ele><time>2026-05-02T08:23:20.729Z</time></trkpt><trkpt lat="42.9502172" lon="12.211022"><ele>576.0</ele><time>2026-05-02T08:23:21.729Z</time></trkpt><trkpt lat="42.9500918" lon="12.2110762"><ele>576.0</ele><time>2026-05-02T08:23:22.729Z</time></trkpt><trkpt lat="42.9499796" lon="12.2111026"><ele>576.0</ele><time>2026-05-02T08:23:23.728Z</time></trkpt><trkpt lat="42.9498732" lon="12.2111199"><ele>574.5</ele><time>2026-05-02T08:23:24.729Z</time></trkpt><trkpt lat="42.9497641" lon="12.21111"><ele>573.0</ele><time>2026-05-02T08:23:25.729Z</time></trkpt><trkpt lat="42.9496591" lon="12.2110968"><ele>571.5</ele><time>2026-05-02T08:23:26.729Z</time></trkpt><trkpt lat="42.9495492" lon="12.211044"><ele>570.0</ele><time>2026-05-02T08:23:27.729Z</time></trkpt><trkpt lat="42.9494341" lon="12.2109951"><ele>570.0</ele><time>2026-05-02T08:23:28.729Z</time></trkpt><trkpt lat="42.9493265" lon="12.2109393"><ele>570.0</ele><time>2026-05-02T08:23:29.729Z</time></trkpt><trkpt lat="42.9492242" lon="12.2108783"><ele>570.0</ele><time>2026-05-02T08:23:30.729Z</time></trkpt><trkpt lat="42.9491331" lon="12.2108212"><ele>570.0</ele><time>2026-05-02T08:23:31.729Z</time></trkpt><trkpt lat="42.949048" lon="12.210793"><ele>570.0</ele><time>2026-05-02T08:23:32.729Z</time></trkpt><trkpt lat="42.9489655" lon="12.2107925"><ele>569.4285714285714</ele><time>2026-05-02T08:23:33.729Z</time></trkpt><trkpt lat="42.9488853" lon="12.210808"><ele>568.8571428571429</ele><time>2026-05-02T08:23:34.729Z</time></trkpt><trkpt lat="42.9488176" lon="12.2108289"><ele>568.2857142857143</ele><time>2026-05-02T08:23:35.729Z</time></trkpt><trkpt lat="42.948747" lon="12.2108446"><ele>567.7142857142858</ele><time>2026-05-02T08:23:36.729Z</time></trkpt><trkpt lat="42.9486758" lon="12.2108489"><ele>567.1428571428572</ele><time>2026-05-02T08:23:37.729Z</time></trkpt><trkpt lat="42.9486043" lon="12.2108492"><ele>566.5714285714286</ele><time>2026-05-02T08:23:38.729Z</time></trkpt><trkpt lat="42.9485362" lon="12.2108465"><ele>566.0</ele><time>2026-05-02T08:23:39.729Z</time></trkpt><trkpt lat="42.9484655" lon="12.2108435"><ele>566.0</ele><time>2026-05-02T08:23:40.729Z</time></trkpt><trkpt lat="42.9483902" lon="12.2108441"><ele>566.0</ele><time>2026-05-02T08:23:41.729Z</time></trkpt><trkpt lat="42.9483132" lon="12.2108477"><ele>566.0</ele><time>2026-05-02T08:23:42.729Z</time></trkpt><trkpt lat="42.9482333" lon="12.2108469"><ele>566.0</ele><time>2026-05-02T08:23:43.729Z</time></trkpt><trkpt lat="42.948158" lon="12.2108517"><ele>566.0</ele><time>2026-05-02T08:23:44.729Z</time></trkpt><trkpt lat="42.9480812" lon="12.2108453"><ele>566.0</ele><time>2026-05-02T08:23:45.728Z</time></trkpt><trkpt lat="42.9480049" lon="12.2108351"><ele>565.5</ele><time>2026-05-02T08:23:46.729Z</time></trkpt><trkpt lat="42.9479303" lon="12.2108133"><ele>565.0</ele><time>2026-05-02T08:23:47.729Z</time></trkpt><trkpt lat="42.9478541" lon="12.210794"><ele>564.5</ele><time>2026-05-02T08:23:48.729Z</time></trkpt><trkpt lat="42.9477817" lon="12.2107764"><ele>564.0</ele><time>2026-05-02T08:23:49.729Z</time></trkpt><trkpt lat="42.9477073" lon="12.2107583"><ele>563.5</ele><time>2026-05-02T08:23:50.729Z</time></trkpt><trkpt lat="42.9476302" lon="12.2107423"><ele>563.0</ele><time>2026-05-02T08:23:51.729Z</time></trkpt><trkpt lat="42.9475504" lon="12.2107192"><ele>561.4285714285714</ele><time>2026-05-02T08:23:52.729Z</time></trkpt><trkpt lat="42.9474733" lon="12.210702"><ele>559.8571428571429</ele><time>2026-05-02T08:23:53.729Z</time></trkpt><trkpt lat="42.9473967" lon="12.2106984"><ele>558.2857142857143</ele><time>2026-05-02T08:23:54.729Z</time></trkpt><trkpt lat="42.9473247" lon="12.2106919"><ele>556.7142857142858</ele><time>2026-05-02T08:23:55.729Z</time></trkpt><trkpt lat="42.9472522" lon="12.2106852"><ele>555.1428571428572</ele><time>2026-05-02T08:23:56.729Z</time></trkpt><trkpt lat="42.9471824" lon="12.2106722"><ele>553.5714285714286</ele><time>2026-05-02T08:23:57.729Z</time></trkpt><trkpt lat="42.9471154" lon="12.2106613"><ele>552.0</ele><time>2026-05-02T08:23:58.729Z</time></trkpt><trkpt lat="42.9470483" lon="12.21065"><ele>550.4</ele><time>2026-05-02T08:23:59.729Z</time></trkpt><trkpt lat="42.9469291" lon="12.2106315"><ele>548.8000000000001</ele><time>2026-05-02T08:24:01.728Z</time></trkpt><trkpt lat="42.9468518" lon="12.2105874"><ele>547.2</ele><time>2026-05-02T08:24:02.729Z</time></trkpt><trkpt lat="42.9467696" lon="12.2105516"><ele>545.6</ele><time>2026-05-02T08:24:03.729Z</time></trkpt><trkpt lat="42.9466903" lon="12.2105184"><ele>544.0</ele><time>2026-05-02T08:24:04.729Z</time></trkpt><trkpt lat="42.9466146" lon="12.2104776"><ele>543.5</ele><time>2026-05-02T08:24:05.729Z</time></trkpt><trkpt lat="42.9465324" lon="12.2104302"><ele>543.0</ele><time>2026-05-02T08:24:06.729Z</time></trkpt><trkpt lat="42.9464438" lon="12.2103947"><ele>542.5</ele><time>2026-05-02T08:24:07.729Z</time></trkpt><trkpt lat="42.9463511" lon="12.2103727"><ele>542.0</ele><time>2026-05-02T08:24:08.729Z</time></trkpt><trkpt lat="42.9462684" lon="12.2103698"><ele>541.5</ele><time>2026-05-02T08:24:09.728Z</time></trkpt><trkpt lat="42.9461898" lon="12.2103699"><ele>541.0</ele><time>2026-05-02T08:24:10.729Z</time></trkpt><trkpt lat="42.9461055" lon="12.2104043"><ele>541.0</ele><time>2026-05-02T08:24:11.729Z</time></trkpt><trkpt lat="42.9460268" lon="12.2104319"><ele>541.0</ele><time>2026-05-02T08:24:12.729Z</time></trkpt><trkpt lat="42.9459431" lon="12.2104443"><ele>541.0</ele><time>2026-05-02T08:24:13.729Z</time></trkpt><trkpt lat="42.9458408" lon="12.210428"><ele>541.0</ele><time>2026-05-02T08:24:14.729Z</time></trkpt><trkpt lat="42.9457338" lon="12.2104023"><ele>541.0</ele><time>2026-05-02T08:24:15.729Z</time></trkpt><trkpt lat="42.9456284" lon="12.2103728"><ele>540.8333333333334</ele><time>2026-05-02T08:24:16.729Z</time></trkpt><trkpt lat="42.9455307" lon="12.2103535"><ele>540.6666666666667</ele><time>2026-05-02T08:24:17.729Z</time></trkpt><trkpt lat="42.9454341" lon="12.2103489"><ele>540.5</ele><time>2026-05-02T08:24:18.729Z</time></trkpt><trkpt lat="42.9453435" lon="12.2103453"><ele>540.3333333333334</ele><time>2026-05-02T08:24:19.729Z</time></trkpt><trkpt lat="42.9452634" lon="12.2103342"><ele>540.1666666666666</ele><time>2026-05-02T08:24:20.729Z</time></trkpt><trkpt lat="42.9451899" lon="12.2103213"><ele>540.0</ele><time>2026-05-02T08:24:21.729Z</time></trkpt><trkpt lat="42.9451239" lon="12.2102872"><ele>540.0</ele><time>2026-05-02T08:24:22.729Z</time></trkpt><trkpt lat="42.9450639" lon="12.2102371"><ele>540.0</ele><time>2026-05-02T08:24:23.729Z</time></trkpt><trkpt lat="42.9449671" lon="12.2101533"><ele>540.0</ele><time>2026-05-02T08:24:25.729Z</time></trkpt><trkpt lat="42.9449228" lon="12.2100514"><ele>540.0</ele><time>2026-05-02T08:24:27.729Z</time></trkpt><trkpt lat="42.9448755" lon="12.2099616"><ele>540.0</ele><time>2026-05-02T08:24:31.729Z</time></trkpt><trkpt lat="42.9448874" lon="12.2098676"><ele>540.0</ele><time>2026-05-02T08:24:34.729Z</time></trkpt><trkpt lat="42.9449746" lon="12.2098304"><ele>538.0</ele><time>2026-05-02T08:24:36.729Z</time></trkpt><trkpt lat="42.9450805" lon="12.2097996"><ele>536.0</ele><time>2026-05-02T08:24:38.729Z</time></trkpt><trkpt lat="42.9451868" lon="12.2097641"><ele>534.0</ele><time>2026-05-02T08:24:40.729Z</time></trkpt><trkpt lat="42.9452675" lon="12.2097396"><ele>532.0</ele><time>2026-05-02T08:24:42.729Z</time></trkpt><trkpt lat="42.9453368" lon="12.2097185"><ele>530.0</ele><time>2026-05-02T08:24:45.729Z</time></trkpt><trkpt lat="42.9454012" lon="12.2096986"><ele>528.0</ele><time>2026-05-02T08:24:48.729Z</time></trkpt><trkpt lat="42.9454735" lon="12.2096939"><ele>528.0</ele><time>2026-05-02T08:24:51.729Z</time></trkpt><trkpt lat="42.945545" lon="12.209681"><ele>528.0</ele><time>2026-05-02T08:24:53.729Z</time></trkpt><trkpt lat="42.9456282" lon="12.2096672"><ele>528.0</ele><time>2026-05-02T08:24:56.729Z</time></trkpt><trkpt lat="42.9456935" lon="12.2096537"><ele>528.0</ele><time>2026-05-02T08:24:58.729Z</time></trkpt><trkpt lat="42.945762" lon="12.2096322"><ele>528.0</ele><time>2026-05-02T08:25:00.729Z</time></trkpt><trkpt lat="42.9458266" lon="12.209608"><ele>528.0</ele><time>2026-05-02T08:25:02.729Z</time></trkpt><trkpt lat="42.9458856" lon="12.2095598"><ele>528.0</ele><time>2026-05-02T08:25:04.729Z</time></trkpt><trkpt lat="42.9459341" lon="12.2094972"><ele>528.0</ele><time>2026-05-02T08:25:06.729Z</time></trkpt><trkpt lat="42.9459854" lon="12.2094243"><ele>528.0</ele><time>2026-05-02T08:25:08.729Z</time></trkpt><trkpt lat="42.9460501" lon="12.2093473"><ele>528.0</ele><time>2026-05-02T08:25:10.729Z</time></trkpt><trkpt lat="42.9461166" lon="12.2092803"><ele>528.0</ele><time>2026-05-02T08:25:12.729Z</time></trkpt><trkpt lat="42.9461823" lon="12.2092082"><ele>528.0</ele><time>2026-05-02T08:25:14.729Z</time></trkpt><trkpt lat="42.9462493" lon="12.209133"><ele>528.0</ele><time>2026-05-02T08:25:16.729Z</time></trkpt><trkpt lat="42.9463328" lon="12.2090611"><ele>528.0</ele><time>2026-05-02T08:25:18.729Z</time></trkpt><trkpt lat="42.9463937" lon="12.2090298"><ele>528.0</ele><time>2026-05-02T08:25:19.729Z</time></trkpt><trkpt lat="42.9464996" lon="12.2089634"><ele>528.0</ele><time>2026-05-02T08:25:21.729Z</time></trkpt><trkpt lat="42.9466164" lon="12.2089444"><ele>528.0</ele><time>2026-05-02T08:25:23.729Z</time></trkpt><trkpt lat="42.9466871" lon="12.2089622"><ele>528.0</ele><time>2026-05-02T08:25:24.729Z</time></trkpt><trkpt lat="42.9467615" lon="12.2089946"><ele>528.0</ele><time>2026-05-02T08:25:25.729Z</time></trkpt><trkpt lat="42.9468274" lon="12.20903"><ele>528.8333333333334</ele><time>2026-05-02T08:25:26.729Z</time></trkpt><trkpt lat="42.9468964" lon="12.2090573"><ele>529.6666666666666</ele><time>2026-05-02T08:25:27.729Z</time></trkpt><trkpt lat="42.9470055" lon="12.2090255"><ele>530.5</ele><time>2026-05-02T08:25:29.729Z</time></trkpt><trkpt lat="42.9470604" lon="12.2089771"><ele>531.3333333333333</ele><time>2026-05-02T08:25:30.729Z</time></trkpt><trkpt lat="42.9471098" lon="12.2089023"><ele>532.1666666666666</ele><time>2026-05-02T08:25:31.729Z</time></trkpt><trkpt lat="42.9471507" lon="12.2088196"><ele>533.0</ele><time>2026-05-02T08:25:32.729Z</time></trkpt><trkpt lat="42.9471925" lon="12.2087275"><ele>530.5</ele><time>2026-05-02T08:25:33.729Z</time></trkpt><trkpt lat="42.9472325" lon="12.2086384"><ele>528.0</ele><time>2026-05-02T08:25:34.729Z</time></trkpt><trkpt lat="42.9472703" lon="12.2085453"><ele>525.5</ele><time>2026-05-02T08:25:35.729Z</time></trkpt><trkpt lat="42.9473033" lon="12.2084655"><ele>523.0</ele><time>2026-05-02T08:25:36.729Z</time></trkpt><trkpt lat="42.9473377" lon="12.208381"><ele>520.5</ele><time>2026-05-02T08:25:37.729Z</time></trkpt><trkpt lat="42.9473884" lon="12.2082987"><ele>518.0</ele><time>2026-05-02T08:25:38.729Z</time></trkpt><trkpt lat="42.9474573" lon="12.2082087"><ele>517.8</ele><time>2026-05-02T08:25:39.729Z</time></trkpt><trkpt lat="42.9475471" lon="12.2081166"><ele>517.5999999999999</ele><time>2026-05-02T08:25:40.729Z</time></trkpt><trkpt lat="42.9476426" lon="12.2080161"><ele>517.4000000000001</ele><time>2026-05-02T08:25:41.729Z</time></trkpt><trkpt lat="42.947716" lon="12.20793"><ele>517.2</ele><time>2026-05-02T08:25:42.729Z</time></trkpt><trkpt lat="42.9477941" lon="12.2078396"><ele>517.0</ele><time>2026-05-02T08:25:43.729Z</time></trkpt><trkpt lat="42.9478342" lon="12.2076462"><ele>517.0</ele><time>2026-05-02T08:25:45.729Z</time></trkpt><trkpt lat="42.9478488" lon="12.2075293"><ele>517.0</ele><time>2026-05-02T08:25:46.729Z</time></trkpt><trkpt lat="42.947882" lon="12.2074366"><ele>517.0</ele><time>2026-05-02T08:25:47.729Z</time></trkpt><trkpt lat="42.9479833" lon="12.207336"><ele>517.0</ele><time>2026-05-02T08:25:49.729Z</time></trkpt><trkpt lat="42.9480497" lon="12.2073261"><ele>517.0</ele><time>2026-05-02T08:25:50.729Z</time></trkpt><trkpt lat="42.9481698" lon="12.2073742"><ele>517.0</ele><time>2026-05-02T08:25:52.729Z</time></trkpt><trkpt lat="42.948251" lon="12.2075182"><ele>517.0</ele><time>2026-05-02T08:25:53.729Z</time></trkpt><trkpt lat="42.948337" lon="12.2076235"><ele>517.0</ele><time>2026-05-02T08:25:54.729Z</time></trkpt><trkpt lat="42.9484157" lon="12.2077179"><ele>517.0</ele><time>2026-05-02T08:25:55.729Z</time></trkpt><trkpt lat="42.9484935" lon="12.2078054"><ele>514.6666666666667</ele><time>2026-05-02T08:25:56.729Z</time></trkpt><trkpt lat="42.948569" lon="12.2078804"><ele>512.3333333333334</ele><time>2026-05-02T08:25:57.729Z</time></trkpt><trkpt lat="42.9486459" lon="12.2079453"><ele>510.0</ele><time>2026-05-02T08:25:58.729Z</time></trkpt><trkpt lat="42.9487194" lon="12.2080031"><ele>507.66666666666663</ele><time>2026-05-02T08:25:59.729Z</time></trkpt><trkpt lat="42.9487883" lon="12.2080524"><ele>505.3333333333333</ele><time>2026-05-02T08:26:00.729Z</time></trkpt><trkpt lat="42.9488607" lon="12.2081038"><ele>503.0</ele><time>2026-05-02T08:26:01.729Z</time></trkpt><trkpt lat="42.9489272" lon="12.208134"><ele>505.16666666666663</ele><time>2026-05-02T08:26:02.729Z</time></trkpt><trkpt lat="42.9490047" lon="12.2081673"><ele>507.3333333333333</ele><time>2026-05-02T08:26:03.729Z</time></trkpt><trkpt lat="42.9491234" lon="12.2082141"><ele>509.5</ele><time>2026-05-02T08:26:05.729Z</time></trkpt><trkpt lat="42.9491824" lon="12.2082728"><ele>511.66666666666663</ele><time>2026-05-02T08:26:06.729Z</time></trkpt><trkpt lat="42.9492229" lon="12.2083575"><ele>513.8333333333334</ele><time>2026-05-02T08:26:07.729Z</time></trkpt><trkpt lat="42.9492517" lon="12.2084463"><ele>516.0</ele><time>2026-05-02T08:26:08.729Z</time></trkpt><trkpt lat="42.9493429" lon="12.2085361"><ele>516.0</ele><time>2026-05-02T08:26:10.729Z</time></trkpt><trkpt lat="42.9494112" lon="12.2085113"><ele>516.0</ele><time>2026-05-02T08:26:11.729Z</time></trkpt><trkpt lat="42.9494899" lon="12.2084562"><ele>516.0</ele><time>2026-05-02T08:26:12.729Z</time></trkpt><trkpt lat="42.9495555" lon="12.2084068"><ele>516.0</ele><time>2026-05-02T08:26:13.729Z</time></trkpt><trkpt lat="42.9496373" lon="12.2083673"><ele>516.0</ele><time>2026-05-02T08:26:14.729Z</time></trkpt><trkpt lat="42.9497144" lon="12.2083445"><ele>516.0</ele><time>2026-05-02T08:26:15.729Z</time></trkpt><trkpt lat="42.9497875" lon="12.2083297"><ele>516.0</ele><time>2026-05-02T08:26:16.729Z</time></trkpt><trkpt lat="42.9498556" lon="12.2083227"><ele>516.0</ele><time>2026-05-02T08:26:17.729Z</time></trkpt><trkpt lat="42.9499192" lon="12.2083045"><ele>516.0</ele><time>2026-05-02T08:26:18.729Z</time></trkpt><trkpt lat="42.9499877" lon="12.2081484"><ele>516.0</ele><time>2026-05-02T08:26:20.729Z</time></trkpt><trkpt lat="42.9499854" lon="12.2080579"><ele>516.0</ele><time>2026-05-02T08:26:21.729Z</time></trkpt><trkpt lat="42.9499595" lon="12.2079539"><ele>516.0</ele><time>2026-05-02T08:26:22.729Z</time></trkpt><trkpt lat="42.9499158" lon="12.2078428"><ele>516.0</ele><time>2026-05-02T08:26:23.729Z</time></trkpt><trkpt lat="42.949868" lon="12.2077372"><ele>516.0</ele><time>2026-05-02T08:26:24.729Z</time></trkpt><trkpt lat="42.9498262" lon="12.207628"><ele>516.0</ele><time>2026-05-02T08:26:25.729Z</time></trkpt><trkpt lat="42.949784" lon="12.2075112"><ele>516.0</ele><time>2026-05-02T08:26:26.729Z</time></trkpt><trkpt lat="42.9497528" lon="12.2073727"><ele>516.0</ele><time>2026-05-02T08:26:27.729Z</time></trkpt><trkpt lat="42.9497159" lon="12.2072177"><ele>517.75</ele><time>2026-05-02T08:26:28.729Z</time></trkpt><trkpt lat="42.9496896" lon="12.2070576"><ele>519.5</ele><time>2026-05-02T08:26:29.729Z</time></trkpt><trkpt lat="42.9496789" lon="12.206878"><ele>521.25</ele><time>2026-05-02T08:26:30.729Z</time></trkpt><trkpt lat="42.9496704" lon="12.2067032"><ele>523.0</ele><time>2026-05-02T08:26:31.729Z</time></trkpt><trkpt lat="42.949657" lon="12.2065308"><ele>523.25</ele><time>2026-05-02T08:26:32.729Z</time></trkpt><trkpt lat="42.9496339" lon="12.2063616"><ele>523.5</ele><time>2026-05-02T08:26:33.729Z</time></trkpt><trkpt lat="42.9496122" lon="12.2061894"><ele>523.75</ele><time>2026-05-02T08:26:34.729Z</time></trkpt><trkpt lat="42.9496021" lon="12.2060177"><ele>524.0</ele><time>2026-05-02T08:26:35.729Z</time></trkpt><trkpt lat="42.949592" lon="12.2058638"><ele>524.0</ele><time>2026-05-02T08:26:36.729Z</time></trkpt><trkpt lat="42.9495881" lon="12.2057028"><ele>524.0</ele><time>2026-05-02T08:26:37.729Z</time></trkpt><trkpt lat="42.9495895" lon="12.2055577"><ele>524.0</ele><time>2026-05-02T08:26:38.729Z</time></trkpt><trkpt lat="42.9496026" lon="12.2054137"><ele>524.0</ele><time>2026-05-02T08:26:39.729Z</time></trkpt><trkpt lat="42.9496399" lon="12.2052778"><ele>524.0</ele><time>2026-05-02T08:26:40.729Z</time></trkpt><trkpt lat="42.9496888" lon="12.205153"><ele>522.4</ele><time>2026-05-02T08:26:41.729Z</time></trkpt><trkpt lat="42.9497406" lon="12.2050557"><ele>520.8</ele><time>2026-05-02T08:26:42.729Z</time></trkpt><trkpt lat="42.9497985" lon="12.2049666"><ele>519.2</ele><time>2026-05-02T08:26:43.729Z</time></trkpt><trkpt lat="42.9498795" lon="12.2048871"><ele>517.6</ele><time>2026-05-02T08:26:44.729Z</time></trkpt><trkpt lat="42.9499806" lon="12.2048176"><ele>516.0</ele><time>2026-05-02T08:26:45.729Z</time></trkpt><trkpt lat="42.9500836" lon="12.2047486"><ele>514.8</ele><time>2026-05-02T08:26:46.729Z</time></trkpt><trkpt lat="42.9501904" lon="12.2046811"><ele>513.6</ele><time>2026-05-02T08:26:47.729Z</time></trkpt><trkpt lat="42.9502953" lon="12.2046217"><ele>512.4</ele><time>2026-05-02T08:26:48.729Z</time></trkpt><trkpt lat="42.9503938" lon="12.2045656"><ele>511.2</ele><time>2026-05-02T08:26:49.729Z</time></trkpt><trkpt lat="42.9504911" lon="12.2045148"><ele>510.0</ele><time>2026-05-02T08:26:50.729Z</time></trkpt><trkpt lat="42.9505935" lon="12.2044615"><ele>510.0</ele><time>2026-05-02T08:26:51.729Z</time></trkpt><trkpt lat="42.9507029" lon="12.2044158"><ele>510.0</ele><time>2026-05-02T08:26:52.729Z</time></trkpt><trkpt lat="42.9508184" lon="12.2043639"><ele>510.0</ele><time>2026-05-02T08:26:53.729Z</time></trkpt><trkpt lat="42.950937" lon="12.2043044"><ele>510.0</ele><time>2026-05-02T08:26:54.729Z</time></trkpt><trkpt lat="42.951042" lon="12.2042451"><ele>509.4</ele><time>2026-05-02T08:26:55.729Z</time></trkpt><trkpt lat="42.9511264" lon="12.2041807"><ele>508.8</ele><time>2026-05-02T08:26:56.729Z</time></trkpt><trkpt lat="42.9511953" lon="12.2041019"><ele>508.20000000000005</ele><time>2026-05-02T08:26:57.729Z</time></trkpt><trkpt lat="42.9512594" lon="12.2040008"><ele>507.6</ele><time>2026-05-02T08:26:58.729Z</time></trkpt><trkpt lat="42.9513236" lon="12.2039016"><ele>507.0</ele><time>2026-05-02T08:26:59.729Z</time></trkpt><trkpt lat="42.9513623" lon="12.203712"><ele>506.0</ele><time>2026-05-02T08:27:00.729Z</time></trkpt><trkpt lat="42.9514081" lon="12.2035643"><ele>505.00000000000006</ele><time>2026-05-02T08:27:01.729Z</time></trkpt><trkpt lat="42.9514383" lon="12.2034024"><ele>504.00000000000006</ele><time>2026-05-02T08:27:02.729Z</time></trkpt><trkpt lat="42.9514657" lon="12.2032632"><ele>503.0</ele><time>2026-05-02T08:27:03.729Z</time></trkpt><trkpt lat="42.9514905" lon="12.2031299"><ele>502.0</ele><time>2026-05-02T08:27:04.729Z</time></trkpt><trkpt lat="42.9515079" lon="12.2030143"><ele>501.20000000000005</ele><time>2026-05-02T08:27:05.729Z</time></trkpt><trkpt lat="42.9515275" lon="12.2028885"><ele>500.40000000000003</ele><time>2026-05-02T08:27:06.729Z</time></trkpt><trkpt lat="42.9515484" lon="12.2027659"><ele>499.59999999999997</ele><time>2026-05-02T08:27:07.729Z</time></trkpt><trkpt lat="42.9515682" lon="12.2026423"><ele>498.79999999999995</ele><time>2026-05-02T08:27:08.729Z</time></trkpt><trkpt lat="42.9515902" lon="12.2025268"><ele>498.0</ele><time>2026-05-02T08:27:09.729Z</time></trkpt><trkpt lat="42.9516167" lon="12.2024086"><ele>498.3333333333333</ele><time>2026-05-02T08:27:10.729Z</time></trkpt><trkpt lat="42.9516362" lon="12.2022937"><ele>498.66666666666663</ele><time>2026-05-02T08:27:11.729Z</time></trkpt><trkpt lat="42.9516553" lon="12.2021801"><ele>499.0</ele><time>2026-05-02T08:27:12.729Z</time></trkpt><trkpt lat="42.9516735" lon="12.2020853"><ele>499.3333333333333</ele><time>2026-05-02T08:27:13.729Z</time></trkpt><trkpt lat="42.9516941" lon="12.2019903"><ele>499.66666666666663</ele><time>2026-05-02T08:27:14.729Z</time></trkpt><trkpt lat="42.9517114" lon="12.2018921"><ele>500.0</ele><time>2026-05-02T08:27:15.729Z</time></trkpt><trkpt lat="42.9517221" lon="12.2017996"><ele>499.99999999999994</ele><time>2026-05-02T08:27:16.729Z</time></trkpt><trkpt lat="42.9517345" lon="12.2017113"><ele>500.0</ele><time>2026-05-02T08:27:17.729Z</time></trkpt><trkpt lat="42.9516995" lon="12.2016243"><ele>500.0</ele><time>2026-05-02T08:27:18.729Z</time></trkpt><trkpt lat="42.9516479" lon="12.2015303"><ele>500.0</ele><time>2026-05-02T08:27:19.729Z</time></trkpt><trkpt lat="42.9515758" lon="12.2014311"><ele>499.99999999999994</ele><time>2026-05-02T08:27:20.729Z</time></trkpt><trkpt lat="42.9514912" lon="12.2013342"><ele>500.0</ele><time>2026-05-02T08:27:21.729Z</time></trkpt><trkpt lat="42.9514039" lon="12.2012397"><ele>501.4</ele><time>2026-05-02T08:27:22.728Z</time></trkpt><trkpt lat="42.9513182" lon="12.201143"><ele>502.8</ele><time>2026-05-02T08:27:23.729Z</time></trkpt><trkpt lat="42.9512363" lon="12.2010494"><ele>504.20000000000005</ele><time>2026-05-02T08:27:24.729Z</time></trkpt><trkpt lat="42.9511655" lon="12.2009598"><ele>505.6</ele><time>2026-05-02T08:27:25.729Z</time></trkpt><trkpt lat="42.9510908" lon="12.2008749"><ele>507.0</ele><time>2026-05-02T08:27:26.729Z</time></trkpt><trkpt lat="42.951035" lon="12.200792"><ele>507.0</ele><time>2026-05-02T08:27:27.729Z</time></trkpt><trkpt lat="42.9509855" lon="12.2006912"><ele>507.00000000000006</ele><time>2026-05-02T08:27:28.729Z</time></trkpt><trkpt lat="42.9509458" lon="12.2005718"><ele>507.00000000000006</ele><time>2026-05-02T08:27:29.729Z</time></trkpt><trkpt lat="42.9509151" lon="12.2004525"><ele>507.0</ele><time>2026-05-02T08:27:30.729Z</time></trkpt><trkpt lat="42.9508831" lon="12.2003217"><ele>507.0</ele><time>2026-05-02T08:27:31.729Z</time></trkpt><trkpt lat="42.9508564" lon="12.2001802"><ele>506.8</ele><time>2026-05-02T08:27:32.729Z</time></trkpt><trkpt lat="42.9508357" lon="12.2000366"><ele>506.6</ele><time>2026-05-02T08:27:33.729Z</time></trkpt><trkpt lat="42.950811" lon="12.1998924"><ele>506.40000000000003</ele><time>2026-05-02T08:27:34.729Z</time></trkpt><trkpt lat="42.9507966" lon="12.1997484"><ele>506.20000000000005</ele><time>2026-05-02T08:27:35.729Z</time></trkpt><trkpt lat="42.9507836" lon="12.1995959"><ele>506.0</ele><time>2026-05-02T08:27:36.729Z</time></trkpt><trkpt lat="42.9507765" lon="12.1994743"><ele>507.4</ele><time>2026-05-02T08:27:37.729Z</time></trkpt><trkpt lat="42.9507738" lon="12.199327"><ele>508.8</ele><time>2026-05-02T08:27:39.729Z</time></trkpt><trkpt lat="42.9507662" lon="12.1992337"><ele>510.19999999999993</ele><time>2026-05-02T08:27:41.729Z</time></trkpt><trkpt lat="42.9507142" lon="12.1991781"><ele>511.59999999999997</ele><time>2026-05-02T08:27:43.729Z</time></trkpt><trkpt lat="42.9506008" lon="12.1991909"><ele>513.0</ele><time>2026-05-02T08:27:45.729Z</time></trkpt><trkpt lat="42.9504879" lon="12.1992119"><ele>513.0</ele><time>2026-05-02T08:27:47.729Z</time></trkpt><trkpt lat="42.9503626" lon="12.1992236"><ele>513.0</ele><time>2026-05-02T08:27:49.729Z</time></trkpt><trkpt lat="42.9502974" lon="12.1992276"><ele>513.0</ele><time>2026-05-02T08:27:50.729Z</time></trkpt><trkpt lat="42.9502212" lon="12.1992396"><ele>513.0</ele><time>2026-05-02T08:27:51.729Z</time></trkpt><trkpt lat="42.9501455" lon="12.1992149"><ele>513.0</ele><time>2026-05-02T08:27:52.729Z</time></trkpt><trkpt lat="42.950075" lon="12.1991695"><ele>513.0</ele><time>2026-05-02T08:27:53.729Z</time></trkpt><trkpt lat="42.9500034" lon="12.199116"><ele>512.1666666666666</ele><time>2026-05-02T08:27:54.729Z</time></trkpt><trkpt lat="42.9499379" lon="12.1990593"><ele>511.33333333333337</ele><time>2026-05-02T08:27:55.729Z</time></trkpt><trkpt lat="42.9498708" lon="12.198989"><ele>510.5</ele><time>2026-05-02T08:27:56.729Z</time></trkpt><trkpt lat="42.9498018" lon="12.1989204"><ele>509.6666666666667</ele><time>2026-05-02T08:27:57.729Z</time></trkpt><trkpt lat="42.9497349" lon="12.1988459"><ele>508.83333333333337</ele><time>2026-05-02T08:27:58.729Z</time></trkpt><trkpt lat="42.9496678" lon="12.1987679"><ele>508.0</ele><time>2026-05-02T08:27:59.728Z</time></trkpt><trkpt lat="42.9495924" lon="12.198689"><ele>508.0</ele><time>2026-05-02T08:28:00.729Z</time></trkpt><trkpt lat="42.9495138" lon="12.1986111"><ele>507.99999999999994</ele><time>2026-05-02T08:28:01.729Z</time></trkpt><trkpt lat="42.9494305" lon="12.1985359"><ele>507.99999999999994</ele><time>2026-05-02T08:28:02.729Z</time></trkpt><trkpt lat="42.9493437" lon="12.1984615"><ele>508.0</ele><time>2026-05-02T08:28:03.729Z</time></trkpt><trkpt lat="42.9492562" lon="12.1983969"><ele>508.0</ele><time>2026-05-02T08:28:04.729Z</time></trkpt><trkpt lat="42.949162" lon="12.1983629"><ele>506.0</ele><time>2026-05-02T08:28:05.729Z</time></trkpt><trkpt lat="42.9490673" lon="12.1983584"><ele>503.99999999999994</ele><time>2026-05-02T08:28:06.729Z</time></trkpt><trkpt lat="42.9489628" lon="12.1983759"><ele>501.99999999999994</ele><time>2026-05-02T08:28:07.729Z</time></trkpt><trkpt lat="42.9488575" lon="12.1984044"><ele>500.0</ele><time>2026-05-02T08:28:08.729Z</time></trkpt><trkpt lat="42.9487459" lon="12.1984274"><ele>498.0</ele><time>2026-05-02T08:28:09.729Z</time></trkpt><trkpt lat="42.948645" lon="12.1984419"><ele>498.0</ele><time>2026-05-02T08:28:10.729Z</time></trkpt><trkpt lat="42.94855" lon="12.19846"><ele>497.99999999999994</ele><time>2026-05-02T08:28:11.729Z</time></trkpt><trkpt lat="42.9484602" lon="12.1984724"><ele>497.99999999999994</ele><time>2026-05-02T08:28:12.729Z</time></trkpt><trkpt lat="42.9483704" lon="12.1984836"><ele>498.0</ele><time>2026-05-02T08:28:13.729Z</time></trkpt><trkpt lat="42.9482822" lon="12.1985001"><ele>498.0</ele><time>2026-05-02T08:28:14.729Z</time></trkpt><trkpt lat="42.9481862" lon="12.1985052"><ele>499.6666666666667</ele><time>2026-05-02T08:28:15.729Z</time></trkpt><trkpt lat="42.9480963" lon="12.1985211"><ele>501.33333333333337</ele><time>2026-05-02T08:28:16.729Z</time></trkpt><trkpt lat="42.9480072" lon="12.1985417"><ele>503.0</ele><time>2026-05-02T08:28:17.729Z</time></trkpt><trkpt lat="42.9479184" lon="12.1985523"><ele>504.6666666666667</ele><time>2026-05-02T08:28:18.729Z</time></trkpt><trkpt lat="42.9478278" lon="12.1985647"><ele>506.33333333333337</ele><time>2026-05-02T08:28:19.729Z</time></trkpt><trkpt lat="42.9477442" lon="12.1985886"><ele>508.0</ele><time>2026-05-02T08:28:20.729Z</time></trkpt><trkpt lat="42.9476752" lon="12.1986416"><ele>508.00000000000006</ele><time>2026-05-02T08:28:21.729Z</time></trkpt><trkpt lat="42.9476105" lon="12.1987096"><ele>508.0</ele><time>2026-05-02T08:28:22.729Z</time></trkpt><trkpt lat="42.9475629" lon="12.1987794"><ele>508.0</ele><time>2026-05-02T08:28:23.729Z</time></trkpt><trkpt lat="42.9475212" lon="12.1988597"><ele>508.0</ele><time>2026-05-02T08:28:24.729Z</time></trkpt><trkpt lat="42.9474731" lon="12.1989345"><ele>508.00000000000006</ele><time>2026-05-02T08:28:25.729Z</time></trkpt><trkpt lat="42.9473997" lon="12.1989625"><ele>508.0</ele><time>2026-05-02T08:28:27.729Z</time></trkpt><trkpt lat="42.9472916" lon="12.1988779"><ele>509.50000000000006</ele><time>2026-05-02T08:28:29.729Z</time></trkpt><trkpt lat="42.9472416" lon="12.1987923"><ele>511.0</ele><time>2026-05-02T08:28:30.729Z</time></trkpt><trkpt lat="42.9471876" lon="12.1987047"><ele>512.5</ele><time>2026-05-02T08:28:31.729Z</time></trkpt><trkpt lat="42.9471361" lon="12.1986149"><ele>514.0</ele><time>2026-05-02T08:28:32.729Z</time></trkpt><trkpt lat="42.947085" lon="12.1985146"><ele>515.5</ele><time>2026-05-02T08:28:33.728Z</time></trkpt><trkpt lat="42.9470268" lon="12.1984427"><ele>517.0</ele><time>2026-05-02T08:28:34.729Z</time></trkpt><trkpt lat="42.9469899" lon="12.198353"><ele>517.0</ele><time>2026-05-02T08:28:35.729Z</time></trkpt><trkpt lat="42.9469814" lon="12.1982028"><ele>517.0</ele><time>2026-05-02T08:28:37.729Z</time></trkpt><trkpt lat="42.9469899" lon="12.1981118"><ele>517.0</ele><time>2026-05-02T08:28:38.729Z</time></trkpt><trkpt lat="42.9470058" lon="12.1980187"><ele>517.0</ele><time>2026-05-02T08:28:39.729Z</time></trkpt><trkpt lat="42.9470218" lon="12.1979079"><ele>517.0</ele><time>2026-05-02T08:28:40.729Z</time></trkpt><trkpt lat="42.9470447" lon="12.1977792"><ele>517.0</ele><time>2026-05-02T08:28:41.729Z</time></trkpt><trkpt lat="42.9470707" lon="12.1976446"><ele>519.2</ele><time>2026-05-02T08:28:42.729Z</time></trkpt><trkpt lat="42.9471006" lon="12.1975049"><ele>521.4000000000001</ele><time>2026-05-02T08:28:43.729Z</time></trkpt><trkpt lat="42.9471347" lon="12.1973702"><ele>523.5999999999999</ele><time>2026-05-02T08:28:44.729Z</time></trkpt><trkpt lat="42.9471564" lon="12.1972352"><ele>525.8</ele><time>2026-05-02T08:28:45.729Z</time></trkpt><trkpt lat="42.9471701" lon="12.1971194"><ele>528.0</ele><time>2026-05-02T08:28:46.729Z</time></trkpt><trkpt lat="42.9471864" lon="12.197003"><ele>528.0</ele><time>2026-05-02T08:28:47.729Z</time></trkpt><trkpt lat="42.9471969" lon="12.1968838"><ele>528.0</ele><time>2026-05-02T08:28:48.729Z</time></trkpt><trkpt lat="42.9472045" lon="12.1967639"><ele>528.0</ele><time>2026-05-02T08:28:49.729Z</time></trkpt><trkpt lat="42.947201" lon="12.196652"><ele>528.0</ele><time>2026-05-02T08:28:50.729Z</time></trkpt><trkpt lat="42.9471876" lon="12.1965374"><ele>528.0</ele><time>2026-05-02T08:28:51.729Z</time></trkpt><trkpt lat="42.9471428" lon="12.1964433"><ele>528.0</ele><time>2026-05-02T08:28:52.729Z</time></trkpt><trkpt lat="42.9470706" lon="12.196366"><ele>527.4</ele><time>2026-05-02T08:28:53.729Z</time></trkpt><trkpt lat="42.946981" lon="12.1963066"><ele>526.8</ele><time>2026-05-02T08:28:54.729Z</time></trkpt><trkpt lat="42.9468899" lon="12.1962697"><ele>526.2</ele><time>2026-05-02T08:28:55.729Z</time></trkpt><trkpt lat="42.9467991" lon="12.1962475"><ele>525.6</ele><time>2026-05-02T08:28:56.729Z</time></trkpt><trkpt lat="42.9466935" lon="12.1962082"><ele>525.0</ele><time>2026-05-02T08:28:57.729Z</time></trkpt><trkpt lat="42.9465861" lon="12.196156"><ele>525.0</ele><time>2026-05-02T08:28:58.729Z</time></trkpt><trkpt lat="42.9464768" lon="12.1961031"><ele>525.0</ele><time>2026-05-02T08:28:59.729Z</time></trkpt><trkpt lat="42.946354" lon="12.1960426"><ele>525.0</ele><time>2026-05-02T08:29:00.729Z</time></trkpt><trkpt lat="42.9462516" lon="12.1960065"><ele>525.0</ele><time>2026-05-02T08:29:01.729Z</time></trkpt><trkpt lat="42.9461637" lon="12.1959755"><ele>525.0</ele><time>2026-05-02T08:29:02.729Z</time></trkpt><trkpt lat="42.9460861" lon="12.1959459"><ele>525.0</ele><time>2026-05-02T08:29:03.729Z</time></trkpt><trkpt lat="42.9459986" lon="12.1959095"><ele>525.0</ele><time>2026-05-02T08:29:04.729Z</time></trkpt><trkpt lat="42.9459122" lon="12.1958745"><ele>525.0</ele><time>2026-05-02T08:29:05.729Z</time></trkpt><trkpt lat="42.9458352" lon="12.1958409"><ele>525.0</ele><time>2026-05-02T08:29:06.728Z</time></trkpt><trkpt lat="42.9457653" lon="12.1958018"><ele>525.0</ele><time>2026-05-02T08:29:07.729Z</time></trkpt><trkpt lat="42.9456865" lon="12.1957526"><ele>525.0</ele><time>2026-05-02T08:29:08.729Z</time></trkpt><trkpt lat="42.9456083" lon="12.1956882"><ele>524.2</ele><time>2026-05-02T08:29:09.729Z</time></trkpt><trkpt lat="42.9455232" lon="12.1956089"><ele>523.4</ele><time>2026-05-02T08:29:10.729Z</time></trkpt><trkpt lat="42.9454398" lon="12.1955217"><ele>522.6</ele><time>2026-05-02T08:29:11.729Z</time></trkpt><trkpt lat="42.945357" lon="12.1954357"><ele>521.8</ele><time>2026-05-02T08:29:12.729Z</time></trkpt><trkpt lat="42.9452748" lon="12.1953527"><ele>521.0</ele><time>2026-05-02T08:29:13.729Z</time></trkpt><trkpt lat="42.9451979" lon="12.1952684"><ele>521.0</ele><time>2026-05-02T08:29:14.729Z</time></trkpt><trkpt lat="42.9451232" lon="12.1951889"><ele>521.0</ele><time>2026-05-02T08:29:15.729Z</time></trkpt><trkpt lat="42.9450565" lon="12.1951096"><ele>521.0</ele><time>2026-05-02T08:29:16.729Z</time></trkpt><trkpt lat="42.9449892" lon="12.1950481"><ele>521.0</ele><time>2026-05-02T08:29:17.729Z</time></trkpt><trkpt lat="42.9449083" lon="12.1950415"><ele>521.0</ele><time>2026-05-02T08:29:18.729Z</time></trkpt><trkpt lat="42.944818" lon="12.195047"><ele>521.0</ele><time>2026-05-02T08:29:19.729Z</time></trkpt><trkpt lat="42.9447265" lon="12.195077"><ele>516.0</ele><time>2026-05-02T08:29:20.729Z</time></trkpt><trkpt lat="42.9446157" lon="12.1951255"><ele>511.0</ele><time>2026-05-02T08:29:21.729Z</time></trkpt><trkpt lat="42.9445222" lon="12.1951703"><ele>506.0</ele><time>2026-05-02T08:29:22.729Z</time></trkpt><trkpt lat="42.9444221" lon="12.195213"><ele>501.0</ele><time>2026-05-02T08:29:23.729Z</time></trkpt><trkpt lat="42.9443035" lon="12.1952441"><ele>496.0</ele><time>2026-05-02T08:29:24.729Z</time></trkpt><trkpt lat="42.9441841" lon="12.195256"><ele>496.0</ele><time>2026-05-02T08:29:25.729Z</time></trkpt><trkpt lat="42.9440672" lon="12.1952878"><ele>496.0</ele><time>2026-05-02T08:29:26.729Z</time></trkpt><trkpt lat="42.9439526" lon="12.1953408"><ele>496.0</ele><time>2026-05-02T08:29:27.729Z</time></trkpt><trkpt lat="42.9438327" lon="12.1954142"><ele>496.0</ele><time>2026-05-02T08:29:28.729Z</time></trkpt><trkpt lat="42.943721" lon="12.1954758"><ele>496.0</ele><time>2026-05-02T08:29:29.729Z</time></trkpt><trkpt lat="42.9436054" lon="12.1955373"><ele>496.0</ele><time>2026-05-02T08:29:30.729Z</time></trkpt><trkpt lat="42.9435097" lon="12.1956116"><ele>496.0</ele><time>2026-05-02T08:29:31.729Z</time></trkpt><trkpt lat="42.943411" lon="12.1956589"><ele>496.0</ele><time>2026-05-02T08:29:32.729Z</time></trkpt><trkpt lat="42.9433185" lon="12.195703"><ele>496.0</ele><time>2026-05-02T08:29:33.729Z</time></trkpt><trkpt lat="42.9432256" lon="12.1957334"><ele>496.0</ele><time>2026-05-02T08:29:34.729Z</time></trkpt><trkpt lat="42.9431374" lon="12.1957531"><ele>496.0</ele><time>2026-05-02T08:29:35.729Z</time></trkpt><trkpt lat="42.9430374" lon="12.1957482"><ele>496.0</ele><time>2026-05-02T08:29:36.729Z</time></trkpt><trkpt lat="42.9429296" lon="12.1957333"><ele>496.0</ele><time>2026-05-02T08:29:37.729Z</time></trkpt><trkpt lat="42.9428191" lon="12.1956862"><ele>496.0</ele><time>2026-05-02T08:29:38.729Z</time></trkpt><trkpt lat="42.9427107" lon="12.1956522"><ele>499.0</ele><time>2026-05-02T08:29:39.729Z</time></trkpt><trkpt lat="42.9426523" lon="12.1954728"><ele>502.0</ele><time>2026-05-02T08:29:40.729Z</time></trkpt><trkpt lat="42.942555" lon="12.1953296"><ele>505.0</ele><time>2026-05-02T08:29:41.729Z</time></trkpt><trkpt lat="42.9424627" lon="12.1952163"><ele>508.0</ele><time>2026-05-02T08:29:42.729Z</time></trkpt><trkpt lat="42.9423533" lon="12.1951149"><ele>509.2</ele><time>2026-05-02T08:29:43.729Z</time></trkpt><trkpt lat="42.942237" lon="12.195035"><ele>510.4</ele><time>2026-05-02T08:29:44.729Z</time></trkpt><trkpt lat="42.9421333" lon="12.1949589"><ele>511.59999999999997</ele><time>2026-05-02T08:29:45.729Z</time></trkpt><trkpt lat="42.9420332" lon="12.1948956"><ele>512.8</ele><time>2026-05-02T08:29:46.729Z</time></trkpt><trkpt lat="42.9419641" lon="12.1948606"><ele>514.0</ele><time>2026-05-02T08:29:47.729Z</time></trkpt><trkpt lat="42.9418933" lon="12.1948173"><ele>513.8333333333334</ele><time>2026-05-02T08:29:48.729Z</time></trkpt><trkpt lat="42.941822" lon="12.1947754"><ele>513.6666666666667</ele><time>2026-05-02T08:29:49.729Z</time></trkpt><trkpt lat="42.941764" lon="12.1947389"><ele>513.5</ele><time>2026-05-02T08:29:50.728Z</time></trkpt><trkpt lat="42.9416983" lon="12.1946868"><ele>513.3333333333334</ele><time>2026-05-02T08:29:51.729Z</time></trkpt><trkpt lat="42.9416296" lon="12.1946136"><ele>513.1666666666666</ele><time>2026-05-02T08:29:52.729Z</time></trkpt><trkpt lat="42.9415667" lon="12.1945405"><ele>513.0</ele><time>2026-05-02T08:29:53.729Z</time></trkpt><trkpt lat="42.9415076" lon="12.1944576"><ele>513.0</ele><time>2026-05-02T08:29:54.729Z</time></trkpt><trkpt lat="42.9414448" lon="12.1943704"><ele>513.0</ele><time>2026-05-02T08:29:55.729Z</time></trkpt><trkpt lat="42.9413881" lon="12.1942815"><ele>513.0</ele><time>2026-05-02T08:29:56.729Z</time></trkpt><trkpt lat="42.9413418" lon="12.1941889"><ele>513.0</ele><time>2026-05-02T08:29:57.729Z</time></trkpt><trkpt lat="42.9413066" lon="12.194079"><ele>513.0</ele><time>2026-05-02T08:29:58.729Z</time></trkpt><trkpt lat="42.9412764" lon="12.1939433"><ele>513.6</ele><time>2026-05-02T08:29:59.729Z</time></trkpt><trkpt lat="42.9412503" lon="12.1937903"><ele>514.1999999999999</ele><time>2026-05-02T08:30:00.729Z</time></trkpt><trkpt lat="42.9412285" lon="12.1936452"><ele>514.8</ele><time>2026-05-02T08:30:01.729Z</time></trkpt><trkpt lat="42.9412106" lon="12.1935055"><ele>515.4</ele><time>2026-05-02T08:30:02.729Z</time></trkpt><trkpt lat="42.9411935" lon="12.1933819"><ele>516.0</ele><time>2026-05-02T08:30:03.729Z</time></trkpt><trkpt lat="42.9411737" lon="12.1932726"><ele>516.0</ele><time>2026-05-02T08:30:04.729Z</time></trkpt><trkpt lat="42.9411615" lon="12.1931856"><ele>516.0</ele><time>2026-05-02T08:30:05.729Z</time></trkpt><trkpt lat="42.9410969" lon="12.1930944"><ele>516.0</ele><time>2026-05-02T08:30:07.729Z</time></trkpt><trkpt lat="42.9410031" lon="12.1930956"><ele>516.0</ele><time>2026-05-02T08:30:09.729Z</time></trkpt><trkpt lat="42.9408921" lon="12.1931559"><ele>516.0</ele><time>2026-05-02T08:30:11.729Z</time></trkpt><trkpt lat="42.9408237" lon="12.1931916"><ele>516.0</ele><time>2026-05-02T08:30:13.729Z</time></trkpt><trkpt lat="42.940739" lon="12.1932509"><ele>513.6</ele><time>2026-05-02T08:30:15.729Z</time></trkpt><trkpt lat="42.940656" lon="12.1932989"><ele>511.20000000000005</ele><time>2026-05-02T08:30:17.729Z</time></trkpt><trkpt lat="42.9405828" lon="12.1933436"><ele>508.79999999999995</ele><time>2026-05-02T08:30:19.729Z</time></trkpt><trkpt lat="42.9404892" lon="12.193386"><ele>506.4</ele><time>2026-05-02T08:30:21.729Z</time></trkpt><trkpt lat="42.9403847" lon="12.1933986"><ele>504.0</ele><time>2026-05-02T08:30:23.729Z</time></trkpt><trkpt lat="42.9402847" lon="12.1933618"><ele>504.0</ele><time>2026-05-02T08:30:25.729Z</time></trkpt><trkpt lat="42.9401865" lon="12.1932931"><ele>504.0</ele><time>2026-05-02T08:30:27.729Z</time></trkpt><trkpt lat="42.9401361" lon="12.1932366"><ele>504.0</ele><time>2026-05-02T08:30:28.729Z</time></trkpt><trkpt lat="42.9400787" lon="12.1931843"><ele>504.0</ele><time>2026-05-02T08:30:29.729Z</time></trkpt><trkpt lat="42.940026" lon="12.1931362"><ele>504.0</ele><time>2026-05-02T08:30:30.728Z</time></trkpt><trkpt lat="42.9399394" lon="12.1930483"><ele>504.0</ele><time>2026-05-02T08:30:32.729Z</time></trkpt><trkpt lat="42.939887" lon="12.1929935"><ele>506.1666666666667</ele><time>2026-05-02T08:30:45.729Z</time></trkpt><trkpt lat="42.9398192" lon="12.1929101"><ele>508.33333333333337</ele><time>2026-05-02T08:30:48.729Z</time></trkpt><trkpt lat="42.9397712" lon="12.192838"><ele>510.5</ele><time>2026-05-02T08:30:50.729Z</time></trkpt><trkpt lat="42.9397196" lon="12.1927574"><ele>512.6666666666667</ele><time>2026-05-02T08:30:52.729Z</time></trkpt><trkpt lat="42.9396655" lon="12.192662"><ele>514.8333333333334</ele><time>2026-05-02T08:30:54.729Z</time></trkpt><trkpt lat="42.9395934" lon="12.192546"><ele>517.0</ele><time>2026-05-02T08:30:56.729Z</time></trkpt><trkpt lat="42.9395481" lon="12.1924746"><ele>517.0</ele><time>2026-05-02T08:30:57.729Z</time></trkpt><trkpt lat="42.9394893" lon="12.1923916"><ele>517.0</ele><time>2026-05-02T08:30:58.729Z</time></trkpt><trkpt lat="42.939429" lon="12.1923162"><ele>517.0</ele><time>2026-05-02T08:30:59.729Z</time></trkpt><trkpt lat="42.9393654" lon="12.1922318"><ele>517.0</ele><time>2026-05-02T08:31:00.729Z</time></trkpt><trkpt lat="42.9393004" lon="12.1921384"><ele>517.0</ele><time>2026-05-02T08:31:01.729Z</time></trkpt><trkpt lat="42.9392286" lon="12.1920409"><ele>517.3333333333334</ele><time>2026-05-02T08:31:02.728Z</time></trkpt><trkpt lat="42.9391618" lon="12.1919574"><ele>517.6666666666667</ele><time>2026-05-02T08:31:03.729Z</time></trkpt><trkpt lat="42.9390938" lon="12.1918851"><ele>518.0</ele><time>2026-05-02T08:31:04.729Z</time></trkpt><trkpt lat="42.9390225" lon="12.1918343"><ele>518.3333333333334</ele><time>2026-05-02T08:31:05.729Z</time></trkpt><trkpt lat="42.9389487" lon="12.1917918"><ele>518.6666666666666</ele><time>2026-05-02T08:31:06.729Z</time></trkpt><trkpt lat="42.9388577" lon="12.19176"><ele>519.0</ele><time>2026-05-02T08:31:07.729Z</time></trkpt><trkpt lat="42.9387533" lon="12.1917472"><ele>519.0</ele><time>2026-05-02T08:31:08.729Z</time></trkpt><trkpt lat="42.9386544" lon="12.1917411"><ele>519.0</ele><time>2026-05-02T08:31:09.729Z</time></trkpt><trkpt lat="42.9385912" lon="12.1917297"><ele>519.0</ele><time>2026-05-02T08:31:10.729Z</time></trkpt><trkpt lat="42.938502" lon="12.1917018"><ele>519.0</ele><time>2026-05-02T08:31:12.729Z</time></trkpt><trkpt lat="42.9383892" lon="12.191678"><ele>519.0</ele><time>2026-05-02T08:31:14.729Z</time></trkpt><trkpt lat="42.9382712" lon="12.1916276"><ele>517.5</ele><time>2026-05-02T08:31:16.729Z</time></trkpt><trkpt lat="42.9382035" lon="12.1915946"><ele>516.0</ele><time>2026-05-02T08:31:17.729Z</time></trkpt><trkpt lat="42.9381334" lon="12.1915569"><ele>514.5</ele><time>2026-05-02T08:31:18.729Z</time></trkpt><trkpt lat="42.9380624" lon="12.191521"><ele>513.0</ele><time>2026-05-02T08:31:19.729Z</time></trkpt><trkpt lat="42.9379844" lon="12.1915085"><ele>511.5</ele><time>2026-05-02T08:31:20.729Z</time></trkpt><trkpt lat="42.9379087" lon="12.1915134"><ele>510.0</ele><time>2026-05-02T08:31:21.729Z</time></trkpt><trkpt lat="42.9378207" lon="12.1915381"><ele>510.0</ele><time>2026-05-02T08:31:22.729Z</time></trkpt><trkpt lat="42.9377205" lon="12.1915762"><ele>510.0</ele><time>2026-05-02T08:31:23.729Z</time></trkpt><trkpt lat="42.937624" lon="12.1916119"><ele>510.0</ele><time>2026-05-02T08:31:24.729Z</time></trkpt><trkpt lat="42.9375224" lon="12.1916445"><ele>510.0</ele><time>2026-05-02T08:31:25.729Z</time></trkpt><trkpt lat="42.9374193" lon="12.1916843"><ele>510.0</ele><time>2026-05-02T08:31:26.729Z</time></trkpt><trkpt lat="42.9373189" lon="12.1917106"><ele>510.0</ele><time>2026-05-02T08:31:27.729Z</time></trkpt><trkpt lat="42.937229" lon="12.1917321"><ele>510.0</ele><time>2026-05-02T08:31:28.729Z</time></trkpt><trkpt lat="42.9371432" lon="12.1917494"><ele>510.0</ele><time>2026-05-02T08:31:29.729Z</time></trkpt><trkpt lat="42.9370671" lon="12.191764"><ele>510.0</ele><time>2026-05-02T08:31:30.729Z</time></trkpt><trkpt lat="42.9369938" lon="12.1917743"><ele>510.0</ele><time>2026-05-02T08:31:31.729Z</time></trkpt><trkpt lat="42.9369203" lon="12.191786"><ele>510.0</ele><time>2026-05-02T08:31:32.729Z</time></trkpt><trkpt lat="42.9368565" lon="12.1917659"><ele>510.0</ele><time>2026-05-02T08:31:33.729Z</time></trkpt><trkpt lat="42.9367911" lon="12.1917511"><ele>510.00000000000006</ele><time>2026-05-02T08:31:34.729Z</time></trkpt><trkpt lat="42.936725" lon="12.1917405"><ele>510.0</ele><time>2026-05-02T08:31:35.729Z</time></trkpt><trkpt lat="42.9366687" lon="12.1916913"><ele>510.0</ele><time>2026-05-02T08:31:36.729Z</time></trkpt><trkpt lat="42.9366115" lon="12.1916409"><ele>510.00000000000006</ele><time>2026-05-02T08:31:37.729Z</time></trkpt><trkpt lat="42.9365602" lon="12.1915827"><ele>510.0</ele><time>2026-05-02T08:31:38.729Z</time></trkpt><trkpt lat="42.9365036" lon="12.1915064"><ele>510.0</ele><time>2026-05-02T08:31:39.729Z</time></trkpt><trkpt lat="42.9364529" lon="12.1914338"><ele>511.3333333333333</ele><time>2026-05-02T08:31:40.729Z</time></trkpt><trkpt lat="42.9364035" lon="12.1913498"><ele>512.6666666666666</ele><time>2026-05-02T08:31:41.729Z</time></trkpt><trkpt lat="42.9363586" lon="12.1912616"><ele>514.0</ele><time>2026-05-02T08:31:42.729Z</time></trkpt><trkpt lat="42.9363079" lon="12.1911701"><ele>515.3333333333333</ele><time>2026-05-02T08:31:43.729Z</time></trkpt><trkpt lat="42.9362544" lon="12.1910692"><ele>516.6666666666666</ele><time>2026-05-02T08:31:44.729Z</time></trkpt><trkpt lat="42.9361984" lon="12.1909609"><ele>518.0</ele><time>2026-05-02T08:31:45.729Z</time></trkpt><trkpt lat="42.9361451" lon="12.1908441"><ele>518.0</ele><time>2026-05-02T08:31:46.729Z</time></trkpt><trkpt lat="42.9360977" lon="12.1907412"><ele>518.0</ele><time>2026-05-02T08:31:47.729Z</time></trkpt><trkpt lat="42.9360551" lon="12.1906507"><ele>518.0</ele><time>2026-05-02T08:31:48.729Z</time></trkpt><trkpt lat="42.936027" lon="12.1905313"><ele>518.0</ele><time>2026-05-02T08:31:50.729Z</time></trkpt><trkpt lat="42.9359796" lon="12.1904731"><ele>518.0</ele><time>2026-05-02T08:31:58.729Z</time></trkpt><trkpt lat="42.9359198" lon="12.1904035"><ele>518.0</ele><time>2026-05-02T08:32:02.729Z</time></trkpt><trkpt lat="42.9358481" lon="12.1904211"><ele>517.8333333333333</ele><time>2026-05-02T08:32:04.729Z</time></trkpt><trkpt lat="42.9357775" lon="12.1904755"><ele>517.6666666666666</ele><time>2026-05-02T08:32:06.729Z</time></trkpt><trkpt lat="42.935706" lon="12.1905217"><ele>517.5</ele><time>2026-05-02T08:32:08.729Z</time></trkpt><trkpt lat="42.9356218" lon="12.1905715"><ele>517.3333333333334</ele><time>2026-05-02T08:32:10.729Z</time></trkpt><trkpt lat="42.9355315" lon="12.190585"><ele>517.1666666666667</ele><time>2026-05-02T08:32:12.729Z</time></trkpt><trkpt lat="42.9354659" lon="12.1905951"><ele>517.0</ele><time>2026-05-02T08:32:38.729Z</time></trkpt><trkpt lat="42.9355366" lon="12.1905798"><ele>517.0</ele><time>2026-05-02T08:32:46.729Z</time></trkpt><trkpt lat="42.9355995" lon="12.1905749"><ele>517.0</ele><time>2026-05-02T08:32:47.729Z</time></trkpt><trkpt lat="42.9356668" lon="12.1905594"><ele>517.0</ele><time>2026-05-02T08:32:48.729Z</time></trkpt><trkpt lat="42.9357999" lon="12.1904787"><ele>517.0</ele><time>2026-05-02T08:32:50.729Z</time></trkpt><trkpt lat="42.9358665" lon="12.1904328"><ele>517.0</ele><time>2026-05-02T08:32:51.729Z</time></trkpt><trkpt lat="42.9359525" lon="12.1904188"><ele>517.0</ele><time>2026-05-02T08:32:53.729Z</time></trkpt><trkpt lat="42.9360071" lon="12.1904781"><ele>517.0</ele><time>2026-05-02T08:32:57.729Z</time></trkpt><trkpt lat="42.9360538" lon="12.1904068"><ele>517.0</ele><time>2026-05-02T08:32:59.729Z</time></trkpt><trkpt lat="42.9360744" lon="12.1902805"><ele>517.0</ele><time>2026-05-02T08:33:01.729Z</time></trkpt><trkpt lat="42.9360172" lon="12.1902296"><ele>517.0</ele><time>2026-05-02T08:33:02.729Z</time></trkpt><trkpt lat="42.9359548" lon="12.1902116"><ele>517.0</ele><time>2026-05-02T08:33:03.729Z</time></trkpt><trkpt lat="42.935885" lon="12.1902299"><ele>517.0</ele><time>2026-05-02T08:33:04.729Z</time></trkpt><trkpt lat="42.9357761" lon="12.1902677"><ele>517.0</ele><time>2026-05-02T08:33:06.729Z</time></trkpt><trkpt lat="42.9356568" lon="12.1902724"><ele>517.0</ele><time>2026-05-02T08:33:08.728Z</time></trkpt><trkpt lat="42.9355907" lon="12.1902517"><ele>517.0</ele><time>2026-05-02T08:33:09.729Z</time></trkpt><trkpt lat="42.9355322" lon="12.1902175"><ele>517.0</ele><time>2026-05-02T08:33:10.729Z</time></trkpt><trkpt lat="42.9354614" lon="12.1901736"><ele>517.0</ele><time>2026-05-02T08:33:11.729Z</time></trkpt><trkpt lat="42.9353845" lon="12.190145"><ele>517.0</ele><time>2026-05-02T08:33:12.729Z</time></trkpt><trkpt lat="42.9353022" lon="12.1901077"><ele>517.0</ele><time>2026-05-02T08:33:13.729Z</time></trkpt><trkpt lat="42.9352243" lon="12.1900825"><ele>517.0</ele><time>2026-05-02T08:33:14.729Z</time></trkpt><trkpt lat="42.9351523" lon="12.190054"><ele>517.0</ele><time>2026-05-02T08:33:15.729Z</time></trkpt><trkpt lat="42.9350808" lon="12.1900226"><ele>517.0</ele><time>2026-05-02T08:33:16.729Z</time></trkpt><trkpt lat="42.935015" lon="12.1899881"><ele>517.0</ele><time>2026-05-02T08:33:17.729Z</time></trkpt><trkpt lat="42.9349574" lon="12.1899482"><ele>517.0</ele><time>2026-05-02T08:33:18.729Z</time></trkpt><trkpt lat="42.9348958" lon="12.1898978"><ele>517.0</ele><time>2026-05-02T08:33:19.729Z</time></trkpt><trkpt lat="42.9348362" lon="12.1898486"><ele>517.4</ele><time>2026-05-02T08:33:20.729Z</time></trkpt><trkpt lat="42.9347313" lon="12.1897391"><ele>517.8000000000001</ele><time>2026-05-02T08:33:22.729Z</time></trkpt><trkpt lat="42.9346916" lon="12.1896562"><ele>518.2</ele><time>2026-05-02T08:33:23.729Z</time></trkpt><trkpt lat="42.9346611" lon="12.1895601"><ele>518.6</ele><time>2026-05-02T08:33:24.729Z</time></trkpt><trkpt lat="42.9346299" lon="12.1894652"><ele>519.0</ele><time>2026-05-02T08:33:25.729Z</time></trkpt><trkpt lat="42.9346287" lon="12.189314"><ele>519.0</ele><time>2026-05-02T08:33:26.729Z</time></trkpt><trkpt lat="42.9346033" lon="12.1891946"><ele>519.0</ele><time>2026-05-02T08:33:27.729Z</time></trkpt><trkpt lat="42.9345721" lon="12.1890885"><ele>519.0</ele><time>2026-05-02T08:33:28.729Z</time></trkpt><trkpt lat="42.9345378" lon="12.1889828"><ele>519.0</ele><time>2026-05-02T08:33:29.729Z</time></trkpt><trkpt lat="42.9345219" lon="12.1888814"><ele>519.0</ele><time>2026-05-02T08:33:30.729Z</time></trkpt><trkpt lat="42.9345127" lon="12.18879"><ele>519.0</ele><time>2026-05-02T08:33:31.729Z</time></trkpt><trkpt lat="42.934507" lon="12.1887006"><ele>519.5</ele><time>2026-05-02T08:33:32.729Z</time></trkpt><trkpt lat="42.9345084" lon="12.1885325"><ele>520.0</ele><time>2026-05-02T08:33:34.729Z</time></trkpt><trkpt lat="42.9345205" lon="12.1884429"><ele>520.5</ele><time>2026-05-02T08:33:35.729Z</time></trkpt><trkpt lat="42.934548" lon="12.1883281"><ele>521.0</ele><time>2026-05-02T08:33:36.729Z</time></trkpt><trkpt lat="42.9345759" lon="12.1882204"><ele>521.5</ele><time>2026-05-02T08:33:37.729Z</time></trkpt><trkpt lat="42.9346088" lon="12.1881162"><ele>522.0</ele><time>2026-05-02T08:33:38.729Z</time></trkpt><trkpt lat="42.9346325" lon="12.1880225"><ele>522.1666666666666</ele><time>2026-05-02T08:33:39.729Z</time></trkpt><trkpt lat="42.9346492" lon="12.1879313"><ele>522.3333333333334</ele><time>2026-05-02T08:33:40.729Z</time></trkpt><trkpt lat="42.9346516" lon="12.1877936"><ele>522.5</ele><time>2026-05-02T08:33:42.729Z</time></trkpt><trkpt lat="42.9345246" lon="12.1877309"><ele>522.6666666666667</ele><time>2026-05-02T08:33:44.729Z</time></trkpt><trkpt lat="42.9344593" lon="12.1877292"><ele>522.8333333333334</ele><time>2026-05-02T08:33:45.729Z</time></trkpt><trkpt lat="42.9343877" lon="12.1877297"><ele>523.0</ele><time>2026-05-02T08:33:46.729Z</time></trkpt><trkpt lat="42.934321" lon="12.187705"><ele>523.0</ele><time>2026-05-02T08:33:47.729Z</time></trkpt><trkpt lat="42.9342445" lon="12.1876861"><ele>523.0</ele><time>2026-05-02T08:33:48.729Z</time></trkpt><trkpt lat="42.9341579" lon="12.1876485"><ele>523.0</ele><time>2026-05-02T08:33:49.729Z</time></trkpt><trkpt lat="42.9340693" lon="12.1876093"><ele>523.0</ele><time>2026-05-02T08:33:50.729Z</time></trkpt><trkpt lat="42.9339724" lon="12.1875683"><ele>523.0</ele><time>2026-05-02T08:33:52.728Z</time></trkpt><trkpt lat="42.9338739" lon="12.1875153"><ele>523.6</ele><time>2026-05-02T08:33:54.729Z</time></trkpt><trkpt lat="42.9338097" lon="12.187378"><ele>524.1999999999999</ele><time>2026-05-02T08:33:56.729Z</time></trkpt><trkpt lat="42.933804" lon="12.1872711"><ele>524.8</ele><time>2026-05-02T08:33:57.729Z</time></trkpt><trkpt lat="42.933792" lon="12.1871513"><ele>525.4</ele><time>2026-05-02T08:33:58.729Z</time></trkpt><trkpt lat="42.9337849" lon="12.1870048"><ele>526.0</ele><time>2026-05-02T08:33:59.729Z</time></trkpt><trkpt lat="42.9337763" lon="12.1868607"><ele>526.0</ele><time>2026-05-02T08:34:00.729Z</time></trkpt><trkpt lat="42.9337835" lon="12.1867267"><ele>526.0</ele><time>2026-05-02T08:34:01.729Z</time></trkpt><trkpt lat="42.9337898" lon="12.1865938"><ele>526.0</ele><time>2026-05-02T08:34:02.729Z</time></trkpt><trkpt lat="42.9338011" lon="12.1864663"><ele>526.0</ele><time>2026-05-02T08:34:03.729Z</time></trkpt><trkpt lat="42.9338178" lon="12.1863439"><ele>526.0</ele><time>2026-05-02T08:34:04.729Z</time></trkpt><trkpt lat="42.9338417" lon="12.1862342"><ele>528.6</ele><time>2026-05-02T08:34:05.729Z</time></trkpt><trkpt lat="42.9338557" lon="12.1861175"><ele>531.2</ele><time>2026-05-02T08:34:06.729Z</time></trkpt><trkpt lat="42.9338509" lon="12.1859944"><ele>533.8</ele><time>2026-05-02T08:34:07.729Z</time></trkpt><trkpt lat="42.93382" lon="12.1858612"><ele>536.4</ele><time>2026-05-02T08:34:08.729Z</time></trkpt><trkpt lat="42.9337859" lon="12.18575"><ele>539.0</ele><time>2026-05-02T08:34:09.729Z</time></trkpt><trkpt lat="42.9337273" lon="12.1856388"><ele>540.0</ele><time>2026-05-02T08:34:10.729Z</time></trkpt><trkpt lat="42.93365" lon="12.1855319"><ele>541.0</ele><time>2026-05-02T08:34:11.729Z</time></trkpt><trkpt lat="42.9335944" lon="12.1854249"><ele>542.0</ele><time>2026-05-02T08:34:12.729Z</time></trkpt><trkpt lat="42.9335324" lon="12.1853183"><ele>543.0</ele><time>2026-05-02T08:34:13.729Z</time></trkpt><trkpt lat="42.9334803" lon="12.1851709"><ele>544.0</ele><time>2026-05-02T08:34:14.729Z</time></trkpt><trkpt lat="42.9334357" lon="12.1850726"><ele>544.0</ele><time>2026-05-02T08:34:15.729Z</time></trkpt><trkpt lat="42.9333988" lon="12.1849592"><ele>544.0</ele><time>2026-05-02T08:34:16.729Z</time></trkpt><trkpt lat="42.9333535" lon="12.1848506"><ele>544.0</ele><time>2026-05-02T08:34:17.729Z</time></trkpt><trkpt lat="42.9332948" lon="12.1847469"><ele>544.0</ele><time>2026-05-02T08:34:18.729Z</time></trkpt><trkpt lat="42.9332189" lon="12.184638"><ele>544.0</ele><time>2026-05-02T08:34:19.729Z</time></trkpt><trkpt lat="42.9331554" lon="12.1845556"><ele>541.5</ele><time>2026-05-02T08:34:20.729Z</time></trkpt><trkpt lat="42.9331142" lon="12.1844734"><ele>539.0</ele><time>2026-05-02T08:34:21.729Z</time></trkpt><trkpt lat="42.9330916" lon="12.184376"><ele>536.5</ele><time>2026-05-02T08:34:22.729Z</time></trkpt><trkpt lat="42.9330881" lon="12.1842584"><ele>534.0</ele><time>2026-05-02T08:34:23.729Z</time></trkpt><trkpt lat="42.9331066" lon="12.1841259"><ele>531.5</ele><time>2026-05-02T08:34:24.729Z</time></trkpt><trkpt lat="42.9331407" lon="12.1840323"><ele>529.0</ele><time>2026-05-02T08:34:25.729Z</time></trkpt><trkpt lat="42.9331988" lon="12.1839077"><ele>527.2</ele><time>2026-05-02T08:34:27.729Z</time></trkpt><trkpt lat="42.9332634" lon="12.1838446"><ele>525.4</ele><time>2026-05-02T08:34:30.729Z</time></trkpt><trkpt lat="42.9333067" lon="12.1837647"><ele>523.6</ele><time>2026-05-02T08:34:32.729Z</time></trkpt><trkpt lat="42.9333191" lon="12.1836379"><ele>521.8</ele><time>2026-05-02T08:34:34.729Z</time></trkpt><trkpt lat="42.9333068" lon="12.1834995"><ele>520.0</ele><time>2026-05-02T08:34:36.729Z</time></trkpt><trkpt lat="42.933241" lon="12.1833537"><ele>520.0</ele><time>2026-05-02T08:34:38.729Z</time></trkpt><trkpt lat="42.9331612" lon="12.1832464"><ele>520.0</ele><time>2026-05-02T08:34:40.729Z</time></trkpt><trkpt lat="42.9330705" lon="12.1831823"><ele>520.0</ele><time>2026-05-02T08:34:42.729Z</time></trkpt><trkpt lat="42.9329718" lon="12.1831349"><ele>520.0</ele><time>2026-05-02T08:34:44.729Z</time></trkpt><trkpt lat="42.93289" lon="12.1830772"><ele>520.0</ele><time>2026-05-02T08:34:46.729Z</time></trkpt><trkpt lat="42.9328426" lon="12.1829441"><ele>516.0</ele><time>2026-05-02T08:34:48.729Z</time></trkpt><trkpt lat="42.9328372" lon="12.18278"><ele>512.0</ele><time>2026-05-02T08:34:50.729Z</time></trkpt><trkpt lat="42.9328399" lon="12.1826204"><ele>508.0</ele><time>2026-05-02T08:34:52.729Z</time></trkpt><trkpt lat="42.9327945" lon="12.182468"><ele>504.0</ele><time>2026-05-02T08:34:54.729Z</time></trkpt><trkpt lat="42.932717" lon="12.1823571"><ele>501.25</ele><time>2026-05-02T08:34:56.729Z</time></trkpt><trkpt lat="42.9326164" lon="12.1822741"><ele>498.5</ele><time>2026-05-02T08:34:58.729Z</time></trkpt><trkpt lat="42.932502" lon="12.1822386"><ele>495.75</ele><time>2026-05-02T08:35:00.729Z</time></trkpt><trkpt lat="42.9323904" lon="12.1822448"><ele>493.0</ele><time>2026-05-02T08:35:02.729Z</time></trkpt><trkpt lat="42.9322772" lon="12.1822888"><ele>493.0</ele><time>2026-05-02T08:35:04.729Z</time></trkpt><trkpt lat="42.9321741" lon="12.1823477"><ele>493.0</ele><time>2026-05-02T08:35:06.729Z</time></trkpt><trkpt lat="42.9320629" lon="12.1823841"><ele>493.0</ele><time>2026-05-02T08:35:08.729Z</time></trkpt><trkpt lat="42.9319487" lon="12.1823387"><ele>493.0</ele><time>2026-05-02T08:35:10.729Z</time></trkpt><trkpt lat="42.9318472" lon="12.1822732"><ele>493.0</ele><time>2026-05-02T08:35:12.729Z</time></trkpt><trkpt lat="42.9317432" lon="12.1821864"><ele>492.99999999999994</ele><time>2026-05-02T08:35:14.729Z</time></trkpt><trkpt lat="42.9316466" lon="12.1820826"><ele>492.99999999999994</ele><time>2026-05-02T08:35:16.729Z</time></trkpt><trkpt lat="42.9315941" lon="12.1819982"><ele>493.0</ele><time>2026-05-02T08:35:17.729Z</time></trkpt><trkpt lat="42.9315419" lon="12.1818994"><ele>493.0</ele><time>2026-05-02T08:35:18.729Z</time></trkpt><trkpt lat="42.9314894" lon="12.1818011"><ele>491.00000000000006</ele><time>2026-05-02T08:35:19.729Z</time></trkpt><trkpt lat="42.9314378" lon="12.1817007"><ele>489.0</ele><time>2026-05-02T08:35:20.729Z</time></trkpt><trkpt lat="42.931377" lon="12.1816154"><ele>487.0</ele><time>2026-05-02T08:35:21.729Z</time></trkpt><trkpt lat="42.9313226" lon="12.1815289"><ele>485.0</ele><time>2026-05-02T08:35:22.729Z</time></trkpt><trkpt lat="42.9312673" lon="12.1814547"><ele>483.00000000000006</ele><time>2026-05-02T08:35:23.729Z</time></trkpt><trkpt lat="42.9312073" lon="12.1813759"><ele>481.0</ele><time>2026-05-02T08:35:24.729Z</time></trkpt><trkpt lat="42.9311369" lon="12.1812973"><ele>479.0</ele><time>2026-05-02T08:35:25.729Z</time></trkpt><trkpt lat="42.9310477" lon="12.1812252"><ele>477.0</ele><time>2026-05-02T08:35:26.729Z</time></trkpt><trkpt lat="42.9309599" lon="12.1811661"><ele>475.0</ele><time>2026-05-02T08:35:27.729Z</time></trkpt><trkpt lat="42.9308773" lon="12.1811049"><ele>473.0</ele><time>2026-05-02T08:35:28.729Z</time></trkpt><trkpt lat="42.9307951" lon="12.1810584"><ele>471.0</ele><time>2026-05-02T08:35:29.729Z</time></trkpt><trkpt lat="42.9307227" lon="12.1810063"><ele>470.5</ele><time>2026-05-02T08:35:30.729Z</time></trkpt><trkpt lat="42.9306557" lon="12.1809498"><ele>470.0</ele><time>2026-05-02T08:35:31.729Z</time></trkpt><trkpt lat="42.930591" lon="12.1808902"><ele>469.5</ele><time>2026-05-02T08:35:32.729Z</time></trkpt><trkpt lat="42.9305217" lon="12.1808413"><ele>469.0</ele><time>2026-05-02T08:35:33.729Z</time></trkpt><trkpt lat="42.9304498" lon="12.1808001"><ele>468.5</ele><time>2026-05-02T08:35:34.729Z</time></trkpt><trkpt lat="42.9303717" lon="12.180773"><ele>468.0</ele><time>2026-05-02T08:35:35.729Z</time></trkpt><trkpt lat="42.9302962" lon="12.1807648"><ele>468.0</ele><time>2026-05-02T08:35:36.729Z</time></trkpt><trkpt lat="42.9302161" lon="12.1807689"><ele>468.0</ele><time>2026-05-02T08:35:37.729Z</time></trkpt><trkpt lat="42.9301341" lon="12.1807512"><ele>468.0</ele><time>2026-05-02T08:35:38.729Z</time></trkpt><trkpt lat="42.9300472" lon="12.1807152"><ele>468.0</ele><time>2026-05-02T08:35:39.729Z</time></trkpt><trkpt lat="42.9299685" lon="12.1806692"><ele>468.0</ele><time>2026-05-02T08:35:40.729Z</time></trkpt><trkpt lat="42.9298901" lon="12.1806477"><ele>468.0</ele><time>2026-05-02T08:35:41.729Z</time></trkpt><trkpt lat="42.9298177" lon="12.180639"><ele>467.14285714285717</ele><time>2026-05-02T08:35:42.729Z</time></trkpt><trkpt lat="42.929754" lon="12.1806501"><ele>466.28571428571433</ele><time>2026-05-02T08:35:43.729Z</time></trkpt><trkpt lat="42.9296908" lon="12.1806605"><ele>465.42857142857144</ele><time>2026-05-02T08:35:44.729Z</time></trkpt><trkpt lat="42.9296083" lon="12.1806852"><ele>464.57142857142856</ele><time>2026-05-02T08:35:45.729Z</time></trkpt><trkpt lat="42.929532" lon="12.180708"><ele>463.7142857142857</ele><time>2026-05-02T08:35:46.729Z</time></trkpt><trkpt lat="42.9294604" lon="12.1807299"><ele>462.8571428571429</ele><time>2026-05-02T08:35:47.729Z</time></trkpt><trkpt lat="42.9293875" lon="12.1807618"><ele>462.0</ele><time>2026-05-02T08:35:48.729Z</time></trkpt><trkpt lat="42.9293117" lon="12.1807977"><ele>462.0</ele><time>2026-05-02T08:35:49.728Z</time></trkpt><trkpt lat="42.9292355" lon="12.1808205"><ele>462.0</ele><time>2026-05-02T08:35:50.729Z</time></trkpt><trkpt lat="42.9291589" lon="12.1808372"><ele>462.0</ele><time>2026-05-02T08:35:51.729Z</time></trkpt><trkpt lat="42.9290773" lon="12.1808539"><ele>462.0</ele><time>2026-05-02T08:35:52.729Z</time></trkpt><trkpt lat="42.9290038" lon="12.1808653"><ele>462.0</ele><time>2026-05-02T08:35:53.729Z</time></trkpt><trkpt lat="42.9289337" lon="12.1808768"><ele>462.0</ele><time>2026-05-02T08:35:54.729Z</time></trkpt><trkpt lat="42.9288598" lon="12.1808829"><ele>459.8333333333333</ele><time>2026-05-02T08:35:55.729Z</time></trkpt><trkpt lat="42.9287912" lon="12.1808924"><ele>457.66666666666663</ele><time>2026-05-02T08:35:56.729Z</time></trkpt><trkpt lat="42.9286797" lon="12.1809256"><ele>455.5</ele><time>2026-05-02T08:35:58.729Z</time></trkpt><trkpt lat="42.9286303" lon="12.1809813"><ele>453.3333333333333</ele><time>2026-05-02T08:35:59.729Z</time></trkpt><trkpt lat="42.9285748" lon="12.1810716"><ele>451.16666666666663</ele><time>2026-05-02T08:36:00.729Z</time></trkpt><trkpt lat="42.9285203" lon="12.1811668"><ele>449.0</ele><time>2026-05-02T08:36:01.728Z</time></trkpt><trkpt lat="42.9284708" lon="12.1812506"><ele>448.99999999999994</ele><time>2026-05-02T08:36:02.729Z</time></trkpt><trkpt lat="42.9284158" lon="12.1813282"><ele>449.0</ele><time>2026-05-02T08:36:03.729Z</time></trkpt><trkpt lat="42.9283528" lon="12.1813968"><ele>449.0</ele><time>2026-05-02T08:36:04.729Z</time></trkpt><trkpt lat="42.9282937" lon="12.181447"><ele>449.0</ele><time>2026-05-02T08:36:05.729Z</time></trkpt><trkpt lat="42.9282268" lon="12.1814867"><ele>448.99999999999994</ele><time>2026-05-02T08:36:06.729Z</time></trkpt><trkpt lat="42.928148" lon="12.1815"><ele>449.0</ele><time>2026-05-02T08:36:07.729Z</time></trkpt><trkpt lat="42.9280576" lon="12.1814969"><ele>447.0</ele><time>2026-05-02T08:36:08.729Z</time></trkpt><trkpt lat="42.9279706" lon="12.1814769"><ele>445.0</ele><time>2026-05-02T08:36:09.729Z</time></trkpt><trkpt lat="42.9278792" lon="12.1814507"><ele>443.0</ele><time>2026-05-02T08:36:10.729Z</time></trkpt><trkpt lat="42.9277802" lon="12.1813989"><ele>441.0</ele><time>2026-05-02T08:36:11.729Z</time></trkpt><trkpt lat="42.9276768" lon="12.1813322"><ele>439.0</ele><time>2026-05-02T08:36:12.729Z</time></trkpt><trkpt lat="42.9275774" lon="12.1812684"><ele>436.83333333333337</ele><time>2026-05-02T08:36:13.729Z</time></trkpt><trkpt lat="42.9274839" lon="12.1812059"><ele>434.6666666666667</ele><time>2026-05-02T08:36:14.729Z</time></trkpt><trkpt lat="42.9273933" lon="12.1811439"><ele>432.5</ele><time>2026-05-02T08:36:15.729Z</time></trkpt><trkpt lat="42.9273158" lon="12.1810878"><ele>430.33333333333337</ele><time>2026-05-02T08:36:16.729Z</time></trkpt><trkpt lat="42.9272411" lon="12.181043"><ele>428.1666666666667</ele><time>2026-05-02T08:36:17.729Z</time></trkpt><trkpt lat="42.9271726" lon="12.1810026"><ele>426.0</ele><time>2026-05-02T08:36:18.729Z</time></trkpt><trkpt lat="42.927097" lon="12.1809785"><ele>426.0</ele><time>2026-05-02T08:36:19.729Z</time></trkpt><trkpt lat="42.9270182" lon="12.1809695"><ele>426.0</ele><time>2026-05-02T08:36:20.729Z</time></trkpt><trkpt lat="42.92693" lon="12.1810157"><ele>426.0</ele><time>2026-05-02T08:36:21.729Z</time></trkpt><trkpt lat="42.9268473" lon="12.1810744"><ele>426.0</ele><time>2026-05-02T08:36:22.729Z</time></trkpt><trkpt lat="42.9267613" lon="12.1811433"><ele>426.0</ele><time>2026-05-02T08:36:23.729Z</time></trkpt><trkpt lat="42.9266793" lon="12.1812125"><ele>424.8</ele><time>2026-05-02T08:36:24.729Z</time></trkpt><trkpt lat="42.9265943" lon="12.1812823"><ele>423.6</ele><time>2026-05-02T08:36:25.729Z</time></trkpt><trkpt lat="42.9265056" lon="12.1813492"><ele>422.4</ele><time>2026-05-02T08:36:26.729Z</time></trkpt><trkpt lat="42.9264147" lon="12.1814187"><ele>421.2</ele><time>2026-05-02T08:36:27.729Z</time></trkpt><trkpt lat="42.9263235" lon="12.181487"><ele>420.0</ele><time>2026-05-02T08:36:28.729Z</time></trkpt><trkpt lat="42.9262151" lon="12.1815527"><ele>419.8</ele><time>2026-05-02T08:36:29.729Z</time></trkpt><trkpt lat="42.9261208" lon="12.181611"><ele>419.6</ele><time>2026-05-02T08:36:30.729Z</time></trkpt><trkpt lat="42.9260268" lon="12.1816749"><ele>419.4</ele><time>2026-05-02T08:36:31.729Z</time></trkpt><trkpt lat="42.9259308" lon="12.1817329"><ele>419.2</ele><time>2026-05-02T08:36:32.729Z</time></trkpt><trkpt lat="42.9258353" lon="12.1817972"><ele>419.0</ele><time>2026-05-02T08:36:33.729Z</time></trkpt><trkpt lat="42.9257332" lon="12.1818612"><ele>417.79999999999995</ele><time>2026-05-02T08:36:34.729Z</time></trkpt><trkpt lat="42.9256373" lon="12.1819075"><ele>416.59999999999997</ele><time>2026-05-02T08:36:35.729Z</time></trkpt><trkpt lat="42.925545" lon="12.1819693"><ele>415.4</ele><time>2026-05-02T08:36:36.729Z</time></trkpt><trkpt lat="42.9254577" lon="12.182008"><ele>414.2</ele><time>2026-05-02T08:36:37.729Z</time></trkpt><trkpt lat="42.9253559" lon="12.1820301"><ele>413.0</ele><time>2026-05-02T08:36:38.729Z</time></trkpt><trkpt lat="42.9252344" lon="12.1820495"><ele>413.0</ele><time>2026-05-02T08:36:39.729Z</time></trkpt><trkpt lat="42.9251148" lon="12.1820744"><ele>413.0</ele><time>2026-05-02T08:36:40.729Z</time></trkpt><trkpt lat="42.9249958" lon="12.1821162"><ele>413.0</ele><time>2026-05-02T08:36:41.729Z</time></trkpt><trkpt lat="42.9248737" lon="12.1821755"><ele>413.0</ele><time>2026-05-02T08:36:42.729Z</time></trkpt><trkpt lat="42.9247739" lon="12.1822349"><ele>413.0</ele><time>2026-05-02T08:36:43.729Z</time></trkpt><trkpt lat="42.924682" lon="12.1822959"><ele>413.0</ele><time>2026-05-02T08:36:44.729Z</time></trkpt><trkpt lat="42.9246016" lon="12.1823601"><ele>413.0</ele><time>2026-05-02T08:36:45.729Z</time></trkpt><trkpt lat="42.9245254" lon="12.1824389"><ele>413.0</ele><time>2026-05-02T08:36:46.729Z</time></trkpt><trkpt lat="42.9244567" lon="12.1825231"><ele>413.0</ele><time>2026-05-02T08:36:47.729Z</time></trkpt><trkpt lat="42.924387" lon="12.1826444"><ele>413.0</ele><time>2026-05-02T08:36:48.729Z</time></trkpt><trkpt lat="42.9243213" lon="12.1827659"><ele>413.0</ele><time>2026-05-02T08:36:49.729Z</time></trkpt><trkpt lat="42.9242702" lon="12.1828715"><ele>413.0</ele><time>2026-05-02T08:36:50.729Z</time></trkpt><trkpt lat="42.9242113" lon="12.1829614"><ele>413.0</ele><time>2026-05-02T08:36:51.729Z</time></trkpt><trkpt lat="42.9241319" lon="12.1830131"><ele>413.0</ele><time>2026-05-02T08:36:52.729Z</time></trkpt><trkpt lat="42.924038" lon="12.1830586"><ele>414.79999999999995</ele><time>2026-05-02T08:36:53.729Z</time></trkpt><trkpt lat="42.9239439" lon="12.1831042"><ele>416.6</ele><time>2026-05-02T08:36:54.728Z</time></trkpt><trkpt lat="42.9238506" lon="12.1831366"><ele>418.4</ele><time>2026-05-02T08:36:55.728Z</time></trkpt><trkpt lat="42.9237675" lon="12.183163"><ele>420.20000000000005</ele><time>2026-05-02T08:36:56.729Z</time></trkpt><trkpt lat="42.9236841" lon="12.1831734"><ele>422.0</ele><time>2026-05-02T08:36:57.729Z</time></trkpt><trkpt lat="42.9235841" lon="12.1831564"><ele>422.0</ele><time>2026-05-02T08:36:58.729Z</time></trkpt><trkpt lat="42.9234759" lon="12.1831304"><ele>422.0</ele><time>2026-05-02T08:36:59.729Z</time></trkpt><trkpt lat="42.9233796" lon="12.1830933"><ele>422.0</ele><time>2026-05-02T08:37:00.729Z</time></trkpt><trkpt lat="42.9232872" lon="12.1830415"><ele>422.0</ele><time>2026-05-02T08:37:01.729Z</time></trkpt><trkpt lat="42.9232012" lon="12.1829782"><ele>422.0</ele><time>2026-05-02T08:37:02.729Z</time></trkpt><trkpt lat="42.9231064" lon="12.1829081"><ele>422.20000000000005</ele><time>2026-05-02T08:37:03.729Z</time></trkpt><trkpt lat="42.9230251" lon="12.1828312"><ele>422.4</ele><time>2026-05-02T08:37:04.729Z</time></trkpt><trkpt lat="42.9229348" lon="12.1827544"><ele>422.6</ele><time>2026-05-02T08:37:05.729Z</time></trkpt><trkpt lat="42.9228512" lon="12.182694"><ele>422.79999999999995</ele><time>2026-05-02T08:37:06.729Z</time></trkpt><trkpt lat="42.9227702" lon="12.1826454"><ele>423.0</ele><time>2026-05-02T08:37:07.729Z</time></trkpt><trkpt lat="42.922697" lon="12.1826288"><ele>423.0</ele><time>2026-05-02T08:37:08.729Z</time></trkpt><trkpt lat="42.9226311" lon="12.1826573"><ele>423.0</ele><time>2026-05-02T08:37:09.729Z</time></trkpt><trkpt lat="42.922577" lon="12.1827141"><ele>423.0</ele><time>2026-05-02T08:37:10.729Z</time></trkpt><trkpt lat="42.9224843" lon="12.1828172"><ele>423.0</ele><time>2026-05-02T08:37:12.729Z</time></trkpt><trkpt lat="42.9224019" lon="12.1828608"><ele>423.0</ele><time>2026-05-02T08:37:14.729Z</time></trkpt><trkpt lat="42.9223087" lon="12.1828215"><ele>423.0</ele><time>2026-05-02T08:37:16.729Z</time></trkpt><trkpt lat="42.9221911" lon="12.1827494"><ele>421.5</ele><time>2026-05-02T08:37:18.729Z</time></trkpt><trkpt lat="42.9221178" lon="12.1827171"><ele>420.0</ele><time>2026-05-02T08:37:19.729Z</time></trkpt><trkpt lat="42.9220447" lon="12.1826859"><ele>418.5</ele><time>2026-05-02T08:37:20.729Z</time></trkpt><trkpt lat="42.9219639" lon="12.1826652"><ele>417.0</ele><time>2026-05-02T08:37:21.729Z</time></trkpt><trkpt lat="42.921881" lon="12.1826412"><ele>415.5</ele><time>2026-05-02T08:37:22.729Z</time></trkpt><trkpt lat="42.9218096" lon="12.1826236"><ele>414.0</ele><time>2026-05-02T08:37:23.729Z</time></trkpt><trkpt lat="42.9217264" lon="12.1825953"><ele>413.42857142857144</ele><time>2026-05-02T08:37:25.729Z</time></trkpt><trkpt lat="42.9216271" lon="12.1825736"><ele>412.8571428571429</ele><time>2026-05-02T08:37:27.729Z</time></trkpt><trkpt lat="42.9215628" lon="12.1825543"><ele>412.28571428571433</ele><time>2026-05-02T08:37:28.729Z</time></trkpt><trkpt lat="42.9214877" lon="12.1825259"><ele>411.7142857142857</ele><time>2026-05-02T08:37:29.729Z</time></trkpt><trkpt lat="42.9214263" lon="12.1824927"><ele>411.1428571428571</ele><time>2026-05-02T08:37:30.729Z</time></trkpt><trkpt lat="42.9213623" lon="12.1824677"><ele>410.5714285714286</ele><time>2026-05-02T08:37:31.729Z</time></trkpt><trkpt lat="42.9213042" lon="12.1824195"><ele>410.0</ele><time>2026-05-02T08:37:32.729Z</time></trkpt><trkpt lat="42.9212511" lon="12.1823633"><ele>409.0</ele><time>2026-05-02T08:37:33.729Z</time></trkpt><trkpt lat="42.9211989" lon="12.1823075"><ele>408.0</ele><time>2026-05-02T08:37:34.729Z</time></trkpt><trkpt lat="42.9211456" lon="12.1822422"><ele>407.0</ele><time>2026-05-02T08:37:35.729Z</time></trkpt><trkpt lat="42.921094" lon="12.1821885"><ele>406.0</ele><time>2026-05-02T08:37:36.729Z</time></trkpt><trkpt lat="42.9210383" lon="12.1821216"><ele>405.0</ele><time>2026-05-02T08:37:37.729Z</time></trkpt><trkpt lat="42.9209829" lon="12.1820531"><ele>404.0</ele><time>2026-05-02T08:37:38.729Z</time></trkpt><trkpt lat="42.9209207" lon="12.1819973"><ele>403.0</ele><time>2026-05-02T08:37:39.729Z</time></trkpt><trkpt lat="42.9208562" lon="12.1819386"><ele>403.00000000000006</ele><time>2026-05-02T08:37:40.729Z</time></trkpt><trkpt lat="42.9207862" lon="12.1818735"><ele>403.0</ele><time>2026-05-02T08:37:41.729Z</time></trkpt><trkpt lat="42.9207229" lon="12.1818152"><ele>403.0</ele><time>2026-05-02T08:37:42.729Z</time></trkpt><trkpt lat="42.9206518" lon="12.1817537"><ele>403.0</ele><time>2026-05-02T08:37:43.729Z</time></trkpt><trkpt lat="42.9205779" lon="12.1817028"><ele>403.00000000000006</ele><time>2026-05-02T08:37:44.729Z</time></trkpt><trkpt lat="42.9205007" lon="12.1816577"><ele>403.0</ele><time>2026-05-02T08:37:45.729Z</time></trkpt><trkpt lat="42.9204073" lon="12.1815785"><ele>403.00000000000006</ele><time>2026-05-02T08:37:46.729Z</time></trkpt><trkpt lat="42.9203174" lon="12.1815174"><ele>403.0</ele><time>2026-05-02T08:37:47.729Z</time></trkpt><trkpt lat="42.9202374" lon="12.1814613"><ele>403.0</ele><time>2026-05-02T08:37:48.729Z</time></trkpt><trkpt lat="42.9201699" lon="12.1814104"><ele>403.0</ele><time>2026-05-02T08:37:49.729Z</time></trkpt><trkpt lat="42.9200974" lon="12.1813773"><ele>403.00000000000006</ele><time>2026-05-02T08:37:50.729Z</time></trkpt><trkpt lat="42.9200258" lon="12.1813352"><ele>403.0</ele><time>2026-05-02T08:37:51.729Z</time></trkpt><trkpt lat="42.9199496" lon="12.1812855"><ele>402.33333333333337</ele><time>2026-05-02T08:37:52.729Z</time></trkpt><trkpt lat="42.9198686" lon="12.1812287"><ele>401.6666666666667</ele><time>2026-05-02T08:37:53.729Z</time></trkpt><trkpt lat="42.9197831" lon="12.1811644"><ele>401.0</ele><time>2026-05-02T08:37:54.729Z</time></trkpt><trkpt lat="42.9197129" lon="12.1810963"><ele>400.33333333333337</ele><time>2026-05-02T08:37:55.729Z</time></trkpt><trkpt lat="42.9196498" lon="12.1810272"><ele>399.6666666666667</ele><time>2026-05-02T08:37:56.729Z</time></trkpt><trkpt lat="42.9195986" lon="12.1809692"><ele>399.0</ele><time>2026-05-02T08:37:57.729Z</time></trkpt><trkpt lat="42.9195508" lon="12.180908"><ele>399.0</ele><time>2026-05-02T08:37:58.729Z</time></trkpt><trkpt lat="42.9194941" lon="12.180856"><ele>399.0</ele><time>2026-05-02T08:37:59.729Z</time></trkpt><trkpt lat="42.9194342" lon="12.1808071"><ele>399.0</ele><time>2026-05-02T08:38:00.729Z</time></trkpt><trkpt lat="42.9193583" lon="12.1807697"><ele>399.0</ele><time>2026-05-02T08:38:01.729Z</time></trkpt><trkpt lat="42.9192688" lon="12.18073"><ele>399.0</ele><time>2026-05-02T08:38:02.729Z</time></trkpt><trkpt lat="42.9191931" lon="12.1807151"><ele>399.0</ele><time>2026-05-02T08:38:03.729Z</time></trkpt><trkpt lat="42.9191097" lon="12.180703"><ele>399.79999999999995</ele><time>2026-05-02T08:38:04.729Z</time></trkpt><trkpt lat="42.9190295" lon="12.1807034"><ele>400.59999999999997</ele><time>2026-05-02T08:38:05.729Z</time></trkpt><trkpt lat="42.9188964" lon="12.1806706"><ele>401.4</ele><time>2026-05-02T08:38:07.729Z</time></trkpt><trkpt lat="42.9188305" lon="12.1806362"><ele>402.2</ele><time>2026-05-02T08:38:08.729Z</time></trkpt><trkpt lat="42.9187616" lon="12.1805697"><ele>403.0</ele><time>2026-05-02T08:38:09.729Z</time></trkpt><trkpt lat="42.9186957" lon="12.1804952"><ele>401.7142857142857</ele><time>2026-05-02T08:38:10.729Z</time></trkpt><trkpt lat="42.9186379" lon="12.1804264"><ele>400.4285714285714</ele><time>2026-05-02T08:38:11.729Z</time></trkpt><trkpt lat="42.9185709" lon="12.1803463"><ele>399.1428571428571</ele><time>2026-05-02T08:38:12.729Z</time></trkpt><trkpt lat="42.9185254" lon="12.1802675"><ele>397.8571428571429</ele><time>2026-05-02T08:38:13.729Z</time></trkpt><trkpt lat="42.9184846" lon="12.1801917"><ele>396.57142857142856</ele><time>2026-05-02T08:38:14.729Z</time></trkpt><trkpt lat="42.9184523" lon="12.1801176"><ele>395.2857142857143</ele><time>2026-05-02T08:38:15.729Z</time></trkpt><trkpt lat="42.9184124" lon="12.1800372"><ele>394.0</ele><time>2026-05-02T08:38:16.729Z</time></trkpt><trkpt lat="42.9183646" lon="12.1799614"><ele>394.0</ele><time>2026-05-02T08:38:17.729Z</time></trkpt><trkpt lat="42.9183189" lon="12.1798819"><ele>394.0</ele><time>2026-05-02T08:38:18.729Z</time></trkpt><trkpt lat="42.9182808" lon="12.179804"><ele>394.0</ele><time>2026-05-02T08:38:19.729Z</time></trkpt><trkpt lat="42.9182456" lon="12.179721"><ele>394.0</ele><time>2026-05-02T08:38:20.729Z</time></trkpt><trkpt lat="42.9182086" lon="12.1796309"><ele>394.0</ele><time>2026-05-02T08:38:21.729Z</time></trkpt><trkpt lat="42.9181776" lon="12.1795445"><ele>394.0</ele><time>2026-05-02T08:38:22.729Z</time></trkpt><trkpt lat="42.9181526" lon="12.1794528"><ele>394.0</ele><time>2026-05-02T08:38:23.729Z</time></trkpt><trkpt lat="42.9181247" lon="12.179366"><ele>393.33333333333337</ele><time>2026-05-02T08:38:24.729Z</time></trkpt><trkpt lat="42.9180783" lon="12.1792944"><ele>392.6666666666667</ele><time>2026-05-02T08:38:25.729Z</time></trkpt><trkpt lat="42.9179752" lon="12.1792045"><ele>392.0</ele><time>2026-05-02T08:38:27.729Z</time></trkpt><trkpt lat="42.9179066" lon="12.1791698"><ele>391.33333333333337</ele><time>2026-05-02T08:38:28.729Z</time></trkpt><trkpt lat="42.9178359" lon="12.1791596"><ele>390.6666666666667</ele><time>2026-05-02T08:38:29.729Z</time></trkpt><trkpt lat="42.917755" lon="12.1791318"><ele>390.0</ele><time>2026-05-02T08:38:30.729Z</time></trkpt><trkpt lat="42.9176727" lon="12.1791042"><ele>390.0</ele><time>2026-05-02T08:38:31.729Z</time></trkpt><trkpt lat="42.9175955" lon="12.179073"><ele>390.0</ele><time>2026-05-02T08:38:32.729Z</time></trkpt><trkpt lat="42.9175183" lon="12.1790362"><ele>390.0</ele><time>2026-05-02T08:38:33.729Z</time></trkpt><trkpt lat="42.9174387" lon="12.1789975"><ele>390.0</ele><time>2026-05-02T08:38:34.729Z</time></trkpt><trkpt lat="42.9173706" lon="12.1789567"><ele>390.0</ele><time>2026-05-02T08:38:35.729Z</time></trkpt><trkpt lat="42.9173113" lon="12.1789072"><ele>390.0</ele><time>2026-05-02T08:38:36.729Z</time></trkpt><trkpt lat="42.9172546" lon="12.1788374"><ele>387.4</ele><time>2026-05-02T08:38:37.729Z</time></trkpt><trkpt lat="42.9171931" lon="12.1787561"><ele>384.8</ele><time>2026-05-02T08:38:38.729Z</time></trkpt><trkpt lat="42.917146" lon="12.1786751"><ele>382.20000000000005</ele><time>2026-05-02T08:38:39.729Z</time></trkpt><trkpt lat="42.9171006" lon="12.178527"><ele>379.6</ele><time>2026-05-02T08:38:41.729Z</time></trkpt><trkpt lat="42.917139" lon="12.1784079"><ele>377.0</ele><time>2026-05-02T08:38:43.729Z</time></trkpt><trkpt lat="42.9171246" lon="12.1783032"><ele>377.0</ele><time>2026-05-02T08:38:45.729Z</time></trkpt><trkpt lat="42.9170503" lon="12.1782743"><ele>377.0</ele><time>2026-05-02T08:38:47.729Z</time></trkpt><trkpt lat="42.9169595" lon="12.1783505"><ele>377.0</ele><time>2026-05-02T08:38:49.729Z</time></trkpt><trkpt lat="42.9168585" lon="12.1784157"><ele>377.0</ele><time>2026-05-02T08:38:51.729Z</time></trkpt><trkpt lat="42.916767" lon="12.1783983"><ele>377.0</ele><time>2026-05-02T08:38:53.729Z</time></trkpt><trkpt lat="42.9166994" lon="12.1783134"><ele>375.33333333333337</ele><time>2026-05-02T08:38:55.729Z</time></trkpt><trkpt lat="42.9166798" lon="12.1782168"><ele>373.6666666666667</ele><time>2026-05-02T08:38:57.729Z</time></trkpt><trkpt lat="42.9166955" lon="12.1781063"><ele>372.0</ele><time>2026-05-02T08:38:59.729Z</time></trkpt><trkpt lat="42.9166536" lon="12.177995"><ele>370.3333333333333</ele><time>2026-05-02T08:39:01.728Z</time></trkpt><trkpt lat="42.9165905" lon="12.1779216"><ele>368.66666666666663</ele><time>2026-05-02T08:39:03.729Z</time></trkpt><trkpt lat="42.9165169" lon="12.1779299"><ele>367.0</ele><time>2026-05-02T08:39:04.729Z</time></trkpt><trkpt lat="42.9164458" lon="12.1779377"><ele>364.40000000000003</ele><time>2026-05-02T08:39:05.729Z</time></trkpt><trkpt lat="42.9163757" lon="12.1779624"><ele>361.8</ele><time>2026-05-02T08:39:06.729Z</time></trkpt><trkpt lat="42.9162708" lon="12.1779978"><ele>359.2</ele><time>2026-05-02T08:39:08.729Z</time></trkpt><trkpt lat="42.9161716" lon="12.1779391"><ele>356.6</ele><time>2026-05-02T08:39:10.729Z</time></trkpt><trkpt lat="42.9161017" lon="12.1778531"><ele>354.0</ele><time>2026-05-02T08:39:12.729Z</time></trkpt><trkpt lat="42.9160315" lon="12.1777444"><ele>354.0</ele><time>2026-05-02T08:39:14.729Z</time></trkpt><trkpt lat="42.9159855" lon="12.1776505"><ele>354.0</ele><time>2026-05-02T08:39:16.729Z</time></trkpt><trkpt lat="42.9159561" lon="12.1775355"><ele>354.0</ele><time>2026-05-02T08:39:18.729Z</time></trkpt><trkpt lat="42.915918" lon="12.1774204"><ele>354.0</ele><time>2026-05-02T08:39:20.729Z</time></trkpt><trkpt lat="42.9158368" lon="12.1773555"><ele>354.0</ele><time>2026-05-02T08:39:22.729Z</time></trkpt><trkpt lat="42.9157421" lon="12.1773223"><ele>352.2</ele><time>2026-05-02T08:39:24.729Z</time></trkpt><trkpt lat="42.9156916" lon="12.1772129"><ele>350.4</ele><time>2026-05-02T08:39:26.729Z</time></trkpt><trkpt lat="42.9156755" lon="12.1770681"><ele>348.6</ele><time>2026-05-02T08:39:28.729Z</time></trkpt><trkpt lat="42.9156984" lon="12.1769259"><ele>346.8</ele><time>2026-05-02T08:39:30.729Z</time></trkpt><trkpt lat="42.9157493" lon="12.1768492"><ele>345.0</ele><time>2026-05-02T08:39:32.729Z</time></trkpt><trkpt lat="42.9158077" lon="12.1768095"><ele>345.0</ele><time>2026-05-02T08:39:34.729Z</time></trkpt><trkpt lat="42.9158989" lon="12.1767897"><ele>345.0</ele><time>2026-05-02T08:39:37.729Z</time></trkpt><trkpt lat="42.915995" lon="12.1767496"><ele>345.0</ele><time>2026-05-02T08:39:39.729Z</time></trkpt><trkpt lat="42.9161126" lon="12.1767206"><ele>345.0</ele><time>2026-05-02T08:39:41.729Z</time></trkpt><trkpt lat="42.9162352" lon="12.1767994"><ele>345.0</ele><time>2026-05-02T08:39:43.729Z</time></trkpt><trkpt lat="42.9162922" lon="12.1768677"><ele>345.1666666666667</ele><time>2026-05-02T08:39:44.729Z</time></trkpt><trkpt lat="42.9163648" lon="12.1769374"><ele>345.3333333333333</ele><time>2026-05-02T08:39:45.729Z</time></trkpt><trkpt lat="42.9164269" lon="12.1769839"><ele>345.5</ele><time>2026-05-02T08:39:46.729Z</time></trkpt><trkpt lat="42.9165006" lon="12.1770077"><ele>345.66666666666663</ele><time>2026-05-02T08:39:47.729Z</time></trkpt><trkpt lat="42.916616" lon="12.1769983"><ele>345.8333333333333</ele><time>2026-05-02T08:39:49.729Z</time></trkpt><trkpt lat="42.9166741" lon="12.1769565"><ele>346.0</ele><time>2026-05-02T08:39:50.729Z</time></trkpt><trkpt lat="42.9167239" lon="12.1769025"><ele>346.3333333333333</ele><time>2026-05-02T08:39:51.729Z</time></trkpt><trkpt lat="42.9167762" lon="12.1768349"><ele>346.66666666666663</ele><time>2026-05-02T08:39:52.729Z</time></trkpt><trkpt lat="42.9168233" lon="12.1767753"><ele>347.0</ele><time>2026-05-02T08:39:53.729Z</time></trkpt><trkpt lat="42.9168702" lon="12.1767068"><ele>347.3333333333333</ele><time>2026-05-02T08:39:54.729Z</time></trkpt><trkpt lat="42.916915" lon="12.1766454"><ele>347.6666666666667</ele><time>2026-05-02T08:39:55.729Z</time></trkpt><trkpt lat="42.9169946" lon="12.1765287"><ele>348.0</ele><time>2026-05-02T08:39:57.729Z</time></trkpt><trkpt lat="42.9170837" lon="12.1764529"><ele>349.75</ele><time>2026-05-02T08:39:59.729Z</time></trkpt><trkpt lat="42.9172029" lon="12.1763921"><ele>351.5</ele><time>2026-05-02T08:40:01.729Z</time></trkpt><trkpt lat="42.9172887" lon="12.1763303"><ele>353.25</ele><time>2026-05-02T08:40:03.729Z</time></trkpt><trkpt lat="42.9173765" lon="12.1762037"><ele>355.0</ele><time>2026-05-02T08:40:05.729Z</time></trkpt><trkpt lat="42.9174426" lon="12.1760607"><ele>355.0</ele><time>2026-05-02T08:40:07.729Z</time></trkpt><trkpt lat="42.9174972" lon="12.1759104"><ele>355.0</ele><time>2026-05-02T08:40:09.729Z</time></trkpt><trkpt lat="42.9174963" lon="12.1758185"><ele>355.0</ele><time>2026-05-02T08:40:10.729Z</time></trkpt><trkpt lat="42.9174913" lon="12.1757175"><ele>355.0</ele><time>2026-05-02T08:40:11.729Z</time></trkpt><trkpt lat="42.9174647" lon="12.1756343"><ele>355.0</ele><time>2026-05-02T08:40:12.729Z</time></trkpt><trkpt lat="42.9173997" lon="12.175522"><ele>355.0</ele><time>2026-05-02T08:40:14.729Z</time></trkpt><trkpt lat="42.9173281" lon="12.1755024"><ele>357.3333333333333</ele><time>2026-05-02T08:40:16.729Z</time></trkpt><trkpt lat="42.9172312" lon="12.1755142"><ele>359.66666666666663</ele><time>2026-05-02T08:40:18.729Z</time></trkpt><trkpt lat="42.9171102" lon="12.1755001"><ele>362.0</ele><time>2026-05-02T08:40:20.729Z</time></trkpt><trkpt lat="42.9170462" lon="12.1754649"><ele>364.3333333333333</ele><time>2026-05-02T08:40:21.729Z</time></trkpt><trkpt lat="42.9169875" lon="12.1754309"><ele>366.6666666666667</ele><time>2026-05-02T08:40:22.729Z</time></trkpt><trkpt lat="42.9169286" lon="12.1753917"><ele>369.0</ele><time>2026-05-02T08:40:23.729Z</time></trkpt><trkpt lat="42.9168567" lon="12.1753356"><ele>369.0</ele><time>2026-05-02T08:40:24.729Z</time></trkpt><trkpt lat="42.9167543" lon="12.1752421"><ele>369.0</ele><time>2026-05-02T08:40:26.729Z</time></trkpt><trkpt lat="42.9166727" lon="12.1751416"><ele>369.0</ele><time>2026-05-02T08:40:28.729Z</time></trkpt><trkpt lat="42.9166673" lon="12.1750093"><ele>369.0</ele><time>2026-05-02T08:40:30.729Z</time></trkpt><trkpt lat="42.9166974" lon="12.1748642"><ele>369.0</ele><time>2026-05-02T08:40:32.729Z</time></trkpt><trkpt lat="42.9167445" lon="12.1746903"><ele>370.6666666666667</ele><time>2026-05-02T08:40:34.729Z</time></trkpt><trkpt lat="42.9167601" lon="12.1745779"><ele>372.3333333333333</ele><time>2026-05-02T08:40:35.729Z</time></trkpt><trkpt lat="42.9167552" lon="12.1744872"><ele>374.0</ele><time>2026-05-02T08:40:36.729Z</time></trkpt><trkpt lat="42.9167386" lon="12.1743928"><ele>375.66666666666663</ele><time>2026-05-02T08:40:37.729Z</time></trkpt><trkpt lat="42.9167044" lon="12.174286"><ele>377.3333333333333</ele><time>2026-05-02T08:40:38.729Z</time></trkpt><trkpt lat="42.9166556" lon="12.1741721"><ele>379.0</ele><time>2026-05-02T08:40:39.729Z</time></trkpt><trkpt lat="42.9166224" lon="12.1740547"><ele>380.8333333333333</ele><time>2026-05-02T08:40:40.729Z</time></trkpt><trkpt lat="42.9165903" lon="12.1739454"><ele>382.66666666666663</ele><time>2026-05-02T08:40:41.729Z</time></trkpt><trkpt lat="42.9165615" lon="12.1738366"><ele>384.5</ele><time>2026-05-02T08:40:42.729Z</time></trkpt><trkpt lat="42.9165341" lon="12.1737455"><ele>386.3333333333333</ele><time>2026-05-02T08:40:43.729Z</time></trkpt><trkpt lat="42.9165157" lon="12.1736608"><ele>388.1666666666667</ele><time>2026-05-02T08:40:44.729Z</time></trkpt><trkpt lat="42.9165284" lon="12.1735007"><ele>390.0</ele><time>2026-05-02T08:40:46.729Z</time></trkpt><trkpt lat="42.9165816" lon="12.1733506"><ele>391.0</ele><time>2026-05-02T08:40:48.728Z</time></trkpt><trkpt lat="42.9166198" lon="12.173174"><ele>392.0</ele><time>2026-05-02T08:40:50.729Z</time></trkpt><trkpt lat="42.9166835" lon="12.173036"><ele>393.0</ele><time>2026-05-02T08:40:52.729Z</time></trkpt><trkpt lat="42.9167547" lon="12.1728954"><ele>394.0</ele><time>2026-05-02T08:40:54.729Z</time></trkpt><trkpt lat="42.9168455" lon="12.1727617"><ele>395.33333333333337</ele><time>2026-05-02T08:40:56.729Z</time></trkpt><trkpt lat="42.91692" lon="12.1726953"><ele>396.6666666666667</ele><time>2026-05-02T08:40:57.729Z</time></trkpt><trkpt lat="42.9169785" lon="12.1726139"><ele>398.0</ele><time>2026-05-02T08:40:58.729Z</time></trkpt><trkpt lat="42.9170433" lon="12.1725358"><ele>399.33333333333337</ele><time>2026-05-02T08:40:59.729Z</time></trkpt><trkpt lat="42.9171082" lon="12.1724638"><ele>400.6666666666667</ele><time>2026-05-02T08:41:00.729Z</time></trkpt><trkpt lat="42.9171754" lon="12.1723988"><ele>402.0</ele><time>2026-05-02T08:41:01.729Z</time></trkpt><trkpt lat="42.9172392" lon="12.1723264"><ele>403.6</ele><time>2026-05-02T08:41:02.729Z</time></trkpt><trkpt lat="42.9173139" lon="12.1722519"><ele>405.20000000000005</ele><time>2026-05-02T08:41:03.729Z</time></trkpt><trkpt lat="42.9173806" lon="12.1721692"><ele>406.8</ele><time>2026-05-02T08:41:04.729Z</time></trkpt><trkpt lat="42.917452" lon="12.172105"><ele>408.4</ele><time>2026-05-02T08:41:05.729Z</time></trkpt><trkpt lat="42.9174948" lon="12.1720273"><ele>410.0</ele><time>2026-05-02T08:41:06.729Z</time></trkpt><trkpt lat="42.9175299" lon="12.1718544"><ele>409.99999999999994</ele><time>2026-05-02T08:41:08.729Z</time></trkpt><trkpt lat="42.9175457" lon="12.1717711"><ele>410.0</ele><time>2026-05-02T08:41:09.729Z</time></trkpt><trkpt lat="42.9175701" lon="12.1716841"><ele>410.0</ele><time>2026-05-02T08:41:10.729Z</time></trkpt><trkpt lat="42.91759" lon="12.1715923"><ele>410.0</ele><time>2026-05-02T08:41:11.729Z</time></trkpt><trkpt lat="42.9175969" lon="12.1715029"><ele>409.99999999999994</ele><time>2026-05-02T08:41:12.729Z</time></trkpt><trkpt lat="42.9175734" lon="12.1713355"><ele>410.0</ele><time>2026-05-02T08:41:14.729Z</time></trkpt><trkpt lat="42.917561" lon="12.1712503"><ele>411.0</ele><time>2026-05-02T08:41:15.729Z</time></trkpt><trkpt lat="42.9175817" lon="12.1710967"><ele>412.0</ele><time>2026-05-02T08:41:17.729Z</time></trkpt><trkpt lat="42.9176648" lon="12.1709684"><ele>413.0</ele><time>2026-05-02T08:41:19.729Z</time></trkpt><trkpt lat="42.9177271" lon="12.1709109"><ele>414.0</ele><time>2026-05-02T08:41:20.729Z</time></trkpt><trkpt lat="42.9177964" lon="12.1708341"><ele>415.0</ele><time>2026-05-02T08:41:21.729Z</time></trkpt><trkpt lat="42.9178731" lon="12.1707626"><ele>415.00000000000006</ele><time>2026-05-02T08:41:22.729Z</time></trkpt><trkpt lat="42.91795" lon="12.1706977"><ele>415.0</ele><time>2026-05-02T08:41:23.729Z</time></trkpt><trkpt lat="42.9180185" lon="12.1706213"><ele>415.0</ele><time>2026-05-02T08:41:24.729Z</time></trkpt><trkpt lat="42.9180633" lon="12.1705363"><ele>415.0</ele><time>2026-05-02T08:41:25.729Z</time></trkpt><trkpt lat="42.9181034" lon="12.170453"><ele>415.00000000000006</ele><time>2026-05-02T08:41:26.729Z</time></trkpt><trkpt lat="42.9181307" lon="12.170363"><ele>415.0</ele><time>2026-05-02T08:41:27.729Z</time></trkpt><trkpt lat="42.9181271" lon="12.170223"><ele>416.00000000000006</ele><time>2026-05-02T08:41:29.729Z</time></trkpt><trkpt lat="42.9180538" lon="12.1701755"><ele>417.0</ele><time>2026-05-02T08:41:31.729Z</time></trkpt><trkpt lat="42.9179548" lon="12.1702499"><ele>418.0</ele><time>2026-05-02T08:41:33.729Z</time></trkpt><trkpt lat="42.9179032" lon="12.1703137"><ele>419.0</ele><time>2026-05-02T08:41:34.729Z</time></trkpt><trkpt lat="42.9178451" lon="12.1703532"><ele>420.00000000000006</ele><time>2026-05-02T08:41:35.729Z</time></trkpt><trkpt lat="42.9177517" lon="12.1703482"><ele>421.0</ele><time>2026-05-02T08:41:37.729Z</time></trkpt><trkpt lat="42.9176492" lon="12.1703604"><ele>421.00000000000006</ele><time>2026-05-02T08:41:39.729Z</time></trkpt><trkpt lat="42.9175643" lon="12.1703695"><ele>421.0</ele><time>2026-05-02T08:41:41.729Z</time></trkpt><trkpt lat="42.9175141" lon="12.1703163"><ele>421.0</ele><time>2026-05-02T08:41:43.729Z</time></trkpt><trkpt lat="42.9175035" lon="12.1702241"><ele>421.0</ele><time>2026-05-02T08:41:45.729Z</time></trkpt><trkpt lat="42.9175513" lon="12.1701211"><ele>421.00000000000006</ele><time>2026-05-02T08:41:47.729Z</time></trkpt><trkpt lat="42.9176035" lon="12.1700316"><ele>421.0</ele><time>2026-05-02T08:41:49.729Z</time></trkpt><trkpt lat="42.9176467" lon="12.1699086"><ele>421.00000000000006</ele><time>2026-05-02T08:41:51.729Z</time></trkpt><trkpt lat="42.9176728" lon="12.169782"><ele>421.0</ele><time>2026-05-02T08:41:53.729Z</time></trkpt><trkpt lat="42.9176405" lon="12.1696445"><ele>421.0</ele><time>2026-05-02T08:41:55.729Z</time></trkpt><trkpt lat="42.9175869" lon="12.1695846"><ele>421.0</ele><time>2026-05-02T08:41:56.729Z</time></trkpt><trkpt lat="42.9175325" lon="12.1695323"><ele>421.00000000000006</ele><time>2026-05-02T08:41:57.729Z</time></trkpt><trkpt lat="42.9174753" lon="12.1694926"><ele>421.0</ele><time>2026-05-02T08:41:58.729Z</time></trkpt><trkpt lat="42.9173973" lon="12.1693913"><ele>427.0</ele><time>2026-05-02T08:42:00.729Z</time></trkpt><trkpt lat="42.917398" lon="12.1692071"><ele>433.0</ele><time>2026-05-02T08:42:02.729Z</time></trkpt><trkpt lat="42.9174036" lon="12.1690925"><ele>439.0</ele><time>2026-05-02T08:42:03.729Z</time></trkpt><trkpt lat="42.9173761" lon="12.1689931"><ele>445.0</ele><time>2026-05-02T08:42:04.729Z</time></trkpt><trkpt lat="42.9173812" lon="12.168882"><ele>451.0</ele><time>2026-05-02T08:42:05.729Z</time></trkpt><trkpt lat="42.91741" lon="12.1687804"><ele>451.33333333333337</ele><time>2026-05-02T08:42:06.729Z</time></trkpt><trkpt lat="42.9174484" lon="12.1686623"><ele>451.6666666666667</ele><time>2026-05-02T08:42:07.729Z</time></trkpt><trkpt lat="42.9174941" lon="12.168558"><ele>452.0</ele><time>2026-05-02T08:42:08.729Z</time></trkpt><trkpt lat="42.9175421" lon="12.1684445"><ele>452.33333333333337</ele><time>2026-05-02T08:42:09.729Z</time></trkpt><trkpt lat="42.9175805" lon="12.168358"><ele>452.6666666666667</ele><time>2026-05-02T08:42:10.729Z</time></trkpt><trkpt lat="42.9176029" lon="12.1682643"><ele>453.0</ele><time>2026-05-02T08:42:11.729Z</time></trkpt><trkpt lat="42.9176282" lon="12.1681673"><ele>453.0</ele><time>2026-05-02T08:42:12.729Z</time></trkpt><trkpt lat="42.9176471" lon="12.1680669"><ele>453.0</ele><time>2026-05-02T08:42:13.729Z</time></trkpt><trkpt lat="42.9176478" lon="12.1679178"><ele>453.0</ele><time>2026-05-02T08:42:14.729Z</time></trkpt><trkpt lat="42.9176519" lon="12.1678073"><ele>453.0</ele><time>2026-05-02T08:42:15.729Z</time></trkpt><trkpt lat="42.9176966" lon="12.1676959"><ele>453.0</ele><time>2026-05-02T08:42:16.729Z</time></trkpt><trkpt lat="42.9177436" lon="12.1676077"><ele>453.0</ele><time>2026-05-02T08:42:17.729Z</time></trkpt><trkpt lat="42.9178045" lon="12.167504"><ele>453.0</ele><time>2026-05-02T08:42:18.729Z</time></trkpt><trkpt lat="42.917871" lon="12.1674159"><ele>452.99999999999994</ele><time>2026-05-02T08:42:19.728Z</time></trkpt><trkpt lat="42.9179375" lon="12.1673139"><ele>452.99999999999994</ele><time>2026-05-02T08:42:20.729Z</time></trkpt><trkpt lat="42.9179951" lon="12.1672218"><ele>453.0</ele><time>2026-05-02T08:42:21.729Z</time></trkpt><trkpt lat="42.9180246" lon="12.1671089"><ele>453.0</ele><time>2026-05-02T08:42:22.729Z</time></trkpt><trkpt lat="42.9180849" lon="12.166995"><ele>454.59999999999997</ele><time>2026-05-02T08:42:23.729Z</time></trkpt><trkpt lat="42.9181026" lon="12.166881"><ele>456.19999999999993</ele><time>2026-05-02T08:42:24.729Z</time></trkpt><trkpt lat="42.9181236" lon="12.1667574"><ele>457.8</ele><time>2026-05-02T08:42:25.729Z</time></trkpt><trkpt lat="42.9181218" lon="12.1666352"><ele>459.4</ele><time>2026-05-02T08:42:26.729Z</time></trkpt><trkpt lat="42.9181189" lon="12.166505"><ele>461.0</ele><time>2026-05-02T08:42:27.729Z</time></trkpt><trkpt lat="42.9180981" lon="12.1663797"><ele>462.0</ele><time>2026-05-02T08:42:28.729Z</time></trkpt><trkpt lat="42.9180763" lon="12.1662218"><ele>463.0</ele><time>2026-05-02T08:42:29.729Z</time></trkpt><trkpt lat="42.9180489" lon="12.1661028"><ele>464.0</ele><time>2026-05-02T08:42:30.729Z</time></trkpt><trkpt lat="42.9180178" lon="12.1659997"><ele>465.0</ele><time>2026-05-02T08:42:31.729Z</time></trkpt><trkpt lat="42.9179954" lon="12.1658967"><ele>466.0</ele><time>2026-05-02T08:42:32.729Z</time></trkpt><trkpt lat="42.9179847" lon="12.1657858"><ele>466.28571428571433</ele><time>2026-05-02T08:42:33.729Z</time></trkpt><trkpt lat="42.9179609" lon="12.1656821"><ele>466.57142857142856</ele><time>2026-05-02T08:42:35.729Z</time></trkpt><trkpt lat="42.9179502" lon="12.1655923"><ele>466.8571428571429</ele><time>2026-05-02T08:42:38.729Z</time></trkpt><trkpt lat="42.9179564" lon="12.1654873"><ele>467.14285714285717</ele><time>2026-05-02T08:42:51.729Z</time></trkpt><trkpt lat="42.9179901" lon="12.1654082"><ele>467.42857142857144</ele><time>2026-05-02T08:42:56.729Z</time></trkpt><trkpt lat="42.9180576" lon="12.1653504"><ele>467.7142857142857</ele><time>2026-05-02T08:43:01.728Z</time></trkpt><trkpt lat="42.9181274" lon="12.1653146"><ele>468.0</ele><time>2026-05-02T08:43:06.729Z</time></trkpt><trkpt lat="42.9181901" lon="12.16528"><ele>468.0</ele><time>2026-05-02T08:43:10.729Z</time></trkpt><trkpt lat="42.9182551" lon="12.1652289"><ele>467.99999999999994</ele><time>2026-05-02T08:43:14.729Z</time></trkpt><trkpt lat="42.9183241" lon="12.1651814"><ele>467.99999999999994</ele><time>2026-05-02T08:43:17.729Z</time></trkpt><trkpt lat="42.9182345" lon="12.1652336"><ele>468.0</ele><time>2026-05-02T08:43:36.729Z</time></trkpt><trkpt lat="42.9181298" lon="12.165306"><ele>468.0</ele><time>2026-05-02T08:43:38.729Z</time></trkpt><trkpt lat="42.918039" lon="12.1653621"><ele>468.0</ele><time>2026-05-02T08:43:40.729Z</time></trkpt><trkpt lat="42.9179955" lon="12.1654257"><ele>468.0</ele><time>2026-05-02T08:43:42.729Z</time></trkpt><trkpt lat="42.917959" lon="12.165505"><ele>468.0</ele><time>2026-05-02T08:43:46.729Z</time></trkpt><trkpt lat="42.9180092" lon="12.1654347"><ele>468.0</ele><time>2026-05-02T08:49:26.729Z</time></trkpt><trkpt lat="42.9180838" lon="12.1653394"><ele>468.0</ele><time>2026-05-02T08:49:36.729Z</time></trkpt><trkpt lat="42.9181705" lon="12.165278"><ele>468.0</ele><time>2026-05-02T08:49:38.729Z</time></trkpt><trkpt lat="42.9182726" lon="12.1652176"><ele>468.0</ele><time>2026-05-02T08:49:40.729Z</time></trkpt><trkpt lat="42.9183783" lon="12.1651512"><ele>468.0</ele><time>2026-05-02T08:49:42.729Z</time></trkpt><trkpt lat="42.9184786" lon="12.1650798"><ele>468.0</ele><time>2026-05-02T08:49:44.729Z</time></trkpt><trkpt lat="42.9185403" lon="12.1650407"><ele>468.0</ele><time>2026-05-02T08:49:45.729Z</time></trkpt><trkpt lat="42.9186037" lon="12.1649966"><ele>468.0</ele><time>2026-05-02T08:49:46.729Z</time></trkpt><trkpt lat="42.918673" lon="12.1649588"><ele>468.0</ele><time>2026-05-02T08:49:47.729Z</time></trkpt><trkpt lat="42.9187429" lon="12.1649152"><ele>468.5714285714286</ele><time>2026-05-02T08:49:48.729Z</time></trkpt><trkpt lat="42.9188188" lon="12.1648833"><ele>469.1428571428572</ele><time>2026-05-02T08:49:49.729Z</time></trkpt><trkpt lat="42.9188905" lon="12.1648473"><ele>469.7142857142857</ele><time>2026-05-02T08:49:50.729Z</time></trkpt><trkpt lat="42.9189593" lon="12.1648281"><ele>470.28571428571433</ele><time>2026-05-02T08:49:51.729Z</time></trkpt><trkpt lat="42.9190311" lon="12.164801"><ele>470.8571428571429</ele><time>2026-05-02T08:49:52.729Z</time></trkpt><trkpt lat="42.9191044" lon="12.1647797"><ele>471.42857142857144</ele><time>2026-05-02T08:49:53.729Z</time></trkpt><trkpt lat="42.9191701" lon="12.1647511"><ele>472.0</ele><time>2026-05-02T08:49:54.729Z</time></trkpt><trkpt lat="42.9192344" lon="12.1647239"><ele>472.83333333333337</ele><time>2026-05-02T08:49:55.729Z</time></trkpt><trkpt lat="42.9192981" lon="12.164702"><ele>473.6666666666667</ele><time>2026-05-02T08:49:56.729Z</time></trkpt><trkpt lat="42.919369" lon="12.1646833"><ele>474.5</ele><time>2026-05-02T08:49:57.729Z</time></trkpt><trkpt lat="42.9194884" lon="12.1646722"><ele>475.33333333333337</ele><time>2026-05-02T08:49:59.729Z</time></trkpt><trkpt lat="42.9196086" lon="12.1647004"><ele>476.1666666666667</ele><time>2026-05-02T08:50:01.729Z</time></trkpt><trkpt lat="42.9196731" lon="12.1647189"><ele>477.0</ele><time>2026-05-02T08:50:02.729Z</time></trkpt><trkpt lat="42.9197891" lon="12.1647606"><ele>477.0</ele><time>2026-05-02T08:50:04.729Z</time></trkpt><trkpt lat="42.9199022" lon="12.1648056"><ele>477.0</ele><time>2026-05-02T08:50:06.729Z</time></trkpt><trkpt lat="42.9199679" lon="12.1648112"><ele>477.0</ele><time>2026-05-02T08:50:07.729Z</time></trkpt><trkpt lat="42.9200476" lon="12.164837"><ele>477.0</ele><time>2026-05-02T08:50:08.729Z</time></trkpt><trkpt lat="42.9201263" lon="12.1648576"><ele>477.0</ele><time>2026-05-02T08:50:09.729Z</time></trkpt><trkpt lat="42.920209" lon="12.1648898"><ele>477.0</ele><time>2026-05-02T08:50:10.729Z</time></trkpt><trkpt lat="42.9202903" lon="12.1649164"><ele>478.6666666666667</ele><time>2026-05-02T08:50:11.729Z</time></trkpt><trkpt lat="42.9203729" lon="12.1649472"><ele>480.33333333333337</ele><time>2026-05-02T08:50:12.729Z</time></trkpt><trkpt lat="42.9204572" lon="12.1649687"><ele>482.0</ele><time>2026-05-02T08:50:13.729Z</time></trkpt><trkpt lat="42.9205382" lon="12.1649869"><ele>483.6666666666667</ele><time>2026-05-02T08:50:14.729Z</time></trkpt><trkpt lat="42.9206197" lon="12.1650156"><ele>485.33333333333337</ele><time>2026-05-02T08:50:15.729Z</time></trkpt><trkpt lat="42.9207073" lon="12.1650552"><ele>487.0</ele><time>2026-05-02T08:50:16.729Z</time></trkpt><trkpt lat="42.9207964" lon="12.1651015"><ele>487.0</ele><time>2026-05-02T08:50:17.729Z</time></trkpt><trkpt lat="42.9208871" lon="12.1651515"><ele>487.00000000000006</ele><time>2026-05-02T08:50:18.729Z</time></trkpt><trkpt lat="42.9209709" lon="12.1652022"><ele>487.00000000000006</ele><time>2026-05-02T08:50:19.729Z</time></trkpt><trkpt lat="42.9210516" lon="12.1652622"><ele>487.0</ele><time>2026-05-02T08:50:20.729Z</time></trkpt><trkpt lat="42.9211295" lon="12.165303"><ele>487.0</ele><time>2026-05-02T08:50:21.729Z</time></trkpt><trkpt lat="42.9212142" lon="12.1653507"><ele>486.6666666666667</ele><time>2026-05-02T08:50:22.729Z</time></trkpt><trkpt lat="42.9212994" lon="12.1653901"><ele>486.33333333333337</ele><time>2026-05-02T08:50:23.729Z</time></trkpt><trkpt lat="42.9213833" lon="12.1654109"><ele>486.0</ele><time>2026-05-02T08:50:24.729Z</time></trkpt><trkpt lat="42.9214613" lon="12.1654369"><ele>485.66666666666663</ele><time>2026-05-02T08:50:25.729Z</time></trkpt><trkpt lat="42.921534" lon="12.1654467"><ele>485.3333333333333</ele><time>2026-05-02T08:50:26.729Z</time></trkpt><trkpt lat="42.9216022" lon="12.1654462"><ele>485.0</ele><time>2026-05-02T08:50:27.729Z</time></trkpt><trkpt lat="42.9216656" lon="12.1654295"><ele>484.49999999999994</ele><time>2026-05-02T08:50:28.728Z</time></trkpt><trkpt lat="42.921734" lon="12.1653985"><ele>484.0</ele><time>2026-05-02T08:50:29.729Z</time></trkpt><trkpt lat="42.9218012" lon="12.1653565"><ele>483.5</ele><time>2026-05-02T08:50:30.729Z</time></trkpt><trkpt lat="42.9218745" lon="12.1653098"><ele>483.0</ele><time>2026-05-02T08:50:31.729Z</time></trkpt><trkpt lat="42.9219564" lon="12.1652548"><ele>482.49999999999994</ele><time>2026-05-02T08:50:32.729Z</time></trkpt><trkpt lat="42.9220334" lon="12.1651991"><ele>482.0</ele><time>2026-05-02T08:50:33.729Z</time></trkpt><trkpt lat="42.922111" lon="12.1651484"><ele>481.99999999999994</ele><time>2026-05-02T08:50:34.729Z</time></trkpt><trkpt lat="42.9221844" lon="12.165099"><ele>482.0</ele><time>2026-05-02T08:50:35.729Z</time></trkpt><trkpt lat="42.9222645" lon="12.1650524"><ele>482.0</ele><time>2026-05-02T08:50:36.729Z</time></trkpt><trkpt lat="42.9223332" lon="12.1650053"><ele>482.0</ele><time>2026-05-02T08:50:37.729Z</time></trkpt><trkpt lat="42.9224065" lon="12.1649487"><ele>481.99999999999994</ele><time>2026-05-02T08:50:38.729Z</time></trkpt><trkpt lat="42.9224767" lon="12.1648917"><ele>482.0</ele><time>2026-05-02T08:50:39.729Z</time></trkpt><trkpt lat="42.9225564" lon="12.1648411"><ele>483.20000000000005</ele><time>2026-05-02T08:50:40.729Z</time></trkpt><trkpt lat="42.9226483" lon="12.1648079"><ele>484.40000000000003</ele><time>2026-05-02T08:50:41.729Z</time></trkpt><trkpt lat="42.9227581" lon="12.1647828"><ele>485.59999999999997</ele><time>2026-05-02T08:50:42.729Z</time></trkpt><trkpt lat="42.9228776" lon="12.1647783"><ele>486.79999999999995</ele><time>2026-05-02T08:50:43.729Z</time></trkpt><trkpt lat="42.9229817" lon="12.1647761"><ele>488.0</ele><time>2026-05-02T08:50:44.729Z</time></trkpt><trkpt lat="42.9230748" lon="12.1647767"><ele>487.99999999999994</ele><time>2026-05-02T08:50:45.729Z</time></trkpt><trkpt lat="42.9231645" lon="12.1647698"><ele>488.0</ele><time>2026-05-02T08:50:46.729Z</time></trkpt><trkpt lat="42.9232467" lon="12.1647485"><ele>488.0</ele><time>2026-05-02T08:50:47.729Z</time></trkpt><trkpt lat="42.923331" lon="12.1647099"><ele>488.0</ele><time>2026-05-02T08:50:48.729Z</time></trkpt><trkpt lat="42.9234116" lon="12.1646593"><ele>487.99999999999994</ele><time>2026-05-02T08:50:49.729Z</time></trkpt><trkpt lat="42.9234873" lon="12.1646185"><ele>488.0</ele><time>2026-05-02T08:50:50.729Z</time></trkpt><trkpt lat="42.923573" lon="12.1645761"><ele>488.2</ele><time>2026-05-02T08:50:51.729Z</time></trkpt><trkpt lat="42.9236622" lon="12.1645253"><ele>488.4</ele><time>2026-05-02T08:50:52.729Z</time></trkpt><trkpt lat="42.9237507" lon="12.1644741"><ele>488.59999999999997</ele><time>2026-05-02T08:50:53.729Z</time></trkpt><trkpt lat="42.923841" lon="12.1644229"><ele>488.79999999999995</ele><time>2026-05-02T08:50:54.729Z</time></trkpt><trkpt lat="42.9239304" lon="12.1643813"><ele>489.0</ele><time>2026-05-02T08:50:55.729Z</time></trkpt><trkpt lat="42.9240114" lon="12.164333"><ele>489.0</ele><time>2026-05-02T08:50:56.729Z</time></trkpt><trkpt lat="42.9240899" lon="12.1642932"><ele>489.0</ele><time>2026-05-02T08:50:57.729Z</time></trkpt><trkpt lat="42.9241696" lon="12.1642492"><ele>489.0</ele><time>2026-05-02T08:50:58.729Z</time></trkpt><trkpt lat="42.9242558" lon="12.1642098"><ele>489.0</ele><time>2026-05-02T08:50:59.729Z</time></trkpt><trkpt lat="42.9243366" lon="12.1641724"><ele>489.0</ele><time>2026-05-02T08:51:00.729Z</time></trkpt><trkpt lat="42.9244325" lon="12.164137"><ele>489.0</ele><time>2026-05-02T08:51:01.729Z</time></trkpt><trkpt lat="42.9245265" lon="12.1641041"><ele>488.6</ele><time>2026-05-02T08:51:02.729Z</time></trkpt><trkpt lat="42.9246165" lon="12.1640761"><ele>488.2</ele><time>2026-05-02T08:51:03.729Z</time></trkpt><trkpt lat="42.9247082" lon="12.1640424"><ele>487.80000000000007</ele><time>2026-05-02T08:51:04.729Z</time></trkpt><trkpt lat="42.924802" lon="12.1640005"><ele>487.40000000000003</ele><time>2026-05-02T08:51:05.729Z</time></trkpt><trkpt lat="42.9248972" lon="12.163968"><ele>487.0</ele><time>2026-05-02T08:51:06.729Z</time></trkpt><trkpt lat="42.9249878" lon="12.1639377"><ele>486.40000000000003</ele><time>2026-05-02T08:51:07.729Z</time></trkpt><trkpt lat="42.9250789" lon="12.163911"><ele>485.80000000000007</ele><time>2026-05-02T08:51:08.729Z</time></trkpt><trkpt lat="42.9251645" lon="12.1638871"><ele>485.2</ele><time>2026-05-02T08:51:09.729Z</time></trkpt><trkpt lat="42.9252553" lon="12.1638549"><ele>484.6</ele><time>2026-05-02T08:51:10.729Z</time></trkpt><trkpt lat="42.9253533" lon="12.1638277"><ele>484.0</ele><time>2026-05-02T08:51:11.729Z</time></trkpt><trkpt lat="42.9254528" lon="12.1638066"><ele>484.0</ele><time>2026-05-02T08:51:12.729Z</time></trkpt><trkpt lat="42.9255525" lon="12.1637967"><ele>484.0</ele><time>2026-05-02T08:51:13.729Z</time></trkpt><trkpt lat="42.9256301" lon="12.1638004"><ele>484.0</ele><time>2026-05-02T08:51:14.729Z</time></trkpt><trkpt lat="42.9257113" lon="12.1638242"><ele>484.0</ele><time>2026-05-02T08:51:15.729Z</time></trkpt><trkpt lat="42.9257954" lon="12.1638639"><ele>484.0</ele><time>2026-05-02T08:51:16.729Z</time></trkpt><trkpt lat="42.9258896" lon="12.1639313"><ele>485.33333333333337</ele><time>2026-05-02T08:51:17.729Z</time></trkpt><trkpt lat="42.9259717" lon="12.163997"><ele>486.6666666666667</ele><time>2026-05-02T08:51:18.729Z</time></trkpt><trkpt lat="42.9260547" lon="12.1640417"><ele>488.0</ele><time>2026-05-02T08:51:19.729Z</time></trkpt><trkpt lat="42.9261258" lon="12.1640768"><ele>489.33333333333337</ele><time>2026-05-02T08:51:20.729Z</time></trkpt><trkpt lat="42.9262124" lon="12.1640896"><ele>490.6666666666667</ele><time>2026-05-02T08:51:21.729Z</time></trkpt><trkpt lat="42.9263095" lon="12.1641031"><ele>492.0</ele><time>2026-05-02T08:51:22.729Z</time></trkpt><trkpt lat="42.9263974" lon="12.1641112"><ele>492.0</ele><time>2026-05-02T08:51:23.729Z</time></trkpt><trkpt lat="42.9264741" lon="12.1641109"><ele>492.0</ele><time>2026-05-02T08:51:24.729Z</time></trkpt><trkpt lat="42.9265466" lon="12.1640855"><ele>492.0</ele><time>2026-05-02T08:51:25.729Z</time></trkpt><trkpt lat="42.9266052" lon="12.1640428"><ele>492.0</ele><time>2026-05-02T08:51:26.729Z</time></trkpt><trkpt lat="42.9266853" lon="12.1639015"><ele>492.0</ele><time>2026-05-02T08:51:28.729Z</time></trkpt><trkpt lat="42.9267235" lon="12.1637939"><ele>492.0</ele><time>2026-05-02T08:51:29.729Z</time></trkpt><trkpt lat="42.9267622" lon="12.1636845"><ele>492.3333333333333</ele><time>2026-05-02T08:51:30.729Z</time></trkpt><trkpt lat="42.9267893" lon="12.1636005"><ele>492.66666666666663</ele><time>2026-05-02T08:51:31.729Z</time></trkpt><trkpt lat="42.926806" lon="12.1635015"><ele>493.0</ele><time>2026-05-02T08:51:32.729Z</time></trkpt><trkpt lat="42.9268176" lon="12.1634062"><ele>493.3333333333333</ele><time>2026-05-02T08:51:33.729Z</time></trkpt><trkpt lat="42.9268221" lon="12.1633112"><ele>493.66666666666663</ele><time>2026-05-02T08:51:34.729Z</time></trkpt><trkpt lat="42.9268268" lon="12.1631576"><ele>494.0</ele><time>2026-05-02T08:51:36.729Z</time></trkpt><trkpt lat="42.9268752" lon="12.1630179"><ele>493.99999999999994</ele><time>2026-05-02T08:51:38.729Z</time></trkpt><trkpt lat="42.9269566" lon="12.1629182"><ele>494.0</ele><time>2026-05-02T08:51:40.729Z</time></trkpt><trkpt lat="42.9270231" lon="12.1628944"><ele>494.0</ele><time>2026-05-02T08:51:41.729Z</time></trkpt><trkpt lat="42.927097" lon="12.16289"><ele>494.0</ele><time>2026-05-02T08:51:42.729Z</time></trkpt><trkpt lat="42.9271848" lon="12.1629024"><ele>493.99999999999994</ele><time>2026-05-02T08:51:43.729Z</time></trkpt><trkpt lat="42.9272761" lon="12.1629184"><ele>494.0</ele><time>2026-05-02T08:51:44.729Z</time></trkpt><trkpt lat="42.927378" lon="12.1629242"><ele>494.0</ele><time>2026-05-02T08:51:45.729Z</time></trkpt><trkpt lat="42.9274807" lon="12.1629332"><ele>494.0</ele><time>2026-05-02T08:51:46.729Z</time></trkpt><trkpt lat="42.9275802" lon="12.1629749"><ele>494.0</ele><time>2026-05-02T08:51:47.729Z</time></trkpt><trkpt lat="42.9276734" lon="12.1630204"><ele>494.0</ele><time>2026-05-02T08:51:48.729Z</time></trkpt><trkpt lat="42.9277503" lon="12.1630777"><ele>494.0</ele><time>2026-05-02T08:51:49.729Z</time></trkpt><trkpt lat="42.9278256" lon="12.1631652"><ele>496.2</ele><time>2026-05-02T08:51:50.729Z</time></trkpt><trkpt lat="42.9278988" lon="12.1632597"><ele>498.4</ele><time>2026-05-02T08:51:51.729Z</time></trkpt><trkpt lat="42.9279667" lon="12.1633543"><ele>500.6</ele><time>2026-05-02T08:51:52.729Z</time></trkpt><trkpt lat="42.9280316" lon="12.1634247"><ele>502.8</ele><time>2026-05-02T08:51:53.729Z</time></trkpt><trkpt lat="42.9280998" lon="12.1634915"><ele>505.0</ele><time>2026-05-02T08:51:54.729Z</time></trkpt><trkpt lat="42.9281778" lon="12.1635498"><ele>505.0</ele><time>2026-05-02T08:51:55.729Z</time></trkpt><trkpt lat="42.9282606" lon="12.1636094"><ele>505.0</ele><time>2026-05-02T08:51:56.729Z</time></trkpt><trkpt lat="42.9283486" lon="12.1636617"><ele>505.0</ele><time>2026-05-02T08:51:57.729Z</time></trkpt><trkpt lat="42.928441" lon="12.1637134"><ele>505.0</ele><time>2026-05-02T08:51:58.729Z</time></trkpt><trkpt lat="42.9285184" lon="12.1637674"><ele>505.0</ele><time>2026-05-02T08:51:59.729Z</time></trkpt><trkpt lat="42.928586" lon="12.1638208"><ele>505.83333333333337</ele><time>2026-05-02T08:52:00.729Z</time></trkpt><trkpt lat="42.9286404" lon="12.1638691"><ele>506.6666666666667</ele><time>2026-05-02T08:52:01.729Z</time></trkpt><trkpt lat="42.9287487" lon="12.1638984"><ele>507.5</ele><time>2026-05-02T08:52:03.729Z</time></trkpt><trkpt lat="42.9288189" lon="12.1638553"><ele>508.33333333333337</ele><time>2026-05-02T08:52:04.729Z</time></trkpt><trkpt lat="42.9288895" lon="12.1637926"><ele>509.1666666666667</ele><time>2026-05-02T08:52:05.729Z</time></trkpt><trkpt lat="42.9289426" lon="12.1637452"><ele>510.0</ele><time>2026-05-02T08:52:06.729Z</time></trkpt><trkpt lat="42.9290479" lon="12.1636519"><ele>510.0</ele><time>2026-05-02T08:52:08.729Z</time></trkpt><trkpt lat="42.9291088" lon="12.163612"><ele>510.0</ele><time>2026-05-02T08:52:09.729Z</time></trkpt><trkpt lat="42.929165" lon="12.1635561"><ele>510.0</ele><time>2026-05-02T08:52:10.729Z</time></trkpt><trkpt lat="42.929254" lon="12.1634637"><ele>510.0</ele><time>2026-05-02T08:52:12.729Z</time></trkpt><trkpt lat="42.9293276" lon="12.1633485"><ele>510.0</ele><time>2026-05-02T08:52:14.729Z</time></trkpt><trkpt lat="42.9293774" lon="12.1632915"><ele>510.0</ele><time>2026-05-02T08:52:15.729Z</time></trkpt><trkpt lat="42.9294388" lon="12.1632559"><ele>510.5</ele><time>2026-05-02T08:52:16.729Z</time></trkpt><trkpt lat="42.9295093" lon="12.1632215"><ele>511.0</ele><time>2026-05-02T08:52:17.729Z</time></trkpt><trkpt lat="42.9295972" lon="12.1631984"><ele>511.5</ele><time>2026-05-02T08:52:18.729Z</time></trkpt><trkpt lat="42.9297038" lon="12.16319"><ele>512.0</ele><time>2026-05-02T08:52:19.729Z</time></trkpt><trkpt lat="42.9297866" lon="12.1631852"><ele>512.5</ele><time>2026-05-02T08:52:20.729Z</time></trkpt><trkpt lat="42.9298716" lon="12.1631986"><ele>513.0</ele><time>2026-05-02T08:52:21.729Z</time></trkpt><trkpt lat="42.9299545" lon="12.163222"><ele>513.8333333333334</ele><time>2026-05-02T08:52:22.729Z</time></trkpt><trkpt lat="42.93003" lon="12.1632528"><ele>514.6666666666666</ele><time>2026-05-02T08:52:23.729Z</time></trkpt><trkpt lat="42.9301025" lon="12.1632923"><ele>515.5</ele><time>2026-05-02T08:52:24.729Z</time></trkpt><trkpt lat="42.9301711" lon="12.1633209"><ele>516.3333333333333</ele><time>2026-05-02T08:52:25.729Z</time></trkpt><trkpt lat="42.9302453" lon="12.1633475"><ele>517.1666666666666</ele><time>2026-05-02T08:52:26.729Z</time></trkpt><trkpt lat="42.9303429" lon="12.1633675"><ele>518.0</ele><time>2026-05-02T08:52:27.729Z</time></trkpt><trkpt lat="42.9304512" lon="12.1633727"><ele>519.1999999999999</ele><time>2026-05-02T08:52:28.729Z</time></trkpt><trkpt lat="42.930555" lon="12.1633746"><ele>520.4</ele><time>2026-05-02T08:52:29.729Z</time></trkpt><trkpt lat="42.9306654" lon="12.1633803"><ele>521.5999999999999</ele><time>2026-05-02T08:52:30.729Z</time></trkpt><trkpt lat="42.9307733" lon="12.1633919"><ele>522.8</ele><time>2026-05-02T08:52:31.729Z</time></trkpt><trkpt lat="42.9308841" lon="12.163401"><ele>524.0</ele><time>2026-05-02T08:52:32.729Z</time></trkpt><trkpt lat="42.9309946" lon="12.1634064"><ele>525.0</ele><time>2026-05-02T08:52:33.729Z</time></trkpt><trkpt lat="42.9310996" lon="12.1634004"><ele>526.0</ele><time>2026-05-02T08:52:34.729Z</time></trkpt><trkpt lat="42.9312019" lon="12.1633952"><ele>527.0</ele><time>2026-05-02T08:52:35.729Z</time></trkpt><trkpt lat="42.9313042" lon="12.1633958"><ele>528.0</ele><time>2026-05-02T08:52:36.729Z</time></trkpt><trkpt lat="42.9314114" lon="12.1633906"><ele>529.0</ele><time>2026-05-02T08:52:37.729Z</time></trkpt><trkpt lat="42.931519" lon="12.1633782"><ele>529.0</ele><time>2026-05-02T08:52:38.729Z</time></trkpt><trkpt lat="42.9316309" lon="12.1633658"><ele>529.0</ele><time>2026-05-02T08:52:39.729Z</time></trkpt><trkpt lat="42.9317466" lon="12.163347"><ele>529.0</ele><time>2026-05-02T08:52:40.729Z</time></trkpt><trkpt lat="42.9318506" lon="12.1633338"><ele>529.0</ele><time>2026-05-02T08:52:41.729Z</time></trkpt><trkpt lat="42.9319419" lon="12.1633189"><ele>529.0</ele><time>2026-05-02T08:52:42.729Z</time></trkpt><trkpt lat="42.9320188" lon="12.1632971"><ele>529.0</ele><time>2026-05-02T08:52:43.729Z</time></trkpt><trkpt lat="42.9320936" lon="12.1632709"><ele>529.0</ele><time>2026-05-02T08:52:44.729Z</time></trkpt><trkpt lat="42.9321765" lon="12.1632231"><ele>529.0</ele><time>2026-05-02T08:52:45.729Z</time></trkpt><trkpt lat="42.9322499" lon="12.1631918"><ele>529.0</ele><time>2026-05-02T08:52:46.729Z</time></trkpt><trkpt lat="42.9323412" lon="12.1631763"><ele>529.0</ele><time>2026-05-02T08:52:47.729Z</time></trkpt><trkpt lat="42.9324225" lon="12.1631519"><ele>529.0</ele><time>2026-05-02T08:52:48.729Z</time></trkpt><trkpt lat="42.9325166" lon="12.1631577"><ele>528.8333333333334</ele><time>2026-05-02T08:52:49.729Z</time></trkpt><trkpt lat="42.9326041" lon="12.1631598"><ele>528.6666666666667</ele><time>2026-05-02T08:52:50.729Z</time></trkpt><trkpt lat="42.9326969" lon="12.1631572"><ele>528.5</ele><time>2026-05-02T08:52:51.729Z</time></trkpt><trkpt lat="42.9327822" lon="12.1631414"><ele>528.3333333333334</ele><time>2026-05-02T08:52:52.729Z</time></trkpt><trkpt lat="42.9328642" lon="12.1631151"><ele>528.1666666666666</ele><time>2026-05-02T08:52:53.729Z</time></trkpt><trkpt lat="42.9329456" lon="12.1630839"><ele>528.0</ele><time>2026-05-02T08:52:54.729Z</time></trkpt><trkpt lat="42.9330185" lon="12.1630473"><ele>528.0</ele><time>2026-05-02T08:52:55.729Z</time></trkpt><trkpt lat="42.9330926" lon="12.1630187"><ele>528.0</ele><time>2026-05-02T08:52:56.729Z</time></trkpt><trkpt lat="42.9331709" lon="12.1629917"><ele>528.0</ele><time>2026-05-02T08:52:57.729Z</time></trkpt><trkpt lat="42.9332511" lon="12.162969"><ele>528.0</ele><time>2026-05-02T08:52:58.729Z</time></trkpt><trkpt lat="42.9333317" lon="12.1629569"><ele>528.0</ele><time>2026-05-02T08:52:59.729Z</time></trkpt><trkpt lat="42.9334098" lon="12.1629435"><ele>528.0</ele><time>2026-05-02T08:53:00.729Z</time></trkpt><trkpt lat="42.9334972" lon="12.1629077"><ele>526.6</ele><time>2026-05-02T08:53:01.729Z</time></trkpt><trkpt lat="42.9335938" lon="12.1628513"><ele>525.1999999999999</ele><time>2026-05-02T08:53:02.729Z</time></trkpt><trkpt lat="42.9337006" lon="12.1627896"><ele>523.8</ele><time>2026-05-02T08:53:03.729Z</time></trkpt><trkpt lat="42.9337947" lon="12.1627238"><ele>522.4</ele><time>2026-05-02T08:53:04.729Z</time></trkpt><trkpt lat="42.9338948" lon="12.1626683"><ele>521.0</ele><time>2026-05-02T08:53:05.729Z</time></trkpt><trkpt lat="42.933991" lon="12.1626084"><ele>521.0</ele><time>2026-05-02T08:53:06.729Z</time></trkpt><trkpt lat="42.9340887" lon="12.16256"><ele>521.0</ele><time>2026-05-02T08:53:07.729Z</time></trkpt><trkpt lat="42.9341976" lon="12.1625263"><ele>521.0</ele><time>2026-05-02T08:53:08.729Z</time></trkpt><trkpt lat="42.9343261" lon="12.1625055"><ele>521.0</ele><time>2026-05-02T08:53:09.729Z</time></trkpt><trkpt lat="42.9344387" lon="12.1624833"><ele>520.6</ele><time>2026-05-02T08:53:10.729Z</time></trkpt><trkpt lat="42.9345501" lon="12.1624546"><ele>520.2</ele><time>2026-05-02T08:53:11.729Z</time></trkpt><trkpt lat="42.9346579" lon="12.1624345"><ele>519.8</ele><time>2026-05-02T08:53:12.729Z</time></trkpt><trkpt lat="42.9347679" lon="12.1624397"><ele>519.4</ele><time>2026-05-02T08:53:13.729Z</time></trkpt><trkpt lat="42.9348749" lon="12.162433"><ele>519.0</ele><time>2026-05-02T08:53:14.729Z</time></trkpt><trkpt lat="42.9349737" lon="12.1624233"><ele>518.6</ele><time>2026-05-02T08:53:15.729Z</time></trkpt><trkpt lat="42.9350655" lon="12.162409"><ele>518.2</ele><time>2026-05-02T08:53:16.729Z</time></trkpt><trkpt lat="42.9351595" lon="12.1623732"><ele>517.8000000000001</ele><time>2026-05-02T08:53:17.729Z</time></trkpt><trkpt lat="42.9352616" lon="12.1623162"><ele>517.4</ele><time>2026-05-02T08:53:18.729Z</time></trkpt><trkpt lat="42.9353682" lon="12.1622495"><ele>517.0</ele><time>2026-05-02T08:53:19.729Z</time></trkpt><trkpt lat="42.9354731" lon="12.1621714"><ele>517.0</ele><time>2026-05-02T08:53:20.729Z</time></trkpt><trkpt lat="42.9355688" lon="12.1621018"><ele>517.0</ele><time>2026-05-02T08:53:21.729Z</time></trkpt><trkpt lat="42.9356662" lon="12.1620465"><ele>517.0</ele><time>2026-05-02T08:53:22.729Z</time></trkpt><trkpt lat="42.9357479" lon="12.1619907"><ele>517.0</ele><time>2026-05-02T08:53:23.729Z</time></trkpt><trkpt lat="42.9358214" lon="12.1619231"><ele>517.0</ele><time>2026-05-02T08:53:24.729Z</time></trkpt><trkpt lat="42.9359009" lon="12.1618362"><ele>516.6</ele><time>2026-05-02T08:53:25.729Z</time></trkpt><trkpt lat="42.9359723" lon="12.1617581"><ele>516.2</ele><time>2026-05-02T08:53:26.729Z</time></trkpt><trkpt lat="42.9360478" lon="12.1616882"><ele>515.8</ele><time>2026-05-02T08:53:27.729Z</time></trkpt><trkpt lat="42.9361447" lon="12.1616142"><ele>515.4</ele><time>2026-05-02T08:53:28.729Z</time></trkpt><trkpt lat="42.9362304" lon="12.1615446"><ele>515.0</ele><time>2026-05-02T08:53:29.729Z</time></trkpt><trkpt lat="42.9363166" lon="12.1614687"><ele>515.0</ele><time>2026-05-02T08:53:30.729Z</time></trkpt><trkpt lat="42.9363923" lon="12.161383"><ele>515.0</ele><time>2026-05-02T08:53:31.729Z</time></trkpt><trkpt lat="42.9364699" lon="12.1612969"><ele>515.0</ele><time>2026-05-02T08:53:32.729Z</time></trkpt><trkpt lat="42.9365392" lon="12.1612209"><ele>515.0</ele><time>2026-05-02T08:53:33.729Z</time></trkpt><trkpt lat="42.936607" lon="12.1611528"><ele>515.0</ele><time>2026-05-02T08:53:34.729Z</time></trkpt><trkpt lat="42.9366749" lon="12.1610865"><ele>514.4</ele><time>2026-05-02T08:53:35.729Z</time></trkpt><trkpt lat="42.9367464" lon="12.1610137"><ele>513.8</ele><time>2026-05-02T08:53:36.729Z</time></trkpt><trkpt lat="42.9368148" lon="12.1609374"><ele>513.2</ele><time>2026-05-02T08:53:37.729Z</time></trkpt><trkpt lat="42.9368802" lon="12.1608482"><ele>512.6</ele><time>2026-05-02T08:53:38.729Z</time></trkpt><trkpt lat="42.9369459" lon="12.1607493"><ele>512.0</ele><time>2026-05-02T08:53:39.729Z</time></trkpt><trkpt lat="42.937019" lon="12.1606474"><ele>512.0</ele><time>2026-05-02T08:53:40.729Z</time></trkpt><trkpt lat="42.9370893" lon="12.1605406"><ele>512.0</ele><time>2026-05-02T08:53:41.729Z</time></trkpt><trkpt lat="42.9371513" lon="12.1604365"><ele>512.0</ele><time>2026-05-02T08:53:42.729Z</time></trkpt><trkpt lat="42.9372089" lon="12.1603337"><ele>512.0</ele><time>2026-05-02T08:53:43.729Z</time></trkpt><trkpt lat="42.9372604" lon="12.1602411"><ele>512.0</ele><time>2026-05-02T08:53:44.729Z</time></trkpt><trkpt lat="42.9373134" lon="12.160153"><ele>512.0</ele><time>2026-05-02T08:53:45.729Z</time></trkpt><trkpt lat="42.9373775" lon="12.1600755"><ele>512.0</ele><time>2026-05-02T08:53:46.729Z</time></trkpt><trkpt lat="42.9374552" lon="12.1600009"><ele>512.0</ele><time>2026-05-02T08:53:47.729Z</time></trkpt><trkpt lat="42.9375493" lon="12.1599262"><ele>512.0</ele><time>2026-05-02T08:53:48.729Z</time></trkpt><trkpt lat="42.9376355" lon="12.1598675"><ele>512.0</ele><time>2026-05-02T08:53:49.729Z</time></trkpt><trkpt lat="42.9377173" lon="12.1598106"><ele>512.6666666666666</ele><time>2026-05-02T08:53:50.729Z</time></trkpt><trkpt lat="42.9377954" lon="12.1597559"><ele>513.3333333333333</ele><time>2026-05-02T08:53:51.729Z</time></trkpt><trkpt lat="42.9378699" lon="12.1596998"><ele>514.0</ele><time>2026-05-02T08:53:52.729Z</time></trkpt><trkpt lat="42.9379353" lon="12.159628"><ele>514.6666666666666</ele><time>2026-05-02T08:53:53.729Z</time></trkpt><trkpt lat="42.9379913" lon="12.1595385"><ele>515.3333333333334</ele><time>2026-05-02T08:53:54.729Z</time></trkpt><trkpt lat="42.9380455" lon="12.1594413"><ele>516.0</ele><time>2026-05-02T08:53:55.729Z</time></trkpt><trkpt lat="42.9381075" lon="12.1593716"><ele>516.0</ele><time>2026-05-02T08:53:56.729Z</time></trkpt><trkpt lat="42.9381581" lon="12.1593042"><ele>516.0</ele><time>2026-05-02T08:53:57.729Z</time></trkpt><trkpt lat="42.9382282" lon="12.1592127"><ele>516.0</ele><time>2026-05-02T08:53:59.729Z</time></trkpt><trkpt lat="42.9382676" lon="12.1591401"><ele>516.0</ele><time>2026-05-02T08:54:02.729Z</time></trkpt><trkpt lat="42.9383149" lon="12.1590366"><ele>516.0</ele><time>2026-05-02T08:54:06.729Z</time></trkpt><trkpt lat="42.93836" lon="12.1589112"><ele>516.0</ele><time>2026-05-02T08:54:08.729Z</time></trkpt><trkpt lat="42.9383703" lon="12.1588145"><ele>516.0</ele><time>2026-05-02T08:54:09.729Z</time></trkpt><trkpt lat="42.9383798" lon="12.15871"><ele>516.0</ele><time>2026-05-02T08:54:10.729Z</time></trkpt><trkpt lat="42.9383681" lon="12.1586049"><ele>516.0</ele><time>2026-05-02T08:54:11.729Z</time></trkpt><trkpt lat="42.9383421" lon="12.1584939"><ele>516.0</ele><time>2026-05-02T08:54:12.729Z</time></trkpt><trkpt lat="42.938313" lon="12.1583952"><ele>516.0</ele><time>2026-05-02T08:54:13.729Z</time></trkpt><trkpt lat="42.9382867" lon="12.1582996"><ele>516.0</ele><time>2026-05-02T08:54:14.729Z</time></trkpt><trkpt lat="42.9382841" lon="12.1582059"><ele>516.4</ele><time>2026-05-02T08:54:15.729Z</time></trkpt><trkpt lat="42.9382929" lon="12.1581142"><ele>516.8</ele><time>2026-05-02T08:54:16.729Z</time></trkpt><trkpt lat="42.9383784" lon="12.1580085"><ele>517.1999999999999</ele><time>2026-05-02T08:54:18.729Z</time></trkpt><trkpt lat="42.9384849" lon="12.1579955"><ele>517.6</ele><time>2026-05-02T08:54:20.729Z</time></trkpt><trkpt lat="42.9385865" lon="12.1579571"><ele>518.0</ele><time>2026-05-02T08:54:22.729Z</time></trkpt><trkpt lat="42.9386638" lon="12.1578047"><ele>518.0</ele><time>2026-05-02T08:54:24.729Z</time></trkpt><trkpt lat="42.9387405" lon="12.1577022"><ele>518.0</ele><time>2026-05-02T08:54:25.728Z</time></trkpt><trkpt lat="42.9388175" lon="12.1576108"><ele>518.0</ele><time>2026-05-02T08:54:26.729Z</time></trkpt><trkpt lat="42.9388836" lon="12.157524"><ele>518.0</ele><time>2026-05-02T08:54:27.729Z</time></trkpt><trkpt lat="42.938939" lon="12.1574537"><ele>518.0</ele><time>2026-05-02T08:54:28.729Z</time></trkpt><trkpt lat="42.9390054" lon="12.1573864"><ele>517.1666666666666</ele><time>2026-05-02T08:54:29.729Z</time></trkpt><trkpt lat="42.9390542" lon="12.1573116"><ele>516.3333333333333</ele><time>2026-05-02T08:54:30.729Z</time></trkpt><trkpt lat="42.9391554" lon="12.1571874"><ele>515.5</ele><time>2026-05-02T08:54:32.729Z</time></trkpt><trkpt lat="42.9392164" lon="12.157135"><ele>514.6666666666666</ele><time>2026-05-02T08:54:33.729Z</time></trkpt><trkpt lat="42.9392792" lon="12.1570902"><ele>513.8333333333334</ele><time>2026-05-02T08:54:34.729Z</time></trkpt><trkpt lat="42.9393503" lon="12.1570554"><ele>513.0</ele><time>2026-05-02T08:54:35.729Z</time></trkpt><trkpt lat="42.9394138" lon="12.1570153"><ele>513.0</ele><time>2026-05-02T08:54:36.729Z</time></trkpt><trkpt lat="42.939475" lon="12.1569804"><ele>513.0</ele><time>2026-05-02T08:54:37.729Z</time></trkpt><trkpt lat="42.9395411" lon="12.156931"><ele>513.0</ele><time>2026-05-02T08:54:38.729Z</time></trkpt><trkpt lat="42.9396028" lon="12.1568695"><ele>513.0</ele><time>2026-05-02T08:54:39.729Z</time></trkpt><trkpt lat="42.9396687" lon="12.1568165"><ele>513.0</ele><time>2026-05-02T08:54:40.728Z</time></trkpt><trkpt lat="42.9397501" lon="12.1567755"><ele>513.0</ele><time>2026-05-02T08:54:41.729Z</time></trkpt><trkpt lat="42.9398266" lon="12.1567373"><ele>513.0</ele><time>2026-05-02T08:54:42.729Z</time></trkpt><trkpt lat="42.939895" lon="12.1567134"><ele>513.0</ele><time>2026-05-02T08:54:43.729Z</time></trkpt><trkpt lat="42.9399583" lon="12.1566786"><ele>513.0</ele><time>2026-05-02T08:54:44.729Z</time></trkpt><trkpt lat="42.9400531" lon="12.1565927"><ele>513.0</ele><time>2026-05-02T08:54:46.729Z</time></trkpt><trkpt lat="42.9400752" lon="12.1564994"><ele>513.0</ele><time>2026-05-02T08:54:48.729Z</time></trkpt><trkpt lat="42.9400127" lon="12.1564209"><ele>513.0</ele><time>2026-05-02T08:54:50.729Z</time></trkpt><trkpt lat="42.9399039" lon="12.1563727"><ele>514.5</ele><time>2026-05-02T08:54:52.729Z</time></trkpt><trkpt lat="42.9398337" lon="12.1563341"><ele>516.0</ele><time>2026-05-02T08:54:53.729Z</time></trkpt><trkpt lat="42.939762" lon="12.1562926"><ele>517.5</ele><time>2026-05-02T08:54:54.729Z</time></trkpt><trkpt lat="42.9396878" lon="12.1562454"><ele>519.0</ele><time>2026-05-02T08:54:55.729Z</time></trkpt><trkpt lat="42.9396221" lon="12.15619"><ele>520.5</ele><time>2026-05-02T08:54:56.729Z</time></trkpt><trkpt lat="42.9395611" lon="12.156132"><ele>522.0</ele><time>2026-05-02T08:54:57.729Z</time></trkpt><trkpt lat="42.9394995" lon="12.1560716"><ele>522.0</ele><time>2026-05-02T08:54:58.729Z</time></trkpt><trkpt lat="42.9394378" lon="12.1559943"><ele>522.0</ele><time>2026-05-02T08:54:59.729Z</time></trkpt><trkpt lat="42.939376" lon="12.1559201"><ele>522.0</ele><time>2026-05-02T08:55:00.729Z</time></trkpt><trkpt lat="42.9393165" lon="12.1558425"><ele>522.0</ele><time>2026-05-02T08:55:01.729Z</time></trkpt><trkpt lat="42.9392515" lon="12.1557676"><ele>522.0</ele><time>2026-05-02T08:55:02.729Z</time></trkpt><trkpt lat="42.9391798" lon="12.1557027"><ele>522.0</ele><time>2026-05-02T08:55:03.729Z</time></trkpt><trkpt lat="42.93911" lon="12.155649"><ele>523.4285714285714</ele><time>2026-05-02T08:55:04.729Z</time></trkpt><trkpt lat="42.9390435" lon="12.1555982"><ele>524.8571428571429</ele><time>2026-05-02T08:55:05.729Z</time></trkpt><trkpt lat="42.9389798" lon="12.1555487"><ele>526.2857142857142</ele><time>2026-05-02T08:55:06.729Z</time></trkpt><trkpt lat="42.9389297" lon="12.155493"><ele>527.7142857142858</ele><time>2026-05-02T08:55:07.729Z</time></trkpt><trkpt lat="42.9388844" lon="12.1554199"><ele>529.1428571428571</ele><time>2026-05-02T08:55:08.729Z</time></trkpt><trkpt lat="42.9388538" lon="12.1553401"><ele>530.5714285714286</ele><time>2026-05-02T08:55:09.729Z</time></trkpt><trkpt lat="42.9388459" lon="12.155246"><ele>532.0</ele><time>2026-05-02T08:55:10.729Z</time></trkpt><trkpt lat="42.9388478" lon="12.1551481"><ele>532.0</ele><time>2026-05-02T08:55:11.729Z</time></trkpt><trkpt lat="42.938875" lon="12.1550461"><ele>532.0</ele><time>2026-05-02T08:55:12.729Z</time></trkpt><trkpt lat="42.9389145" lon="12.1549636"><ele>532.0</ele><time>2026-05-02T08:55:13.729Z</time></trkpt><trkpt lat="42.9389625" lon="12.1548935"><ele>532.0</ele><time>2026-05-02T08:55:14.729Z</time></trkpt><trkpt lat="42.9390225" lon="12.1548205"><ele>532.0</ele><time>2026-05-02T08:55:15.729Z</time></trkpt><trkpt lat="42.9390994" lon="12.1547351"><ele>532.0</ele><time>2026-05-02T08:55:16.729Z</time></trkpt><trkpt lat="42.9391855" lon="12.1546517"><ele>532.0</ele><time>2026-05-02T08:55:17.729Z</time></trkpt><trkpt lat="42.9392713" lon="12.1545749"><ele>532.0</ele><time>2026-05-02T08:55:18.729Z</time></trkpt><trkpt lat="42.9393467" lon="12.1545154"><ele>532.0</ele><time>2026-05-02T08:55:19.729Z</time></trkpt><trkpt lat="42.9394281" lon="12.1544626"><ele>532.0</ele><time>2026-05-02T08:55:20.729Z</time></trkpt><trkpt lat="42.9395133" lon="12.1544196"><ele>532.0</ele><time>2026-05-02T08:55:21.729Z</time></trkpt><trkpt lat="42.9396072" lon="12.1543865"><ele>532.0</ele><time>2026-05-02T08:55:22.729Z</time></trkpt><trkpt lat="42.9397101" lon="12.1543562"><ele>532.0</ele><time>2026-05-02T08:55:23.729Z</time></trkpt><trkpt lat="42.9398124" lon="12.1543317"><ele>532.0</ele><time>2026-05-02T08:55:24.729Z</time></trkpt><trkpt lat="42.9399079" lon="12.1543101"><ele>532.0</ele><time>2026-05-02T08:55:25.729Z</time></trkpt><trkpt lat="42.9400048" lon="12.154295"><ele>532.0</ele><time>2026-05-02T08:55:26.729Z</time></trkpt><trkpt lat="42.9400987" lon="12.1542884"><ele>534.0</ele><time>2026-05-02T08:55:27.729Z</time></trkpt><trkpt lat="42.9401944" lon="12.1542864"><ele>536.0</ele><time>2026-05-02T08:55:28.729Z</time></trkpt><trkpt lat="42.9402898" lon="12.1542684"><ele>538.0</ele><time>2026-05-02T08:55:29.729Z</time></trkpt><trkpt lat="42.9403738" lon="12.1542489"><ele>540.0</ele><time>2026-05-02T08:55:30.729Z</time></trkpt><trkpt lat="42.9404429" lon="12.1542181"><ele>542.0</ele><time>2026-05-02T08:55:31.729Z</time></trkpt><trkpt lat="42.9405152" lon="12.1541558"><ele>544.0</ele><time>2026-05-02T08:55:32.729Z</time></trkpt><trkpt lat="42.9405908" lon="12.1540629"><ele>544.6666666666667</ele><time>2026-05-02T08:55:33.729Z</time></trkpt><trkpt lat="42.9406633" lon="12.1539802"><ele>545.3333333333334</ele><time>2026-05-02T08:55:34.729Z</time></trkpt><trkpt lat="42.9407244" lon="12.1539162"><ele>546.0</ele><time>2026-05-02T08:55:35.729Z</time></trkpt><trkpt lat="42.9407755" lon="12.1538643"><ele>546.6666666666666</ele><time>2026-05-02T08:55:36.729Z</time></trkpt><trkpt lat="42.9408259" lon="12.1537528"><ele>547.3333333333333</ele><time>2026-05-02T08:55:38.729Z</time></trkpt><trkpt lat="42.9407827" lon="12.1536578"><ele>548.0</ele><time>2026-05-02T08:55:40.729Z</time></trkpt><trkpt lat="42.9406523" lon="12.1536306"><ele>548.0</ele><time>2026-05-02T08:55:42.729Z</time></trkpt><trkpt lat="42.9405763" lon="12.1536339"><ele>548.0</ele><time>2026-05-02T08:55:43.729Z</time></trkpt><trkpt lat="42.9404945" lon="12.1536324"><ele>548.0</ele><time>2026-05-02T08:55:44.729Z</time></trkpt><trkpt lat="42.9404141" lon="12.1536459"><ele>548.0</ele><time>2026-05-02T08:55:45.729Z</time></trkpt><trkpt lat="42.9403467" lon="12.1536566"><ele>548.0</ele><time>2026-05-02T08:55:46.729Z</time></trkpt><trkpt lat="42.9402661" lon="12.1536711"><ele>548.0</ele><time>2026-05-02T08:55:47.729Z</time></trkpt><trkpt lat="42.9401847" lon="12.1536788"><ele>548.0000000000001</ele><time>2026-05-02T08:55:48.729Z</time></trkpt><trkpt lat="42.9401014" lon="12.1536763"><ele>548.0</ele><time>2026-05-02T08:55:49.729Z</time></trkpt><trkpt lat="42.9400294" lon="12.1536758"><ele>548.0</ele><time>2026-05-02T08:55:50.729Z</time></trkpt><trkpt lat="42.9399559" lon="12.1536566"><ele>548.0</ele><time>2026-05-02T08:55:51.729Z</time></trkpt><trkpt lat="42.939892" lon="12.1536334"><ele>548.0</ele><time>2026-05-02T08:55:52.729Z</time></trkpt><trkpt lat="42.9398238" lon="12.1535958"><ele>548.0000000000001</ele><time>2026-05-02T08:55:53.729Z</time></trkpt><trkpt lat="42.9397626" lon="12.1535368"><ele>548.0</ele><time>2026-05-02T08:55:54.729Z</time></trkpt><trkpt lat="42.9396952" lon="12.1534546"><ele>549.3333333333333</ele><time>2026-05-02T08:55:55.729Z</time></trkpt><trkpt lat="42.939632" lon="12.1533623"><ele>550.6666666666666</ele><time>2026-05-02T08:55:56.729Z</time></trkpt><trkpt lat="42.9395753" lon="12.1532734"><ele>552.0</ele><time>2026-05-02T08:55:57.729Z</time></trkpt><trkpt lat="42.9395298" lon="12.1531705"><ele>553.3333333333334</ele><time>2026-05-02T08:55:58.729Z</time></trkpt><trkpt lat="42.9394854" lon="12.153064"><ele>554.6666666666667</ele><time>2026-05-02T08:55:59.729Z</time></trkpt><trkpt lat="42.9394393" lon="12.1529699"><ele>556.0</ele><time>2026-05-02T08:56:00.729Z</time></trkpt><trkpt lat="42.9393778" lon="12.1528806"><ele>556.0</ele><time>2026-05-02T08:56:01.729Z</time></trkpt><trkpt lat="42.9393028" lon="12.1527929"><ele>556.0</ele><time>2026-05-02T08:56:02.729Z</time></trkpt><trkpt lat="42.9392225" lon="12.1527167"><ele>556.0</ele><time>2026-05-02T08:56:03.729Z</time></trkpt><trkpt lat="42.9391412" lon="12.1526374"><ele>556.0</ele><time>2026-05-02T08:56:04.729Z</time></trkpt><trkpt lat="42.939071" lon="12.1525495"><ele>556.0</ele><time>2026-05-02T08:56:05.729Z</time></trkpt><trkpt lat="42.939003" lon="12.1524696"><ele>554.6666666666667</ele><time>2026-05-02T08:56:06.729Z</time></trkpt><trkpt lat="42.9389532" lon="12.1523896"><ele>553.3333333333334</ele><time>2026-05-02T08:56:07.729Z</time></trkpt><trkpt lat="42.9389015" lon="12.1523109"><ele>552.0</ele><time>2026-05-02T08:56:08.729Z</time></trkpt><trkpt lat="42.9388534" lon="12.1522303"><ele>550.6666666666666</ele><time>2026-05-02T08:56:09.729Z</time></trkpt><trkpt lat="42.9387961" lon="12.1521364"><ele>549.3333333333333</ele><time>2026-05-02T08:56:10.729Z</time></trkpt><trkpt lat="42.9387383" lon="12.1520407"><ele>548.0</ele><time>2026-05-02T08:56:11.729Z</time></trkpt><trkpt lat="42.9386964" lon="12.151952"><ele>548.0</ele><time>2026-05-02T08:56:12.729Z</time></trkpt><trkpt lat="42.9386622" lon="12.1518588"><ele>548.0</ele><time>2026-05-02T08:56:13.729Z</time></trkpt><trkpt lat="42.9386423" lon="12.1517729"><ele>548.0</ele><time>2026-05-02T08:56:14.729Z</time></trkpt><trkpt lat="42.9386723" lon="12.1516486"><ele>548.0</ele><time>2026-05-02T08:56:16.729Z</time></trkpt><trkpt lat="42.9387972" lon="12.1515993"><ele>548.0</ele><time>2026-05-02T08:56:18.729Z</time></trkpt><trkpt lat="42.9388893" lon="12.1515992"><ele>548.0</ele><time>2026-05-02T08:56:19.728Z</time></trkpt><trkpt lat="42.9389988" lon="12.1515886"><ele>548.0</ele><time>2026-05-02T08:56:20.729Z</time></trkpt><trkpt lat="42.9391053" lon="12.1515997"><ele>548.0</ele><time>2026-05-02T08:56:21.729Z</time></trkpt><trkpt lat="42.9392123" lon="12.1516253"><ele>548.0</ele><time>2026-05-02T08:56:22.728Z</time></trkpt><trkpt lat="42.9392947" lon="12.1516499"><ele>548.0</ele><time>2026-05-02T08:56:23.729Z</time></trkpt><trkpt lat="42.9393592" lon="12.1516548"><ele>548.6666666666666</ele><time>2026-05-02T08:56:24.729Z</time></trkpt><trkpt lat="42.9394861" lon="12.151636"><ele>549.3333333333333</ele><time>2026-05-02T08:56:26.729Z</time></trkpt><trkpt lat="42.9395562" lon="12.1515888"><ele>550.0</ele><time>2026-05-02T08:56:27.729Z</time></trkpt><trkpt lat="42.9396279" lon="12.1515309"><ele>550.6666666666666</ele><time>2026-05-02T08:56:28.729Z</time></trkpt><trkpt lat="42.9396998" lon="12.1514831"><ele>551.3333333333334</ele><time>2026-05-02T08:56:29.729Z</time></trkpt><trkpt lat="42.9397633" lon="12.1514376"><ele>552.0</ele><time>2026-05-02T08:56:30.729Z</time></trkpt><trkpt lat="42.9398298" lon="12.1514051"><ele>552.0</ele><time>2026-05-02T08:56:31.729Z</time></trkpt><trkpt lat="42.9398918" lon="12.1513726"><ele>552.0</ele><time>2026-05-02T08:56:32.729Z</time></trkpt><trkpt lat="42.9399627" lon="12.1513358"><ele>552.0</ele><time>2026-05-02T08:56:33.729Z</time></trkpt><trkpt lat="42.9400306" lon="12.1512929"><ele>552.0</ele><time>2026-05-02T08:56:34.729Z</time></trkpt><trkpt lat="42.9401088" lon="12.1512511"><ele>552.0</ele><time>2026-05-02T08:56:35.729Z</time></trkpt><trkpt lat="42.9401877" lon="12.1512187"><ele>552.0</ele><time>2026-05-02T08:56:36.729Z</time></trkpt><trkpt lat="42.9402693" lon="12.1511925"><ele>555.2</ele><time>2026-05-02T08:56:37.729Z</time></trkpt><trkpt lat="42.9403491" lon="12.1511745"><ele>558.4000000000001</ele><time>2026-05-02T08:56:38.729Z</time></trkpt><trkpt lat="42.9404236" lon="12.1511655"><ele>561.5999999999999</ele><time>2026-05-02T08:56:39.729Z</time></trkpt><trkpt lat="42.9405323" lon="12.1511605"><ele>564.8</ele><time>2026-05-02T08:56:41.729Z</time></trkpt><trkpt lat="42.9406187" lon="12.1511642"><ele>568.0</ele><time>2026-05-02T08:56:43.729Z</time></trkpt><trkpt lat="42.9407175" lon="12.1511452"><ele>568.0</ele><time>2026-05-02T08:56:45.729Z</time></trkpt><trkpt lat="42.9408227" lon="12.1510865"><ele>568.0</ele><time>2026-05-02T08:56:47.729Z</time></trkpt><trkpt lat="42.9409156" lon="12.1509746"><ele>568.0</ele><time>2026-05-02T08:56:49.729Z</time></trkpt><trkpt lat="42.9409763" lon="12.150824"><ele>568.0</ele><time>2026-05-02T08:56:51.729Z</time></trkpt><trkpt lat="42.9410021" lon="12.1507434"><ele>568.0</ele><time>2026-05-02T08:56:52.729Z</time></trkpt><trkpt lat="42.9410454" lon="12.1505918"><ele>570.0</ele><time>2026-05-02T08:56:54.729Z</time></trkpt><trkpt lat="42.9410827" lon="12.1504508"><ele>572.0</ele><time>2026-05-02T08:56:56.729Z</time></trkpt><trkpt lat="42.9411229" lon="12.1503126"><ele>574.0</ele><time>2026-05-02T08:56:58.729Z</time></trkpt><trkpt lat="42.9411636" lon="12.1501565"><ele>576.0</ele><time>2026-05-02T08:57:00.728Z</time></trkpt><trkpt lat="42.9412127" lon="12.1500138"><ele>576.0</ele><time>2026-05-02T08:57:02.729Z</time></trkpt><trkpt lat="42.9412442" lon="12.1499224"><ele>576.0</ele><time>2026-05-02T08:57:04.729Z</time></trkpt><trkpt lat="42.9412705" lon="12.1498242"><ele>576.0</ele><time>2026-05-02T08:57:08.729Z</time></trkpt><trkpt lat="42.9412489" lon="12.1497349"><ele>576.0</ele><time>2026-05-02T08:57:37.729Z</time></trkpt><trkpt lat="42.9411661" lon="12.149655"><ele>576.0</ele><time>2026-05-02T08:57:39.728Z</time></trkpt><trkpt lat="42.9411046" lon="12.1496267"><ele>576.0</ele><time>2026-05-02T08:57:40.729Z</time></trkpt><trkpt lat="42.9410364" lon="12.1496025"><ele>573.8333333333334</ele><time>2026-05-02T08:57:41.729Z</time></trkpt><trkpt lat="42.9409605" lon="12.1495797"><ele>571.6666666666666</ele><time>2026-05-02T08:57:42.729Z</time></trkpt><trkpt lat="42.9408829" lon="12.1495621"><ele>569.5</ele><time>2026-05-02T08:57:43.729Z</time></trkpt><trkpt lat="42.9408078" lon="12.1495353"><ele>567.3333333333333</ele><time>2026-05-02T08:57:44.729Z</time></trkpt><trkpt lat="42.9407294" lon="12.1495088"><ele>565.1666666666666</ele><time>2026-05-02T08:57:45.729Z</time></trkpt><trkpt lat="42.9406521" lon="12.1494803"><ele>563.0</ele><time>2026-05-02T08:57:46.729Z</time></trkpt><trkpt lat="42.9405813" lon="12.1494552"><ele>562.1666666666666</ele><time>2026-05-02T08:57:47.728Z</time></trkpt><trkpt lat="42.9405054" lon="12.1494239"><ele>561.3333333333333</ele><time>2026-05-02T08:57:48.729Z</time></trkpt><trkpt lat="42.9404286" lon="12.1493855"><ele>560.5</ele><time>2026-05-02T08:57:49.729Z</time></trkpt><trkpt lat="42.9403528" lon="12.1493452"><ele>559.6666666666666</ele><time>2026-05-02T08:57:50.729Z</time></trkpt><trkpt lat="42.9402754" lon="12.1493034"><ele>558.8333333333334</ele><time>2026-05-02T08:57:51.728Z</time></trkpt><trkpt lat="42.9402056" lon="12.1492614"><ele>558.0</ele><time>2026-05-02T08:57:52.729Z</time></trkpt><trkpt lat="42.9401364" lon="12.1492212"><ele>558.0</ele><time>2026-05-02T08:57:53.729Z</time></trkpt><trkpt lat="42.9400701" lon="12.1491795"><ele>558.0</ele><time>2026-05-02T08:57:54.729Z</time></trkpt><trkpt lat="42.9400025" lon="12.1491286"><ele>558.0</ele><time>2026-05-02T08:57:55.729Z</time></trkpt><trkpt lat="42.9399358" lon="12.1490733"><ele>558.0</ele><time>2026-05-02T08:57:56.729Z</time></trkpt><trkpt lat="42.9398691" lon="12.1490199"><ele>558.0</ele><time>2026-05-02T08:57:57.729Z</time></trkpt><trkpt lat="42.9398055" lon="12.1489597"><ele>558.0</ele><time>2026-05-02T08:57:58.729Z</time></trkpt><trkpt lat="42.9397367" lon="12.1489066"><ele>555.0</ele><time>2026-05-02T08:57:59.729Z</time></trkpt><trkpt lat="42.9396692" lon="12.1488502"><ele>552.0</ele><time>2026-05-02T08:58:00.729Z</time></trkpt><trkpt lat="42.9396046" lon="12.1487909"><ele>549.0</ele><time>2026-05-02T08:58:01.729Z</time></trkpt><trkpt lat="42.9395347" lon="12.1487302"><ele>546.0</ele><time>2026-05-02T08:58:02.729Z</time></trkpt><trkpt lat="42.9394624" lon="12.1486681"><ele>543.0</ele><time>2026-05-02T08:58:03.729Z</time></trkpt><trkpt lat="42.9393897" lon="12.1486021"><ele>540.0</ele><time>2026-05-02T08:58:04.729Z</time></trkpt><trkpt lat="42.9393072" lon="12.1485189"><ele>540.0</ele><time>2026-05-02T08:58:05.729Z</time></trkpt><trkpt lat="42.9392275" lon="12.1484349"><ele>540.0</ele><time>2026-05-02T08:58:06.729Z</time></trkpt><trkpt lat="42.9391456" lon="12.1483493"><ele>540.0</ele><time>2026-05-02T08:58:07.729Z</time></trkpt><trkpt lat="42.9390704" lon="12.1482686"><ele>540.0</ele><time>2026-05-02T08:58:08.729Z</time></trkpt><trkpt lat="42.9389913" lon="12.1481892"><ele>540.0</ele><time>2026-05-02T08:58:09.729Z</time></trkpt><trkpt lat="42.9389059" lon="12.1481121"><ele>538.0</ele><time>2026-05-02T08:58:10.729Z</time></trkpt><trkpt lat="42.9388186" lon="12.1480434"><ele>536.0</ele><time>2026-05-02T08:58:11.729Z</time></trkpt><trkpt lat="42.938724" lon="12.1479776"><ele>534.0</ele><time>2026-05-02T08:58:12.729Z</time></trkpt><trkpt lat="42.9386393" lon="12.1479175"><ele>532.0</ele><time>2026-05-02T08:58:13.729Z</time></trkpt><trkpt lat="42.9385528" lon="12.147868"><ele>530.0</ele><time>2026-05-02T08:58:14.729Z</time></trkpt><trkpt lat="42.9384586" lon="12.1478327"><ele>529.3333333333333</ele><time>2026-05-02T08:58:15.729Z</time></trkpt><trkpt lat="42.9383634" lon="12.1478065"><ele>528.6666666666666</ele><time>2026-05-02T08:58:16.729Z</time></trkpt><trkpt lat="42.9382761" lon="12.1477809"><ele>528.0</ele><time>2026-05-02T08:58:17.729Z</time></trkpt><trkpt lat="42.9381908" lon="12.1477438"><ele>527.3333333333334</ele><time>2026-05-02T08:58:18.729Z</time></trkpt><trkpt lat="42.9381236" lon="12.1477189"><ele>526.6666666666667</ele><time>2026-05-02T08:58:19.729Z</time></trkpt><trkpt lat="42.9380547" lon="12.1476959"><ele>526.0</ele><time>2026-05-02T08:58:20.729Z</time></trkpt><trkpt lat="42.9379686" lon="12.1476719"><ele>526.0</ele><time>2026-05-02T08:58:21.729Z</time></trkpt><trkpt lat="42.9378905" lon="12.147646"><ele>526.0</ele><time>2026-05-02T08:58:22.729Z</time></trkpt><trkpt lat="42.9378179" lon="12.1476252"><ele>526.0</ele><time>2026-05-02T08:58:23.729Z</time></trkpt><trkpt lat="42.9377518" lon="12.147608"><ele>526.0</ele><time>2026-05-02T08:58:24.728Z</time></trkpt><trkpt lat="42.9376881" lon="12.1475944"><ele>526.0</ele><time>2026-05-02T08:58:25.729Z</time></trkpt><trkpt lat="42.9376211" lon="12.1475974"><ele>526.0</ele><time>2026-05-02T08:58:26.729Z</time></trkpt><trkpt lat="42.9375476" lon="12.1475914"><ele>526.0</ele><time>2026-05-02T08:58:27.729Z</time></trkpt><trkpt lat="42.9374718" lon="12.1475869"><ele>524.8</ele><time>2026-05-02T08:58:28.729Z</time></trkpt><trkpt lat="42.9373381" lon="12.1475603"><ele>523.6</ele><time>2026-05-02T08:58:30.729Z</time></trkpt><trkpt lat="42.937258" lon="12.1475526"><ele>522.4</ele><time>2026-05-02T08:58:31.729Z</time></trkpt><trkpt lat="42.9371742" lon="12.1475347"><ele>521.2</ele><time>2026-05-02T08:58:32.729Z</time></trkpt><trkpt lat="42.9370934" lon="12.1475266"><ele>520.0</ele><time>2026-05-02T08:58:33.729Z</time></trkpt><trkpt lat="42.9370145" lon="12.1475123"><ele>520.0</ele><time>2026-05-02T08:58:34.729Z</time></trkpt><trkpt lat="42.9369335" lon="12.1475001"><ele>520.0</ele><time>2026-05-02T08:58:35.729Z</time></trkpt><trkpt lat="42.9368493" lon="12.1474906"><ele>520.0</ele><time>2026-05-02T08:58:36.729Z</time></trkpt><trkpt lat="42.9367653" lon="12.1474763"><ele>520.0</ele><time>2026-05-02T08:58:37.729Z</time></trkpt><trkpt lat="42.9366937" lon="12.147461"><ele>520.0</ele><time>2026-05-02T08:58:38.729Z</time></trkpt><trkpt lat="42.9366162" lon="12.1474509"><ele>520.0</ele><time>2026-05-02T08:58:39.729Z</time></trkpt><trkpt lat="42.9365376" lon="12.1474431"><ele>519.0</ele><time>2026-05-02T08:58:40.729Z</time></trkpt><trkpt lat="42.9364608" lon="12.1474378"><ele>518.0</ele><time>2026-05-02T08:58:41.729Z</time></trkpt><trkpt lat="42.9363803" lon="12.1474242"><ele>517.0</ele><time>2026-05-02T08:58:42.729Z</time></trkpt><trkpt lat="42.9363029" lon="12.1474206"><ele>516.0</ele><time>2026-05-02T08:58:43.729Z</time></trkpt><trkpt lat="42.936221" lon="12.1474122"><ele>515.0</ele><time>2026-05-02T08:58:44.729Z</time></trkpt><trkpt lat="42.9361478" lon="12.1474156"><ele>514.0</ele><time>2026-05-02T08:58:45.729Z</time></trkpt><trkpt lat="42.9360762" lon="12.1474299"><ele>514.0</ele><time>2026-05-02T08:58:46.729Z</time></trkpt><trkpt lat="42.936018" lon="12.1474741"><ele>514.0</ele><time>2026-05-02T08:58:47.729Z</time></trkpt><trkpt lat="42.935962" lon="12.1475245"><ele>514.0</ele><time>2026-05-02T08:58:48.729Z</time></trkpt><trkpt lat="42.9359036" lon="12.1475893"><ele>514.0</ele><time>2026-05-02T08:58:49.729Z</time></trkpt><trkpt lat="42.9358457" lon="12.1476436"><ele>514.0</ele><time>2026-05-02T08:58:50.729Z</time></trkpt><trkpt lat="42.9357305" lon="12.1476959"><ele>514.0</ele><time>2026-05-02T08:58:52.729Z</time></trkpt><trkpt lat="42.9356023" lon="12.1476896"><ele>513.1428571428571</ele><time>2026-05-02T08:58:54.729Z</time></trkpt><trkpt lat="42.9355305" lon="12.147673"><ele>512.2857142857143</ele><time>2026-05-02T08:58:55.729Z</time></trkpt><trkpt lat="42.9354552" lon="12.1476716"><ele>511.42857142857144</ele><time>2026-05-02T08:58:56.729Z</time></trkpt><trkpt lat="42.935388" lon="12.1476764"><ele>510.57142857142856</ele><time>2026-05-02T08:58:57.729Z</time></trkpt><trkpt lat="42.9353175" lon="12.1476851"><ele>509.71428571428567</ele><time>2026-05-02T08:58:58.729Z</time></trkpt><trkpt lat="42.9352496" lon="12.1476839"><ele>508.8571428571429</ele><time>2026-05-02T08:58:59.729Z</time></trkpt><trkpt lat="42.9351715" lon="12.1476879"><ele>508.0</ele><time>2026-05-02T08:59:00.728Z</time></trkpt><trkpt lat="42.9351005" lon="12.1476942"><ele>507.00000000000006</ele><time>2026-05-02T08:59:01.729Z</time></trkpt><trkpt lat="42.9350231" lon="12.1477184"><ele>506.0</ele><time>2026-05-02T08:59:02.729Z</time></trkpt><trkpt lat="42.9349464" lon="12.1477376"><ele>505.0</ele><time>2026-05-02T08:59:03.729Z</time></trkpt><trkpt lat="42.9348691" lon="12.1477643"><ele>504.0</ele><time>2026-05-02T08:59:04.729Z</time></trkpt><trkpt lat="42.93479" lon="12.1477969"><ele>503.00000000000006</ele><time>2026-05-02T08:59:05.729Z</time></trkpt><trkpt lat="42.9347202" lon="12.1478525"><ele>502.0</ele><time>2026-05-02T08:59:06.728Z</time></trkpt><trkpt lat="42.9346602" lon="12.1479286"><ele>502.00000000000006</ele><time>2026-05-02T08:59:07.729Z</time></trkpt><trkpt lat="42.9345917" lon="12.1480093"><ele>502.0</ele><time>2026-05-02T08:59:08.729Z</time></trkpt><trkpt lat="42.9345184" lon="12.1480944"><ele>502.0</ele><time>2026-05-02T08:59:09.729Z</time></trkpt><trkpt lat="42.9344542" lon="12.148159"><ele>502.0</ele><time>2026-05-02T08:59:10.729Z</time></trkpt><trkpt lat="42.9343857" lon="12.1481834"><ele>502.00000000000006</ele><time>2026-05-02T08:59:11.729Z</time></trkpt><trkpt lat="42.9343181" lon="12.1481818"><ele>502.0</ele><time>2026-05-02T08:59:12.729Z</time></trkpt><trkpt lat="42.9342553" lon="12.1481458"><ele>503.33333333333337</ele><time>2026-05-02T08:59:13.729Z</time></trkpt><trkpt lat="42.9341856" lon="12.148072"><ele>504.6666666666667</ele><time>2026-05-02T08:59:14.729Z</time></trkpt><trkpt lat="42.9341154" lon="12.1479975"><ele>506.0</ele><time>2026-05-02T08:59:15.729Z</time></trkpt><trkpt lat="42.9340501" lon="12.1479215"><ele>507.33333333333337</ele><time>2026-05-02T08:59:16.729Z</time></trkpt><trkpt lat="42.9339863" lon="12.1478424"><ele>508.6666666666667</ele><time>2026-05-02T08:59:17.729Z</time></trkpt><trkpt lat="42.9339161" lon="12.1478235"><ele>510.0</ele><time>2026-05-02T08:59:18.729Z</time></trkpt><trkpt lat="42.933841" lon="12.1478475"><ele>510.0</ele><time>2026-05-02T08:59:19.729Z</time></trkpt><trkpt lat="42.9337842" lon="12.1478877"><ele>510.00000000000006</ele><time>2026-05-02T08:59:20.729Z</time></trkpt><trkpt lat="42.9337235" lon="12.1479484"><ele>510.0</ele><time>2026-05-02T08:59:21.729Z</time></trkpt><trkpt lat="42.9336636" lon="12.1479928"><ele>510.0</ele><time>2026-05-02T08:59:22.729Z</time></trkpt><trkpt lat="42.9335862" lon="12.1480544"><ele>510.00000000000006</ele><time>2026-05-02T08:59:23.729Z</time></trkpt><trkpt lat="42.933519" lon="12.1480909"><ele>510.0</ele><time>2026-05-02T08:59:24.729Z</time></trkpt><trkpt lat="42.9334537" lon="12.1480909"><ele>510.0</ele><time>2026-05-02T08:59:25.729Z</time></trkpt><trkpt lat="42.9333279" lon="12.1480158"><ele>510.1666666666667</ele><time>2026-05-02T08:59:27.729Z</time></trkpt><trkpt lat="42.9332615" lon="12.1479442"><ele>510.33333333333337</ele><time>2026-05-02T08:59:28.729Z</time></trkpt><trkpt lat="42.9331995" lon="12.1478801"><ele>510.5</ele><time>2026-05-02T08:59:29.729Z</time></trkpt><trkpt lat="42.9331447" lon="12.1478183"><ele>510.6666666666667</ele><time>2026-05-02T08:59:30.729Z</time></trkpt><trkpt lat="42.9330877" lon="12.1477607"><ele>510.83333333333337</ele><time>2026-05-02T08:59:31.729Z</time></trkpt><trkpt lat="42.9330338" lon="12.147691"><ele>511.0</ele><time>2026-05-02T08:59:32.729Z</time></trkpt><trkpt lat="42.9329531" lon="12.1475601"><ele>511.00000000000006</ele><time>2026-05-02T08:59:34.729Z</time></trkpt><trkpt lat="42.9328377" lon="12.1474808"><ele>511.0</ele><time>2026-05-02T08:59:36.729Z</time></trkpt><trkpt lat="42.9327614" lon="12.1474448"><ele>511.0</ele><time>2026-05-02T08:59:37.729Z</time></trkpt><trkpt lat="42.9326872" lon="12.1474078"><ele>511.0</ele><time>2026-05-02T08:59:38.729Z</time></trkpt><trkpt lat="42.9326164" lon="12.1473807"><ele>511.00000000000006</ele><time>2026-05-02T08:59:39.729Z</time></trkpt><trkpt lat="42.9325545" lon="12.1473487"><ele>511.0</ele><time>2026-05-02T08:59:40.728Z</time></trkpt><trkpt lat="42.9324853" lon="12.147302"><ele>509.33333333333337</ele><time>2026-05-02T08:59:41.729Z</time></trkpt><trkpt lat="42.932419" lon="12.1472571"><ele>507.6666666666667</ele><time>2026-05-02T08:59:42.729Z</time></trkpt><trkpt lat="42.9323602" lon="12.1472213"><ele>506.0</ele><time>2026-05-02T08:59:43.729Z</time></trkpt><trkpt lat="42.9322825" lon="12.147168"><ele>504.33333333333337</ele><time>2026-05-02T08:59:44.729Z</time></trkpt><trkpt lat="42.932212" lon="12.1471112"><ele>502.6666666666667</ele><time>2026-05-02T08:59:45.729Z</time></trkpt><trkpt lat="42.9321481" lon="12.1470588"><ele>501.0</ele><time>2026-05-02T08:59:46.729Z</time></trkpt><trkpt lat="42.9320795" lon="12.1470212"><ele>501.0</ele><time>2026-05-02T08:59:47.729Z</time></trkpt><trkpt lat="42.9319811" lon="12.1469925"><ele>501.0</ele><time>2026-05-02T08:59:48.729Z</time></trkpt><trkpt lat="42.9318764" lon="12.1469717"><ele>501.0</ele><time>2026-05-02T08:59:49.729Z</time></trkpt><trkpt lat="42.9317759" lon="12.1469464"><ele>501.0</ele><time>2026-05-02T08:59:50.728Z</time></trkpt><trkpt lat="42.9316813" lon="12.1469226"><ele>501.0</ele><time>2026-05-02T08:59:51.729Z</time></trkpt><trkpt lat="42.9316039" lon="12.1468935"><ele>499.5</ele><time>2026-05-02T08:59:52.729Z</time></trkpt><trkpt lat="42.9315402" lon="12.1468765"><ele>498.0</ele><time>2026-05-02T08:59:53.729Z</time></trkpt><trkpt lat="42.9314338" lon="12.1469114"><ele>496.5</ele><time>2026-05-02T08:59:55.729Z</time></trkpt><trkpt lat="42.9314019" lon="12.147023"><ele>495.0</ele><time>2026-05-02T08:59:57.729Z</time></trkpt><trkpt lat="42.9314285" lon="12.1471561"><ele>493.5</ele><time>2026-05-02T08:59:59.729Z</time></trkpt><trkpt lat="42.931393" lon="12.1472375"><ele>492.0</ele><time>2026-05-02T09:00:01.729Z</time></trkpt><trkpt lat="42.9313044" lon="12.1472856"><ele>492.0</ele><time>2026-05-02T09:00:03.729Z</time></trkpt><trkpt lat="42.9312135" lon="12.147238"><ele>492.00000000000006</ele><time>2026-05-02T09:00:04.729Z</time></trkpt><trkpt lat="42.9311351" lon="12.1471708"><ele>492.00000000000006</ele><time>2026-05-02T09:00:05.729Z</time></trkpt><trkpt lat="42.931053" lon="12.1471054"><ele>492.0</ele><time>2026-05-02T09:00:06.729Z</time></trkpt><trkpt lat="42.9309614" lon="12.1470429"><ele>492.0</ele><time>2026-05-02T09:00:07.729Z</time></trkpt><trkpt lat="42.9308858" lon="12.1469781"><ele>490.0</ele><time>2026-05-02T09:00:08.729Z</time></trkpt><trkpt lat="42.9308235" lon="12.1469095"><ele>488.0</ele><time>2026-05-02T09:00:09.729Z</time></trkpt><trkpt lat="42.9307771" lon="12.1468448"><ele>486.0</ele><time>2026-05-02T09:00:10.729Z</time></trkpt><trkpt lat="42.9306961" lon="12.1467603"><ele>484.0</ele><time>2026-05-02T09:00:12.729Z</time></trkpt><trkpt lat="42.9305913" lon="12.1467369"><ele>482.0</ele><time>2026-05-02T09:00:14.729Z</time></trkpt><trkpt lat="42.9305315" lon="12.1467781"><ele>480.0</ele><time>2026-05-02T09:00:15.729Z</time></trkpt><trkpt lat="42.9304479" lon="12.1468131"><ele>480.0</ele><time>2026-05-02T09:00:16.729Z</time></trkpt><trkpt lat="42.9303793" lon="12.1468229"><ele>480.0</ele><time>2026-05-02T09:00:17.729Z</time></trkpt><trkpt lat="42.9303097" lon="12.1467937"><ele>480.0</ele><time>2026-05-02T09:00:18.729Z</time></trkpt><trkpt lat="42.9302219" lon="12.1467319"><ele>480.0</ele><time>2026-05-02T09:00:19.729Z</time></trkpt><trkpt lat="42.9301401" lon="12.1466652"><ele>480.0</ele><time>2026-05-02T09:00:20.729Z</time></trkpt><trkpt lat="42.9300647" lon="12.1466193"><ele>480.0</ele><time>2026-05-02T09:00:21.729Z</time></trkpt><trkpt lat="42.9299794" lon="12.146586"><ele>479.6</ele><time>2026-05-02T09:00:22.729Z</time></trkpt><trkpt lat="42.9298971" lon="12.1465631"><ele>479.2</ele><time>2026-05-02T09:00:23.729Z</time></trkpt><trkpt lat="42.9298047" lon="12.1465468"><ele>478.79999999999995</ele><time>2026-05-02T09:00:24.729Z</time></trkpt><trkpt lat="42.9296995" lon="12.1465185"><ele>478.4</ele><time>2026-05-02T09:00:25.729Z</time></trkpt><trkpt lat="42.9295985" lon="12.1464967"><ele>478.0</ele><time>2026-05-02T09:00:26.729Z</time></trkpt><trkpt lat="42.9295166" lon="12.1464786"><ele>478.0</ele><time>2026-05-02T09:00:27.729Z</time></trkpt><trkpt lat="42.9294304" lon="12.1464595"><ele>477.99999999999994</ele><time>2026-05-02T09:00:28.729Z</time></trkpt><trkpt lat="42.9293379" lon="12.1464399"><ele>477.99999999999994</ele><time>2026-05-02T09:00:29.729Z</time></trkpt><trkpt lat="42.9292482" lon="12.1464265"><ele>478.0</ele><time>2026-05-02T09:00:30.729Z</time></trkpt><trkpt lat="42.9291585" lon="12.1464095"><ele>478.0</ele><time>2026-05-02T09:00:31.729Z</time></trkpt><trkpt lat="42.929065" lon="12.1463959"><ele>479.2</ele><time>2026-05-02T09:00:32.729Z</time></trkpt><trkpt lat="42.9289685" lon="12.1463828"><ele>480.4</ele><time>2026-05-02T09:00:33.729Z</time></trkpt><trkpt lat="42.9288746" lon="12.1463628"><ele>481.59999999999997</ele><time>2026-05-02T09:00:34.729Z</time></trkpt><trkpt lat="42.928777" lon="12.146342"><ele>482.79999999999995</ele><time>2026-05-02T09:00:35.729Z</time></trkpt><trkpt lat="42.9286821" lon="12.1462886"><ele>484.0</ele><time>2026-05-02T09:00:36.729Z</time></trkpt><trkpt lat="42.9285743" lon="12.1462459"><ele>484.0</ele><time>2026-05-02T09:00:37.729Z</time></trkpt><trkpt lat="42.9284606" lon="12.1462024"><ele>484.0</ele><time>2026-05-02T09:00:38.729Z</time></trkpt><trkpt lat="42.9283415" lon="12.1461752"><ele>484.0</ele><time>2026-05-02T09:00:39.729Z</time></trkpt><trkpt lat="42.9282416" lon="12.1461591"><ele>484.0</ele><time>2026-05-02T09:00:40.729Z</time></trkpt><trkpt lat="42.9281457" lon="12.1461432"><ele>484.0</ele><time>2026-05-02T09:00:41.729Z</time></trkpt><trkpt lat="42.9280581" lon="12.146117"><ele>484.79999999999995</ele><time>2026-05-02T09:00:42.729Z</time></trkpt><trkpt lat="42.9279658" lon="12.1460886"><ele>485.59999999999997</ele><time>2026-05-02T09:00:43.729Z</time></trkpt><trkpt lat="42.9278714" lon="12.1460595"><ele>486.4</ele><time>2026-05-02T09:00:44.729Z</time></trkpt><trkpt lat="42.9277762" lon="12.1460341"><ele>487.2</ele><time>2026-05-02T09:00:45.729Z</time></trkpt><trkpt lat="42.9276781" lon="12.1459989"><ele>488.0</ele><time>2026-05-02T09:00:46.729Z</time></trkpt><trkpt lat="42.9275839" lon="12.1459683"><ele>490.0</ele><time>2026-05-02T09:00:47.729Z</time></trkpt><trkpt lat="42.9274793" lon="12.1459475"><ele>491.99999999999994</ele><time>2026-05-02T09:00:48.729Z</time></trkpt><trkpt lat="42.927371" lon="12.1459328"><ele>493.99999999999994</ele><time>2026-05-02T09:00:49.729Z</time></trkpt><trkpt lat="42.92727" lon="12.1459154"><ele>496.0</ele><time>2026-05-02T09:00:50.729Z</time></trkpt><trkpt lat="42.9271791" lon="12.1459067"><ele>498.0</ele><time>2026-05-02T09:00:51.729Z</time></trkpt><trkpt lat="42.9270813" lon="12.1458825"><ele>498.0</ele><time>2026-05-02T09:00:52.729Z</time></trkpt><trkpt lat="42.9269897" lon="12.1458594"><ele>497.99999999999994</ele><time>2026-05-02T09:00:53.729Z</time></trkpt><trkpt lat="42.9268912" lon="12.1458149"><ele>497.99999999999994</ele><time>2026-05-02T09:00:54.729Z</time></trkpt><trkpt lat="42.9268145" lon="12.1457649"><ele>498.0</ele><time>2026-05-02T09:00:55.729Z</time></trkpt><trkpt lat="42.9267443" lon="12.1456934"><ele>498.0</ele><time>2026-05-02T09:00:56.729Z</time></trkpt><trkpt lat="42.9266845" lon="12.1456067"><ele>501.1666666666667</ele><time>2026-05-02T09:00:57.729Z</time></trkpt><trkpt lat="42.9266275" lon="12.1455117"><ele>504.33333333333337</ele><time>2026-05-02T09:00:58.729Z</time></trkpt><trkpt lat="42.926573" lon="12.1454285"><ele>507.5</ele><time>2026-05-02T09:00:59.729Z</time></trkpt><trkpt lat="42.9265245" lon="12.1453594"><ele>510.6666666666667</ele><time>2026-05-02T09:01:00.729Z</time></trkpt><trkpt lat="42.9264702" lon="12.1452812"><ele>513.8333333333334</ele><time>2026-05-02T09:01:01.729Z</time></trkpt><trkpt lat="42.9264174" lon="12.1452324"><ele>517.0</ele><time>2026-05-02T09:01:02.729Z</time></trkpt><trkpt lat="42.926321" lon="12.1451916"><ele>517.0</ele><time>2026-05-02T09:01:04.729Z</time></trkpt><trkpt lat="42.926205" lon="12.1452051"><ele>517.0</ele><time>2026-05-02T09:01:06.729Z</time></trkpt><trkpt lat="42.926132" lon="12.1452182"><ele>517.0</ele><time>2026-05-02T09:01:07.729Z</time></trkpt><trkpt lat="42.9260517" lon="12.1452498"><ele>517.0</ele><time>2026-05-02T09:01:08.729Z</time></trkpt><trkpt lat="42.9259709" lon="12.1452842"><ele>517.0</ele><time>2026-05-02T09:01:09.729Z</time></trkpt><trkpt lat="42.9259" lon="12.145319"><ele>517.0</ele><time>2026-05-02T09:01:10.729Z</time></trkpt><trkpt lat="42.9258237" lon="12.1453289"><ele>516.6666666666667</ele><time>2026-05-02T09:01:11.729Z</time></trkpt><trkpt lat="42.92575" lon="12.145323"><ele>516.3333333333334</ele><time>2026-05-02T09:01:12.729Z</time></trkpt><trkpt lat="42.9256854" lon="12.1453006"><ele>516.0</ele><time>2026-05-02T09:01:13.729Z</time></trkpt><trkpt lat="42.9255613" lon="12.1452406"><ele>515.6666666666666</ele><time>2026-05-02T09:01:15.729Z</time></trkpt><trkpt lat="42.9254964" lon="12.1452115"><ele>515.3333333333333</ele><time>2026-05-02T09:01:16.729Z</time></trkpt><trkpt lat="42.925422" lon="12.1451939"><ele>515.0</ele><time>2026-05-02T09:01:17.729Z</time></trkpt><trkpt lat="42.9252888" lon="12.1451502"><ele>515.0</ele><time>2026-05-02T09:01:19.729Z</time></trkpt><trkpt lat="42.9252188" lon="12.145109"><ele>515.0</ele><time>2026-05-02T09:01:20.729Z</time></trkpt><trkpt lat="42.92515" lon="12.1450632"><ele>515.0</ele><time>2026-05-02T09:01:21.729Z</time></trkpt><trkpt lat="42.9250803" lon="12.1450032"><ele>515.0</ele><time>2026-05-02T09:01:22.729Z</time></trkpt><trkpt lat="42.9250124" lon="12.1449421"><ele>515.0</ele><time>2026-05-02T09:01:23.729Z</time></trkpt><trkpt lat="42.9249516" lon="12.1448834"><ele>515.0</ele><time>2026-05-02T09:01:24.729Z</time></trkpt><trkpt lat="42.9248906" lon="12.1448188"><ele>515.0</ele><time>2026-05-02T09:01:25.729Z</time></trkpt><trkpt lat="42.9248325" lon="12.1447541"><ele>515.0</ele><time>2026-05-02T09:01:26.729Z</time></trkpt><trkpt lat="42.9247665" lon="12.1446819"><ele>515.0</ele><time>2026-05-02T09:01:27.729Z</time></trkpt><trkpt lat="42.9246982" lon="12.1446059"><ele>515.0</ele><time>2026-05-02T09:01:28.729Z</time></trkpt><trkpt lat="42.9246424" lon="12.1445289"><ele>515.0</ele><time>2026-05-02T09:01:29.729Z</time></trkpt><trkpt lat="42.924579" lon="12.1444668"><ele>515.0</ele><time>2026-05-02T09:01:30.729Z</time></trkpt><trkpt lat="42.9245253" lon="12.1443912"><ele>515.0</ele><time>2026-05-02T09:01:31.729Z</time></trkpt><trkpt lat="42.924472" lon="12.1443294"><ele>515.0</ele><time>2026-05-02T09:01:32.729Z</time></trkpt><trkpt lat="42.9243569" lon="12.1442822"><ele>515.0</ele><time>2026-05-02T09:01:34.729Z</time></trkpt><trkpt lat="42.9242497" lon="12.1443702"><ele>515.0</ele><time>2026-05-02T09:01:36.729Z</time></trkpt><trkpt lat="42.9241638" lon="12.144417"><ele>515.0</ele><time>2026-05-02T09:01:38.729Z</time></trkpt><trkpt lat="42.9241196" lon="12.14434"><ele>515.8</ele><time>2026-05-02T09:01:40.729Z</time></trkpt><trkpt lat="42.9241385" lon="12.1441838"><ele>516.6</ele><time>2026-05-02T09:01:42.729Z</time></trkpt><trkpt lat="42.9241329" lon="12.1440518"><ele>517.4</ele><time>2026-05-02T09:01:44.729Z</time></trkpt><trkpt lat="42.9240433" lon="12.1440289"><ele>518.2</ele><time>2026-05-02T09:01:47.729Z</time></trkpt><trkpt lat="42.9239366" lon="12.1441111"><ele>519.0</ele><time>2026-05-02T09:01:49.729Z</time></trkpt><trkpt lat="42.9238626" lon="12.1441398"><ele>519.0</ele><time>2026-05-02T09:01:50.729Z</time></trkpt><trkpt lat="42.9237951" lon="12.1441815"><ele>519.0</ele><time>2026-05-02T09:01:51.729Z</time></trkpt><trkpt lat="42.9237425" lon="12.1442417"><ele>519.0</ele><time>2026-05-02T09:01:52.729Z</time></trkpt><trkpt lat="42.9236823" lon="12.1442787"><ele>519.0</ele><time>2026-05-02T09:01:53.729Z</time></trkpt><trkpt lat="42.9235788" lon="12.1443"><ele>519.0</ele><time>2026-05-02T09:01:55.729Z</time></trkpt><trkpt lat="42.9234954" lon="12.144191"><ele>519.0</ele><time>2026-05-02T09:01:57.729Z</time></trkpt><trkpt lat="42.9234471" lon="12.1440295"><ele>519.0</ele><time>2026-05-02T09:01:59.729Z</time></trkpt><trkpt lat="42.9234224" lon="12.1439461"><ele>519.0</ele><time>2026-05-02T09:02:00.729Z</time></trkpt><trkpt lat="42.9233879" lon="12.1438704"><ele>519.0</ele><time>2026-05-02T09:02:01.729Z</time></trkpt><trkpt lat="42.9232805" lon="12.1438085"><ele>519.0</ele><time>2026-05-02T09:02:03.729Z</time></trkpt><trkpt lat="42.9232105" lon="12.1437939"><ele>519.0</ele><time>2026-05-02T09:02:04.729Z</time></trkpt><trkpt lat="42.9231267" lon="12.1437701"><ele>519.0</ele><time>2026-05-02T09:02:05.729Z</time></trkpt><trkpt lat="42.923025" lon="12.1437289"><ele>521.3333333333334</ele><time>2026-05-02T09:02:06.729Z</time></trkpt><trkpt lat="42.9229368" lon="12.1436834"><ele>523.6666666666666</ele><time>2026-05-02T09:02:07.729Z</time></trkpt><trkpt lat="42.9228587" lon="12.1436167"><ele>526.0</ele><time>2026-05-02T09:02:08.729Z</time></trkpt><trkpt lat="42.9227935" lon="12.143551"><ele>528.3333333333333</ele><time>2026-05-02T09:02:09.729Z</time></trkpt><trkpt lat="42.9227232" lon="12.1434776"><ele>530.6666666666666</ele><time>2026-05-02T09:02:10.729Z</time></trkpt><trkpt lat="42.9226559" lon="12.1434025"><ele>533.0</ele><time>2026-05-02T09:02:11.729Z</time></trkpt><trkpt lat="42.9225869" lon="12.1433334"><ele>533.0</ele><time>2026-05-02T09:02:12.729Z</time></trkpt><trkpt lat="42.9225193" lon="12.1432557"><ele>533.0</ele><time>2026-05-02T09:02:13.729Z</time></trkpt><trkpt lat="42.9224522" lon="12.1431819"><ele>533.0</ele><time>2026-05-02T09:02:14.729Z</time></trkpt><trkpt lat="42.9223822" lon="12.1430946"><ele>533.0</ele><time>2026-05-02T09:02:15.729Z</time></trkpt><trkpt lat="42.9223124" lon="12.1430099"><ele>533.0</ele><time>2026-05-02T09:02:16.729Z</time></trkpt><trkpt lat="42.9222388" lon="12.1429183"><ele>535.8</ele><time>2026-05-02T09:02:17.729Z</time></trkpt><trkpt lat="42.922167" lon="12.1428223"><ele>538.5999999999999</ele><time>2026-05-02T09:02:18.729Z</time></trkpt><trkpt lat="42.9221076" lon="12.1427165"><ele>541.4000000000001</ele><time>2026-05-02T09:02:19.729Z</time></trkpt><trkpt lat="42.9220449" lon="12.1426122"><ele>544.2</ele><time>2026-05-02T09:02:20.729Z</time></trkpt><trkpt lat="42.9219897" lon="12.1425093"><ele>547.0</ele><time>2026-05-02T09:02:21.729Z</time></trkpt><trkpt lat="42.9219416" lon="12.142405"><ele>548.1666666666667</ele><time>2026-05-02T09:02:22.729Z</time></trkpt><trkpt lat="42.9218975" lon="12.1423051"><ele>549.3333333333334</ele><time>2026-05-02T09:02:23.729Z</time></trkpt><trkpt lat="42.9218558" lon="12.1422106"><ele>550.5</ele><time>2026-05-02T09:02:24.729Z</time></trkpt><trkpt lat="42.9218103" lon="12.1421227"><ele>551.6666666666666</ele><time>2026-05-02T09:02:25.729Z</time></trkpt><trkpt lat="42.9217827" lon="12.1420421"><ele>552.8333333333333</ele><time>2026-05-02T09:02:26.729Z</time></trkpt><trkpt lat="42.9216631" lon="12.1419793"><ele>554.0</ele><time>2026-05-02T09:02:28.729Z</time></trkpt><trkpt lat="42.9215887" lon="12.1420203"><ele>554.0</ele><time>2026-05-02T09:02:29.729Z</time></trkpt><trkpt lat="42.9215144" lon="12.1420789"><ele>554.0</ele><time>2026-05-02T09:02:30.729Z</time></trkpt><trkpt lat="42.9214377" lon="12.1421565"><ele>554.0</ele><time>2026-05-02T09:02:31.729Z</time></trkpt><trkpt lat="42.9213632" lon="12.1422267"><ele>554.0</ele><time>2026-05-02T09:02:32.729Z</time></trkpt><trkpt lat="42.9213001" lon="12.1422739"><ele>554.0</ele><time>2026-05-02T09:02:33.729Z</time></trkpt><trkpt lat="42.9212171" lon="12.1423125"><ele>554.0</ele><time>2026-05-02T09:02:34.729Z</time></trkpt><trkpt lat="42.9211305" lon="12.1423427"><ele>554.0</ele><time>2026-05-02T09:02:35.729Z</time></trkpt><trkpt lat="42.9210298" lon="12.1423374"><ele>554.0</ele><time>2026-05-02T09:02:36.729Z</time></trkpt><trkpt lat="42.9209359" lon="12.142317"><ele>554.0</ele><time>2026-05-02T09:02:37.729Z</time></trkpt><trkpt lat="42.9208319" lon="12.1422595"><ele>554.0</ele><time>2026-05-02T09:02:38.729Z</time></trkpt><trkpt lat="42.9207335" lon="12.14219"><ele>554.0</ele><time>2026-05-02T09:02:39.729Z</time></trkpt><trkpt lat="42.9206334" lon="12.1420889"><ele>557.0</ele><time>2026-05-02T09:02:40.729Z</time></trkpt><trkpt lat="42.9205412" lon="12.1419943"><ele>560.0</ele><time>2026-05-02T09:02:41.729Z</time></trkpt><trkpt lat="42.9204544" lon="12.1418825"><ele>563.0</ele><time>2026-05-02T09:02:42.729Z</time></trkpt><trkpt lat="42.9203707" lon="12.1417775"><ele>566.0</ele><time>2026-05-02T09:02:43.729Z</time></trkpt><trkpt lat="42.9202716" lon="12.1416797"><ele>566.0</ele><time>2026-05-02T09:02:44.729Z</time></trkpt><trkpt lat="42.920168" lon="12.1415772"><ele>566.0</ele><time>2026-05-02T09:02:45.729Z</time></trkpt><trkpt lat="42.9200632" lon="12.1414828"><ele>566.0</ele><time>2026-05-02T09:02:46.729Z</time></trkpt><trkpt lat="42.91996" lon="12.1414157"><ele>566.0</ele><time>2026-05-02T09:02:47.729Z</time></trkpt><trkpt lat="42.9198792" lon="12.1413677"><ele>566.8571428571429</ele><time>2026-05-02T09:02:48.729Z</time></trkpt><trkpt lat="42.9198123" lon="12.141326"><ele>567.7142857142858</ele><time>2026-05-02T09:02:49.729Z</time></trkpt><trkpt lat="42.9197454" lon="12.1413081"><ele>568.5714285714286</ele><time>2026-05-02T09:02:50.729Z</time></trkpt><trkpt lat="42.9196655" lon="12.1412955"><ele>569.4285714285714</ele><time>2026-05-02T09:02:52.729Z</time></trkpt><trkpt lat="42.919642" lon="12.1412138"><ele>570.2857142857142</ele><time>2026-05-02T09:02:58.729Z</time></trkpt><trkpt lat="42.9197223" lon="12.1411745"><ele>571.1428571428571</ele><time>2026-05-02T09:03:01.729Z</time></trkpt><trkpt lat="42.919765" lon="12.1410981"><ele>572.0</ele><time>2026-05-02T09:03:03.729Z</time></trkpt><trkpt lat="42.9197154" lon="12.1410252"><ele>572.0</ele><time>2026-05-02T09:03:06.729Z</time></trkpt><trkpt lat="42.919651" lon="12.1411139"><ele>572.0</ele><time>2026-05-02T09:03:09.729Z</time></trkpt><trkpt lat="42.9195981" lon="12.1412244"><ele>572.0</ele><time>2026-05-02T09:03:11.729Z</time></trkpt><trkpt lat="42.9195431" lon="12.1412919"><ele>572.0</ele><time>2026-05-02T09:03:12.729Z</time></trkpt><trkpt lat="42.9194909" lon="12.1413488"><ele>572.0</ele><time>2026-05-02T09:03:13.729Z</time></trkpt><trkpt lat="42.9194052" lon="12.1414505"><ele>572.0</ele><time>2026-05-02T09:03:15.729Z</time></trkpt><trkpt lat="42.9193425" lon="12.1415262"><ele>570.5</ele><time>2026-05-02T09:03:17.729Z</time></trkpt><trkpt lat="42.91929" lon="12.1415986"><ele>569.0</ele><time>2026-05-02T09:03:19.729Z</time></trkpt><trkpt lat="42.9192028" lon="12.1416674"><ele>567.5</ele><time>2026-05-02T09:03:21.729Z</time></trkpt><trkpt lat="42.9191097" lon="12.1417291"><ele>566.0</ele><time>2026-05-02T09:03:23.729Z</time></trkpt><trkpt lat="42.9190457" lon="12.1417464"><ele>564.5</ele><time>2026-05-02T09:03:25.729Z</time></trkpt><trkpt lat="42.9189868" lon="12.1417877"><ele>563.0</ele><time>2026-05-02T09:03:27.729Z</time></trkpt><trkpt lat="42.9190484" lon="12.1418106"><ele>563.0</ele><time>2026-05-02T09:03:32.729Z</time></trkpt><trkpt lat="42.919114" lon="12.1417699"><ele>563.0</ele><time>2026-05-02T09:03:33.729Z</time></trkpt><trkpt lat="42.9192289" lon="12.1416873"><ele>563.0</ele><time>2026-05-02T09:03:35.729Z</time></trkpt><trkpt lat="42.9192985" lon="12.141609"><ele>563.0</ele><time>2026-05-02T09:03:36.729Z</time></trkpt><trkpt lat="42.9193673" lon="12.1415249"><ele>563.0</ele><time>2026-05-02T09:03:37.729Z</time></trkpt><trkpt lat="42.9194368" lon="12.1414361"><ele>564.8</ele><time>2026-05-02T09:03:38.729Z</time></trkpt><trkpt lat="42.9195105" lon="12.1413433"><ele>566.5999999999999</ele><time>2026-05-02T09:03:39.729Z</time></trkpt><trkpt lat="42.9195751" lon="12.1412414"><ele>568.4000000000001</ele><time>2026-05-02T09:03:40.729Z</time></trkpt><trkpt lat="42.9196347" lon="12.1411391"><ele>570.2</ele><time>2026-05-02T09:03:41.729Z</time></trkpt><trkpt lat="42.9196885" lon="12.1410428"><ele>572.0</ele><time>2026-05-02T09:03:42.729Z</time></trkpt><trkpt lat="42.9197247" lon="12.1409148"><ele>572.0</ele><time>2026-05-02T09:03:43.729Z</time></trkpt><trkpt lat="42.919743" lon="12.1407758"><ele>572.0</ele><time>2026-05-02T09:03:44.729Z</time></trkpt><trkpt lat="42.9197385" lon="12.140622"><ele>572.0</ele><time>2026-05-02T09:03:45.729Z</time></trkpt><trkpt lat="42.9197272" lon="12.1404627"><ele>572.0</ele><time>2026-05-02T09:03:46.729Z</time></trkpt><trkpt lat="42.9197134" lon="12.1403155"><ele>572.0</ele><time>2026-05-02T09:03:47.729Z</time></trkpt><trkpt lat="42.9196859" lon="12.1401623"><ele>573.6</ele><time>2026-05-02T09:03:48.729Z</time></trkpt><trkpt lat="42.9196579" lon="12.1400217"><ele>575.2</ele><time>2026-05-02T09:03:49.729Z</time></trkpt><trkpt lat="42.9196274" lon="12.1398743"><ele>576.8</ele><time>2026-05-02T09:03:50.729Z</time></trkpt><trkpt lat="42.9195964" lon="12.1397281"><ele>578.4</ele><time>2026-05-02T09:03:51.729Z</time></trkpt><trkpt lat="42.9195724" lon="12.1395741"><ele>580.0</ele><time>2026-05-02T09:03:52.729Z</time></trkpt><trkpt lat="42.9195364" lon="12.1394209"><ele>584.25</ele><time>2026-05-02T09:03:53.729Z</time></trkpt><trkpt lat="42.919487" lon="12.1392779"><ele>588.5</ele><time>2026-05-02T09:03:54.729Z</time></trkpt><trkpt lat="42.9194211" lon="12.1391431"><ele>592.75</ele><time>2026-05-02T09:03:55.729Z</time></trkpt><trkpt lat="42.9193354" lon="12.1390213"><ele>597.0</ele><time>2026-05-02T09:03:56.729Z</time></trkpt><trkpt lat="42.9192414" lon="12.1389019"><ele>598.75</ele><time>2026-05-02T09:03:57.729Z</time></trkpt><trkpt lat="42.9191391" lon="12.1387851"><ele>600.5</ele><time>2026-05-02T09:03:58.729Z</time></trkpt><trkpt lat="42.9190389" lon="12.1386912"><ele>602.25</ele><time>2026-05-02T09:03:59.729Z</time></trkpt><trkpt lat="42.9189377" lon="12.1386364"><ele>604.0</ele><time>2026-05-02T09:04:00.729Z</time></trkpt><trkpt lat="42.9188252" lon="12.1386337"><ele>604.0</ele><time>2026-05-02T09:04:01.729Z</time></trkpt><trkpt lat="42.9187215" lon="12.1386821"><ele>604.0</ele><time>2026-05-02T09:04:02.729Z</time></trkpt><trkpt lat="42.9186267" lon="12.1387851"><ele>604.0</ele><time>2026-05-02T09:04:03.729Z</time></trkpt><trkpt lat="42.918538" lon="12.1389018"><ele>604.0</ele><time>2026-05-02T09:04:04.729Z</time></trkpt><trkpt lat="42.9184444" lon="12.1390009"><ele>600.25</ele><time>2026-05-02T09:04:05.729Z</time></trkpt><trkpt lat="42.9183412" lon="12.1390773"><ele>596.5</ele><time>2026-05-02T09:04:06.729Z</time></trkpt><trkpt lat="42.9182349" lon="12.1391259"><ele>592.75</ele><time>2026-05-02T09:04:07.729Z</time></trkpt><trkpt lat="42.9181218" lon="12.1391414"><ele>589.0</ele><time>2026-05-02T09:04:08.729Z</time></trkpt><trkpt lat="42.9180029" lon="12.1391216"><ele>589.0</ele><time>2026-05-02T09:04:09.729Z</time></trkpt><trkpt lat="42.9178863" lon="12.139071"><ele>589.0</ele><time>2026-05-02T09:04:10.729Z</time></trkpt><trkpt lat="42.9177787" lon="12.1389725"><ele>589.0</ele><time>2026-05-02T09:04:11.729Z</time></trkpt><trkpt lat="42.9176814" lon="12.1388583"><ele>589.0</ele><time>2026-05-02T09:04:12.729Z</time></trkpt><trkpt lat="42.9176076" lon="12.1387285"><ele>591.5</ele><time>2026-05-02T09:04:13.729Z</time></trkpt><trkpt lat="42.9175615" lon="12.1385751"><ele>594.0</ele><time>2026-05-02T09:04:14.729Z</time></trkpt><trkpt lat="42.9175368" lon="12.1384211"><ele>596.5</ele><time>2026-05-02T09:04:15.729Z</time></trkpt><trkpt lat="42.9175346" lon="12.1382546"><ele>599.0</ele><time>2026-05-02T09:04:16.729Z</time></trkpt><trkpt lat="42.9175312" lon="12.1380849"><ele>601.25</ele><time>2026-05-02T09:04:17.729Z</time></trkpt><trkpt lat="42.9175331" lon="12.1379127"><ele>603.5</ele><time>2026-05-02T09:04:18.729Z</time></trkpt><trkpt lat="42.9175311" lon="12.1377441"><ele>605.75</ele><time>2026-05-02T09:04:19.729Z</time></trkpt><trkpt lat="42.9175185" lon="12.137585"><ele>608.0</ele><time>2026-05-02T09:04:20.729Z</time></trkpt><trkpt lat="42.9174809" lon="12.1374283"><ele>610.25</ele><time>2026-05-02T09:04:21.729Z</time></trkpt><trkpt lat="42.9174167" lon="12.1372878"><ele>612.5</ele><time>2026-05-02T09:04:22.729Z</time></trkpt><trkpt lat="42.9173268" lon="12.1371562"><ele>614.75</ele><time>2026-05-02T09:04:23.729Z</time></trkpt><trkpt lat="42.9172351" lon="12.1370255"><ele>617.0</ele><time>2026-05-02T09:04:24.729Z</time></trkpt><trkpt lat="42.9171186" lon="12.1369055"><ele>617.0</ele><time>2026-05-02T09:04:25.729Z</time></trkpt><trkpt lat="42.9170169" lon="12.1367932"><ele>617.0</ele><time>2026-05-02T09:04:26.729Z</time></trkpt><trkpt lat="42.9169248" lon="12.1366822"><ele>617.0</ele><time>2026-05-02T09:04:27.729Z</time></trkpt><trkpt lat="42.9168359" lon="12.136582"><ele>617.0</ele><time>2026-05-02T09:04:28.729Z</time></trkpt><trkpt lat="42.9167568" lon="12.1364925"><ele>616.3333333333333</ele><time>2026-05-02T09:04:29.729Z</time></trkpt><trkpt lat="42.916704" lon="12.136434"><ele>615.6666666666666</ele><time>2026-05-02T09:04:30.729Z</time></trkpt><trkpt lat="42.9166552" lon="12.1363536"><ele>615.0</ele><time>2026-05-02T09:04:32.729Z</time></trkpt><trkpt lat="42.9166712" lon="12.1362337"><ele>614.3333333333334</ele><time>2026-05-02T09:04:36.729Z</time></trkpt><trkpt lat="42.9167399" lon="12.1361873"><ele>613.6666666666667</ele><time>2026-05-02T09:04:39.729Z</time></trkpt><trkpt lat="42.9168222" lon="12.1361454"><ele>613.0</ele><time>2026-05-02T09:05:02.729Z</time></trkpt><trkpt lat="42.9168876" lon="12.1361185"><ele>613.0</ele><time>2026-05-02T09:05:04.729Z</time></trkpt><trkpt lat="42.9169542" lon="12.1360945"><ele>613.0</ele><time>2026-05-02T09:05:06.729Z</time></trkpt><trkpt lat="42.9170436" lon="12.1360556"><ele>613.0</ele><time>2026-05-02T09:05:08.728Z</time></trkpt><trkpt lat="42.9171233" lon="12.1360422"><ele>613.0</ele><time>2026-05-02T09:05:10.729Z</time></trkpt><trkpt lat="42.9171943" lon="12.1360046"><ele>613.0</ele><time>2026-05-02T09:05:23.729Z</time></trkpt><trkpt lat="42.9170931" lon="12.136039"><ele>613.0</ele><time>2026-05-02T09:05:30.729Z</time></trkpt><trkpt lat="42.9169716" lon="12.1360991"><ele>613.0</ele><time>2026-05-02T09:05:32.729Z</time></trkpt><trkpt lat="42.9168971" lon="12.136114"><ele>613.0</ele><time>2026-05-02T09:05:33.729Z</time></trkpt><trkpt lat="42.9167906" lon="12.1361366"><ele>613.0</ele><time>2026-05-02T09:05:35.729Z</time></trkpt><trkpt lat="42.9167265" lon="12.1361849"><ele>613.0</ele><time>2026-05-02T09:05:37.729Z</time></trkpt><trkpt lat="42.9167593" lon="12.1362758"><ele>613.0</ele><time>2026-05-02T09:05:40.729Z</time></trkpt><trkpt lat="42.9168927" lon="12.1363232"><ele>613.0</ele><time>2026-05-02T09:05:42.729Z</time></trkpt><trkpt lat="42.916972" lon="12.1363469"><ele>613.0</ele><time>2026-05-02T09:05:43.729Z</time></trkpt><trkpt lat="42.9170709" lon="12.1363661"><ele>613.0</ele><time>2026-05-02T09:05:44.729Z</time></trkpt><trkpt lat="42.9171694" lon="12.1363761"><ele>613.0</ele><time>2026-05-02T09:05:45.729Z</time></trkpt><trkpt lat="42.9172734" lon="12.1363835"><ele>613.0</ele><time>2026-05-02T09:05:46.729Z</time></trkpt><trkpt lat="42.9173764" lon="12.136406"><ele>613.0</ele><time>2026-05-02T09:05:47.729Z</time></trkpt><trkpt lat="42.9174824" lon="12.1364374"><ele>613.0</ele><time>2026-05-02T09:05:48.729Z</time></trkpt><trkpt lat="42.9175854" lon="12.1364688"><ele>613.0</ele><time>2026-05-02T09:05:49.729Z</time></trkpt><trkpt lat="42.9176893" lon="12.1365067"><ele>613.0</ele><time>2026-05-02T09:05:50.729Z</time></trkpt><trkpt lat="42.9177948" lon="12.1365407"><ele>613.0</ele><time>2026-05-02T09:05:51.729Z</time></trkpt><trkpt lat="42.9178956" lon="12.1365789"><ele>615.6</ele><time>2026-05-02T09:05:52.729Z</time></trkpt><trkpt lat="42.9179946" lon="12.136602"><ele>618.1999999999999</ele><time>2026-05-02T09:05:53.729Z</time></trkpt><trkpt lat="42.9180933" lon="12.1366247"><ele>620.8</ele><time>2026-05-02T09:05:54.729Z</time></trkpt><trkpt lat="42.9181995" lon="12.1366438"><ele>623.4</ele><time>2026-05-02T09:05:55.729Z</time></trkpt><trkpt lat="42.9182957" lon="12.1366616"><ele>626.0</ele><time>2026-05-02T09:05:56.729Z</time></trkpt><trkpt lat="42.9183855" lon="12.1366759"><ele>625.6666666666666</ele><time>2026-05-02T09:05:57.729Z</time></trkpt><trkpt lat="42.9184738" lon="12.1366945"><ele>625.3333333333333</ele><time>2026-05-02T09:05:58.729Z</time></trkpt><trkpt lat="42.9185575" lon="12.1367096"><ele>625.0</ele><time>2026-05-02T09:05:59.729Z</time></trkpt><trkpt lat="42.9186426" lon="12.1367315"><ele>624.6666666666666</ele><time>2026-05-02T09:06:00.729Z</time></trkpt><trkpt lat="42.9187263" lon="12.1367538"><ele>624.3333333333334</ele><time>2026-05-02T09:06:01.729Z</time></trkpt><trkpt lat="42.9188142" lon="12.1367721"><ele>624.0</ele><time>2026-05-02T09:06:02.729Z</time></trkpt><trkpt lat="42.9188972" lon="12.1367857"><ele>624.0</ele><time>2026-05-02T09:06:03.729Z</time></trkpt><trkpt lat="42.9189717" lon="12.1368154"><ele>624.0</ele><time>2026-05-02T09:06:04.729Z</time></trkpt><trkpt lat="42.9190434" lon="12.1368615"><ele>624.0</ele><time>2026-05-02T09:06:05.729Z</time></trkpt><trkpt lat="42.9191279" lon="12.1369466"><ele>624.0</ele><time>2026-05-02T09:06:06.729Z</time></trkpt><trkpt lat="42.9192131" lon="12.1370473"><ele>624.0</ele><time>2026-05-02T09:06:07.729Z</time></trkpt><trkpt lat="42.9192936" lon="12.1371327"><ele>622.0</ele><time>2026-05-02T09:06:08.729Z</time></trkpt><trkpt lat="42.9193865" lon="12.1372023"><ele>620.0</ele><time>2026-05-02T09:06:09.729Z</time></trkpt><trkpt lat="42.9194905" lon="12.1372559"><ele>618.0</ele><time>2026-05-02T09:06:10.729Z</time></trkpt><trkpt lat="42.9196068" lon="12.137292"><ele>616.0</ele><time>2026-05-02T09:06:11.729Z</time></trkpt><trkpt lat="42.919721" lon="12.1373483"><ele>616.8</ele><time>2026-05-02T09:06:12.729Z</time></trkpt><trkpt lat="42.9198063" lon="12.1373984"><ele>617.6</ele><time>2026-05-02T09:06:13.728Z</time></trkpt><trkpt lat="42.9199066" lon="12.137451"><ele>618.4</ele><time>2026-05-02T09:06:14.729Z</time></trkpt><trkpt lat="42.9199998" lon="12.1375009"><ele>619.2</ele><time>2026-05-02T09:06:15.729Z</time></trkpt><trkpt lat="42.920085" lon="12.137544"><ele>620.0</ele><time>2026-05-02T09:06:16.729Z</time></trkpt><trkpt lat="42.9201652" lon="12.1375836"><ele>620.0</ele><time>2026-05-02T09:06:17.729Z</time></trkpt><trkpt lat="42.9202332" lon="12.1376392"><ele>620.0</ele><time>2026-05-02T09:06:18.729Z</time></trkpt><trkpt lat="42.9203052" lon="12.1376915"><ele>620.0</ele><time>2026-05-02T09:06:19.729Z</time></trkpt><trkpt lat="42.9203597" lon="12.1377604"><ele>620.0</ele><time>2026-05-02T09:06:20.729Z</time></trkpt><trkpt lat="42.9204215" lon="12.1378299"><ele>620.0</ele><time>2026-05-02T09:06:21.729Z</time></trkpt><trkpt lat="42.9204825" lon="12.1378968"><ele>620.0</ele><time>2026-05-02T09:06:22.729Z</time></trkpt><trkpt lat="42.9205608" lon="12.1379439"><ele>620.0</ele><time>2026-05-02T09:06:23.729Z</time></trkpt><trkpt lat="42.9206485" lon="12.1379881"><ele>620.0</ele><time>2026-05-02T09:06:24.729Z</time></trkpt><trkpt lat="42.9207299" lon="12.1380333"><ele>620.0</ele><time>2026-05-02T09:06:25.729Z</time></trkpt><trkpt lat="42.9208053" lon="12.1380726"><ele>620.0</ele><time>2026-05-02T09:06:26.729Z</time></trkpt><trkpt lat="42.9208803" lon="12.1381092"><ele>620.0</ele><time>2026-05-02T09:06:27.729Z</time></trkpt><trkpt lat="42.9209512" lon="12.1381407"><ele>620.0</ele><time>2026-05-02T09:06:28.729Z</time></trkpt><trkpt lat="42.9210194" lon="12.1381518"><ele>620.5</ele><time>2026-05-02T09:06:29.729Z</time></trkpt><trkpt lat="42.921098" lon="12.1381381"><ele>621.0</ele><time>2026-05-02T09:06:30.729Z</time></trkpt><trkpt lat="42.9211806" lon="12.1381015"><ele>621.5</ele><time>2026-05-02T09:06:31.729Z</time></trkpt><trkpt lat="42.9212648" lon="12.1380749"><ele>622.0</ele><time>2026-05-02T09:06:32.729Z</time></trkpt><trkpt lat="42.9213496" lon="12.1380424"><ele>622.5</ele><time>2026-05-02T09:06:33.729Z</time></trkpt><trkpt lat="42.9214257" lon="12.1380216"><ele>623.0</ele><time>2026-05-02T09:06:34.729Z</time></trkpt><trkpt lat="42.9214983" lon="12.1379953"><ele>623.0</ele><time>2026-05-02T09:06:35.729Z</time></trkpt><trkpt lat="42.9215678" lon="12.1379597"><ele>623.0</ele><time>2026-05-02T09:06:36.729Z</time></trkpt><trkpt lat="42.9216314" lon="12.1379105"><ele>623.0</ele><time>2026-05-02T09:06:37.729Z</time></trkpt><trkpt lat="42.9217029" lon="12.1378417"><ele>623.0</ele><time>2026-05-02T09:06:38.729Z</time></trkpt><trkpt lat="42.9217716" lon="12.1377715"><ele>623.0</ele><time>2026-05-02T09:06:39.729Z</time></trkpt><trkpt lat="42.9218382" lon="12.1377001"><ele>623.0</ele><time>2026-05-02T09:06:40.729Z</time></trkpt><trkpt lat="42.9219085" lon="12.1376163"><ele>624.1666666666666</ele><time>2026-05-02T09:06:41.729Z</time></trkpt><trkpt lat="42.9219737" lon="12.1375411"><ele>625.3333333333333</ele><time>2026-05-02T09:06:42.729Z</time></trkpt><trkpt lat="42.9220447" lon="12.1374766"><ele>626.5</ele><time>2026-05-02T09:06:43.729Z</time></trkpt><trkpt lat="42.9221192" lon="12.1374416"><ele>627.6666666666666</ele><time>2026-05-02T09:06:44.729Z</time></trkpt><trkpt lat="42.9222017" lon="12.1374169"><ele>628.8333333333334</ele><time>2026-05-02T09:06:45.729Z</time></trkpt><trkpt lat="42.9222865" lon="12.1373993"><ele>630.0</ele><time>2026-05-02T09:06:46.729Z</time></trkpt><trkpt lat="42.9223741" lon="12.1373981"><ele>628.5</ele><time>2026-05-02T09:06:47.729Z</time></trkpt><trkpt lat="42.9224562" lon="12.1373826"><ele>627.0</ele><time>2026-05-02T09:06:48.729Z</time></trkpt><trkpt lat="42.9225415" lon="12.1373738"><ele>625.5</ele><time>2026-05-02T09:06:49.729Z</time></trkpt><trkpt lat="42.9226248" lon="12.1373657"><ele>624.0</ele><time>2026-05-02T09:06:50.729Z</time></trkpt><trkpt lat="42.9227079" lon="12.1373582"><ele>622.5</ele><time>2026-05-02T09:06:51.729Z</time></trkpt><trkpt lat="42.922792" lon="12.1373564"><ele>621.0</ele><time>2026-05-02T09:06:52.729Z</time></trkpt><trkpt lat="42.9228744" lon="12.1373574"><ele>621.0</ele><time>2026-05-02T09:06:53.729Z</time></trkpt><trkpt lat="42.9229579" lon="12.1373554"><ele>621.0</ele><time>2026-05-02T09:06:54.729Z</time></trkpt><trkpt lat="42.923045" lon="12.1373577"><ele>621.0</ele><time>2026-05-02T09:06:55.729Z</time></trkpt><trkpt lat="42.9231371" lon="12.1373576"><ele>621.0</ele><time>2026-05-02T09:06:56.729Z</time></trkpt><trkpt lat="42.923228" lon="12.1373538"><ele>621.0</ele><time>2026-05-02T09:06:57.729Z</time></trkpt><trkpt lat="42.9233253" lon="12.1373416"><ele>622.6</ele><time>2026-05-02T09:06:58.729Z</time></trkpt><trkpt lat="42.9234136" lon="12.1373173"><ele>624.2</ele><time>2026-05-02T09:06:59.729Z</time></trkpt><trkpt lat="42.9234959" lon="12.1372881"><ele>625.8</ele><time>2026-05-02T09:07:00.729Z</time></trkpt><trkpt lat="42.923572" lon="12.1372318"><ele>627.4</ele><time>2026-05-02T09:07:01.729Z</time></trkpt><trkpt lat="42.9236563" lon="12.1371766"><ele>629.0</ele><time>2026-05-02T09:07:02.729Z</time></trkpt><trkpt lat="42.9237336" lon="12.1370956"><ele>629.0</ele><time>2026-05-02T09:07:03.729Z</time></trkpt><trkpt lat="42.9238086" lon="12.1369948"><ele>629.0</ele><time>2026-05-02T09:07:04.729Z</time></trkpt><trkpt lat="42.9238902" lon="12.1369096"><ele>629.0</ele><time>2026-05-02T09:07:05.729Z</time></trkpt><trkpt lat="42.9239625" lon="12.136824"><ele>629.0</ele><time>2026-05-02T09:07:06.729Z</time></trkpt><trkpt lat="42.9240398" lon="12.1367335"><ele>629.0</ele><time>2026-05-02T09:07:07.729Z</time></trkpt><trkpt lat="42.9241058" lon="12.1366672"><ele>629.0</ele><time>2026-05-02T09:07:08.729Z</time></trkpt><trkpt lat="42.9241748" lon="12.1366049"><ele>629.0</ele><time>2026-05-02T09:07:09.729Z</time></trkpt><trkpt lat="42.9242554" lon="12.1365624"><ele>629.0</ele><time>2026-05-02T09:07:10.729Z</time></trkpt><trkpt lat="42.9243435" lon="12.1364998"><ele>629.0</ele><time>2026-05-02T09:07:11.729Z</time></trkpt><trkpt lat="42.9244253" lon="12.1364493"><ele>629.0</ele><time>2026-05-02T09:07:12.729Z</time></trkpt><trkpt lat="42.9244962" lon="12.1363996"><ele>629.0</ele><time>2026-05-02T09:07:13.729Z</time></trkpt><trkpt lat="42.9245666" lon="12.1363329"><ele>629.3333333333333</ele><time>2026-05-02T09:07:14.729Z</time></trkpt><trkpt lat="42.9246395" lon="12.1362547"><ele>629.6666666666666</ele><time>2026-05-02T09:07:15.729Z</time></trkpt><trkpt lat="42.9247086" lon="12.1361783"><ele>630.0</ele><time>2026-05-02T09:07:16.729Z</time></trkpt><trkpt lat="42.9247785" lon="12.1361"><ele>630.3333333333334</ele><time>2026-05-02T09:07:17.729Z</time></trkpt><trkpt lat="42.924837" lon="12.1360163"><ele>630.6666666666667</ele><time>2026-05-02T09:07:18.729Z</time></trkpt><trkpt lat="42.924897" lon="12.135935"><ele>631.0</ele><time>2026-05-02T09:07:19.729Z</time></trkpt><trkpt lat="42.9249653" lon="12.1358594"><ele>631.0</ele><time>2026-05-02T09:07:20.729Z</time></trkpt><trkpt lat="42.9250317" lon="12.1357899"><ele>631.0</ele><time>2026-05-02T09:07:21.729Z</time></trkpt><trkpt lat="42.9251019" lon="12.1357306"><ele>631.0</ele><time>2026-05-02T09:07:22.729Z</time></trkpt><trkpt lat="42.9251628" lon="12.1356485"><ele>631.0</ele><time>2026-05-02T09:07:23.729Z</time></trkpt><trkpt lat="42.9252168" lon="12.1355844"><ele>631.0</ele><time>2026-05-02T09:07:24.729Z</time></trkpt><trkpt lat="42.9252765" lon="12.1355237"><ele>631.0</ele><time>2026-05-02T09:07:25.729Z</time></trkpt><trkpt lat="42.9253794" lon="12.13543"><ele>629.0</ele><time>2026-05-02T09:07:27.729Z</time></trkpt><trkpt lat="42.9254708" lon="12.135327"><ele>627.0</ele><time>2026-05-02T09:07:29.729Z</time></trkpt><trkpt lat="42.9255733" lon="12.1352442"><ele>625.0</ele><time>2026-05-02T09:07:31.729Z</time></trkpt><trkpt lat="42.9256391" lon="12.1351896"><ele>623.0</ele><time>2026-05-02T09:07:32.729Z</time></trkpt><trkpt lat="42.9257021" lon="12.1351354"><ele>621.0</ele><time>2026-05-02T09:07:33.729Z</time></trkpt><trkpt lat="42.9257839" lon="12.135089"><ele>621.0</ele><time>2026-05-02T09:07:34.729Z</time></trkpt><trkpt lat="42.9258612" lon="12.1350344"><ele>621.0</ele><time>2026-05-02T09:07:35.729Z</time></trkpt><trkpt lat="42.9259384" lon="12.1349802"><ele>621.0</ele><time>2026-05-02T09:07:36.729Z</time></trkpt><trkpt lat="42.9260169" lon="12.1349211"><ele>621.0</ele><time>2026-05-02T09:07:37.729Z</time></trkpt><trkpt lat="42.926095" lon="12.1348716"><ele>621.0</ele><time>2026-05-02T09:07:38.729Z</time></trkpt><trkpt lat="42.9261708" lon="12.1348122"><ele>621.0</ele><time>2026-05-02T09:07:39.729Z</time></trkpt><trkpt lat="42.9262427" lon="12.1347605"><ele>621.5</ele><time>2026-05-02T09:07:40.729Z</time></trkpt><trkpt lat="42.9263167" lon="12.1347046"><ele>622.0</ele><time>2026-05-02T09:07:41.729Z</time></trkpt><trkpt lat="42.9263887" lon="12.1346378"><ele>622.5</ele><time>2026-05-02T09:07:42.729Z</time></trkpt><trkpt lat="42.9264583" lon="12.1345841"><ele>623.0</ele><time>2026-05-02T09:07:43.729Z</time></trkpt><trkpt lat="42.9265379" lon="12.1345385"><ele>623.5</ele><time>2026-05-02T09:07:44.729Z</time></trkpt><trkpt lat="42.9266291" lon="12.1345011"><ele>624.0</ele><time>2026-05-02T09:07:45.729Z</time></trkpt><trkpt lat="42.9267291" lon="12.1344749"><ele>624.0</ele><time>2026-05-02T09:07:46.729Z</time></trkpt><trkpt lat="42.9268349" lon="12.134464"><ele>624.0</ele><time>2026-05-02T09:07:47.729Z</time></trkpt><trkpt lat="42.926934" lon="12.1344558"><ele>624.0</ele><time>2026-05-02T09:07:48.729Z</time></trkpt><trkpt lat="42.9270251" lon="12.1344407"><ele>624.0</ele><time>2026-05-02T09:07:49.729Z</time></trkpt><trkpt lat="42.9271174" lon="12.1344261"><ele>624.0</ele><time>2026-05-02T09:07:50.729Z</time></trkpt><trkpt lat="42.9272041" lon="12.1344242"><ele>624.0</ele><time>2026-05-02T09:07:51.729Z</time></trkpt><trkpt lat="42.9272757" lon="12.134427"><ele>624.0</ele><time>2026-05-02T09:07:52.729Z</time></trkpt><trkpt lat="42.9273361" lon="12.1343998"><ele>624.0</ele><time>2026-05-02T09:07:53.729Z</time></trkpt><trkpt lat="42.9274079" lon="12.134333"><ele>624.0</ele><time>2026-05-02T09:07:54.729Z</time></trkpt><trkpt lat="42.9274919" lon="12.1342593"><ele>624.0</ele><time>2026-05-02T09:07:55.729Z</time></trkpt><trkpt lat="42.9275786" lon="12.1341833"><ele>624.0</ele><time>2026-05-02T09:07:56.729Z</time></trkpt><trkpt lat="42.9276595" lon="12.1340981"><ele>625.5</ele><time>2026-05-02T09:07:57.729Z</time></trkpt><trkpt lat="42.9277244" lon="12.1340027"><ele>627.0</ele><time>2026-05-02T09:07:58.729Z</time></trkpt><trkpt lat="42.9277821" lon="12.1339079"><ele>628.5</ele><time>2026-05-02T09:07:59.729Z</time></trkpt><trkpt lat="42.92782" lon="12.1338282"><ele>630.0</ele><time>2026-05-02T09:08:00.729Z</time></trkpt><trkpt lat="42.927903" lon="12.1337247"><ele>631.5</ele><time>2026-05-02T09:08:02.729Z</time></trkpt><trkpt lat="42.9279776" lon="12.1337152"><ele>633.0</ele><time>2026-05-02T09:08:03.729Z</time></trkpt><trkpt lat="42.9280543" lon="12.1337368"><ele>633.0</ele><time>2026-05-02T09:08:04.729Z</time></trkpt><trkpt lat="42.9281331" lon="12.1337443"><ele>633.0</ele><time>2026-05-02T09:08:05.729Z</time></trkpt><trkpt lat="42.9282266" lon="12.1337408"><ele>633.0</ele><time>2026-05-02T09:08:06.729Z</time></trkpt><trkpt lat="42.9283173" lon="12.1337246"><ele>633.0</ele><time>2026-05-02T09:08:07.729Z</time></trkpt><trkpt lat="42.9283994" lon="12.1337191"><ele>633.0</ele><time>2026-05-02T09:08:08.729Z</time></trkpt><trkpt lat="42.9284699" lon="12.13371"><ele>633.0</ele><time>2026-05-02T09:08:09.728Z</time></trkpt><trkpt lat="42.9285367" lon="12.1337025"><ele>633.5</ele><time>2026-05-02T09:08:10.729Z</time></trkpt><trkpt lat="42.9286385" lon="12.133676"><ele>634.0</ele><time>2026-05-02T09:08:12.729Z</time></trkpt><trkpt lat="42.9287189" lon="12.1336472"><ele>634.5</ele><time>2026-05-02T09:08:14.729Z</time></trkpt><trkpt lat="42.9288035" lon="12.1336116"><ele>635.0</ele><time>2026-05-02T09:08:16.729Z</time></trkpt><trkpt lat="42.9288642" lon="12.1335462"><ele>635.5</ele><time>2026-05-02T09:08:19.729Z</time></trkpt><trkpt lat="42.9289197" lon="12.1335038"><ele>636.0</ele><time>2026-05-02T09:08:23.729Z</time></trkpt><trkpt lat="42.9288381" lon="12.1335834"><ele>636.0</ele><time>2026-05-02T09:08:37.729Z</time></trkpt><trkpt lat="42.9287772" lon="12.1336205"><ele>636.0</ele><time>2026-05-02T09:08:38.729Z</time></trkpt><trkpt lat="42.9287098" lon="12.1336513"><ele>636.0</ele><time>2026-05-02T09:08:39.729Z</time></trkpt><trkpt lat="42.9286418" lon="12.1336714"><ele>636.0</ele><time>2026-05-02T09:08:40.729Z</time></trkpt><trkpt lat="42.9285741" lon="12.1336891"><ele>636.0</ele><time>2026-05-02T09:08:41.729Z</time></trkpt><trkpt lat="42.9285088" lon="12.1336957"><ele>636.0</ele><time>2026-05-02T09:08:42.729Z</time></trkpt><trkpt lat="42.9283975" lon="12.1337018"><ele>636.0</ele><time>2026-05-02T09:08:44.729Z</time></trkpt><trkpt lat="42.9283229" lon="12.1337018"><ele>636.0</ele><time>2026-05-02T09:08:46.729Z</time></trkpt><trkpt lat="42.9282924" lon="12.1337873"><ele>636.0</ele><time>2026-05-02T09:08:49.729Z</time></trkpt><trkpt lat="42.9283795" lon="12.1338417"><ele>636.0</ele><time>2026-05-02T09:08:51.729Z</time></trkpt><trkpt lat="42.9284396" lon="12.1338676"><ele>636.0</ele><time>2026-05-02T09:08:52.729Z</time></trkpt><trkpt lat="42.9285175" lon="12.1339133"><ele>636.0</ele><time>2026-05-02T09:08:54.729Z</time></trkpt><trkpt lat="42.9285912" lon="12.1339368"><ele>636.0</ele><time>2026-05-02T09:09:35.729Z</time></trkpt><trkpt lat="42.9285325" lon="12.1338722"><ele>636.0</ele><time>2026-05-02T09:09:40.729Z</time></trkpt><trkpt lat="42.9284614" lon="12.1338521"><ele>636.0</ele><time>2026-05-02T09:09:43.729Z</time></trkpt><trkpt lat="42.9283725" lon="12.1338214"><ele>636.0</ele><time>2026-05-02T09:09:45.729Z</time></trkpt><trkpt lat="42.9283009" lon="12.1337878"><ele>636.0</ele><time>2026-05-02T09:09:47.729Z</time></trkpt><trkpt lat="42.9282773" lon="12.1337051"><ele>636.0</ele><time>2026-05-02T09:10:07.729Z</time></trkpt><trkpt lat="42.9282831" lon="12.1335831"><ele>635.4</ele><time>2026-05-02T09:10:09.729Z</time></trkpt><trkpt lat="42.9282764" lon="12.1334718"><ele>634.8</ele><time>2026-05-02T09:10:11.729Z</time></trkpt><trkpt lat="42.9282701" lon="12.1333432"><ele>634.1999999999999</ele><time>2026-05-02T09:10:13.729Z</time></trkpt><trkpt lat="42.9283019" lon="12.1332368"><ele>633.6</ele><time>2026-05-02T09:10:15.729Z</time></trkpt><trkpt lat="42.9283793" lon="12.1331821"><ele>633.0</ele><time>2026-05-02T09:10:17.729Z</time></trkpt><trkpt lat="42.9284983" lon="12.1331346"><ele>633.0</ele><time>2026-05-02T09:10:19.728Z</time></trkpt><trkpt lat="42.928566" lon="12.1331221"><ele>633.0</ele><time>2026-05-02T09:10:20.728Z</time></trkpt><trkpt lat="42.9286521" lon="12.1331267"><ele>633.0</ele><time>2026-05-02T09:10:21.729Z</time></trkpt><trkpt lat="42.9287264" lon="12.1331447"><ele>633.0</ele><time>2026-05-02T09:10:22.729Z</time></trkpt><trkpt lat="42.9288373" lon="12.1331588"><ele>633.0</ele><time>2026-05-02T09:10:24.729Z</time></trkpt><trkpt lat="42.9289417" lon="12.1331345"><ele>633.0</ele><time>2026-05-02T09:10:26.729Z</time></trkpt><trkpt lat="42.9290416" lon="12.1330826"><ele>633.0</ele><time>2026-05-02T09:10:28.729Z</time></trkpt><trkpt lat="42.9291421" lon="12.1330004"><ele>633.0</ele><time>2026-05-02T09:10:30.729Z</time></trkpt><trkpt lat="42.9291941" lon="12.1329496"><ele>633.0</ele><time>2026-05-02T09:10:31.729Z</time></trkpt><trkpt lat="42.9293087" lon="12.1328613"><ele>633.0</ele><time>2026-05-02T09:10:33.729Z</time></trkpt><trkpt lat="42.9293766" lon="12.1328182"><ele>633.0</ele><time>2026-05-02T09:10:34.729Z</time></trkpt><trkpt lat="42.9294372" lon="12.132785"><ele>634.6666666666666</ele><time>2026-05-02T09:10:35.729Z</time></trkpt><trkpt lat="42.929496" lon="12.1327501"><ele>636.3333333333334</ele><time>2026-05-02T09:10:36.729Z</time></trkpt><trkpt lat="42.9295765" lon="12.1326923"><ele>638.0</ele><time>2026-05-02T09:10:37.729Z</time></trkpt><trkpt lat="42.9296503" lon="12.1326398"><ele>639.6666666666667</ele><time>2026-05-02T09:10:38.729Z</time></trkpt><trkpt lat="42.9297201" lon="12.1325787"><ele>641.3333333333334</ele><time>2026-05-02T09:10:39.729Z</time></trkpt><trkpt lat="42.9297777" lon="12.1325269"><ele>643.0</ele><time>2026-05-02T09:10:40.729Z</time></trkpt><trkpt lat="42.9299056" lon="12.1325023"><ele>643.0</ele><time>2026-05-02T09:10:42.729Z</time></trkpt><trkpt lat="42.9299801" lon="12.1325085"><ele>643.0</ele><time>2026-05-02T09:10:43.729Z</time></trkpt><trkpt lat="42.9300544" lon="12.1324986"><ele>643.0</ele><time>2026-05-02T09:10:44.729Z</time></trkpt><trkpt lat="42.9301379" lon="12.1324713"><ele>643.0</ele><time>2026-05-02T09:10:45.729Z</time></trkpt><trkpt lat="42.9302183" lon="12.132438"><ele>643.0</ele><time>2026-05-02T09:10:46.729Z</time></trkpt><trkpt lat="42.930292" lon="12.1324075"><ele>643.0</ele><time>2026-05-02T09:10:47.729Z</time></trkpt><trkpt lat="42.930377" lon="12.1323597"><ele>643.4</ele><time>2026-05-02T09:10:48.729Z</time></trkpt><trkpt lat="42.9304531" lon="12.1323217"><ele>643.8</ele><time>2026-05-02T09:10:49.729Z</time></trkpt><trkpt lat="42.9305355" lon="12.1322847"><ele>644.2</ele><time>2026-05-02T09:10:50.729Z</time></trkpt><trkpt lat="42.9306161" lon="12.1322436"><ele>644.6</ele><time>2026-05-02T09:10:51.729Z</time></trkpt><trkpt lat="42.9306887" lon="12.1321983"><ele>645.0</ele><time>2026-05-02T09:10:52.729Z</time></trkpt><trkpt lat="42.9307776" lon="12.1320801"><ele>645.0</ele><time>2026-05-02T09:10:54.729Z</time></trkpt><trkpt lat="42.9308559" lon="12.1319776"><ele>645.0</ele><time>2026-05-02T09:10:56.729Z</time></trkpt><trkpt lat="42.9309215" lon="12.1318788"><ele>645.0</ele><time>2026-05-02T09:10:58.729Z</time></trkpt><trkpt lat="42.9310115" lon="12.1317634"><ele>645.0</ele><time>2026-05-02T09:11:00.729Z</time></trkpt><trkpt lat="42.9310619" lon="12.1317103"><ele>645.0</ele><time>2026-05-02T09:11:01.729Z</time></trkpt><trkpt lat="42.9311528" lon="12.1316347"><ele>644.8</ele><time>2026-05-02T09:11:03.729Z</time></trkpt><trkpt lat="42.9312603" lon="12.1315801"><ele>644.6</ele><time>2026-05-02T09:11:05.729Z</time></trkpt><trkpt lat="42.9313303" lon="12.13156"><ele>644.4000000000001</ele><time>2026-05-02T09:11:06.729Z</time></trkpt><trkpt lat="42.9314465" lon="12.1314984"><ele>644.2</ele><time>2026-05-02T09:11:08.729Z</time></trkpt><trkpt lat="42.9315289" lon="12.131444"><ele>644.0</ele><time>2026-05-02T09:11:10.729Z</time></trkpt><trkpt lat="42.93163" lon="12.1313725"><ele>646.4000000000001</ele><time>2026-05-02T09:11:12.729Z</time></trkpt><trkpt lat="42.9317321" lon="12.1312736"><ele>648.8</ele><time>2026-05-02T09:11:14.729Z</time></trkpt><trkpt lat="42.9317898" lon="12.1312296"><ele>651.2</ele><time>2026-05-02T09:11:15.729Z</time></trkpt><trkpt lat="42.9318457" lon="12.1311635"><ele>653.5999999999999</ele><time>2026-05-02T09:11:16.729Z</time></trkpt><trkpt lat="42.9319029" lon="12.1311244"><ele>656.0</ele><time>2026-05-02T09:11:17.729Z</time></trkpt><trkpt lat="42.9320105" lon="12.1310222"><ele>656.0</ele><time>2026-05-02T09:11:19.729Z</time></trkpt><trkpt lat="42.9320682" lon="12.1309591"><ele>656.0</ele><time>2026-05-02T09:11:20.729Z</time></trkpt><trkpt lat="42.9321217" lon="12.1309027"><ele>656.0</ele><time>2026-05-02T09:11:21.729Z</time></trkpt><trkpt lat="42.9322087" lon="12.1308071"><ele>656.0</ele><time>2026-05-02T09:11:23.729Z</time></trkpt><trkpt lat="42.932268" lon="12.130761"><ele>656.0</ele><time>2026-05-02T09:11:24.729Z</time></trkpt><trkpt lat="42.9323204" lon="12.1306909"><ele>656.0</ele><time>2026-05-02T09:11:25.728Z</time></trkpt><trkpt lat="42.9323571" lon="12.1306128"><ele>656.5</ele><time>2026-05-02T09:11:26.729Z</time></trkpt><trkpt lat="42.932374" lon="12.1305144"><ele>657.0</ele><time>2026-05-02T09:11:27.729Z</time></trkpt><trkpt lat="42.9324019" lon="12.1304224"><ele>657.5</ele><time>2026-05-02T09:11:28.729Z</time></trkpt><trkpt lat="42.9324141" lon="12.1303303"><ele>658.0</ele><time>2026-05-02T09:11:29.729Z</time></trkpt><trkpt lat="42.9324427" lon="12.1302475"><ele>658.5</ele><time>2026-05-02T09:11:30.729Z</time></trkpt><trkpt lat="42.9324768" lon="12.1301702"><ele>659.0</ele><time>2026-05-02T09:11:31.729Z</time></trkpt><trkpt lat="42.9325489" lon="12.1300511"><ele>662.4000000000001</ele><time>2026-05-02T09:11:33.729Z</time></trkpt><trkpt lat="42.9326401" lon="12.1299809"><ele>665.8</ele><time>2026-05-02T09:11:35.729Z</time></trkpt><trkpt lat="42.9327559" lon="12.12995"><ele>669.2</ele><time>2026-05-02T09:11:37.729Z</time></trkpt><trkpt lat="42.932863" lon="12.1299182"><ele>672.5999999999999</ele><time>2026-05-02T09:11:39.729Z</time></trkpt><trkpt lat="42.9329491" lon="12.1299"><ele>676.0</ele><time>2026-05-02T09:11:41.729Z</time></trkpt><trkpt lat="42.9330152" lon="12.1299418"><ele>676.0</ele><time>2026-05-02T09:11:43.729Z</time></trkpt><trkpt lat="42.9331166" lon="12.129995"><ele>676.0</ele><time>2026-05-02T09:11:45.729Z</time></trkpt><trkpt lat="42.9331766" lon="12.1300441"><ele>676.0</ele><time>2026-05-02T09:11:47.729Z</time></trkpt><trkpt lat="42.9332703" lon="12.1300644"><ele>676.0</ele><time>2026-05-02T09:18:16.729Z</time></trkpt><trkpt lat="42.9333437" lon="12.1300449"><ele>676.0</ele><time>2026-05-02T09:18:18.729Z</time></trkpt><trkpt lat="42.9333668" lon="12.1299621"><ele>676.0</ele><time>2026-05-02T09:18:20.729Z</time></trkpt><trkpt lat="42.9333737" lon="12.1298478"><ele>677.0</ele><time>2026-05-02T09:18:22.729Z</time></trkpt><trkpt lat="42.9333957" lon="12.1297019"><ele>678.0</ele><time>2026-05-02T09:18:24.729Z</time></trkpt><trkpt lat="42.9333968" lon="12.1295472"><ele>679.0</ele><time>2026-05-02T09:18:26.729Z</time></trkpt><trkpt lat="42.9333845" lon="12.1294198"><ele>680.0</ele><time>2026-05-02T09:18:28.729Z</time></trkpt><trkpt lat="42.9333959" lon="12.1292954"><ele>681.0</ele><time>2026-05-02T09:18:30.729Z</time></trkpt><trkpt lat="42.9334007" lon="12.1291507"><ele>684.5</ele><time>2026-05-02T09:18:32.729Z</time></trkpt><trkpt lat="42.9334161" lon="12.1290207"><ele>688.0</ele><time>2026-05-02T09:18:34.729Z</time></trkpt><trkpt lat="42.9334623" lon="12.1289181"><ele>691.5</ele><time>2026-05-02T09:18:36.729Z</time></trkpt><trkpt lat="42.9335322" lon="12.1288545"><ele>695.0</ele><time>2026-05-02T09:18:40.729Z</time></trkpt><trkpt lat="42.9335469" lon="12.1287472"><ele>698.5</ele><time>2026-05-02T09:18:43.729Z</time></trkpt><trkpt lat="42.9335762" lon="12.1286537"><ele>702.0</ele><time>2026-05-02T09:18:46.729Z</time></trkpt><trkpt lat="42.9336158" lon="12.1285786"><ele>702.0000000000001</ele><time>2026-05-02T09:18:48.729Z</time></trkpt><trkpt lat="42.9336463" lon="12.128496"><ele>702.0</ele><time>2026-05-02T09:18:50.728Z</time></trkpt><trkpt lat="42.9336862" lon="12.1284288"><ele>702.0</ele><time>2026-05-02T09:18:52.729Z</time></trkpt><trkpt lat="42.9337567" lon="12.1283912"><ele>702.0</ele><time>2026-05-02T09:18:54.729Z</time></trkpt><trkpt lat="42.9338205" lon="12.1283218"><ele>702.0</ele><time>2026-05-02T09:18:56.729Z</time></trkpt><trkpt lat="42.933865" lon="12.1282527"><ele>702.0000000000001</ele><time>2026-05-02T09:18:58.729Z</time></trkpt><trkpt lat="42.9339186" lon="12.1281802"><ele>702.0</ele><time>2026-05-02T09:20:17.729Z</time></trkpt><trkpt lat="42.9340093" lon="12.1280911"><ele>702.4000000000001</ele><time>2026-05-02T09:20:19.729Z</time></trkpt><trkpt lat="42.9340679" lon="12.1280515"><ele>702.8000000000001</ele><time>2026-05-02T09:20:20.729Z</time></trkpt><trkpt lat="42.9341256" lon="12.1280048"><ele>703.2</ele><time>2026-05-02T09:20:21.729Z</time></trkpt><trkpt lat="42.9341985" lon="12.1278814"><ele>703.6</ele><time>2026-05-02T09:20:23.729Z</time></trkpt><trkpt lat="42.9342722" lon="12.1277411"><ele>704.0</ele><time>2026-05-02T09:20:25.729Z</time></trkpt><trkpt lat="42.9343524" lon="12.127629"><ele>705.4000000000001</ele><time>2026-05-02T09:20:27.729Z</time></trkpt><trkpt lat="42.9344598" lon="12.1275648"><ele>706.8</ele><time>2026-05-02T09:20:29.729Z</time></trkpt><trkpt lat="42.9345814" lon="12.1275132"><ele>708.2</ele><time>2026-05-02T09:20:31.729Z</time></trkpt><trkpt lat="42.934665" lon="12.1274638"><ele>709.5999999999999</ele><time>2026-05-02T09:20:33.729Z</time></trkpt><trkpt lat="42.934728" lon="12.1273771"><ele>711.0</ele><time>2026-05-02T09:20:35.729Z</time></trkpt><trkpt lat="42.93473" lon="12.1272362"><ele>713.1999999999999</ele><time>2026-05-02T09:20:37.729Z</time></trkpt><trkpt lat="42.9347101" lon="12.1270743"><ele>715.4</ele><time>2026-05-02T09:20:39.729Z</time></trkpt><trkpt lat="42.9346902" lon="12.1269307"><ele>717.6</ele><time>2026-05-02T09:20:41.729Z</time></trkpt><trkpt lat="42.9346257" lon="12.1268309"><ele>719.8</ele><time>2026-05-02T09:20:43.729Z</time></trkpt><trkpt lat="42.9345842" lon="12.1267444"><ele>722.0</ele><time>2026-05-02T09:20:45.729Z</time></trkpt><trkpt lat="42.9345999" lon="12.1266341"><ele>724.3333333333333</ele><time>2026-05-02T09:20:47.729Z</time></trkpt><trkpt lat="42.9346325" lon="12.1265127"><ele>726.6666666666666</ele><time>2026-05-02T09:20:49.729Z</time></trkpt><trkpt lat="42.93464" lon="12.1263814"><ele>729.0</ele><time>2026-05-02T09:20:51.729Z</time></trkpt><trkpt lat="42.9346316" lon="12.126263"><ele>731.3333333333334</ele><time>2026-05-02T09:20:53.729Z</time></trkpt><trkpt lat="42.9346109" lon="12.1261459"><ele>733.6666666666667</ele><time>2026-05-02T09:20:55.729Z</time></trkpt><trkpt lat="42.9346101" lon="12.1260361"><ele>736.0</ele><time>2026-05-02T09:20:57.729Z</time></trkpt><trkpt lat="42.934642" lon="12.1259328"><ele>736.0</ele><time>2026-05-02T09:20:59.729Z</time></trkpt><trkpt lat="42.934691" lon="12.1258322"><ele>736.0</ele><time>2026-05-02T09:21:01.729Z</time></trkpt><trkpt lat="42.9347598" lon="12.1257235"><ele>736.0</ele><time>2026-05-02T09:21:03.729Z</time></trkpt><trkpt lat="42.934845" lon="12.12562"><ele>736.0</ele><time>2026-05-02T09:21:05.729Z</time></trkpt><trkpt lat="42.9349127" lon="12.1255373"><ele>736.0</ele><time>2026-05-02T09:21:07.729Z</time></trkpt><trkpt lat="42.9349584" lon="12.1254283"><ele>737.0</ele><time>2026-05-02T09:21:09.728Z</time></trkpt><trkpt lat="42.9349709" lon="12.1253034"><ele>738.0</ele><time>2026-05-02T09:21:11.729Z</time></trkpt><trkpt lat="42.9350229" lon="12.1252202"><ele>739.0</ele><time>2026-05-02T09:21:13.729Z</time></trkpt><trkpt lat="42.935114" lon="12.1252125"><ele>740.0</ele><time>2026-05-02T09:21:15.729Z</time></trkpt><trkpt lat="42.9352048" lon="12.1251792"><ele>741.0</ele><time>2026-05-02T09:21:17.729Z</time></trkpt><trkpt lat="42.9352907" lon="12.1251499"><ele>742.0</ele><time>2026-05-02T09:21:19.729Z</time></trkpt><trkpt lat="42.935374" lon="12.1250891"><ele>742.0</ele><time>2026-05-02T09:21:21.729Z</time></trkpt><trkpt lat="42.9354567" lon="12.1250003"><ele>742.0</ele><time>2026-05-02T09:21:23.729Z</time></trkpt><trkpt lat="42.9355269" lon="12.1249354"><ele>742.0</ele><time>2026-05-02T09:21:25.729Z</time></trkpt><trkpt lat="42.9355834" lon="12.1248955"><ele>742.0</ele><time>2026-05-02T09:21:28.729Z</time></trkpt><trkpt lat="42.935625" lon="12.1248156"><ele>742.0</ele><time>2026-05-02T09:22:01.729Z</time></trkpt><trkpt lat="42.9357156" lon="12.1247236"><ele>742.0</ele><time>2026-05-02T09:22:03.729Z</time></trkpt><trkpt lat="42.9358263" lon="12.1246838"><ele>743.75</ele><time>2026-05-02T09:22:05.729Z</time></trkpt><trkpt lat="42.935935" lon="12.1246339"><ele>745.5</ele><time>2026-05-02T09:22:07.729Z</time></trkpt><trkpt lat="42.9360427" lon="12.1245677"><ele>747.25</ele><time>2026-05-02T09:22:09.729Z</time></trkpt><trkpt lat="42.9361419" lon="12.1245006"><ele>749.0</ele><time>2026-05-02T09:22:11.729Z</time></trkpt><trkpt lat="42.9362503" lon="12.1244754"><ele>749.0</ele><time>2026-05-02T09:22:13.729Z</time></trkpt><trkpt lat="42.9363616" lon="12.1244437"><ele>749.0</ele><time>2026-05-02T09:22:15.729Z</time></trkpt><trkpt lat="42.9364738" lon="12.1243704"><ele>749.0</ele><time>2026-05-02T09:22:17.729Z</time></trkpt><trkpt lat="42.9365405" lon="12.1243316"><ele>749.0</ele><time>2026-05-02T09:22:18.729Z</time></trkpt><trkpt lat="42.9366492" lon="12.1242511"><ele>749.0</ele><time>2026-05-02T09:22:20.729Z</time></trkpt><trkpt lat="42.9367289" lon="12.1241864"><ele>748.8000000000001</ele><time>2026-05-02T09:22:22.729Z</time></trkpt><trkpt lat="42.9368152" lon="12.1241123"><ele>748.6</ele><time>2026-05-02T09:22:24.729Z</time></trkpt><trkpt lat="42.9368879" lon="12.1240107"><ele>748.4</ele><time>2026-05-02T09:22:26.729Z</time></trkpt><trkpt lat="42.9369491" lon="12.1239288"><ele>748.2</ele><time>2026-05-02T09:22:29.729Z</time></trkpt><trkpt lat="42.9370119" lon="12.1238648"><ele>748.0</ele><time>2026-05-02T09:22:31.729Z</time></trkpt><trkpt lat="42.9370894" lon="12.1237822"><ele>748.4</ele><time>2026-05-02T09:22:33.729Z</time></trkpt><trkpt lat="42.9371599" lon="12.1236616"><ele>748.8</ele><time>2026-05-02T09:22:35.729Z</time></trkpt><trkpt lat="42.937225" lon="12.1235232"><ele>749.2</ele><time>2026-05-02T09:22:37.729Z</time></trkpt><trkpt lat="42.9372733" lon="12.123466"><ele>749.6</ele><time>2026-05-02T09:22:38.729Z</time></trkpt><trkpt lat="42.9373311" lon="12.1234144"><ele>750.0</ele><time>2026-05-02T09:22:39.729Z</time></trkpt><trkpt lat="42.9374512" lon="12.1233614"><ele>749.0</ele><time>2026-05-02T09:22:41.729Z</time></trkpt><trkpt lat="42.9375664" lon="12.1233345"><ele>748.0</ele><time>2026-05-02T09:22:43.729Z</time></trkpt><trkpt lat="42.9376567" lon="12.1232703"><ele>747.0</ele><time>2026-05-02T09:22:45.729Z</time></trkpt><trkpt lat="42.9377628" lon="12.1231997"><ele>746.0</ele><time>2026-05-02T09:22:47.729Z</time></trkpt><trkpt lat="42.9378795" lon="12.1231677"><ele>746.0</ele><time>2026-05-02T09:22:49.729Z</time></trkpt><trkpt lat="42.9379569" lon="12.1231541"><ele>746.0</ele><time>2026-05-02T09:22:50.729Z</time></trkpt><trkpt lat="42.9380335" lon="12.1231523"><ele>746.0</ele><time>2026-05-02T09:22:51.729Z</time></trkpt><trkpt lat="42.9381104" lon="12.1231622"><ele>746.0</ele><time>2026-05-02T09:22:52.729Z</time></trkpt><trkpt lat="42.9382184" lon="12.1231616"><ele>746.0</ele><time>2026-05-02T09:22:54.729Z</time></trkpt><trkpt lat="42.9383132" lon="12.1230777"><ele>747.8</ele><time>2026-05-02T09:22:56.729Z</time></trkpt><trkpt lat="42.9384082" lon="12.1230415"><ele>749.5999999999999</ele><time>2026-05-02T09:22:58.729Z</time></trkpt><trkpt lat="42.9384979" lon="12.1230447"><ele>751.4</ele><time>2026-05-02T09:23:00.729Z</time></trkpt><trkpt lat="42.9385642" lon="12.1230463"><ele>753.2</ele><time>2026-05-02T09:23:03.729Z</time></trkpt><trkpt lat="42.9386673" lon="12.1230099"><ele>755.0</ele><time>2026-05-02T09:23:06.729Z</time></trkpt><trkpt lat="42.9387515" lon="12.1229078"><ele>755.0</ele><time>2026-05-02T09:23:08.729Z</time></trkpt><trkpt lat="42.9388225" lon="12.1228227"><ele>755.0</ele><time>2026-05-02T09:23:10.729Z</time></trkpt><trkpt lat="42.9388807" lon="12.1227618"><ele>755.0</ele><time>2026-05-02T09:23:12.729Z</time></trkpt><trkpt lat="42.9389486" lon="12.122711"><ele>755.0</ele><time>2026-05-02T09:23:14.729Z</time></trkpt><trkpt lat="42.9390432" lon="12.1226649"><ele>755.0</ele><time>2026-05-02T09:23:16.729Z</time></trkpt><trkpt lat="42.9391518" lon="12.1226181"><ele>755.0</ele><time>2026-05-02T09:23:18.729Z</time></trkpt><trkpt lat="42.9392136" lon="12.1226016"><ele>755.0</ele><time>2026-05-02T09:23:19.729Z</time></trkpt><trkpt lat="42.9392816" lon="12.1225808"><ele>755.0</ele><time>2026-05-02T09:23:20.729Z</time></trkpt><trkpt lat="42.9394077" lon="12.1225323"><ele>755.0</ele><time>2026-05-02T09:23:22.729Z</time></trkpt><trkpt lat="42.9394804" lon="12.1225102"><ele>755.0</ele><time>2026-05-02T09:23:23.729Z</time></trkpt><trkpt lat="42.9395556" lon="12.1224928"><ele>755.0</ele><time>2026-05-02T09:23:24.729Z</time></trkpt><trkpt lat="42.9396287" lon="12.122476"><ele>755.8333333333333</ele><time>2026-05-02T09:23:25.729Z</time></trkpt><trkpt lat="42.9397003" lon="12.1224704"><ele>756.6666666666666</ele><time>2026-05-02T09:23:26.729Z</time></trkpt><trkpt lat="42.93978" lon="12.1224548"><ele>757.5</ele><time>2026-05-02T09:23:27.729Z</time></trkpt><trkpt lat="42.9398489" lon="12.1224331"><ele>758.3333333333334</ele><time>2026-05-02T09:23:28.729Z</time></trkpt><trkpt lat="42.9399777" lon="12.1223896"><ele>759.1666666666667</ele><time>2026-05-02T09:23:30.729Z</time></trkpt><trkpt lat="42.9400633" lon="12.1223735"><ele>760.0</ele><time>2026-05-02T09:23:31.729Z</time></trkpt><trkpt lat="42.9401436" lon="12.1223476"><ele>760.6666666666667</ele><time>2026-05-02T09:23:32.729Z</time></trkpt><trkpt lat="42.9402337" lon="12.1223503"><ele>761.3333333333334</ele><time>2026-05-02T09:23:33.729Z</time></trkpt><trkpt lat="42.9403164" lon="12.1223395"><ele>762.0</ele><time>2026-05-02T09:23:34.729Z</time></trkpt><trkpt lat="42.940409" lon="12.1223258"><ele>762.6666666666666</ele><time>2026-05-02T09:23:35.729Z</time></trkpt><trkpt lat="42.9404927" lon="12.1222973"><ele>763.3333333333333</ele><time>2026-05-02T09:23:36.729Z</time></trkpt><trkpt lat="42.9405633" lon="12.122285"><ele>764.0</ele><time>2026-05-02T09:23:37.729Z</time></trkpt><trkpt lat="42.9406441" lon="12.1222675"><ele>764.0</ele><time>2026-05-02T09:23:38.729Z</time></trkpt><trkpt lat="42.9407175" lon="12.1222609"><ele>764.0</ele><time>2026-05-02T09:23:39.729Z</time></trkpt><trkpt lat="42.9407908" lon="12.1222544"><ele>764.0</ele><time>2026-05-02T09:23:40.729Z</time></trkpt><trkpt lat="42.9408616" lon="12.1222494"><ele>764.0</ele><time>2026-05-02T09:23:41.729Z</time></trkpt><trkpt lat="42.940934" lon="12.1222544"><ele>764.0</ele><time>2026-05-02T09:23:42.729Z</time></trkpt><trkpt lat="42.9410088" lon="12.122263"><ele>764.0</ele><time>2026-05-02T09:23:43.729Z</time></trkpt><trkpt lat="42.9411155" lon="12.122206"><ele>765.1666666666666</ele><time>2026-05-02T09:23:45.729Z</time></trkpt><trkpt lat="42.9411806" lon="12.1220952"><ele>766.3333333333333</ele><time>2026-05-02T09:23:47.729Z</time></trkpt><trkpt lat="42.9412242" lon="12.1219279"><ele>767.5</ele><time>2026-05-02T09:23:49.729Z</time></trkpt><trkpt lat="42.9412453" lon="12.1218291"><ele>768.6666666666666</ele><time>2026-05-02T09:23:50.729Z</time></trkpt><trkpt lat="42.9412577" lon="12.1217312"><ele>769.8333333333334</ele><time>2026-05-02T09:23:51.729Z</time></trkpt><trkpt lat="42.941264" lon="12.1216411"><ele>771.0</ele><time>2026-05-02T09:23:52.729Z</time></trkpt><trkpt lat="42.9412712" lon="12.1215552"><ele>773.4</ele><time>2026-05-02T09:23:53.729Z</time></trkpt><trkpt lat="42.9413029" lon="12.1214085"><ele>775.8</ele><time>2026-05-02T09:23:55.728Z</time></trkpt><trkpt lat="42.9413459" lon="12.1212635"><ele>778.1999999999999</ele><time>2026-05-02T09:23:57.729Z</time></trkpt><trkpt lat="42.9413622" lon="12.1210932"><ele>780.5999999999999</ele><time>2026-05-02T09:23:59.729Z</time></trkpt><trkpt lat="42.9413686" lon="12.1209997"><ele>783.0</ele><time>2026-05-02T09:24:00.729Z</time></trkpt><trkpt lat="42.941386" lon="12.1209097"><ele>783.0</ele><time>2026-05-02T09:24:01.729Z</time></trkpt><trkpt lat="42.9414076" lon="12.1208262"><ele>783.0</ele><time>2026-05-02T09:24:02.729Z</time></trkpt><trkpt lat="42.9413952" lon="12.1206676"><ele>783.0</ele><time>2026-05-02T09:24:04.729Z</time></trkpt><trkpt lat="42.9413531" lon="12.1205377"><ele>783.0</ele><time>2026-05-02T09:24:06.729Z</time></trkpt><trkpt lat="42.9413298" lon="12.1204552"><ele>783.0</ele><time>2026-05-02T09:24:07.729Z</time></trkpt><trkpt lat="42.9413249" lon="12.1202935"><ele>785.3333333333334</ele><time>2026-05-02T09:24:09.728Z</time></trkpt><trkpt lat="42.9413326" lon="12.120199"><ele>787.6666666666667</ele><time>2026-05-02T09:24:10.729Z</time></trkpt><trkpt lat="42.9413506" lon="12.120105"><ele>790.0</ele><time>2026-05-02T09:24:11.729Z</time></trkpt><trkpt lat="42.9413674" lon="12.1200086"><ele>792.3333333333334</ele><time>2026-05-02T09:24:12.729Z</time></trkpt><trkpt lat="42.9413927" lon="12.1199275"><ele>794.6666666666667</ele><time>2026-05-02T09:24:13.728Z</time></trkpt><trkpt lat="42.941447" lon="12.1197963"><ele>797.0</ele><time>2026-05-02T09:24:15.729Z</time></trkpt><trkpt lat="42.941474" lon="12.11966"><ele>801.3333333333334</ele><time>2026-05-02T09:24:17.729Z</time></trkpt><trkpt lat="42.9414538" lon="12.1195762"><ele>805.6666666666667</ele><time>2026-05-02T09:24:18.729Z</time></trkpt><trkpt lat="42.9414126" lon="12.1194884"><ele>810.0</ele><time>2026-05-02T09:24:19.729Z</time></trkpt><trkpt lat="42.9413631" lon="12.1194124"><ele>814.3333333333333</ele><time>2026-05-02T09:24:20.729Z</time></trkpt><trkpt lat="42.9413127" lon="12.1193399"><ele>818.6666666666666</ele><time>2026-05-02T09:24:21.729Z</time></trkpt><trkpt lat="42.9412487" lon="12.1192516"><ele>823.0</ele><time>2026-05-02T09:24:23.729Z</time></trkpt><trkpt lat="42.9411841" lon="12.1191568"><ele>824.0</ele><time>2026-05-02T09:24:25.729Z</time></trkpt><trkpt lat="42.9411167" lon="12.1190424"><ele>825.0</ele><time>2026-05-02T09:24:27.729Z</time></trkpt><trkpt lat="42.9410712" lon="12.1189103"><ele>826.0</ele><time>2026-05-02T09:24:29.729Z</time></trkpt><trkpt lat="42.9409949" lon="12.1188304"><ele>827.0</ele><time>2026-05-02T09:24:31.729Z</time></trkpt><trkpt lat="42.940896" lon="12.1187372"><ele>828.0</ele><time>2026-05-02T09:24:33.729Z</time></trkpt><trkpt lat="42.9408408" lon="12.1186853"><ele>828.0000000000001</ele><time>2026-05-02T09:24:34.729Z</time></trkpt><trkpt lat="42.9407775" lon="12.1186468"><ele>828.0</ele><time>2026-05-02T09:24:35.729Z</time></trkpt><trkpt lat="42.9407131" lon="12.1186235"><ele>828.0</ele><time>2026-05-02T09:24:36.729Z</time></trkpt><trkpt lat="42.9406353" lon="12.1186008"><ele>828.0</ele><time>2026-05-02T09:24:37.729Z</time></trkpt><trkpt lat="42.9405642" lon="12.1185836"><ele>828.0</ele><time>2026-05-02T09:24:38.729Z</time></trkpt><trkpt lat="42.9404945" lon="12.1185458"><ele>828.0000000000001</ele><time>2026-05-02T09:24:39.729Z</time></trkpt><trkpt lat="42.9404392" lon="12.1184916"><ele>828.0</ele><time>2026-05-02T09:24:40.729Z</time></trkpt><trkpt lat="42.9403845" lon="12.1184481"><ele>828.0</ele><time>2026-05-02T09:24:41.729Z</time></trkpt><trkpt lat="42.9403085" lon="12.1183625"><ele>828.0</ele><time>2026-05-02T09:24:43.729Z</time></trkpt><trkpt lat="42.9402735" lon="12.1182311"><ele>828.0</ele><time>2026-05-02T09:24:45.729Z</time></trkpt><trkpt lat="42.9402727" lon="12.118089"><ele>828.0</ele><time>2026-05-02T09:24:47.729Z</time></trkpt><trkpt lat="42.9403069" lon="12.117976"><ele>828.0</ele><time>2026-05-02T09:24:49.729Z</time></trkpt><trkpt lat="42.9404011" lon="12.117918"><ele>829.0</ele><time>2026-05-02T09:24:51.729Z</time></trkpt><trkpt lat="42.9405042" lon="12.1177973"><ele>830.0</ele><time>2026-05-02T09:24:53.729Z</time></trkpt><trkpt lat="42.9405679" lon="12.1177248"><ele>831.0</ele><time>2026-05-02T09:24:54.729Z</time></trkpt><trkpt lat="42.9406364" lon="12.1176474"><ele>832.0</ele><time>2026-05-02T09:24:55.729Z</time></trkpt><trkpt lat="42.9407238" lon="12.1176112"><ele>833.0</ele><time>2026-05-02T09:24:56.729Z</time></trkpt><trkpt lat="42.9408192" lon="12.1175767"><ele>834.0000000000001</ele><time>2026-05-02T09:24:57.729Z</time></trkpt><trkpt lat="42.9409172" lon="12.1175452"><ele>835.0</ele><time>2026-05-02T09:24:58.729Z</time></trkpt><trkpt lat="42.941005" lon="12.1175217"><ele>836.0</ele><time>2026-05-02T09:24:59.729Z</time></trkpt><trkpt lat="42.9410906" lon="12.1174991"><ele>837.0</ele><time>2026-05-02T09:25:00.729Z</time></trkpt><trkpt lat="42.9411755" lon="12.1174791"><ele>838.0000000000001</ele><time>2026-05-02T09:25:01.729Z</time></trkpt><trkpt lat="42.9412486" lon="12.117469"><ele>839.0</ele><time>2026-05-02T09:25:02.729Z</time></trkpt><trkpt lat="42.9413288" lon="12.1174794"><ele>839.0</ele><time>2026-05-02T09:25:03.729Z</time></trkpt><trkpt lat="42.9413951" lon="12.1174881"><ele>839.0</ele><time>2026-05-02T09:25:04.729Z</time></trkpt><trkpt lat="42.9415032" lon="12.117535"><ele>839.0</ele><time>2026-05-02T09:25:06.729Z</time></trkpt><trkpt lat="42.9415994" lon="12.1175861"><ele>839.0</ele><time>2026-05-02T09:25:08.729Z</time></trkpt><trkpt lat="42.941708" lon="12.1176659"><ele>839.0</ele><time>2026-05-02T09:25:10.729Z</time></trkpt><trkpt lat="42.9418199" lon="12.1177606"><ele>839.8333333333334</ele><time>2026-05-02T09:25:12.729Z</time></trkpt><trkpt lat="42.9418792" lon="12.1178159"><ele>840.6666666666667</ele><time>2026-05-02T09:25:13.729Z</time></trkpt><trkpt lat="42.9419492" lon="12.1178827"><ele>841.5</ele><time>2026-05-02T09:25:14.729Z</time></trkpt><trkpt lat="42.9420118" lon="12.117933"><ele>842.3333333333333</ele><time>2026-05-02T09:25:15.729Z</time></trkpt><trkpt lat="42.9420872" lon="12.1179749"><ele>843.1666666666666</ele><time>2026-05-02T09:25:16.729Z</time></trkpt><trkpt lat="42.9421624" lon="12.1180036"><ele>844.0</ele><time>2026-05-02T09:25:17.729Z</time></trkpt><trkpt lat="42.9422365" lon="12.1180332"><ele>843.9999999999999</ele><time>2026-05-02T09:25:18.729Z</time></trkpt><trkpt lat="42.9423702" lon="12.1180242"><ele>844.0</ele><time>2026-05-02T09:25:20.729Z</time></trkpt><trkpt lat="42.9424405" lon="12.1180141"><ele>844.0</ele><time>2026-05-02T09:25:21.729Z</time></trkpt><trkpt lat="42.9425089" lon="12.1180045"><ele>844.0</ele><time>2026-05-02T09:25:22.729Z</time></trkpt><trkpt lat="42.9425765" lon="12.1180005"><ele>843.9999999999999</ele><time>2026-05-02T09:25:23.729Z</time></trkpt><trkpt lat="42.9426638" lon="12.1179709"><ele>844.0</ele><time>2026-05-02T09:25:25.729Z</time></trkpt><trkpt lat="42.9427233" lon="12.1178919"><ele>844.5714285714286</ele><time>2026-05-02T09:25:28.729Z</time></trkpt><trkpt lat="42.9427496" lon="12.1177985"><ele>845.1428571428571</ele><time>2026-05-02T09:25:32.729Z</time></trkpt><trkpt lat="42.9427893" lon="12.1177217"><ele>845.7142857142858</ele><time>2026-05-02T09:25:36.729Z</time></trkpt><trkpt lat="42.9428279" lon="12.1176155"><ele>846.2857142857142</ele><time>2026-05-02T09:25:39.729Z</time></trkpt><trkpt lat="42.9428533" lon="12.1175343"><ele>846.8571428571428</ele><time>2026-05-02T09:25:41.729Z</time></trkpt><trkpt lat="42.94288" lon="12.1174406"><ele>847.4285714285714</ele><time>2026-05-02T09:25:43.729Z</time></trkpt><trkpt lat="42.9429046" lon="12.1173394"><ele>848.0</ele><time>2026-05-02T09:25:45.729Z</time></trkpt><trkpt lat="42.9429323" lon="12.1172432"><ele>845.8</ele><time>2026-05-02T09:25:47.729Z</time></trkpt><trkpt lat="42.9429829" lon="12.1171452"><ele>843.5999999999999</ele><time>2026-05-02T09:25:49.729Z</time></trkpt><trkpt lat="42.9430654" lon="12.1170712"><ele>841.4000000000001</ele><time>2026-05-02T09:25:51.729Z</time></trkpt><trkpt lat="42.9431622" lon="12.1170155"><ele>839.2</ele><time>2026-05-02T09:25:53.729Z</time></trkpt><trkpt lat="42.9432613" lon="12.116957"><ele>837.0</ele><time>2026-05-02T09:25:55.729Z</time></trkpt><trkpt lat="42.9433501" lon="12.1169152"><ele>836.8</ele><time>2026-05-02T09:25:57.729Z</time></trkpt><trkpt lat="42.9434619" lon="12.1169384"><ele>836.6</ele><time>2026-05-02T09:25:59.729Z</time></trkpt><trkpt lat="42.9435779" lon="12.1168855"><ele>836.4</ele><time>2026-05-02T09:26:01.729Z</time></trkpt><trkpt lat="42.9436619" lon="12.1168305"><ele>836.1999999999999</ele><time>2026-05-02T09:26:03.729Z</time></trkpt><trkpt lat="42.9437484" lon="12.1167892"><ele>836.0</ele><time>2026-05-02T09:26:06.729Z</time></trkpt><trkpt lat="42.9438068" lon="12.1167405"><ele>836.0</ele><time>2026-05-02T09:26:08.729Z</time></trkpt><trkpt lat="42.9439145" lon="12.1167245"><ele>836.0</ele><time>2026-05-02T09:26:10.729Z</time></trkpt><trkpt lat="42.9440242" lon="12.1167198"><ele>836.0</ele><time>2026-05-02T09:26:12.729Z</time></trkpt><trkpt lat="42.9441249" lon="12.1167254"><ele>836.0</ele><time>2026-05-02T09:26:14.729Z</time></trkpt><trkpt lat="42.9442285" lon="12.1167536"><ele>836.0</ele><time>2026-05-02T09:26:16.729Z</time></trkpt><trkpt lat="42.9443346" lon="12.1167209"><ele>833.5999999999999</ele><time>2026-05-02T09:26:18.729Z</time></trkpt><trkpt lat="42.9443603" lon="12.1165705"><ele>831.2</ele><time>2026-05-02T09:26:20.729Z</time></trkpt><trkpt lat="42.9443566" lon="12.1163916"><ele>828.8</ele><time>2026-05-02T09:26:22.729Z</time></trkpt><trkpt lat="42.9443483" lon="12.1162954"><ele>826.4000000000001</ele><time>2026-05-02T09:26:23.729Z</time></trkpt><trkpt lat="42.9443354" lon="12.1161945"><ele>824.0</ele><time>2026-05-02T09:26:24.729Z</time></trkpt><trkpt lat="42.9443316" lon="12.1160118"><ele>822.7142857142857</ele><time>2026-05-02T09:26:26.729Z</time></trkpt><trkpt lat="42.9443444" lon="12.1159222"><ele>821.4285714285714</ele><time>2026-05-02T09:26:27.729Z</time></trkpt><trkpt lat="42.944363" lon="12.1158397"><ele>820.1428571428571</ele><time>2026-05-02T09:26:28.729Z</time></trkpt><trkpt lat="42.9443824" lon="12.1157371"><ele>818.8571428571429</ele><time>2026-05-02T09:26:29.729Z</time></trkpt><trkpt lat="42.9444174" lon="12.1156634"><ele>817.5714285714286</ele><time>2026-05-02T09:26:30.729Z</time></trkpt><trkpt lat="42.9444692" lon="12.1156"><ele>816.2857142857142</ele><time>2026-05-02T09:26:31.729Z</time></trkpt><trkpt lat="42.9445343" lon="12.1155622"><ele>815.0</ele><time>2026-05-02T09:26:32.729Z</time></trkpt><trkpt lat="42.9446055" lon="12.1155649"><ele>815.0</ele><time>2026-05-02T09:26:33.729Z</time></trkpt><trkpt lat="42.9446719" lon="12.1155918"><ele>815.0</ele><time>2026-05-02T09:26:34.729Z</time></trkpt><trkpt lat="42.9447369" lon="12.115639"><ele>815.0</ele><time>2026-05-02T09:26:35.729Z</time></trkpt><trkpt lat="42.9448218" lon="12.1156994"><ele>815.0</ele><time>2026-05-02T09:26:37.729Z</time></trkpt><trkpt lat="42.9449013" lon="12.1157895"><ele>815.0</ele><time>2026-05-02T09:26:39.729Z</time></trkpt><trkpt lat="42.9449758" lon="12.1159174"><ele>815.0</ele><time>2026-05-02T09:26:41.729Z</time></trkpt><trkpt lat="42.9450261" lon="12.116049"><ele>815.0</ele><time>2026-05-02T09:26:43.729Z</time></trkpt><trkpt lat="42.9450682" lon="12.1161997"><ele>815.0</ele><time>2026-05-02T09:26:45.729Z</time></trkpt><trkpt lat="42.9451082" lon="12.1163193"><ele>815.0</ele><time>2026-05-02T09:26:47.729Z</time></trkpt><trkpt lat="42.945148" lon="12.1164098"><ele>815.0</ele><time>2026-05-02T09:26:49.729Z</time></trkpt><trkpt lat="42.9451179" lon="12.116327"><ele>815.0</ele><time>2026-05-02T09:26:57.729Z</time></trkpt><trkpt lat="42.9450593" lon="12.1161803"><ele>815.0</ele><time>2026-05-02T09:26:59.729Z</time></trkpt><trkpt lat="42.9450226" lon="12.1161104"><ele>815.0</ele><time>2026-05-02T09:27:00.729Z</time></trkpt><trkpt lat="42.9449743" lon="12.1159383"><ele>815.0</ele><time>2026-05-02T09:27:02.729Z</time></trkpt><trkpt lat="42.9449262" lon="12.115818"><ele>815.0</ele><time>2026-05-02T09:27:04.729Z</time></trkpt><trkpt lat="42.9448725" lon="12.1157587"><ele>813.0000000000001</ele><time>2026-05-02T09:27:06.729Z</time></trkpt><trkpt lat="42.944813" lon="12.1156958"><ele>811.0</ele><time>2026-05-02T09:27:08.729Z</time></trkpt><trkpt lat="42.9447293" lon="12.115616"><ele>809.0</ele><time>2026-05-02T09:27:10.729Z</time></trkpt><trkpt lat="42.9446742" lon="12.1155642"><ele>807.0</ele><time>2026-05-02T09:27:12.729Z</time></trkpt><trkpt lat="42.9445889" lon="12.1155096"><ele>805.0000000000001</ele><time>2026-05-02T09:27:15.729Z</time></trkpt><trkpt lat="42.9445445" lon="12.1154389"><ele>803.0</ele><time>2026-05-02T09:27:18.729Z</time></trkpt><trkpt lat="42.9445395" lon="12.1153358"><ele>803.0</ele><time>2026-05-02T09:27:21.729Z</time></trkpt><trkpt lat="42.9445414" lon="12.1152118"><ele>803.0</ele><time>2026-05-02T09:27:24.729Z</time></trkpt><trkpt lat="42.9444998" lon="12.1150763"><ele>803.0</ele><time>2026-05-02T09:27:26.729Z</time></trkpt><trkpt lat="42.9444579" lon="12.1149875"><ele>803.0</ele><time>2026-05-02T09:27:28.729Z</time></trkpt><trkpt lat="42.9443676" lon="12.1149026"><ele>803.0</ele><time>2026-05-02T09:27:30.729Z</time></trkpt><trkpt lat="42.9442714" lon="12.1148279"><ele>803.3333333333334</ele><time>2026-05-02T09:27:32.729Z</time></trkpt><trkpt lat="42.9442125" lon="12.114794"><ele>803.6666666666667</ele><time>2026-05-02T09:27:33.729Z</time></trkpt><trkpt lat="42.9441569" lon="12.1147533"><ele>804.0</ele><time>2026-05-02T09:27:34.729Z</time></trkpt><trkpt lat="42.9440929" lon="12.1147094"><ele>804.3333333333333</ele><time>2026-05-02T09:27:35.729Z</time></trkpt><trkpt lat="42.9440298" lon="12.114668"><ele>804.6666666666666</ele><time>2026-05-02T09:27:36.729Z</time></trkpt><trkpt lat="42.9439348" lon="12.1145721"><ele>805.0</ele><time>2026-05-02T09:27:38.729Z</time></trkpt><trkpt lat="42.9438484" lon="12.1144562"><ele>805.0</ele><time>2026-05-02T09:27:40.729Z</time></trkpt><trkpt lat="42.9437983" lon="12.1143965"><ele>805.0</ele><time>2026-05-02T09:27:41.729Z</time></trkpt><trkpt lat="42.943733" lon="12.1143264"><ele>805.0</ele><time>2026-05-02T09:27:43.729Z</time></trkpt><trkpt lat="42.9436723" lon="12.1142736"><ele>805.0</ele><time>2026-05-02T09:27:46.729Z</time></trkpt><trkpt lat="42.9436147" lon="12.1142367"><ele>805.0</ele><time>2026-05-02T09:27:48.728Z</time></trkpt><trkpt lat="42.9435639" lon="12.114158"><ele>805.0</ele><time>2026-05-02T09:27:51.729Z</time></trkpt><trkpt lat="42.943544" lon="12.1140554"><ele>805.0</ele><time>2026-05-02T09:27:53.729Z</time></trkpt><trkpt lat="42.9435531" lon="12.1139607"><ele>802.3333333333333</ele><time>2026-05-02T09:27:55.729Z</time></trkpt><trkpt lat="42.9435967" lon="12.1138623"><ele>799.6666666666666</ele><time>2026-05-02T09:27:58.729Z</time></trkpt><trkpt lat="42.9436367" lon="12.1137866"><ele>797.0</ele><time>2026-05-02T09:28:00.729Z</time></trkpt><trkpt lat="42.943685" lon="12.1136989"><ele>794.3333333333333</ele><time>2026-05-02T09:28:02.729Z</time></trkpt><trkpt lat="42.9437468" lon="12.1136471"><ele>791.6666666666666</ele><time>2026-05-02T09:28:04.729Z</time></trkpt><trkpt lat="42.9438246" lon="12.1136038"><ele>789.0</ele><time>2026-05-02T09:28:06.729Z</time></trkpt><trkpt lat="42.943891" lon="12.1135741"><ele>789.0</ele><time>2026-05-02T09:28:08.729Z</time></trkpt><trkpt lat="42.9439745" lon="12.1135455"><ele>789.0</ele><time>2026-05-02T09:28:11.729Z</time></trkpt><trkpt lat="42.944049" lon="12.1135326"><ele>789.0</ele><time>2026-05-02T09:28:13.729Z</time></trkpt><trkpt lat="42.9441097" lon="12.113494"><ele>789.0</ele><time>2026-05-02T09:28:15.729Z</time></trkpt><trkpt lat="42.9441771" lon="12.113454"><ele>789.0</ele><time>2026-05-02T09:28:17.729Z</time></trkpt><trkpt lat="42.944269" lon="12.1134095"><ele>789.0</ele><time>2026-05-02T09:28:20.729Z</time></trkpt><trkpt lat="42.9443523" lon="12.113361"><ele>787.8333333333334</ele><time>2026-05-02T09:28:22.729Z</time></trkpt><trkpt lat="42.9444292" lon="12.1133265"><ele>786.6666666666667</ele><time>2026-05-02T09:28:24.729Z</time></trkpt><trkpt lat="42.9444801" lon="12.1132189"><ele>785.5</ele><time>2026-05-02T09:28:27.729Z</time></trkpt><trkpt lat="42.944524" lon="12.1131398"><ele>784.3333333333334</ele><time>2026-05-02T09:28:29.729Z</time></trkpt><trkpt lat="42.9445773" lon="12.1130318"><ele>783.1666666666667</ele><time>2026-05-02T09:28:31.729Z</time></trkpt><trkpt lat="42.9446202" lon="12.112928"><ele>782.0</ele><time>2026-05-02T09:28:33.729Z</time></trkpt><trkpt lat="42.9446564" lon="12.1128125"><ele>780.0000000000001</ele><time>2026-05-02T09:28:35.729Z</time></trkpt><trkpt lat="42.9447005" lon="12.1127148"><ele>778.0</ele><time>2026-05-02T09:28:37.729Z</time></trkpt><trkpt lat="42.9447312" lon="12.1126227"><ele>776.0</ele><time>2026-05-02T09:28:39.729Z</time></trkpt><trkpt lat="42.9447638" lon="12.1125392"><ele>774.0</ele><time>2026-05-02T09:28:41.729Z</time></trkpt><trkpt lat="42.944808" lon="12.1124261"><ele>772.0000000000001</ele><time>2026-05-02T09:28:44.729Z</time></trkpt><trkpt lat="42.9448494" lon="12.1123434"><ele>770.0</ele><time>2026-05-02T09:28:46.729Z</time></trkpt><trkpt lat="42.944894" lon="12.1122706"><ele>768.0000000000001</ele><time>2026-05-02T09:28:48.729Z</time></trkpt><trkpt lat="42.9449385" lon="12.1121923"><ele>766.0</ele><time>2026-05-02T09:28:50.729Z</time></trkpt><trkpt lat="42.9449889" lon="12.1121096"><ele>764.0</ele><time>2026-05-02T09:28:52.729Z</time></trkpt><trkpt lat="42.9450079" lon="12.1120172"><ele>762.0</ele><time>2026-05-02T09:28:54.729Z</time></trkpt><trkpt lat="42.9450234" lon="12.1119336"><ele>760.0</ele><time>2026-05-02T09:28:56.729Z</time></trkpt><trkpt lat="42.9450396" lon="12.1118386"><ele>758.0</ele><time>2026-05-02T09:28:58.729Z</time></trkpt><trkpt lat="42.9450414" lon="12.1117101"><ele>756.8333333333333</ele><time>2026-05-02T09:29:01.729Z</time></trkpt><trkpt lat="42.9450467" lon="12.1116134"><ele>755.6666666666666</ele><time>2026-05-02T09:29:04.729Z</time></trkpt><trkpt lat="42.9450198" lon="12.1115088"><ele>754.5</ele><time>2026-05-02T09:29:07.729Z</time></trkpt><trkpt lat="42.9449904" lon="12.1113961"><ele>753.3333333333334</ele><time>2026-05-02T09:29:10.729Z</time></trkpt><trkpt lat="42.944958" lon="12.1113035"><ele>752.1666666666667</ele><time>2026-05-02T09:29:13.729Z</time></trkpt><trkpt lat="42.9449203" lon="12.1112226"><ele>751.0</ele><time>2026-05-02T09:29:15.729Z</time></trkpt><trkpt lat="42.9448779" lon="12.1111309"><ele>750.7142857142858</ele><time>2026-05-02T09:29:17.729Z</time></trkpt><trkpt lat="42.9448401" lon="12.1110344"><ele>750.4285714285714</ele><time>2026-05-02T09:29:19.729Z</time></trkpt><trkpt lat="42.944819" lon="12.110945"><ele>750.1428571428571</ele><time>2026-05-02T09:29:21.728Z</time></trkpt><trkpt lat="42.9448149" lon="12.110835"><ele>749.8571428571429</ele><time>2026-05-02T09:29:24.729Z</time></trkpt><trkpt lat="42.9448255" lon="12.1107502"><ele>749.5714285714286</ele><time>2026-05-02T09:29:26.729Z</time></trkpt><trkpt lat="42.9448527" lon="12.110665"><ele>749.2857142857143</ele><time>2026-05-02T09:29:29.729Z</time></trkpt><trkpt lat="42.9448767" lon="12.1105775"><ele>749.0</ele><time>2026-05-02T09:29:47.728Z</time></trkpt><trkpt lat="42.9449384" lon="12.110482"><ele>746.8333333333333</ele><time>2026-05-02T09:29:51.729Z</time></trkpt><trkpt lat="42.9449789" lon="12.1104099"><ele>744.6666666666666</ele><time>2026-05-02T09:29:53.729Z</time></trkpt><trkpt lat="42.9450337" lon="12.1103537"><ele>742.5</ele><time>2026-05-02T09:29:55.729Z</time></trkpt><trkpt lat="42.9450893" lon="12.1102657"><ele>740.3333333333334</ele><time>2026-05-02T09:29:58.729Z</time></trkpt><trkpt lat="42.945135" lon="12.1101666"><ele>738.1666666666667</ele><time>2026-05-02T09:30:02.729Z</time></trkpt><trkpt lat="42.9451787" lon="12.1100907"><ele>736.0</ele><time>2026-05-02T09:30:04.729Z</time></trkpt><trkpt lat="42.9452254" lon="12.110008"><ele>735.5</ele><time>2026-05-02T09:30:07.729Z</time></trkpt><trkpt lat="42.945272" lon="12.1099183"><ele>735.0</ele><time>2026-05-02T09:30:10.728Z</time></trkpt><trkpt lat="42.9452937" lon="12.109812"><ele>734.5</ele><time>2026-05-02T09:30:13.729Z</time></trkpt><trkpt lat="42.9452775" lon="12.1097172"><ele>734.0</ele><time>2026-05-02T09:30:15.729Z</time></trkpt><trkpt lat="42.9452545" lon="12.1096212"><ele>733.5</ele><time>2026-05-02T09:30:17.729Z</time></trkpt><trkpt lat="42.945231" lon="12.1095006"><ele>733.0</ele><time>2026-05-02T09:30:20.729Z</time></trkpt><trkpt lat="42.9451953" lon="12.1094"><ele>730.8333333333334</ele><time>2026-05-02T09:30:22.729Z</time></trkpt><trkpt lat="42.945163" lon="12.1093178"><ele>728.6666666666667</ele><time>2026-05-02T09:30:24.729Z</time></trkpt><trkpt lat="42.9451225" lon="12.1092238"><ele>726.5</ele><time>2026-05-02T09:30:26.729Z</time></trkpt><trkpt lat="42.9450885" lon="12.1091331"><ele>724.3333333333334</ele><time>2026-05-02T09:30:28.729Z</time></trkpt><trkpt lat="42.9450805" lon="12.1090261"><ele>722.1666666666666</ele><time>2026-05-02T09:30:30.729Z</time></trkpt><trkpt lat="42.9450968" lon="12.1089279"><ele>720.0</ele><time>2026-05-02T09:30:32.729Z</time></trkpt><trkpt lat="42.9451469" lon="12.1088406"><ele>718.3333333333334</ele><time>2026-05-02T09:30:34.728Z</time></trkpt><trkpt lat="42.9451988" lon="12.1087675"><ele>716.6666666666666</ele><time>2026-05-02T09:30:36.729Z</time></trkpt><trkpt lat="42.9452518" lon="12.108707"><ele>715.0</ele><time>2026-05-02T09:30:38.729Z</time></trkpt><trkpt lat="42.9453191" lon="12.1086342"><ele>713.3333333333333</ele><time>2026-05-02T09:30:40.729Z</time></trkpt><trkpt lat="42.9453678" lon="12.1085554"><ele>711.6666666666666</ele><time>2026-05-02T09:30:42.729Z</time></trkpt><trkpt lat="42.9454233" lon="12.1084596"><ele>710.0</ele><time>2026-05-02T09:30:45.729Z</time></trkpt><trkpt lat="42.9454807" lon="12.1083614"><ele>710.0</ele><time>2026-05-02T09:30:48.729Z</time></trkpt><trkpt lat="42.9455275" lon="12.1082675"><ele>710.0</ele><time>2026-05-02T09:30:50.729Z</time></trkpt><trkpt lat="42.9454585" lon="12.1082333"><ele>710.0</ele><time>2026-05-02T09:30:56.729Z</time></trkpt><trkpt lat="42.9453893" lon="12.1082121"><ele>710.0</ele><time>2026-05-02T09:30:59.729Z</time></trkpt><trkpt lat="42.9453205" lon="12.1082106"><ele>710.0</ele><time>2026-05-02T09:31:02.729Z</time></trkpt><trkpt lat="42.945257" lon="12.1082295"><ele>710.0</ele><time>2026-05-02T09:31:05.729Z</time></trkpt><trkpt lat="42.9453342" lon="12.1081776"><ele>710.0</ele><time>2026-05-02T09:31:50.729Z</time></trkpt><trkpt lat="42.9454562" lon="12.108177"><ele>708.6666666666666</ele><time>2026-05-02T09:31:52.729Z</time></trkpt><trkpt lat="42.9455199" lon="12.1081944"><ele>707.3333333333333</ele><time>2026-05-02T09:31:53.729Z</time></trkpt><trkpt lat="42.9455855" lon="12.1081939"><ele>706.0</ele><time>2026-05-02T09:32:47.729Z</time></trkpt><trkpt lat="42.9456221" lon="12.1081129"><ele>704.6666666666666</ele><time>2026-05-02T09:33:17.729Z</time></trkpt><trkpt lat="42.9456283" lon="12.1080181"><ele>703.3333333333334</ele><time>2026-05-02T09:34:10.729Z</time></trkpt><trkpt lat="42.9456662" lon="12.1079174"><ele>702.0</ele><time>2026-05-02T09:34:12.729Z</time></trkpt><trkpt lat="42.9457114" lon="12.1077652"><ele>702.0</ele><time>2026-05-02T09:34:14.729Z</time></trkpt><trkpt lat="42.9457573" lon="12.107626"><ele>702.0</ele><time>2026-05-02T09:34:16.729Z</time></trkpt><trkpt lat="42.9458156" lon="12.1074828"><ele>702.0</ele><time>2026-05-02T09:34:18.729Z</time></trkpt><trkpt lat="42.945856" lon="12.1074143"><ele>702.0</ele><time>2026-05-02T09:34:19.729Z</time></trkpt><trkpt lat="42.9459372" lon="12.107316"><ele>702.0</ele><time>2026-05-02T09:34:21.729Z</time></trkpt><trkpt lat="42.9460364" lon="12.1072401"><ele>698.5</ele><time>2026-05-02T09:34:23.729Z</time></trkpt><trkpt lat="42.9461393" lon="12.1071688"><ele>695.0</ele><time>2026-05-02T09:34:25.729Z</time></trkpt><trkpt lat="42.9461927" lon="12.1070809"><ele>691.5</ele><time>2026-05-02T09:34:27.729Z</time></trkpt><trkpt lat="42.9461759" lon="12.1069543"><ele>688.0</ele><time>2026-05-02T09:34:29.729Z</time></trkpt><trkpt lat="42.9461243" lon="12.1068813"><ele>684.5</ele><time>2026-05-02T09:34:30.729Z</time></trkpt><trkpt lat="42.9460823" lon="12.1068083"><ele>681.0</ele><time>2026-05-02T09:34:31.729Z</time></trkpt><trkpt lat="42.9460551" lon="12.1067277"><ele>681.0</ele><time>2026-05-02T09:34:32.729Z</time></trkpt><trkpt lat="42.9460253" lon="12.1066445"><ele>681.0</ele><time>2026-05-02T09:34:33.729Z</time></trkpt><trkpt lat="42.946017" lon="12.1064964"><ele>681.0</ele><time>2026-05-02T09:34:35.729Z</time></trkpt><trkpt lat="42.9460647" lon="12.1064302"><ele>681.0</ele><time>2026-05-02T09:34:36.729Z</time></trkpt><trkpt lat="42.946114" lon="12.1063659"><ele>681.0</ele><time>2026-05-02T09:34:37.729Z</time></trkpt><trkpt lat="42.9461501" lon="12.1062886"><ele>681.0</ele><time>2026-05-02T09:34:38.729Z</time></trkpt><trkpt lat="42.9461736" lon="12.1061453"><ele>677.5</ele><time>2026-05-02T09:34:40.729Z</time></trkpt><trkpt lat="42.9461392" lon="12.1060572"><ele>674.0</ele><time>2026-05-02T09:34:41.729Z</time></trkpt><trkpt lat="42.94609" lon="12.1059533"><ele>670.5</ele><time>2026-05-02T09:34:42.729Z</time></trkpt><trkpt lat="42.9460475" lon="12.1058578"><ele>667.0</ele><time>2026-05-02T09:34:43.729Z</time></trkpt><trkpt lat="42.9460079" lon="12.1057593"><ele>663.5</ele><time>2026-05-02T09:34:44.729Z</time></trkpt><trkpt lat="42.9459732" lon="12.1056589"><ele>660.0</ele><time>2026-05-02T09:34:45.729Z</time></trkpt><trkpt lat="42.9459423" lon="12.1055592"><ele>660.2</ele><time>2026-05-02T09:34:46.729Z</time></trkpt><trkpt lat="42.9459109" lon="12.1054519"><ele>660.4</ele><time>2026-05-02T09:34:47.729Z</time></trkpt><trkpt lat="42.945885" lon="12.1053296"><ele>660.5999999999999</ele><time>2026-05-02T09:34:48.729Z</time></trkpt><trkpt lat="42.9458727" lon="12.1052082"><ele>660.8</ele><time>2026-05-02T09:34:49.729Z</time></trkpt><trkpt lat="42.9458476" lon="12.1050812"><ele>661.0</ele><time>2026-05-02T09:34:50.729Z</time></trkpt><trkpt lat="42.9458121" lon="12.104964"><ele>660.0</ele><time>2026-05-02T09:34:51.729Z</time></trkpt><trkpt lat="42.9457885" lon="12.1048516"><ele>659.0</ele><time>2026-05-02T09:34:52.729Z</time></trkpt><trkpt lat="42.9457703" lon="12.1047473"><ele>658.0</ele><time>2026-05-02T09:34:53.729Z</time></trkpt><trkpt lat="42.945761" lon="12.1046482"><ele>657.0</ele><time>2026-05-02T09:34:54.729Z</time></trkpt><trkpt lat="42.9457513" lon="12.1045629"><ele>656.0</ele><time>2026-05-02T09:34:55.729Z</time></trkpt><trkpt lat="42.9457444" lon="12.104475"><ele>655.0</ele><time>2026-05-02T09:34:56.729Z</time></trkpt><trkpt lat="42.9457373" lon="12.1043417"><ele>655.0</ele><time>2026-05-02T09:34:58.729Z</time></trkpt><trkpt lat="42.9457223" lon="12.1042283"><ele>655.0</ele><time>2026-05-02T09:35:01.729Z</time></trkpt><trkpt lat="42.9457151" lon="12.1041319"><ele>655.0</ele><time>2026-05-02T09:35:04.729Z</time></trkpt><trkpt lat="42.9457188" lon="12.1040181"><ele>655.0</ele><time>2026-05-02T09:35:09.729Z</time></trkpt><trkpt lat="42.9457162" lon="12.1039092"><ele>655.0</ele><time>2026-05-02T09:35:11.729Z</time></trkpt><trkpt lat="42.9457072" lon="12.1037652"><ele>655.0</ele><time>2026-05-02T09:35:13.729Z</time></trkpt><trkpt lat="42.9457066" lon="12.103659"><ele>654.2</ele><time>2026-05-02T09:35:14.729Z</time></trkpt><trkpt lat="42.945661" lon="12.1035013"><ele>653.4</ele><time>2026-05-02T09:35:16.729Z</time></trkpt><trkpt lat="42.9455809" lon="12.1033625"><ele>652.5999999999999</ele><time>2026-05-02T09:35:18.729Z</time></trkpt><trkpt lat="42.9455395" lon="12.1032833"><ele>651.8</ele><time>2026-05-02T09:35:19.729Z</time></trkpt><trkpt lat="42.9454976" lon="12.1032078"><ele>651.0</ele><time>2026-05-02T09:35:20.729Z</time></trkpt><trkpt lat="42.9454466" lon="12.103114"><ele>649.6666666666666</ele><time>2026-05-02T09:35:21.729Z</time></trkpt><trkpt lat="42.9453885" lon="12.1030009"><ele>648.3333333333334</ele><time>2026-05-02T09:35:22.729Z</time></trkpt><trkpt lat="42.945341" lon="12.1028927"><ele>647.0</ele><time>2026-05-02T09:35:23.729Z</time></trkpt><trkpt lat="42.9453137" lon="12.102781"><ele>645.6666666666667</ele><time>2026-05-02T09:35:24.729Z</time></trkpt><trkpt lat="42.9452928" lon="12.1026785"><ele>644.3333333333334</ele><time>2026-05-02T09:35:25.729Z</time></trkpt><trkpt lat="42.9452852" lon="12.1025752"><ele>643.0</ele><time>2026-05-02T09:35:26.729Z</time></trkpt><trkpt lat="42.9452785" lon="12.1024662"><ele>642.6666666666667</ele><time>2026-05-02T09:35:27.729Z</time></trkpt><trkpt lat="42.94528" lon="12.1023634"><ele>642.3333333333334</ele><time>2026-05-02T09:35:28.729Z</time></trkpt><trkpt lat="42.9452872" lon="12.1022735"><ele>642.0</ele><time>2026-05-02T09:35:29.729Z</time></trkpt><trkpt lat="42.9453052" lon="12.1021773"><ele>641.6666666666666</ele><time>2026-05-02T09:35:30.729Z</time></trkpt><trkpt lat="42.945329" lon="12.1020683"><ele>641.3333333333333</ele><time>2026-05-02T09:35:31.729Z</time></trkpt><trkpt lat="42.9453595" lon="12.1019611"><ele>641.0</ele><time>2026-05-02T09:35:32.729Z</time></trkpt><trkpt lat="42.9453976" lon="12.10186"><ele>641.0</ele><time>2026-05-02T09:35:33.729Z</time></trkpt><trkpt lat="42.9454355" lon="12.1017705"><ele>641.0</ele><time>2026-05-02T09:35:34.729Z</time></trkpt><trkpt lat="42.9454791" lon="12.1016792"><ele>641.0</ele><time>2026-05-02T09:35:35.729Z</time></trkpt><trkpt lat="42.9455294" lon="12.1015898"><ele>641.0</ele><time>2026-05-02T09:35:36.729Z</time></trkpt><trkpt lat="42.9455749" lon="12.1015104"><ele>641.0</ele><time>2026-05-02T09:35:37.729Z</time></trkpt><trkpt lat="42.9456211" lon="12.1014403"><ele>641.0</ele><time>2026-05-02T09:35:38.729Z</time></trkpt><trkpt lat="42.9456938" lon="12.1013566"><ele>641.0</ele><time>2026-05-02T09:35:40.729Z</time></trkpt><trkpt lat="42.9457751" lon="12.1012902"><ele>641.0</ele><time>2026-05-02T09:35:42.729Z</time></trkpt><trkpt lat="42.9458393" lon="12.1012526"><ele>641.0</ele><time>2026-05-02T09:35:43.728Z</time></trkpt><trkpt lat="42.9459133" lon="12.1011981"><ele>641.0</ele><time>2026-05-02T09:35:44.729Z</time></trkpt><trkpt lat="42.9459856" lon="12.1011416"><ele>641.0</ele><time>2026-05-02T09:35:45.729Z</time></trkpt><trkpt lat="42.9460609" lon="12.1010792"><ele>641.0</ele><time>2026-05-02T09:35:46.729Z</time></trkpt><trkpt lat="42.946143" lon="12.1010019"><ele>638.4</ele><time>2026-05-02T09:35:47.729Z</time></trkpt><trkpt lat="42.9462295" lon="12.1009193"><ele>635.8</ele><time>2026-05-02T09:35:48.729Z</time></trkpt><trkpt lat="42.9463167" lon="12.1008409"><ele>633.1999999999999</ele><time>2026-05-02T09:35:49.729Z</time></trkpt><trkpt lat="42.9463796" lon="12.1007607"><ele>630.5999999999999</ele><time>2026-05-02T09:35:50.729Z</time></trkpt><trkpt lat="42.9464464" lon="12.1006813"><ele>628.0</ele><time>2026-05-02T09:35:51.729Z</time></trkpt><trkpt lat="42.9465129" lon="12.1005637"><ele>627.8333333333334</ele><time>2026-05-02T09:35:52.729Z</time></trkpt><trkpt lat="42.9465712" lon="12.1004486"><ele>627.6666666666667</ele><time>2026-05-02T09:35:53.729Z</time></trkpt><trkpt lat="42.9466251" lon="12.1003484"><ele>627.5</ele><time>2026-05-02T09:35:54.729Z</time></trkpt><trkpt lat="42.9466909" lon="12.1002719"><ele>627.3333333333334</ele><time>2026-05-02T09:35:55.729Z</time></trkpt><trkpt lat="42.946766" lon="12.1002194"><ele>627.1666666666666</ele><time>2026-05-02T09:35:56.729Z</time></trkpt><trkpt lat="42.9468404" lon="12.1001861"><ele>627.0</ele><time>2026-05-02T09:35:57.728Z</time></trkpt><trkpt lat="42.9469081" lon="12.1001333"><ele>625.1666666666666</ele><time>2026-05-02T09:35:58.729Z</time></trkpt><trkpt lat="42.9469587" lon="12.1000807"><ele>623.3333333333334</ele><time>2026-05-02T09:35:59.729Z</time></trkpt><trkpt lat="42.9470079" lon="12.1000098"><ele>621.5</ele><time>2026-05-02T09:36:00.729Z</time></trkpt><trkpt lat="42.947043" lon="12.0999199"><ele>619.6666666666667</ele><time>2026-05-02T09:36:01.729Z</time></trkpt><trkpt lat="42.9470741" lon="12.0998169"><ele>617.8333333333334</ele><time>2026-05-02T09:36:02.729Z</time></trkpt><trkpt lat="42.9470947" lon="12.0997117"><ele>616.0</ele><time>2026-05-02T09:36:03.729Z</time></trkpt><trkpt lat="42.947106" lon="12.0996048"><ele>615.0</ele><time>2026-05-02T09:36:04.729Z</time></trkpt><trkpt lat="42.9471076" lon="12.0994815"><ele>614.0</ele><time>2026-05-02T09:36:05.729Z</time></trkpt><trkpt lat="42.9471038" lon="12.0993702"><ele>613.0</ele><time>2026-05-02T09:36:06.729Z</time></trkpt><trkpt lat="42.9470982" lon="12.0992537"><ele>612.0</ele><time>2026-05-02T09:36:07.729Z</time></trkpt><trkpt lat="42.9470932" lon="12.0991335"><ele>611.0</ele><time>2026-05-02T09:36:08.729Z</time></trkpt><trkpt lat="42.947088" lon="12.0990427"><ele>610.0</ele><time>2026-05-02T09:36:09.729Z</time></trkpt><trkpt lat="42.9470163" lon="12.0988927"><ele>608.6666666666667</ele><time>2026-05-02T09:36:11.729Z</time></trkpt><trkpt lat="42.9469673" lon="12.0988353"><ele>607.3333333333334</ele><time>2026-05-02T09:36:12.729Z</time></trkpt><trkpt lat="42.9469018" lon="12.0987295"><ele>606.0</ele><time>2026-05-02T09:36:14.729Z</time></trkpt><trkpt lat="42.9468788" lon="12.098642"><ele>604.6666666666666</ele><time>2026-05-02T09:36:17.729Z</time></trkpt><trkpt lat="42.9468324" lon="12.0985301"><ele>603.3333333333333</ele><time>2026-05-02T09:36:28.729Z</time></trkpt><trkpt lat="42.9467974" lon="12.0983806"><ele>602.0</ele><time>2026-05-02T09:36:30.729Z</time></trkpt><trkpt lat="42.9467953" lon="12.0982265"><ele>600.0</ele><time>2026-05-02T09:36:32.729Z</time></trkpt><trkpt lat="42.9468528" lon="12.0980826"><ele>598.0</ele><time>2026-05-02T09:36:34.728Z</time></trkpt><trkpt lat="42.946913" lon="12.0979335"><ele>596.0</ele><time>2026-05-02T09:36:36.729Z</time></trkpt><trkpt lat="42.9469414" lon="12.0978503"><ele>594.0</ele><time>2026-05-02T09:36:37.729Z</time></trkpt><trkpt lat="42.9469917" lon="12.0976939"><ele>592.0</ele><time>2026-05-02T09:36:39.729Z</time></trkpt><trkpt lat="42.9470316" lon="12.0975343"><ele>589.8333333333334</ele><time>2026-05-02T09:36:41.729Z</time></trkpt><trkpt lat="42.9470778" lon="12.0973888"><ele>587.6666666666667</ele><time>2026-05-02T09:36:43.729Z</time></trkpt><trkpt lat="42.9471112" lon="12.0973061"><ele>585.5</ele><time>2026-05-02T09:36:45.729Z</time></trkpt><trkpt lat="42.9471229" lon="12.0972169"><ele>583.3333333333334</ele><time>2026-05-02T09:36:47.729Z</time></trkpt><trkpt lat="42.9470843" lon="12.0970703"><ele>581.1666666666666</ele><time>2026-05-02T09:36:49.729Z</time></trkpt><trkpt lat="42.9470412" lon="12.0969851"><ele>579.0</ele><time>2026-05-02T09:36:50.729Z</time></trkpt><trkpt lat="42.946987" lon="12.0969015"><ele>579.0</ele><time>2026-05-02T09:36:51.729Z</time></trkpt><trkpt lat="42.9469247" lon="12.0968347"><ele>579.0</ele><time>2026-05-02T09:36:52.729Z</time></trkpt><trkpt lat="42.9468497" lon="12.0967729"><ele>579.0</ele><time>2026-05-02T09:36:53.729Z</time></trkpt><trkpt lat="42.9467797" lon="12.0967124"><ele>579.0</ele><time>2026-05-02T09:36:54.729Z</time></trkpt><trkpt lat="42.9467072" lon="12.0966506"><ele>579.0</ele><time>2026-05-02T09:36:55.729Z</time></trkpt><trkpt lat="42.9466302" lon="12.0965833"><ele>579.0</ele><time>2026-05-02T09:36:56.729Z</time></trkpt><trkpt lat="42.9465517" lon="12.0965188"><ele>578.6666666666666</ele><time>2026-05-02T09:36:57.729Z</time></trkpt><trkpt lat="42.9464714" lon="12.0964579"><ele>578.3333333333334</ele><time>2026-05-02T09:36:58.729Z</time></trkpt><trkpt lat="42.9464009" lon="12.0964061"><ele>578.0</ele><time>2026-05-02T09:36:59.729Z</time></trkpt><trkpt lat="42.9463308" lon="12.0963352"><ele>577.6666666666667</ele><time>2026-05-02T09:37:00.729Z</time></trkpt><trkpt lat="42.9462739" lon="12.0962667"><ele>577.3333333333334</ele><time>2026-05-02T09:37:01.729Z</time></trkpt><trkpt lat="42.9462347" lon="12.096191"><ele>577.0</ele><time>2026-05-02T09:37:02.729Z</time></trkpt><trkpt lat="42.9462069" lon="12.0960956"><ele>577.0</ele><time>2026-05-02T09:37:03.729Z</time></trkpt><trkpt lat="42.9461896" lon="12.0960038"><ele>577.0</ele><time>2026-05-02T09:37:04.729Z</time></trkpt><trkpt lat="42.9461815" lon="12.0959059"><ele>577.0</ele><time>2026-05-02T09:37:05.729Z</time></trkpt><trkpt lat="42.9461757" lon="12.0958201"><ele>577.0</ele><time>2026-05-02T09:37:06.729Z</time></trkpt><trkpt lat="42.9461856" lon="12.0956581"><ele>577.0</ele><time>2026-05-02T09:37:08.729Z</time></trkpt><trkpt lat="42.9462199" lon="12.0955003"><ele>577.0</ele><time>2026-05-02T09:37:10.729Z</time></trkpt><trkpt lat="42.9462505" lon="12.0954249"><ele>574.0</ele><time>2026-05-02T09:37:11.729Z</time></trkpt><trkpt lat="42.9463213" lon="12.0952978"><ele>571.0</ele><time>2026-05-02T09:37:13.728Z</time></trkpt><trkpt lat="42.946374" lon="12.0951776"><ele>568.0</ele><time>2026-05-02T09:37:15.729Z</time></trkpt><trkpt lat="42.9463573" lon="12.0950199"><ele>565.0</ele><time>2026-05-02T09:37:17.729Z</time></trkpt><trkpt lat="42.9463295" lon="12.0949224"><ele>562.0</ele><time>2026-05-02T09:37:18.729Z</time></trkpt><trkpt lat="42.9463046" lon="12.0948261"><ele>560.5714285714287</ele><time>2026-05-02T09:37:19.729Z</time></trkpt><trkpt lat="42.9462746" lon="12.0947205"><ele>559.1428571428571</ele><time>2026-05-02T09:37:20.729Z</time></trkpt><trkpt lat="42.9462516" lon="12.0946238"><ele>557.7142857142858</ele><time>2026-05-02T09:37:21.729Z</time></trkpt><trkpt lat="42.9462321" lon="12.0945274"><ele>556.2857142857143</ele><time>2026-05-02T09:37:22.729Z</time></trkpt><trkpt lat="42.9462084" lon="12.0944399"><ele>554.8571428571429</ele><time>2026-05-02T09:37:23.729Z</time></trkpt><trkpt lat="42.9461855" lon="12.0943448"><ele>553.4285714285714</ele><time>2026-05-02T09:37:24.729Z</time></trkpt><trkpt lat="42.9461571" lon="12.0942541"><ele>552.0</ele><time>2026-05-02T09:37:25.729Z</time></trkpt><trkpt lat="42.9461287" lon="12.0941717"><ele>552.0</ele><time>2026-05-02T09:37:26.729Z</time></trkpt><trkpt lat="42.9460984" lon="12.0940913"><ele>552.0</ele><time>2026-05-02T09:37:27.729Z</time></trkpt><trkpt lat="42.9460398" lon="12.0939413"><ele>552.0</ele><time>2026-05-02T09:37:29.729Z</time></trkpt><trkpt lat="42.9459738" lon="12.0938082"><ele>552.0</ele><time>2026-05-02T09:37:31.729Z</time></trkpt><trkpt lat="42.945905" lon="12.0936974"><ele>552.0</ele><time>2026-05-02T09:37:33.729Z</time></trkpt><trkpt lat="42.945837" lon="12.0935842"><ele>552.0</ele><time>2026-05-02T09:37:35.729Z</time></trkpt><trkpt lat="42.9457672" lon="12.0934658"><ele>552.0</ele><time>2026-05-02T09:37:37.729Z</time></trkpt><trkpt lat="42.9457085" lon="12.0933509"><ele>552.0</ele><time>2026-05-02T09:37:39.729Z</time></trkpt><trkpt lat="42.9456563" lon="12.0932478"><ele>552.0</ele><time>2026-05-02T09:37:41.729Z</time></trkpt><trkpt lat="42.9456496" lon="12.0931444"><ele>552.0</ele><time>2026-05-02T09:37:44.729Z</time></trkpt><trkpt lat="42.9456995" lon="12.0930771"><ele>550.4285714285714</ele><time>2026-05-02T09:37:46.729Z</time></trkpt><trkpt lat="42.9457808" lon="12.093024"><ele>548.8571428571429</ele><time>2026-05-02T09:37:48.729Z</time></trkpt><trkpt lat="42.9458458" lon="12.092977"><ele>547.2857142857143</ele><time>2026-05-02T09:37:51.729Z</time></trkpt><trkpt lat="42.9459103" lon="12.0929588"><ele>545.7142857142858</ele><time>2026-05-02T09:37:55.729Z</time></trkpt><trkpt lat="42.9459846" lon="12.0929575"><ele>544.1428571428571</ele><time>2026-05-02T09:38:00.729Z</time></trkpt><trkpt lat="42.9460566" lon="12.0929407"><ele>542.5714285714287</ele><time>2026-05-02T09:38:03.729Z</time></trkpt><trkpt lat="42.9459954" lon="12.0928969"><ele>541.0</ele><time>2026-05-02T09:38:07.729Z</time></trkpt><trkpt lat="42.9459042" lon="12.0929494"><ele>541.0</ele><time>2026-05-02T09:38:10.729Z</time></trkpt><trkpt lat="42.9458077" lon="12.092985"><ele>541.0</ele><time>2026-05-02T09:38:12.729Z</time></trkpt><trkpt lat="42.9457003" lon="12.0930415"><ele>541.0</ele><time>2026-05-02T09:38:14.729Z</time></trkpt><trkpt lat="42.9456026" lon="12.0930324"><ele>541.0</ele><time>2026-05-02T09:38:16.729Z</time></trkpt><trkpt lat="42.9455419" lon="12.0929305"><ele>541.0</ele><time>2026-05-02T09:38:18.729Z</time></trkpt><trkpt lat="42.9455558" lon="12.0928043"><ele>541.0</ele><time>2026-05-02T09:38:20.729Z</time></trkpt><trkpt lat="42.9456187" lon="12.0926989"><ele>541.0</ele><time>2026-05-02T09:38:22.729Z</time></trkpt><trkpt lat="42.9456869" lon="12.0926018"><ele>541.0</ele><time>2026-05-02T09:38:24.729Z</time></trkpt><trkpt lat="42.9457747" lon="12.0925335"><ele>541.0</ele><time>2026-05-02T09:38:26.729Z</time></trkpt><trkpt lat="42.9458331" lon="12.0924955"><ele>541.0</ele><time>2026-05-02T09:38:27.729Z</time></trkpt><trkpt lat="42.9458959" lon="12.0924663"><ele>541.0</ele><time>2026-05-02T09:38:28.728Z</time></trkpt><trkpt lat="42.9459618" lon="12.0924371"><ele>538.4285714285714</ele><time>2026-05-02T09:38:29.729Z</time></trkpt><trkpt lat="42.9460386" lon="12.0924021"><ele>535.8571428571429</ele><time>2026-05-02T09:38:30.729Z</time></trkpt><trkpt lat="42.9461086" lon="12.0923736"><ele>533.2857142857142</ele><time>2026-05-02T09:38:31.729Z</time></trkpt><trkpt lat="42.9461731" lon="12.0923432"><ele>530.7142857142858</ele><time>2026-05-02T09:38:32.729Z</time></trkpt><trkpt lat="42.9462412" lon="12.0922811"><ele>528.1428571428571</ele><time>2026-05-02T09:38:34.729Z</time></trkpt><trkpt lat="42.9463026" lon="12.0922447"><ele>525.5714285714286</ele><time>2026-05-02T09:38:49.729Z</time></trkpt><trkpt lat="42.9463495" lon="12.0921697"><ele>523.0</ele><time>2026-05-02T09:38:52.729Z</time></trkpt><trkpt lat="42.9464178" lon="12.092137"><ele>523.0</ele><time>2026-05-02T09:38:54.729Z</time></trkpt><trkpt lat="42.946503" lon="12.0921126"><ele>523.0</ele><time>2026-05-02T09:38:56.729Z</time></trkpt><trkpt lat="42.946599" lon="12.0920996"><ele>523.0</ele><time>2026-05-02T09:38:58.729Z</time></trkpt><trkpt lat="42.9467088" lon="12.0921317"><ele>523.0</ele><time>2026-05-02T09:39:00.729Z</time></trkpt><trkpt lat="42.9467662" lon="12.0921697"><ele>523.0</ele><time>2026-05-02T09:39:01.729Z</time></trkpt><trkpt lat="42.9468352" lon="12.0922153"><ele>523.0</ele><time>2026-05-02T09:39:02.729Z</time></trkpt><trkpt lat="42.9469075" lon="12.092268"><ele>522.2857142857142</ele><time>2026-05-02T09:39:03.729Z</time></trkpt><trkpt lat="42.9469732" lon="12.0923216"><ele>521.5714285714286</ele><time>2026-05-02T09:39:04.729Z</time></trkpt><trkpt lat="42.9470372" lon="12.0923737"><ele>520.8571428571429</ele><time>2026-05-02T09:39:05.729Z</time></trkpt><trkpt lat="42.9470985" lon="12.0924228"><ele>520.1428571428571</ele><time>2026-05-02T09:39:06.729Z</time></trkpt><trkpt lat="42.9471668" lon="12.0924786"><ele>519.4285714285714</ele><time>2026-05-02T09:39:07.729Z</time></trkpt><trkpt lat="42.9472308" lon="12.0925253"><ele>518.7142857142857</ele><time>2026-05-02T09:39:08.729Z</time></trkpt><trkpt lat="42.9472928" lon="12.092572"><ele>518.0</ele><time>2026-05-02T09:39:09.729Z</time></trkpt><trkpt lat="42.947347" lon="12.0926412"><ele>518.0</ele><time>2026-05-02T09:39:10.729Z</time></trkpt><trkpt lat="42.947391" lon="12.0927389"><ele>518.0</ele><time>2026-05-02T09:39:11.729Z</time></trkpt><trkpt lat="42.9474205" lon="12.0928658"><ele>518.0</ele><time>2026-05-02T09:39:12.729Z</time></trkpt><trkpt lat="42.947445" lon="12.092957"><ele>518.0</ele><time>2026-05-02T09:39:13.729Z</time></trkpt><trkpt lat="42.9474669" lon="12.093041"><ele>518.0</ele><time>2026-05-02T09:39:15.729Z</time></trkpt><trkpt lat="42.9474847" lon="12.0931435"><ele>518.0</ele><time>2026-05-02T09:39:20.729Z</time></trkpt><trkpt lat="42.9474931" lon="12.0932513"><ele>518.0</ele><time>2026-05-02T09:39:23.729Z</time></trkpt><trkpt lat="42.9474477" lon="12.093135"><ele>518.0</ele><time>2026-05-02T09:39:31.728Z</time></trkpt><trkpt lat="42.9474292" lon="12.0930162"><ele>518.0</ele><time>2026-05-02T09:39:33.729Z</time></trkpt><trkpt lat="42.9474103" lon="12.0929299"><ele>518.0</ele><time>2026-05-02T09:39:34.729Z</time></trkpt><trkpt lat="42.9473962" lon="12.0928405"><ele>518.0</ele><time>2026-05-02T09:39:35.729Z</time></trkpt><trkpt lat="42.9473646" lon="12.0926978"><ele>518.0</ele><time>2026-05-02T09:39:37.729Z</time></trkpt><trkpt lat="42.9473515" lon="12.0926038"><ele>518.0</ele><time>2026-05-02T09:39:39.729Z</time></trkpt><trkpt lat="42.9473123" lon="12.0925168"><ele>518.0</ele><time>2026-05-02T09:39:41.729Z</time></trkpt><trkpt lat="42.9472148" lon="12.0924411"><ele>518.0</ele><time>2026-05-02T09:39:43.729Z</time></trkpt><trkpt lat="42.9471089" lon="12.0923592"><ele>518.0</ele><time>2026-05-02T09:39:45.729Z</time></trkpt><trkpt lat="42.9470577" lon="12.0923085"><ele>518.0</ele><time>2026-05-02T09:39:46.729Z</time></trkpt><trkpt lat="42.9469996" lon="12.0922585"><ele>518.0</ele><time>2026-05-02T09:39:47.729Z</time></trkpt><trkpt lat="42.9469461" lon="12.0922072"><ele>516.3333333333333</ele><time>2026-05-02T09:39:48.729Z</time></trkpt><trkpt lat="42.9468609" lon="12.092126"><ele>514.6666666666666</ele><time>2026-05-02T09:39:50.729Z</time></trkpt><trkpt lat="42.9468165" lon="12.0920599"><ele>513.0</ele><time>2026-05-02T09:39:54.729Z</time></trkpt><trkpt lat="42.9468821" lon="12.0920405"><ele>511.33333333333337</ele><time>2026-05-02T09:40:02.729Z</time></trkpt><trkpt lat="42.946993" lon="12.092127"><ele>509.6666666666667</ele><time>2026-05-02T09:40:04.729Z</time></trkpt><trkpt lat="42.9470592" lon="12.0921755"><ele>508.0</ele><time>2026-05-02T09:40:05.729Z</time></trkpt><trkpt lat="42.9471234" lon="12.0922234"><ele>508.00000000000006</ele><time>2026-05-02T09:40:06.729Z</time></trkpt><trkpt lat="42.9471924" lon="12.0922714"><ele>508.0</ele><time>2026-05-02T09:40:07.729Z</time></trkpt><trkpt lat="42.9472631" lon="12.0923147"><ele>508.0</ele><time>2026-05-02T09:40:08.729Z</time></trkpt><trkpt lat="42.9473307" lon="12.0923628"><ele>508.0</ele><time>2026-05-02T09:40:09.729Z</time></trkpt><trkpt lat="42.9473877" lon="12.0924144"><ele>508.00000000000006</ele><time>2026-05-02T09:40:10.729Z</time></trkpt><trkpt lat="42.9474825" lon="12.0924911"><ele>508.0</ele><time>2026-05-02T09:40:12.729Z</time></trkpt><trkpt lat="42.9475734" lon="12.092497"><ele>504.79999999999995</ele><time>2026-05-02T09:40:14.729Z</time></trkpt><trkpt lat="42.9476469" lon="12.0924024"><ele>501.59999999999997</ele><time>2026-05-02T09:40:16.729Z</time></trkpt><trkpt lat="42.9476418" lon="12.0922271"><ele>498.40000000000003</ele><time>2026-05-02T09:40:18.729Z</time></trkpt><trkpt lat="42.9476183" lon="12.0921355"><ele>495.20000000000005</ele><time>2026-05-02T09:40:19.729Z</time></trkpt><trkpt lat="42.9475894" lon="12.0920504"><ele>492.0</ele><time>2026-05-02T09:40:20.729Z</time></trkpt><trkpt lat="42.9475769" lon="12.0919029"><ele>492.0</ele><time>2026-05-02T09:40:22.729Z</time></trkpt><trkpt lat="42.9476386" lon="12.0917777"><ele>492.0</ele><time>2026-05-02T09:40:24.729Z</time></trkpt><trkpt lat="42.9476846" lon="12.0917169"><ele>492.0</ele><time>2026-05-02T09:40:25.728Z</time></trkpt><trkpt lat="42.9477449" lon="12.0916581"><ele>492.0</ele><time>2026-05-02T09:40:26.729Z</time></trkpt><trkpt lat="42.9478153" lon="12.0916133"><ele>492.0</ele><time>2026-05-02T09:40:27.729Z</time></trkpt><trkpt lat="42.9478871" lon="12.0915681"><ele>492.0</ele><time>2026-05-02T09:40:28.729Z</time></trkpt><trkpt lat="42.9479642" lon="12.0915274"><ele>490.5</ele><time>2026-05-02T09:40:29.729Z</time></trkpt><trkpt lat="42.9480346" lon="12.0914949"><ele>489.0</ele><time>2026-05-02T09:40:30.729Z</time></trkpt><trkpt lat="42.9481027" lon="12.0914714"><ele>487.5</ele><time>2026-05-02T09:40:31.729Z</time></trkpt><trkpt lat="42.948172" lon="12.0914673"><ele>486.0</ele><time>2026-05-02T09:40:32.729Z</time></trkpt><trkpt lat="42.9482363" lon="12.0914797"><ele>484.5</ele><time>2026-05-02T09:40:33.729Z</time></trkpt><trkpt lat="42.9483293" lon="12.0914777"><ele>483.0</ele><time>2026-05-02T09:40:35.729Z</time></trkpt><trkpt lat="42.9484026" lon="12.0913917"><ele>480.4</ele><time>2026-05-02T09:40:37.728Z</time></trkpt><trkpt lat="42.948425" lon="12.0912156"><ele>477.79999999999995</ele><time>2026-05-02T09:40:39.729Z</time></trkpt><trkpt lat="42.9484536" lon="12.0910472"><ele>475.2</ele><time>2026-05-02T09:40:41.729Z</time></trkpt><trkpt lat="42.9484774" lon="12.090967"><ele>472.6</ele><time>2026-05-02T09:40:42.729Z</time></trkpt><trkpt lat="42.9485786" lon="12.0908654"><ele>470.0</ele><time>2026-05-02T09:40:44.729Z</time></trkpt><trkpt lat="42.9486452" lon="12.0908555"><ele>469.99999999999994</ele><time>2026-05-02T09:40:45.729Z</time></trkpt><trkpt lat="42.948712" lon="12.0908447"><ele>470.0</ele><time>2026-05-02T09:40:46.729Z</time></trkpt><trkpt lat="42.9487774" lon="12.0908225"><ele>470.0</ele><time>2026-05-02T09:40:47.729Z</time></trkpt><trkpt lat="42.9488614" lon="12.0907831"><ele>470.0</ele><time>2026-05-02T09:40:48.729Z</time></trkpt><trkpt lat="42.948948" lon="12.0907441"><ele>469.99999999999994</ele><time>2026-05-02T09:40:49.729Z</time></trkpt><trkpt lat="42.949033" lon="12.0907019"><ele>470.0</ele><time>2026-05-02T09:40:50.729Z</time></trkpt><trkpt lat="42.9491133" lon="12.0906651"><ele>468.8333333333333</ele><time>2026-05-02T09:40:51.729Z</time></trkpt><trkpt lat="42.9491936" lon="12.0906405"><ele>467.66666666666663</ele><time>2026-05-02T09:40:52.729Z</time></trkpt><trkpt lat="42.9492667" lon="12.0906077"><ele>466.5</ele><time>2026-05-02T09:40:53.729Z</time></trkpt><trkpt lat="42.9493386" lon="12.0905712"><ele>465.33333333333337</ele><time>2026-05-02T09:40:54.729Z</time></trkpt><trkpt lat="42.949413" lon="12.0905319"><ele>464.1666666666667</ele><time>2026-05-02T09:40:55.728Z</time></trkpt><trkpt lat="42.9494913" lon="12.0904917"><ele>463.0</ele><time>2026-05-02T09:40:56.729Z</time></trkpt><trkpt lat="42.9495742" lon="12.0904523"><ele>462.59999999999997</ele><time>2026-05-02T09:40:57.729Z</time></trkpt><trkpt lat="42.9496638" lon="12.0904123"><ele>462.19999999999993</ele><time>2026-05-02T09:40:58.729Z</time></trkpt><trkpt lat="42.9497606" lon="12.0903701"><ele>461.8</ele><time>2026-05-02T09:40:59.729Z</time></trkpt><trkpt lat="42.9498687" lon="12.0903238"><ele>461.4</ele><time>2026-05-02T09:41:00.729Z</time></trkpt><trkpt lat="42.9499839" lon="12.0902916"><ele>461.0</ele><time>2026-05-02T09:41:01.729Z</time></trkpt><trkpt lat="42.9500997" lon="12.090248"><ele>459.20000000000005</ele><time>2026-05-02T09:41:02.729Z</time></trkpt><trkpt lat="42.9501974" lon="12.0902025"><ele>457.40000000000003</ele><time>2026-05-02T09:41:03.729Z</time></trkpt><trkpt lat="42.9503008" lon="12.0901593"><ele>455.6</ele><time>2026-05-02T09:41:04.729Z</time></trkpt><trkpt lat="42.9504012" lon="12.0901049"><ele>453.8</ele><time>2026-05-02T09:41:05.729Z</time></trkpt><trkpt lat="42.9505005" lon="12.0900447"><ele>452.0</ele><time>2026-05-02T09:41:06.729Z</time></trkpt><trkpt lat="42.9505962" lon="12.0899862"><ele>452.0</ele><time>2026-05-02T09:41:07.729Z</time></trkpt><trkpt lat="42.9506818" lon="12.0899327"><ele>452.00000000000006</ele><time>2026-05-02T09:41:08.729Z</time></trkpt><trkpt lat="42.9507725" lon="12.0898882"><ele>452.00000000000006</ele><time>2026-05-02T09:41:09.729Z</time></trkpt><trkpt lat="42.9508608" lon="12.0898485"><ele>452.0</ele><time>2026-05-02T09:41:10.729Z</time></trkpt><trkpt lat="42.9509546" lon="12.0897926"><ele>452.0</ele><time>2026-05-02T09:41:11.729Z</time></trkpt><trkpt lat="42.9510469" lon="12.0897295"><ele>449.0</ele><time>2026-05-02T09:41:12.729Z</time></trkpt><trkpt lat="42.9511378" lon="12.0896658"><ele>446.00000000000006</ele><time>2026-05-02T09:41:13.729Z</time></trkpt><trkpt lat="42.9512221" lon="12.0896111"><ele>443.00000000000006</ele><time>2026-05-02T09:41:14.729Z</time></trkpt><trkpt lat="42.9513059" lon="12.0895452"><ele>440.0</ele><time>2026-05-02T09:41:15.729Z</time></trkpt><trkpt lat="42.9513869" lon="12.0894884"><ele>437.0</ele><time>2026-05-02T09:41:16.729Z</time></trkpt><trkpt lat="42.9514734" lon="12.0894364"><ele>437.0</ele><time>2026-05-02T09:41:17.729Z</time></trkpt><trkpt lat="42.9515696" lon="12.0893883"><ele>437.00000000000006</ele><time>2026-05-02T09:41:18.729Z</time></trkpt><trkpt lat="42.951663" lon="12.0893585"><ele>437.00000000000006</ele><time>2026-05-02T09:41:19.729Z</time></trkpt><trkpt lat="42.9517603" lon="12.089329"><ele>437.0</ele><time>2026-05-02T09:41:20.729Z</time></trkpt><trkpt lat="42.9518569" lon="12.089308"><ele>437.0</ele><time>2026-05-02T09:41:21.729Z</time></trkpt><trkpt lat="42.9519461" lon="12.0892786"><ele>434.99999999999994</ele><time>2026-05-02T09:41:22.729Z</time></trkpt><trkpt lat="42.9520265" lon="12.0892567"><ele>433.0</ele><time>2026-05-02T09:41:23.729Z</time></trkpt><trkpt lat="42.9520967" lon="12.0892417"><ele>431.0</ele><time>2026-05-02T09:41:24.729Z</time></trkpt><trkpt lat="42.9521996" lon="12.089232"><ele>429.0</ele><time>2026-05-02T09:41:26.729Z</time></trkpt><trkpt lat="42.9522873" lon="12.0892108"><ele>426.99999999999994</ele><time>2026-05-02T09:41:28.729Z</time></trkpt><trkpt lat="42.9523291" lon="12.0891222"><ele>425.0</ele><time>2026-05-02T09:41:30.729Z</time></trkpt><trkpt lat="42.9522963" lon="12.0890122"><ele>421.4</ele><time>2026-05-02T09:41:32.729Z</time></trkpt><trkpt lat="42.9521785" lon="12.0889194"><ele>417.8</ele><time>2026-05-02T09:41:34.729Z</time></trkpt><trkpt lat="42.9520928" lon="12.0888766"><ele>414.20000000000005</ele><time>2026-05-02T09:41:35.729Z</time></trkpt><trkpt lat="42.9520038" lon="12.0888316"><ele>410.6</ele><time>2026-05-02T09:41:36.729Z</time></trkpt><trkpt lat="42.9519184" lon="12.0887691"><ele>407.0</ele><time>2026-05-02T09:41:37.729Z</time></trkpt><trkpt lat="42.9518448" lon="12.0887149"><ele>406.99999999999994</ele><time>2026-05-02T09:41:38.729Z</time></trkpt><trkpt lat="42.9517732" lon="12.0886586"><ele>407.0</ele><time>2026-05-02T09:41:39.729Z</time></trkpt><trkpt lat="42.9517121" lon="12.0886166"><ele>407.0</ele><time>2026-05-02T09:41:40.729Z</time></trkpt><trkpt lat="42.9516398" lon="12.0885732"><ele>407.0</ele><time>2026-05-02T09:41:41.729Z</time></trkpt><trkpt lat="42.951568" lon="12.088524"><ele>406.99999999999994</ele><time>2026-05-02T09:41:42.729Z</time></trkpt><trkpt lat="42.9515037" lon="12.0884837"><ele>407.0</ele><time>2026-05-02T09:41:43.729Z</time></trkpt><trkpt lat="42.9514367" lon="12.0883958"><ele>406.8333333333333</ele><time>2026-05-02T09:41:45.729Z</time></trkpt><trkpt lat="42.9514782" lon="12.0882702"><ele>406.66666666666663</ele><time>2026-05-02T09:41:47.728Z</time></trkpt><trkpt lat="42.9515398" lon="12.0882249"><ele>406.5</ele><time>2026-05-02T09:41:48.729Z</time></trkpt><trkpt lat="42.9516056" lon="12.0881897"><ele>406.33333333333337</ele><time>2026-05-02T09:41:49.729Z</time></trkpt><trkpt lat="42.9516659" lon="12.0881479"><ele>406.1666666666667</ele><time>2026-05-02T09:41:50.729Z</time></trkpt><trkpt lat="42.9517452" lon="12.0880441"><ele>406.0</ele><time>2026-05-02T09:41:52.729Z</time></trkpt><trkpt lat="42.9517645" lon="12.0878978"><ele>406.0</ele><time>2026-05-02T09:41:54.729Z</time></trkpt><trkpt lat="42.9516988" lon="12.0877623"><ele>406.0</ele><time>2026-05-02T09:41:56.729Z</time></trkpt><trkpt lat="42.9516241" lon="12.0876682"><ele>406.0</ele><time>2026-05-02T09:41:57.729Z</time></trkpt><trkpt lat="42.9515392" lon="12.0875794"><ele>406.0</ele><time>2026-05-02T09:41:58.729Z</time></trkpt><trkpt lat="42.951464" lon="12.0874885"><ele>406.0</ele><time>2026-05-02T09:41:59.729Z</time></trkpt><trkpt lat="42.9513984" lon="12.0874123"><ele>408.0</ele><time>2026-05-02T09:42:00.729Z</time></trkpt><trkpt lat="42.951337" lon="12.0873252"><ele>410.0</ele><time>2026-05-02T09:42:01.729Z</time></trkpt><trkpt lat="42.9512749" lon="12.087262"><ele>412.0</ele><time>2026-05-02T09:42:02.729Z</time></trkpt><trkpt lat="42.9511786" lon="12.0871399"><ele>414.0</ele><time>2026-05-02T09:42:04.729Z</time></trkpt><trkpt lat="42.9510852" lon="12.08706"><ele>416.0</ele><time>2026-05-02T09:42:06.729Z</time></trkpt><trkpt lat="42.9510361" lon="12.0869853"><ele>415.99999999999994</ele><time>2026-05-02T09:42:08.729Z</time></trkpt><trkpt lat="42.9510389" lon="12.086895"><ele>416.0</ele><time>2026-05-02T09:42:10.729Z</time></trkpt><trkpt lat="42.9511166" lon="12.0868501"><ele>416.0</ele><time>2026-05-02T09:42:13.729Z</time></trkpt><trkpt lat="42.9511801" lon="12.0868487"><ele>416.0</ele><time>2026-05-02T09:42:15.729Z</time></trkpt><trkpt lat="42.9512647" lon="12.0868681"><ele>415.99999999999994</ele><time>2026-05-02T09:42:17.729Z</time></trkpt><trkpt lat="42.951351" lon="12.0868965"><ele>416.0</ele><time>2026-05-02T09:42:19.729Z</time></trkpt><trkpt lat="42.9514771" lon="12.0869255"><ele>416.0</ele><time>2026-05-02T09:42:21.729Z</time></trkpt><trkpt lat="42.9515408" lon="12.0869306"><ele>416.0</ele><time>2026-05-02T09:42:22.729Z</time></trkpt><trkpt lat="42.9516478" lon="12.0869574"><ele>416.0</ele><time>2026-05-02T09:42:24.729Z</time></trkpt><trkpt lat="42.9517681" lon="12.0869753"><ele>416.0</ele><time>2026-05-02T09:42:26.729Z</time></trkpt><trkpt lat="42.9519037" lon="12.0869962"><ele>416.0</ele><time>2026-05-02T09:42:28.729Z</time></trkpt><trkpt lat="42.9519868" lon="12.0869942"><ele>416.99999999999994</ele><time>2026-05-02T09:42:29.729Z</time></trkpt><trkpt lat="42.9520496" lon="12.0869871"><ele>418.0</ele><time>2026-05-02T09:42:30.729Z</time></trkpt><trkpt lat="42.952182" lon="12.0869625"><ele>419.0</ele><time>2026-05-02T09:42:32.729Z</time></trkpt><trkpt lat="42.9522475" lon="12.0869777"><ele>420.0</ele><time>2026-05-02T09:42:33.729Z</time></trkpt><trkpt lat="42.9523184" lon="12.0869763"><ele>420.99999999999994</ele><time>2026-05-02T09:42:34.729Z</time></trkpt><trkpt lat="42.9523999" lon="12.0869619"><ele>422.0</ele><time>2026-05-02T09:42:35.729Z</time></trkpt><trkpt lat="42.9524726" lon="12.0869609"><ele>422.0</ele><time>2026-05-02T09:42:36.729Z</time></trkpt><trkpt lat="42.9525972" lon="12.0869626"><ele>422.0</ele><time>2026-05-02T09:42:38.729Z</time></trkpt><trkpt lat="42.9526789" lon="12.0869371"><ele>422.0</ele><time>2026-05-02T09:42:39.729Z</time></trkpt><trkpt lat="42.9527839" lon="12.0868455"><ele>422.0</ele><time>2026-05-02T09:42:41.729Z</time></trkpt><trkpt lat="42.9528553" lon="12.0868212"><ele>422.0</ele><time>2026-05-02T09:42:42.729Z</time></trkpt><trkpt lat="42.9529127" lon="12.0867542"><ele>422.0</ele><time>2026-05-02T09:42:43.729Z</time></trkpt><trkpt lat="42.9529698" lon="12.0866932"><ele>422.0</ele><time>2026-05-02T09:42:44.729Z</time></trkpt><trkpt lat="42.9530292" lon="12.0866284"><ele>422.0</ele><time>2026-05-02T09:42:45.729Z</time></trkpt><trkpt lat="42.9531448" lon="12.0865381"><ele>422.0</ele><time>2026-05-02T09:42:47.729Z</time></trkpt><trkpt lat="42.9531992" lon="12.0864074"><ele>422.0</ele><time>2026-05-02T09:42:49.729Z</time></trkpt><trkpt lat="42.9532236" lon="12.0863076"><ele>421.66666666666663</ele><time>2026-05-02T09:42:51.729Z</time></trkpt><trkpt lat="42.9532434" lon="12.0862158"><ele>421.3333333333333</ele><time>2026-05-02T09:42:56.729Z</time></trkpt><trkpt lat="42.9532714" lon="12.0861164"><ele>421.0</ele><time>2026-05-02T09:42:58.729Z</time></trkpt><trkpt lat="42.9532852" lon="12.0860111"><ele>420.66666666666663</ele><time>2026-05-02T09:43:00.729Z</time></trkpt><trkpt lat="42.9533112" lon="12.0859191"><ele>420.3333333333333</ele><time>2026-05-02T09:43:02.729Z</time></trkpt><trkpt lat="42.9533753" lon="12.0858366"><ele>420.0</ele><time>2026-05-02T09:43:04.729Z</time></trkpt><trkpt lat="42.9534408" lon="12.0857757"><ele>420.0</ele><time>2026-05-02T09:43:06.729Z</time></trkpt><trkpt lat="42.9535125" lon="12.085767"><ele>420.0</ele><time>2026-05-02T09:43:11.729Z</time></trkpt><trkpt lat="42.9534209" lon="12.0857761"><ele>420.0</ele><time>2026-05-02T09:43:23.729Z</time></trkpt><trkpt lat="42.9533544" lon="12.0858518"><ele>420.0</ele><time>2026-05-02T09:43:25.729Z</time></trkpt><trkpt lat="42.9533117" lon="12.0859513"><ele>420.0</ele><time>2026-05-02T09:43:27.729Z</time></trkpt><trkpt lat="42.9532898" lon="12.0860766"><ele>420.0</ele><time>2026-05-02T09:43:29.728Z</time></trkpt><trkpt lat="42.9532679" lon="12.0861644"><ele>420.0</ele><time>2026-05-02T09:43:31.729Z</time></trkpt><trkpt lat="42.9531834" lon="12.0861861"><ele>420.0</ele><time>2026-05-02T09:43:34.729Z</time></trkpt><trkpt lat="42.9530966" lon="12.0861335"><ele>420.0</ele><time>2026-05-02T09:43:36.729Z</time></trkpt><trkpt lat="42.9529958" lon="12.0860496"><ele>420.0</ele><time>2026-05-02T09:43:38.729Z</time></trkpt><trkpt lat="42.9529353" lon="12.0860066"><ele>420.0</ele><time>2026-05-02T09:43:39.729Z</time></trkpt><trkpt lat="42.9528761" lon="12.0859637"><ele>420.0</ele><time>2026-05-02T09:43:40.729Z</time></trkpt><trkpt lat="42.9528117" lon="12.085929"><ele>420.0</ele><time>2026-05-02T09:43:41.729Z</time></trkpt><trkpt lat="42.9527403" lon="12.0858729"><ele>420.0</ele><time>2026-05-02T09:43:42.729Z</time></trkpt><trkpt lat="42.9526743" lon="12.0858261"><ele>420.0</ele><time>2026-05-02T09:43:43.729Z</time></trkpt><trkpt lat="42.9526103" lon="12.0857747"><ele>420.0</ele><time>2026-05-02T09:43:44.729Z</time></trkpt><trkpt lat="42.9525372" lon="12.0857275"><ele>420.0</ele><time>2026-05-02T09:43:45.729Z</time></trkpt><trkpt lat="42.9524696" lon="12.0856809"><ele>420.0</ele><time>2026-05-02T09:43:46.729Z</time></trkpt><trkpt lat="42.9523952" lon="12.085638"><ele>420.8333333333333</ele><time>2026-05-02T09:43:47.729Z</time></trkpt><trkpt lat="42.9523228" lon="12.0855902"><ele>421.66666666666663</ele><time>2026-05-02T09:43:48.729Z</time></trkpt><trkpt lat="42.9522555" lon="12.0855398"><ele>422.5</ele><time>2026-05-02T09:43:49.729Z</time></trkpt><trkpt lat="42.9521843" lon="12.0854937"><ele>423.3333333333333</ele><time>2026-05-02T09:43:50.729Z</time></trkpt><trkpt lat="42.9521173" lon="12.0854382"><ele>424.16666666666663</ele><time>2026-05-02T09:43:51.729Z</time></trkpt><trkpt lat="42.9520264" lon="12.0853772"><ele>425.0</ele><time>2026-05-02T09:43:52.729Z</time></trkpt><trkpt lat="42.951955" lon="12.0853188"><ele>425.0</ele><time>2026-05-02T09:43:53.729Z</time></trkpt><trkpt lat="42.9518714" lon="12.085262"><ele>425.0</ele><time>2026-05-02T09:43:54.729Z</time></trkpt><trkpt lat="42.9517883" lon="12.0852015"><ele>425.0</ele><time>2026-05-02T09:43:55.729Z</time></trkpt><trkpt lat="42.9516999" lon="12.0851376"><ele>425.0</ele><time>2026-05-02T09:43:56.729Z</time></trkpt><trkpt lat="42.9516134" lon="12.0850808"><ele>425.0</ele><time>2026-05-02T09:43:57.729Z</time></trkpt><trkpt lat="42.9515227" lon="12.0850176"><ele>426.3333333333333</ele><time>2026-05-02T09:43:58.729Z</time></trkpt><trkpt lat="42.9514306" lon="12.084964"><ele>427.66666666666663</ele><time>2026-05-02T09:43:59.728Z</time></trkpt><trkpt lat="42.9513425" lon="12.0848997"><ele>429.0</ele><time>2026-05-02T09:44:00.729Z</time></trkpt><trkpt lat="42.9512632" lon="12.0848394"><ele>430.33333333333337</ele><time>2026-05-02T09:44:01.729Z</time></trkpt><trkpt lat="42.9511976" lon="12.0847846"><ele>431.6666666666667</ele><time>2026-05-02T09:44:02.729Z</time></trkpt><trkpt lat="42.9511328" lon="12.0847236"><ele>433.0</ele><time>2026-05-02T09:44:03.729Z</time></trkpt><trkpt lat="42.9510746" lon="12.0846578"><ele>433.00000000000006</ele><time>2026-05-02T09:44:04.729Z</time></trkpt><trkpt lat="42.951014" lon="12.0845873"><ele>433.0</ele><time>2026-05-02T09:44:05.729Z</time></trkpt><trkpt lat="42.9509527" lon="12.0845119"><ele>433.0</ele><time>2026-05-02T09:44:06.729Z</time></trkpt><trkpt lat="42.9508924" lon="12.0844399"><ele>433.0</ele><time>2026-05-02T09:44:07.729Z</time></trkpt><trkpt lat="42.9508342" lon="12.0843754"><ele>433.00000000000006</ele><time>2026-05-02T09:44:08.729Z</time></trkpt><trkpt lat="42.9507751" lon="12.0843078"><ele>433.0</ele><time>2026-05-02T09:44:09.729Z</time></trkpt><trkpt lat="42.9507163" lon="12.0842412"><ele>433.1666666666667</ele><time>2026-05-02T09:44:10.729Z</time></trkpt><trkpt lat="42.9506661" lon="12.0841688"><ele>433.33333333333337</ele><time>2026-05-02T09:44:11.729Z</time></trkpt><trkpt lat="42.9506126" lon="12.0841143"><ele>433.5</ele><time>2026-05-02T09:44:12.729Z</time></trkpt><trkpt lat="42.950561" lon="12.0840583"><ele>433.66666666666663</ele><time>2026-05-02T09:44:13.729Z</time></trkpt><trkpt lat="42.950511" lon="12.084001"><ele>433.8333333333333</ele><time>2026-05-02T09:44:14.729Z</time></trkpt><trkpt lat="42.950425" lon="12.083899"><ele>434.0</ele><time>2026-05-02T09:44:16.729Z</time></trkpt><trkpt lat="42.9503421" lon="12.0838145"><ele>434.0</ele><time>2026-05-02T09:44:18.729Z</time></trkpt><trkpt lat="42.9502727" lon="12.0837373"><ele>434.0</ele><time>2026-05-02T09:44:20.729Z</time></trkpt><trkpt lat="42.9502497" lon="12.0836423"><ele>434.0</ele><time>2026-05-02T09:44:22.729Z</time></trkpt><trkpt lat="42.950267" lon="12.0835162"><ele>434.0</ele><time>2026-05-02T09:44:24.729Z</time></trkpt><trkpt lat="42.9503207" lon="12.083373"><ele>434.0</ele><time>2026-05-02T09:44:26.729Z</time></trkpt><trkpt lat="42.9503919" lon="12.0832738"><ele>433.99999999999994</ele><time>2026-05-02T09:44:28.729Z</time></trkpt><trkpt lat="42.9504497" lon="12.0832213"><ele>434.0</ele><time>2026-05-02T09:44:30.729Z</time></trkpt><trkpt lat="42.9503728" lon="12.0833176"><ele>434.0</ele><time>2026-05-02T09:44:41.729Z</time></trkpt><trkpt lat="42.9503132" lon="12.0833671"><ele>434.0</ele><time>2026-05-02T09:44:43.729Z</time></trkpt><trkpt lat="42.950247" lon="12.0833171"><ele>433.99999999999994</ele><time>2026-05-02T09:44:46.729Z</time></trkpt><trkpt lat="42.9502177" lon="12.0832083"><ele>434.0</ele><time>2026-05-02T09:44:48.729Z</time></trkpt><trkpt lat="42.9501679" lon="12.0830857"><ele>432.49999999999994</ele><time>2026-05-02T09:44:50.729Z</time></trkpt><trkpt lat="42.9501319" lon="12.0830042"><ele>431.0</ele><time>2026-05-02T09:44:51.729Z</time></trkpt><trkpt lat="42.9500994" lon="12.0829044"><ele>429.5</ele><time>2026-05-02T09:44:53.729Z</time></trkpt><trkpt lat="42.9500954" lon="12.0828124"><ele>428.0</ele><time>2026-05-02T09:44:55.729Z</time></trkpt><trkpt lat="42.9501288" lon="12.0827135"><ele>426.49999999999994</ele><time>2026-05-02T09:44:57.729Z</time></trkpt><trkpt lat="42.9501966" lon="12.082634"><ele>425.0</ele><time>2026-05-02T09:44:59.729Z</time></trkpt><trkpt lat="42.9502134" lon="12.0825081"><ele>424.8333333333333</ele><time>2026-05-02T09:45:02.729Z</time></trkpt><trkpt lat="42.9502054" lon="12.0824212"><ele>424.66666666666663</ele><time>2026-05-02T09:45:04.729Z</time></trkpt><trkpt lat="42.9502277" lon="12.0823163"><ele>424.5</ele><time>2026-05-02T09:45:08.729Z</time></trkpt><trkpt lat="42.9502776" lon="12.0822353"><ele>424.33333333333337</ele><time>2026-05-02T09:45:11.729Z</time></trkpt><trkpt lat="42.9503147" lon="12.0821424"><ele>424.1666666666667</ele><time>2026-05-02T09:45:23.729Z</time></trkpt><trkpt lat="42.9503587" lon="12.0820705"><ele>424.0</ele><time>2026-05-02T09:45:25.729Z</time></trkpt><trkpt lat="42.9504089" lon="12.0819668"><ele>424.0</ele><time>2026-05-02T09:45:27.729Z</time></trkpt><trkpt lat="42.9504677" lon="12.0818619"><ele>424.0</ele><time>2026-05-02T09:45:29.729Z</time></trkpt><trkpt lat="42.9505312" lon="12.0818029"><ele>424.0</ele><time>2026-05-02T09:45:31.729Z</time></trkpt><trkpt lat="42.950612" lon="12.0817736"><ele>424.0</ele><time>2026-05-02T09:45:33.729Z</time></trkpt><trkpt lat="42.9507082" lon="12.0817438"><ele>424.0</ele><time>2026-05-02T09:45:35.729Z</time></trkpt><trkpt lat="42.9508127" lon="12.0817275"><ele>422.4</ele><time>2026-05-02T09:45:37.729Z</time></trkpt><trkpt lat="42.9509103" lon="12.0817033"><ele>420.79999999999995</ele><time>2026-05-02T09:45:39.729Z</time></trkpt><trkpt lat="42.9509977" lon="12.0816948"><ele>419.20000000000005</ele><time>2026-05-02T09:45:41.729Z</time></trkpt><trkpt lat="42.951075" lon="12.0817068"><ele>417.6</ele><time>2026-05-02T09:45:43.729Z</time></trkpt><trkpt lat="42.9511729" lon="12.0817134"><ele>416.0</ele><time>2026-05-02T09:45:45.729Z</time></trkpt><trkpt lat="42.9512675" lon="12.0816887"><ele>416.0</ele><time>2026-05-02T09:45:47.729Z</time></trkpt><trkpt lat="42.9513756" lon="12.081645"><ele>416.0</ele><time>2026-05-02T09:45:49.729Z</time></trkpt><trkpt lat="42.9514849" lon="12.0816398"><ele>416.0</ele><time>2026-05-02T09:45:51.729Z</time></trkpt><trkpt lat="42.9515787" lon="12.0816505"><ele>416.0</ele><time>2026-05-02T09:45:53.729Z</time></trkpt><trkpt lat="42.9516615" lon="12.0817041"><ele>416.0</ele><time>2026-05-02T09:45:55.729Z</time></trkpt><trkpt lat="42.951746" lon="12.0817686"><ele>414.49999999999994</ele><time>2026-05-02T09:45:57.729Z</time></trkpt><trkpt lat="42.95181" lon="12.0817908"><ele>413.0</ele><time>2026-05-02T09:45:59.729Z</time></trkpt><trkpt lat="42.951898" lon="12.0817778"><ele>411.5</ele><time>2026-05-02T09:46:13.729Z</time></trkpt><trkpt lat="42.9519649" lon="12.0817818"><ele>410.0</ele><time>2026-05-02T09:46:15.729Z</time></trkpt><trkpt lat="42.9520473" lon="12.0818271"><ele>408.49999999999994</ele><time>2026-05-02T09:46:17.729Z</time></trkpt><trkpt lat="42.9521182" lon="12.0818979"><ele>407.0</ele><time>2026-05-02T09:46:19.729Z</time></trkpt><trkpt lat="42.9521925" lon="12.0819054"><ele>407.00000000000006</ele><time>2026-05-02T09:46:21.729Z</time></trkpt><trkpt lat="42.9522544" lon="12.0819252"><ele>407.0</ele><time>2026-05-02T09:46:23.729Z</time></trkpt><trkpt lat="42.9523358" lon="12.0819706"><ele>407.0</ele><time>2026-05-02T09:46:25.729Z</time></trkpt><trkpt lat="42.9524145" lon="12.0819885"><ele>407.0</ele><time>2026-05-02T09:46:27.729Z</time></trkpt><trkpt lat="42.952478" lon="12.0820088"><ele>407.0</ele><time>2026-05-02T09:46:29.729Z</time></trkpt><trkpt lat="42.9525624" lon="12.0820312"><ele>407.00000000000006</ele><time>2026-05-02T09:46:32.729Z</time></trkpt><trkpt lat="42.9526251" lon="12.0820581"><ele>407.0</ele><time>2026-05-02T09:48:17.729Z</time></trkpt><trkpt lat="42.9527001" lon="12.0821082"><ele>405.8333333333333</ele><time>2026-05-02T09:48:27.729Z</time></trkpt><trkpt lat="42.9527852" lon="12.0821482"><ele>404.66666666666663</ele><time>2026-05-02T09:48:29.729Z</time></trkpt><trkpt lat="42.9528782" lon="12.0821968"><ele>403.5</ele><time>2026-05-02T09:48:31.729Z</time></trkpt><trkpt lat="42.952954" lon="12.0822399"><ele>402.33333333333337</ele><time>2026-05-02T09:48:33.729Z</time></trkpt><trkpt lat="42.9530232" lon="12.0822957"><ele>401.1666666666667</ele><time>2026-05-02T09:48:35.729Z</time></trkpt><trkpt lat="42.9531116" lon="12.0823463"><ele>400.0</ele><time>2026-05-02T09:48:37.729Z</time></trkpt><trkpt lat="42.9531768" lon="12.0823686"><ele>400.00000000000006</ele><time>2026-05-02T09:48:39.729Z</time></trkpt><trkpt lat="42.9532405" lon="12.0823963"><ele>400.0</ele><time>2026-05-02T09:48:41.729Z</time></trkpt><trkpt lat="42.9533278" lon="12.0824521"><ele>400.0</ele><time>2026-05-02T09:48:44.729Z</time></trkpt><trkpt lat="42.9533986" lon="12.0824823"><ele>400.0</ele><time>2026-05-02T09:48:46.729Z</time></trkpt><trkpt lat="42.9534762" lon="12.0825184"><ele>400.00000000000006</ele><time>2026-05-02T09:48:48.729Z</time></trkpt><trkpt lat="42.9535439" lon="12.082568"><ele>400.0</ele><time>2026-05-02T09:48:57.729Z</time></trkpt><trkpt lat="42.953627" lon="12.0826088"><ele>399.4</ele><time>2026-05-02T09:49:00.729Z</time></trkpt><trkpt lat="42.9536846" lon="12.0826449"><ele>398.8</ele><time>2026-05-02T09:49:02.729Z</time></trkpt><trkpt lat="42.9537929" lon="12.0827496"><ele>398.20000000000005</ele><time>2026-05-02T09:49:05.729Z</time></trkpt><trkpt lat="42.9539029" lon="12.0828237"><ele>397.6</ele><time>2026-05-02T09:49:07.729Z</time></trkpt><trkpt lat="42.9539834" lon="12.082881"><ele>397.0</ele><time>2026-05-02T09:49:08.729Z</time></trkpt><trkpt lat="42.954043" lon="12.0829188"><ele>397.0</ele><time>2026-05-02T09:49:09.729Z</time></trkpt><trkpt lat="42.9541293" lon="12.0829881"><ele>397.0</ele><time>2026-05-02T09:49:11.729Z</time></trkpt><trkpt lat="42.954185" lon="12.083032"><ele>397.0</ele><time>2026-05-02T09:49:13.729Z</time></trkpt><trkpt lat="42.9542473" lon="12.0830561"><ele>397.0</ele><time>2026-05-02T09:49:16.729Z</time></trkpt><trkpt lat="42.9543144" lon="12.0830895"><ele>397.0</ele><time>2026-05-02T09:49:18.729Z</time></trkpt><trkpt lat="42.9543791" lon="12.0831305"><ele>397.0</ele><time>2026-05-02T09:49:20.729Z</time></trkpt><trkpt lat="42.9544418" lon="12.0831564"><ele>397.0</ele><time>2026-05-02T09:49:22.729Z</time></trkpt><trkpt lat="42.9545102" lon="12.083206"><ele>396.6666666666667</ele><time>2026-05-02T09:49:24.729Z</time></trkpt><trkpt lat="42.954569" lon="12.0832478"><ele>396.33333333333337</ele><time>2026-05-02T09:49:26.729Z</time></trkpt><trkpt lat="42.954631" lon="12.0832932"><ele>396.0</ele><time>2026-05-02T09:49:28.729Z</time></trkpt><trkpt lat="42.9547008" lon="12.0833466"><ele>395.66666666666663</ele><time>2026-05-02T09:49:30.729Z</time></trkpt><trkpt lat="42.9547813" lon="12.0833776"><ele>395.3333333333333</ele><time>2026-05-02T09:49:32.729Z</time></trkpt><trkpt lat="42.9548634" lon="12.0834262"><ele>395.0</ele><time>2026-05-02T09:49:34.729Z</time></trkpt><trkpt lat="42.954924" lon="12.0834563"><ele>394.6</ele><time>2026-05-02T09:49:35.729Z</time></trkpt><trkpt lat="42.9550371" lon="12.0835114"><ele>394.2</ele><time>2026-05-02T09:49:37.729Z</time></trkpt><trkpt lat="42.9551314" lon="12.0835524"><ele>393.79999999999995</ele><time>2026-05-02T09:49:39.729Z</time></trkpt><trkpt lat="42.9552216" lon="12.0835643"><ele>393.4</ele><time>2026-05-02T09:49:41.729Z</time></trkpt><trkpt lat="42.9553124" lon="12.0835409"><ele>393.0</ele><time>2026-05-02T09:49:43.729Z</time></trkpt><trkpt lat="42.9554025" lon="12.0835031"><ele>393.0</ele><time>2026-05-02T09:49:45.729Z</time></trkpt><trkpt lat="42.9554856" lon="12.0835033"><ele>393.0</ele><time>2026-05-02T09:49:47.729Z</time></trkpt><trkpt lat="42.9555679" lon="12.0835447"><ele>393.0</ele><time>2026-05-02T09:49:49.729Z</time></trkpt><trkpt lat="42.9556393" lon="12.0835629"><ele>393.0</ele><time>2026-05-02T09:49:51.729Z</time></trkpt><trkpt lat="42.9557117" lon="12.0835542"><ele>393.0</ele><time>2026-05-02T09:49:59.729Z</time></trkpt><trkpt lat="42.9557848" lon="12.0835804"><ele>393.0</ele><time>2026-05-02T09:50:01.729Z</time></trkpt><trkpt lat="42.9558474" lon="12.0835948"><ele>392.0</ele><time>2026-05-02T09:50:02.729Z</time></trkpt><trkpt lat="42.9559609" lon="12.0836438"><ele>391.0</ele><time>2026-05-02T09:50:04.729Z</time></trkpt><trkpt lat="42.9560701" lon="12.083718"><ele>390.0</ele><time>2026-05-02T09:50:06.729Z</time></trkpt><trkpt lat="42.9561501" lon="12.0837914"><ele>389.0</ele><time>2026-05-02T09:50:08.729Z</time></trkpt><trkpt lat="42.9562306" lon="12.0838602"><ele>388.0</ele><time>2026-05-02T09:50:10.729Z</time></trkpt><trkpt lat="42.9563335" lon="12.0838778"><ele>388.0</ele><time>2026-05-02T09:50:12.729Z</time></trkpt><trkpt lat="42.9564322" lon="12.0838566"><ele>388.0</ele><time>2026-05-02T09:50:14.729Z</time></trkpt><trkpt lat="42.9564949" lon="12.0838335"><ele>388.0</ele><time>2026-05-02T09:50:18.729Z</time></trkpt><trkpt lat="42.9565184" lon="12.0837501"><ele>388.0</ele><time>2026-05-02T09:50:33.729Z</time></trkpt><trkpt lat="42.9565151" lon="12.0836517"><ele>388.0</ele><time>2026-05-02T09:50:36.729Z</time></trkpt><trkpt lat="42.9565396" lon="12.083552"><ele>388.0</ele><time>2026-05-02T09:50:40.729Z</time></trkpt><trkpt lat="42.9565255" lon="12.0834648"><ele>388.0</ele><time>2026-05-02T09:50:48.729Z</time></trkpt><trkpt lat="42.9564972" lon="12.0833711"><ele>388.0</ele><time>2026-05-02T09:50:58.729Z</time></trkpt><trkpt lat="42.9565249" lon="12.0832815"><ele>388.0</ele><time>2026-05-02T09:51:06.729Z</time></trkpt><trkpt lat="42.9565047" lon="12.0831999"><ele>388.0</ele><time>2026-05-02T09:51:19.729Z</time></trkpt><trkpt lat="42.9565001" lon="12.0832883"><ele>388.0</ele><time>2026-05-02T09:51:24.729Z</time></trkpt><trkpt lat="42.9564997" lon="12.0834026"><ele>388.0</ele><time>2026-05-02T09:51:30.729Z</time></trkpt><trkpt lat="42.9564718" lon="12.083484"><ele>388.0</ele><time>2026-05-02T09:51:33.729Z</time></trkpt><trkpt lat="42.9564555" lon="12.0835753"><ele>388.0</ele><time>2026-05-02T09:51:38.729Z</time></trkpt><trkpt lat="42.9565068" lon="12.0836354"><ele>388.0</ele><time>2026-05-02T09:51:52.729Z</time></trkpt><trkpt lat="42.9565082" lon="12.0837319"><ele>388.0</ele><time>2026-05-02T09:51:56.729Z</time></trkpt><trkpt lat="42.9564725" lon="12.0838517"><ele>388.0</ele><time>2026-05-02T09:51:59.729Z</time></trkpt><trkpt lat="42.9563735" lon="12.0839005"><ele>388.0</ele><time>2026-05-02T09:52:01.729Z</time></trkpt><trkpt lat="42.9562594" lon="12.0838659"><ele>388.0</ele><time>2026-05-02T09:52:03.729Z</time></trkpt><trkpt lat="42.9562061" lon="12.0838179"><ele>388.00000000000006</ele><time>2026-05-02T09:52:04.729Z</time></trkpt><trkpt lat="42.9561344" lon="12.0837492"><ele>388.0</ele><time>2026-05-02T09:52:06.729Z</time></trkpt><trkpt lat="42.9560719" lon="12.083698"><ele>388.0</ele><time>2026-05-02T09:52:31.729Z</time></trkpt><trkpt lat="42.9560072" lon="12.0836782"><ele>388.0</ele><time>2026-05-02T09:52:34.729Z</time></trkpt><trkpt lat="42.9560739" lon="12.0837056"><ele>388.00000000000006</ele><time>2026-05-02T09:52:44.729Z</time></trkpt><trkpt lat="42.9561702" lon="12.0837935"><ele>388.0</ele><time>2026-05-02T09:52:46.729Z</time></trkpt><trkpt lat="42.9562304" lon="12.0838484"><ele>388.0</ele><time>2026-05-02T09:52:47.729Z</time></trkpt><trkpt lat="42.9562887" lon="12.0838816"><ele>388.0</ele><time>2026-05-02T09:52:48.729Z</time></trkpt><trkpt lat="42.9563512" lon="12.0838965"><ele>388.0</ele><time>2026-05-02T09:52:49.729Z</time></trkpt><trkpt lat="42.9564144" lon="12.0838777"><ele>388.0</ele><time>2026-05-02T09:52:50.729Z</time></trkpt><trkpt lat="42.9564822" lon="12.0838407"><ele>388.0</ele><time>2026-05-02T09:52:51.729Z</time></trkpt><trkpt lat="42.9565423" lon="12.0838151"><ele>388.0</ele><time>2026-05-02T09:52:52.729Z</time></trkpt><trkpt lat="42.956636" lon="12.083793"><ele>388.0</ele><time>2026-05-02T09:52:54.729Z</time></trkpt><trkpt lat="42.9567368" lon="12.0837174"><ele>386.2</ele><time>2026-05-02T09:52:56.729Z</time></trkpt><trkpt lat="42.9568333" lon="12.0836505"><ele>384.4</ele><time>2026-05-02T09:52:58.729Z</time></trkpt><trkpt lat="42.9569367" lon="12.083637"><ele>382.59999999999997</ele><time>2026-05-02T09:53:00.729Z</time></trkpt><trkpt lat="42.9570473" lon="12.0836672"><ele>380.79999999999995</ele><time>2026-05-02T09:53:02.729Z</time></trkpt><trkpt lat="42.9571372" lon="12.0836974"><ele>379.0</ele><time>2026-05-02T09:53:04.729Z</time></trkpt><trkpt lat="42.9572175" lon="12.0837287"><ele>379.0</ele><time>2026-05-02T09:53:06.729Z</time></trkpt><trkpt lat="42.9573121" lon="12.0837928"><ele>379.0</ele><time>2026-05-02T09:53:08.729Z</time></trkpt><trkpt lat="42.9574164" lon="12.0838432"><ele>379.0</ele><time>2026-05-02T09:53:10.729Z</time></trkpt><trkpt lat="42.9574864" lon="12.0838674"><ele>379.0</ele><time>2026-05-02T09:53:12.729Z</time></trkpt><trkpt lat="42.9575557" lon="12.0838488"><ele>379.0</ele><time>2026-05-02T09:53:14.729Z</time></trkpt><trkpt lat="42.9576355" lon="12.0838017"><ele>379.0</ele><time>2026-05-02T09:53:17.729Z</time></trkpt><trkpt lat="42.9576525" lon="12.083675"><ele>376.8333333333333</ele><time>2026-05-02T09:53:20.729Z</time></trkpt><trkpt lat="42.9576503" lon="12.0835881"><ele>374.66666666666663</ele><time>2026-05-02T09:53:22.729Z</time></trkpt><trkpt lat="42.9576355" lon="12.0834931"><ele>372.5</ele><time>2026-05-02T09:53:24.729Z</time></trkpt><trkpt lat="42.9576334" lon="12.0833718"><ele>370.3333333333333</ele><time>2026-05-02T09:53:26.729Z</time></trkpt><trkpt lat="42.9576339" lon="12.0832245"><ele>368.1666666666667</ele><time>2026-05-02T09:53:28.729Z</time></trkpt><trkpt lat="42.9576253" lon="12.0831141"><ele>366.0</ele><time>2026-05-02T09:53:30.729Z</time></trkpt><trkpt lat="42.9575923" lon="12.0829918"><ele>365.6666666666667</ele><time>2026-05-02T09:53:33.729Z</time></trkpt><trkpt lat="42.9575494" lon="12.0828921"><ele>365.3333333333333</ele><time>2026-05-02T09:59:26.729Z</time></trkpt><trkpt lat="42.9575068" lon="12.0828065"><ele>365.0</ele><time>2026-05-02T09:59:29.729Z</time></trkpt><trkpt lat="42.9575168" lon="12.0826787"><ele>364.66666666666663</ele><time>2026-05-02T10:03:14.729Z</time></trkpt><trkpt lat="42.957524" lon="12.0825782"><ele>364.3333333333333</ele><time>2026-05-02T10:03:17.729Z</time></trkpt><trkpt lat="42.957593" lon="12.0826144"><ele>364.0</ele><time>2026-05-02T10:03:20.729Z</time></trkpt><trkpt lat="42.9576665" lon="12.0826142"><ele>364.0</ele><time>2026-05-02T10:04:23.729Z</time></trkpt><trkpt lat="42.9577419" lon="12.0826434"><ele>364.0</ele><time>2026-05-02T10:04:25.729Z</time></trkpt><trkpt lat="42.9577995" lon="12.0826844"><ele>364.0</ele><time>2026-05-02T10:04:26.729Z</time></trkpt><trkpt lat="42.9579147" lon="12.0827615"><ele>364.0</ele><time>2026-05-02T10:04:28.729Z</time></trkpt><trkpt lat="42.9579814" lon="12.0828035"><ele>364.0</ele><time>2026-05-02T10:04:29.729Z</time></trkpt><trkpt lat="42.9580569" lon="12.0828431"><ele>364.0</ele><time>2026-05-02T10:04:30.729Z</time></trkpt><trkpt lat="42.95815" lon="12.0828812"><ele>364.0</ele><time>2026-05-02T10:04:31.729Z</time></trkpt><trkpt lat="42.9582441" lon="12.0829032"><ele>364.0</ele><time>2026-05-02T10:04:32.729Z</time></trkpt><trkpt lat="42.9583476" lon="12.0829193"><ele>364.0</ele><time>2026-05-02T10:04:33.729Z</time></trkpt><trkpt lat="42.9584541" lon="12.082916"><ele>364.0</ele><time>2026-05-02T10:04:34.728Z</time></trkpt><trkpt lat="42.9585583" lon="12.0829172"><ele>364.0</ele><time>2026-05-02T10:04:35.729Z</time></trkpt><trkpt lat="42.95866" lon="12.0829095"><ele>364.0</ele><time>2026-05-02T10:04:36.729Z</time></trkpt><trkpt lat="42.9587555" lon="12.082897"><ele>364.0</ele><time>2026-05-02T10:04:37.729Z</time></trkpt><trkpt lat="42.9588429" lon="12.0828803"><ele>364.0</ele><time>2026-05-02T10:04:38.729Z</time></trkpt><trkpt lat="42.9589272" lon="12.0828694"><ele>364.0</ele><time>2026-05-02T10:04:39.729Z</time></trkpt><trkpt lat="42.959015" lon="12.0828582"><ele>364.0</ele><time>2026-05-02T10:04:40.729Z</time></trkpt><trkpt lat="42.9591042" lon="12.0828521"><ele>364.0</ele><time>2026-05-02T10:04:41.729Z</time></trkpt><trkpt lat="42.9591951" lon="12.082855"><ele>364.16666666666663</ele><time>2026-05-02T10:04:42.729Z</time></trkpt><trkpt lat="42.9592864" lon="12.0828483"><ele>364.3333333333333</ele><time>2026-05-02T10:04:43.729Z</time></trkpt><trkpt lat="42.9593838" lon="12.0828566"><ele>364.5</ele><time>2026-05-02T10:04:44.729Z</time></trkpt><trkpt lat="42.9594769" lon="12.0828609"><ele>364.6666666666667</ele><time>2026-05-02T10:04:45.729Z</time></trkpt><trkpt lat="42.9595628" lon="12.0828519"><ele>364.83333333333337</ele><time>2026-05-02T10:04:46.729Z</time></trkpt><trkpt lat="42.9596429" lon="12.0828547"><ele>365.0</ele><time>2026-05-02T10:04:47.729Z</time></trkpt><trkpt lat="42.9597166" lon="12.082858"><ele>365.0</ele><time>2026-05-02T10:04:48.729Z</time></trkpt><trkpt lat="42.9598326" lon="12.0828619"><ele>365.0</ele><time>2026-05-02T10:04:50.729Z</time></trkpt><trkpt lat="42.9598958" lon="12.0828613"><ele>365.0</ele><time>2026-05-02T10:04:51.729Z</time></trkpt><trkpt lat="42.9599648" lon="12.0828661"><ele>365.0</ele><time>2026-05-02T10:04:52.729Z</time></trkpt><trkpt lat="42.960046" lon="12.0828699"><ele>365.0</ele><time>2026-05-02T10:04:53.728Z</time></trkpt><trkpt lat="42.960128" lon="12.082876"><ele>365.0</ele><time>2026-05-02T10:04:54.729Z</time></trkpt><trkpt lat="42.9602192" lon="12.0828831"><ele>364.2</ele><time>2026-05-02T10:04:55.729Z</time></trkpt><trkpt lat="42.9603177" lon="12.0828937"><ele>363.4</ele><time>2026-05-02T10:04:56.729Z</time></trkpt><trkpt lat="42.9604194" lon="12.0829112"><ele>362.6</ele><time>2026-05-02T10:04:57.729Z</time></trkpt><trkpt lat="42.9605275" lon="12.0829241"><ele>361.8</ele><time>2026-05-02T10:04:58.729Z</time></trkpt><trkpt lat="42.9606394" lon="12.0829394"><ele>361.0</ele><time>2026-05-02T10:04:59.729Z</time></trkpt><trkpt lat="42.9607529" lon="12.0829557"><ele>360.5</ele><time>2026-05-02T10:05:00.729Z</time></trkpt><trkpt lat="42.9608749" lon="12.0829707"><ele>360.0</ele><time>2026-05-02T10:05:01.729Z</time></trkpt><trkpt lat="42.961" lon="12.0829891"><ele>359.5</ele><time>2026-05-02T10:05:02.729Z</time></trkpt><trkpt lat="42.9611288" lon="12.0830075"><ele>359.0</ele><time>2026-05-02T10:05:03.729Z</time></trkpt><trkpt lat="42.9612611" lon="12.0830264"><ele>359.0</ele><time>2026-05-02T10:05:04.728Z</time></trkpt><trkpt lat="42.9613848" lon="12.083043"><ele>359.0</ele><time>2026-05-02T10:05:05.729Z</time></trkpt><trkpt lat="42.9615094" lon="12.0830601"><ele>359.0</ele><time>2026-05-02T10:05:06.729Z</time></trkpt><trkpt lat="42.9616362" lon="12.0830741"><ele>359.0</ele><time>2026-05-02T10:05:07.729Z</time></trkpt><trkpt lat="42.961773" lon="12.0830803"><ele>358.5</ele><time>2026-05-02T10:05:08.729Z</time></trkpt><trkpt lat="42.9619021" lon="12.0830557"><ele>358.0</ele><time>2026-05-02T10:05:09.729Z</time></trkpt><trkpt lat="42.9620387" lon="12.0829918"><ele>357.5</ele><time>2026-05-02T10:05:10.729Z</time></trkpt><trkpt lat="42.962168" lon="12.0829037"><ele>357.0</ele><time>2026-05-02T10:05:11.729Z</time></trkpt><trkpt lat="42.9622865" lon="12.0827918"><ele>357.0</ele><time>2026-05-02T10:05:12.729Z</time></trkpt><trkpt lat="42.9624095" lon="12.0826748"><ele>357.0</ele><time>2026-05-02T10:05:13.729Z</time></trkpt><trkpt lat="42.9625251" lon="12.082561"><ele>357.0</ele><time>2026-05-02T10:05:14.729Z</time></trkpt><trkpt lat="42.9626479" lon="12.0824553"><ele>357.0</ele><time>2026-05-02T10:05:15.729Z</time></trkpt><trkpt lat="42.9627757" lon="12.0823685"><ele>356.75</ele><time>2026-05-02T10:05:16.729Z</time></trkpt><trkpt lat="42.9629133" lon="12.0823084"><ele>356.5</ele><time>2026-05-02T10:05:17.729Z</time></trkpt><trkpt lat="42.9630495" lon="12.0822669"><ele>356.25</ele><time>2026-05-02T10:05:18.729Z</time></trkpt><trkpt lat="42.9631898" lon="12.0822371"><ele>356.0</ele><time>2026-05-02T10:05:19.729Z</time></trkpt><trkpt lat="42.963334" lon="12.0822082"><ele>355.25</ele><time>2026-05-02T10:05:20.729Z</time></trkpt><trkpt lat="42.9634784" lon="12.0821885"><ele>354.5</ele><time>2026-05-02T10:05:21.729Z</time></trkpt><trkpt lat="42.9636264" lon="12.0821779"><ele>353.75</ele><time>2026-05-02T10:05:22.729Z</time></trkpt><trkpt lat="42.9637725" lon="12.0821805"><ele>353.0</ele><time>2026-05-02T10:05:23.729Z</time></trkpt><trkpt lat="42.9639182" lon="12.0822168"><ele>353.0</ele><time>2026-05-02T10:05:24.729Z</time></trkpt><trkpt lat="42.9640741" lon="12.082274"><ele>353.0</ele><time>2026-05-02T10:05:25.729Z</time></trkpt><trkpt lat="42.9642223" lon="12.0823402"><ele>353.0</ele><time>2026-05-02T10:05:26.729Z</time></trkpt><trkpt lat="42.9643683" lon="12.0824088"><ele>355.6666666666667</ele><time>2026-05-02T10:05:27.729Z</time></trkpt><trkpt lat="42.9645131" lon="12.0824842"><ele>358.3333333333333</ele><time>2026-05-02T10:05:28.729Z</time></trkpt><trkpt lat="42.9646513" lon="12.0825638"><ele>361.0</ele><time>2026-05-02T10:05:29.729Z</time></trkpt><trkpt lat="42.9647852" lon="12.0826535"><ele>361.0</ele><time>2026-05-02T10:05:30.729Z</time></trkpt><trkpt lat="42.964917" lon="12.0827505"><ele>361.0</ele><time>2026-05-02T10:05:31.729Z</time></trkpt><trkpt lat="42.965046" lon="12.0828491"><ele>361.0</ele><time>2026-05-02T10:05:32.729Z</time></trkpt><trkpt lat="42.9651714" lon="12.082945"><ele>361.0</ele><time>2026-05-02T10:05:33.729Z</time></trkpt><trkpt lat="42.9652855" lon="12.0830313"><ele>360.8</ele><time>2026-05-02T10:05:34.729Z</time></trkpt><trkpt lat="42.9653782" lon="12.0831038"><ele>360.6</ele><time>2026-05-02T10:05:35.729Z</time></trkpt><trkpt lat="42.9654595" lon="12.0831662"><ele>360.4</ele><time>2026-05-02T10:05:36.729Z</time></trkpt><trkpt lat="42.9655399" lon="12.0832233"><ele>360.2</ele><time>2026-05-02T10:05:37.729Z</time></trkpt><trkpt lat="42.9656304" lon="12.0832891"><ele>360.0</ele><time>2026-05-02T10:05:38.729Z</time></trkpt><trkpt lat="42.9657322" lon="12.0833514"><ele>360.0</ele><time>2026-05-02T10:05:39.729Z</time></trkpt><trkpt lat="42.9658351" lon="12.0834052"><ele>360.0</ele><time>2026-05-02T10:05:40.729Z</time></trkpt><trkpt lat="42.9659348" lon="12.0834488"><ele>360.0</ele><time>2026-05-02T10:05:41.729Z</time></trkpt><trkpt lat="42.966023" lon="12.0834824"><ele>360.0</ele><time>2026-05-02T10:05:42.728Z</time></trkpt><trkpt lat="42.9661097" lon="12.0835151"><ele>360.0</ele><time>2026-05-02T10:05:43.729Z</time></trkpt><trkpt lat="42.9661959" lon="12.0835483"><ele>360.0</ele><time>2026-05-02T10:05:44.729Z</time></trkpt><trkpt lat="42.9662941" lon="12.0835843"><ele>360.0</ele><time>2026-05-02T10:05:45.729Z</time></trkpt><trkpt lat="42.9664005" lon="12.0836167"><ele>360.0</ele><time>2026-05-02T10:05:46.729Z</time></trkpt><trkpt lat="42.9664975" lon="12.0836502"><ele>360.0</ele><time>2026-05-02T10:05:47.729Z</time></trkpt><trkpt lat="42.9665782" lon="12.0836739"><ele>360.0</ele><time>2026-05-02T10:05:48.729Z</time></trkpt><trkpt lat="42.9666518" lon="12.0836944"><ele>359.6666666666667</ele><time>2026-05-02T10:05:49.729Z</time></trkpt><trkpt lat="42.9667209" lon="12.083715"><ele>359.3333333333333</ele><time>2026-05-02T10:05:50.729Z</time></trkpt><trkpt lat="42.9667824" lon="12.0837381"><ele>359.0</ele><time>2026-05-02T10:05:51.729Z</time></trkpt><trkpt lat="42.9668941" lon="12.0837763"><ele>358.66666666666663</ele><time>2026-05-02T10:05:53.729Z</time></trkpt><trkpt lat="42.9669763" lon="12.0838108"><ele>358.3333333333333</ele><time>2026-05-02T10:05:55.729Z</time></trkpt><trkpt lat="42.9670471" lon="12.083835"><ele>358.0</ele><time>2026-05-02T10:05:57.729Z</time></trkpt><trkpt lat="42.9671526" lon="12.0838649"><ele>358.0</ele><time>2026-05-02T10:05:59.729Z</time></trkpt><trkpt lat="42.9672246" lon="12.0838931"><ele>358.0</ele><time>2026-05-02T10:06:00.729Z</time></trkpt><trkpt lat="42.9673051" lon="12.0839134"><ele>358.0</ele><time>2026-05-02T10:06:01.729Z</time></trkpt><trkpt lat="42.9673981" lon="12.0839465"><ele>358.0</ele><time>2026-05-02T10:06:02.729Z</time></trkpt><trkpt lat="42.9674941" lon="12.083986"><ele>358.0</ele><time>2026-05-02T10:06:03.729Z</time></trkpt><trkpt lat="42.9675956" lon="12.0840237"><ele>358.0</ele><time>2026-05-02T10:06:04.729Z</time></trkpt><trkpt lat="42.9677043" lon="12.084063"><ele>358.0</ele><time>2026-05-02T10:06:05.729Z</time></trkpt><trkpt lat="42.9678184" lon="12.0841124"><ele>358.0</ele><time>2026-05-02T10:06:06.729Z</time></trkpt><trkpt lat="42.9679316" lon="12.0841598"><ele>358.0</ele><time>2026-05-02T10:06:07.729Z</time></trkpt><trkpt lat="42.968046" lon="12.0842212"><ele>358.0</ele><time>2026-05-02T10:06:08.729Z</time></trkpt><trkpt lat="42.9681616" lon="12.0842823"><ele>358.0</ele><time>2026-05-02T10:06:09.729Z</time></trkpt><trkpt lat="42.9682766" lon="12.0843354"><ele>358.0</ele><time>2026-05-02T10:06:10.729Z</time></trkpt><trkpt lat="42.9683836" lon="12.0843878"><ele>358.0</ele><time>2026-05-02T10:06:11.729Z</time></trkpt><trkpt lat="42.9684919" lon="12.0844421"><ele>354.25</ele><time>2026-05-02T10:06:12.729Z</time></trkpt><trkpt lat="42.9686026" lon="12.0845073"><ele>350.5</ele><time>2026-05-02T10:06:13.729Z</time></trkpt><trkpt lat="42.9687119" lon="12.08458"><ele>346.75</ele><time>2026-05-02T10:06:14.729Z</time></trkpt><trkpt lat="42.9688111" lon="12.0846544"><ele>343.0</ele><time>2026-05-02T10:06:15.729Z</time></trkpt><trkpt lat="42.9689004" lon="12.0847296"><ele>343.0</ele><time>2026-05-02T10:06:16.728Z</time></trkpt><trkpt lat="42.9689879" lon="12.0848011"><ele>343.0</ele><time>2026-05-02T10:06:17.729Z</time></trkpt><trkpt lat="42.9690677" lon="12.0848675"><ele>343.0</ele><time>2026-05-02T10:06:18.729Z</time></trkpt><trkpt lat="42.9691433" lon="12.0849349"><ele>343.0</ele><time>2026-05-02T10:06:19.729Z</time></trkpt><trkpt lat="42.9692097" lon="12.0850059"><ele>343.0</ele><time>2026-05-02T10:06:20.729Z</time></trkpt><trkpt lat="42.9692782" lon="12.0850951"><ele>343.8333333333333</ele><time>2026-05-02T10:06:21.729Z</time></trkpt><trkpt lat="42.9693276" lon="12.0851877"><ele>344.66666666666663</ele><time>2026-05-02T10:06:22.729Z</time></trkpt><trkpt lat="42.9693639" lon="12.0852957"><ele>345.5</ele><time>2026-05-02T10:06:23.729Z</time></trkpt><trkpt lat="42.9693754" lon="12.0854099"><ele>346.3333333333333</ele><time>2026-05-02T10:06:24.729Z</time></trkpt><trkpt lat="42.9693603" lon="12.0855259"><ele>347.1666666666667</ele><time>2026-05-02T10:06:25.729Z</time></trkpt><trkpt lat="42.9693138" lon="12.0856224"><ele>348.0</ele><time>2026-05-02T10:06:26.729Z</time></trkpt><trkpt lat="42.9692575" lon="12.0857018"><ele>347.3333333333333</ele><time>2026-05-02T10:06:27.729Z</time></trkpt><trkpt lat="42.9692037" lon="12.0857753"><ele>346.6666666666667</ele><time>2026-05-02T10:06:28.729Z</time></trkpt><trkpt lat="42.9691557" lon="12.0858437"><ele>346.0</ele><time>2026-05-02T10:06:29.729Z</time></trkpt><trkpt lat="42.9691039" lon="12.0859082"><ele>345.33333333333337</ele><time>2026-05-02T10:06:30.729Z</time></trkpt><trkpt lat="42.9690131" lon="12.0860187"><ele>344.6666666666667</ele><time>2026-05-02T10:06:32.729Z</time></trkpt><trkpt lat="42.9689314" lon="12.0861242"><ele>344.0</ele><time>2026-05-02T10:06:34.729Z</time></trkpt><trkpt lat="42.9688658" lon="12.086229"><ele>344.0</ele><time>2026-05-02T10:06:36.729Z</time></trkpt><trkpt lat="42.9688178" lon="12.0863441"><ele>344.0</ele><time>2026-05-02T10:06:38.729Z</time></trkpt><trkpt lat="42.9688057" lon="12.086464"><ele>344.0</ele><time>2026-05-02T10:06:40.729Z</time></trkpt><trkpt lat="42.9688306" lon="12.0866288"><ele>344.0</ele><time>2026-05-02T10:06:42.729Z</time></trkpt><trkpt lat="42.9688582" lon="12.0867116"><ele>344.0</ele><time>2026-05-02T10:06:43.729Z</time></trkpt><trkpt lat="42.9689081" lon="12.0867811"><ele>344.0</ele><time>2026-05-02T10:06:44.729Z</time></trkpt><trkpt lat="42.9689807" lon="12.0868368"><ele>344.79999999999995</ele><time>2026-05-02T10:06:45.729Z</time></trkpt><trkpt lat="42.9690737" lon="12.0868784"><ele>345.59999999999997</ele><time>2026-05-02T10:06:46.729Z</time></trkpt><trkpt lat="42.969172" lon="12.0869108"><ele>346.4</ele><time>2026-05-02T10:06:47.729Z</time></trkpt><trkpt lat="42.9692721" lon="12.0869405"><ele>347.2</ele><time>2026-05-02T10:06:48.729Z</time></trkpt><trkpt lat="42.9693781" lon="12.086968"><ele>348.0</ele><time>2026-05-02T10:06:49.729Z</time></trkpt><trkpt lat="42.9694966" lon="12.0870002"><ele>348.0</ele><time>2026-05-02T10:06:50.729Z</time></trkpt><trkpt lat="42.9696199" lon="12.0870282"><ele>348.0</ele><time>2026-05-02T10:06:51.729Z</time></trkpt><trkpt lat="42.9697377" lon="12.0870586"><ele>348.0</ele><time>2026-05-02T10:06:52.729Z</time></trkpt><trkpt lat="42.9698533" lon="12.0870862"><ele>348.0</ele><time>2026-05-02T10:06:53.729Z</time></trkpt><trkpt lat="42.9699673" lon="12.0871219"><ele>347.75</ele><time>2026-05-02T10:06:54.729Z</time></trkpt><trkpt lat="42.9700963" lon="12.087162"><ele>347.5</ele><time>2026-05-02T10:06:55.729Z</time></trkpt><trkpt lat="42.9702299" lon="12.0871914"><ele>347.25</ele><time>2026-05-02T10:06:56.729Z</time></trkpt><trkpt lat="42.9703693" lon="12.0872308"><ele>347.0</ele><time>2026-05-02T10:06:57.729Z</time></trkpt><trkpt lat="42.9705092" lon="12.0872768"><ele>347.0</ele><time>2026-05-02T10:06:58.729Z</time></trkpt><trkpt lat="42.9706462" lon="12.0873202"><ele>347.0</ele><time>2026-05-02T10:06:59.729Z</time></trkpt><trkpt lat="42.9707833" lon="12.0873619"><ele>347.0</ele><time>2026-05-02T10:07:00.729Z</time></trkpt><trkpt lat="42.9709082" lon="12.0873967"><ele>347.0</ele><time>2026-05-02T10:07:01.729Z</time></trkpt><trkpt lat="42.9710375" lon="12.0874404"><ele>340.0</ele><time>2026-05-02T10:07:02.729Z</time></trkpt><trkpt lat="42.9711655" lon="12.087486"><ele>333.0</ele><time>2026-05-02T10:07:03.729Z</time></trkpt><trkpt lat="42.9712873" lon="12.0875171"><ele>326.0</ele><time>2026-05-02T10:07:04.729Z</time></trkpt><trkpt lat="42.971396" lon="12.0875322"><ele>319.0</ele><time>2026-05-02T10:07:05.729Z</time></trkpt><trkpt lat="42.9715036" lon="12.0875043"><ele>320.5</ele><time>2026-05-02T10:07:06.729Z</time></trkpt><trkpt lat="42.9715983" lon="12.0874191"><ele>322.0</ele><time>2026-05-02T10:07:07.729Z</time></trkpt><trkpt lat="42.9716746" lon="12.0872929"><ele>323.5</ele><time>2026-05-02T10:07:08.729Z</time></trkpt><trkpt lat="42.971724" lon="12.087152"><ele>325.0</ele><time>2026-05-02T10:07:09.729Z</time></trkpt><trkpt lat="42.9717496" lon="12.0869906"><ele>320.75</ele><time>2026-05-02T10:07:10.729Z</time></trkpt><trkpt lat="42.9717399" lon="12.0868092"><ele>316.5</ele><time>2026-05-02T10:07:11.729Z</time></trkpt><trkpt lat="42.9717075" lon="12.086624"><ele>312.25</ele><time>2026-05-02T10:07:12.729Z</time></trkpt><trkpt lat="42.9716602" lon="12.0864497"><ele>308.0</ele><time>2026-05-02T10:07:13.729Z</time></trkpt><trkpt lat="42.9715995" lon="12.0862967"><ele>308.0</ele><time>2026-05-02T10:07:14.729Z</time></trkpt><trkpt lat="42.9715326" lon="12.0861615"><ele>308.0</ele><time>2026-05-02T10:07:15.729Z</time></trkpt><trkpt lat="42.9714647" lon="12.0860401"><ele>308.0</ele><time>2026-05-02T10:07:16.729Z</time></trkpt><trkpt lat="42.971398" lon="12.0859204"><ele>308.0</ele><time>2026-05-02T10:07:17.729Z</time></trkpt><trkpt lat="42.9713424" lon="12.0858201"><ele>308.0</ele><time>2026-05-02T10:07:18.729Z</time></trkpt><trkpt lat="42.9713209" lon="12.0857211"><ele>308.0</ele><time>2026-05-02T10:07:19.729Z</time></trkpt><trkpt lat="42.9713746" lon="12.0855855"><ele>308.0</ele><time>2026-05-02T10:07:21.729Z</time></trkpt><trkpt lat="42.9715029" lon="12.085648"><ele>308.0</ele><time>2026-05-02T10:07:23.729Z</time></trkpt><trkpt lat="42.9715734" lon="12.0857644"><ele>308.0</ele><time>2026-05-02T10:07:24.729Z</time></trkpt><trkpt lat="42.9716452" lon="12.0859132"><ele>301.75</ele><time>2026-05-02T10:07:25.729Z</time></trkpt><trkpt lat="42.9717173" lon="12.0860572"><ele>295.5</ele><time>2026-05-02T10:07:26.729Z</time></trkpt><trkpt lat="42.9717911" lon="12.0862098"><ele>289.25</ele><time>2026-05-02T10:07:27.729Z</time></trkpt><trkpt lat="42.9718626" lon="12.086364"><ele>283.0</ele><time>2026-05-02T10:07:28.729Z</time></trkpt><trkpt lat="42.9719375" lon="12.0865122"><ele>285.0</ele><time>2026-05-02T10:07:29.729Z</time></trkpt><trkpt lat="42.9720063" lon="12.0866479"><ele>287.0</ele><time>2026-05-02T10:07:30.729Z</time></trkpt><trkpt lat="42.9720709" lon="12.0867885"><ele>289.0</ele><time>2026-05-02T10:07:31.729Z</time></trkpt><trkpt lat="42.9721333" lon="12.0869167"><ele>291.0</ele><time>2026-05-02T10:07:32.729Z</time></trkpt><trkpt lat="42.9721759" lon="12.0870582"><ele>291.0</ele><time>2026-05-02T10:07:33.729Z</time></trkpt><trkpt lat="42.9721834" lon="12.0872241"><ele>291.0</ele><time>2026-05-02T10:07:34.729Z</time></trkpt><trkpt lat="42.9721473" lon="12.0873818"><ele>291.0</ele><time>2026-05-02T10:07:35.729Z</time></trkpt><trkpt lat="42.9720838" lon="12.0875117"><ele>291.0</ele><time>2026-05-02T10:07:36.729Z</time></trkpt><trkpt lat="42.9720196" lon="12.0876179"><ele>291.8</ele><time>2026-05-02T10:07:37.729Z</time></trkpt><trkpt lat="42.9719681" lon="12.0877099"><ele>292.6</ele><time>2026-05-02T10:07:38.729Z</time></trkpt><trkpt lat="42.9719467" lon="12.0878005"><ele>293.4</ele><time>2026-05-02T10:07:39.729Z</time></trkpt><trkpt lat="42.9720097" lon="12.0879441"><ele>294.2</ele><time>2026-05-02T10:07:41.729Z</time></trkpt><trkpt lat="42.9720865" lon="12.0879698"><ele>295.0</ele><time>2026-05-02T10:07:42.729Z</time></trkpt><trkpt lat="42.9721912" lon="12.0879408"><ele>295.0</ele><time>2026-05-02T10:07:43.729Z</time></trkpt><trkpt lat="42.9722877" lon="12.0878612"><ele>295.0</ele><time>2026-05-02T10:07:44.729Z</time></trkpt><trkpt lat="42.9723755" lon="12.0877303"><ele>295.0</ele><time>2026-05-02T10:07:45.729Z</time></trkpt><trkpt lat="42.9724376" lon="12.0875762"><ele>295.0</ele><time>2026-05-02T10:07:46.729Z</time></trkpt><trkpt lat="42.9724858" lon="12.0874064"><ele>294.0</ele><time>2026-05-02T10:07:47.728Z</time></trkpt><trkpt lat="42.9724993" lon="12.0872394"><ele>293.0</ele><time>2026-05-02T10:07:48.729Z</time></trkpt><trkpt lat="42.9724906" lon="12.087059"><ele>292.0</ele><time>2026-05-02T10:07:49.729Z</time></trkpt><trkpt lat="42.9724607" lon="12.0868791"><ele>291.0</ele><time>2026-05-02T10:07:50.729Z</time></trkpt><trkpt lat="42.9723983" lon="12.0867013"><ele>289.0</ele><time>2026-05-02T10:07:51.729Z</time></trkpt><trkpt lat="42.9723452" lon="12.0865325"><ele>287.0</ele><time>2026-05-02T10:07:52.729Z</time></trkpt><trkpt lat="42.9723159" lon="12.0863517"><ele>285.0</ele><time>2026-05-02T10:07:53.729Z</time></trkpt><trkpt lat="42.9723183" lon="12.086167"><ele>283.0</ele><time>2026-05-02T10:07:54.729Z</time></trkpt><trkpt lat="42.9723402" lon="12.0859755"><ele>283.0</ele><time>2026-05-02T10:07:55.729Z</time></trkpt><trkpt lat="42.972382" lon="12.0857788"><ele>283.0</ele><time>2026-05-02T10:07:56.729Z</time></trkpt><trkpt lat="42.9724301" lon="12.0855699"><ele>283.0</ele><time>2026-05-02T10:07:57.729Z</time></trkpt><trkpt lat="42.9724895" lon="12.0853777"><ele>284.0</ele><time>2026-05-02T10:07:58.729Z</time></trkpt><trkpt lat="42.9725538" lon="12.0852075"><ele>285.0</ele><time>2026-05-02T10:07:59.729Z</time></trkpt><trkpt lat="42.9726106" lon="12.0850507"><ele>286.0</ele><time>2026-05-02T10:08:00.729Z</time></trkpt><trkpt lat="42.9726587" lon="12.0849335"><ele>287.0</ele><time>2026-05-02T10:08:01.729Z</time></trkpt><trkpt lat="42.9726979" lon="12.0848261"><ele>287.6666666666667</ele><time>2026-05-02T10:08:02.729Z</time></trkpt><trkpt lat="42.9727312" lon="12.0847288"><ele>288.33333333333337</ele><time>2026-05-02T10:08:03.729Z</time></trkpt><trkpt lat="42.9727697" lon="12.0846483"><ele>289.0</ele><time>2026-05-02T10:08:04.729Z</time></trkpt><trkpt lat="42.9728338" lon="12.0845373"><ele>289.6666666666667</ele><time>2026-05-02T10:08:06.729Z</time></trkpt><trkpt lat="42.9728994" lon="12.0844679"><ele>290.3333333333333</ele><time>2026-05-02T10:08:09.729Z</time></trkpt><trkpt lat="42.9729286" lon="12.0843863"><ele>291.0</ele><time>2026-05-02T10:08:19.729Z</time></trkpt><trkpt lat="42.9729208" lon="12.0842601"><ele>291.0</ele><time>2026-05-02T10:08:22.729Z</time></trkpt><trkpt lat="42.9728442" lon="12.0841274"><ele>291.0</ele><time>2026-05-02T10:08:24.729Z</time></trkpt><trkpt lat="42.9727933" lon="12.0840506"><ele>291.0</ele><time>2026-05-02T10:08:25.729Z</time></trkpt><trkpt lat="42.9727318" lon="12.0839521"><ele>291.0</ele><time>2026-05-02T10:08:26.729Z</time></trkpt><trkpt lat="42.9726772" lon="12.0838626"><ele>291.0</ele><time>2026-05-02T10:08:27.729Z</time></trkpt><trkpt lat="42.9726205" lon="12.0837636"><ele>291.0</ele><time>2026-05-02T10:08:28.729Z</time></trkpt><trkpt lat="42.9725574" lon="12.083655"><ele>291.0</ele><time>2026-05-02T10:08:29.729Z</time></trkpt><trkpt lat="42.9724825" lon="12.0835478"><ele>291.0</ele><time>2026-05-02T10:08:30.729Z</time></trkpt><trkpt lat="42.9724045" lon="12.0834411"><ele>291.0</ele><time>2026-05-02T10:08:31.729Z</time></trkpt><trkpt lat="42.9723142" lon="12.0833468"><ele>291.0</ele><time>2026-05-02T10:08:32.729Z</time></trkpt><trkpt lat="42.9722222" lon="12.0832661"><ele>293.75</ele><time>2026-05-02T10:08:33.729Z</time></trkpt><trkpt lat="42.9721397" lon="12.0831859"><ele>296.5</ele><time>2026-05-02T10:08:34.728Z</time></trkpt><trkpt lat="42.9720506" lon="12.0831023"><ele>299.25</ele><time>2026-05-02T10:08:35.729Z</time></trkpt><trkpt lat="42.9719604" lon="12.0830056"><ele>302.0</ele><time>2026-05-02T10:08:36.729Z</time></trkpt><trkpt lat="42.9718734" lon="12.0828769"><ele>302.0</ele><time>2026-05-02T10:08:37.729Z</time></trkpt><trkpt lat="42.9718005" lon="12.0827349"><ele>302.0</ele><time>2026-05-02T10:08:38.729Z</time></trkpt><trkpt lat="42.9717646" lon="12.082594"><ele>302.0</ele><time>2026-05-02T10:08:39.729Z</time></trkpt><trkpt lat="42.9717643" lon="12.082452"><ele>302.0</ele><time>2026-05-02T10:08:40.729Z</time></trkpt><trkpt lat="42.9718009" lon="12.0823231"><ele>302.0</ele><time>2026-05-02T10:08:41.729Z</time></trkpt><trkpt lat="42.9718697" lon="12.0821957"><ele>302.8</ele><time>2026-05-02T10:08:42.729Z</time></trkpt><trkpt lat="42.9719471" lon="12.0820659"><ele>303.6</ele><time>2026-05-02T10:08:43.729Z</time></trkpt><trkpt lat="42.9720136" lon="12.0819343"><ele>304.40000000000003</ele><time>2026-05-02T10:08:44.729Z</time></trkpt><trkpt lat="42.972068" lon="12.0818168"><ele>305.2</ele><time>2026-05-02T10:08:45.729Z</time></trkpt><trkpt lat="42.9721071" lon="12.0817151"><ele>306.0</ele><time>2026-05-02T10:08:46.729Z</time></trkpt><trkpt lat="42.9721312" lon="12.0816284"><ele>306.0</ele><time>2026-05-02T10:08:47.729Z</time></trkpt><trkpt lat="42.9721702" lon="12.0815043"><ele>306.0</ele><time>2026-05-02T10:08:49.729Z</time></trkpt><trkpt lat="42.9722359" lon="12.0814953"><ele>306.0</ele><time>2026-05-02T10:08:51.729Z</time></trkpt><trkpt lat="42.9723009" lon="12.0815561"><ele>306.0</ele><time>2026-05-02T10:08:53.729Z</time></trkpt><trkpt lat="42.9723951" lon="12.081596"><ele>306.0</ele><time>2026-05-02T10:08:55.729Z</time></trkpt><trkpt lat="42.9724842" lon="12.0816137"><ele>306.0</ele><time>2026-05-02T10:08:57.729Z</time></trkpt><trkpt lat="42.9725727" lon="12.0816074"><ele>309.5</ele><time>2026-05-02T10:08:59.729Z</time></trkpt><trkpt lat="42.9726748" lon="12.081562"><ele>313.0</ele><time>2026-05-02T10:09:01.729Z</time></trkpt><trkpt lat="42.9727857" lon="12.0815056"><ele>316.5</ele><time>2026-05-02T10:09:03.729Z</time></trkpt><trkpt lat="42.9728461" lon="12.0814728"><ele>320.0</ele><time>2026-05-02T10:09:04.729Z</time></trkpt><trkpt lat="42.9729129" lon="12.0814403"><ele>323.5</ele><time>2026-05-02T10:09:05.729Z</time></trkpt><trkpt lat="42.9729821" lon="12.0814199"><ele>327.0</ele><time>2026-05-02T10:09:06.729Z</time></trkpt><trkpt lat="42.9730585" lon="12.0813897"><ele>327.0</ele><time>2026-05-02T10:09:07.729Z</time></trkpt><trkpt lat="42.973136" lon="12.0813634"><ele>327.0</ele><time>2026-05-02T10:09:08.729Z</time></trkpt><trkpt lat="42.973229" lon="12.0813489"><ele>327.0</ele><time>2026-05-02T10:09:09.729Z</time></trkpt><trkpt lat="42.9733177" lon="12.0813446"><ele>327.0</ele><time>2026-05-02T10:09:10.729Z</time></trkpt><trkpt lat="42.9734144" lon="12.0813443"><ele>327.0</ele><time>2026-05-02T10:09:11.729Z</time></trkpt><trkpt lat="42.9734933" lon="12.0813373"><ele>327.0</ele><time>2026-05-02T10:09:12.729Z</time></trkpt><trkpt lat="42.9735853" lon="12.0813169"><ele>328.0</ele><time>2026-05-02T10:09:13.729Z</time></trkpt><trkpt lat="42.9736719" lon="12.0813002"><ele>329.0</ele><time>2026-05-02T10:09:14.729Z</time></trkpt><trkpt lat="42.9737527" lon="12.0813037"><ele>330.0</ele><time>2026-05-02T10:09:15.729Z</time></trkpt><trkpt lat="42.9738339" lon="12.0813172"><ele>331.0</ele><time>2026-05-02T10:09:16.729Z</time></trkpt><trkpt lat="42.973913" lon="12.0813534"><ele>332.0</ele><time>2026-05-02T10:09:17.729Z</time></trkpt><trkpt lat="42.9739896" lon="12.0814038"><ele>333.0</ele><time>2026-05-02T10:09:18.729Z</time></trkpt><trkpt lat="42.9740578" lon="12.0814524"><ele>333.0</ele><time>2026-05-02T10:09:19.729Z</time></trkpt><trkpt lat="42.9741662" lon="12.0814638"><ele>333.0</ele><time>2026-05-02T10:09:21.729Z</time></trkpt><trkpt lat="42.9742564" lon="12.0813347"><ele>333.0</ele><time>2026-05-02T10:09:23.729Z</time></trkpt><trkpt lat="42.9743128" lon="12.0812364"><ele>333.0</ele><time>2026-05-02T10:09:24.729Z</time></trkpt><trkpt lat="42.974363" lon="12.0811144"><ele>333.0</ele><time>2026-05-02T10:09:25.729Z</time></trkpt><trkpt lat="42.9744077" lon="12.0809956"><ele>335.0</ele><time>2026-05-02T10:09:26.729Z</time></trkpt><trkpt lat="42.9744649" lon="12.0808668"><ele>337.0</ele><time>2026-05-02T10:09:27.729Z</time></trkpt><trkpt lat="42.9745248" lon="12.0807338"><ele>339.0</ele><time>2026-05-02T10:09:28.729Z</time></trkpt><trkpt lat="42.9745891" lon="12.0805882"><ele>341.0</ele><time>2026-05-02T10:09:29.729Z</time></trkpt><trkpt lat="42.9746565" lon="12.0804461"><ele>342.25</ele><time>2026-05-02T10:09:30.729Z</time></trkpt><trkpt lat="42.9747225" lon="12.0802932"><ele>343.5</ele><time>2026-05-02T10:09:31.729Z</time></trkpt><trkpt lat="42.9747918" lon="12.0801374"><ele>344.75</ele><time>2026-05-02T10:09:32.729Z</time></trkpt><trkpt lat="42.9748619" lon="12.0799753"><ele>346.0</ele><time>2026-05-02T10:09:33.729Z</time></trkpt><trkpt lat="42.9749327" lon="12.079815"><ele>346.0</ele><time>2026-05-02T10:09:34.729Z</time></trkpt><trkpt lat="42.9750074" lon="12.0796575"><ele>346.0</ele><time>2026-05-02T10:09:35.729Z</time></trkpt><trkpt lat="42.9750787" lon="12.0795073"><ele>346.0</ele><time>2026-05-02T10:09:36.729Z</time></trkpt><trkpt lat="42.9751395" lon="12.0793772"><ele>346.0</ele><time>2026-05-02T10:09:37.729Z</time></trkpt><trkpt lat="42.9751903" lon="12.0792624"><ele>346.0</ele><time>2026-05-02T10:09:38.729Z</time></trkpt><trkpt lat="42.9752398" lon="12.0791552"><ele>346.0</ele><time>2026-05-02T10:09:39.729Z</time></trkpt><trkpt lat="42.9752835" lon="12.079065"><ele>346.0</ele><time>2026-05-02T10:09:40.729Z</time></trkpt><trkpt lat="42.9753214" lon="12.0789812"><ele>346.0</ele><time>2026-05-02T10:09:41.729Z</time></trkpt><trkpt lat="42.9753825" lon="12.0788438"><ele>346.0</ele><time>2026-05-02T10:09:43.729Z</time></trkpt><trkpt lat="42.9754486" lon="12.0787107"><ele>346.8</ele><time>2026-05-02T10:09:45.729Z</time></trkpt><trkpt lat="42.9754962" lon="12.0786197"><ele>347.6</ele><time>2026-05-02T10:09:46.729Z</time></trkpt><trkpt lat="42.9755493" lon="12.0785145"><ele>348.4</ele><time>2026-05-02T10:09:47.729Z</time></trkpt><trkpt lat="42.9756021" lon="12.078402"><ele>349.2</ele><time>2026-05-02T10:09:48.729Z</time></trkpt><trkpt lat="42.975667" lon="12.0782863"><ele>350.0</ele><time>2026-05-02T10:09:49.729Z</time></trkpt><trkpt lat="42.9757247" lon="12.078169"><ele>350.2</ele><time>2026-05-02T10:09:50.729Z</time></trkpt><trkpt lat="42.9757835" lon="12.0780569"><ele>350.4</ele><time>2026-05-02T10:09:51.729Z</time></trkpt><trkpt lat="42.9758382" lon="12.0779466"><ele>350.6</ele><time>2026-05-02T10:09:52.729Z</time></trkpt><trkpt lat="42.975884" lon="12.0778405"><ele>350.8</ele><time>2026-05-02T10:09:53.729Z</time></trkpt><trkpt lat="42.9759346" lon="12.0777282"><ele>351.0</ele><time>2026-05-02T10:09:54.729Z</time></trkpt><trkpt lat="42.9759836" lon="12.0776188"><ele>351.0</ele><time>2026-05-02T10:09:55.729Z</time></trkpt><trkpt lat="42.9760446" lon="12.0775068"><ele>351.0</ele><time>2026-05-02T10:09:56.729Z</time></trkpt><trkpt lat="42.9761076" lon="12.0773807"><ele>351.0</ele><time>2026-05-02T10:09:57.729Z</time></trkpt><trkpt lat="42.9761735" lon="12.0772413"><ele>351.0</ele><time>2026-05-02T10:09:58.729Z</time></trkpt><trkpt lat="42.976237" lon="12.0771051"><ele>352.20000000000005</ele><time>2026-05-02T10:09:59.729Z</time></trkpt><trkpt lat="42.9762976" lon="12.0769827"><ele>353.40000000000003</ele><time>2026-05-02T10:10:00.729Z</time></trkpt><trkpt lat="42.9763531" lon="12.0768614"><ele>354.6</ele><time>2026-05-02T10:10:01.729Z</time></trkpt><trkpt lat="42.9764056" lon="12.0767623"><ele>355.8</ele><time>2026-05-02T10:10:02.729Z</time></trkpt><trkpt lat="42.9764603" lon="12.0766788"><ele>357.0</ele><time>2026-05-02T10:10:03.729Z</time></trkpt><trkpt lat="42.9765157" lon="12.0766065"><ele>357.0</ele><time>2026-05-02T10:10:04.729Z</time></trkpt><trkpt lat="42.9765679" lon="12.0765382"><ele>357.0</ele><time>2026-05-02T10:10:05.729Z</time></trkpt><trkpt lat="42.9766145" lon="12.0764752"><ele>357.0</ele><time>2026-05-02T10:10:06.729Z</time></trkpt><trkpt lat="42.9766605" lon="12.0764018"><ele>357.0</ele><time>2026-05-02T10:10:07.729Z</time></trkpt><trkpt lat="42.9766949" lon="12.0763232"><ele>357.0</ele><time>2026-05-02T10:10:08.729Z</time></trkpt><trkpt lat="42.9767295" lon="12.0762411"><ele>357.0</ele><time>2026-05-02T10:10:09.729Z</time></trkpt><trkpt lat="42.9767555" lon="12.0761618"><ele>357.0</ele><time>2026-05-02T10:10:10.729Z</time></trkpt><trkpt lat="42.9767759" lon="12.0760775"><ele>356.3333333333333</ele><time>2026-05-02T10:10:11.729Z</time></trkpt><trkpt lat="42.9767955" lon="12.0759906"><ele>355.6666666666667</ele><time>2026-05-02T10:10:12.729Z</time></trkpt><trkpt lat="42.9768351" lon="12.075842"><ele>355.0</ele><time>2026-05-02T10:10:14.729Z</time></trkpt><trkpt lat="42.9768685" lon="12.0756913"><ele>354.33333333333337</ele><time>2026-05-02T10:10:16.729Z</time></trkpt><trkpt lat="42.9768953" lon="12.0756071"><ele>353.6666666666667</ele><time>2026-05-02T10:10:17.729Z</time></trkpt><trkpt lat="42.976915" lon="12.0755116"><ele>353.0</ele><time>2026-05-02T10:10:18.729Z</time></trkpt><trkpt lat="42.9769427" lon="12.0754059"><ele>353.59999999999997</ele><time>2026-05-02T10:10:19.729Z</time></trkpt><trkpt lat="42.9769741" lon="12.0752867"><ele>354.2</ele><time>2026-05-02T10:10:20.729Z</time></trkpt><trkpt lat="42.9770124" lon="12.0751585"><ele>354.8</ele><time>2026-05-02T10:10:21.729Z</time></trkpt><trkpt lat="42.9770626" lon="12.0750356"><ele>355.4</ele><time>2026-05-02T10:10:22.729Z</time></trkpt><trkpt lat="42.9771242" lon="12.0749088"><ele>356.0</ele><time>2026-05-02T10:10:23.729Z</time></trkpt><trkpt lat="42.9771885" lon="12.0748049"><ele>356.0</ele><time>2026-05-02T10:10:24.729Z</time></trkpt><trkpt lat="42.9772522" lon="12.0747123"><ele>356.0</ele><time>2026-05-02T10:10:25.729Z</time></trkpt><trkpt lat="42.9773198" lon="12.0746257"><ele>356.0</ele><time>2026-05-02T10:10:26.729Z</time></trkpt><trkpt lat="42.9773921" lon="12.0745378"><ele>356.0</ele><time>2026-05-02T10:10:27.729Z</time></trkpt><trkpt lat="42.9774638" lon="12.0744562"><ele>356.0</ele><time>2026-05-02T10:10:28.729Z</time></trkpt><trkpt lat="42.9775305" lon="12.0743779"><ele>356.33333333333337</ele><time>2026-05-02T10:10:29.729Z</time></trkpt><trkpt lat="42.9775986" lon="12.0743315"><ele>356.6666666666667</ele><time>2026-05-02T10:10:30.728Z</time></trkpt><trkpt lat="42.9776687" lon="12.0742976"><ele>357.0</ele><time>2026-05-02T10:10:31.729Z</time></trkpt><trkpt lat="42.9777312" lon="12.0742714"><ele>357.3333333333333</ele><time>2026-05-02T10:10:32.729Z</time></trkpt><trkpt lat="42.9778313" lon="12.0742316"><ele>357.66666666666663</ele><time>2026-05-02T10:10:34.729Z</time></trkpt><trkpt lat="42.9779137" lon="12.0741917"><ele>358.0</ele><time>2026-05-02T10:10:36.729Z</time></trkpt><trkpt lat="42.9779745" lon="12.0741558"><ele>358.0</ele><time>2026-05-02T10:10:38.729Z</time></trkpt><trkpt lat="42.9780526" lon="12.0741099"><ele>358.0</ele><time>2026-05-02T10:10:40.729Z</time></trkpt><trkpt lat="42.9781247" lon="12.0740526"><ele>358.0</ele><time>2026-05-02T10:10:42.729Z</time></trkpt><trkpt lat="42.9781742" lon="12.073998"><ele>358.0</ele><time>2026-05-02T10:10:44.729Z</time></trkpt><trkpt lat="42.9782413" lon="12.0739306"><ele>358.0</ele><time>2026-05-02T10:10:47.729Z</time></trkpt><trkpt lat="42.9782984" lon="12.0738483"><ele>358.0</ele><time>2026-05-02T10:10:50.729Z</time></trkpt><trkpt lat="42.9783507" lon="12.0737391"><ele>357.4</ele><time>2026-05-02T10:10:52.729Z</time></trkpt><trkpt lat="42.9783918" lon="12.0736138"><ele>356.79999999999995</ele><time>2026-05-02T10:10:54.729Z</time></trkpt><trkpt lat="42.9783947" lon="12.0734693"><ele>356.2</ele><time>2026-05-02T10:10:56.729Z</time></trkpt><trkpt lat="42.9783858" lon="12.0733256"><ele>355.6</ele><time>2026-05-02T10:10:58.729Z</time></trkpt><trkpt lat="42.9783705" lon="12.0732179"><ele>355.0</ele><time>2026-05-02T10:11:00.729Z</time></trkpt><trkpt lat="42.9783639" lon="12.073126"><ele>355.0</ele><time>2026-05-02T10:11:02.729Z</time></trkpt><trkpt lat="42.9783699" lon="12.0729436"><ele>355.0</ele><time>2026-05-02T10:11:04.729Z</time></trkpt><trkpt lat="42.9783857" lon="12.0728568"><ele>355.0</ele><time>2026-05-02T10:11:05.729Z</time></trkpt><trkpt lat="42.9784006" lon="12.072772"><ele>355.0</ele><time>2026-05-02T10:11:06.729Z</time></trkpt><trkpt lat="42.9784287" lon="12.0726438"><ele>355.0</ele><time>2026-05-02T10:11:08.729Z</time></trkpt><trkpt lat="42.9784848" lon="12.0725783"><ele>355.0</ele><time>2026-05-02T10:11:11.729Z</time></trkpt><trkpt lat="42.9785194" lon="12.0724981"><ele>356.5</ele><time>2026-05-02T10:11:13.729Z</time></trkpt><trkpt lat="42.9785392" lon="12.0724061"><ele>358.0</ele><time>2026-05-02T10:11:18.729Z</time></trkpt><trkpt lat="42.9785577" lon="12.0722897"><ele>359.5</ele><time>2026-05-02T10:11:38.729Z</time></trkpt><trkpt lat="42.9785802" lon="12.072176"><ele>361.0</ele><time>2026-05-02T10:11:40.726Z</time></trkpt><trkpt lat="42.9785986" lon="12.0720847"><ele>362.5</ele><time>2026-05-02T10:11:42.729Z</time></trkpt><trkpt lat="42.9786075" lon="12.0719897"><ele>364.0</ele><time>2026-05-02T10:11:44.729Z</time></trkpt><trkpt lat="42.9786308" lon="12.0718738"><ele>364.0</ele><time>2026-05-02T10:11:47.729Z</time></trkpt><trkpt lat="42.9786559" lon="12.0717627"><ele>364.0</ele><time>2026-05-02T10:11:52.729Z</time></trkpt><trkpt lat="42.9786718" lon="12.0716672"><ele>364.0</ele><time>2026-05-02T10:11:55.729Z</time></trkpt><trkpt lat="42.9786912" lon="12.0715851"><ele>364.0</ele><time>2026-05-02T10:11:57.729Z</time></trkpt><trkpt lat="42.9787102" lon="12.0714925"><ele>364.0</ele><time>2026-05-02T10:12:01.729Z</time></trkpt><trkpt lat="42.9787314" lon="12.0713868"><ele>364.0</ele><time>2026-05-02T10:12:05.729Z</time></trkpt><trkpt lat="42.9787642" lon="12.0712734"><ele>365.16666666666663</ele><time>2026-05-02T10:12:07.729Z</time></trkpt><trkpt lat="42.9787931" lon="12.0711267"><ele>366.3333333333333</ele><time>2026-05-02T10:12:09.729Z</time></trkpt><trkpt lat="42.9788287" lon="12.0709612"><ele>367.5</ele><time>2026-05-02T10:12:11.729Z</time></trkpt><trkpt lat="42.978852" lon="12.0708769"><ele>368.6666666666667</ele><time>2026-05-02T10:12:12.729Z</time></trkpt><trkpt lat="42.97888" lon="12.070791"><ele>369.83333333333337</ele><time>2026-05-02T10:12:13.729Z</time></trkpt><trkpt lat="42.9789033" lon="12.0707108"><ele>371.0</ele><time>2026-05-02T10:12:14.729Z</time></trkpt><trkpt lat="42.9789359" lon="12.0706337"><ele>372.1666666666667</ele><time>2026-05-02T10:12:15.729Z</time></trkpt><trkpt lat="42.9789859" lon="12.0705208"><ele>373.33333333333337</ele><time>2026-05-02T10:12:17.729Z</time></trkpt><trkpt lat="42.9790401" lon="12.0704633"><ele>374.5</ele><time>2026-05-02T10:12:21.729Z</time></trkpt><trkpt lat="42.9790977" lon="12.0704285"><ele>375.6666666666667</ele><time>2026-05-02T10:12:26.729Z</time></trkpt><trkpt lat="42.979195" lon="12.0704613"><ele>376.8333333333333</ele><time>2026-05-02T10:12:49.729Z</time></trkpt><trkpt lat="42.9792839" lon="12.070545"><ele>378.0</ele><time>2026-05-02T10:12:51.729Z</time></trkpt><trkpt lat="42.9794001" lon="12.0705861"><ele>378.3333333333333</ele><time>2026-05-02T10:12:53.729Z</time></trkpt><trkpt lat="42.9794755" lon="12.0706049"><ele>378.6666666666667</ele><time>2026-05-02T10:12:54.729Z</time></trkpt><trkpt lat="42.9795572" lon="12.070605"><ele>379.0</ele><time>2026-05-02T10:12:55.729Z</time></trkpt><trkpt lat="42.9796233" lon="12.0705857"><ele>379.33333333333337</ele><time>2026-05-02T10:12:56.728Z</time></trkpt><trkpt lat="42.9796779" lon="12.0704913"><ele>379.6666666666667</ele><time>2026-05-02T10:12:58.729Z</time></trkpt><trkpt lat="42.9797302" lon="12.0703497"><ele>380.0</ele><time>2026-05-02T10:13:00.729Z</time></trkpt><trkpt lat="42.9797584" lon="12.0702702"><ele>380.0</ele><time>2026-05-02T10:13:01.729Z</time></trkpt><trkpt lat="42.9797945" lon="12.0701866"><ele>380.0</ele><time>2026-05-02T10:13:02.729Z</time></trkpt><trkpt lat="42.9798247" lon="12.070103"><ele>380.0</ele><time>2026-05-02T10:13:03.729Z</time></trkpt><trkpt lat="42.9798681" lon="12.0700368"><ele>380.0</ele><time>2026-05-02T10:13:04.729Z</time></trkpt><trkpt lat="42.9799124" lon="12.0699625"><ele>380.0</ele><time>2026-05-02T10:13:05.729Z</time></trkpt><trkpt lat="42.9799877" lon="12.0698483"><ele>380.0</ele><time>2026-05-02T10:13:07.729Z</time></trkpt><trkpt lat="42.9800216" lon="12.0697216"><ele>382.6</ele><time>2026-05-02T10:13:09.729Z</time></trkpt><trkpt lat="42.9800367" lon="12.0695638"><ele>385.2</ele><time>2026-05-02T10:13:11.729Z</time></trkpt><trkpt lat="42.9800589" lon="12.0694067"><ele>387.79999999999995</ele><time>2026-05-02T10:13:13.729Z</time></trkpt><trkpt lat="42.9800444" lon="12.0693116"><ele>390.4</ele><time>2026-05-02T10:13:14.729Z</time></trkpt><trkpt lat="42.9800236" lon="12.0692248"><ele>393.0</ele><time>2026-05-02T10:13:15.729Z</time></trkpt><trkpt lat="42.9800438" lon="12.0691055"><ele>394.8333333333333</ele><time>2026-05-02T10:13:17.729Z</time></trkpt><trkpt lat="42.9801082" lon="12.0690294"><ele>396.66666666666663</ele><time>2026-05-02T10:13:19.729Z</time></trkpt><trkpt lat="42.9801775" lon="12.0689532"><ele>398.5</ele><time>2026-05-02T10:13:21.729Z</time></trkpt><trkpt lat="42.9801951" lon="12.0688376"><ele>400.3333333333333</ele><time>2026-05-02T10:13:23.729Z</time></trkpt><trkpt lat="42.9802038" lon="12.0687254"><ele>402.16666666666663</ele><time>2026-05-02T10:13:25.729Z</time></trkpt><trkpt lat="42.9802557" lon="12.0686399"><ele>404.0</ele><time>2026-05-02T10:13:27.729Z</time></trkpt><trkpt lat="42.9802797" lon="12.068544"><ele>403.99999999999994</ele><time>2026-05-02T10:13:29.729Z</time></trkpt><trkpt lat="42.9802186" lon="12.0685004"><ele>404.0</ele><time>2026-05-02T10:13:31.728Z</time></trkpt><trkpt lat="42.9801359" lon="12.0684689"><ele>404.0</ele><time>2026-05-02T10:13:33.729Z</time></trkpt><trkpt lat="42.9800997" lon="12.0683661"><ele>404.0</ele><time>2026-05-02T10:13:35.729Z</time></trkpt><trkpt lat="42.980098" lon="12.0682434"><ele>403.99999999999994</ele><time>2026-05-02T10:13:37.729Z</time></trkpt><trkpt lat="42.980103" lon="12.0681306"><ele>404.0</ele><time>2026-05-02T10:13:39.729Z</time></trkpt><trkpt lat="42.980084" lon="12.0680044"><ele>405.57142857142856</ele><time>2026-05-02T10:13:41.729Z</time></trkpt><trkpt lat="42.9799975" lon="12.0679217"><ele>407.1428571428571</ele><time>2026-05-02T10:13:43.729Z</time></trkpt><trkpt lat="42.9799418" lon="12.0678758"><ele>408.7142857142857</ele><time>2026-05-02T10:13:44.729Z</time></trkpt><trkpt lat="42.9798863" lon="12.0678241"><ele>410.2857142857143</ele><time>2026-05-02T10:13:45.729Z</time></trkpt><trkpt lat="42.979831" lon="12.067766"><ele>411.8571428571429</ele><time>2026-05-02T10:13:46.729Z</time></trkpt><trkpt lat="42.9797761" lon="12.0677074"><ele>413.42857142857144</ele><time>2026-05-02T10:13:47.729Z</time></trkpt><trkpt lat="42.9797246" lon="12.0676484"><ele>415.0</ele><time>2026-05-02T10:13:48.729Z</time></trkpt><trkpt lat="42.9796422" lon="12.0675439"><ele>416.8</ele><time>2026-05-02T10:13:50.729Z</time></trkpt><trkpt lat="42.979633" lon="12.0674137"><ele>418.6</ele><time>2026-05-02T10:13:52.729Z</time></trkpt><trkpt lat="42.9796052" lon="12.0672686"><ele>420.4</ele><time>2026-05-02T10:13:54.729Z</time></trkpt><trkpt lat="42.9795942" lon="12.0671245"><ele>422.2</ele><time>2026-05-02T10:13:56.729Z</time></trkpt><trkpt lat="42.9795463" lon="12.0669605"><ele>424.0</ele><time>2026-05-02T10:13:58.729Z</time></trkpt><trkpt lat="42.9795068" lon="12.0668771"><ele>424.0</ele><time>2026-05-02T10:13:59.729Z</time></trkpt><trkpt lat="42.9794679" lon="12.0668063"><ele>424.0</ele><time>2026-05-02T10:14:00.729Z</time></trkpt><trkpt lat="42.9794007" lon="12.0666815"><ele>424.0</ele><time>2026-05-02T10:14:02.729Z</time></trkpt><trkpt lat="42.9793319" lon="12.0665478"><ele>424.0</ele><time>2026-05-02T10:14:04.729Z</time></trkpt><trkpt lat="42.9792798" lon="12.0664546"><ele>424.0</ele><time>2026-05-02T10:14:06.729Z</time></trkpt><trkpt lat="42.9792446" lon="12.066348"><ele>423.33333333333337</ele><time>2026-05-02T10:14:09.729Z</time></trkpt><trkpt lat="42.9791762" lon="12.0663283"><ele>422.6666666666667</ele><time>2026-05-02T10:14:11.729Z</time></trkpt><trkpt lat="42.9791263" lon="12.0663817"><ele>422.0</ele><time>2026-05-02T10:14:13.729Z</time></trkpt><trkpt lat="42.9790549" lon="12.0664579"><ele>421.33333333333337</ele><time>2026-05-02T10:14:16.729Z</time></trkpt><trkpt lat="42.9789567" lon="12.0664573"><ele>420.6666666666667</ele><time>2026-05-02T10:14:18.729Z</time></trkpt><trkpt lat="42.9788961" lon="12.0664115"><ele>420.0</ele><time>2026-05-02T10:14:19.729Z</time></trkpt><trkpt lat="42.9788081" lon="12.0663341"><ele>420.0</ele><time>2026-05-02T10:14:21.728Z</time></trkpt><trkpt lat="42.9787659" lon="12.066249"><ele>420.0</ele><time>2026-05-02T10:14:23.728Z</time></trkpt><trkpt lat="42.9787495" lon="12.0661351"><ele>420.0</ele><time>2026-05-02T10:14:25.728Z</time></trkpt><trkpt lat="42.9787487" lon="12.0659855"><ele>420.0</ele><time>2026-05-02T10:14:27.729Z</time></trkpt><trkpt lat="42.9787487" lon="12.0658994"><ele>420.0</ele><time>2026-05-02T10:14:28.728Z</time></trkpt><trkpt lat="42.9787514" lon="12.065733"><ele>420.6</ele><time>2026-05-02T10:14:30.729Z</time></trkpt><trkpt lat="42.9787309" lon="12.0655838"><ele>421.2</ele><time>2026-05-02T10:14:32.729Z</time></trkpt><trkpt lat="42.9786656" lon="12.0654682"><ele>421.79999999999995</ele><time>2026-05-02T10:14:34.729Z</time></trkpt><trkpt lat="42.9786334" lon="12.0653715"><ele>422.4</ele><time>2026-05-02T10:14:36.729Z</time></trkpt><trkpt lat="42.9786466" lon="12.0652493"><ele>423.0</ele><time>2026-05-02T10:14:38.729Z</time></trkpt><trkpt lat="42.9786983" lon="12.0651416"><ele>423.0</ele><time>2026-05-02T10:14:40.729Z</time></trkpt><trkpt lat="42.9787552" lon="12.0650868"><ele>423.0</ele><time>2026-05-02T10:14:41.729Z</time></trkpt><trkpt lat="42.9788198" lon="12.0650491"><ele>423.0</ele><time>2026-05-02T10:14:42.729Z</time></trkpt><trkpt lat="42.9788845" lon="12.0650029"><ele>423.0</ele><time>2026-05-02T10:14:43.729Z</time></trkpt><trkpt lat="42.9789572" lon="12.064966"><ele>423.0</ele><time>2026-05-02T10:14:44.729Z</time></trkpt><trkpt lat="42.979025" lon="12.0649282"><ele>423.0</ele><time>2026-05-02T10:14:45.729Z</time></trkpt><trkpt lat="42.9790892" lon="12.0648993"><ele>423.0</ele><time>2026-05-02T10:14:46.729Z</time></trkpt><trkpt lat="42.9791545" lon="12.0648781"><ele>425.79999999999995</ele><time>2026-05-02T10:14:47.729Z</time></trkpt><trkpt lat="42.9792213" lon="12.0648449"><ele>428.6</ele><time>2026-05-02T10:14:48.728Z</time></trkpt><trkpt lat="42.9793334" lon="12.0647482"><ele>431.40000000000003</ele><time>2026-05-02T10:14:50.729Z</time></trkpt><trkpt lat="42.97944" lon="12.0646886"><ele>434.20000000000005</ele><time>2026-05-02T10:14:52.729Z</time></trkpt><trkpt lat="42.9795051" lon="12.0645559"><ele>437.0</ele><time>2026-05-02T10:14:54.729Z</time></trkpt><trkpt lat="42.9795047" lon="12.0644346"><ele>437.0</ele><time>2026-05-02T10:14:56.729Z</time></trkpt><trkpt lat="42.9794053" lon="12.064332"><ele>437.00000000000006</ele><time>2026-05-02T10:14:58.729Z</time></trkpt><trkpt lat="42.9793211" lon="12.0643094"><ele>437.00000000000006</ele><time>2026-05-02T10:14:59.729Z</time></trkpt><trkpt lat="42.9792469" lon="12.0643115"><ele>437.0</ele><time>2026-05-02T10:15:00.729Z</time></trkpt><trkpt lat="42.9791457" lon="12.064304"><ele>437.0</ele><time>2026-05-02T10:15:02.729Z</time></trkpt><trkpt lat="42.9790855" lon="12.0642664"><ele>436.99999999999994</ele><time>2026-05-02T10:15:03.729Z</time></trkpt><trkpt lat="42.9790226" lon="12.064215"><ele>437.0</ele><time>2026-05-02T10:15:04.729Z</time></trkpt><trkpt lat="42.9789605" lon="12.0641575"><ele>437.0</ele><time>2026-05-02T10:15:05.729Z</time></trkpt><trkpt lat="42.9788914" lon="12.0640975"><ele>437.0</ele><time>2026-05-02T10:15:06.729Z</time></trkpt><trkpt lat="42.9788148" lon="12.0640302"><ele>436.99999999999994</ele><time>2026-05-02T10:15:07.729Z</time></trkpt><trkpt lat="42.9787542" lon="12.0639739"><ele>437.0</ele><time>2026-05-02T10:15:08.729Z</time></trkpt><trkpt lat="42.9786985" lon="12.0639221"><ele>437.0</ele><time>2026-05-02T10:15:09.729Z</time></trkpt><trkpt lat="42.9786097" lon="12.0638386"><ele>437.00000000000006</ele><time>2026-05-02T10:15:11.729Z</time></trkpt><trkpt lat="42.9785463" lon="12.0637284"><ele>437.00000000000006</ele><time>2026-05-02T10:15:13.729Z</time></trkpt><trkpt lat="42.9785086" lon="12.0635878"><ele>437.0</ele><time>2026-05-02T10:15:15.729Z</time></trkpt><trkpt lat="42.978475" lon="12.0634361"><ele>437.0</ele><time>2026-05-02T10:15:17.729Z</time></trkpt><trkpt lat="42.9784341" lon="12.0633447"><ele>437.7142857142857</ele><time>2026-05-02T10:15:18.729Z</time></trkpt><trkpt lat="42.9783927" lon="12.0632517"><ele>438.42857142857144</ele><time>2026-05-02T10:15:19.729Z</time></trkpt><trkpt lat="42.9783554" lon="12.063167"><ele>439.14285714285717</ele><time>2026-05-02T10:15:20.729Z</time></trkpt><trkpt lat="42.9783354" lon="12.0630697"><ele>439.8571428571429</ele><time>2026-05-02T10:15:21.729Z</time></trkpt><trkpt lat="42.9783317" lon="12.062982"><ele>440.57142857142856</ele><time>2026-05-02T10:15:22.729Z</time></trkpt><trkpt lat="42.978312" lon="12.0628826"><ele>441.28571428571433</ele><time>2026-05-02T10:15:23.729Z</time></trkpt><trkpt lat="42.9782785" lon="12.062782"><ele>442.0</ele><time>2026-05-02T10:15:24.729Z</time></trkpt><trkpt lat="42.9782413" lon="12.0626846"><ele>440.33333333333337</ele><time>2026-05-02T10:15:25.729Z</time></trkpt><trkpt lat="42.9782102" lon="12.062592"><ele>438.6666666666667</ele><time>2026-05-02T10:15:26.729Z</time></trkpt><trkpt lat="42.9781857" lon="12.0625033"><ele>437.0</ele><time>2026-05-02T10:15:27.729Z</time></trkpt><trkpt lat="42.9781593" lon="12.0624144"><ele>435.33333333333337</ele><time>2026-05-02T10:15:28.729Z</time></trkpt><trkpt lat="42.9781371" lon="12.062319"><ele>433.6666666666667</ele><time>2026-05-02T10:15:29.729Z</time></trkpt><trkpt lat="42.9781027" lon="12.0621649"><ele>432.0</ele><time>2026-05-02T10:15:31.729Z</time></trkpt><trkpt lat="42.9780678" lon="12.0620382"><ele>432.0</ele><time>2026-05-02T10:15:33.729Z</time></trkpt><trkpt lat="42.9780954" lon="12.0619362"><ele>432.0</ele><time>2026-05-02T10:15:36.729Z</time></trkpt><trkpt lat="42.9781728" lon="12.0619425"><ele>432.0</ele><time>2026-05-02T10:15:39.729Z</time></trkpt><trkpt lat="42.9782428" lon="12.0620083"><ele>432.0</ele><time>2026-05-02T10:15:42.728Z</time></trkpt><trkpt lat="42.9783105" lon="12.0621246"><ele>432.0</ele><time>2026-05-02T10:15:44.729Z</time></trkpt><trkpt lat="42.978349" lon="12.062207"><ele>432.0</ele><time>2026-05-02T10:15:45.729Z</time></trkpt><trkpt lat="42.9784334" lon="12.0623427"><ele>433.6666666666667</ele><time>2026-05-02T10:15:47.729Z</time></trkpt><trkpt lat="42.9785472" lon="12.0624007"><ele>435.33333333333337</ele><time>2026-05-02T10:15:49.729Z</time></trkpt><trkpt lat="42.9786111" lon="12.0623998"><ele>437.0</ele><time>2026-05-02T10:15:50.729Z</time></trkpt><trkpt lat="42.9786736" lon="12.0623711"><ele>438.6666666666667</ele><time>2026-05-02T10:15:51.729Z</time></trkpt><trkpt lat="42.9787468" lon="12.0623309"><ele>440.33333333333337</ele><time>2026-05-02T10:15:52.729Z</time></trkpt><trkpt lat="42.9788203" lon="12.0622703"><ele>442.0</ele><time>2026-05-02T10:15:53.729Z</time></trkpt><trkpt lat="42.9789012" lon="12.062189"><ele>442.0</ele><time>2026-05-02T10:15:54.729Z</time></trkpt><trkpt lat="42.9789941" lon="12.0621054"><ele>442.00000000000006</ele><time>2026-05-02T10:15:55.729Z</time></trkpt><trkpt lat="42.9790808" lon="12.0620132"><ele>442.00000000000006</ele><time>2026-05-02T10:15:56.729Z</time></trkpt><trkpt lat="42.9791556" lon="12.0619168"><ele>442.0</ele><time>2026-05-02T10:15:57.729Z</time></trkpt><trkpt lat="42.9792227" lon="12.0618134"><ele>442.0</ele><time>2026-05-02T10:15:58.729Z</time></trkpt><trkpt lat="42.979295" lon="12.0617193"><ele>442.6</ele><time>2026-05-02T10:15:59.729Z</time></trkpt><trkpt lat="42.9793736" lon="12.0616216"><ele>443.20000000000005</ele><time>2026-05-02T10:16:00.729Z</time></trkpt><trkpt lat="42.9794621" lon="12.0615386"><ele>443.8</ele><time>2026-05-02T10:16:01.729Z</time></trkpt><trkpt lat="42.9795559" lon="12.0614633"><ele>444.4</ele><time>2026-05-02T10:16:02.729Z</time></trkpt><trkpt lat="42.9796532" lon="12.0614074"><ele>445.0</ele><time>2026-05-02T10:16:03.729Z</time></trkpt><trkpt lat="42.9797566" lon="12.0613719"><ele>445.0</ele><time>2026-05-02T10:16:04.729Z</time></trkpt><trkpt lat="42.979839" lon="12.0613444"><ele>445.0</ele><time>2026-05-02T10:16:05.729Z</time></trkpt><trkpt lat="42.9799272" lon="12.0613555"><ele>445.0</ele><time>2026-05-02T10:16:06.729Z</time></trkpt><trkpt lat="42.9800124" lon="12.0614038"><ele>445.0</ele><time>2026-05-02T10:16:07.729Z</time></trkpt><trkpt lat="42.9801019" lon="12.0614702"><ele>445.0</ele><time>2026-05-02T10:16:08.729Z</time></trkpt><trkpt lat="42.9801921" lon="12.0615557"><ele>449.4</ele><time>2026-05-02T10:16:09.729Z</time></trkpt><trkpt lat="42.9802783" lon="12.0616388"><ele>453.8</ele><time>2026-05-02T10:16:10.729Z</time></trkpt><trkpt lat="42.9803659" lon="12.0617303"><ele>458.20000000000005</ele><time>2026-05-02T10:16:11.729Z</time></trkpt><trkpt lat="42.9804442" lon="12.061819"><ele>462.6</ele><time>2026-05-02T10:16:12.729Z</time></trkpt><trkpt lat="42.9805179" lon="12.0618884"><ele>467.0</ele><time>2026-05-02T10:16:13.728Z</time></trkpt><trkpt lat="42.9805943" lon="12.0619348"><ele>467.0</ele><time>2026-05-02T10:16:14.729Z</time></trkpt><trkpt lat="42.9806775" lon="12.0619516"><ele>467.00000000000006</ele><time>2026-05-02T10:16:15.729Z</time></trkpt><trkpt lat="42.9807734" lon="12.0619617"><ele>467.00000000000006</ele><time>2026-05-02T10:16:16.729Z</time></trkpt><trkpt lat="42.9808767" lon="12.0619715"><ele>467.0</ele><time>2026-05-02T10:16:17.729Z</time></trkpt><trkpt lat="42.9809889" lon="12.0620056"><ele>467.0</ele><time>2026-05-02T10:16:18.729Z</time></trkpt><trkpt lat="42.9810887" lon="12.0620355"><ele>468.0</ele><time>2026-05-02T10:16:19.729Z</time></trkpt><trkpt lat="42.9811891" lon="12.0620709"><ele>469.00000000000006</ele><time>2026-05-02T10:16:20.729Z</time></trkpt><trkpt lat="42.9812916" lon="12.0621018"><ele>470.00000000000006</ele><time>2026-05-02T10:16:21.729Z</time></trkpt><trkpt lat="42.9813929" lon="12.0621385"><ele>471.0</ele><time>2026-05-02T10:16:22.729Z</time></trkpt><trkpt lat="42.9814916" lon="12.0621723"><ele>472.0</ele><time>2026-05-02T10:16:23.728Z</time></trkpt><trkpt lat="42.9816016" lon="12.0622035"><ele>473.6</ele><time>2026-05-02T10:16:24.729Z</time></trkpt><trkpt lat="42.9817125" lon="12.0622214"><ele>475.20000000000005</ele><time>2026-05-02T10:16:25.729Z</time></trkpt><trkpt lat="42.9818279" lon="12.0622188"><ele>476.8</ele><time>2026-05-02T10:16:26.729Z</time></trkpt><trkpt lat="42.98194" lon="12.0622061"><ele>478.4</ele><time>2026-05-02T10:16:27.729Z</time></trkpt><trkpt lat="42.9820474" lon="12.0621935"><ele>480.0</ele><time>2026-05-02T10:16:28.729Z</time></trkpt><trkpt lat="42.9821547" lon="12.0621718"><ele>480.0</ele><time>2026-05-02T10:16:29.729Z</time></trkpt><trkpt lat="42.9822503" lon="12.0621566"><ele>480.0</ele><time>2026-05-02T10:16:30.729Z</time></trkpt><trkpt lat="42.9823434" lon="12.0621486"><ele>480.0</ele><time>2026-05-02T10:16:31.729Z</time></trkpt><trkpt lat="42.9824286" lon="12.0621391"><ele>480.0</ele><time>2026-05-02T10:16:32.729Z</time></trkpt><trkpt lat="42.9825009" lon="12.0621245"><ele>480.0</ele><time>2026-05-02T10:16:33.729Z</time></trkpt><trkpt lat="42.9826191" lon="12.0620674"><ele>480.0</ele><time>2026-05-02T10:16:35.729Z</time></trkpt><trkpt lat="42.982692" lon="12.0620278"><ele>480.0</ele><time>2026-05-02T10:16:36.729Z</time></trkpt><trkpt lat="42.9827805" lon="12.0619986"><ele>480.0</ele><time>2026-05-02T10:16:37.729Z</time></trkpt><trkpt lat="42.9828688" lon="12.0619702"><ele>480.0</ele><time>2026-05-02T10:16:38.729Z</time></trkpt><trkpt lat="42.9829516" lon="12.0619523"><ele>480.0</ele><time>2026-05-02T10:16:39.729Z</time></trkpt><trkpt lat="42.9830358" lon="12.0619283"><ele>480.0</ele><time>2026-05-02T10:16:40.729Z</time></trkpt><trkpt lat="42.9831158" lon="12.0619108"><ele>480.0</ele><time>2026-05-02T10:16:41.729Z</time></trkpt><trkpt lat="42.9831991" lon="12.0619074"><ele>480.0</ele><time>2026-05-02T10:16:42.729Z</time></trkpt><trkpt lat="42.9832867" lon="12.0619158"><ele>480.0</ele><time>2026-05-02T10:16:43.729Z</time></trkpt><trkpt lat="42.9833796" lon="12.0619397"><ele>480.0</ele><time>2026-05-02T10:16:44.729Z</time></trkpt><trkpt lat="42.9834697" lon="12.0619547"><ele>480.0</ele><time>2026-05-02T10:16:45.729Z</time></trkpt><trkpt lat="42.9835669" lon="12.0619569"><ele>482.75</ele><time>2026-05-02T10:16:46.729Z</time></trkpt><trkpt lat="42.9836741" lon="12.0619239"><ele>485.5</ele><time>2026-05-02T10:16:47.729Z</time></trkpt><trkpt lat="42.9838011" lon="12.0618691"><ele>488.25</ele><time>2026-05-02T10:16:48.729Z</time></trkpt><trkpt lat="42.9839234" lon="12.0618018"><ele>491.0</ele><time>2026-05-02T10:16:49.729Z</time></trkpt><trkpt lat="42.9840318" lon="12.0617276"><ele>491.0</ele><time>2026-05-02T10:16:50.729Z</time></trkpt><trkpt lat="42.9841346" lon="12.0616429"><ele>491.0</ele><time>2026-05-02T10:16:51.729Z</time></trkpt><trkpt lat="42.9842033" lon="12.0615513"><ele>491.0</ele><time>2026-05-02T10:16:52.729Z</time></trkpt><trkpt lat="42.9842592" lon="12.0614662"><ele>491.0</ele><time>2026-05-02T10:16:53.729Z</time></trkpt><trkpt lat="42.9843042" lon="12.0613898"><ele>491.0</ele><time>2026-05-02T10:16:54.729Z</time></trkpt><trkpt lat="42.9844014" lon="12.061312"><ele>490.1428571428571</ele><time>2026-05-02T10:16:56.729Z</time></trkpt><trkpt lat="42.9844641" lon="12.0612982"><ele>489.2857142857142</ele><time>2026-05-02T10:16:57.729Z</time></trkpt><trkpt lat="42.9845334" lon="12.0612816"><ele>488.42857142857144</ele><time>2026-05-02T10:16:58.728Z</time></trkpt><trkpt lat="42.9845974" lon="12.0612816"><ele>487.57142857142856</ele><time>2026-05-02T10:16:59.729Z</time></trkpt><trkpt lat="42.984659" lon="12.0613078"><ele>486.7142857142857</ele><time>2026-05-02T10:17:00.728Z</time></trkpt><trkpt lat="42.9847186" lon="12.0613646"><ele>485.8571428571429</ele><time>2026-05-02T10:17:01.729Z</time></trkpt><trkpt lat="42.9847732" lon="12.0614551"><ele>485.00000000000006</ele><time>2026-05-02T10:17:02.729Z</time></trkpt><trkpt lat="42.9848189" lon="12.0615572"><ele>488.0</ele><time>2026-05-02T10:17:03.729Z</time></trkpt><trkpt lat="42.9848669" lon="12.0616666"><ele>491.0</ele><time>2026-05-02T10:17:04.729Z</time></trkpt><trkpt lat="42.9849054" lon="12.0617783"><ele>494.0</ele><time>2026-05-02T10:17:05.729Z</time></trkpt><trkpt lat="42.9849384" lon="12.0618913"><ele>497.0</ele><time>2026-05-02T10:17:06.728Z</time></trkpt><trkpt lat="42.9849822" lon="12.0619771"><ele>500.0</ele><time>2026-05-02T10:17:07.728Z</time></trkpt><trkpt lat="42.9851061" lon="12.0620338"><ele>500.0</ele><time>2026-05-02T10:17:09.729Z</time></trkpt><trkpt lat="42.9852108" lon="12.0620181"><ele>500.0</ele><time>2026-05-02T10:17:10.729Z</time></trkpt><trkpt lat="42.9853387" lon="12.0619913"><ele>500.0</ele><time>2026-05-02T10:17:11.728Z</time></trkpt><trkpt lat="42.9854764" lon="12.0619928"><ele>500.0</ele><time>2026-05-02T10:17:12.729Z</time></trkpt><trkpt lat="42.9856157" lon="12.06201"><ele>500.0</ele><time>2026-05-02T10:17:13.729Z</time></trkpt><trkpt lat="42.9857474" lon="12.0620374"><ele>500.0</ele><time>2026-05-02T10:17:14.729Z</time></trkpt><trkpt lat="42.9858751" lon="12.0620597"><ele>500.0</ele><time>2026-05-02T10:17:15.729Z</time></trkpt><trkpt lat="42.9860069" lon="12.0620386"><ele>500.0</ele><time>2026-05-02T10:17:16.729Z</time></trkpt><trkpt lat="42.9861237" lon="12.0620141"><ele>502.2</ele><time>2026-05-02T10:17:17.729Z</time></trkpt><trkpt lat="42.9862397" lon="12.0619962"><ele>504.4</ele><time>2026-05-02T10:17:18.729Z</time></trkpt><trkpt lat="42.9863447" lon="12.0619903"><ele>506.6</ele><time>2026-05-02T10:17:19.729Z</time></trkpt><trkpt lat="42.9864457" lon="12.0620047"><ele>508.8</ele><time>2026-05-02T10:17:20.729Z</time></trkpt><trkpt lat="42.9865381" lon="12.0620328"><ele>511.0</ele><time>2026-05-02T10:17:21.729Z</time></trkpt><trkpt lat="42.9866336" lon="12.0620698"><ele>511.8</ele><time>2026-05-02T10:17:22.729Z</time></trkpt><trkpt lat="42.9867349" lon="12.0621158"><ele>512.6</ele><time>2026-05-02T10:17:23.729Z</time></trkpt><trkpt lat="42.9868408" lon="12.0621793"><ele>513.4</ele><time>2026-05-02T10:17:24.729Z</time></trkpt><trkpt lat="42.986948" lon="12.062251"><ele>514.2</ele><time>2026-05-02T10:17:25.729Z</time></trkpt><trkpt lat="42.9870361" lon="12.0623264"><ele>515.0</ele><time>2026-05-02T10:17:26.729Z</time></trkpt><trkpt lat="42.9871078" lon="12.0624222"><ele>518.2</ele><time>2026-05-02T10:17:27.729Z</time></trkpt><trkpt lat="42.9871559" lon="12.0625362"><ele>521.4</ele><time>2026-05-02T10:17:28.729Z</time></trkpt><trkpt lat="42.9871962" lon="12.0626558"><ele>524.6</ele><time>2026-05-02T10:17:29.729Z</time></trkpt><trkpt lat="42.9872304" lon="12.0627831"><ele>527.8</ele><time>2026-05-02T10:17:30.729Z</time></trkpt><trkpt lat="42.9872756" lon="12.0628954"><ele>531.0</ele><time>2026-05-02T10:17:31.729Z</time></trkpt><trkpt lat="42.9873224" lon="12.0629922"><ele>531.0</ele><time>2026-05-02T10:17:32.729Z</time></trkpt><trkpt lat="42.9873764" lon="12.0630585"><ele>531.0</ele><time>2026-05-02T10:17:33.729Z</time></trkpt><trkpt lat="42.9874425" lon="12.0630952"><ele>531.0</ele><time>2026-05-02T10:17:34.729Z</time></trkpt><trkpt lat="42.9875568" lon="12.0630875"><ele>531.0</ele><time>2026-05-02T10:17:36.729Z</time></trkpt><trkpt lat="42.9876704" lon="12.0630632"><ele>531.0</ele><time>2026-05-02T10:17:38.729Z</time></trkpt><trkpt lat="42.9877327" lon="12.0630435"><ele>531.0</ele><time>2026-05-02T10:17:39.727Z</time></trkpt><trkpt lat="42.9877979" lon="12.0630203"><ele>531.0</ele><time>2026-05-02T10:17:40.729Z</time></trkpt><trkpt lat="42.9878769" lon="12.0630031"><ele>531.0</ele><time>2026-05-02T10:17:41.729Z</time></trkpt><trkpt lat="42.9879588" lon="12.0629937"><ele>531.0</ele><time>2026-05-02T10:17:42.729Z</time></trkpt><trkpt lat="42.9880425" lon="12.0629926"><ele>531.0</ele><time>2026-05-02T10:17:43.729Z</time></trkpt><trkpt lat="42.9881323" lon="12.0629905"><ele>531.0</ele><time>2026-05-02T10:17:44.729Z</time></trkpt><trkpt lat="42.9882287" lon="12.0629792"><ele>531.0</ele><time>2026-05-02T10:17:45.729Z</time></trkpt><trkpt lat="42.988323" lon="12.0629584"><ele>528.8</ele><time>2026-05-02T10:17:46.728Z</time></trkpt><trkpt lat="42.9884198" lon="12.062933"><ele>526.6</ele><time>2026-05-02T10:17:47.729Z</time></trkpt><trkpt lat="42.9885156" lon="12.0628995"><ele>524.4</ele><time>2026-05-02T10:17:48.729Z</time></trkpt><trkpt lat="42.9886067" lon="12.0628719"><ele>522.2</ele><time>2026-05-02T10:17:49.729Z</time></trkpt><trkpt lat="42.9887002" lon="12.0628455"><ele>520.0</ele><time>2026-05-02T10:17:50.729Z</time></trkpt><trkpt lat="42.9887863" lon="12.062812"><ele>520.0</ele><time>2026-05-02T10:17:51.729Z</time></trkpt><trkpt lat="42.9888782" lon="12.0627836"><ele>520.0</ele><time>2026-05-02T10:17:52.729Z</time></trkpt><trkpt lat="42.9889731" lon="12.0627531"><ele>520.0</ele><time>2026-05-02T10:17:53.729Z</time></trkpt><trkpt lat="42.9890712" lon="12.0627236"><ele>520.0</ele><time>2026-05-02T10:17:54.729Z</time></trkpt><trkpt lat="42.9891667" lon="12.0626841"><ele>520.0</ele><time>2026-05-02T10:17:55.728Z</time></trkpt><trkpt lat="42.9892652" lon="12.0626411"><ele>517.8</ele><time>2026-05-02T10:17:56.729Z</time></trkpt><trkpt lat="42.9893611" lon="12.0625918"><ele>515.6</ele><time>2026-05-02T10:17:57.728Z</time></trkpt><trkpt lat="42.9894497" lon="12.0625276"><ele>513.4</ele><time>2026-05-02T10:17:58.728Z</time></trkpt><trkpt lat="42.9895432" lon="12.0624895"><ele>511.2</ele><time>2026-05-02T10:17:59.729Z</time></trkpt><trkpt lat="42.9896558" lon="12.0624771"><ele>509.0</ele><time>2026-05-02T10:18:00.729Z</time></trkpt><trkpt lat="42.9897815" lon="12.0624772"><ele>509.0</ele><time>2026-05-02T10:18:01.729Z</time></trkpt><trkpt lat="42.9898988" lon="12.0624876"><ele>509.0</ele><time>2026-05-02T10:18:02.729Z</time></trkpt><trkpt lat="42.9900213" lon="12.0625108"><ele>509.0</ele><time>2026-05-02T10:18:03.729Z</time></trkpt><trkpt lat="42.9901483" lon="12.062554"><ele>509.0</ele><time>2026-05-02T10:18:04.729Z</time></trkpt><trkpt lat="42.990283" lon="12.0626247"><ele>509.0</ele><time>2026-05-02T10:18:05.729Z</time></trkpt><trkpt lat="42.9904153" lon="12.0627124"><ele>509.0</ele><time>2026-05-02T10:18:06.729Z</time></trkpt><trkpt lat="42.9905495" lon="12.0628152"><ele>509.0</ele><time>2026-05-02T10:18:07.729Z</time></trkpt><trkpt lat="42.9906899" lon="12.0629296"><ele>509.0</ele><time>2026-05-02T10:18:08.729Z</time></trkpt><trkpt lat="42.9908181" lon="12.06305"><ele>509.0</ele><time>2026-05-02T10:18:09.729Z</time></trkpt><trkpt lat="42.9909349" lon="12.063189"><ele>509.0</ele><time>2026-05-02T10:18:10.729Z</time></trkpt><trkpt lat="42.9910353" lon="12.0633194"><ele>509.0</ele><time>2026-05-02T10:18:11.729Z</time></trkpt><trkpt lat="42.9911411" lon="12.0634326"><ele>512.0</ele><time>2026-05-02T10:18:12.729Z</time></trkpt><trkpt lat="42.9912502" lon="12.0635328"><ele>515.0</ele><time>2026-05-02T10:18:13.728Z</time></trkpt><trkpt lat="42.9913571" lon="12.0636273"><ele>518.0</ele><time>2026-05-02T10:18:14.729Z</time></trkpt><trkpt lat="42.9914637" lon="12.0636914"><ele>521.0</ele><time>2026-05-02T10:18:15.729Z</time></trkpt><trkpt lat="42.9915619" lon="12.063733"><ele>519.75</ele><time>2026-05-02T10:18:16.728Z</time></trkpt><trkpt lat="42.9916772" lon="12.063758"><ele>518.5</ele><time>2026-05-02T10:18:17.729Z</time></trkpt><trkpt lat="42.9918021" lon="12.0637793"><ele>517.25</ele><time>2026-05-02T10:18:18.729Z</time></trkpt><trkpt lat="42.9919202" lon="12.0637959"><ele>516.0</ele><time>2026-05-02T10:18:19.729Z</time></trkpt><trkpt lat="42.992034" lon="12.0638055"><ele>516.0</ele><time>2026-05-02T10:18:20.728Z</time></trkpt><trkpt lat="42.9921552" lon="12.0638113"><ele>516.0</ele><time>2026-05-02T10:18:21.729Z</time></trkpt><trkpt lat="42.9922768" lon="12.0638093"><ele>516.0</ele><time>2026-05-02T10:18:22.729Z</time></trkpt><trkpt lat="42.9924081" lon="12.0638047"><ele>516.0</ele><time>2026-05-02T10:18:23.729Z</time></trkpt><trkpt lat="42.9925477" lon="12.0638145"><ele>514.5</ele><time>2026-05-02T10:18:24.729Z</time></trkpt><trkpt lat="42.9926788" lon="12.0638288"><ele>513.0</ele><time>2026-05-02T10:18:25.729Z</time></trkpt><trkpt lat="42.9928063" lon="12.0638535"><ele>511.5</ele><time>2026-05-02T10:18:26.729Z</time></trkpt><trkpt lat="42.9929349" lon="12.0638991"><ele>510.0</ele><time>2026-05-02T10:18:27.729Z</time></trkpt><trkpt lat="42.9930703" lon="12.0639609"><ele>510.0</ele><time>2026-05-02T10:18:28.729Z</time></trkpt><trkpt lat="42.9932107" lon="12.0640258"><ele>510.0</ele><time>2026-05-02T10:18:29.729Z</time></trkpt><trkpt lat="42.9933474" lon="12.0640881"><ele>510.0</ele><time>2026-05-02T10:18:30.729Z</time></trkpt><trkpt lat="42.9934876" lon="12.0641493"><ele>510.0</ele><time>2026-05-02T10:18:31.729Z</time></trkpt><trkpt lat="42.9936159" lon="12.0642037"><ele>512.0</ele><time>2026-05-02T10:18:32.729Z</time></trkpt><trkpt lat="42.9937305" lon="12.0642607"><ele>514.0</ele><time>2026-05-02T10:18:33.729Z</time></trkpt><trkpt lat="42.9938378" lon="12.0643197"><ele>516.0</ele><time>2026-05-02T10:18:34.729Z</time></trkpt><trkpt lat="42.9939386" lon="12.064371"><ele>518.0</ele><time>2026-05-02T10:18:35.729Z</time></trkpt><trkpt lat="42.9940411" lon="12.0644408"><ele>518.0</ele><time>2026-05-02T10:18:36.729Z</time></trkpt><trkpt lat="42.9941434" lon="12.0645268"><ele>518.0</ele><time>2026-05-02T10:18:37.729Z</time></trkpt><trkpt lat="42.9942456" lon="12.0646157"><ele>518.0</ele><time>2026-05-02T10:18:38.729Z</time></trkpt><trkpt lat="42.9943469" lon="12.0647005"><ele>518.0</ele><time>2026-05-02T10:18:39.729Z</time></trkpt><trkpt lat="42.9944523" lon="12.0647846"><ele>519.25</ele><time>2026-05-02T10:18:40.728Z</time></trkpt><trkpt lat="42.9945653" lon="12.064868"><ele>520.5</ele><time>2026-05-02T10:18:41.729Z</time></trkpt><trkpt lat="42.9946777" lon="12.0649503"><ele>521.75</ele><time>2026-05-02T10:18:42.729Z</time></trkpt><trkpt lat="42.9947835" lon="12.065013"><ele>523.0</ele><time>2026-05-02T10:18:43.729Z</time></trkpt><trkpt lat="42.9948988" lon="12.0650728"><ele>527.4</ele><time>2026-05-02T10:18:44.729Z</time></trkpt><trkpt lat="42.9950069" lon="12.0651049"><ele>531.8</ele><time>2026-05-02T10:18:45.728Z</time></trkpt><trkpt lat="42.9951112" lon="12.0651103"><ele>536.2</ele><time>2026-05-02T10:18:46.729Z</time></trkpt><trkpt lat="42.9952278" lon="12.0650888"><ele>540.6</ele><time>2026-05-02T10:18:47.729Z</time></trkpt><trkpt lat="42.9953388" lon="12.0650507"><ele>545.0</ele><time>2026-05-02T10:18:48.729Z</time></trkpt><trkpt lat="42.995454" lon="12.0650213"><ele>545.0</ele><time>2026-05-02T10:18:49.729Z</time></trkpt><trkpt lat="42.9955752" lon="12.0650071"><ele>545.0</ele><time>2026-05-02T10:18:50.729Z</time></trkpt><trkpt lat="42.9956987" lon="12.0649995"><ele>545.0</ele><time>2026-05-02T10:18:51.729Z</time></trkpt><trkpt lat="42.9958151" lon="12.0649962"><ele>545.0</ele><time>2026-05-02T10:18:52.729Z</time></trkpt><trkpt lat="42.9959341" lon="12.0650013"><ele>547.5</ele><time>2026-05-02T10:18:53.729Z</time></trkpt><trkpt lat="42.9960512" lon="12.0650092"><ele>550.0</ele><time>2026-05-02T10:18:54.729Z</time></trkpt><trkpt lat="42.996183" lon="12.0650181"><ele>552.5</ele><time>2026-05-02T10:18:55.729Z</time></trkpt><trkpt lat="42.9963096" lon="12.0650384"><ele>555.0</ele><time>2026-05-02T10:18:56.729Z</time></trkpt><trkpt lat="42.9964388" lon="12.0650733"><ele>555.0</ele><time>2026-05-02T10:18:57.729Z</time></trkpt><trkpt lat="42.9965612" lon="12.0651144"><ele>555.0</ele><time>2026-05-02T10:18:58.729Z</time></trkpt><trkpt lat="42.9966777" lon="12.0651605"><ele>555.0</ele><time>2026-05-02T10:18:59.729Z</time></trkpt><trkpt lat="42.9967912" lon="12.0652253"><ele>555.0</ele><time>2026-05-02T10:19:00.729Z</time></trkpt><trkpt lat="42.9968989" lon="12.0652714"><ele>557.0</ele><time>2026-05-02T10:19:01.729Z</time></trkpt><trkpt lat="42.9970224" lon="12.065295"><ele>559.0</ele><time>2026-05-02T10:19:02.729Z</time></trkpt><trkpt lat="42.9971469" lon="12.0653026"><ele>561.0</ele><time>2026-05-02T10:19:03.729Z</time></trkpt><trkpt lat="42.9972668" lon="12.065307"><ele>563.0</ele><time>2026-05-02T10:19:04.729Z</time></trkpt><trkpt lat="42.9973824" lon="12.0653048"><ele>563.0</ele><time>2026-05-02T10:19:05.729Z</time></trkpt><trkpt lat="42.9974893" lon="12.0652986"><ele>563.0</ele><time>2026-05-02T10:19:06.729Z</time></trkpt><trkpt lat="42.9976035" lon="12.0652907"><ele>563.0</ele><time>2026-05-02T10:19:07.729Z</time></trkpt><trkpt lat="42.9977093" lon="12.0652875"><ele>563.0</ele><time>2026-05-02T10:19:08.729Z</time></trkpt><trkpt lat="42.997822" lon="12.0653018"><ele>563.0</ele><time>2026-05-02T10:19:09.729Z</time></trkpt><trkpt lat="42.997938" lon="12.065332"><ele>563.6</ele><time>2026-05-02T10:19:10.729Z</time></trkpt><trkpt lat="42.9980457" lon="12.0653708"><ele>564.1999999999999</ele><time>2026-05-02T10:19:11.729Z</time></trkpt><trkpt lat="42.9981336" lon="12.0654072"><ele>564.8</ele><time>2026-05-02T10:19:12.729Z</time></trkpt><trkpt lat="42.9982138" lon="12.0654323"><ele>565.4</ele><time>2026-05-02T10:19:13.729Z</time></trkpt><trkpt lat="42.9982935" lon="12.0654591"><ele>566.0</ele><time>2026-05-02T10:19:14.725Z</time></trkpt><trkpt lat="42.9983922" lon="12.0654951"><ele>568.8</ele><time>2026-05-02T10:19:15.728Z</time></trkpt><trkpt lat="42.9985009" lon="12.065495"><ele>571.6</ele><time>2026-05-02T10:19:16.729Z</time></trkpt><trkpt lat="42.9985988" lon="12.0654866"><ele>574.4</ele><time>2026-05-02T10:19:17.729Z</time></trkpt><trkpt lat="42.9986994" lon="12.0654721"><ele>577.2</ele><time>2026-05-02T10:19:18.729Z</time></trkpt><trkpt lat="42.9988076" lon="12.0654463"><ele>580.0</ele><time>2026-05-02T10:19:19.729Z</time></trkpt><trkpt lat="42.9989071" lon="12.0654042"><ele>580.0</ele><time>2026-05-02T10:19:20.729Z</time></trkpt><trkpt lat="42.9990123" lon="12.0653691"><ele>580.0</ele><time>2026-05-02T10:19:21.729Z</time></trkpt><trkpt lat="42.9991155" lon="12.0653199"><ele>580.0</ele><time>2026-05-02T10:19:22.728Z</time></trkpt><trkpt lat="42.9992192" lon="12.0652744"><ele>580.0</ele><time>2026-05-02T10:19:23.728Z</time></trkpt><trkpt lat="42.9993212" lon="12.0652242"><ele>580.0</ele><time>2026-05-02T10:19:24.729Z</time></trkpt><trkpt lat="42.9994086" lon="12.0651941"><ele>582.1666666666667</ele><time>2026-05-02T10:19:25.729Z</time></trkpt><trkpt lat="42.9994894" lon="12.0651797"><ele>584.3333333333334</ele><time>2026-05-02T10:19:26.729Z</time></trkpt><trkpt lat="42.9995727" lon="12.0651922"><ele>586.5</ele><time>2026-05-02T10:19:27.728Z</time></trkpt><trkpt lat="42.9996503" lon="12.065222"><ele>588.6666666666666</ele><time>2026-05-02T10:19:28.729Z</time></trkpt><trkpt lat="42.9997431" lon="12.0652647"><ele>590.8333333333333</ele><time>2026-05-02T10:19:29.729Z</time></trkpt><trkpt lat="42.9998334" lon="12.0653"><ele>593.0</ele><time>2026-05-02T10:19:30.729Z</time></trkpt><trkpt lat="42.999927" lon="12.0653653"><ele>593.0</ele><time>2026-05-02T10:19:31.729Z</time></trkpt><trkpt lat="43.0000216" lon="12.0654243"><ele>593.0</ele><time>2026-05-02T10:19:32.729Z</time></trkpt><trkpt lat="43.0001147" lon="12.0654852"><ele>593.0</ele><time>2026-05-02T10:19:33.729Z</time></trkpt><trkpt lat="43.0002035" lon="12.0655479"><ele>593.0</ele><time>2026-05-02T10:19:34.729Z</time></trkpt><trkpt lat="43.0002864" lon="12.065613"><ele>593.0</ele><time>2026-05-02T10:19:35.729Z</time></trkpt><trkpt lat="43.0003749" lon="12.0656796"><ele>593.0</ele><time>2026-05-02T10:19:36.729Z</time></trkpt><trkpt lat="43.0004693" lon="12.0657301"><ele>593.0</ele><time>2026-05-02T10:19:37.729Z</time></trkpt><trkpt lat="43.0005565" lon="12.065763"><ele>593.0</ele><time>2026-05-02T10:19:38.729Z</time></trkpt><trkpt lat="43.0006291" lon="12.0657722"><ele>593.0</ele><time>2026-05-02T10:19:39.729Z</time></trkpt><trkpt lat="43.0007206" lon="12.0657813"><ele>593.0</ele><time>2026-05-02T10:19:41.729Z</time></trkpt><trkpt lat="43.0007984" lon="12.0658319"><ele>593.0</ele><time>2026-05-02T10:19:45.729Z</time></trkpt><trkpt lat="43.000874" lon="12.0659138"><ele>596.0</ele><time>2026-05-02T10:19:47.727Z</time></trkpt><trkpt lat="43.000978" lon="12.0659634"><ele>599.0</ele><time>2026-05-02T10:19:49.729Z</time></trkpt><trkpt lat="43.0010888" lon="12.0659671"><ele>602.0</ele><time>2026-05-02T10:19:51.729Z</time></trkpt><trkpt lat="43.0012005" lon="12.0659202"><ele>605.0</ele><time>2026-05-02T10:19:53.729Z</time></trkpt><trkpt lat="43.0012649" lon="12.0658756"><ele>608.0</ele><time>2026-05-02T10:19:54.729Z</time></trkpt><trkpt lat="43.0013368" lon="12.0658176"><ele>607.8</ele><time>2026-05-02T10:19:55.729Z</time></trkpt><trkpt lat="43.0014111" lon="12.0657604"><ele>607.5999999999999</ele><time>2026-05-02T10:19:56.728Z</time></trkpt><trkpt lat="43.0014892" lon="12.065699"><ele>607.4000000000001</ele><time>2026-05-02T10:19:57.729Z</time></trkpt><trkpt lat="43.0015746" lon="12.0656405"><ele>607.2</ele><time>2026-05-02T10:19:58.729Z</time></trkpt><trkpt lat="43.0016605" lon="12.0655937"><ele>607.0</ele><time>2026-05-02T10:19:59.729Z</time></trkpt><trkpt lat="43.0017488" lon="12.0655539"><ele>603.4</ele><time>2026-05-02T10:20:00.729Z</time></trkpt><trkpt lat="43.0018365" lon="12.0655241"><ele>599.8000000000001</ele><time>2026-05-02T10:20:01.729Z</time></trkpt><trkpt lat="43.001935" lon="12.065509"><ele>596.2</ele><time>2026-05-02T10:20:02.729Z</time></trkpt><trkpt lat="43.0020303" lon="12.0655062"><ele>592.6</ele><time>2026-05-02T10:20:03.729Z</time></trkpt><trkpt lat="43.0021196" lon="12.0655101"><ele>589.0</ele><time>2026-05-02T10:20:04.729Z</time></trkpt><trkpt lat="43.002206" lon="12.0655197"><ele>589.0</ele><time>2026-05-02T10:20:05.729Z</time></trkpt><trkpt lat="43.0022856" lon="12.0655204"><ele>589.0</ele><time>2026-05-02T10:20:06.729Z</time></trkpt><trkpt lat="43.0023696" lon="12.0655249"><ele>589.0</ele><time>2026-05-02T10:20:07.728Z</time></trkpt><trkpt lat="43.002442" lon="12.0655313"><ele>589.0</ele><time>2026-05-02T10:20:08.729Z</time></trkpt><trkpt lat="43.0025198" lon="12.0655325"><ele>589.0</ele><time>2026-05-02T10:20:09.729Z</time></trkpt><trkpt lat="43.0025926" lon="12.0655397"><ele>589.0</ele><time>2026-05-02T10:20:10.729Z</time></trkpt><trkpt lat="43.0026626" lon="12.065546"><ele>587.1666666666667</ele><time>2026-05-02T10:20:11.729Z</time></trkpt><trkpt lat="43.0027313" lon="12.0655566"><ele>585.3333333333334</ele><time>2026-05-02T10:20:12.729Z</time></trkpt><trkpt lat="43.0028037" lon="12.0655624"><ele>583.5</ele><time>2026-05-02T10:20:13.729Z</time></trkpt><trkpt lat="43.0028887" lon="12.0655652"><ele>581.6666666666666</ele><time>2026-05-02T10:20:14.729Z</time></trkpt><trkpt lat="43.0029799" lon="12.0655702"><ele>579.8333333333333</ele><time>2026-05-02T10:20:15.729Z</time></trkpt><trkpt lat="43.0030737" lon="12.0655557"><ele>578.0</ele><time>2026-05-02T10:20:16.729Z</time></trkpt><trkpt lat="43.0031705" lon="12.0655331"><ele>578.0</ele><time>2026-05-02T10:20:17.728Z</time></trkpt><trkpt lat="43.0032677" lon="12.0655134"><ele>578.0</ele><time>2026-05-02T10:20:18.729Z</time></trkpt><trkpt lat="43.0033656" lon="12.0654897"><ele>578.0</ele><time>2026-05-02T10:20:19.729Z</time></trkpt><trkpt lat="43.0034662" lon="12.065475"><ele>578.0</ele><time>2026-05-02T10:20:20.729Z</time></trkpt><trkpt lat="43.0035674" lon="12.0654628"><ele>578.0</ele><time>2026-05-02T10:20:21.729Z</time></trkpt><trkpt lat="43.00367" lon="12.065458"><ele>578.4</ele><time>2026-05-02T10:20:22.729Z</time></trkpt><trkpt lat="43.0037719" lon="12.06545"><ele>578.8</ele><time>2026-05-02T10:20:23.729Z</time></trkpt><trkpt lat="43.0038703" lon="12.0654326"><ele>579.2</ele><time>2026-05-02T10:20:24.729Z</time></trkpt><trkpt lat="43.0039544" lon="12.0654096"><ele>579.6</ele><time>2026-05-02T10:20:25.729Z</time></trkpt><trkpt lat="43.0040348" lon="12.0653815"><ele>580.0</ele><time>2026-05-02T10:20:26.728Z</time></trkpt><trkpt lat="43.00411" lon="12.0653452"><ele>580.3333333333334</ele><time>2026-05-02T10:20:27.729Z</time></trkpt><trkpt lat="43.0041908" lon="12.0653167"><ele>580.6666666666667</ele><time>2026-05-02T10:20:28.729Z</time></trkpt><trkpt lat="43.0042712" lon="12.0652846"><ele>581.0</ele><time>2026-05-02T10:20:29.729Z</time></trkpt><trkpt lat="43.0043509" lon="12.0652508"><ele>581.3333333333334</ele><time>2026-05-02T10:20:30.729Z</time></trkpt><trkpt lat="43.0044363" lon="12.0652218"><ele>581.6666666666666</ele><time>2026-05-02T10:20:31.729Z</time></trkpt><trkpt lat="43.0045211" lon="12.0651898"><ele>582.0</ele><time>2026-05-02T10:20:32.728Z</time></trkpt><trkpt lat="43.0046031" lon="12.0651524"><ele>582.0</ele><time>2026-05-02T10:20:33.729Z</time></trkpt><trkpt lat="43.0046897" lon="12.0651193"><ele>582.0</ele><time>2026-05-02T10:20:34.729Z</time></trkpt><trkpt lat="43.0047738" lon="12.0650879"><ele>582.0</ele><time>2026-05-02T10:20:35.729Z</time></trkpt><trkpt lat="43.0048601" lon="12.0650639"><ele>582.0</ele><time>2026-05-02T10:20:36.729Z</time></trkpt><trkpt lat="43.0049407" lon="12.0650345"><ele>582.0</ele><time>2026-05-02T10:20:37.729Z</time></trkpt><trkpt lat="43.0050206" lon="12.0650066"><ele>582.0</ele><time>2026-05-02T10:20:38.729Z</time></trkpt><trkpt lat="43.005095" lon="12.0649788"><ele>582.0</ele><time>2026-05-02T10:20:39.729Z</time></trkpt><trkpt lat="43.0051723" lon="12.0649459"><ele>582.0</ele><time>2026-05-02T10:20:40.729Z</time></trkpt><trkpt lat="43.005245" lon="12.0649001"><ele>582.0</ele><time>2026-05-02T10:20:41.729Z</time></trkpt><trkpt lat="43.005319" lon="12.0648619"><ele>582.0</ele><time>2026-05-02T10:20:42.729Z</time></trkpt><trkpt lat="43.0053953" lon="12.0648081"><ele>582.0</ele><time>2026-05-02T10:20:43.729Z</time></trkpt><trkpt lat="43.0054676" lon="12.0647555"><ele>582.0</ele><time>2026-05-02T10:20:44.729Z</time></trkpt><trkpt lat="43.0055489" lon="12.0647021"><ele>580.0</ele><time>2026-05-02T10:20:45.729Z</time></trkpt><trkpt lat="43.0056143" lon="12.0646467"><ele>578.0</ele><time>2026-05-02T10:20:46.728Z</time></trkpt><trkpt lat="43.0057142" lon="12.0645633"><ele>576.0</ele><time>2026-05-02T10:20:48.729Z</time></trkpt><trkpt lat="43.005803" lon="12.0644908"><ele>574.0</ele><time>2026-05-02T10:20:50.729Z</time></trkpt><trkpt lat="43.005858" lon="12.0644172"><ele>572.0</ele><time>2026-05-02T10:20:52.729Z</time></trkpt><trkpt lat="43.0058824" lon="12.0643363"><ele>570.0</ele><time>2026-05-02T10:20:55.729Z</time></trkpt><trkpt lat="43.0059253" lon="12.0642094"><ele>567.0</ele><time>2026-05-02T10:20:58.729Z</time></trkpt><trkpt lat="43.0059726" lon="12.0640915"><ele>564.0</ele><time>2026-05-02T10:21:00.729Z</time></trkpt><trkpt lat="43.0060424" lon="12.0639698"><ele>561.0</ele><time>2026-05-02T10:21:02.729Z</time></trkpt><trkpt lat="43.0060875" lon="12.0638956"><ele>558.0</ele><time>2026-05-02T10:21:03.729Z</time></trkpt><trkpt lat="43.0061677" lon="12.06377"><ele>555.0</ele><time>2026-05-02T10:21:05.729Z</time></trkpt><trkpt lat="43.0062163" lon="12.0636313"><ele>555.0</ele><time>2026-05-02T10:21:07.729Z</time></trkpt><trkpt lat="43.0061988" lon="12.0634794"><ele>555.0</ele><time>2026-05-02T10:21:09.729Z</time></trkpt><trkpt lat="43.0061602" lon="12.063404"><ele>555.0</ele><time>2026-05-02T10:21:10.729Z</time></trkpt><trkpt lat="43.0060789" lon="12.0632455"><ele>555.0</ele><time>2026-05-02T10:21:12.729Z</time></trkpt><trkpt lat="43.0060401" lon="12.0631534"><ele>555.0</ele><time>2026-05-02T10:21:13.729Z</time></trkpt><trkpt lat="43.0060148" lon="12.0630551"><ele>553.2</ele><time>2026-05-02T10:21:14.729Z</time></trkpt><trkpt lat="43.006001" lon="12.0629688"><ele>551.4</ele><time>2026-05-02T10:21:15.729Z</time></trkpt><trkpt lat="43.0060306" lon="12.0628375"><ele>549.6</ele><time>2026-05-02T10:21:17.729Z</time></trkpt><trkpt lat="43.0061248" lon="12.0627771"><ele>547.8</ele><time>2026-05-02T10:21:19.729Z</time></trkpt><trkpt lat="43.0062527" lon="12.0627545"><ele>546.0</ele><time>2026-05-02T10:21:21.729Z</time></trkpt><trkpt lat="43.0063203" lon="12.0627383"><ele>546.0</ele><time>2026-05-02T10:21:22.729Z</time></trkpt><trkpt lat="43.0063908" lon="12.0627141"><ele>546.0</ele><time>2026-05-02T10:21:23.729Z</time></trkpt><trkpt lat="43.0064588" lon="12.0626805"><ele>546.0</ele><time>2026-05-02T10:21:24.729Z</time></trkpt><trkpt lat="43.0065238" lon="12.0626458"><ele>546.0</ele><time>2026-05-02T10:21:25.729Z</time></trkpt><trkpt lat="43.0065786" lon="12.0625807"><ele>546.0</ele><time>2026-05-02T10:21:26.729Z</time></trkpt><trkpt lat="43.0066441" lon="12.0625245"><ele>546.0</ele><time>2026-05-02T10:21:27.729Z</time></trkpt><trkpt lat="43.0067038" lon="12.0624592"><ele>546.0</ele><time>2026-05-02T10:21:28.729Z</time></trkpt><trkpt lat="43.00676" lon="12.0624026"><ele>545.8</ele><time>2026-05-02T10:21:29.729Z</time></trkpt><trkpt lat="43.0068668" lon="12.0623277"><ele>545.6</ele><time>2026-05-02T10:21:31.729Z</time></trkpt><trkpt lat="43.0069798" lon="12.0623292"><ele>545.4</ele><time>2026-05-02T10:21:33.729Z</time></trkpt><trkpt lat="43.0070461" lon="12.0623887"><ele>545.2</ele><time>2026-05-02T10:21:34.729Z</time></trkpt><trkpt lat="43.0071081" lon="12.062469"><ele>545.0</ele><time>2026-05-02T10:21:35.728Z</time></trkpt><trkpt lat="43.0071648" lon="12.0625543"><ele>545.0</ele><time>2026-05-02T10:21:36.729Z</time></trkpt><trkpt lat="43.0072179" lon="12.0626388"><ele>545.0</ele><time>2026-05-02T10:21:37.729Z</time></trkpt><trkpt lat="43.0072639" lon="12.0627267"><ele>545.0</ele><time>2026-05-02T10:21:38.729Z</time></trkpt><trkpt lat="43.0073062" lon="12.062808"><ele>545.0</ele><time>2026-05-02T10:21:39.729Z</time></trkpt><trkpt lat="43.0073487" lon="12.0628993"><ele>545.0</ele><time>2026-05-02T10:21:40.729Z</time></trkpt><trkpt lat="43.0073836" lon="12.0629997"><ele>545.0</ele><time>2026-05-02T10:21:41.729Z</time></trkpt><trkpt lat="43.0074221" lon="12.0631058"><ele>545.0</ele><time>2026-05-02T10:21:42.729Z</time></trkpt><trkpt lat="43.0074513" lon="12.063217"><ele>545.0</ele><time>2026-05-02T10:21:43.729Z</time></trkpt><trkpt lat="43.0074781" lon="12.0633253"><ele>545.0</ele><time>2026-05-02T10:21:44.729Z</time></trkpt><trkpt lat="43.007532" lon="12.0634474"><ele>545.0</ele><time>2026-05-02T10:21:45.729Z</time></trkpt><trkpt lat="43.0075737" lon="12.0635538"><ele>545.0</ele><time>2026-05-02T10:21:46.729Z</time></trkpt><trkpt lat="43.0076243" lon="12.0636717"><ele>544.8</ele><time>2026-05-02T10:21:47.729Z</time></trkpt><trkpt lat="43.0076798" lon="12.0637863"><ele>544.6</ele><time>2026-05-02T10:21:48.729Z</time></trkpt><trkpt lat="43.0077424" lon="12.063902"><ele>544.4</ele><time>2026-05-02T10:21:49.729Z</time></trkpt><trkpt lat="43.0077986" lon="12.0640053"><ele>544.2</ele><time>2026-05-02T10:21:50.729Z</time></trkpt><trkpt lat="43.0078619" lon="12.0640921"><ele>544.0</ele><time>2026-05-02T10:21:51.729Z</time></trkpt><trkpt lat="43.007925" lon="12.064164"><ele>546.8</ele><time>2026-05-02T10:21:52.729Z</time></trkpt><trkpt lat="43.0080127" lon="12.0642268"><ele>549.5999999999999</ele><time>2026-05-02T10:21:53.728Z</time></trkpt><trkpt lat="43.0081068" lon="12.06431"><ele>552.4</ele><time>2026-05-02T10:21:54.729Z</time></trkpt><trkpt lat="43.0081856" lon="12.0643815"><ele>555.1999999999999</ele><time>2026-05-02T10:21:55.729Z</time></trkpt><trkpt lat="43.0082535" lon="12.0644546"><ele>558.0</ele><time>2026-05-02T10:21:56.729Z</time></trkpt><trkpt lat="43.0083104" lon="12.0645309"><ele>556.5</ele><time>2026-05-02T10:21:57.729Z</time></trkpt><trkpt lat="43.0083448" lon="12.0646261"><ele>555.0</ele><time>2026-05-02T10:21:58.729Z</time></trkpt><trkpt lat="43.0083592" lon="12.0647311"><ele>553.5</ele><time>2026-05-02T10:21:59.729Z</time></trkpt><trkpt lat="43.0083606" lon="12.0648434"><ele>552.0</ele><time>2026-05-02T10:22:00.729Z</time></trkpt><trkpt lat="43.0083632" lon="12.0649456"><ele>550.5</ele><time>2026-05-02T10:22:01.729Z</time></trkpt><trkpt lat="43.0083953" lon="12.0650662"><ele>549.0</ele><time>2026-05-02T10:22:02.729Z</time></trkpt><trkpt lat="43.0084374" lon="12.0651786"><ele>549.0</ele><time>2026-05-02T10:22:03.729Z</time></trkpt><trkpt lat="43.0085059" lon="12.0652884"><ele>549.0</ele><time>2026-05-02T10:22:04.729Z</time></trkpt><trkpt lat="43.0085792" lon="12.0653735"><ele>549.0</ele><time>2026-05-02T10:22:05.729Z</time></trkpt><trkpt lat="43.0086576" lon="12.0654495"><ele>549.0</ele><time>2026-05-02T10:22:06.729Z</time></trkpt><trkpt lat="43.0087657" lon="12.0655083"><ele>549.0</ele><time>2026-05-02T10:22:07.729Z</time></trkpt><trkpt lat="43.0088636" lon="12.0655729"><ele>549.0</ele><time>2026-05-02T10:22:08.729Z</time></trkpt><trkpt lat="43.0089512" lon="12.0656286"><ele>549.0</ele><time>2026-05-02T10:22:09.728Z</time></trkpt><trkpt lat="43.0090461" lon="12.0657062"><ele>549.0</ele><time>2026-05-02T10:22:10.729Z</time></trkpt><trkpt lat="43.0091244" lon="12.0657919"><ele>549.0</ele><time>2026-05-02T10:22:11.729Z</time></trkpt><trkpt lat="43.0091918" lon="12.0658929"><ele>549.0</ele><time>2026-05-02T10:22:12.729Z</time></trkpt><trkpt lat="43.0092357" lon="12.0659974"><ele>549.5</ele><time>2026-05-02T10:22:13.729Z</time></trkpt><trkpt lat="43.0092742" lon="12.0660907"><ele>550.0</ele><time>2026-05-02T10:22:14.729Z</time></trkpt><trkpt lat="43.0093122" lon="12.0661916"><ele>550.5</ele><time>2026-05-02T10:22:17.729Z</time></trkpt><trkpt lat="43.0093364" lon="12.0663139"><ele>551.0</ele><time>2026-05-02T10:22:21.729Z</time></trkpt><trkpt lat="43.0093572" lon="12.0664252"><ele>551.5</ele><time>2026-05-02T10:22:23.729Z</time></trkpt><trkpt lat="43.009383" lon="12.0665127"><ele>552.0</ele><time>2026-05-02T10:22:25.729Z</time></trkpt><trkpt lat="43.0094275" lon="12.0666179"><ele>552.0</ele><time>2026-05-02T10:22:27.729Z</time></trkpt><trkpt lat="43.0094865" lon="12.0667179"><ele>552.0</ele><time>2026-05-02T10:22:29.729Z</time></trkpt><trkpt lat="43.0095444" lon="12.0667909"><ele>552.0</ele><time>2026-05-02T10:22:31.729Z</time></trkpt><trkpt lat="43.0096338" lon="12.0668573"><ele>552.0</ele><time>2026-05-02T10:22:33.729Z</time></trkpt><trkpt lat="43.0097139" lon="12.066918"><ele>552.0</ele><time>2026-05-02T10:22:35.729Z</time></trkpt><trkpt lat="43.0097997" lon="12.0669821"><ele>552.0</ele><time>2026-05-02T10:22:37.729Z</time></trkpt><trkpt lat="43.0098789" lon="12.0670221"><ele>552.0</ele><time>2026-05-02T10:22:39.728Z</time></trkpt><trkpt lat="43.0099572" lon="12.0670777"><ele>552.0</ele><time>2026-05-02T10:22:41.728Z</time></trkpt><trkpt lat="43.0100421" lon="12.0671177"><ele>552.0</ele><time>2026-05-02T10:22:43.729Z</time></trkpt><trkpt lat="43.0101378" lon="12.067196"><ele>552.0</ele><time>2026-05-02T10:22:45.729Z</time></trkpt><trkpt lat="43.0102324" lon="12.0672826"><ele>552.7142857142858</ele><time>2026-05-02T10:22:47.729Z</time></trkpt><trkpt lat="43.01028" lon="12.0673494"><ele>553.4285714285714</ele><time>2026-05-02T10:22:48.729Z</time></trkpt><trkpt lat="43.0103246" lon="12.0674287"><ele>554.1428571428571</ele><time>2026-05-02T10:22:49.729Z</time></trkpt><trkpt lat="43.0103663" lon="12.0675093"><ele>554.8571428571429</ele><time>2026-05-02T10:22:50.728Z</time></trkpt><trkpt lat="43.010407" lon="12.0675925"><ele>555.5714285714286</ele><time>2026-05-02T10:22:51.729Z</time></trkpt><trkpt lat="43.0104515" lon="12.0676594"><ele>556.2857142857143</ele><time>2026-05-02T10:22:52.729Z</time></trkpt><trkpt lat="43.0105025" lon="12.0677171"><ele>557.0</ele><time>2026-05-02T10:22:53.729Z</time></trkpt><trkpt lat="43.0105661" lon="12.0677633"><ele>557.0</ele><time>2026-05-02T10:22:54.729Z</time></trkpt><trkpt lat="43.0106353" lon="12.0678085"><ele>557.0</ele><time>2026-05-02T10:22:55.729Z</time></trkpt><trkpt lat="43.0107469" lon="12.0679134"><ele>557.0</ele><time>2026-05-02T10:22:57.729Z</time></trkpt><trkpt lat="43.010795" lon="12.0680067"><ele>557.0</ele><time>2026-05-02T10:22:58.729Z</time></trkpt><trkpt lat="43.0108447" lon="12.0681076"><ele>557.0</ele><time>2026-05-02T10:22:59.729Z</time></trkpt><trkpt lat="43.0109071" lon="12.068207"><ele>560.2</ele><time>2026-05-02T10:23:00.729Z</time></trkpt><trkpt lat="43.0109698" lon="12.0682894"><ele>563.4000000000001</ele><time>2026-05-02T10:23:01.729Z</time></trkpt><trkpt lat="43.0110471" lon="12.0683797"><ele>566.5999999999999</ele><time>2026-05-02T10:23:02.729Z</time></trkpt><trkpt lat="43.0111287" lon="12.0684574"><ele>569.8</ele><time>2026-05-02T10:23:03.729Z</time></trkpt><trkpt lat="43.0112116" lon="12.068545"><ele>573.0</ele><time>2026-05-02T10:23:04.728Z</time></trkpt><trkpt lat="43.011289" lon="12.0686124"><ele>573.0</ele><time>2026-05-02T10:23:05.729Z</time></trkpt><trkpt lat="43.0113667" lon="12.0686914"><ele>573.0</ele><time>2026-05-02T10:23:06.729Z</time></trkpt><trkpt lat="43.0114395" lon="12.0687762"><ele>573.0</ele><time>2026-05-02T10:23:07.729Z</time></trkpt><trkpt lat="43.0115232" lon="12.0688708"><ele>573.0</ele><time>2026-05-02T10:23:08.729Z</time></trkpt><trkpt lat="43.0116248" lon="12.0689847"><ele>573.0</ele><time>2026-05-02T10:23:09.729Z</time></trkpt><trkpt lat="43.011725" lon="12.0690942"><ele>573.6</ele><time>2026-05-02T10:23:10.729Z</time></trkpt><trkpt lat="43.0118143" lon="12.0691911"><ele>574.1999999999999</ele><time>2026-05-02T10:23:11.729Z</time></trkpt><trkpt lat="43.0118932" lon="12.069275"><ele>574.8</ele><time>2026-05-02T10:23:12.729Z</time></trkpt><trkpt lat="43.0119621" lon="12.0693646"><ele>575.4</ele><time>2026-05-02T10:23:13.729Z</time></trkpt><trkpt lat="43.0120214" lon="12.0694549"><ele>576.0</ele><time>2026-05-02T10:23:14.729Z</time></trkpt><trkpt lat="43.0120746" lon="12.069562"><ele>576.0</ele><time>2026-05-02T10:23:15.729Z</time></trkpt><trkpt lat="43.0121369" lon="12.0696652"><ele>576.0</ele><time>2026-05-02T10:23:16.729Z</time></trkpt><trkpt lat="43.0122068" lon="12.0697577"><ele>576.0</ele><time>2026-05-02T10:23:17.729Z</time></trkpt><trkpt lat="43.0122769" lon="12.0698398"><ele>576.0</ele><time>2026-05-02T10:23:18.729Z</time></trkpt><trkpt lat="43.0123464" lon="12.0699098"><ele>576.0</ele><time>2026-05-02T10:23:19.729Z</time></trkpt><trkpt lat="43.0124099" lon="12.0699751"><ele>577.4</ele><time>2026-05-02T10:23:20.729Z</time></trkpt><trkpt lat="43.0124561" lon="12.0700612"><ele>578.8</ele><time>2026-05-02T10:23:21.729Z</time></trkpt><trkpt lat="43.0124911" lon="12.0701677"><ele>580.1999999999999</ele><time>2026-05-02T10:23:22.729Z</time></trkpt><trkpt lat="43.0125127" lon="12.0703049"><ele>581.6</ele><time>2026-05-02T10:23:23.729Z</time></trkpt><trkpt lat="43.0125419" lon="12.0704329"><ele>583.0</ele><time>2026-05-02T10:23:24.729Z</time></trkpt><trkpt lat="43.0125741" lon="12.0705447"><ele>583.0</ele><time>2026-05-02T10:23:25.729Z</time></trkpt><trkpt lat="43.0126107" lon="12.0706559"><ele>583.0</ele><time>2026-05-02T10:23:26.729Z</time></trkpt><trkpt lat="43.0126384" lon="12.0707804"><ele>583.0</ele><time>2026-05-02T10:23:27.729Z</time></trkpt><trkpt lat="43.0126638" lon="12.0709127"><ele>583.0</ele><time>2026-05-02T10:23:28.729Z</time></trkpt><trkpt lat="43.0126929" lon="12.0710414"><ele>583.0</ele><time>2026-05-02T10:23:29.729Z</time></trkpt><trkpt lat="43.0127172" lon="12.0711712"><ele>583.1999999999999</ele><time>2026-05-02T10:23:30.729Z</time></trkpt><trkpt lat="43.012749" lon="12.0712933"><ele>583.4</ele><time>2026-05-02T10:23:31.727Z</time></trkpt><trkpt lat="43.0127896" lon="12.0713935"><ele>583.5999999999999</ele><time>2026-05-02T10:23:32.729Z</time></trkpt><trkpt lat="43.0128475" lon="12.0715001"><ele>583.8</ele><time>2026-05-02T10:23:33.729Z</time></trkpt><trkpt lat="43.01291" lon="12.0716011"><ele>584.0</ele><time>2026-05-02T10:23:34.729Z</time></trkpt><trkpt lat="43.0129762" lon="12.0717051"><ele>585.8333333333333</ele><time>2026-05-02T10:23:35.729Z</time></trkpt><trkpt lat="43.0130384" lon="12.0717989"><ele>587.6666666666666</ele><time>2026-05-02T10:23:36.729Z</time></trkpt><trkpt lat="43.0130899" lon="12.071895"><ele>589.5</ele><time>2026-05-02T10:23:37.729Z</time></trkpt><trkpt lat="43.0131372" lon="12.071994"><ele>591.3333333333334</ele><time>2026-05-02T10:23:38.729Z</time></trkpt><trkpt lat="43.013175" lon="12.0720971"><ele>593.1666666666667</ele><time>2026-05-02T10:23:39.729Z</time></trkpt><trkpt lat="43.013207" lon="12.0722038"><ele>595.0</ele><time>2026-05-02T10:23:40.728Z</time></trkpt><trkpt lat="43.0132421" lon="12.0723139"><ele>595.0</ele><time>2026-05-02T10:23:41.729Z</time></trkpt><trkpt lat="43.0132809" lon="12.0724166"><ele>595.0</ele><time>2026-05-02T10:23:42.729Z</time></trkpt><trkpt lat="43.0133175" lon="12.0725023"><ele>595.0</ele><time>2026-05-02T10:23:43.729Z</time></trkpt><trkpt lat="43.0133493" lon="12.0725812"><ele>595.0</ele><time>2026-05-02T10:23:44.729Z</time></trkpt><trkpt lat="43.0134013" lon="12.0727223"><ele>595.0</ele><time>2026-05-02T10:23:46.729Z</time></trkpt><trkpt lat="43.0134317" lon="12.0728059"><ele>595.0</ele><time>2026-05-02T10:23:47.729Z</time></trkpt><trkpt lat="43.0134552" lon="12.0728922"><ele>595.4285714285714</ele><time>2026-05-02T10:23:48.729Z</time></trkpt><trkpt lat="43.0134871" lon="12.0729768"><ele>595.8571428571429</ele><time>2026-05-02T10:23:49.729Z</time></trkpt><trkpt lat="43.0135232" lon="12.0730624"><ele>596.2857142857142</ele><time>2026-05-02T10:23:50.729Z</time></trkpt><trkpt lat="43.0135588" lon="12.0731509"><ele>596.7142857142858</ele><time>2026-05-02T10:23:51.729Z</time></trkpt><trkpt lat="43.0135957" lon="12.0732348"><ele>597.1428571428571</ele><time>2026-05-02T10:23:52.728Z</time></trkpt><trkpt lat="43.0136294" lon="12.0733159"><ele>597.5714285714286</ele><time>2026-05-02T10:23:53.729Z</time></trkpt><trkpt lat="43.0136654" lon="12.073393"><ele>598.0</ele><time>2026-05-02T10:23:54.729Z</time></trkpt><trkpt lat="43.0137044" lon="12.0734665"><ele>596.8</ele><time>2026-05-02T10:23:55.729Z</time></trkpt><trkpt lat="43.0137481" lon="12.0735308"><ele>595.5999999999999</ele><time>2026-05-02T10:23:56.729Z</time></trkpt><trkpt lat="43.0138204" lon="12.0736476"><ele>594.4000000000001</ele><time>2026-05-02T10:23:58.729Z</time></trkpt><trkpt lat="43.0138889" lon="12.0737688"><ele>593.2</ele><time>2026-05-02T10:24:00.729Z</time></trkpt><trkpt lat="43.013965" lon="12.0739043"><ele>592.0</ele><time>2026-05-02T10:24:02.729Z</time></trkpt><trkpt lat="43.014006" lon="12.0739896"><ele>592.0</ele><time>2026-05-02T10:24:03.729Z</time></trkpt><trkpt lat="43.0140381" lon="12.0740819"><ele>592.0</ele><time>2026-05-02T10:24:04.729Z</time></trkpt><trkpt lat="43.0140645" lon="12.0741841"><ele>592.0</ele><time>2026-05-02T10:24:05.729Z</time></trkpt><trkpt lat="43.0140891" lon="12.0742934"><ele>592.0</ele><time>2026-05-02T10:24:06.729Z</time></trkpt><trkpt lat="43.0141034" lon="12.07439"><ele>592.0</ele><time>2026-05-02T10:24:07.729Z</time></trkpt><trkpt lat="43.0141239" lon="12.0744943"><ele>592.0</ele><time>2026-05-02T10:24:08.729Z</time></trkpt><trkpt lat="43.0141464" lon="12.0745963"><ele>592.1666666666667</ele><time>2026-05-02T10:24:09.729Z</time></trkpt><trkpt lat="43.0141896" lon="12.0746921"><ele>592.3333333333334</ele><time>2026-05-02T10:24:10.729Z</time></trkpt><trkpt lat="43.0142321" lon="12.0747908"><ele>592.5</ele><time>2026-05-02T10:24:11.729Z</time></trkpt><trkpt lat="43.014277" lon="12.0748767"><ele>592.6666666666666</ele><time>2026-05-02T10:24:12.729Z</time></trkpt><trkpt lat="43.0143302" lon="12.0749675"><ele>592.8333333333333</ele><time>2026-05-02T10:24:13.729Z</time></trkpt><trkpt lat="43.0143823" lon="12.0750622"><ele>593.0</ele><time>2026-05-02T10:24:14.727Z</time></trkpt><trkpt lat="43.0144318" lon="12.0751497"><ele>593.1666666666666</ele><time>2026-05-02T10:24:15.729Z</time></trkpt><trkpt lat="43.0144816" lon="12.0752393"><ele>593.3333333333333</ele><time>2026-05-02T10:24:16.729Z</time></trkpt><trkpt lat="43.0145269" lon="12.0753252"><ele>593.5</ele><time>2026-05-02T10:24:17.728Z</time></trkpt><trkpt lat="43.0145635" lon="12.0754157"><ele>593.6666666666666</ele><time>2026-05-02T10:24:18.728Z</time></trkpt><trkpt lat="43.0145829" lon="12.075518"><ele>593.8333333333334</ele><time>2026-05-02T10:24:19.729Z</time></trkpt><trkpt lat="43.0145644" lon="12.0756934"><ele>594.0</ele><time>2026-05-02T10:24:21.729Z</time></trkpt><trkpt lat="43.0145089" lon="12.0757712"><ele>596.0</ele><time>2026-05-02T10:24:22.729Z</time></trkpt><trkpt lat="43.0144394" lon="12.0758527"><ele>598.0</ele><time>2026-05-02T10:24:23.729Z</time></trkpt><trkpt lat="43.0143748" lon="12.0759591"><ele>600.0</ele><time>2026-05-02T10:24:24.729Z</time></trkpt><trkpt lat="43.0143114" lon="12.0760639"><ele>602.0</ele><time>2026-05-02T10:24:25.729Z</time></trkpt><trkpt lat="43.014276" lon="12.0761646"><ele>604.0</ele><time>2026-05-02T10:24:26.729Z</time></trkpt><trkpt lat="43.0142512" lon="12.076261"><ele>606.0</ele><time>2026-05-02T10:24:27.729Z</time></trkpt><trkpt lat="43.0142366" lon="12.0763455"><ele>606.0</ele><time>2026-05-02T10:24:28.729Z</time></trkpt><trkpt lat="43.0142388" lon="12.0764338"><ele>606.0</ele><time>2026-05-02T10:24:29.728Z</time></trkpt><trkpt lat="43.0142686" lon="12.0765334"><ele>606.0</ele><time>2026-05-02T10:24:30.729Z</time></trkpt><trkpt lat="43.0143167" lon="12.0766203"><ele>606.0</ele><time>2026-05-02T10:24:31.729Z</time></trkpt><trkpt lat="43.0143703" lon="12.0767064"><ele>606.0</ele><time>2026-05-02T10:24:32.728Z</time></trkpt><trkpt lat="43.0144303" lon="12.0767752"><ele>606.0</ele><time>2026-05-02T10:24:33.729Z</time></trkpt><trkpt lat="43.0144834" lon="12.0768369"><ele>607.6</ele><time>2026-05-02T10:24:34.729Z</time></trkpt><trkpt lat="43.0145784" lon="12.0769318"><ele>609.2</ele><time>2026-05-02T10:24:36.729Z</time></trkpt><trkpt lat="43.0146441" lon="12.0770922"><ele>610.8</ele><time>2026-05-02T10:24:38.729Z</time></trkpt><trkpt lat="43.0146546" lon="12.0771821"><ele>612.4</ele><time>2026-05-02T10:24:39.729Z</time></trkpt><trkpt lat="43.0146599" lon="12.0772684"><ele>614.0</ele><time>2026-05-02T10:24:40.729Z</time></trkpt><trkpt lat="43.0146665" lon="12.0773612"><ele>613.75</ele><time>2026-05-02T10:24:41.729Z</time></trkpt><trkpt lat="43.0147243" lon="12.0775094"><ele>613.5</ele><time>2026-05-02T10:24:43.729Z</time></trkpt><trkpt lat="43.0148178" lon="12.077593"><ele>613.25</ele><time>2026-05-02T10:24:45.729Z</time></trkpt><trkpt lat="43.0149285" lon="12.0776462"><ele>613.0</ele><time>2026-05-02T10:24:47.729Z</time></trkpt><trkpt lat="43.0150474" lon="12.077727"><ele>613.0</ele><time>2026-05-02T10:24:49.729Z</time></trkpt><trkpt lat="43.0151111" lon="12.0777794"><ele>613.0</ele><time>2026-05-02T10:24:50.729Z</time></trkpt><trkpt lat="43.0151762" lon="12.0778307"><ele>613.0</ele><time>2026-05-02T10:24:51.728Z</time></trkpt><trkpt lat="43.015228" lon="12.077901"><ele>613.0</ele><time>2026-05-02T10:24:52.729Z</time></trkpt><trkpt lat="43.0152821" lon="12.0779732"><ele>613.0</ele><time>2026-05-02T10:24:53.729Z</time></trkpt><trkpt lat="43.0153329" lon="12.0780655"><ele>613.0</ele><time>2026-05-02T10:24:54.729Z</time></trkpt><trkpt lat="43.015382" lon="12.0781699"><ele>611.1999999999999</ele><time>2026-05-02T10:24:55.729Z</time></trkpt><trkpt lat="43.0154337" lon="12.0782694"><ele>609.4</ele><time>2026-05-02T10:24:56.729Z</time></trkpt><trkpt lat="43.0155065" lon="12.0783777"><ele>607.5999999999999</ele><time>2026-05-02T10:24:57.729Z</time></trkpt><trkpt lat="43.0155813" lon="12.0784784"><ele>605.8</ele><time>2026-05-02T10:24:58.729Z</time></trkpt><trkpt lat="43.0156525" lon="12.0785557"><ele>604.0</ele><time>2026-05-02T10:24:59.729Z</time></trkpt><trkpt lat="43.0157078" lon="12.0786428"><ele>604.0</ele><time>2026-05-02T10:25:00.729Z</time></trkpt><trkpt lat="43.0157647" lon="12.0787241"><ele>604.0</ele><time>2026-05-02T10:25:01.729Z</time></trkpt><trkpt lat="43.0158191" lon="12.0788026"><ele>604.0</ele><time>2026-05-02T10:25:02.728Z</time></trkpt><trkpt lat="43.015878" lon="12.0788853"><ele>604.0</ele><time>2026-05-02T10:25:03.729Z</time></trkpt><trkpt lat="43.0159302" lon="12.0789776"><ele>604.0</ele><time>2026-05-02T10:25:04.729Z</time></trkpt><trkpt lat="43.0159828" lon="12.0790642"><ele>604.0</ele><time>2026-05-02T10:25:05.729Z</time></trkpt><trkpt lat="43.0160387" lon="12.0791527"><ele>604.8</ele><time>2026-05-02T10:25:06.729Z</time></trkpt><trkpt lat="43.0161047" lon="12.0792381"><ele>605.5999999999999</ele><time>2026-05-02T10:25:07.729Z</time></trkpt><trkpt lat="43.0161746" lon="12.0793124"><ele>606.4</ele><time>2026-05-02T10:25:08.729Z</time></trkpt><trkpt lat="43.0162462" lon="12.0793836"><ele>607.1999999999999</ele><time>2026-05-02T10:25:09.729Z</time></trkpt><trkpt lat="43.0163239" lon="12.0794608"><ele>608.0</ele><time>2026-05-02T10:25:10.729Z</time></trkpt><trkpt lat="43.0163883" lon="12.0795412"><ele>608.0</ele><time>2026-05-02T10:25:11.729Z</time></trkpt><trkpt lat="43.0164627" lon="12.0796312"><ele>608.0</ele><time>2026-05-02T10:25:12.729Z</time></trkpt><trkpt lat="43.0165371" lon="12.079714"><ele>608.0</ele><time>2026-05-02T10:25:13.729Z</time></trkpt><trkpt lat="43.0166171" lon="12.0797867"><ele>608.0</ele><time>2026-05-02T10:25:14.729Z</time></trkpt><trkpt lat="43.0167044" lon="12.0798682"><ele>608.0</ele><time>2026-05-02T10:25:15.729Z</time></trkpt><trkpt lat="43.0167774" lon="12.0799541"><ele>608.6</ele><time>2026-05-02T10:25:16.729Z</time></trkpt><trkpt lat="43.0168475" lon="12.0800343"><ele>609.1999999999999</ele><time>2026-05-02T10:25:17.729Z</time></trkpt><trkpt lat="43.0169305" lon="12.080111"><ele>609.8</ele><time>2026-05-02T10:25:18.729Z</time></trkpt><trkpt lat="43.0170115" lon="12.080173"><ele>610.4</ele><time>2026-05-02T10:25:19.729Z</time></trkpt><trkpt lat="43.0171045" lon="12.0802197"><ele>611.0</ele><time>2026-05-02T10:25:20.729Z</time></trkpt><trkpt lat="43.0171968" lon="12.0802709"><ele>611.0</ele><time>2026-05-02T10:25:21.728Z</time></trkpt><trkpt lat="43.0172807" lon="12.0803342"><ele>611.0</ele><time>2026-05-02T10:25:22.728Z</time></trkpt><trkpt lat="43.0173504" lon="12.0804114"><ele>611.0</ele><time>2026-05-02T10:25:23.728Z</time></trkpt><trkpt lat="43.0174132" lon="12.0805187"><ele>611.0</ele><time>2026-05-02T10:25:24.729Z</time></trkpt><trkpt lat="43.0174809" lon="12.0806286"><ele>611.0</ele><time>2026-05-02T10:25:25.729Z</time></trkpt><trkpt lat="43.0175452" lon="12.0807372"><ele>613.1666666666666</ele><time>2026-05-02T10:25:26.729Z</time></trkpt><trkpt lat="43.0176073" lon="12.0808504"><ele>615.3333333333333</ele><time>2026-05-02T10:25:27.729Z</time></trkpt><trkpt lat="43.0176558" lon="12.0809508"><ele>617.5</ele><time>2026-05-02T10:25:28.729Z</time></trkpt><trkpt lat="43.017706" lon="12.0810445"><ele>619.6666666666666</ele><time>2026-05-02T10:25:29.728Z</time></trkpt><trkpt lat="43.0177501" lon="12.0811219"><ele>621.8333333333334</ele><time>2026-05-02T10:25:30.727Z</time></trkpt><trkpt lat="43.0178082" lon="12.0812112"><ele>624.0</ele><time>2026-05-02T10:25:31.727Z</time></trkpt><trkpt lat="43.0178736" lon="12.0813078"><ele>624.0</ele><time>2026-05-02T10:25:32.729Z</time></trkpt><trkpt lat="43.0179327" lon="12.0814101"><ele>624.0</ele><time>2026-05-02T10:25:33.729Z</time></trkpt><trkpt lat="43.0179935" lon="12.0815108"><ele>624.0</ele><time>2026-05-02T10:25:34.727Z</time></trkpt><trkpt lat="43.0180519" lon="12.0815849"><ele>624.0</ele><time>2026-05-02T10:25:35.729Z</time></trkpt><trkpt lat="43.018108" lon="12.0816714"><ele>624.0</ele><time>2026-05-02T10:25:36.729Z</time></trkpt><trkpt lat="43.0181603" lon="12.0817534"><ele>624.0</ele><time>2026-05-02T10:25:37.729Z</time></trkpt><trkpt lat="43.0182052" lon="12.0818362"><ele>623.6</ele><time>2026-05-02T10:25:38.729Z</time></trkpt><trkpt lat="43.0182675" lon="12.0819249"><ele>623.2</ele><time>2026-05-02T10:25:39.727Z</time></trkpt><trkpt lat="43.0183229" lon="12.0820263"><ele>622.8000000000001</ele><time>2026-05-02T10:25:40.728Z</time></trkpt><trkpt lat="43.0183813" lon="12.0821259"><ele>622.4</ele><time>2026-05-02T10:25:41.729Z</time></trkpt><trkpt lat="43.0184216" lon="12.0822269"><ele>622.0</ele><time>2026-05-02T10:25:42.729Z</time></trkpt><trkpt lat="43.0184626" lon="12.082344"><ele>623.2</ele><time>2026-05-02T10:25:43.729Z</time></trkpt><trkpt lat="43.0184965" lon="12.0824646"><ele>624.4000000000001</ele><time>2026-05-02T10:25:44.729Z</time></trkpt><trkpt lat="43.0185239" lon="12.0825965"><ele>625.5999999999999</ele><time>2026-05-02T10:25:45.729Z</time></trkpt><trkpt lat="43.0185546" lon="12.0827314"><ele>626.8</ele><time>2026-05-02T10:25:46.729Z</time></trkpt><trkpt lat="43.0185869" lon="12.0828554"><ele>628.0</ele><time>2026-05-02T10:25:47.727Z</time></trkpt><trkpt lat="43.0186067" lon="12.0829863"><ele>628.0</ele><time>2026-05-02T10:25:48.729Z</time></trkpt><trkpt lat="43.0186306" lon="12.0831166"><ele>628.0</ele><time>2026-05-02T10:25:49.729Z</time></trkpt><trkpt lat="43.0186561" lon="12.0832584"><ele>628.0</ele><time>2026-05-02T10:25:50.728Z</time></trkpt><trkpt lat="43.018678" lon="12.0833852"><ele>628.0</ele><time>2026-05-02T10:25:51.729Z</time></trkpt><trkpt lat="43.0187104" lon="12.0835013"><ele>628.0</ele><time>2026-05-02T10:25:52.729Z</time></trkpt><trkpt lat="43.0187475" lon="12.0836114"><ele>627.1666666666667</ele><time>2026-05-02T10:25:53.729Z</time></trkpt><trkpt lat="43.0187894" lon="12.0837177"><ele>626.3333333333334</ele><time>2026-05-02T10:25:54.729Z</time></trkpt><trkpt lat="43.0188314" lon="12.0838194"><ele>625.5</ele><time>2026-05-02T10:25:55.729Z</time></trkpt><trkpt lat="43.0188665" lon="12.0839093"><ele>624.6666666666666</ele><time>2026-05-02T10:25:56.729Z</time></trkpt><trkpt lat="43.0189198" lon="12.0840227"><ele>623.8333333333333</ele><time>2026-05-02T10:25:58.729Z</time></trkpt><trkpt lat="43.0189628" lon="12.0841128"><ele>623.0</ele><time>2026-05-02T10:26:01.729Z</time></trkpt><trkpt lat="43.0190097" lon="12.0841883"><ele>623.0</ele><time>2026-05-02T10:26:04.729Z</time></trkpt><trkpt lat="43.019042" lon="12.0842643"><ele>623.0</ele><time>2026-05-02T10:26:07.729Z</time></trkpt><trkpt lat="43.0190216" lon="12.0841418"><ele>623.0</ele><time>2026-05-02T10:26:23.729Z</time></trkpt><trkpt lat="43.0189577" lon="12.0840379"><ele>623.0</ele><time>2026-05-02T10:26:25.729Z</time></trkpt><trkpt lat="43.0188635" lon="12.0839995"><ele>623.0</ele><time>2026-05-02T10:26:27.729Z</time></trkpt><trkpt lat="43.0187743" lon="12.0839501"><ele>623.0</ele><time>2026-05-02T10:26:29.728Z</time></trkpt><trkpt lat="43.0187168" lon="12.0838755"><ele>623.0</ele><time>2026-05-02T10:26:31.729Z</time></trkpt><trkpt lat="43.0186554" lon="12.0838119"><ele>623.0</ele><time>2026-05-02T10:26:33.729Z</time></trkpt><trkpt lat="43.0185587" lon="12.0838003"><ele>623.0</ele><time>2026-05-02T10:26:35.729Z</time></trkpt><trkpt lat="43.0184743" lon="12.0837536"><ele>623.0</ele><time>2026-05-02T10:26:37.729Z</time></trkpt><trkpt lat="43.0184031" lon="12.0837412"><ele>623.0</ele><time>2026-05-02T10:26:40.729Z</time></trkpt><trkpt lat="43.0183348" lon="12.083748"><ele>624.0</ele><time>2026-05-02T10:26:42.729Z</time></trkpt><trkpt lat="43.0182613" lon="12.0837279"><ele>625.0</ele><time>2026-05-02T10:26:44.729Z</time></trkpt><trkpt lat="43.0181735" lon="12.0836885"><ele>626.0</ele><time>2026-05-02T10:26:46.729Z</time></trkpt><trkpt lat="43.0181088" lon="12.0836369"><ele>627.0</ele><time>2026-05-02T10:26:48.729Z</time></trkpt><trkpt lat="43.0180798" lon="12.0835367"><ele>628.0</ele><time>2026-05-02T10:26:50.729Z</time></trkpt><trkpt lat="43.0180351" lon="12.083455"><ele>629.0</ele><time>2026-05-02T10:26:52.729Z</time></trkpt><trkpt lat="43.0179696" lon="12.0833778"><ele>631.5</ele><time>2026-05-02T10:26:54.729Z</time></trkpt><trkpt lat="43.0179233" lon="12.0832618"><ele>634.0</ele><time>2026-05-02T10:26:57.728Z</time></trkpt><trkpt lat="43.0178944" lon="12.0831602"><ele>636.5</ele><time>2026-05-02T10:26:59.728Z</time></trkpt><trkpt lat="43.0178716" lon="12.0830385"><ele>639.0</ele><time>2026-05-02T10:27:01.729Z</time></trkpt><trkpt lat="43.0178454" lon="12.0829217"><ele>641.5</ele><time>2026-05-02T10:27:03.729Z</time></trkpt><trkpt lat="43.0178211" lon="12.0828133"><ele>644.0</ele><time>2026-05-02T10:27:05.729Z</time></trkpt><trkpt lat="43.0178005" lon="12.082723"><ele>644.0</ele><time>2026-05-02T10:27:07.729Z</time></trkpt><trkpt lat="43.0177709" lon="12.0826296"><ele>644.0</ele><time>2026-05-02T10:27:10.729Z</time></trkpt><trkpt lat="43.0177159" lon="12.0826814"><ele>644.0</ele><time>2026-05-02T10:27:14.729Z</time></trkpt><trkpt lat="43.0176447" lon="12.0827106"><ele>644.0</ele><time>2026-05-02T10:27:18.729Z</time></trkpt><trkpt lat="43.0175709" lon="12.0827182"><ele>644.0</ele><time>2026-05-02T10:27:23.729Z</time></trkpt><trkpt lat="43.0174885" lon="12.0827411"><ele>644.0</ele><time>2026-05-02T10:27:26.729Z</time></trkpt><trkpt lat="43.0174157" lon="12.0827449"><ele>644.0</ele><time>2026-05-02T10:27:28.729Z</time></trkpt><trkpt lat="43.017339" lon="12.0827312"><ele>640.3333333333333</ele><time>2026-05-02T10:27:30.729Z</time></trkpt><trkpt lat="43.0172542" lon="12.0827244"><ele>636.6666666666666</ele><time>2026-05-02T10:27:32.728Z</time></trkpt><trkpt lat="43.0171842" lon="12.0827389"><ele>633.0</ele><time>2026-05-02T10:27:34.727Z</time></trkpt><trkpt lat="43.0171129" lon="12.0827704"><ele>629.3333333333334</ele><time>2026-05-02T10:27:36.729Z</time></trkpt><trkpt lat="43.0170501" lon="12.082817"><ele>625.6666666666667</ele><time>2026-05-02T10:27:38.729Z</time></trkpt><trkpt lat="43.0169718" lon="12.0828777"><ele>622.0</ele><time>2026-05-02T10:27:41.729Z</time></trkpt><trkpt lat="43.0169043" lon="12.0829214"><ele>622.0</ele><time>2026-05-02T10:27:43.729Z</time></trkpt><trkpt lat="43.0168245" lon="12.082984"><ele>622.0</ele><time>2026-05-02T10:27:45.729Z</time></trkpt><trkpt lat="43.016757" lon="12.0830418"><ele>622.0</ele><time>2026-05-02T10:27:47.729Z</time></trkpt><trkpt lat="43.0166657" lon="12.0830965"><ele>622.0</ele><time>2026-05-02T10:27:49.728Z</time></trkpt><trkpt lat="43.0165916" lon="12.0831187"><ele>622.0</ele><time>2026-05-02T10:27:50.729Z</time></trkpt><trkpt lat="43.0164848" lon="12.0831632"><ele>620.0</ele><time>2026-05-02T10:27:52.729Z</time></trkpt><trkpt lat="43.0163842" lon="12.0832335"><ele>618.0</ele><time>2026-05-02T10:27:54.729Z</time></trkpt><trkpt lat="43.0162994" lon="12.0833438"><ele>616.0</ele><time>2026-05-02T10:27:56.729Z</time></trkpt><trkpt lat="43.0162082" lon="12.0834304"><ele>614.0</ele><time>2026-05-02T10:27:58.729Z</time></trkpt><trkpt lat="43.0161219" lon="12.0834716"><ele>612.0</ele><time>2026-05-02T10:28:00.729Z</time></trkpt><trkpt lat="43.0160393" lon="12.0835001"><ele>612.0</ele><time>2026-05-02T10:28:02.729Z</time></trkpt><trkpt lat="43.0159767" lon="12.0835207"><ele>612.0</ele><time>2026-05-02T10:28:04.729Z</time></trkpt><trkpt lat="43.0159064" lon="12.0835175"><ele>612.0</ele><time>2026-05-02T10:28:06.729Z</time></trkpt><trkpt lat="43.0158093" lon="12.0835096"><ele>612.0</ele><time>2026-05-02T10:28:09.729Z</time></trkpt><trkpt lat="43.0157098" lon="12.0834986"><ele>612.0</ele><time>2026-05-02T10:28:12.728Z</time></trkpt><trkpt lat="43.0156174" lon="12.0835151"><ele>612.0</ele><time>2026-05-02T10:28:15.729Z</time></trkpt><trkpt lat="43.0155268" lon="12.0835479"><ele>609.6666666666666</ele><time>2026-05-02T10:28:18.729Z</time></trkpt><trkpt lat="43.0154716" lon="12.0835931"><ele>607.3333333333334</ele><time>2026-05-02T10:28:20.728Z</time></trkpt><trkpt lat="43.0154082" lon="12.0837088"><ele>605.0</ele><time>2026-05-02T10:28:23.729Z</time></trkpt><trkpt lat="43.0153708" lon="12.0837978"><ele>602.6666666666667</ele><time>2026-05-02T10:28:25.729Z</time></trkpt><trkpt lat="43.0153468" lon="12.083878"><ele>600.3333333333334</ele><time>2026-05-02T10:28:27.729Z</time></trkpt><trkpt lat="43.0153172" lon="12.0839671"><ele>598.0</ele><time>2026-05-02T10:28:29.729Z</time></trkpt><trkpt lat="43.0153018" lon="12.084076"><ele>598.1666666666667</ele><time>2026-05-02T10:28:31.729Z</time></trkpt><trkpt lat="43.0153067" lon="12.0841976"><ele>598.3333333333334</ele><time>2026-05-02T10:28:34.729Z</time></trkpt><trkpt lat="43.0153351" lon="12.0843158"><ele>598.5</ele><time>2026-05-02T10:28:37.729Z</time></trkpt><trkpt lat="43.0153581" lon="12.0844258"><ele>598.6666666666666</ele><time>2026-05-02T10:28:40.729Z</time></trkpt><trkpt lat="43.0153623" lon="12.0845208"><ele>598.8333333333333</ele><time>2026-05-02T10:28:44.728Z</time></trkpt><trkpt lat="43.015346" lon="12.0846119"><ele>599.0</ele><time>2026-05-02T10:29:18.729Z</time></trkpt><trkpt lat="43.0152554" lon="12.0846397"><ele>599.0</ele><time>2026-05-02T10:29:21.729Z</time></trkpt><trkpt lat="43.0151635" lon="12.0846269"><ele>599.0</ele><time>2026-05-02T10:29:24.729Z</time></trkpt><trkpt lat="43.0150808" lon="12.0845883"><ele>599.0</ele><time>2026-05-02T10:29:26.727Z</time></trkpt><trkpt lat="43.0150084" lon="12.0845417"><ele>599.0</ele><time>2026-05-02T10:29:28.729Z</time></trkpt><trkpt lat="43.0149236" lon="12.084499"><ele>599.0</ele><time>2026-05-02T10:29:30.729Z</time></trkpt><trkpt lat="43.0148428" lon="12.0844635"><ele>599.0</ele><time>2026-05-02T10:29:32.729Z</time></trkpt><trkpt lat="43.0147751" lon="12.0844169"><ele>596.6666666666666</ele><time>2026-05-02T10:29:34.729Z</time></trkpt><trkpt lat="43.014702" lon="12.0843715"><ele>594.3333333333333</ele><time>2026-05-02T10:29:36.725Z</time></trkpt><trkpt lat="43.0146407" lon="12.0843307"><ele>592.0</ele><time>2026-05-02T10:29:38.727Z</time></trkpt><trkpt lat="43.0145694" lon="12.0842824"><ele>589.6666666666666</ele><time>2026-05-02T10:29:40.729Z</time></trkpt><trkpt lat="43.014498" lon="12.084201"><ele>587.3333333333334</ele><time>2026-05-02T10:29:42.729Z</time></trkpt><trkpt lat="43.0144288" lon="12.0841032"><ele>585.0</ele><time>2026-05-02T10:29:44.728Z</time></trkpt><trkpt lat="43.0143552" lon="12.0840218"><ele>583.5</ele><time>2026-05-02T10:29:46.728Z</time></trkpt><trkpt lat="43.0143057" lon="12.0839478"><ele>582.0</ele><time>2026-05-02T10:29:48.729Z</time></trkpt><trkpt lat="43.0142373" lon="12.0838926"><ele>580.5</ele><time>2026-05-02T10:29:51.729Z</time></trkpt><trkpt lat="43.0141783" lon="12.0838353"><ele>579.0</ele><time>2026-05-02T10:29:54.727Z</time></trkpt><trkpt lat="43.0140963" lon="12.0837941"><ele>577.5</ele><time>2026-05-02T10:29:57.729Z</time></trkpt><trkpt lat="43.014005" lon="12.0838107"><ele>576.0</ele><time>2026-05-02T10:30:00.729Z</time></trkpt><trkpt lat="43.0139248" lon="12.0838315"><ele>574.7142857142858</ele><time>2026-05-02T10:30:03.725Z</time></trkpt><trkpt lat="43.0138553" lon="12.083889"><ele>573.4285714285714</ele><time>2026-05-02T10:30:06.728Z</time></trkpt><trkpt lat="43.0137849" lon="12.0839461"><ele>572.1428571428571</ele><time>2026-05-02T10:30:09.729Z</time></trkpt><trkpt lat="43.0137095" lon="12.0839288"><ele>570.8571428571429</ele><time>2026-05-02T10:30:12.726Z</time></trkpt><trkpt lat="43.0136482" lon="12.0838785"><ele>569.5714285714286</ele><time>2026-05-02T10:30:14.726Z</time></trkpt><trkpt lat="43.0136124" lon="12.0838044"><ele>568.2857142857143</ele><time>2026-05-02T10:30:16.729Z</time></trkpt><trkpt lat="43.0135689" lon="12.083724"><ele>567.0</ele><time>2026-05-02T10:30:18.729Z</time></trkpt><trkpt lat="43.013533" lon="12.0836479"><ele>567.0</ele><time>2026-05-02T10:30:20.729Z</time></trkpt><trkpt lat="43.0135037" lon="12.083539"><ele>567.0</ele><time>2026-05-02T10:30:23.727Z</time></trkpt><trkpt lat="43.0134235" lon="12.083474"><ele>567.0</ele><time>2026-05-02T10:30:26.729Z</time></trkpt><trkpt lat="43.0133675" lon="12.0834334"><ele>567.0</ele><time>2026-05-02T10:30:28.728Z</time></trkpt><trkpt lat="43.0132813" lon="12.0834058"><ele>567.0</ele><time>2026-05-02T10:30:31.726Z</time></trkpt><trkpt lat="43.0131948" lon="12.0834103"><ele>567.0</ele><time>2026-05-02T10:30:34.726Z</time></trkpt><trkpt lat="43.0131301" lon="12.0834522"><ele>564.5</ele><time>2026-05-02T10:30:36.729Z</time></trkpt><trkpt lat="43.0130727" lon="12.0835118"><ele>562.0</ele><time>2026-05-02T10:30:38.729Z</time></trkpt><trkpt lat="43.0130581" lon="12.0836242"><ele>559.5</ele><time>2026-05-02T10:30:41.728Z</time></trkpt><trkpt lat="43.0130647" lon="12.0837571"><ele>557.0</ele><time>2026-05-02T10:30:44.729Z</time></trkpt><trkpt lat="43.0130721" lon="12.0838502"><ele>554.5</ele><time>2026-05-02T10:30:46.729Z</time></trkpt><trkpt lat="43.0130757" lon="12.0839849"><ele>552.0</ele><time>2026-05-02T10:30:49.729Z</time></trkpt><trkpt lat="43.0130979" lon="12.084081"><ele>550.5</ele><time>2026-05-02T10:30:51.729Z</time></trkpt><trkpt lat="43.0131011" lon="12.0841831"><ele>549.0</ele><time>2026-05-02T10:30:53.729Z</time></trkpt><trkpt lat="43.0131243" lon="12.0843056"><ele>547.5</ele><time>2026-05-02T10:30:56.729Z</time></trkpt><trkpt lat="43.0131634" lon="12.0843831"><ele>546.0</ele><time>2026-05-02T10:30:58.729Z</time></trkpt><trkpt lat="43.0132118" lon="12.0844745"><ele>544.5</ele><time>2026-05-02T10:31:00.729Z</time></trkpt><trkpt lat="43.0132666" lon="12.0845534"><ele>543.0</ele><time>2026-05-02T10:31:02.729Z</time></trkpt><trkpt lat="43.0133048" lon="12.0846594"><ele>545.0</ele><time>2026-05-02T10:31:04.729Z</time></trkpt><trkpt lat="43.013325" lon="12.0847461"><ele>547.0</ele><time>2026-05-02T10:31:06.729Z</time></trkpt><trkpt lat="43.0133338" lon="12.0848818"><ele>549.0</ele><time>2026-05-02T10:31:09.729Z</time></trkpt><trkpt lat="43.0133509" lon="12.0849819"><ele>551.0</ele><time>2026-05-02T10:31:11.729Z</time></trkpt><trkpt lat="43.0133661" lon="12.085081"><ele>553.0</ele><time>2026-05-02T10:31:13.729Z</time></trkpt><trkpt lat="43.0133919" lon="12.0851895"><ele>555.0</ele><time>2026-05-02T10:31:15.729Z</time></trkpt><trkpt lat="43.0134292" lon="12.0852798"><ele>555.0000000000001</ele><time>2026-05-02T10:31:17.729Z</time></trkpt><trkpt lat="43.0134682" lon="12.0853979"><ele>555.0</ele><time>2026-05-02T10:31:20.728Z</time></trkpt><trkpt lat="43.0134893" lon="12.0854872"><ele>555.0</ele><time>2026-05-02T10:31:22.729Z</time></trkpt><trkpt lat="43.0134733" lon="12.0855926"><ele>555.0</ele><time>2026-05-02T10:31:25.729Z</time></trkpt><trkpt lat="43.0134131" lon="12.0856362"><ele>555.0</ele><time>2026-05-02T10:31:28.729Z</time></trkpt><trkpt lat="43.0133492" lon="12.0856707"><ele>555.0000000000001</ele><time>2026-05-02T10:31:30.729Z</time></trkpt><trkpt lat="43.0132872" lon="12.0857058"><ele>555.0</ele><time>2026-05-02T10:31:32.729Z</time></trkpt><trkpt lat="43.0132285" lon="12.0857537"><ele>553.1666666666666</ele><time>2026-05-02T10:31:35.729Z</time></trkpt><trkpt lat="43.0131739" lon="12.0858063"><ele>551.3333333333334</ele><time>2026-05-02T10:31:38.728Z</time></trkpt><trkpt lat="43.0131105" lon="12.0858638"><ele>549.5</ele><time>2026-05-02T10:31:41.728Z</time></trkpt><trkpt lat="43.0130355" lon="12.085902"><ele>547.6666666666667</ele><time>2026-05-02T10:31:51.729Z</time></trkpt><trkpt lat="43.0129468" lon="12.0859543"><ele>545.8333333333334</ele><time>2026-05-02T10:31:53.729Z</time></trkpt><trkpt lat="43.0128855" lon="12.086035"><ele>544.0</ele><time>2026-05-02T10:34:01.729Z</time></trkpt><trkpt lat="43.0128474" lon="12.0861153"><ele>544.0</ele><time>2026-05-02T10:34:03.727Z</time></trkpt><trkpt lat="43.0127834" lon="12.0861969"><ele>544.0</ele><time>2026-05-02T10:34:06.726Z</time></trkpt><trkpt lat="43.0127345" lon="12.0862748"><ele>544.0</ele><time>2026-05-02T10:34:08.728Z</time></trkpt><trkpt lat="43.0126734" lon="12.0863462"><ele>544.0</ele><time>2026-05-02T10:34:10.729Z</time></trkpt><trkpt lat="43.0126043" lon="12.0864112"><ele>544.0</ele><time>2026-05-02T10:34:12.729Z</time></trkpt><trkpt lat="43.0125341" lon="12.0864817"><ele>544.0</ele><time>2026-05-02T10:34:14.729Z</time></trkpt><trkpt lat="43.0124645" lon="12.0865573"><ele>545.4</ele><time>2026-05-02T10:34:17.729Z</time></trkpt><trkpt lat="43.0123936" lon="12.0866399"><ele>546.8</ele><time>2026-05-02T10:34:28.727Z</time></trkpt><trkpt lat="43.0123294" lon="12.0867265"><ele>548.2</ele><time>2026-05-02T10:34:31.729Z</time></trkpt><trkpt lat="43.0122648" lon="12.0868149"><ele>549.6</ele><time>2026-05-02T10:34:34.729Z</time></trkpt><trkpt lat="43.0122035" lon="12.0869066"><ele>551.0</ele><time>2026-05-02T10:34:36.729Z</time></trkpt><trkpt lat="43.0121194" lon="12.0870119"><ele>551.0</ele><time>2026-05-02T10:34:38.729Z</time></trkpt><trkpt lat="43.0120531" lon="12.0871031"><ele>551.0</ele><time>2026-05-02T10:34:40.727Z</time></trkpt><trkpt lat="43.0120105" lon="12.0871807"><ele>551.0</ele><time>2026-05-02T10:34:43.729Z</time></trkpt><trkpt lat="43.0119531" lon="12.0872553"><ele>551.0</ele><time>2026-05-02T10:34:49.728Z</time></trkpt><trkpt lat="43.0118905" lon="12.0873481"><ele>551.0</ele><time>2026-05-02T10:34:52.727Z</time></trkpt><trkpt lat="43.0118115" lon="12.0874581"><ele>551.0</ele><time>2026-05-02T10:34:54.729Z</time></trkpt><trkpt lat="43.011758" lon="12.0875233"><ele>549.8</ele><time>2026-05-02T10:34:55.729Z</time></trkpt><trkpt lat="43.011709" lon="12.0875803"><ele>548.6</ele><time>2026-05-02T10:34:56.729Z</time></trkpt><trkpt lat="43.0116449" lon="12.0876626"><ele>547.4</ele><time>2026-05-02T10:34:58.729Z</time></trkpt><trkpt lat="43.011569" lon="12.08777"><ele>546.2</ele><time>2026-05-02T10:35:00.728Z</time></trkpt><trkpt lat="43.0114818" lon="12.0878766"><ele>545.0</ele><time>2026-05-02T10:35:02.726Z</time></trkpt><trkpt lat="43.0114124" lon="12.0879662"><ele>544.8333333333333</ele><time>2026-05-02T10:35:04.728Z</time></trkpt><trkpt lat="43.0113534" lon="12.0880573"><ele>544.6666666666666</ele><time>2026-05-02T10:35:06.729Z</time></trkpt><trkpt lat="43.0112845" lon="12.0881418"><ele>544.5</ele><time>2026-05-02T10:35:08.729Z</time></trkpt><trkpt lat="43.0112251" lon="12.0882183"><ele>544.3333333333334</ele><time>2026-05-02T10:35:10.729Z</time></trkpt><trkpt lat="43.0111624" lon="12.0882966"><ele>544.1666666666667</ele><time>2026-05-02T10:35:12.726Z</time></trkpt><trkpt lat="43.0110976" lon="12.088369"><ele>544.0</ele><time>2026-05-02T10:35:14.729Z</time></trkpt><trkpt lat="43.0110401" lon="12.0884328"><ele>542.2</ele><time>2026-05-02T10:35:16.726Z</time></trkpt><trkpt lat="43.0109702" lon="12.0884928"><ele>540.4</ele><time>2026-05-02T10:35:18.727Z</time></trkpt><trkpt lat="43.0108909" lon="12.0885135"><ele>538.6</ele><time>2026-05-02T10:35:20.728Z</time></trkpt><trkpt lat="43.0108007" lon="12.0885236"><ele>536.8</ele><time>2026-05-02T10:35:22.729Z</time></trkpt><trkpt lat="43.0107088" lon="12.0885081"><ele>535.0</ele><time>2026-05-02T10:35:24.729Z</time></trkpt><trkpt lat="43.0106063" lon="12.0884684"><ele>533.0</ele><time>2026-05-02T10:35:26.729Z</time></trkpt><trkpt lat="43.0105095" lon="12.0884098"><ele>531.0</ele><time>2026-05-02T10:35:28.729Z</time></trkpt><trkpt lat="43.0104035" lon="12.0883549"><ele>529.0</ele><time>2026-05-02T10:35:30.729Z</time></trkpt><trkpt lat="43.0102964" lon="12.0882906"><ele>527.0</ele><time>2026-05-02T10:35:32.729Z</time></trkpt><trkpt lat="43.0102175" lon="12.0882208"><ele>525.0</ele><time>2026-05-02T10:35:34.729Z</time></trkpt><trkpt lat="43.0101371" lon="12.0881653"><ele>525.0</ele><time>2026-05-02T10:35:36.727Z</time></trkpt><trkpt lat="43.0100497" lon="12.0881081"><ele>525.0</ele><time>2026-05-02T10:35:38.729Z</time></trkpt><trkpt lat="43.0099808" lon="12.0880532"><ele>525.0</ele><time>2026-05-02T10:35:40.725Z</time></trkpt><trkpt lat="43.0099095" lon="12.0880156"><ele>525.0</ele><time>2026-05-02T10:35:42.729Z</time></trkpt><trkpt lat="43.0098285" lon="12.0879786"><ele>525.0</ele><time>2026-05-02T10:35:44.726Z</time></trkpt><trkpt lat="43.0097354" lon="12.087939"><ele>525.0</ele><time>2026-05-02T10:35:46.728Z</time></trkpt><trkpt lat="43.0096476" lon="12.0879435"><ele>520.6</ele><time>2026-05-02T10:35:48.728Z</time></trkpt><trkpt lat="43.0095642" lon="12.087998"><ele>516.2</ele><time>2026-05-02T10:35:50.726Z</time></trkpt><trkpt lat="43.0094963" lon="12.0880661"><ele>511.79999999999995</ele><time>2026-05-02T10:35:52.729Z</time></trkpt><trkpt lat="43.0094235" lon="12.0881369"><ele>507.4</ele><time>2026-05-02T10:35:54.726Z</time></trkpt><trkpt lat="43.0093317" lon="12.0881718"><ele>503.0</ele><time>2026-05-02T10:35:56.729Z</time></trkpt><trkpt lat="43.0092181" lon="12.088233"><ele>502.0</ele><time>2026-05-02T10:35:58.729Z</time></trkpt><trkpt lat="43.0091148" lon="12.0882919"><ele>500.99999999999994</ele><time>2026-05-02T10:36:00.729Z</time></trkpt><trkpt lat="43.0089941" lon="12.0883304"><ele>499.99999999999994</ele><time>2026-05-02T10:36:02.729Z</time></trkpt><trkpt lat="43.0088892" lon="12.0883759"><ele>499.0</ele><time>2026-05-02T10:36:04.726Z</time></trkpt><trkpt lat="43.0088167" lon="12.0884505"><ele>498.0</ele><time>2026-05-02T10:36:06.729Z</time></trkpt><trkpt lat="43.0087668" lon="12.0885752"><ele>498.0</ele><time>2026-05-02T10:36:08.727Z</time></trkpt><trkpt lat="43.0087536" lon="12.0887162"><ele>497.99999999999994</ele><time>2026-05-02T10:36:10.727Z</time></trkpt><trkpt lat="43.0087604" lon="12.0888318"><ele>497.99999999999994</ele><time>2026-05-02T10:36:12.728Z</time></trkpt><trkpt lat="43.0087921" lon="12.0889669"><ele>498.0</ele><time>2026-05-02T10:36:14.727Z</time></trkpt><trkpt lat="43.008846" lon="12.0890878"><ele>498.0</ele><time>2026-05-02T10:36:16.728Z</time></trkpt><trkpt lat="43.0088907" lon="12.0891537"><ele>498.59999999999997</ele><time>2026-05-02T10:36:17.729Z</time></trkpt><trkpt lat="43.0089779" lon="12.0892557"><ele>499.19999999999993</ele><time>2026-05-02T10:36:19.727Z</time></trkpt><trkpt lat="43.0090637" lon="12.0893283"><ele>499.8</ele><time>2026-05-02T10:36:21.728Z</time></trkpt><trkpt lat="43.0091473" lon="12.089385"><ele>500.4</ele><time>2026-05-02T10:36:23.729Z</time></trkpt><trkpt lat="43.009241" lon="12.0894456"><ele>501.0</ele><time>2026-05-02T10:36:25.726Z</time></trkpt><trkpt lat="43.0093381" lon="12.0894793"><ele>501.0</ele><time>2026-05-02T10:36:27.726Z</time></trkpt><trkpt lat="43.0094349" lon="12.089496"><ele>501.0</ele><time>2026-05-02T10:36:29.729Z</time></trkpt><trkpt lat="43.009534" lon="12.0895297"><ele>501.0</ele><time>2026-05-02T10:36:31.728Z</time></trkpt><trkpt lat="43.0096171" lon="12.0895768"><ele>501.0</ele><time>2026-05-02T10:36:33.728Z</time></trkpt><trkpt lat="43.009685" lon="12.089621"><ele>501.0</ele><time>2026-05-02T10:36:35.728Z</time></trkpt><trkpt lat="43.0097742" lon="12.0896902"><ele>501.0</ele><time>2026-05-02T10:36:37.727Z</time></trkpt><trkpt lat="43.0098563" lon="12.0897999"><ele>501.0</ele><time>2026-05-02T10:36:39.728Z</time></trkpt><trkpt lat="43.0099069" lon="12.0898579"><ele>501.0</ele><time>2026-05-02T10:36:40.729Z</time></trkpt><trkpt lat="43.0099545" lon="12.0899153"><ele>501.0</ele><time>2026-05-02T10:36:41.729Z</time></trkpt><trkpt lat="43.0100031" lon="12.0899789"><ele>501.0</ele><time>2026-05-02T10:36:42.726Z</time></trkpt><trkpt lat="43.0100866" lon="12.0900868"><ele>501.0</ele><time>2026-05-02T10:36:44.727Z</time></trkpt><trkpt lat="43.0101626" lon="12.0901875"><ele>498.4</ele><time>2026-05-02T10:36:46.729Z</time></trkpt><trkpt lat="43.0102171" lon="12.0902803"><ele>495.8</ele><time>2026-05-02T10:36:48.724Z</time></trkpt><trkpt lat="43.0102753" lon="12.0903903"><ele>493.19999999999993</ele><time>2026-05-02T10:36:50.726Z</time></trkpt><trkpt lat="43.0103312" lon="12.0905018"><ele>490.59999999999997</ele><time>2026-05-02T10:36:52.728Z</time></trkpt><trkpt lat="43.0103816" lon="12.0906124"><ele>488.0</ele><time>2026-05-02T10:36:54.729Z</time></trkpt><trkpt lat="43.0104315" lon="12.0907397"><ele>483.59999999999997</ele><time>2026-05-02T10:36:56.728Z</time></trkpt><trkpt lat="43.010489" lon="12.0908865"><ele>479.19999999999993</ele><time>2026-05-02T10:36:58.726Z</time></trkpt><trkpt lat="43.0105279" lon="12.0910182"><ele>474.8</ele><time>2026-05-02T10:37:00.729Z</time></trkpt><trkpt lat="43.0105792" lon="12.0911312"><ele>470.4</ele><time>2026-05-02T10:37:02.729Z</time></trkpt><trkpt lat="43.010656" lon="12.0911967"><ele>466.0</ele><time>2026-05-02T10:37:04.726Z</time></trkpt><trkpt lat="43.0107486" lon="12.0912215"><ele>468.6666666666667</ele><time>2026-05-02T10:37:06.729Z</time></trkpt><trkpt lat="43.0108359" lon="12.0912535"><ele>471.33333333333337</ele><time>2026-05-02T10:37:08.729Z</time></trkpt><trkpt lat="43.0109346" lon="12.0912627"><ele>474.0</ele><time>2026-05-02T10:37:10.729Z</time></trkpt><trkpt lat="43.011018" lon="12.0912682"><ele>476.66666666666663</ele><time>2026-05-02T10:37:12.729Z</time></trkpt><trkpt lat="43.0111018" lon="12.0912708"><ele>479.3333333333333</ele><time>2026-05-02T10:37:14.727Z</time></trkpt><trkpt lat="43.0111744" lon="12.091266"><ele>482.0</ele><time>2026-05-02T10:37:16.728Z</time></trkpt><trkpt lat="43.0112499" lon="12.0912408"><ele>482.0</ele><time>2026-05-02T10:37:18.729Z</time></trkpt><trkpt lat="43.011354" lon="12.091228"><ele>482.00000000000006</ele><time>2026-05-02T10:37:20.727Z</time></trkpt><trkpt lat="43.0114627" lon="12.0912444"><ele>482.00000000000006</ele><time>2026-05-02T10:37:22.728Z</time></trkpt><trkpt lat="43.0115644" lon="12.0912612"><ele>482.0</ele><time>2026-05-02T10:37:24.729Z</time></trkpt><trkpt lat="43.0116483" lon="12.0912806"><ele>482.0</ele><time>2026-05-02T10:37:26.727Z</time></trkpt><trkpt lat="43.011725" lon="12.0912966"><ele>480.66666666666663</ele><time>2026-05-02T10:37:28.725Z</time></trkpt><trkpt lat="43.0118057" lon="12.0913217"><ele>479.3333333333333</ele><time>2026-05-02T10:37:30.728Z</time></trkpt><trkpt lat="43.0118338" lon="12.0914025"><ele>478.0</ele><time>2026-05-02T10:37:32.728Z</time></trkpt><trkpt lat="43.0118018" lon="12.091497"><ele>476.66666666666663</ele><time>2026-05-02T10:37:34.726Z</time></trkpt><trkpt lat="43.0117557" lon="12.091571"><ele>475.3333333333333</ele><time>2026-05-02T10:37:36.725Z</time></trkpt><trkpt lat="43.0116804" lon="12.0916347"><ele>474.0</ele><time>2026-05-02T10:37:38.729Z</time></trkpt><trkpt lat="43.0116074" lon="12.0916767"><ele>472.0</ele><time>2026-05-02T10:37:40.726Z</time></trkpt><trkpt lat="43.0115261" lon="12.0917357"><ele>470.0</ele><time>2026-05-02T10:37:42.729Z</time></trkpt><trkpt lat="43.0114707" lon="12.0917949"><ele>468.0</ele><time>2026-05-02T10:37:44.727Z</time></trkpt><trkpt lat="43.0113971" lon="12.0918684"><ele>466.0</ele><time>2026-05-02T10:37:46.728Z</time></trkpt><trkpt lat="43.0113324" lon="12.091939"><ele>464.0</ele><time>2026-05-02T10:37:48.729Z</time></trkpt><trkpt lat="43.0112868" lon="12.0919998"><ele>462.0</ele><time>2026-05-02T10:37:50.729Z</time></trkpt><trkpt lat="43.0112079" lon="12.0920399"><ele>462.0</ele><time>2026-05-02T10:37:52.729Z</time></trkpt><trkpt lat="43.0111199" lon="12.0921187"><ele>462.0</ele><time>2026-05-02T10:37:54.726Z</time></trkpt><trkpt lat="43.0111066" lon="12.0922183"><ele>462.0</ele><time>2026-05-02T10:37:56.729Z</time></trkpt><trkpt lat="43.0111517" lon="12.0923271"><ele>462.0</ele><time>2026-05-02T10:37:58.729Z</time></trkpt><trkpt lat="43.0111905" lon="12.0924297"><ele>462.0</ele><time>2026-05-02T10:38:00.729Z</time></trkpt><trkpt lat="43.0112441" lon="12.0925194"><ele>462.0</ele><time>2026-05-02T10:38:02.729Z</time></trkpt><trkpt lat="43.0112944" lon="12.0926244"><ele>459.8333333333333</ele><time>2026-05-02T10:38:04.729Z</time></trkpt><trkpt lat="43.0113388" lon="12.0927302"><ele>457.66666666666663</ele><time>2026-05-02T10:38:06.729Z</time></trkpt><trkpt lat="43.0113815" lon="12.0928339"><ele>455.5</ele><time>2026-05-02T10:38:08.728Z</time></trkpt><trkpt lat="43.0114277" lon="12.0929323"><ele>453.3333333333333</ele><time>2026-05-02T10:38:10.729Z</time></trkpt><trkpt lat="43.0114693" lon="12.0930557"><ele>451.16666666666663</ele><time>2026-05-02T10:38:12.729Z</time></trkpt><trkpt lat="43.0114896" lon="12.0931661"><ele>449.0</ele><time>2026-05-02T10:38:14.728Z</time></trkpt><trkpt lat="43.0115234" lon="12.0932959"><ele>445.99999999999994</ele><time>2026-05-02T10:38:17.728Z</time></trkpt><trkpt lat="43.0115576" lon="12.093407"><ele>443.0</ele><time>2026-05-02T10:38:19.721Z</time></trkpt><trkpt lat="43.0115962" lon="12.0935191"><ele>440.0</ele><time>2026-05-02T10:38:21.729Z</time></trkpt><trkpt lat="43.0116189" lon="12.0936375"><ele>437.0</ele><time>2026-05-02T10:38:23.726Z</time></trkpt><trkpt lat="43.0116398" lon="12.0937387"><ele>433.99999999999994</ele><time>2026-05-02T10:38:25.729Z</time></trkpt><trkpt lat="43.0116287" lon="12.0938595"><ele>431.0</ele><time>2026-05-02T10:38:27.729Z</time></trkpt><trkpt lat="43.0115894" lon="12.0939956"><ele>427.66666666666663</ele><time>2026-05-02T10:38:29.729Z</time></trkpt><trkpt lat="43.011517" lon="12.0940967"><ele>424.3333333333333</ele><time>2026-05-02T10:38:31.729Z</time></trkpt><trkpt lat="43.011458" lon="12.0941308"><ele>421.0</ele><time>2026-05-02T10:38:32.729Z</time></trkpt><trkpt lat="43.0113725" lon="12.0941574"><ele>417.66666666666663</ele><time>2026-05-02T10:38:33.728Z</time></trkpt><trkpt lat="43.0112908" lon="12.0941742"><ele>414.3333333333333</ele><time>2026-05-02T10:38:34.729Z</time></trkpt><trkpt lat="43.0112131" lon="12.094193"><ele>411.0</ele><time>2026-05-02T10:38:35.729Z</time></trkpt><trkpt lat="43.0111355" lon="12.0942038"><ele>411.0</ele><time>2026-05-02T10:38:36.729Z</time></trkpt><trkpt lat="43.0110461" lon="12.0942198"><ele>411.0</ele><time>2026-05-02T10:38:37.726Z</time></trkpt><trkpt lat="43.0109594" lon="12.0942438"><ele>411.0</ele><time>2026-05-02T10:38:38.729Z</time></trkpt><trkpt lat="43.0108804" lon="12.094257"><ele>411.0</ele><time>2026-05-02T10:38:39.729Z</time></trkpt><trkpt lat="43.0108003" lon="12.0942623"><ele>411.0</ele><time>2026-05-02T10:38:40.727Z</time></trkpt><trkpt lat="43.0107292" lon="12.0942722"><ele>411.0</ele><time>2026-05-02T10:38:41.727Z</time></trkpt><trkpt lat="43.0106543" lon="12.0942803"><ele>409.7142857142857</ele><time>2026-05-02T10:38:42.729Z</time></trkpt><trkpt lat="43.0105762" lon="12.0942814"><ele>408.42857142857144</ele><time>2026-05-02T10:38:43.728Z</time></trkpt><trkpt lat="43.0104951" lon="12.0942826"><ele>407.1428571428571</ele><time>2026-05-02T10:38:44.726Z</time></trkpt><trkpt lat="43.0104187" lon="12.0942865"><ele>405.8571428571429</ele><time>2026-05-02T10:38:45.727Z</time></trkpt><trkpt lat="43.0103536" lon="12.0942891"><ele>404.5714285714286</ele><time>2026-05-02T10:38:46.728Z</time></trkpt><trkpt lat="43.0102906" lon="12.0942851"><ele>403.2857142857143</ele><time>2026-05-02T10:38:47.725Z</time></trkpt><trkpt lat="43.0102272" lon="12.0942735"><ele>402.0</ele><time>2026-05-02T10:38:48.729Z</time></trkpt><trkpt lat="43.0101646" lon="12.0942482"><ele>402.0</ele><time>2026-05-02T10:38:49.729Z</time></trkpt><trkpt lat="43.0101065" lon="12.0942069"><ele>402.0</ele><time>2026-05-02T10:38:50.729Z</time></trkpt><trkpt lat="43.0100554" lon="12.0941455"><ele>402.0</ele><time>2026-05-02T10:38:51.729Z</time></trkpt><trkpt lat="43.0100003" lon="12.0940868"><ele>402.0</ele><time>2026-05-02T10:38:52.729Z</time></trkpt><trkpt lat="43.0098913" lon="12.0940603"><ele>402.0</ele><time>2026-05-02T10:38:54.724Z</time></trkpt><trkpt lat="43.0098015" lon="12.0942007"><ele>403.0</ele><time>2026-05-02T10:38:56.729Z</time></trkpt><trkpt lat="43.0097482" lon="12.0943059"><ele>404.0</ele><time>2026-05-02T10:38:57.729Z</time></trkpt><trkpt lat="43.0097018" lon="12.0944174"><ele>405.0</ele><time>2026-05-02T10:38:58.729Z</time></trkpt><trkpt lat="43.0096584" lon="12.0945356"><ele>406.0</ele><time>2026-05-02T10:38:59.729Z</time></trkpt><trkpt lat="43.0096133" lon="12.0946532"><ele>407.0</ele><time>2026-05-02T10:39:00.729Z</time></trkpt><trkpt lat="43.0095747" lon="12.094766"><ele>406.99999999999994</ele><time>2026-05-02T10:39:01.726Z</time></trkpt><trkpt lat="43.0095379" lon="12.0948796"><ele>407.0</ele><time>2026-05-02T10:39:02.729Z</time></trkpt><trkpt lat="43.0095015" lon="12.0949893"><ele>407.0</ele><time>2026-05-02T10:39:03.725Z</time></trkpt><trkpt lat="43.0094764" lon="12.0950876"><ele>407.0</ele><time>2026-05-02T10:39:04.727Z</time></trkpt><trkpt lat="43.0094489" lon="12.0951846"><ele>406.99999999999994</ele><time>2026-05-02T10:39:05.729Z</time></trkpt><trkpt lat="43.0094207" lon="12.0952796"><ele>407.0</ele><time>2026-05-02T10:39:06.729Z</time></trkpt><trkpt lat="43.0093675" lon="12.0953547"><ele>403.99999999999994</ele><time>2026-05-02T10:39:07.727Z</time></trkpt><trkpt lat="43.0093164" lon="12.0954145"><ele>401.0</ele><time>2026-05-02T10:39:08.729Z</time></trkpt><trkpt lat="43.0092346" lon="12.0954818"><ele>398.0</ele><time>2026-05-02T10:39:10.727Z</time></trkpt><trkpt lat="43.0092113" lon="12.0955692"><ele>395.0</ele><time>2026-05-02T10:39:12.729Z</time></trkpt><trkpt lat="43.009272" lon="12.0956529"><ele>391.99999999999994</ele><time>2026-05-02T10:39:14.729Z</time></trkpt><trkpt lat="43.0093869" lon="12.0956595"><ele>389.0</ele><time>2026-05-02T10:39:16.726Z</time></trkpt><trkpt lat="43.0094898" lon="12.0957112"><ele>385.16666666666663</ele><time>2026-05-02T10:39:18.724Z</time></trkpt><trkpt lat="43.0095194" lon="12.095815"><ele>381.3333333333333</ele><time>2026-05-02T10:39:20.726Z</time></trkpt><trkpt lat="43.0094613" lon="12.0959655"><ele>377.5</ele><time>2026-05-02T10:39:22.729Z</time></trkpt><trkpt lat="43.0094059" lon="12.0960344"><ele>373.66666666666663</ele><time>2026-05-02T10:39:23.729Z</time></trkpt><trkpt lat="43.0093435" lon="12.096102"><ele>369.8333333333333</ele><time>2026-05-02T10:39:24.729Z</time></trkpt><trkpt lat="43.0092853" lon="12.0961526"><ele>366.0</ele><time>2026-05-02T10:39:25.729Z</time></trkpt><trkpt lat="43.0092194" lon="12.0961911"><ele>367.20000000000005</ele><time>2026-05-02T10:39:26.725Z</time></trkpt><trkpt lat="43.0090981" lon="12.0962447"><ele>368.40000000000003</ele><time>2026-05-02T10:39:28.729Z</time></trkpt><trkpt lat="43.0089719" lon="12.0962876"><ele>369.6</ele><time>2026-05-02T10:39:30.729Z</time></trkpt><trkpt lat="43.0088991" lon="12.0963146"><ele>370.8</ele><time>2026-05-02T10:39:31.729Z</time></trkpt><trkpt lat="43.008826" lon="12.0963583"><ele>372.0</ele><time>2026-05-02T10:39:32.725Z</time></trkpt><trkpt lat="43.0087485" lon="12.0964005"><ele>372.0</ele><time>2026-05-02T10:39:33.726Z</time></trkpt><trkpt lat="43.0086696" lon="12.0964451"><ele>372.0</ele><time>2026-05-02T10:39:34.728Z</time></trkpt><trkpt lat="43.0085934" lon="12.0964863"><ele>372.0</ele><time>2026-05-02T10:39:35.729Z</time></trkpt><trkpt lat="43.0085219" lon="12.0965264"><ele>372.0</ele><time>2026-05-02T10:39:36.729Z</time></trkpt><trkpt lat="43.0084511" lon="12.0965746"><ele>372.0</ele><time>2026-05-02T10:39:37.729Z</time></trkpt><trkpt lat="43.0083888" lon="12.0966312"><ele>372.0</ele><time>2026-05-02T10:39:38.729Z</time></trkpt><trkpt lat="43.008339" lon="12.0966944"><ele>369.6666666666667</ele><time>2026-05-02T10:39:39.729Z</time></trkpt><trkpt lat="43.0082909" lon="12.0968147"><ele>367.3333333333333</ele><time>2026-05-02T10:39:41.726Z</time></trkpt><trkpt lat="43.0083612" lon="12.09688"><ele>365.0</ele><time>2026-05-02T10:39:44.725Z</time></trkpt><trkpt lat="43.0084236" lon="12.0968377"><ele>362.66666666666663</ele><time>2026-05-02T10:39:45.727Z</time></trkpt><trkpt lat="43.0084869" lon="12.0967791"><ele>360.3333333333333</ele><time>2026-05-02T10:39:46.724Z</time></trkpt><trkpt lat="43.0085786" lon="12.0966974"><ele>358.0</ele><time>2026-05-02T10:39:47.728Z</time></trkpt><trkpt lat="43.0086851" lon="12.0966305"><ele>362.66666666666663</ele><time>2026-05-02T10:39:48.725Z</time></trkpt><trkpt lat="43.0088218" lon="12.0965651"><ele>367.3333333333333</ele><time>2026-05-02T10:39:49.725Z</time></trkpt><trkpt lat="43.0089743" lon="12.0965068"><ele>372.0</ele><time>2026-05-02T10:39:50.725Z</time></trkpt><trkpt lat="43.0091257" lon="12.0964657"><ele>370.5</ele><time>2026-05-02T10:39:51.724Z</time></trkpt><trkpt lat="43.0092574" lon="12.0964194"><ele>369.0</ele><time>2026-05-02T10:39:52.728Z</time></trkpt><trkpt lat="43.009371" lon="12.0963688"><ele>367.5</ele><time>2026-05-02T10:39:53.729Z</time></trkpt><trkpt lat="43.009466" lon="12.096286"><ele>366.0</ele><time>2026-05-02T10:39:54.727Z</time></trkpt><trkpt lat="43.0095477" lon="12.0961763"><ele>366.0</ele><time>2026-05-02T10:39:55.725Z</time></trkpt><trkpt lat="43.0096064" lon="12.0960396"><ele>366.0</ele><time>2026-05-02T10:39:56.728Z</time></trkpt><trkpt lat="43.0096458" lon="12.0959211"><ele>366.0</ele><time>2026-05-02T10:39:57.726Z</time></trkpt><trkpt lat="43.0096886" lon="12.095804"><ele>366.0</ele><time>2026-05-02T10:39:58.727Z</time></trkpt><trkpt lat="43.009757" lon="12.0957202"><ele>366.0</ele><time>2026-05-02T10:39:59.726Z</time></trkpt><trkpt lat="43.0098462" lon="12.0956951"><ele>366.20000000000005</ele><time>2026-05-02T10:40:00.726Z</time></trkpt><trkpt lat="43.0099403" lon="12.0957263"><ele>366.40000000000003</ele><time>2026-05-02T10:40:01.728Z</time></trkpt><trkpt lat="43.0100387" lon="12.0957705"><ele>366.6</ele><time>2026-05-02T10:40:02.728Z</time></trkpt><trkpt lat="43.0101503" lon="12.0957771"><ele>366.8</ele><time>2026-05-02T10:40:03.729Z</time></trkpt><trkpt lat="43.0102692" lon="12.0957439"><ele>367.0</ele><time>2026-05-02T10:40:04.729Z</time></trkpt><trkpt lat="43.0103936" lon="12.0957052"><ele>367.0</ele><time>2026-05-02T10:40:05.725Z</time></trkpt><trkpt lat="43.0105133" lon="12.0956855"><ele>367.0</ele><time>2026-05-02T10:40:06.727Z</time></trkpt><trkpt lat="43.0106396" lon="12.0957124"><ele>367.0</ele><time>2026-05-02T10:40:07.725Z</time></trkpt><trkpt lat="43.0107701" lon="12.0957667"><ele>367.0</ele><time>2026-05-02T10:40:08.725Z</time></trkpt><trkpt lat="43.0108807" lon="12.0958342"><ele>369.0</ele><time>2026-05-02T10:40:09.729Z</time></trkpt><trkpt lat="43.0109918" lon="12.0958739"><ele>371.0</ele><time>2026-05-02T10:40:10.728Z</time></trkpt><trkpt lat="43.0111136" lon="12.0958599"><ele>373.0</ele><time>2026-05-02T10:40:11.725Z</time></trkpt><trkpt lat="43.0112277" lon="12.0958063"><ele>375.0</ele><time>2026-05-02T10:40:12.727Z</time></trkpt><trkpt lat="43.0113206" lon="12.0957371"><ele>377.8</ele><time>2026-05-02T10:40:13.724Z</time></trkpt><trkpt lat="43.0114021" lon="12.0956662"><ele>380.6</ele><time>2026-05-02T10:40:14.726Z</time></trkpt><trkpt lat="43.0114927" lon="12.0956081"><ele>383.4</ele><time>2026-05-02T10:40:15.724Z</time></trkpt><trkpt lat="43.01159" lon="12.0955567"><ele>386.2</ele><time>2026-05-02T10:40:16.728Z</time></trkpt><trkpt lat="43.0116983" lon="12.0955189"><ele>389.0</ele><time>2026-05-02T10:40:17.729Z</time></trkpt><trkpt lat="43.0118109" lon="12.0954742"><ele>390.25</ele><time>2026-05-02T10:40:18.728Z</time></trkpt><trkpt lat="43.0119289" lon="12.0954213"><ele>391.5</ele><time>2026-05-02T10:40:19.727Z</time></trkpt><trkpt lat="43.0120395" lon="12.0953345"><ele>392.75</ele><time>2026-05-02T10:40:20.729Z</time></trkpt><trkpt lat="43.0121471" lon="12.0952325"><ele>394.0</ele><time>2026-05-02T10:40:21.729Z</time></trkpt><trkpt lat="43.0122441" lon="12.095101"><ele>394.0</ele><time>2026-05-02T10:40:22.726Z</time></trkpt><trkpt lat="43.0123158" lon="12.0949477"><ele>394.0</ele><time>2026-05-02T10:40:23.729Z</time></trkpt><trkpt lat="43.0123531" lon="12.0947746"><ele>394.0</ele><time>2026-05-02T10:40:24.729Z</time></trkpt><trkpt lat="43.0123749" lon="12.0945905"><ele>394.0</ele><time>2026-05-02T10:40:25.724Z</time></trkpt><trkpt lat="43.0123965" lon="12.0944012"><ele>396.0</ele><time>2026-05-02T10:40:26.725Z</time></trkpt><trkpt lat="43.012441" lon="12.0942074"><ele>398.0</ele><time>2026-05-02T10:40:27.727Z</time></trkpt><trkpt lat="43.0124852" lon="12.0940138"><ele>400.0</ele><time>2026-05-02T10:40:28.729Z</time></trkpt><trkpt lat="43.0125387" lon="12.0938511"><ele>402.0</ele><time>2026-05-02T10:40:29.724Z</time></trkpt><trkpt lat="43.0126037" lon="12.0937142"><ele>402.0</ele><time>2026-05-02T10:40:30.727Z</time></trkpt><trkpt lat="43.0126972" lon="12.093605"><ele>402.0</ele><time>2026-05-02T10:40:31.728Z</time></trkpt><trkpt lat="43.0127995" lon="12.0935156"><ele>402.0</ele><time>2026-05-02T10:40:32.727Z</time></trkpt><trkpt lat="43.0129093" lon="12.0934206"><ele>402.0</ele><time>2026-05-02T10:40:33.727Z</time></trkpt><trkpt lat="43.0130094" lon="12.0933272"><ele>399.8</ele><time>2026-05-02T10:40:34.727Z</time></trkpt><trkpt lat="43.0131101" lon="12.0932539"><ele>397.6</ele><time>2026-05-02T10:40:35.729Z</time></trkpt><trkpt lat="43.0132135" lon="12.0932183"><ele>395.40000000000003</ele><time>2026-05-02T10:40:36.726Z</time></trkpt><trkpt lat="43.0133023" lon="12.0932333"><ele>393.20000000000005</ele><time>2026-05-02T10:40:37.727Z</time></trkpt><trkpt lat="43.0133577" lon="12.0933047"><ele>391.0</ele><time>2026-05-02T10:40:38.728Z</time></trkpt><trkpt lat="43.0133828" lon="12.0934156"><ele>391.0</ele><time>2026-05-02T10:40:39.723Z</time></trkpt><trkpt lat="43.0134006" lon="12.0935272"><ele>391.0</ele><time>2026-05-02T10:40:40.722Z</time></trkpt><trkpt lat="43.0133573" lon="12.0936574"><ele>391.0</ele><time>2026-05-02T10:40:41.726Z</time></trkpt><trkpt lat="43.0133129" lon="12.0937907"><ele>391.0</ele><time>2026-05-02T10:40:42.729Z</time></trkpt><trkpt lat="43.0133036" lon="12.0939151"><ele>391.0</ele><time>2026-05-02T10:40:43.726Z</time></trkpt><trkpt lat="43.0133146" lon="12.0940427"><ele>388.8</ele><time>2026-05-02T10:40:44.725Z</time></trkpt><trkpt lat="43.0133643" lon="12.09413"><ele>386.6</ele><time>2026-05-02T10:40:45.725Z</time></trkpt><trkpt lat="43.0134443" lon="12.0941745"><ele>384.4</ele><time>2026-05-02T10:40:46.725Z</time></trkpt><trkpt lat="43.0135411" lon="12.0941727"><ele>382.2</ele><time>2026-05-02T10:40:47.725Z</time></trkpt><trkpt lat="43.0136376" lon="12.0941354"><ele>380.0</ele><time>2026-05-02T10:40:48.729Z</time></trkpt><trkpt lat="43.0137381" lon="12.0940984"><ele>380.0</ele><time>2026-05-02T10:40:49.725Z</time></trkpt><trkpt lat="43.0138324" lon="12.0940934"><ele>380.0</ele><time>2026-05-02T10:40:50.729Z</time></trkpt><trkpt lat="43.013914" lon="12.0941383"><ele>380.0</ele><time>2026-05-02T10:40:51.727Z</time></trkpt><trkpt lat="43.0139861" lon="12.0942355"><ele>380.0</ele><time>2026-05-02T10:40:52.725Z</time></trkpt><trkpt lat="43.0140407" lon="12.0943746"><ele>380.0</ele><time>2026-05-02T10:40:53.725Z</time></trkpt><trkpt lat="43.0141144" lon="12.0944896"><ele>383.25</ele><time>2026-05-02T10:40:54.728Z</time></trkpt><trkpt lat="43.0142168" lon="12.0945837"><ele>386.5</ele><time>2026-05-02T10:40:55.729Z</time></trkpt><trkpt lat="43.0143258" lon="12.0946514"><ele>389.75</ele><time>2026-05-02T10:40:56.727Z</time></trkpt><trkpt lat="43.0144332" lon="12.0947253"><ele>393.0</ele><time>2026-05-02T10:40:57.729Z</time></trkpt><trkpt lat="43.0145419" lon="12.0948005"><ele>393.0</ele><time>2026-05-02T10:40:58.729Z</time></trkpt><trkpt lat="43.0146473" lon="12.0948692"><ele>393.0</ele><time>2026-05-02T10:40:59.726Z</time></trkpt><trkpt lat="43.0147531" lon="12.0949378"><ele>393.0</ele><time>2026-05-02T10:41:00.727Z</time></trkpt><trkpt lat="43.0148554" lon="12.0949979"><ele>393.0</ele><time>2026-05-02T10:41:01.728Z</time></trkpt><trkpt lat="43.0149624" lon="12.0950374"><ele>391.0</ele><time>2026-05-02T10:41:02.728Z</time></trkpt><trkpt lat="43.0150668" lon="12.0950589"><ele>389.0</ele><time>2026-05-02T10:41:03.727Z</time></trkpt><trkpt lat="43.0151689" lon="12.0950688"><ele>387.0</ele><time>2026-05-02T10:41:04.729Z</time></trkpt><trkpt lat="43.0152569" lon="12.0951015"><ele>385.0</ele><time>2026-05-02T10:41:05.729Z</time></trkpt><trkpt lat="43.0153205" lon="12.0951765"><ele>383.0</ele><time>2026-05-02T10:41:06.729Z</time></trkpt><trkpt lat="43.0153648" lon="12.0952927"><ele>383.0</ele><time>2026-05-02T10:41:07.729Z</time></trkpt><trkpt lat="43.0153901" lon="12.0954306"><ele>383.0</ele><time>2026-05-02T10:41:08.728Z</time></trkpt><trkpt lat="43.0154213" lon="12.0955805"><ele>383.0</ele><time>2026-05-02T10:41:09.724Z</time></trkpt><trkpt lat="43.0154705" lon="12.0957101"><ele>383.0</ele><time>2026-05-02T10:41:10.724Z</time></trkpt><trkpt lat="43.015558" lon="12.0958196"><ele>383.0</ele><time>2026-05-02T10:41:11.729Z</time></trkpt><trkpt lat="43.0156678" lon="12.0959164"><ele>382.5</ele><time>2026-05-02T10:41:12.729Z</time></trkpt><trkpt lat="43.0157895" lon="12.0960139"><ele>382.0</ele><time>2026-05-02T10:41:13.727Z</time></trkpt><trkpt lat="43.0159065" lon="12.0960885"><ele>381.5</ele><time>2026-05-02T10:41:14.729Z</time></trkpt><trkpt lat="43.0160192" lon="12.0961475"><ele>381.0</ele><time>2026-05-02T10:41:15.729Z</time></trkpt><trkpt lat="43.0161365" lon="12.0961799"><ele>381.0</ele><time>2026-05-02T10:41:16.728Z</time></trkpt><trkpt lat="43.0162693" lon="12.0961879"><ele>381.0</ele><time>2026-05-02T10:41:17.726Z</time></trkpt><trkpt lat="43.0164147" lon="12.0962107"><ele>381.0</ele><time>2026-05-02T10:41:18.729Z</time></trkpt><trkpt lat="43.0165657" lon="12.0962522"><ele>381.0</ele><time>2026-05-02T10:41:19.727Z</time></trkpt><trkpt lat="43.0167145" lon="12.0962853"><ele>382.75</ele><time>2026-05-02T10:41:20.729Z</time></trkpt><trkpt lat="43.0168599" lon="12.0962888"><ele>384.5</ele><time>2026-05-02T10:41:21.729Z</time></trkpt><trkpt lat="43.016993" lon="12.09627"><ele>386.25</ele><time>2026-05-02T10:41:22.729Z</time></trkpt><trkpt lat="43.0171155" lon="12.096259"><ele>388.0</ele><time>2026-05-02T10:41:23.727Z</time></trkpt><trkpt lat="43.017226" lon="12.0962375"><ele>388.00000000000006</ele><time>2026-05-02T10:41:24.726Z</time></trkpt><trkpt lat="43.017317" lon="12.0962152"><ele>388.0</ele><time>2026-05-02T10:41:25.729Z</time></trkpt><trkpt lat="43.0173827" lon="12.0961925"><ele>388.0</ele><time>2026-05-02T10:41:26.729Z</time></trkpt><trkpt lat="43.0174566" lon="12.096165"><ele>388.0</ele><time>2026-05-02T10:41:28.726Z</time></trkpt><trkpt lat="43.0174546" lon="12.0962581"><ele>388.00000000000006</ele><time>2026-05-02T10:41:44.728Z</time></trkpt><trkpt lat="43.0174309" lon="12.0963387"><ele>388.0</ele><time>2026-05-02T10:41:46.726Z</time></trkpt><trkpt lat="43.0173861" lon="12.0964376"><ele>388.00000000000006</ele><time>2026-05-02T10:41:48.724Z</time></trkpt><trkpt lat="43.017307" lon="12.0965221"><ele>388.0</ele><time>2026-05-02T10:41:50.726Z</time></trkpt><trkpt lat="43.0172409" lon="12.0965543"><ele>388.0</ele><time>2026-05-02T10:41:51.725Z</time></trkpt><trkpt lat="43.0171689" lon="12.096571"><ele>388.0</ele><time>2026-05-02T10:41:52.726Z</time></trkpt><trkpt lat="43.0170917" lon="12.0965795"><ele>388.00000000000006</ele><time>2026-05-02T10:41:53.728Z</time></trkpt><trkpt lat="43.0170191" lon="12.096596"><ele>388.0</ele><time>2026-05-02T10:41:54.727Z</time></trkpt><trkpt lat="43.0169551" lon="12.0966071"><ele>384.59999999999997</ele><time>2026-05-02T10:41:55.729Z</time></trkpt><trkpt lat="43.016855" lon="12.0966542"><ele>381.2</ele><time>2026-05-02T10:41:57.726Z</time></trkpt><trkpt lat="43.0168022" lon="12.0968076"><ele>377.8</ele><time>2026-05-02T10:41:59.727Z</time></trkpt><trkpt lat="43.0167975" lon="12.0969111"><ele>374.4</ele><time>2026-05-02T10:42:00.726Z</time></trkpt><trkpt lat="43.0168073" lon="12.0970149"><ele>371.0</ele><time>2026-05-02T10:42:01.727Z</time></trkpt><trkpt lat="43.0168307" lon="12.0971052"><ele>371.0</ele><time>2026-05-02T10:42:02.727Z</time></trkpt><trkpt lat="43.0168603" lon="12.0971865"><ele>371.0</ele><time>2026-05-02T10:42:03.726Z</time></trkpt><trkpt lat="43.016909" lon="12.097306"><ele>371.0</ele><time>2026-05-02T10:42:05.724Z</time></trkpt><trkpt lat="43.016947" lon="12.0973857"><ele>371.0</ele><time>2026-05-02T10:42:07.727Z</time></trkpt><trkpt lat="43.0169811" lon="12.0974684"><ele>371.0</ele><time>2026-05-02T10:42:09.729Z</time></trkpt><trkpt lat="43.0170114" lon="12.0975782"><ele>371.0</ele><time>2026-05-02T10:42:11.727Z</time></trkpt><trkpt lat="43.0170392" lon="12.0977168"><ele>368.4</ele><time>2026-05-02T10:42:13.725Z</time></trkpt><trkpt lat="43.017063" lon="12.0978587"><ele>365.8</ele><time>2026-05-02T10:42:15.728Z</time></trkpt><trkpt lat="43.0170961" lon="12.0980027"><ele>363.2</ele><time>2026-05-02T10:42:17.726Z</time></trkpt><trkpt lat="43.0171207" lon="12.0981341"><ele>360.59999999999997</ele><time>2026-05-02T10:42:19.727Z</time></trkpt><trkpt lat="43.0171463" lon="12.0982486"><ele>358.0</ele><time>2026-05-02T10:42:21.727Z</time></trkpt><trkpt lat="43.0171673" lon="12.0983444"><ele>356.5</ele><time>2026-05-02T10:42:23.725Z</time></trkpt><trkpt lat="43.0171834" lon="12.0984387"><ele>355.0</ele><time>2026-05-02T10:42:27.725Z</time></trkpt><trkpt lat="43.0171669" lon="12.0985636"><ele>353.5</ele><time>2026-05-02T10:44:01.727Z</time></trkpt><trkpt lat="43.0171413" lon="12.0986636"><ele>352.0</ele><time>2026-05-02T10:44:03.727Z</time></trkpt><trkpt lat="43.0171169" lon="12.0987786"><ele>350.5</ele><time>2026-05-02T10:44:05.727Z</time></trkpt><trkpt lat="43.0171034" lon="12.0988758"><ele>349.0</ele><time>2026-05-02T10:44:07.725Z</time></trkpt><trkpt lat="43.017082" lon="12.0989784"><ele>347.4</ele><time>2026-05-02T10:44:09.729Z</time></trkpt><trkpt lat="43.017065" lon="12.0990916"><ele>345.79999999999995</ele><time>2026-05-02T10:44:12.725Z</time></trkpt><trkpt lat="43.017034" lon="12.0991963"><ele>344.20000000000005</ele><time>2026-05-02T10:44:14.729Z</time></trkpt><trkpt lat="43.0169663" lon="12.0993144"><ele>342.6</ele><time>2026-05-02T10:44:16.726Z</time></trkpt><trkpt lat="43.0169215" lon="12.0994248"><ele>341.0</ele><time>2026-05-02T10:44:18.728Z</time></trkpt><trkpt lat="43.0168775" lon="12.0995395"><ele>341.0</ele><time>2026-05-02T10:44:20.724Z</time></trkpt><trkpt lat="43.016825" lon="12.0996343"><ele>341.0</ele><time>2026-05-02T10:44:22.724Z</time></trkpt><trkpt lat="43.0167657" lon="12.0996738"><ele>341.0</ele><time>2026-05-02T10:44:25.724Z</time></trkpt><trkpt lat="43.0167179" lon="12.0997724"><ele>341.0</ele><time>2026-05-02T10:44:28.727Z</time></trkpt><trkpt lat="43.0166736" lon="12.0998947"><ele>341.0</ele><time>2026-05-02T10:44:30.726Z</time></trkpt><trkpt lat="43.0165988" lon="12.1000171"><ele>337.0</ele><time>2026-05-02T10:44:32.729Z</time></trkpt><trkpt lat="43.0165232" lon="12.1001297"><ele>333.0</ele><time>2026-05-02T10:44:34.723Z</time></trkpt><trkpt lat="43.0164326" lon="12.1002236"><ele>329.0</ele><time>2026-05-02T10:44:36.725Z</time></trkpt><trkpt lat="43.0163687" lon="12.1003124"><ele>325.0</ele><time>2026-05-02T10:44:38.725Z</time></trkpt><trkpt lat="43.0163337" lon="12.1004128"><ele>321.0</ele><time>2026-05-02T10:44:40.724Z</time></trkpt><trkpt lat="43.0163038" lon="12.1005592"><ele>321.0</ele><time>2026-05-02T10:44:42.727Z</time></trkpt><trkpt lat="43.016284" lon="12.1006638"><ele>321.0</ele><time>2026-05-02T10:44:43.727Z</time></trkpt><trkpt lat="43.0162738" lon="12.100754"><ele>321.0</ele><time>2026-05-02T10:44:44.727Z</time></trkpt><trkpt lat="43.0162647" lon="12.1008756"><ele>321.0</ele><time>2026-05-02T10:44:46.727Z</time></trkpt><trkpt lat="43.0162481" lon="12.1009987"><ele>321.0</ele><time>2026-05-02T10:44:48.726Z</time></trkpt><trkpt lat="43.0162578" lon="12.1011547"><ele>321.0</ele><time>2026-05-02T10:44:50.726Z</time></trkpt><trkpt lat="43.0162729" lon="12.1012928"><ele>321.4</ele><time>2026-05-02T10:44:52.725Z</time></trkpt><trkpt lat="43.0163096" lon="12.1014352"><ele>321.8</ele><time>2026-05-02T10:44:54.725Z</time></trkpt><trkpt lat="43.016357" lon="12.1015574"><ele>322.2</ele><time>2026-05-02T10:44:56.725Z</time></trkpt><trkpt lat="43.0164084" lon="12.1016669"><ele>322.59999999999997</ele><time>2026-05-02T10:44:58.726Z</time></trkpt><trkpt lat="43.0164768" lon="12.1017887"><ele>323.0</ele><time>2026-05-02T10:45:00.725Z</time></trkpt><trkpt lat="43.0165298" lon="12.1018812"><ele>323.4</ele><time>2026-05-02T10:45:02.726Z</time></trkpt><trkpt lat="43.0165856" lon="12.1019666"><ele>323.79999999999995</ele><time>2026-05-02T10:45:05.729Z</time></trkpt><trkpt lat="43.0166359" lon="12.1020503"><ele>324.2</ele><time>2026-05-02T10:45:08.724Z</time></trkpt><trkpt lat="43.0166995" lon="12.1021473"><ele>324.6</ele><time>2026-05-02T10:45:10.726Z</time></trkpt><trkpt lat="43.0167723" lon="12.1022575"><ele>325.0</ele><time>2026-05-02T10:45:12.729Z</time></trkpt><trkpt lat="43.0168428" lon="12.1023493"><ele>326.3333333333333</ele><time>2026-05-02T10:45:14.729Z</time></trkpt><trkpt lat="43.0169097" lon="12.1024654"><ele>327.66666666666663</ele><time>2026-05-02T10:45:16.725Z</time></trkpt><trkpt lat="43.016945" lon="12.1025534"><ele>329.0</ele><time>2026-05-02T10:45:18.726Z</time></trkpt><trkpt lat="43.0169716" lon="12.1026336"><ele>330.3333333333333</ele><time>2026-05-02T10:45:20.729Z</time></trkpt><trkpt lat="43.0170578" lon="12.1026534"><ele>331.6666666666667</ele><time>2026-05-02T10:45:23.724Z</time></trkpt><trkpt lat="43.0171478" lon="12.1026861"><ele>333.0</ele><time>2026-05-02T10:45:25.729Z</time></trkpt><trkpt lat="43.0172257" lon="12.1027409"><ele>333.0</ele><time>2026-05-02T10:45:27.727Z</time></trkpt><trkpt lat="43.0172815" lon="12.1028624"><ele>333.0</ele><time>2026-05-02T10:45:29.727Z</time></trkpt><trkpt lat="43.0173131" lon="12.1030152"><ele>333.0</ele><time>2026-05-02T10:45:31.729Z</time></trkpt><trkpt lat="43.0173307" lon="12.1031023"><ele>333.0</ele><time>2026-05-02T10:45:32.729Z</time></trkpt><trkpt lat="43.0173506" lon="12.1031899"><ele>333.0</ele><time>2026-05-02T10:45:33.724Z</time></trkpt><trkpt lat="43.017369" lon="12.1032751"><ele>333.0</ele><time>2026-05-02T10:45:34.729Z</time></trkpt><trkpt lat="43.0173968" lon="12.1033571"><ele>330.59999999999997</ele><time>2026-05-02T10:45:35.723Z</time></trkpt><trkpt lat="43.0174561" lon="12.1035049"><ele>328.2</ele><time>2026-05-02T10:45:37.729Z</time></trkpt><trkpt lat="43.0175014" lon="12.1036428"><ele>325.8</ele><time>2026-05-02T10:45:39.727Z</time></trkpt><trkpt lat="43.0175419" lon="12.1037593"><ele>323.4</ele><time>2026-05-02T10:45:41.729Z</time></trkpt><trkpt lat="43.0175869" lon="12.1038903"><ele>321.0</ele><time>2026-05-02T10:45:43.729Z</time></trkpt><trkpt lat="43.0176379" lon="12.1040507"><ele>319.40000000000003</ele><time>2026-05-02T10:45:45.729Z</time></trkpt><trkpt lat="43.0176669" lon="12.1041419"><ele>317.8</ele><time>2026-05-02T10:45:46.728Z</time></trkpt><trkpt lat="43.0177104" lon="12.1042958"><ele>316.20000000000005</ele><time>2026-05-02T10:45:48.729Z</time></trkpt><trkpt lat="43.0177557" lon="12.1044165"><ele>314.6</ele><time>2026-05-02T10:45:50.727Z</time></trkpt><trkpt lat="43.0177852" lon="12.1045248"><ele>313.0</ele><time>2026-05-02T10:45:52.727Z</time></trkpt><trkpt lat="43.0177968" lon="12.1046366"><ele>313.0</ele><time>2026-05-02T10:45:54.729Z</time></trkpt><trkpt lat="43.0178002" lon="12.1047386"><ele>313.0</ele><time>2026-05-02T10:45:56.725Z</time></trkpt><trkpt lat="43.017803" lon="12.104881"><ele>313.0</ele><time>2026-05-02T10:45:58.728Z</time></trkpt><trkpt lat="43.0177822" lon="12.1050301"><ele>313.0</ele><time>2026-05-02T10:46:00.728Z</time></trkpt><trkpt lat="43.0177836" lon="12.1051247"><ele>313.0</ele><time>2026-05-02T10:46:01.729Z</time></trkpt><trkpt lat="43.0177913" lon="12.1052226"><ele>313.0</ele><time>2026-05-02T10:46:02.726Z</time></trkpt><trkpt lat="43.0178024" lon="12.1053937"><ele>310.8</ele><time>2026-05-02T10:46:04.727Z</time></trkpt><trkpt lat="43.0177704" lon="12.1055587"><ele>308.6</ele><time>2026-05-02T10:46:06.727Z</time></trkpt><trkpt lat="43.0177162" lon="12.1056907"><ele>306.4</ele><time>2026-05-02T10:46:08.725Z</time></trkpt><trkpt lat="43.0176965" lon="12.1058278"><ele>304.2</ele><time>2026-05-02T10:46:10.729Z</time></trkpt><trkpt lat="43.0177189" lon="12.1059614"><ele>302.0</ele><time>2026-05-02T10:46:12.726Z</time></trkpt><trkpt lat="43.0177333" lon="12.106051"><ele>301.00000000000006</ele><time>2026-05-02T10:46:13.727Z</time></trkpt><trkpt lat="43.0177278" lon="12.1061432"><ele>300.0</ele><time>2026-05-02T10:46:14.729Z</time></trkpt><trkpt lat="43.0177127" lon="12.1062342"><ele>299.0</ele><time>2026-05-02T10:46:15.728Z</time></trkpt><trkpt lat="43.0176875" lon="12.1063238"><ele>298.0</ele><time>2026-05-02T10:46:16.723Z</time></trkpt><trkpt lat="43.0176552" lon="12.1064113"><ele>297.0</ele><time>2026-05-02T10:46:17.729Z</time></trkpt><trkpt lat="43.0176198" lon="12.1065003"><ele>296.00000000000006</ele><time>2026-05-02T10:46:18.729Z</time></trkpt><trkpt lat="43.017612" lon="12.1065865"><ele>295.0</ele><time>2026-05-02T10:46:19.729Z</time></trkpt><trkpt lat="43.0175852" lon="12.1066776"><ele>293.8333333333333</ele><time>2026-05-02T10:46:20.729Z</time></trkpt><trkpt lat="43.0175388" lon="12.1067936"><ele>292.66666666666663</ele><time>2026-05-02T10:46:22.728Z</time></trkpt><trkpt lat="43.0175648" lon="12.1068947"><ele>291.5</ele><time>2026-05-02T10:46:25.727Z</time></trkpt><trkpt lat="43.0176781" lon="12.1069443"><ele>290.3333333333333</ele><time>2026-05-02T10:46:27.727Z</time></trkpt><trkpt lat="43.0177522" lon="12.1069641"><ele>289.1666666666667</ele><time>2026-05-02T10:46:28.728Z</time></trkpt><trkpt lat="43.0178299" lon="12.1069641"><ele>288.0</ele><time>2026-05-02T10:46:29.729Z</time></trkpt><trkpt lat="43.0179195" lon="12.1069843"><ele>288.0</ele><time>2026-05-02T10:46:30.726Z</time></trkpt><trkpt lat="43.0180182" lon="12.1069941"><ele>288.0</ele><time>2026-05-02T10:46:31.729Z</time></trkpt><trkpt lat="43.0181026" lon="12.1070088"><ele>288.0</ele><time>2026-05-02T10:46:32.729Z</time></trkpt><trkpt lat="43.0181816" lon="12.1070346"><ele>288.0</ele><time>2026-05-02T10:46:33.726Z</time></trkpt><trkpt lat="43.0182475" lon="12.107087"><ele>288.0</ele><time>2026-05-02T10:46:34.729Z</time></trkpt><trkpt lat="43.0183081" lon="12.1071751"><ele>288.0</ele><time>2026-05-02T10:46:35.725Z</time></trkpt><trkpt lat="43.018354" lon="12.1072884"><ele>286.75</ele><time>2026-05-02T10:46:36.729Z</time></trkpt><trkpt lat="43.0183973" lon="12.1074332"><ele>285.5</ele><time>2026-05-02T10:46:37.729Z</time></trkpt><trkpt lat="43.0184463" lon="12.1075922"><ele>284.25</ele><time>2026-05-02T10:46:38.728Z</time></trkpt><trkpt lat="43.0184937" lon="12.1077337"><ele>283.0</ele><time>2026-05-02T10:46:39.724Z</time></trkpt><trkpt lat="43.0185358" lon="12.1078583"><ele>283.0</ele><time>2026-05-02T10:46:40.729Z</time></trkpt><trkpt lat="43.0185619" lon="12.1079768"><ele>283.0</ele><time>2026-05-02T10:46:41.725Z</time></trkpt><trkpt lat="43.0185744" lon="12.1080811"><ele>283.0</ele><time>2026-05-02T10:46:42.724Z</time></trkpt><trkpt lat="43.0185686" lon="12.1081834"><ele>283.0</ele><time>2026-05-02T10:46:43.728Z</time></trkpt><trkpt lat="43.0185573" lon="12.1082765"><ele>283.0</ele><time>2026-05-02T10:46:44.729Z</time></trkpt><trkpt lat="43.0185281" lon="12.1083675"><ele>283.0</ele><time>2026-05-02T10:46:45.727Z</time></trkpt><trkpt lat="43.0184784" lon="12.1084298"><ele>283.5</ele><time>2026-05-02T10:46:46.725Z</time></trkpt><trkpt lat="43.0184154" lon="12.1084834"><ele>284.0</ele><time>2026-05-02T10:46:47.729Z</time></trkpt><trkpt lat="43.018354" lon="12.1085277"><ele>284.5</ele><time>2026-05-02T10:46:48.729Z</time></trkpt><trkpt lat="43.0182686" lon="12.1086001"><ele>285.0</ele><time>2026-05-02T10:46:50.729Z</time></trkpt><trkpt lat="43.018219" lon="12.1086779"><ele>285.5</ele><time>2026-05-02T10:46:52.725Z</time></trkpt><trkpt lat="43.0182247" lon="12.1087641"><ele>286.0</ele><time>2026-05-02T10:46:54.727Z</time></trkpt><trkpt lat="43.018313" lon="12.1088636"><ele>287.0</ele><time>2026-05-02T10:46:56.727Z</time></trkpt><trkpt lat="43.0184168" lon="12.108925"><ele>288.0</ele><time>2026-05-02T10:46:58.724Z</time></trkpt><trkpt lat="43.0184817" lon="12.1089591"><ele>289.0</ele><time>2026-05-02T10:46:59.724Z</time></trkpt><trkpt lat="43.018538" lon="12.1090059"><ele>290.0</ele><time>2026-05-02T10:47:00.729Z</time></trkpt><trkpt lat="43.0186175" lon="12.1090566"><ele>291.0</ele><time>2026-05-02T10:47:01.729Z</time></trkpt><trkpt lat="43.0186989" lon="12.1091096"><ele>292.0</ele><time>2026-05-02T10:47:02.728Z</time></trkpt><trkpt lat="43.0187748" lon="12.1091617"><ele>293.66666666666663</ele><time>2026-05-02T10:47:03.729Z</time></trkpt><trkpt lat="43.0188487" lon="12.1092175"><ele>295.3333333333333</ele><time>2026-05-02T10:47:04.726Z</time></trkpt><trkpt lat="43.0189291" lon="12.1093049"><ele>297.0</ele><time>2026-05-02T10:47:05.726Z</time></trkpt><trkpt lat="43.0189921" lon="12.1093827"><ele>298.6666666666667</ele><time>2026-05-02T10:47:06.725Z</time></trkpt><trkpt lat="43.0190547" lon="12.109446"><ele>300.33333333333337</ele><time>2026-05-02T10:47:07.726Z</time></trkpt><trkpt lat="43.0191023" lon="12.1095079"><ele>302.0</ele><time>2026-05-02T10:47:08.726Z</time></trkpt><trkpt lat="43.0191585" lon="12.1095511"><ele>303.1666666666667</ele><time>2026-05-02T10:47:09.726Z</time></trkpt><trkpt lat="43.0192377" lon="12.1095879"><ele>304.33333333333337</ele><time>2026-05-02T10:47:11.726Z</time></trkpt><trkpt lat="43.0193109" lon="12.1096202"><ele>305.5</ele><time>2026-05-02T10:47:13.729Z</time></trkpt><trkpt lat="43.0193981" lon="12.1096806"><ele>306.6666666666667</ele><time>2026-05-02T10:47:15.729Z</time></trkpt><trkpt lat="43.01946" lon="12.1096974"><ele>307.8333333333333</ele><time>2026-05-02T10:47:16.729Z</time></trkpt><trkpt lat="43.0195238" lon="12.1097031"><ele>309.0</ele><time>2026-05-02T10:47:17.728Z</time></trkpt><trkpt lat="43.0195957" lon="12.1097033"><ele>309.00000000000006</ele><time>2026-05-02T10:47:18.727Z</time></trkpt><trkpt lat="43.0196645" lon="12.1097006"><ele>309.0</ele><time>2026-05-02T10:47:19.729Z</time></trkpt><trkpt lat="43.0197321" lon="12.1097022"><ele>309.0</ele><time>2026-05-02T10:47:20.726Z</time></trkpt><trkpt lat="43.0198072" lon="12.1097158"><ele>309.0</ele><time>2026-05-02T10:47:21.729Z</time></trkpt><trkpt lat="43.0198793" lon="12.109728"><ele>309.0</ele><time>2026-05-02T10:47:22.729Z</time></trkpt><trkpt lat="43.0199532" lon="12.1097526"><ele>309.00000000000006</ele><time>2026-05-02T10:47:23.729Z</time></trkpt><trkpt lat="43.0200214" lon="12.1097901"><ele>309.0</ele><time>2026-05-02T10:47:24.728Z</time></trkpt><trkpt lat="43.0200776" lon="12.1098383"><ele>311.0</ele><time>2026-05-02T10:47:25.726Z</time></trkpt><trkpt lat="43.0201302" lon="12.1098865"><ele>313.0</ele><time>2026-05-02T10:47:26.729Z</time></trkpt><trkpt lat="43.0201887" lon="12.1099486"><ele>315.0</ele><time>2026-05-02T10:47:27.729Z</time></trkpt><trkpt lat="43.0202408" lon="12.1100091"><ele>317.0</ele><time>2026-05-02T10:47:28.725Z</time></trkpt><trkpt lat="43.02029" lon="12.1100733"><ele>319.0</ele><time>2026-05-02T10:47:29.729Z</time></trkpt><trkpt lat="43.0203598" lon="12.1101731"><ele>321.0</ele><time>2026-05-02T10:47:31.729Z</time></trkpt><trkpt lat="43.020365" lon="12.110291"><ele>323.0</ele><time>2026-05-02T10:47:34.728Z</time></trkpt><trkpt lat="43.0202996" lon="12.1103969"><ele>325.0</ele><time>2026-05-02T10:47:36.726Z</time></trkpt><trkpt lat="43.0202602" lon="12.1105362"><ele>327.0</ele><time>2026-05-02T10:47:38.727Z</time></trkpt><trkpt lat="43.0202524" lon="12.1106993"><ele>329.0</ele><time>2026-05-02T10:47:40.728Z</time></trkpt><trkpt lat="43.0202685" lon="12.110789"><ele>331.0</ele><time>2026-05-02T10:47:41.729Z</time></trkpt><trkpt lat="43.020303" lon="12.110882"><ele>332.0</ele><time>2026-05-02T10:47:42.723Z</time></trkpt><trkpt lat="43.0203472" lon="12.1109854"><ele>333.0</ele><time>2026-05-02T10:47:43.726Z</time></trkpt><trkpt lat="43.0203952" lon="12.1111052"><ele>334.0</ele><time>2026-05-02T10:47:44.728Z</time></trkpt><trkpt lat="43.0204463" lon="12.1112392"><ele>335.0</ele><time>2026-05-02T10:47:45.729Z</time></trkpt><trkpt lat="43.0204993" lon="12.1113701"><ele>336.0</ele><time>2026-05-02T10:47:46.729Z</time></trkpt><trkpt lat="43.0205502" lon="12.1115238"><ele>335.75</ele><time>2026-05-02T10:47:47.729Z</time></trkpt><trkpt lat="43.0205967" lon="12.1116887"><ele>335.5</ele><time>2026-05-02T10:47:48.724Z</time></trkpt><trkpt lat="43.020639" lon="12.1118629"><ele>335.25</ele><time>2026-05-02T10:47:49.723Z</time></trkpt><trkpt lat="43.020684" lon="12.1120431"><ele>335.0</ele><time>2026-05-02T10:47:50.724Z</time></trkpt><trkpt lat="43.0207308" lon="12.112208"><ele>335.0</ele><time>2026-05-02T10:47:51.727Z</time></trkpt><trkpt lat="43.0207726" lon="12.1123646"><ele>335.0</ele><time>2026-05-02T10:47:52.725Z</time></trkpt><trkpt lat="43.0207962" lon="12.1125183"><ele>335.0</ele><time>2026-05-02T10:47:53.727Z</time></trkpt><trkpt lat="43.0207926" lon="12.1126738"><ele>335.0</ele><time>2026-05-02T10:47:54.728Z</time></trkpt><trkpt lat="43.0207755" lon="12.1128513"><ele>335.0</ele><time>2026-05-02T10:47:55.724Z</time></trkpt><trkpt lat="43.0207239" lon="12.1130218"><ele>335.0</ele><time>2026-05-02T10:47:56.729Z</time></trkpt><trkpt lat="43.0206427" lon="12.113194"><ele>335.0</ele><time>2026-05-02T10:47:57.725Z</time></trkpt><trkpt lat="43.0205472" lon="12.1133581"><ele>335.0</ele><time>2026-05-02T10:47:58.723Z</time></trkpt><trkpt lat="43.0204324" lon="12.113518"><ele>333.33333333333337</ele><time>2026-05-02T10:47:59.726Z</time></trkpt><trkpt lat="43.0203065" lon="12.1136676"><ele>331.6666666666667</ele><time>2026-05-02T10:48:00.728Z</time></trkpt><trkpt lat="43.020177" lon="12.1138333"><ele>330.0</ele><time>2026-05-02T10:48:01.728Z</time></trkpt><trkpt lat="43.0200489" lon="12.1140011"><ele>327.6666666666667</ele><time>2026-05-02T10:48:02.729Z</time></trkpt><trkpt lat="43.0199201" lon="12.1141651"><ele>325.33333333333337</ele><time>2026-05-02T10:48:03.729Z</time></trkpt><trkpt lat="43.0197796" lon="12.1143155"><ele>323.0</ele><time>2026-05-02T10:48:04.726Z</time></trkpt><trkpt lat="43.019633" lon="12.1144528"><ele>323.0</ele><time>2026-05-02T10:48:05.727Z</time></trkpt><trkpt lat="43.0194795" lon="12.1145852"><ele>323.0</ele><time>2026-05-02T10:48:06.727Z</time></trkpt><trkpt lat="43.0193258" lon="12.1147171"><ele>323.0</ele><time>2026-05-02T10:48:07.729Z</time></trkpt><trkpt lat="43.0191728" lon="12.1148476"><ele>318.0</ele><time>2026-05-02T10:48:08.729Z</time></trkpt><trkpt lat="43.0190202" lon="12.1149674"><ele>313.0</ele><time>2026-05-02T10:48:09.727Z</time></trkpt><trkpt lat="43.0188674" lon="12.1150674"><ele>308.0</ele><time>2026-05-02T10:48:10.727Z</time></trkpt><trkpt lat="43.0187054" lon="12.1151381"><ele>308.0</ele><time>2026-05-02T10:48:11.726Z</time></trkpt><trkpt lat="43.0185257" lon="12.115173"><ele>308.0</ele><time>2026-05-02T10:48:12.729Z</time></trkpt><trkpt lat="43.018328" lon="12.1151656"><ele>308.0</ele><time>2026-05-02T10:48:13.729Z</time></trkpt><trkpt lat="43.018136" lon="12.1151355"><ele>307.6666666666667</ele><time>2026-05-02T10:48:14.728Z</time></trkpt><trkpt lat="43.0179507" lon="12.1151"><ele>307.3333333333333</ele><time>2026-05-02T10:48:15.726Z</time></trkpt><trkpt lat="43.0177712" lon="12.1150794"><ele>307.0</ele><time>2026-05-02T10:48:16.729Z</time></trkpt><trkpt lat="43.0175893" lon="12.1150761"><ele>305.66666666666663</ele><time>2026-05-02T10:48:17.727Z</time></trkpt><trkpt lat="43.0173958" lon="12.1151058"><ele>304.3333333333333</ele><time>2026-05-02T10:48:18.728Z</time></trkpt><trkpt lat="43.0172055" lon="12.1151485"><ele>303.0</ele><time>2026-05-02T10:48:19.725Z</time></trkpt><trkpt lat="43.0170261" lon="12.1152004"><ele>303.0</ele><time>2026-05-02T10:48:20.724Z</time></trkpt><trkpt lat="43.0168576" lon="12.1152418"><ele>303.0</ele><time>2026-05-02T10:48:21.729Z</time></trkpt><trkpt lat="43.0166942" lon="12.1152668"><ele>303.0</ele><time>2026-05-02T10:48:22.727Z</time></trkpt><trkpt lat="43.0165341" lon="12.1152622"><ele>299.6666666666667</ele><time>2026-05-02T10:48:23.724Z</time></trkpt><trkpt lat="43.0163697" lon="12.1152176"><ele>296.33333333333337</ele><time>2026-05-02T10:48:24.728Z</time></trkpt><trkpt lat="43.0162014" lon="12.1151298"><ele>293.0</ele><time>2026-05-02T10:48:25.728Z</time></trkpt><trkpt lat="43.0160325" lon="12.1150222"><ele>293.0</ele><time>2026-05-02T10:48:26.726Z</time></trkpt><trkpt lat="43.0158755" lon="12.1149204"><ele>293.0</ele><time>2026-05-02T10:48:27.729Z</time></trkpt><trkpt lat="43.0157142" lon="12.1148363"><ele>293.0</ele><time>2026-05-02T10:48:28.726Z</time></trkpt><trkpt lat="43.0155705" lon="12.1147602"><ele>291.0</ele><time>2026-05-02T10:48:29.725Z</time></trkpt><trkpt lat="43.0154399" lon="12.1146984"><ele>289.0</ele><time>2026-05-02T10:48:30.729Z</time></trkpt><trkpt lat="43.0153343" lon="12.1146442"><ele>287.0</ele><time>2026-05-02T10:48:31.725Z</time></trkpt><trkpt lat="43.0152367" lon="12.1146008"><ele>285.0</ele><time>2026-05-02T10:48:32.729Z</time></trkpt><trkpt lat="43.0151498" lon="12.114559"><ele>283.0</ele><time>2026-05-02T10:48:33.723Z</time></trkpt><trkpt lat="43.0150679" lon="12.1145401"><ele>283.0</ele><time>2026-05-02T10:48:34.726Z</time></trkpt><trkpt lat="43.0149911" lon="12.1145656"><ele>283.0</ele><time>2026-05-02T10:48:35.728Z</time></trkpt><trkpt lat="43.0149296" lon="12.1146451"><ele>283.0</ele><time>2026-05-02T10:48:36.725Z</time></trkpt><trkpt lat="43.0149093" lon="12.1147621"><ele>283.0</ele><time>2026-05-02T10:48:37.727Z</time></trkpt><trkpt lat="43.0149381" lon="12.1148995"><ele>283.0</ele><time>2026-05-02T10:48:38.722Z</time></trkpt><trkpt lat="43.0149963" lon="12.1150362"><ele>283.0</ele><time>2026-05-02T10:48:39.729Z</time></trkpt><trkpt lat="43.0150553" lon="12.1151745"><ele>283.0</ele><time>2026-05-02T10:48:40.723Z</time></trkpt><trkpt lat="43.0151339" lon="12.1152903"><ele>283.0</ele><time>2026-05-02T10:48:41.723Z</time></trkpt><trkpt lat="43.015238" lon="12.1153791"><ele>283.0</ele><time>2026-05-02T10:48:42.724Z</time></trkpt><trkpt lat="43.0153529" lon="12.1154216"><ele>283.0</ele><time>2026-05-02T10:48:43.727Z</time></trkpt><trkpt lat="43.0154617" lon="12.1154181"><ele>283.0</ele><time>2026-05-02T10:48:44.726Z</time></trkpt><trkpt lat="43.0155551" lon="12.1154203"><ele>283.0</ele><time>2026-05-02T10:48:45.725Z</time></trkpt><trkpt lat="43.0156318" lon="12.1154522"><ele>283.0</ele><time>2026-05-02T10:48:46.725Z</time></trkpt><trkpt lat="43.0156843" lon="12.1155216"><ele>283.0</ele><time>2026-05-02T10:48:47.726Z</time></trkpt><trkpt lat="43.0156965" lon="12.115615"><ele>283.0</ele><time>2026-05-02T10:48:48.724Z</time></trkpt><trkpt lat="43.0156551" lon="12.1157036"><ele>283.0</ele><time>2026-05-02T10:48:49.726Z</time></trkpt><trkpt lat="43.0155838" lon="12.115745"><ele>283.0</ele><time>2026-05-02T10:48:50.723Z</time></trkpt><trkpt lat="43.0154842" lon="12.1157365"><ele>283.0</ele><time>2026-05-02T10:48:51.726Z</time></trkpt><trkpt lat="43.0153685" lon="12.1157065"><ele>283.0</ele><time>2026-05-02T10:48:52.725Z</time></trkpt><trkpt lat="43.0152383" lon="12.1156838"><ele>283.0</ele><time>2026-05-02T10:48:53.724Z</time></trkpt><trkpt lat="43.0151127" lon="12.1156687"><ele>283.0</ele><time>2026-05-02T10:48:54.724Z</time></trkpt><trkpt lat="43.0149929" lon="12.1156546"><ele>283.0</ele><time>2026-05-02T10:48:55.725Z</time></trkpt><trkpt lat="43.01488" lon="12.1156412"><ele>283.0</ele><time>2026-05-02T10:48:56.725Z</time></trkpt><trkpt lat="43.0147804" lon="12.1156339"><ele>283.0</ele><time>2026-05-02T10:48:57.726Z</time></trkpt><trkpt lat="43.0146861" lon="12.1156404"><ele>283.0</ele><time>2026-05-02T10:48:58.729Z</time></trkpt><trkpt lat="43.0146098" lon="12.1156979"><ele>278.8</ele><time>2026-05-02T10:48:59.724Z</time></trkpt><trkpt lat="43.0145722" lon="12.1157787"><ele>274.6</ele><time>2026-05-02T10:49:00.727Z</time></trkpt><trkpt lat="43.014572" lon="12.115898"><ele>270.4</ele><time>2026-05-02T10:49:01.723Z</time></trkpt><trkpt lat="43.0146138" lon="12.116016"><ele>266.2</ele><time>2026-05-02T10:49:02.727Z</time></trkpt><trkpt lat="43.0146932" lon="12.1161259"><ele>262.0</ele><time>2026-05-02T10:49:03.728Z</time></trkpt><trkpt lat="43.0148168" lon="12.1162293"><ele>262.0</ele><time>2026-05-02T10:49:04.728Z</time></trkpt><trkpt lat="43.0149565" lon="12.1163402"><ele>262.0</ele><time>2026-05-02T10:49:05.728Z</time></trkpt><trkpt lat="43.0151051" lon="12.1164592"><ele>262.0</ele><time>2026-05-02T10:49:06.729Z</time></trkpt><trkpt lat="43.0152674" lon="12.1166039"><ele>263.66666666666663</ele><time>2026-05-02T10:49:07.729Z</time></trkpt><trkpt lat="43.0154273" lon="12.1167663"><ele>265.3333333333333</ele><time>2026-05-02T10:49:08.722Z</time></trkpt><trkpt lat="43.0155708" lon="12.1169338"><ele>267.0</ele><time>2026-05-02T10:49:09.729Z</time></trkpt><trkpt lat="43.0157063" lon="12.1170976"><ele>268.6666666666667</ele><time>2026-05-02T10:49:10.727Z</time></trkpt><trkpt lat="43.0158336" lon="12.1172594"><ele>270.33333333333337</ele><time>2026-05-02T10:49:11.726Z</time></trkpt><trkpt lat="43.015955" lon="12.1174203"><ele>272.0</ele><time>2026-05-02T10:49:12.726Z</time></trkpt><trkpt lat="43.0160722" lon="12.1175741"><ele>269.5</ele><time>2026-05-02T10:49:13.729Z</time></trkpt><trkpt lat="43.0161831" lon="12.1177208"><ele>267.0</ele><time>2026-05-02T10:49:14.728Z</time></trkpt><trkpt lat="43.0162698" lon="12.1178775"><ele>264.5</ele><time>2026-05-02T10:49:15.724Z</time></trkpt><trkpt lat="43.0163254" lon="12.1180592"><ele>262.0</ele><time>2026-05-02T10:49:16.729Z</time></trkpt><trkpt lat="43.0163682" lon="12.1182555"><ele>260.5</ele><time>2026-05-02T10:49:17.727Z</time></trkpt><trkpt lat="43.016381" lon="12.1184576"><ele>259.0</ele><time>2026-05-02T10:49:18.728Z</time></trkpt><trkpt lat="43.016371" lon="12.1186469"><ele>257.5</ele><time>2026-05-02T10:49:19.729Z</time></trkpt><trkpt lat="43.0163209" lon="12.1187967"><ele>256.0</ele><time>2026-05-02T10:49:20.729Z</time></trkpt><trkpt lat="43.0162506" lon="12.1189033"><ele>255.99999999999997</ele><time>2026-05-02T10:49:21.729Z</time></trkpt><trkpt lat="43.0161776" lon="12.1189657"><ele>256.0</ele><time>2026-05-02T10:49:22.727Z</time></trkpt><trkpt lat="43.0161103" lon="12.1189957"><ele>256.0</ele><time>2026-05-02T10:49:23.726Z</time></trkpt><trkpt lat="43.0160358" lon="12.1190699"><ele>256.0</ele><time>2026-05-02T10:49:25.728Z</time></trkpt><trkpt lat="43.0160579" lon="12.1191652"><ele>255.99999999999997</ele><time>2026-05-02T10:49:27.726Z</time></trkpt><trkpt lat="43.0161366" lon="12.1192934"><ele>256.0</ele><time>2026-05-02T10:49:29.726Z</time></trkpt><trkpt lat="43.0162018" lon="12.1193498"><ele>256.66666666666663</ele><time>2026-05-02T10:49:30.724Z</time></trkpt><trkpt lat="43.0162747" lon="12.1193844"><ele>257.3333333333333</ele><time>2026-05-02T10:49:31.729Z</time></trkpt><trkpt lat="43.0163461" lon="12.1194072"><ele>258.0</ele><time>2026-05-02T10:49:32.728Z</time></trkpt><trkpt lat="43.0164101" lon="12.11942"><ele>258.6666666666667</ele><time>2026-05-02T10:49:33.726Z</time></trkpt><trkpt lat="43.0165312" lon="12.1194379"><ele>259.33333333333337</ele><time>2026-05-02T10:49:35.729Z</time></trkpt><trkpt lat="43.0165938" lon="12.1194491"><ele>260.0</ele><time>2026-05-02T10:49:36.727Z</time></trkpt><trkpt lat="43.0166563" lon="12.119468"><ele>260.00000000000006</ele><time>2026-05-02T10:49:37.729Z</time></trkpt><trkpt lat="43.0167146" lon="12.119507"><ele>260.0</ele><time>2026-05-02T10:49:38.723Z</time></trkpt><trkpt lat="43.0167703" lon="12.1195548"><ele>260.0</ele><time>2026-05-02T10:49:39.727Z</time></trkpt><trkpt lat="43.0168243" lon="12.1196155"><ele>260.0</ele><time>2026-05-02T10:49:40.726Z</time></trkpt><trkpt lat="43.01688" lon="12.1196825"><ele>260.0</ele><time>2026-05-02T10:49:41.729Z</time></trkpt><trkpt lat="43.0169349" lon="12.1197634"><ele>260.00000000000006</ele><time>2026-05-02T10:49:42.723Z</time></trkpt><trkpt lat="43.0169906" lon="12.1198472"><ele>260.0</ele><time>2026-05-02T10:49:43.729Z</time></trkpt><trkpt lat="43.0170435" lon="12.119931"><ele>262.83333333333337</ele><time>2026-05-02T10:49:44.729Z</time></trkpt><trkpt lat="43.0170989" lon="12.1200067"><ele>265.6666666666667</ele><time>2026-05-02T10:49:45.727Z</time></trkpt><trkpt lat="43.0171584" lon="12.1200716"><ele>268.5</ele><time>2026-05-02T10:49:46.729Z</time></trkpt><trkpt lat="43.0172535" lon="12.1201518"><ele>271.3333333333333</ele><time>2026-05-02T10:49:48.725Z</time></trkpt><trkpt lat="43.0173154" lon="12.1202318"><ele>274.16666666666663</ele><time>2026-05-02T10:50:02.726Z</time></trkpt><trkpt lat="43.0173359" lon="12.1203378"><ele>277.0</ele><time>2026-05-02T10:50:04.729Z</time></trkpt><trkpt lat="43.0173666" lon="12.1204665"><ele>277.0</ele><time>2026-05-02T10:50:06.727Z</time></trkpt><trkpt lat="43.0174387" lon="12.1204871"><ele>277.0</ele><time>2026-05-02T10:50:08.726Z</time></trkpt><trkpt lat="43.0174899" lon="12.1203281"><ele>277.0</ele><time>2026-05-02T10:50:10.728Z</time></trkpt><trkpt lat="43.0175215" lon="12.1202376"><ele>277.0</ele><time>2026-05-02T10:50:11.726Z</time></trkpt><trkpt lat="43.0175806" lon="12.1201733"><ele>277.0</ele><time>2026-05-02T10:50:12.726Z</time></trkpt><trkpt lat="43.0176476" lon="12.1201014"><ele>277.0</ele><time>2026-05-02T10:50:13.727Z</time></trkpt><trkpt lat="43.0177159" lon="12.12004"><ele>275.7142857142857</ele><time>2026-05-02T10:50:14.727Z</time></trkpt><trkpt lat="43.0177853" lon="12.1200104"><ele>274.4285714285714</ele><time>2026-05-02T10:50:15.726Z</time></trkpt><trkpt lat="43.0178617" lon="12.1199815"><ele>273.1428571428571</ele><time>2026-05-02T10:50:16.729Z</time></trkpt><trkpt lat="43.0179375" lon="12.1199637"><ele>271.85714285714283</ele><time>2026-05-02T10:50:17.726Z</time></trkpt><trkpt lat="43.0180079" lon="12.1199682"><ele>270.57142857142856</ele><time>2026-05-02T10:50:18.726Z</time></trkpt><trkpt lat="43.0180781" lon="12.119999"><ele>269.2857142857143</ele><time>2026-05-02T10:50:19.726Z</time></trkpt><trkpt lat="43.018137" lon="12.1200581"><ele>268.0</ele><time>2026-05-02T10:50:20.726Z</time></trkpt><trkpt lat="43.0181824" lon="12.1202287"><ele>268.0</ele><time>2026-05-02T10:50:22.726Z</time></trkpt><trkpt lat="43.0181977" lon="12.120334"><ele>268.0</ele><time>2026-05-02T10:50:23.726Z</time></trkpt><trkpt lat="43.0182122" lon="12.1204561"><ele>268.0</ele><time>2026-05-02T10:50:24.729Z</time></trkpt><trkpt lat="43.0182269" lon="12.1205628"><ele>268.0</ele><time>2026-05-02T10:50:25.727Z</time></trkpt><trkpt lat="43.0182509" lon="12.1206616"><ele>268.0</ele><time>2026-05-02T10:50:26.724Z</time></trkpt><trkpt lat="43.0182861" lon="12.1207605"><ele>268.0</ele><time>2026-05-02T10:50:27.728Z</time></trkpt><trkpt lat="43.0183213" lon="12.120847"><ele>272.6</ele><time>2026-05-02T10:50:28.729Z</time></trkpt><trkpt lat="43.0183606" lon="12.1209171"><ele>277.20000000000005</ele><time>2026-05-02T10:50:29.723Z</time></trkpt><trkpt lat="43.0184642" lon="12.1209858"><ele>281.8</ele><time>2026-05-02T10:50:31.725Z</time></trkpt><trkpt lat="43.0185935" lon="12.1209935"><ele>286.40000000000003</ele><time>2026-05-02T10:50:33.727Z</time></trkpt><trkpt lat="43.0186714" lon="12.1210077"><ele>291.0</ele><time>2026-05-02T10:50:34.729Z</time></trkpt><trkpt lat="43.0187453" lon="12.1210198"><ele>291.0</ele><time>2026-05-02T10:50:35.726Z</time></trkpt><trkpt lat="43.0188153" lon="12.1210379"><ele>291.0</ele><time>2026-05-02T10:50:36.729Z</time></trkpt><trkpt lat="43.0188978" lon="12.1211073"><ele>291.0</ele><time>2026-05-02T10:50:38.729Z</time></trkpt><trkpt lat="43.0189146" lon="12.1212731"><ele>291.0</ele><time>2026-05-02T10:50:40.729Z</time></trkpt><trkpt lat="43.0189107" lon="12.1213609"><ele>291.0</ele><time>2026-05-02T10:50:41.727Z</time></trkpt><trkpt lat="43.0188156" lon="12.1214852"><ele>291.0</ele><time>2026-05-02T10:50:43.723Z</time></trkpt><trkpt lat="43.01873" lon="12.1215391"><ele>291.0</ele><time>2026-05-02T10:50:44.728Z</time></trkpt><trkpt lat="43.018635" lon="12.1215717"><ele>291.0</ele><time>2026-05-02T10:50:45.724Z</time></trkpt><trkpt lat="43.0185427" lon="12.1215963"><ele>291.0</ele><time>2026-05-02T10:50:46.724Z</time></trkpt><trkpt lat="43.0184594" lon="12.121628"><ele>291.0</ele><time>2026-05-02T10:50:47.729Z</time></trkpt><trkpt lat="43.0183744" lon="12.1216548"><ele>292.2</ele><time>2026-05-02T10:50:48.729Z</time></trkpt><trkpt lat="43.0183136" lon="12.1217112"><ele>293.40000000000003</ele><time>2026-05-02T10:50:49.725Z</time></trkpt><trkpt lat="43.0182697" lon="12.1217894"><ele>294.6</ele><time>2026-05-02T10:50:50.727Z</time></trkpt><trkpt lat="43.0182424" lon="12.121883"><ele>295.8</ele><time>2026-05-02T10:50:51.728Z</time></trkpt><trkpt lat="43.0181801" lon="12.1219954"><ele>297.0</ele><time>2026-05-02T10:50:53.729Z</time></trkpt><trkpt lat="43.0180674" lon="12.1220883"><ele>297.0</ele><time>2026-05-02T10:50:55.729Z</time></trkpt><trkpt lat="43.0179895" lon="12.1221355"><ele>297.0</ele><time>2026-05-02T10:50:56.725Z</time></trkpt><trkpt lat="43.0179072" lon="12.1221762"><ele>297.0</ele><time>2026-05-02T10:50:57.729Z</time></trkpt><trkpt lat="43.0178126" lon="12.122224"><ele>297.0</ele><time>2026-05-02T10:50:58.729Z</time></trkpt><trkpt lat="43.017712" lon="12.1222806"><ele>297.0</ele><time>2026-05-02T10:50:59.724Z</time></trkpt><trkpt lat="43.0176232" lon="12.1223375"><ele>297.0</ele><time>2026-05-02T10:51:00.727Z</time></trkpt><trkpt lat="43.0175389" lon="12.1223805"><ele>297.0</ele><time>2026-05-02T10:51:01.729Z</time></trkpt><trkpt lat="43.0174685" lon="12.122407"><ele>297.0</ele><time>2026-05-02T10:51:02.729Z</time></trkpt><trkpt lat="43.0174067" lon="12.122425"><ele>297.0</ele><time>2026-05-02T10:51:03.729Z</time></trkpt><trkpt lat="43.017304" lon="12.1224526"><ele>297.0</ele><time>2026-05-02T10:51:05.728Z</time></trkpt><trkpt lat="43.0173989" lon="12.1224932"><ele>297.0</ele><time>2026-05-02T10:51:12.726Z</time></trkpt><trkpt lat="43.01747" lon="12.1224802"><ele>297.0</ele><time>2026-05-02T10:51:13.723Z</time></trkpt><trkpt lat="43.0175541" lon="12.1224853"><ele>297.0</ele><time>2026-05-02T10:51:14.729Z</time></trkpt><trkpt lat="43.0176322" lon="12.1224768"><ele>297.0</ele><time>2026-05-02T10:51:15.726Z</time></trkpt><trkpt lat="43.017708" lon="12.122464"><ele>297.0</ele><time>2026-05-02T10:51:16.726Z</time></trkpt><trkpt lat="43.0177709" lon="12.1224402"><ele>297.0</ele><time>2026-05-02T10:51:17.728Z</time></trkpt><trkpt lat="43.017883" lon="12.1223828"><ele>297.0</ele><time>2026-05-02T10:51:19.724Z</time></trkpt><trkpt lat="43.0180145" lon="12.1223657"><ele>297.0</ele><time>2026-05-02T10:51:21.726Z</time></trkpt><trkpt lat="43.0180903" lon="12.1223809"><ele>297.0</ele><time>2026-05-02T10:51:22.725Z</time></trkpt><trkpt lat="43.0181673" lon="12.1223948"><ele>297.0</ele><time>2026-05-02T10:51:23.726Z</time></trkpt><trkpt lat="43.018245" lon="12.1224104"><ele>297.0</ele><time>2026-05-02T10:51:24.724Z</time></trkpt><trkpt lat="43.0183208" lon="12.1224255"><ele>297.0</ele><time>2026-05-02T10:51:25.726Z</time></trkpt><trkpt lat="43.0184008" lon="12.1224509"><ele>297.0</ele><time>2026-05-02T10:51:26.728Z</time></trkpt><trkpt lat="43.01849" lon="12.1224908"><ele>300.1666666666667</ele><time>2026-05-02T10:51:27.722Z</time></trkpt><trkpt lat="43.0185798" lon="12.1225395"><ele>303.3333333333333</ele><time>2026-05-02T10:51:28.724Z</time></trkpt><trkpt lat="43.0186584" lon="12.122574"><ele>306.5</ele><time>2026-05-02T10:51:29.727Z</time></trkpt><trkpt lat="43.0187322" lon="12.1225896"><ele>309.66666666666663</ele><time>2026-05-02T10:51:30.728Z</time></trkpt><trkpt lat="43.0187968" lon="12.1225766"><ele>312.8333333333333</ele><time>2026-05-02T10:51:31.724Z</time></trkpt><trkpt lat="43.0188485" lon="12.12252"><ele>316.0</ele><time>2026-05-02T10:51:32.726Z</time></trkpt><trkpt lat="43.0188982" lon="12.1224387"><ele>314.5</ele><time>2026-05-02T10:51:33.726Z</time></trkpt><trkpt lat="43.0189321" lon="12.1223472"><ele>313.0</ele><time>2026-05-02T10:51:34.726Z</time></trkpt><trkpt lat="43.0189693" lon="12.1222713"><ele>311.5</ele><time>2026-05-02T10:51:35.728Z</time></trkpt><trkpt lat="43.0190812" lon="12.1222257"><ele>310.0</ele><time>2026-05-02T10:51:37.722Z</time></trkpt><trkpt lat="43.0191494" lon="12.1222284"><ele>308.5</ele><time>2026-05-02T10:51:38.726Z</time></trkpt><trkpt lat="43.0192145" lon="12.1222605"><ele>307.0</ele><time>2026-05-02T10:51:39.726Z</time></trkpt><trkpt lat="43.0192716" lon="12.1223072"><ele>306.99999999999994</ele><time>2026-05-02T10:51:40.728Z</time></trkpt><trkpt lat="43.0193212" lon="12.1223698"><ele>307.0</ele><time>2026-05-02T10:51:41.723Z</time></trkpt><trkpt lat="43.0193611" lon="12.1224583"><ele>307.0</ele><time>2026-05-02T10:51:42.723Z</time></trkpt><trkpt lat="43.0193843" lon="12.1225507"><ele>307.0</ele><time>2026-05-02T10:51:43.726Z</time></trkpt><trkpt lat="43.019397" lon="12.1226668"><ele>307.0</ele><time>2026-05-02T10:51:44.726Z</time></trkpt><trkpt lat="43.0194086" lon="12.1227664"><ele>306.99999999999994</ele><time>2026-05-02T10:51:45.728Z</time></trkpt><trkpt lat="43.0194189" lon="12.1228554"><ele>307.0</ele><time>2026-05-02T10:51:46.726Z</time></trkpt><trkpt lat="43.0194649" lon="12.1230026"><ele>308.0</ele><time>2026-05-02T10:51:48.726Z</time></trkpt><trkpt lat="43.0195069" lon="12.1230743"><ele>309.0</ele><time>2026-05-02T10:51:49.726Z</time></trkpt><trkpt lat="43.0196" lon="12.1231433"><ele>310.0</ele><time>2026-05-02T10:51:50.728Z</time></trkpt><trkpt lat="43.0196855" lon="12.1232126"><ele>311.0</ele><time>2026-05-02T10:51:51.726Z</time></trkpt><trkpt lat="43.0197735" lon="12.1232808"><ele>312.0</ele><time>2026-05-02T10:51:52.729Z</time></trkpt><trkpt lat="43.0198452" lon="12.1233361"><ele>312.0</ele><time>2026-05-02T10:51:53.726Z</time></trkpt><trkpt lat="43.0199166" lon="12.1234039"><ele>312.0</ele><time>2026-05-02T10:51:54.722Z</time></trkpt><trkpt lat="43.0199782" lon="12.1234786"><ele>312.0</ele><time>2026-05-02T10:51:55.724Z</time></trkpt><trkpt lat="43.0200445" lon="12.1235485"><ele>312.0</ele><time>2026-05-02T10:51:56.726Z</time></trkpt><trkpt lat="43.0201037" lon="12.1236402"><ele>312.0</ele><time>2026-05-02T10:51:57.727Z</time></trkpt><trkpt lat="43.0201661" lon="12.1237352"><ele>312.0</ele><time>2026-05-02T10:51:58.722Z</time></trkpt><trkpt lat="43.0202206" lon="12.1238181"><ele>311.0</ele><time>2026-05-02T10:51:59.729Z</time></trkpt><trkpt lat="43.0202979" lon="12.1238757"><ele>310.0</ele><time>2026-05-02T10:52:00.726Z</time></trkpt><trkpt lat="43.0203889" lon="12.1239168"><ele>309.0</ele><time>2026-05-02T10:52:01.726Z</time></trkpt><trkpt lat="43.0204976" lon="12.1239431"><ele>308.0</ele><time>2026-05-02T10:52:02.728Z</time></trkpt><trkpt lat="43.0205913" lon="12.1239754"><ele>307.0</ele><time>2026-05-02T10:52:03.729Z</time></trkpt><trkpt lat="43.0206846" lon="12.1240264"><ele>306.8</ele><time>2026-05-02T10:52:04.729Z</time></trkpt><trkpt lat="43.0207633" lon="12.124078"><ele>306.6</ele><time>2026-05-02T10:52:05.729Z</time></trkpt><trkpt lat="43.0208336" lon="12.1241378"><ele>306.40000000000003</ele><time>2026-05-02T10:52:06.726Z</time></trkpt><trkpt lat="43.0209018" lon="12.1242197"><ele>306.2</ele><time>2026-05-02T10:52:07.725Z</time></trkpt><trkpt lat="43.0209926" lon="12.1243253"><ele>306.0</ele><time>2026-05-02T10:52:08.726Z</time></trkpt><trkpt lat="43.0210932" lon="12.1244383"><ele>307.0</ele><time>2026-05-02T10:52:09.729Z</time></trkpt><trkpt lat="43.0211947" lon="12.124573"><ele>308.0</ele><time>2026-05-02T10:52:10.722Z</time></trkpt><trkpt lat="43.0213078" lon="12.1247194"><ele>309.0</ele><time>2026-05-02T10:52:11.727Z</time></trkpt><trkpt lat="43.0214308" lon="12.1248785"><ele>309.0</ele><time>2026-05-02T10:52:12.726Z</time></trkpt><trkpt lat="43.0215409" lon="12.1250227"><ele>309.0</ele><time>2026-05-02T10:52:13.729Z</time></trkpt><trkpt lat="43.0216346" lon="12.1251527"><ele>309.0</ele><time>2026-05-02T10:52:14.727Z</time></trkpt><trkpt lat="43.0217192" lon="12.1252631"><ele>309.0</ele><time>2026-05-02T10:52:15.725Z</time></trkpt><trkpt lat="43.0218064" lon="12.1253841"><ele>309.0</ele><time>2026-05-02T10:52:16.724Z</time></trkpt><trkpt lat="43.0218953" lon="12.1254857"><ele>309.0</ele><time>2026-05-02T10:52:17.724Z</time></trkpt><trkpt lat="43.0219936" lon="12.1255874"><ele>309.0</ele><time>2026-05-02T10:52:18.726Z</time></trkpt><trkpt lat="43.0220931" lon="12.1257091"><ele>309.0</ele><time>2026-05-02T10:52:19.721Z</time></trkpt><trkpt lat="43.0221941" lon="12.1258309"><ele>308.75</ele><time>2026-05-02T10:52:20.729Z</time></trkpt><trkpt lat="43.0222966" lon="12.125953"><ele>308.5</ele><time>2026-05-02T10:52:21.729Z</time></trkpt><trkpt lat="43.0224012" lon="12.1260729"><ele>308.25</ele><time>2026-05-02T10:52:22.728Z</time></trkpt><trkpt lat="43.022504" lon="12.1261901"><ele>308.0</ele><time>2026-05-02T10:52:23.727Z</time></trkpt><trkpt lat="43.0226015" lon="12.1263016"><ele>309.5</ele><time>2026-05-02T10:52:24.728Z</time></trkpt><trkpt lat="43.0227111" lon="12.1264228"><ele>311.0</ele><time>2026-05-02T10:52:25.725Z</time></trkpt><trkpt lat="43.0228239" lon="12.1265527"><ele>312.5</ele><time>2026-05-02T10:52:26.726Z</time></trkpt><trkpt lat="43.0229399" lon="12.1266861"><ele>314.0</ele><time>2026-05-02T10:52:27.724Z</time></trkpt><trkpt lat="43.0230529" lon="12.1268222"><ele>314.4</ele><time>2026-05-02T10:52:28.728Z</time></trkpt><trkpt lat="43.0231479" lon="12.1269484"><ele>314.79999999999995</ele><time>2026-05-02T10:52:29.727Z</time></trkpt><trkpt lat="43.0232364" lon="12.1270554"><ele>315.20000000000005</ele><time>2026-05-02T10:52:30.724Z</time></trkpt><trkpt lat="43.0233149" lon="12.127146"><ele>315.6</ele><time>2026-05-02T10:52:31.726Z</time></trkpt><trkpt lat="43.0233843" lon="12.1272061"><ele>316.0</ele><time>2026-05-02T10:52:32.728Z</time></trkpt><trkpt lat="43.0234663" lon="12.1272581"><ele>317.20000000000005</ele><time>2026-05-02T10:52:33.729Z</time></trkpt><trkpt lat="43.0235724" lon="12.1272892"><ele>318.40000000000003</ele><time>2026-05-02T10:52:34.727Z</time></trkpt><trkpt lat="43.0236714" lon="12.1273125"><ele>319.6</ele><time>2026-05-02T10:52:35.725Z</time></trkpt><trkpt lat="43.0237731" lon="12.1273341"><ele>320.8</ele><time>2026-05-02T10:52:36.722Z</time></trkpt><trkpt lat="43.0238839" lon="12.1273743"><ele>322.0</ele><time>2026-05-02T10:52:37.725Z</time></trkpt><trkpt lat="43.0239897" lon="12.1274254"><ele>322.0</ele><time>2026-05-02T10:52:38.728Z</time></trkpt><trkpt lat="43.0240948" lon="12.1274736"><ele>322.0</ele><time>2026-05-02T10:52:39.729Z</time></trkpt><trkpt lat="43.0241991" lon="12.1275291"><ele>322.0</ele><time>2026-05-02T10:52:40.725Z</time></trkpt><trkpt lat="43.0242958" lon="12.1275875"><ele>322.0</ele><time>2026-05-02T10:52:41.726Z</time></trkpt><trkpt lat="43.0243789" lon="12.1276253"><ele>322.0</ele><time>2026-05-02T10:52:42.728Z</time></trkpt><trkpt lat="43.0244567" lon="12.1276501"><ele>323.66666666666663</ele><time>2026-05-02T10:52:43.726Z</time></trkpt><trkpt lat="43.0245284" lon="12.1276832"><ele>325.3333333333333</ele><time>2026-05-02T10:52:44.725Z</time></trkpt><trkpt lat="43.0245887" lon="12.127735"><ele>327.0</ele><time>2026-05-02T10:52:45.728Z</time></trkpt><trkpt lat="43.0246467" lon="12.1278205"><ele>328.6666666666667</ele><time>2026-05-02T10:52:46.724Z</time></trkpt><trkpt lat="43.0247125" lon="12.1279143"><ele>330.33333333333337</ele><time>2026-05-02T10:52:47.727Z</time></trkpt><trkpt lat="43.0248006" lon="12.1280108"><ele>332.0</ele><time>2026-05-02T10:52:48.729Z</time></trkpt><trkpt lat="43.0248977" lon="12.1281175"><ele>332.40000000000003</ele><time>2026-05-02T10:52:49.725Z</time></trkpt><trkpt lat="43.024994" lon="12.1282106"><ele>332.8</ele><time>2026-05-02T10:52:50.725Z</time></trkpt><trkpt lat="43.0250879" lon="12.1282805"><ele>333.2</ele><time>2026-05-02T10:52:51.725Z</time></trkpt><trkpt lat="43.0251815" lon="12.1283361"><ele>333.6</ele><time>2026-05-02T10:52:52.725Z</time></trkpt><trkpt lat="43.025281" lon="12.1283829"><ele>334.0</ele><time>2026-05-02T10:52:53.726Z</time></trkpt><trkpt lat="43.0253848" lon="12.128428"><ele>334.8333333333333</ele><time>2026-05-02T10:52:54.726Z</time></trkpt><trkpt lat="43.025477" lon="12.1284596"><ele>335.66666666666663</ele><time>2026-05-02T10:52:55.724Z</time></trkpt><trkpt lat="43.0255629" lon="12.1284836"><ele>336.5</ele><time>2026-05-02T10:52:56.727Z</time></trkpt><trkpt lat="43.0256262" lon="12.1285059"><ele>337.3333333333333</ele><time>2026-05-02T10:52:57.722Z</time></trkpt><trkpt lat="43.0257321" lon="12.1285553"><ele>338.1666666666667</ele><time>2026-05-02T10:52:59.725Z</time></trkpt><trkpt lat="43.0258096" lon="12.1286004"><ele>339.0</ele><time>2026-05-02T10:53:01.724Z</time></trkpt><trkpt lat="43.0258848" lon="12.1286598"><ele>340.2</ele><time>2026-05-02T10:53:03.729Z</time></trkpt><trkpt lat="43.0259593" lon="12.1287433"><ele>341.4</ele><time>2026-05-02T10:53:05.724Z</time></trkpt><trkpt lat="43.0260507" lon="12.1288542"><ele>342.6</ele><time>2026-05-02T10:53:07.729Z</time></trkpt><trkpt lat="43.0261452" lon="12.1289191"><ele>343.8</ele><time>2026-05-02T10:53:09.724Z</time></trkpt><trkpt lat="43.0262573" lon="12.128855"><ele>345.0</ele><time>2026-05-02T10:53:11.729Z</time></trkpt><trkpt lat="43.0263294" lon="12.1287772"><ele>345.0</ele><time>2026-05-02T10:53:12.726Z</time></trkpt><trkpt lat="43.0264051" lon="12.1287129"><ele>345.0</ele><time>2026-05-02T10:53:13.729Z</time></trkpt><trkpt lat="43.0264911" lon="12.1286312"><ele>345.0</ele><time>2026-05-02T10:53:14.726Z</time></trkpt><trkpt lat="43.0265934" lon="12.1285613"><ele>345.0</ele><time>2026-05-02T10:53:15.726Z</time></trkpt><trkpt lat="43.0267023" lon="12.1284905"><ele>345.0</ele><time>2026-05-02T10:53:16.725Z</time></trkpt><trkpt lat="43.026805" lon="12.1284143"><ele>346.6</ele><time>2026-05-02T10:53:17.726Z</time></trkpt><trkpt lat="43.0268961" lon="12.1283398"><ele>348.2</ele><time>2026-05-02T10:53:18.726Z</time></trkpt><trkpt lat="43.0269607" lon="12.1282907"><ele>349.79999999999995</ele><time>2026-05-02T10:53:19.729Z</time></trkpt><trkpt lat="43.0270193" lon="12.1282339"><ele>351.4</ele><time>2026-05-02T10:53:20.728Z</time></trkpt><trkpt lat="43.0270716" lon="12.1280885"><ele>353.0</ele><time>2026-05-02T10:53:22.729Z</time></trkpt><trkpt lat="43.0270248" lon="12.1279153"><ele>354.0</ele><time>2026-05-02T10:53:24.722Z</time></trkpt><trkpt lat="43.0269656" lon="12.1278109"><ele>355.0</ele><time>2026-05-02T10:53:25.729Z</time></trkpt><trkpt lat="43.0269049" lon="12.1276955"><ele>356.0</ele><time>2026-05-02T10:53:26.728Z</time></trkpt><trkpt lat="43.0268467" lon="12.1275871"><ele>357.0</ele><time>2026-05-02T10:53:27.725Z</time></trkpt><trkpt lat="43.0267952" lon="12.1274609"><ele>358.0</ele><time>2026-05-02T10:53:28.722Z</time></trkpt><trkpt lat="43.0267564" lon="12.1273701"><ele>358.2</ele><time>2026-05-02T10:53:29.726Z</time></trkpt><trkpt lat="43.0267221" lon="12.1272351"><ele>358.4</ele><time>2026-05-02T10:53:31.729Z</time></trkpt><trkpt lat="43.0267209" lon="12.1271121"><ele>358.59999999999997</ele><time>2026-05-02T10:53:33.723Z</time></trkpt><trkpt lat="43.0267348" lon="12.1269961"><ele>358.79999999999995</ele><time>2026-05-02T10:53:35.729Z</time></trkpt><trkpt lat="43.0268274" lon="12.1268813"><ele>359.0</ele><time>2026-05-02T10:53:37.723Z</time></trkpt><trkpt lat="43.0268953" lon="12.1268107"><ele>359.0</ele><time>2026-05-02T10:53:38.724Z</time></trkpt><trkpt lat="43.0269763" lon="12.1267316"><ele>359.0</ele><time>2026-05-02T10:53:39.728Z</time></trkpt><trkpt lat="43.027055" lon="12.126642"><ele>359.0</ele><time>2026-05-02T10:53:40.726Z</time></trkpt><trkpt lat="43.0271306" lon="12.126542"><ele>359.0</ele><time>2026-05-02T10:53:41.724Z</time></trkpt><trkpt lat="43.0272055" lon="12.1264264"><ele>359.0</ele><time>2026-05-02T10:53:42.724Z</time></trkpt><trkpt lat="43.0272784" lon="12.1263133"><ele>357.6666666666667</ele><time>2026-05-02T10:53:43.722Z</time></trkpt><trkpt lat="43.0273311" lon="12.1262168"><ele>356.33333333333337</ele><time>2026-05-02T10:53:44.725Z</time></trkpt><trkpt lat="43.0273803" lon="12.1261018"><ele>355.0</ele><time>2026-05-02T10:53:46.723Z</time></trkpt><trkpt lat="43.0273975" lon="12.1260137"><ele>353.6666666666667</ele><time>2026-05-02T10:53:49.726Z</time></trkpt><trkpt lat="43.0273605" lon="12.1261069"><ele>352.3333333333333</ele><time>2026-05-02T10:54:03.726Z</time></trkpt><trkpt lat="43.0273246" lon="12.1261887"><ele>351.0</ele><time>2026-05-02T10:54:04.726Z</time></trkpt><trkpt lat="43.0272782" lon="12.126268"><ele>351.0</ele><time>2026-05-02T10:54:05.725Z</time></trkpt><trkpt lat="43.0272255" lon="12.1263531"><ele>351.0</ele><time>2026-05-02T10:54:06.725Z</time></trkpt><trkpt lat="43.0271728" lon="12.1264461"><ele>351.0</ele><time>2026-05-02T10:54:07.727Z</time></trkpt><trkpt lat="43.0271138" lon="12.1265396"><ele>351.0</ele><time>2026-05-02T10:54:08.722Z</time></trkpt><trkpt lat="43.0270557" lon="12.1266236"><ele>351.0</ele><time>2026-05-02T10:54:09.722Z</time></trkpt><trkpt lat="43.0269933" lon="12.1267023"><ele>351.0</ele><time>2026-05-02T10:54:10.725Z</time></trkpt><trkpt lat="43.0269337" lon="12.1267651"><ele>352.3333333333333</ele><time>2026-05-02T10:54:11.725Z</time></trkpt><trkpt lat="43.0268792" lon="12.126821"><ele>353.6666666666667</ele><time>2026-05-02T10:54:12.723Z</time></trkpt><trkpt lat="43.026826" lon="12.1268689"><ele>355.0</ele><time>2026-05-02T10:54:13.726Z</time></trkpt><trkpt lat="43.0267451" lon="12.1269638"><ele>356.33333333333337</ele><time>2026-05-02T10:54:15.727Z</time></trkpt><trkpt lat="43.0267079" lon="12.1270738"><ele>357.6666666666667</ele><time>2026-05-02T10:54:18.723Z</time></trkpt><trkpt lat="43.0266852" lon="12.1271744"><ele>359.0</ele><time>2026-05-02T10:54:20.722Z</time></trkpt><trkpt lat="43.0267531" lon="12.1271803"><ele>359.0</ele><time>2026-05-02T10:54:39.728Z</time></trkpt><trkpt lat="43.0268357" lon="12.1272056"><ele>359.0</ele><time>2026-05-02T10:54:41.723Z</time></trkpt><trkpt lat="43.0269339" lon="12.1272187"><ele>359.0</ele><time>2026-05-02T10:54:43.729Z</time></trkpt><trkpt lat="43.027014" lon="12.1272105"><ele>359.0</ele><time>2026-05-02T10:54:45.722Z</time></trkpt><trkpt lat="43.0270853" lon="12.1272025"><ele>359.0</ele><time>2026-05-02T10:55:00.723Z</time></trkpt><trkpt lat="43.0271622" lon="12.1271928"><ele>359.0</ele><time>2026-05-02T10:55:02.728Z</time></trkpt><trkpt lat="43.0272707" lon="12.1271879"><ele>359.0</ele><time>2026-05-02T10:55:04.723Z</time></trkpt><trkpt lat="43.0273855" lon="12.1271674"><ele>359.0</ele><time>2026-05-02T10:55:06.725Z</time></trkpt><trkpt lat="43.0275188" lon="12.1271465"><ele>359.0</ele><time>2026-05-02T10:55:08.725Z</time></trkpt><trkpt lat="43.0275909" lon="12.1271304"><ele>359.0</ele><time>2026-05-02T10:55:09.727Z</time></trkpt><trkpt lat="43.0276544" lon="12.1271143"><ele>359.0</ele><time>2026-05-02T10:55:10.722Z</time></trkpt><trkpt lat="43.0277189" lon="12.1271"><ele>360.5</ele><time>2026-05-02T10:55:11.726Z</time></trkpt><trkpt lat="43.027839" lon="12.1270913"><ele>362.0</ele><time>2026-05-02T10:55:13.723Z</time></trkpt><trkpt lat="43.0279006" lon="12.1271107"><ele>363.5</ele><time>2026-05-02T10:55:14.724Z</time></trkpt><trkpt lat="43.0280147" lon="12.1271043"><ele>365.0</ele><time>2026-05-02T10:55:16.729Z</time></trkpt><trkpt lat="43.0280821" lon="12.1270842"><ele>366.5</ele><time>2026-05-02T10:55:17.726Z</time></trkpt><trkpt lat="43.0281453" lon="12.1270755"><ele>368.0</ele><time>2026-05-02T10:55:18.726Z</time></trkpt><trkpt lat="43.028273" lon="12.1270636"><ele>370.1666666666667</ele><time>2026-05-02T10:55:20.724Z</time></trkpt><trkpt lat="43.0283425" lon="12.1270446"><ele>372.33333333333337</ele><time>2026-05-02T10:55:21.729Z</time></trkpt><trkpt lat="43.028411" lon="12.1270322"><ele>374.5</ele><time>2026-05-02T10:55:22.726Z</time></trkpt><trkpt lat="43.028479" lon="12.1270295"><ele>376.6666666666667</ele><time>2026-05-02T10:55:23.726Z</time></trkpt><trkpt lat="43.0285927" lon="12.1270032"><ele>378.8333333333333</ele><time>2026-05-02T10:55:25.726Z</time></trkpt><trkpt lat="43.0286983" lon="12.1270038"><ele>381.0</ele><time>2026-05-02T10:55:27.724Z</time></trkpt><trkpt lat="43.0287977" lon="12.1269928"><ele>381.0</ele><time>2026-05-02T10:55:29.728Z</time></trkpt><trkpt lat="43.0289071" lon="12.1269709"><ele>381.0</ele><time>2026-05-02T10:55:31.727Z</time></trkpt><trkpt lat="43.0290187" lon="12.1269744"><ele>381.0</ele><time>2026-05-02T10:55:33.724Z</time></trkpt><trkpt lat="43.0291231" lon="12.1269525"><ele>381.0</ele><time>2026-05-02T10:55:35.726Z</time></trkpt><trkpt lat="43.0292334" lon="12.1269158"><ele>381.0</ele><time>2026-05-02T10:55:37.725Z</time></trkpt><trkpt lat="43.0293403" lon="12.1269095"><ele>383.1666666666667</ele><time>2026-05-02T10:55:39.726Z</time></trkpt><trkpt lat="43.0294426" lon="12.1269134"><ele>385.33333333333337</ele><time>2026-05-02T10:55:41.725Z</time></trkpt><trkpt lat="43.0295547" lon="12.1269005"><ele>387.5</ele><time>2026-05-02T10:55:43.727Z</time></trkpt><trkpt lat="43.029617" lon="12.1268849"><ele>389.6666666666667</ele><time>2026-05-02T10:55:44.729Z</time></trkpt><trkpt lat="43.0296813" lon="12.1268713"><ele>391.83333333333337</ele><time>2026-05-02T10:55:45.726Z</time></trkpt><trkpt lat="43.0297449" lon="12.1268669"><ele>394.0</ele><time>2026-05-02T10:55:46.729Z</time></trkpt><trkpt lat="43.0298137" lon="12.1268795"><ele>394.0</ele><time>2026-05-02T10:55:47.726Z</time></trkpt><trkpt lat="43.0299301" lon="12.1269226"><ele>394.0</ele><time>2026-05-02T10:55:49.723Z</time></trkpt><trkpt lat="43.0300404" lon="12.1269553"><ele>394.0</ele><time>2026-05-02T10:55:51.723Z</time></trkpt><trkpt lat="43.0301524" lon="12.127008"><ele>394.0</ele><time>2026-05-02T10:55:53.723Z</time></trkpt><trkpt lat="43.0302652" lon="12.127035"><ele>397.5</ele><time>2026-05-02T10:55:55.727Z</time></trkpt><trkpt lat="43.0303667" lon="12.1270803"><ele>401.0</ele><time>2026-05-02T10:55:57.724Z</time></trkpt><trkpt lat="43.0304774" lon="12.1271279"><ele>404.5</ele><time>2026-05-02T10:55:59.725Z</time></trkpt><trkpt lat="43.0305898" lon="12.1271573"><ele>408.0</ele><time>2026-05-02T10:56:01.729Z</time></trkpt><trkpt lat="43.030697" lon="12.1272088"><ele>410.25</ele><time>2026-05-02T10:56:03.729Z</time></trkpt><trkpt lat="43.0308078" lon="12.1272521"><ele>412.5</ele><time>2026-05-02T10:56:05.726Z</time></trkpt><trkpt lat="43.0309157" lon="12.1272962"><ele>414.75</ele><time>2026-05-02T10:56:07.729Z</time></trkpt><trkpt lat="43.0310226" lon="12.1273469"><ele>417.0</ele><time>2026-05-02T10:56:09.726Z</time></trkpt><trkpt lat="43.0311307" lon="12.127372"><ele>417.0</ele><time>2026-05-02T10:56:11.729Z</time></trkpt><trkpt lat="43.0312475" lon="12.1273864"><ele>417.0</ele><time>2026-05-02T10:56:13.727Z</time></trkpt><trkpt lat="43.0313695" lon="12.1273862"><ele>417.0</ele><time>2026-05-02T10:56:15.729Z</time></trkpt><trkpt lat="43.0314702" lon="12.1273716"><ele>417.0</ele><time>2026-05-02T10:56:17.729Z</time></trkpt><trkpt lat="43.0315332" lon="12.1273614"><ele>417.0</ele><time>2026-05-02T10:56:19.723Z</time></trkpt><trkpt lat="43.0316036" lon="12.1273266"><ele>417.8333333333333</ele><time>2026-05-02T10:56:29.729Z</time></trkpt><trkpt lat="43.0316637" lon="12.1272879"><ele>418.66666666666663</ele><time>2026-05-02T10:56:31.725Z</time></trkpt><trkpt lat="43.031749" lon="12.1272639"><ele>419.5</ele><time>2026-05-02T10:56:33.729Z</time></trkpt><trkpt lat="43.0318342" lon="12.1272767"><ele>420.3333333333333</ele><time>2026-05-02T10:56:35.726Z</time></trkpt><trkpt lat="43.0318992" lon="12.1272904"><ele>421.16666666666663</ele><time>2026-05-02T10:56:37.722Z</time></trkpt><trkpt lat="43.0319853" lon="12.1272826"><ele>422.0</ele><time>2026-05-02T10:56:39.727Z</time></trkpt><trkpt lat="43.0320884" lon="12.127266"><ele>421.99999999999994</ele><time>2026-05-02T10:56:41.727Z</time></trkpt><trkpt lat="43.0321883" lon="12.1272574"><ele>422.0</ele><time>2026-05-02T10:56:43.728Z</time></trkpt><trkpt lat="43.0322899" lon="12.1272689"><ele>422.0</ele><time>2026-05-02T10:56:45.721Z</time></trkpt><trkpt lat="43.0323621" lon="12.1273067"><ele>422.0</ele><time>2026-05-02T10:56:47.727Z</time></trkpt><trkpt lat="43.0324347" lon="12.1272831"><ele>421.99999999999994</ele><time>2026-05-02T10:56:50.723Z</time></trkpt><trkpt lat="43.0324686" lon="12.1271897"><ele>422.0</ele><time>2026-05-02T10:56:54.721Z</time></trkpt><trkpt lat="43.0324084" lon="12.1272375"><ele>421.99999999999994</ele><time>2026-05-02T10:56:59.729Z</time></trkpt><trkpt lat="43.0323515" lon="12.1273003"><ele>422.0</ele><time>2026-05-02T10:57:07.722Z</time></trkpt><trkpt lat="43.0323182" lon="12.1273768"><ele>422.0</ele><time>2026-05-02T10:57:11.723Z</time></trkpt><trkpt lat="43.0323295" lon="12.127518"><ele>422.0</ele><time>2026-05-02T11:00:23.722Z</time></trkpt><trkpt lat="43.0323278" lon="12.1276084"><ele>421.99999999999994</ele><time>2026-05-02T11:00:24.723Z</time></trkpt><trkpt lat="43.0323262" lon="12.1277259"><ele>422.0</ele><time>2026-05-02T11:00:25.727Z</time></trkpt><trkpt lat="43.0323316" lon="12.1278607"><ele>425.0</ele><time>2026-05-02T11:00:26.723Z</time></trkpt><trkpt lat="43.0323305" lon="12.1279978"><ele>428.0</ele><time>2026-05-02T11:00:27.721Z</time></trkpt><trkpt lat="43.0323327" lon="12.1281384"><ele>431.00000000000006</ele><time>2026-05-02T11:00:28.725Z</time></trkpt><trkpt lat="43.0323302" lon="12.1282873"><ele>434.0</ele><time>2026-05-02T11:00:29.72Z</time></trkpt><trkpt lat="43.0323324" lon="12.1284256"><ele>437.0</ele><time>2026-05-02T11:00:30.724Z</time></trkpt><trkpt lat="43.0323238" lon="12.1285527"><ele>437.40000000000003</ele><time>2026-05-02T11:00:31.723Z</time></trkpt><trkpt lat="43.032322" lon="12.128695"><ele>437.80000000000007</ele><time>2026-05-02T11:00:32.722Z</time></trkpt><trkpt lat="43.0323092" lon="12.12882"><ele>438.2</ele><time>2026-05-02T11:00:33.724Z</time></trkpt><trkpt lat="43.0322883" lon="12.1289684"><ele>438.6</ele><time>2026-05-02T11:00:34.725Z</time></trkpt><trkpt lat="43.032265" lon="12.1291005"><ele>439.0</ele><time>2026-05-02T11:00:35.725Z</time></trkpt><trkpt lat="43.0322685" lon="12.1292297"><ele>439.0</ele><time>2026-05-02T11:00:36.727Z</time></trkpt><trkpt lat="43.0322927" lon="12.129353"><ele>439.0</ele><time>2026-05-02T11:00:37.722Z</time></trkpt><trkpt lat="43.0323384" lon="12.1294808"><ele>439.0</ele><time>2026-05-02T11:00:38.723Z</time></trkpt><trkpt lat="43.0324027" lon="12.1296012"><ele>439.0</ele><time>2026-05-02T11:00:39.723Z</time></trkpt><trkpt lat="43.0324747" lon="12.1297149"><ele>439.0</ele><time>2026-05-02T11:00:40.728Z</time></trkpt><trkpt lat="43.0325575" lon="12.1298317"><ele>440.1666666666667</ele><time>2026-05-02T11:00:41.725Z</time></trkpt><trkpt lat="43.0326318" lon="12.1299231"><ele>441.33333333333337</ele><time>2026-05-02T11:00:42.723Z</time></trkpt><trkpt lat="43.032705" lon="12.1300167"><ele>442.5</ele><time>2026-05-02T11:00:43.72Z</time></trkpt><trkpt lat="43.0327636" lon="12.1300998"><ele>443.66666666666663</ele><time>2026-05-02T11:00:44.727Z</time></trkpt><trkpt lat="43.0328211" lon="12.1301848"><ele>444.8333333333333</ele><time>2026-05-02T11:00:45.724Z</time></trkpt><trkpt lat="43.0328726" lon="12.130256"><ele>446.0</ele><time>2026-05-02T11:00:46.721Z</time></trkpt><trkpt lat="43.032923" lon="12.1303369"><ele>445.99999999999994</ele><time>2026-05-02T11:00:47.723Z</time></trkpt><trkpt lat="43.0329729" lon="12.1304173"><ele>446.0</ele><time>2026-05-02T11:00:48.723Z</time></trkpt><trkpt lat="43.03303" lon="12.1304875"><ele>446.0</ele><time>2026-05-02T11:00:49.72Z</time></trkpt><trkpt lat="43.0330871" lon="12.1305501"><ele>446.0</ele><time>2026-05-02T11:00:50.726Z</time></trkpt><trkpt lat="43.0331923" lon="12.1306549"><ele>445.99999999999994</ele><time>2026-05-02T11:00:52.723Z</time></trkpt><trkpt lat="43.0332452" lon="12.1307379"><ele>446.0</ele><time>2026-05-02T11:00:53.728Z</time></trkpt><trkpt lat="43.0333093" lon="12.130824"><ele>445.3333333333333</ele><time>2026-05-02T11:00:54.725Z</time></trkpt><trkpt lat="43.0333789" lon="12.1309016"><ele>444.66666666666663</ele><time>2026-05-02T11:00:55.727Z</time></trkpt><trkpt lat="43.0334385" lon="12.1309767"><ele>444.0</ele><time>2026-05-02T11:00:56.725Z</time></trkpt><trkpt lat="43.0334905" lon="12.131062"><ele>443.33333333333337</ele><time>2026-05-02T11:00:57.729Z</time></trkpt><trkpt lat="43.0335299" lon="12.131137"><ele>442.6666666666667</ele><time>2026-05-02T11:00:58.728Z</time></trkpt><trkpt lat="43.0335743" lon="12.1312076"><ele>442.0</ele><time>2026-05-02T11:00:59.729Z</time></trkpt><trkpt lat="43.0336328" lon="12.1313728"><ele>442.00000000000006</ele><time>2026-05-02T11:01:01.729Z</time></trkpt><trkpt lat="43.033668" lon="12.1314644"><ele>442.0</ele><time>2026-05-02T11:01:02.728Z</time></trkpt><trkpt lat="43.0337128" lon="12.1315663"><ele>442.0</ele><time>2026-05-02T11:01:03.729Z</time></trkpt><trkpt lat="43.0337585" lon="12.1316526"><ele>442.0</ele><time>2026-05-02T11:01:04.724Z</time></trkpt><trkpt lat="43.0338046" lon="12.1317552"><ele>442.00000000000006</ele><time>2026-05-02T11:01:05.729Z</time></trkpt><trkpt lat="43.033846" lon="12.1318583"><ele>442.0</ele><time>2026-05-02T11:01:06.729Z</time></trkpt><trkpt lat="43.0338993" lon="12.1319767"><ele>440.6</ele><time>2026-05-02T11:01:07.724Z</time></trkpt><trkpt lat="43.0339469" lon="12.1320931"><ele>439.20000000000005</ele><time>2026-05-02T11:01:08.729Z</time></trkpt><trkpt lat="43.0340019" lon="12.1322033"><ele>437.8</ele><time>2026-05-02T11:01:09.729Z</time></trkpt><trkpt lat="43.0340458" lon="12.1323146"><ele>436.4</ele><time>2026-05-02T11:01:10.722Z</time></trkpt><trkpt lat="43.0340898" lon="12.1324243"><ele>435.0</ele><time>2026-05-02T11:01:11.729Z</time></trkpt><trkpt lat="43.0341173" lon="12.1325241"><ele>435.1666666666667</ele><time>2026-05-02T11:01:12.729Z</time></trkpt><trkpt lat="43.0341375" lon="12.1326345"><ele>435.33333333333337</ele><time>2026-05-02T11:01:13.729Z</time></trkpt><trkpt lat="43.0341561" lon="12.1327514"><ele>435.5</ele><time>2026-05-02T11:01:14.723Z</time></trkpt><trkpt lat="43.0341741" lon="12.1328736"><ele>435.6666666666667</ele><time>2026-05-02T11:01:15.729Z</time></trkpt><trkpt lat="43.0341942" lon="12.132984"><ele>435.83333333333337</ele><time>2026-05-02T11:01:16.729Z</time></trkpt><trkpt lat="43.0342246" lon="12.1331024"><ele>436.0</ele><time>2026-05-02T11:01:17.725Z</time></trkpt><trkpt lat="43.0342609" lon="12.1332154"><ele>437.0</ele><time>2026-05-02T11:01:18.723Z</time></trkpt><trkpt lat="43.0343018" lon="12.1333326"><ele>438.0</ele><time>2026-05-02T11:01:19.724Z</time></trkpt><trkpt lat="43.0343454" lon="12.1334427"><ele>439.0</ele><time>2026-05-02T11:01:20.724Z</time></trkpt><trkpt lat="43.0343947" lon="12.1335569"><ele>440.0</ele><time>2026-05-02T11:01:21.723Z</time></trkpt><trkpt lat="43.0344395" lon="12.1336579"><ele>441.0</ele><time>2026-05-02T11:01:22.727Z</time></trkpt><trkpt lat="43.0344866" lon="12.1337701"><ele>441.0</ele><time>2026-05-02T11:01:23.729Z</time></trkpt><trkpt lat="43.0345287" lon="12.1338642"><ele>441.0</ele><time>2026-05-02T11:01:24.722Z</time></trkpt><trkpt lat="43.0345694" lon="12.133967"><ele>441.0</ele><time>2026-05-02T11:01:25.727Z</time></trkpt><trkpt lat="43.034612" lon="12.1340484"><ele>441.0</ele><time>2026-05-02T11:01:26.729Z</time></trkpt><trkpt lat="43.0346547" lon="12.1341279"><ele>441.0</ele><time>2026-05-02T11:01:27.722Z</time></trkpt><trkpt lat="43.0346996" lon="12.1342147"><ele>441.0</ele><time>2026-05-02T11:01:28.729Z</time></trkpt><trkpt lat="43.0347439" lon="12.134304"><ele>440.0</ele><time>2026-05-02T11:01:29.729Z</time></trkpt><trkpt lat="43.0347976" lon="12.1343979"><ele>439.0</ele><time>2026-05-02T11:01:30.724Z</time></trkpt><trkpt lat="43.034857" lon="12.1344878"><ele>438.0</ele><time>2026-05-02T11:01:31.727Z</time></trkpt><trkpt lat="43.0349322" lon="12.1345861"><ele>437.0</ele><time>2026-05-02T11:01:32.721Z</time></trkpt><trkpt lat="43.0350097" lon="12.1346584"><ele>436.0</ele><time>2026-05-02T11:01:33.721Z</time></trkpt><trkpt lat="43.0350866" lon="12.1347441"><ele>436.0</ele><time>2026-05-02T11:01:34.724Z</time></trkpt><trkpt lat="43.0351569" lon="12.1348309"><ele>436.0</ele><time>2026-05-02T11:01:35.725Z</time></trkpt><trkpt lat="43.035225" lon="12.1349061"><ele>436.0</ele><time>2026-05-02T11:01:36.723Z</time></trkpt><trkpt lat="43.0352884" lon="12.1349752"><ele>436.0</ele><time>2026-05-02T11:01:37.727Z</time></trkpt><trkpt lat="43.0353481" lon="12.1350303"><ele>436.0</ele><time>2026-05-02T11:01:38.725Z</time></trkpt><trkpt lat="43.0354489" lon="12.1351255"><ele>437.33333333333337</ele><time>2026-05-02T11:01:40.725Z</time></trkpt><trkpt lat="43.0355095" lon="12.1351744"><ele>438.6666666666667</ele><time>2026-05-02T11:01:41.729Z</time></trkpt><trkpt lat="43.0355827" lon="12.1352255"><ele>440.0</ele><time>2026-05-02T11:01:42.722Z</time></trkpt><trkpt lat="43.0356522" lon="12.1352723"><ele>441.33333333333337</ele><time>2026-05-02T11:01:43.72Z</time></trkpt><trkpt lat="43.0357237" lon="12.1352923"><ele>442.6666666666667</ele><time>2026-05-02T11:01:44.728Z</time></trkpt><trkpt lat="43.035797" lon="12.1352999"><ele>444.0</ele><time>2026-05-02T11:01:45.729Z</time></trkpt><trkpt lat="43.0359141" lon="12.1353284"><ele>444.0</ele><time>2026-05-02T11:01:47.726Z</time></trkpt><trkpt lat="43.0359838" lon="12.135377"><ele>444.0</ele><time>2026-05-02T11:01:49.722Z</time></trkpt><trkpt lat="43.0359514" lon="12.1354586"><ele>444.0</ele><time>2026-05-02T11:02:04.727Z</time></trkpt><trkpt lat="43.0358607" lon="12.1354681"><ele>444.0</ele><time>2026-05-02T11:02:06.725Z</time></trkpt><trkpt lat="43.035756" lon="12.1355328"><ele>444.0</ele><time>2026-05-02T11:02:08.727Z</time></trkpt><trkpt lat="43.0356533" lon="12.135582"><ele>445.5</ele><time>2026-05-02T11:02:10.724Z</time></trkpt><trkpt lat="43.035591" lon="12.1355977"><ele>447.0</ele><time>2026-05-02T11:02:11.72Z</time></trkpt><trkpt lat="43.0355239" lon="12.1356209"><ele>448.5</ele><time>2026-05-02T11:02:12.729Z</time></trkpt><trkpt lat="43.0354615" lon="12.1356502"><ele>450.0</ele><time>2026-05-02T11:02:13.727Z</time></trkpt><trkpt lat="43.0353521" lon="12.135701"><ele>451.5</ele><time>2026-05-02T11:02:15.721Z</time></trkpt><trkpt lat="43.0352294" lon="12.1356943"><ele>453.0</ele><time>2026-05-02T11:02:17.729Z</time></trkpt><trkpt lat="43.035131" lon="12.1357168"><ele>455.6666666666667</ele><time>2026-05-02T11:02:19.722Z</time></trkpt><trkpt lat="43.0350897" lon="12.1358326"><ele>458.33333333333337</ele><time>2026-05-02T11:02:21.729Z</time></trkpt><trkpt lat="43.0350911" lon="12.1359396"><ele>461.0</ele><time>2026-05-02T11:02:22.723Z</time></trkpt><trkpt lat="43.035085" lon="12.1360846"><ele>463.6666666666667</ele><time>2026-05-02T11:02:24.723Z</time></trkpt><trkpt lat="43.0350482" lon="12.1362033"><ele>466.33333333333337</ele><time>2026-05-02T11:02:26.722Z</time></trkpt><trkpt lat="43.0350284" lon="12.136293"><ele>469.0</ele><time>2026-05-02T11:02:34.726Z</time></trkpt><trkpt lat="43.0350576" lon="12.1362069"><ele>469.00000000000006</ele><time>2026-05-02T11:02:45.723Z</time></trkpt><trkpt lat="43.0350812" lon="12.1360898"><ele>469.0</ele><time>2026-05-02T11:02:47.723Z</time></trkpt><trkpt lat="43.0350969" lon="12.13597"><ele>469.0</ele><time>2026-05-02T11:02:49.727Z</time></trkpt><trkpt lat="43.0350911" lon="12.1358324"><ele>469.0</ele><time>2026-05-02T11:02:51.723Z</time></trkpt><trkpt lat="43.0351119" lon="12.1357225"><ele>469.00000000000006</ele><time>2026-05-02T11:02:53.728Z</time></trkpt><trkpt lat="43.0351703" lon="12.1356802"><ele>469.0</ele><time>2026-05-02T11:02:55.721Z</time></trkpt><trkpt lat="43.0352505" lon="12.1356829"><ele>465.79999999999995</ele><time>2026-05-02T11:02:57.72Z</time></trkpt><trkpt lat="43.0353312" lon="12.1356904"><ele>462.59999999999997</ele><time>2026-05-02T11:02:59.726Z</time></trkpt><trkpt lat="43.0354117" lon="12.135676"><ele>459.4</ele><time>2026-05-02T11:03:01.729Z</time></trkpt><trkpt lat="43.0355112" lon="12.1356435"><ele>456.2</ele><time>2026-05-02T11:03:03.719Z</time></trkpt><trkpt lat="43.0356293" lon="12.1356064"><ele>453.0</ele><time>2026-05-02T11:03:05.729Z</time></trkpt><trkpt lat="43.0357308" lon="12.1355686"><ele>451.5</ele><time>2026-05-02T11:03:07.723Z</time></trkpt><trkpt lat="43.0358155" lon="12.1355065"><ele>450.0</ele><time>2026-05-02T11:03:09.728Z</time></trkpt><trkpt lat="43.0358983" lon="12.1354668"><ele>448.5</ele><time>2026-05-02T11:03:11.723Z</time></trkpt><trkpt lat="43.0359717" lon="12.1354289"><ele>447.0</ele><time>2026-05-02T11:03:13.725Z</time></trkpt><trkpt lat="43.0360354" lon="12.1354138"><ele>445.5</ele><time>2026-05-02T11:03:15.729Z</time></trkpt><trkpt lat="43.0361005" lon="12.1354076"><ele>444.0</ele><time>2026-05-02T11:03:34.726Z</time></trkpt><trkpt lat="43.0361688" lon="12.1353944"><ele>444.0</ele><time>2026-05-02T11:03:38.728Z</time></trkpt><trkpt lat="43.0362391" lon="12.1353833"><ele>444.0</ele><time>2026-05-02T11:03:42.723Z</time></trkpt><trkpt lat="43.0362969" lon="12.1354704"><ele>444.0</ele><time>2026-05-02T11:03:45.725Z</time></trkpt><trkpt lat="43.0363275" lon="12.1355541"><ele>444.0</ele><time>2026-05-02T11:03:47.726Z</time></trkpt><trkpt lat="43.0363365" lon="12.1356484"><ele>444.0</ele><time>2026-05-02T11:03:49.728Z</time></trkpt><trkpt lat="43.0363261" lon="12.1357425"><ele>444.0</ele><time>2026-05-02T11:03:51.729Z</time></trkpt><trkpt lat="43.0362967" lon="12.1358662"><ele>447.6</ele><time>2026-05-02T11:03:53.722Z</time></trkpt><trkpt lat="43.0362753" lon="12.136005"><ele>451.2</ele><time>2026-05-02T11:03:55.728Z</time></trkpt><trkpt lat="43.0362753" lon="12.1361253"><ele>454.80000000000007</ele><time>2026-05-02T11:03:57.725Z</time></trkpt><trkpt lat="43.0362818" lon="12.1362745"><ele>458.40000000000003</ele><time>2026-05-02T11:03:59.72Z</time></trkpt><trkpt lat="43.0363101" lon="12.1363863"><ele>462.0</ele><time>2026-05-02T11:04:00.725Z</time></trkpt><trkpt lat="43.0363274" lon="12.1364718"><ele>462.6</ele><time>2026-05-02T11:04:01.722Z</time></trkpt><trkpt lat="43.0363502" lon="12.1366123"><ele>463.20000000000005</ele><time>2026-05-02T11:04:03.723Z</time></trkpt><trkpt lat="43.036343" lon="12.1367478"><ele>463.8</ele><time>2026-05-02T11:04:05.722Z</time></trkpt><trkpt lat="43.0363365" lon="12.1368609"><ele>464.4</ele><time>2026-05-02T11:04:07.725Z</time></trkpt><trkpt lat="43.0363091" lon="12.1369716"><ele>465.0</ele><time>2026-05-02T11:04:09.724Z</time></trkpt><trkpt lat="43.0362269" lon="12.1370863"><ele>465.0</ele><time>2026-05-02T11:04:11.723Z</time></trkpt><trkpt lat="43.0361904" lon="12.1371566"><ele>465.0</ele><time>2026-05-02T11:04:12.725Z</time></trkpt><trkpt lat="43.0361836" lon="12.1373029"><ele>465.0</ele><time>2026-05-02T11:04:14.721Z</time></trkpt><trkpt lat="43.0361664" lon="12.1374651"><ele>465.0</ele><time>2026-05-02T11:04:16.722Z</time></trkpt><trkpt lat="43.0361681" lon="12.1376381"><ele>465.0</ele><time>2026-05-02T11:04:18.723Z</time></trkpt><trkpt lat="43.0362069" lon="12.1377183"><ele>463.3333333333333</ele><time>2026-05-02T11:04:19.72Z</time></trkpt><trkpt lat="43.0362385" lon="12.1377965"><ele>461.66666666666663</ele><time>2026-05-02T11:04:20.723Z</time></trkpt><trkpt lat="43.036285" lon="12.1379095"><ele>460.0</ele><time>2026-05-02T11:04:22.729Z</time></trkpt><trkpt lat="43.036309" lon="12.1380519"><ele>458.3333333333333</ele><time>2026-05-02T11:04:24.721Z</time></trkpt><trkpt lat="43.0363232" lon="12.1381585"><ele>456.66666666666663</ele><time>2026-05-02T11:04:26.729Z</time></trkpt><trkpt lat="43.0362724" lon="12.1382497"><ele>455.0</ele><time>2026-05-02T11:04:28.72Z</time></trkpt><trkpt lat="43.0362213" lon="12.1383365"><ele>452.49999999999994</ele><time>2026-05-02T11:04:30.72Z</time></trkpt><trkpt lat="43.0361206" lon="12.1383782"><ele>450.0</ele><time>2026-05-02T11:04:32.729Z</time></trkpt><trkpt lat="43.0360558" lon="12.1383989"><ele>447.5</ele><time>2026-05-02T11:04:33.721Z</time></trkpt><trkpt lat="43.0359916" lon="12.1384195"><ele>445.0</ele><time>2026-05-02T11:04:34.728Z</time></trkpt><trkpt lat="43.0358991" lon="12.138463"><ele>442.49999999999994</ele><time>2026-05-02T11:04:36.725Z</time></trkpt><trkpt lat="43.0358485" lon="12.1385596"><ele>440.0</ele><time>2026-05-02T11:04:38.729Z</time></trkpt><trkpt lat="43.0358583" lon="12.1386501"><ele>440.0</ele><time>2026-05-02T11:04:39.722Z</time></trkpt><trkpt lat="43.0358802" lon="12.1387379"><ele>440.0</ele><time>2026-05-02T11:04:40.721Z</time></trkpt><trkpt lat="43.0359216" lon="12.1388866"><ele>440.0</ele><time>2026-05-02T11:04:42.722Z</time></trkpt><trkpt lat="43.0359573" lon="12.1390339"><ele>440.0</ele><time>2026-05-02T11:04:44.721Z</time></trkpt><trkpt lat="43.0359659" lon="12.1392045"><ele>440.0</ele><time>2026-05-02T11:04:46.722Z</time></trkpt><trkpt lat="43.0359641" lon="12.1392981"><ele>439.75</ele><time>2026-05-02T11:04:47.726Z</time></trkpt><trkpt lat="43.0359792" lon="12.1394493"><ele>439.5</ele><time>2026-05-02T11:04:49.72Z</time></trkpt><trkpt lat="43.0360067" lon="12.1395987"><ele>439.25</ele><time>2026-05-02T11:04:51.726Z</time></trkpt><trkpt lat="43.0360046" lon="12.1397629"><ele>439.0</ele><time>2026-05-02T11:04:53.724Z</time></trkpt><trkpt lat="43.0360837" lon="12.1398898"><ele>439.0</ele><time>2026-05-02T11:04:55.722Z</time></trkpt><trkpt lat="43.03615" lon="12.1400229"><ele>439.0</ele><time>2026-05-02T11:04:57.729Z</time></trkpt><trkpt lat="43.0362044" lon="12.1401713"><ele>439.0</ele><time>2026-05-02T11:04:59.72Z</time></trkpt><trkpt lat="43.0362577" lon="12.1403037"><ele>439.0</ele><time>2026-05-02T11:05:01.729Z</time></trkpt><trkpt lat="43.0362964" lon="12.1404235"><ele>439.0</ele><time>2026-05-02T11:05:03.722Z</time></trkpt><trkpt lat="43.0363267" lon="12.1405344"><ele>439.00000000000006</ele><time>2026-05-02T11:05:05.72Z</time></trkpt><trkpt lat="43.036327" lon="12.1406626"><ele>439.0</ele><time>2026-05-02T11:05:07.726Z</time></trkpt><trkpt lat="43.0363367" lon="12.1407816"><ele>439.0</ele><time>2026-05-02T11:05:09.72Z</time></trkpt><trkpt lat="43.0363277" lon="12.1408904"><ele>439.0</ele><time>2026-05-02T11:05:11.725Z</time></trkpt><trkpt lat="43.0363511" lon="12.1410166"><ele>439.00000000000006</ele><time>2026-05-02T11:05:13.727Z</time></trkpt><trkpt lat="43.0363845" lon="12.1411077"><ele>439.0</ele><time>2026-05-02T11:05:15.719Z</time></trkpt><trkpt lat="43.0364155" lon="12.1411998"><ele>439.6666666666667</ele><time>2026-05-02T11:05:17.725Z</time></trkpt><trkpt lat="43.0364505" lon="12.1413264"><ele>440.33333333333337</ele><time>2026-05-02T11:05:19.723Z</time></trkpt><trkpt lat="43.036473" lon="12.1414389"><ele>441.0</ele><time>2026-05-02T11:05:21.727Z</time></trkpt><trkpt lat="43.0364718" lon="12.1415463"><ele>441.66666666666663</ele><time>2026-05-02T11:05:23.723Z</time></trkpt><trkpt lat="43.0364593" lon="12.1416556"><ele>442.3333333333333</ele><time>2026-05-02T11:05:25.726Z</time></trkpt><trkpt lat="43.0364248" lon="12.1417734"><ele>443.0</ele><time>2026-05-02T11:05:27.722Z</time></trkpt><trkpt lat="43.0363718" lon="12.1418901"><ele>440.4</ele><time>2026-05-02T11:05:29.726Z</time></trkpt><trkpt lat="43.0363449" lon="12.1420094"><ele>437.79999999999995</ele><time>2026-05-02T11:05:31.72Z</time></trkpt><trkpt lat="43.0362987" lon="12.1421537"><ele>435.2</ele><time>2026-05-02T11:05:33.718Z</time></trkpt><trkpt lat="43.0362662" lon="12.1422604"><ele>432.6</ele><time>2026-05-02T11:05:35.722Z</time></trkpt><trkpt lat="43.0362973" lon="12.1423661"><ele>430.0</ele><time>2026-05-02T11:05:37.724Z</time></trkpt><trkpt lat="43.0363549" lon="12.1424939"><ele>426.83333333333337</ele><time>2026-05-02T11:05:39.722Z</time></trkpt><trkpt lat="43.0363566" lon="12.1425826"><ele>423.6666666666667</ele><time>2026-05-02T11:05:41.72Z</time></trkpt><trkpt lat="43.036303" lon="12.1426983"><ele>420.5</ele><time>2026-05-02T11:05:43.72Z</time></trkpt><trkpt lat="43.036271" lon="12.1427802"><ele>417.33333333333337</ele><time>2026-05-02T11:05:44.721Z</time></trkpt><trkpt lat="43.0362377" lon="12.1428838"><ele>414.1666666666667</ele><time>2026-05-02T11:05:45.723Z</time></trkpt><trkpt lat="43.0362032" lon="12.1429877"><ele>411.0</ele><time>2026-05-02T11:05:46.723Z</time></trkpt><trkpt lat="43.0361547" lon="12.1431082"><ele>407.4</ele><time>2026-05-02T11:05:47.723Z</time></trkpt><trkpt lat="43.0361141" lon="12.1432446"><ele>403.8</ele><time>2026-05-02T11:05:48.723Z</time></trkpt><trkpt lat="43.0360732" lon="12.1433626"><ele>400.2</ele><time>2026-05-02T11:05:49.724Z</time></trkpt><trkpt lat="43.0360545" lon="12.1434689"><ele>396.59999999999997</ele><time>2026-05-02T11:05:50.72Z</time></trkpt><trkpt lat="43.0360229" lon="12.1435699"><ele>393.0</ele><time>2026-05-02T11:05:51.722Z</time></trkpt><trkpt lat="43.0359904" lon="12.1436915"><ele>393.0</ele><time>2026-05-02T11:05:52.72Z</time></trkpt><trkpt lat="43.0359484" lon="12.1438016"><ele>393.0</ele><time>2026-05-02T11:05:53.729Z</time></trkpt><trkpt lat="43.0358882" lon="12.1439283"><ele>393.0</ele><time>2026-05-02T11:05:54.724Z</time></trkpt><trkpt lat="43.0358285" lon="12.1440495"><ele>393.0</ele><time>2026-05-02T11:05:55.725Z</time></trkpt><trkpt lat="43.0357802" lon="12.1441705"><ele>393.0</ele><time>2026-05-02T11:05:56.722Z</time></trkpt><trkpt lat="43.0357272" lon="12.1442833"><ele>390.5714285714286</ele><time>2026-05-02T11:05:57.724Z</time></trkpt><trkpt lat="43.0356896" lon="12.1443885"><ele>388.14285714285717</ele><time>2026-05-02T11:05:58.725Z</time></trkpt><trkpt lat="43.0356463" lon="12.1444741"><ele>385.7142857142857</ele><time>2026-05-02T11:05:59.721Z</time></trkpt><trkpt lat="43.0356054" lon="12.144556"><ele>383.28571428571433</ele><time>2026-05-02T11:06:00.723Z</time></trkpt><trkpt lat="43.0355657" lon="12.1446382"><ele>380.85714285714283</ele><time>2026-05-02T11:06:01.72Z</time></trkpt><trkpt lat="43.0355249" lon="12.1447082"><ele>378.42857142857144</ele><time>2026-05-02T11:06:02.722Z</time></trkpt><trkpt lat="43.0354895" lon="12.1447846"><ele>376.0</ele><time>2026-05-02T11:06:03.724Z</time></trkpt><trkpt lat="43.0354548" lon="12.1448755"><ele>374.7142857142857</ele><time>2026-05-02T11:06:04.724Z</time></trkpt><trkpt lat="43.0354162" lon="12.1449605"><ele>373.42857142857144</ele><time>2026-05-02T11:06:05.719Z</time></trkpt><trkpt lat="43.0354069" lon="12.1450544"><ele>372.1428571428571</ele><time>2026-05-02T11:06:06.722Z</time></trkpt><trkpt lat="43.0354046" lon="12.14515"><ele>370.8571428571429</ele><time>2026-05-02T11:06:07.721Z</time></trkpt><trkpt lat="43.0354092" lon="12.1452465"><ele>369.5714285714286</ele><time>2026-05-02T11:06:08.721Z</time></trkpt><trkpt lat="43.0354519" lon="12.1453337"><ele>368.2857142857143</ele><time>2026-05-02T11:06:09.722Z</time></trkpt><trkpt lat="43.0354992" lon="12.1454168"><ele>367.0</ele><time>2026-05-02T11:06:10.721Z</time></trkpt><trkpt lat="43.0355634" lon="12.1454724"><ele>367.0</ele><time>2026-05-02T11:06:11.719Z</time></trkpt><trkpt lat="43.0356221" lon="12.145519"><ele>367.0</ele><time>2026-05-02T11:06:12.72Z</time></trkpt><trkpt lat="43.0356804" lon="12.1455724"><ele>367.0</ele><time>2026-05-02T11:06:13.722Z</time></trkpt><trkpt lat="43.0356818" lon="12.1457192"><ele>367.0</ele><time>2026-05-02T11:06:15.721Z</time></trkpt><trkpt lat="43.0356359" lon="12.1458039"><ele>367.0</ele><time>2026-05-02T11:06:16.721Z</time></trkpt><trkpt lat="43.0355693" lon="12.145884"><ele>367.0</ele><time>2026-05-02T11:06:17.723Z</time></trkpt><trkpt lat="43.0354981" lon="12.1459612"><ele>367.0</ele><time>2026-05-02T11:06:18.719Z</time></trkpt><trkpt lat="43.0353947" lon="12.1460182"><ele>367.0</ele><time>2026-05-02T11:06:19.721Z</time></trkpt><trkpt lat="43.0353103" lon="12.1461002"><ele>367.0</ele><time>2026-05-02T11:06:20.724Z</time></trkpt><trkpt lat="43.0352342" lon="12.1461733"><ele>367.0</ele><time>2026-05-02T11:06:21.722Z</time></trkpt><trkpt lat="43.0351598" lon="12.1462485"><ele>367.0</ele><time>2026-05-02T11:06:22.719Z</time></trkpt><trkpt lat="43.0350942" lon="12.1463224"><ele>367.0</ele><time>2026-05-02T11:06:23.723Z</time></trkpt><trkpt lat="43.0350295" lon="12.1463835"><ele>367.0</ele><time>2026-05-02T11:06:24.729Z</time></trkpt><trkpt lat="43.0349573" lon="12.1464316"><ele>367.0</ele><time>2026-05-02T11:06:25.724Z</time></trkpt><trkpt lat="43.0348888" lon="12.1464835"><ele>367.0</ele><time>2026-05-02T11:06:26.722Z</time></trkpt><trkpt lat="43.0348215" lon="12.1465414"><ele>367.0</ele><time>2026-05-02T11:06:27.729Z</time></trkpt><trkpt lat="43.0347615" lon="12.1465984"><ele>367.0</ele><time>2026-05-02T11:06:28.724Z</time></trkpt><trkpt lat="43.0346913" lon="12.1466423"><ele>365.16666666666663</ele><time>2026-05-02T11:06:29.721Z</time></trkpt><trkpt lat="43.0346159" lon="12.1466773"><ele>363.3333333333333</ele><time>2026-05-02T11:06:30.722Z</time></trkpt><trkpt lat="43.0345451" lon="12.1467259"><ele>361.5</ele><time>2026-05-02T11:06:31.721Z</time></trkpt><trkpt lat="43.0344835" lon="12.1467783"><ele>359.6666666666667</ele><time>2026-05-02T11:06:32.718Z</time></trkpt><trkpt lat="43.0344221" lon="12.1468447"><ele>357.83333333333337</ele><time>2026-05-02T11:06:33.72Z</time></trkpt><trkpt lat="43.0343582" lon="12.1469069"><ele>356.0</ele><time>2026-05-02T11:06:34.723Z</time></trkpt><trkpt lat="43.0343017" lon="12.1469834"><ele>356.0</ele><time>2026-05-02T11:06:35.719Z</time></trkpt><trkpt lat="43.0342461" lon="12.1470594"><ele>356.0</ele><time>2026-05-02T11:06:36.723Z</time></trkpt><trkpt lat="43.0341989" lon="12.1471283"><ele>356.0</ele><time>2026-05-02T11:06:37.724Z</time></trkpt><trkpt lat="43.0341563" lon="12.1471996"><ele>356.0</ele><time>2026-05-02T11:06:38.729Z</time></trkpt><trkpt lat="43.0341313" lon="12.14728"><ele>356.0</ele><time>2026-05-02T11:06:39.729Z</time></trkpt><trkpt lat="43.0341342" lon="12.1474319"><ele>356.0</ele><time>2026-05-02T11:06:41.721Z</time></trkpt><trkpt lat="43.0341455" lon="12.147518"><ele>356.0</ele><time>2026-05-02T11:06:42.726Z</time></trkpt><trkpt lat="43.0341715" lon="12.14767"><ele>356.0</ele><time>2026-05-02T11:06:44.721Z</time></trkpt><trkpt lat="43.0341677" lon="12.1478366"><ele>356.0</ele><time>2026-05-02T11:06:46.727Z</time></trkpt><trkpt lat="43.0341337" lon="12.1479197"><ele>356.0</ele><time>2026-05-02T11:06:47.725Z</time></trkpt><trkpt lat="43.0340903" lon="12.147991"><ele>356.0</ele><time>2026-05-02T11:06:48.725Z</time></trkpt><trkpt lat="43.0340532" lon="12.1480619"><ele>356.0</ele><time>2026-05-02T11:06:49.722Z</time></trkpt><trkpt lat="43.0340208" lon="12.1481419"><ele>354.5</ele><time>2026-05-02T11:06:50.72Z</time></trkpt><trkpt lat="43.033995" lon="12.1482272"><ele>353.0</ele><time>2026-05-02T11:06:51.722Z</time></trkpt><trkpt lat="43.0339688" lon="12.1483208"><ele>351.5</ele><time>2026-05-02T11:06:52.729Z</time></trkpt><trkpt lat="43.0339506" lon="12.1484073"><ele>350.0</ele><time>2026-05-02T11:06:53.721Z</time></trkpt><trkpt lat="43.0339361" lon="12.1485046"><ele>348.5</ele><time>2026-05-02T11:06:54.722Z</time></trkpt><trkpt lat="43.0339414" lon="12.1486132"><ele>347.0</ele><time>2026-05-02T11:06:55.725Z</time></trkpt><trkpt lat="43.033986" lon="12.1487704"><ele>347.0</ele><time>2026-05-02T11:06:57.726Z</time></trkpt><trkpt lat="43.0340479" lon="12.1488946"><ele>347.0</ele><time>2026-05-02T11:06:59.722Z</time></trkpt><trkpt lat="43.0340964" lon="12.1489605"><ele>347.0</ele><time>2026-05-02T11:07:00.72Z</time></trkpt><trkpt lat="43.03416" lon="12.1490131"><ele>347.0</ele><time>2026-05-02T11:07:01.725Z</time></trkpt><trkpt lat="43.0342329" lon="12.1490594"><ele>347.0</ele><time>2026-05-02T11:07:02.724Z</time></trkpt><trkpt lat="43.034304" lon="12.1491067"><ele>347.0</ele><time>2026-05-02T11:07:03.724Z</time></trkpt><trkpt lat="43.0343937" lon="12.1492031"><ele>346.20000000000005</ele><time>2026-05-02T11:07:05.724Z</time></trkpt><trkpt lat="43.0342932" lon="12.1492888"><ele>345.4</ele><time>2026-05-02T11:07:07.721Z</time></trkpt><trkpt lat="43.0342016" lon="12.1493263"><ele>344.6</ele><time>2026-05-02T11:07:08.72Z</time></trkpt><trkpt lat="43.0341236" lon="12.149359"><ele>343.79999999999995</ele><time>2026-05-02T11:07:09.727Z</time></trkpt><trkpt lat="43.0340341" lon="12.1493856"><ele>343.0</ele><time>2026-05-02T11:07:10.719Z</time></trkpt><trkpt lat="43.0339396" lon="12.1493729"><ele>343.0</ele><time>2026-05-02T11:07:11.722Z</time></trkpt><trkpt lat="43.0338637" lon="12.1493608"><ele>343.0</ele><time>2026-05-02T11:07:12.723Z</time></trkpt><trkpt lat="43.033781" lon="12.1493481"><ele>343.0</ele><time>2026-05-02T11:07:13.726Z</time></trkpt><trkpt lat="43.033699" lon="12.1493565"><ele>343.0</ele><time>2026-05-02T11:07:14.72Z</time></trkpt><trkpt lat="43.0336223" lon="12.1493897"><ele>343.0</ele><time>2026-05-02T11:07:15.725Z</time></trkpt><trkpt lat="43.0335414" lon="12.1494585"><ele>343.0</ele><time>2026-05-02T11:07:16.722Z</time></trkpt><trkpt lat="43.0334692" lon="12.1495369"><ele>343.0</ele><time>2026-05-02T11:07:17.719Z</time></trkpt><trkpt lat="43.0333918" lon="12.1496192"><ele>343.0</ele><time>2026-05-02T11:07:18.725Z</time></trkpt><trkpt lat="43.0333231" lon="12.1497207"><ele>343.0</ele><time>2026-05-02T11:07:19.721Z</time></trkpt><trkpt lat="43.0332671" lon="12.1498063"><ele>343.0</ele><time>2026-05-02T11:07:20.729Z</time></trkpt><trkpt lat="43.033235" lon="12.1499037"><ele>343.0</ele><time>2026-05-02T11:07:21.726Z</time></trkpt><trkpt lat="43.033201" lon="12.1499911"><ele>343.0</ele><time>2026-05-02T11:07:22.728Z</time></trkpt><trkpt lat="43.0331824" lon="12.1501669"><ele>343.66666666666663</ele><time>2026-05-02T11:07:24.729Z</time></trkpt><trkpt lat="43.0332042" lon="12.1502783"><ele>344.3333333333333</ele><time>2026-05-02T11:07:25.721Z</time></trkpt><trkpt lat="43.0332301" lon="12.1503792"><ele>345.0</ele><time>2026-05-02T11:07:26.729Z</time></trkpt><trkpt lat="43.033271" lon="12.1504826"><ele>345.6666666666667</ele><time>2026-05-02T11:07:27.728Z</time></trkpt><trkpt lat="43.0333155" lon="12.1505841"><ele>346.33333333333337</ele><time>2026-05-02T11:07:28.72Z</time></trkpt><trkpt lat="43.0333704" lon="12.1506849"><ele>347.0</ele><time>2026-05-02T11:07:29.722Z</time></trkpt><trkpt lat="43.0334255" lon="12.1507699"><ele>347.0</ele><time>2026-05-02T11:07:30.729Z</time></trkpt><trkpt lat="43.0334735" lon="12.1508655"><ele>347.0</ele><time>2026-05-02T11:07:31.722Z</time></trkpt><trkpt lat="43.033516" lon="12.1509507"><ele>347.0</ele><time>2026-05-02T11:07:32.727Z</time></trkpt><trkpt lat="43.0335664" lon="12.1510179"><ele>347.0</ele><time>2026-05-02T11:07:33.729Z</time></trkpt><trkpt lat="43.0336244" lon="12.1510906"><ele>347.0</ele><time>2026-05-02T11:07:34.724Z</time></trkpt><trkpt lat="43.0336824" lon="12.1511429"><ele>347.0</ele><time>2026-05-02T11:07:35.719Z</time></trkpt><trkpt lat="43.0337396" lon="12.1511938"><ele>347.0</ele><time>2026-05-02T11:07:36.724Z</time></trkpt><trkpt lat="43.0337923" lon="12.1512413"><ele>347.0</ele><time>2026-05-02T11:07:37.722Z</time></trkpt><trkpt lat="43.0338631" lon="12.15133"><ele>347.0</ele><time>2026-05-02T11:07:39.722Z</time></trkpt><trkpt lat="43.0339219" lon="12.1513919"><ele>347.0</ele><time>2026-05-02T11:07:41.722Z</time></trkpt><trkpt lat="43.0339377" lon="12.1514855"><ele>347.0</ele><time>2026-05-02T11:07:43.72Z</time></trkpt><trkpt lat="43.0338907" lon="12.1515594"><ele>347.0</ele><time>2026-05-02T11:07:45.719Z</time></trkpt><trkpt lat="43.0337906" lon="12.1516017"><ele>347.0</ele><time>2026-05-02T11:07:47.723Z</time></trkpt><trkpt lat="43.0337264" lon="12.1516363"><ele>347.0</ele><time>2026-05-02T11:07:48.72Z</time></trkpt><trkpt lat="43.0336574" lon="12.1516796"><ele>347.0</ele><time>2026-05-02T11:07:49.719Z</time></trkpt><trkpt lat="43.0335752" lon="12.1517191"><ele>347.0</ele><time>2026-05-02T11:07:50.719Z</time></trkpt><trkpt lat="43.0334854" lon="12.1517556"><ele>347.0</ele><time>2026-05-02T11:07:51.721Z</time></trkpt><trkpt lat="43.033402" lon="12.1518015"><ele>347.0</ele><time>2026-05-02T11:07:52.724Z</time></trkpt><trkpt lat="43.0333018" lon="12.1518451"><ele>345.33333333333337</ele><time>2026-05-02T11:07:53.725Z</time></trkpt><trkpt lat="43.0332128" lon="12.1518812"><ele>343.6666666666667</ele><time>2026-05-02T11:07:54.721Z</time></trkpt><trkpt lat="43.0331228" lon="12.1519143"><ele>342.0</ele><time>2026-05-02T11:07:55.725Z</time></trkpt><trkpt lat="43.0330564" lon="12.1519398"><ele>340.3333333333333</ele><time>2026-05-02T11:07:56.721Z</time></trkpt><trkpt lat="43.0330061" lon="12.1520314"><ele>338.66666666666663</ele><time>2026-05-02T11:07:57.728Z</time></trkpt><trkpt lat="43.0329613" lon="12.1521288"><ele>337.0</ele><time>2026-05-02T11:07:58.723Z</time></trkpt><trkpt lat="43.0329353" lon="12.1522251"><ele>337.00000000000006</ele><time>2026-05-02T11:07:59.72Z</time></trkpt><trkpt lat="43.0329266" lon="12.1523306"><ele>337.0</ele><time>2026-05-02T11:08:00.72Z</time></trkpt><trkpt lat="43.0329271" lon="12.1524347"><ele>337.0</ele><time>2026-05-02T11:08:01.719Z</time></trkpt><trkpt lat="43.0329415" lon="12.1525324"><ele>337.0</ele><time>2026-05-02T11:08:02.722Z</time></trkpt><trkpt lat="43.0329719" lon="12.1526194"><ele>337.0</ele><time>2026-05-02T11:08:03.718Z</time></trkpt><trkpt lat="43.0330113" lon="12.1527101"><ele>337.00000000000006</ele><time>2026-05-02T11:08:04.723Z</time></trkpt><trkpt lat="43.0330598" lon="12.1527784"><ele>337.0</ele><time>2026-05-02T11:08:05.723Z</time></trkpt><trkpt lat="43.0331091" lon="12.1528537"><ele>337.0</ele><time>2026-05-02T11:08:06.721Z</time></trkpt><trkpt lat="43.0331661" lon="12.15293"><ele>337.0</ele><time>2026-05-02T11:08:07.72Z</time></trkpt><trkpt lat="43.0332147" lon="12.1529993"><ele>337.0</ele><time>2026-05-02T11:08:08.722Z</time></trkpt><trkpt lat="43.0332408" lon="12.153158"><ele>337.0</ele><time>2026-05-02T11:08:10.72Z</time></trkpt><trkpt lat="43.033224" lon="12.1532639"><ele>337.0</ele><time>2026-05-02T11:08:11.723Z</time></trkpt><trkpt lat="43.0332029" lon="12.1533707"><ele>337.0</ele><time>2026-05-02T11:08:12.723Z</time></trkpt><trkpt lat="43.0331774" lon="12.1534955"><ele>337.0</ele><time>2026-05-02T11:08:13.721Z</time></trkpt><trkpt lat="43.0331539" lon="12.1536095"><ele>337.0</ele><time>2026-05-02T11:08:14.723Z</time></trkpt><trkpt lat="43.0331146" lon="12.153735"><ele>337.0</ele><time>2026-05-02T11:08:15.723Z</time></trkpt><trkpt lat="43.0330961" lon="12.1538562"><ele>337.0</ele><time>2026-05-02T11:08:16.719Z</time></trkpt><trkpt lat="43.0330768" lon="12.153963"><ele>337.0</ele><time>2026-05-02T11:08:17.722Z</time></trkpt><trkpt lat="43.0330722" lon="12.1540529"><ele>337.0</ele><time>2026-05-02T11:08:18.72Z</time></trkpt><trkpt lat="43.0330944" lon="12.1542156"><ele>337.0</ele><time>2026-05-02T11:08:20.721Z</time></trkpt><trkpt lat="43.0331219" lon="12.1543248"><ele>337.0</ele><time>2026-05-02T11:08:22.72Z</time></trkpt><trkpt lat="43.0331451" lon="12.1544113"><ele>337.0</ele><time>2026-05-02T11:08:25.722Z</time></trkpt><trkpt lat="43.0331273" lon="12.1544995"><ele>337.0</ele><time>2026-05-02T11:08:27.72Z</time></trkpt><trkpt lat="43.0330792" lon="12.1546077"><ele>337.0</ele><time>2026-05-02T11:08:29.723Z</time></trkpt><trkpt lat="43.0330323" lon="12.1546758"><ele>337.0</ele><time>2026-05-02T11:08:31.72Z</time></trkpt><trkpt lat="43.0329852" lon="12.1547514"><ele>337.0</ele><time>2026-05-02T11:08:33.723Z</time></trkpt><trkpt lat="43.0329656" lon="12.1548439"><ele>337.0</ele><time>2026-05-02T11:08:35.72Z</time></trkpt><trkpt lat="43.0329726" lon="12.1549664"><ele>337.0</ele><time>2026-05-02T11:08:37.721Z</time></trkpt><trkpt lat="43.0329939" lon="12.1550813"><ele>337.0</ele><time>2026-05-02T11:08:39.721Z</time></trkpt><trkpt lat="43.0330424" lon="12.155213"><ele>337.0</ele><time>2026-05-02T11:08:41.721Z</time></trkpt><trkpt lat="43.033107" lon="12.1553492"><ele>337.00000000000006</ele><time>2026-05-02T11:08:43.723Z</time></trkpt><trkpt lat="43.0331431" lon="12.1554246"><ele>337.0</ele><time>2026-05-02T11:08:44.719Z</time></trkpt><trkpt lat="43.0331824" lon="12.155512"><ele>337.0</ele><time>2026-05-02T11:08:45.72Z</time></trkpt><trkpt lat="43.03322" lon="12.1555976"><ele>337.0</ele><time>2026-05-02T11:08:46.72Z</time></trkpt><trkpt lat="43.0332669" lon="12.1556638"><ele>337.0</ele><time>2026-05-02T11:08:47.722Z</time></trkpt><trkpt lat="43.0333218" lon="12.1557425"><ele>337.00000000000006</ele><time>2026-05-02T11:08:48.719Z</time></trkpt><trkpt lat="43.0333826" lon="12.1558164"><ele>337.0</ele><time>2026-05-02T11:08:49.721Z</time></trkpt><trkpt lat="43.0334546" lon="12.1558758"><ele>337.0</ele><time>2026-05-02T11:08:50.721Z</time></trkpt><trkpt lat="43.0335119" lon="12.1559312"><ele>337.0</ele><time>2026-05-02T11:08:51.719Z</time></trkpt><trkpt lat="43.0335605" lon="12.1560085"><ele>337.0</ele><time>2026-05-02T11:08:52.721Z</time></trkpt><trkpt lat="43.0335847" lon="12.1560924"><ele>337.0</ele><time>2026-05-02T11:08:53.729Z</time></trkpt><trkpt lat="43.033554" lon="12.1562826"><ele>337.0</ele><time>2026-05-02T11:08:55.72Z</time></trkpt><trkpt lat="43.0335228" lon="12.1563905"><ele>337.0</ele><time>2026-05-02T11:08:56.729Z</time></trkpt><trkpt lat="43.033486" lon="12.1564836"><ele>336.6</ele><time>2026-05-02T11:08:57.726Z</time></trkpt><trkpt lat="43.0334538" lon="12.1565654"><ele>336.20000000000005</ele><time>2026-05-02T11:08:58.722Z</time></trkpt><trkpt lat="43.0333989" lon="12.1567026"><ele>335.8</ele><time>2026-05-02T11:09:00.726Z</time></trkpt><trkpt lat="43.0333468" lon="12.156824"><ele>335.4</ele><time>2026-05-02T11:09:02.729Z</time></trkpt><trkpt lat="43.0332981" lon="12.1569317"><ele>335.0</ele><time>2026-05-02T11:09:04.722Z</time></trkpt><trkpt lat="43.033238" lon="12.1570353"><ele>335.0</ele><time>2026-05-02T11:09:06.726Z</time></trkpt><trkpt lat="43.0332023" lon="12.1571927"><ele>335.0</ele><time>2026-05-02T11:09:08.722Z</time></trkpt><trkpt lat="43.0331898" lon="12.1572792"><ele>335.0</ele><time>2026-05-02T11:09:09.721Z</time></trkpt><trkpt lat="43.0331211" lon="12.1574178"><ele>335.0</ele><time>2026-05-02T11:09:11.721Z</time></trkpt><trkpt lat="43.0330663" lon="12.1574695"><ele>335.0</ele><time>2026-05-02T11:09:12.724Z</time></trkpt><trkpt lat="43.0329755" lon="12.1574733"><ele>335.0</ele><time>2026-05-02T11:09:13.729Z</time></trkpt><trkpt lat="43.0328824" lon="12.1574667"><ele>335.0</ele><time>2026-05-02T11:09:14.722Z</time></trkpt><trkpt lat="43.0327961" lon="12.1574599"><ele>335.0</ele><time>2026-05-02T11:09:15.725Z</time></trkpt><trkpt lat="43.0327168" lon="12.1574568"><ele>335.0</ele><time>2026-05-02T11:09:16.728Z</time></trkpt><trkpt lat="43.0326435" lon="12.1574567"><ele>335.0</ele><time>2026-05-02T11:09:17.722Z</time></trkpt><trkpt lat="43.0325694" lon="12.1574087"><ele>335.0</ele><time>2026-05-02T11:09:18.724Z</time></trkpt><trkpt lat="43.0324896" lon="12.1573502"><ele>333.0</ele><time>2026-05-02T11:09:19.729Z</time></trkpt><trkpt lat="43.0324096" lon="12.1572979"><ele>331.0</ele><time>2026-05-02T11:09:20.725Z</time></trkpt><trkpt lat="43.0323226" lon="12.1572721"><ele>329.0</ele><time>2026-05-02T11:09:21.724Z</time></trkpt><trkpt lat="43.0322329" lon="12.1572538"><ele>327.0</ele><time>2026-05-02T11:09:22.726Z</time></trkpt><trkpt lat="43.0321413" lon="12.1572439"><ele>325.0</ele><time>2026-05-02T11:09:23.721Z</time></trkpt><trkpt lat="43.0320469" lon="12.1572454"><ele>325.0</ele><time>2026-05-02T11:09:24.729Z</time></trkpt><trkpt lat="43.0319489" lon="12.1572488"><ele>325.0</ele><time>2026-05-02T11:09:25.723Z</time></trkpt><trkpt lat="43.031847" lon="12.1572576"><ele>325.0</ele><time>2026-05-02T11:09:26.72Z</time></trkpt><trkpt lat="43.0317425" lon="12.1572763"><ele>325.0</ele><time>2026-05-02T11:09:27.719Z</time></trkpt><trkpt lat="43.0316372" lon="12.1572946"><ele>325.0</ele><time>2026-05-02T11:09:28.723Z</time></trkpt><trkpt lat="43.0315243" lon="12.1573222"><ele>324.0</ele><time>2026-05-02T11:09:29.719Z</time></trkpt><trkpt lat="43.0314236" lon="12.1573495"><ele>323.0</ele><time>2026-05-02T11:09:30.722Z</time></trkpt><trkpt lat="43.031331" lon="12.1573782"><ele>322.0</ele><time>2026-05-02T11:09:31.718Z</time></trkpt><trkpt lat="43.0312489" lon="12.1574068"><ele>321.0</ele><time>2026-05-02T11:09:32.718Z</time></trkpt><trkpt lat="43.0311738" lon="12.1574543"><ele>320.0</ele><time>2026-05-02T11:09:33.719Z</time></trkpt><trkpt lat="43.0311121" lon="12.1575174"><ele>319.0</ele><time>2026-05-02T11:09:34.719Z</time></trkpt><trkpt lat="43.0310664" lon="12.1576055"><ele>320.8333333333333</ele><time>2026-05-02T11:09:35.722Z</time></trkpt><trkpt lat="43.0310313" lon="12.1577114"><ele>322.66666666666663</ele><time>2026-05-02T11:09:36.719Z</time></trkpt><trkpt lat="43.0310022" lon="12.1578211"><ele>324.5</ele><time>2026-05-02T11:09:37.722Z</time></trkpt><trkpt lat="43.0309664" lon="12.1579234"><ele>326.3333333333333</ele><time>2026-05-02T11:09:38.72Z</time></trkpt><trkpt lat="43.0309137" lon="12.1580112"><ele>328.1666666666667</ele><time>2026-05-02T11:09:39.719Z</time></trkpt><trkpt lat="43.0308475" lon="12.1580806"><ele>330.0</ele><time>2026-05-02T11:09:40.724Z</time></trkpt><trkpt lat="43.0307737" lon="12.1581376"><ele>330.0</ele><time>2026-05-02T11:09:41.719Z</time></trkpt><trkpt lat="43.0306933" lon="12.1581785"><ele>330.0</ele><time>2026-05-02T11:09:42.724Z</time></trkpt><trkpt lat="43.0305974" lon="12.1581962"><ele>330.0</ele><time>2026-05-02T11:09:43.719Z</time></trkpt><trkpt lat="43.0304957" lon="12.1582012"><ele>330.0</ele><time>2026-05-02T11:09:44.724Z</time></trkpt><trkpt lat="43.0303903" lon="12.1582047"><ele>330.0</ele><time>2026-05-02T11:09:45.727Z</time></trkpt><trkpt lat="43.0302998" lon="12.1582054"><ele>330.1666666666667</ele><time>2026-05-02T11:09:46.721Z</time></trkpt><trkpt lat="43.0302148" lon="12.1582062"><ele>330.3333333333333</ele><time>2026-05-02T11:09:47.726Z</time></trkpt><trkpt lat="43.0301398" lon="12.1582134"><ele>330.5</ele><time>2026-05-02T11:09:48.723Z</time></trkpt><trkpt lat="43.0300666" lon="12.1582167"><ele>330.66666666666663</ele><time>2026-05-02T11:09:49.721Z</time></trkpt><trkpt lat="43.0299925" lon="12.1582451"><ele>330.8333333333333</ele><time>2026-05-02T11:09:50.721Z</time></trkpt><trkpt lat="43.0299216" lon="12.1582971"><ele>331.0</ele><time>2026-05-02T11:09:51.72Z</time></trkpt><trkpt lat="43.0298543" lon="12.1583685"><ele>331.0</ele><time>2026-05-02T11:09:52.725Z</time></trkpt><trkpt lat="43.0297932" lon="12.1584488"><ele>331.0</ele><time>2026-05-02T11:09:53.725Z</time></trkpt><trkpt lat="43.0297362" lon="12.1585449"><ele>331.0</ele><time>2026-05-02T11:09:54.723Z</time></trkpt><trkpt lat="43.0296922" lon="12.15863"><ele>331.0</ele><time>2026-05-02T11:09:55.725Z</time></trkpt><trkpt lat="43.0296419" lon="12.1587182"><ele>331.0</ele><time>2026-05-02T11:09:56.718Z</time></trkpt><trkpt lat="43.0295948" lon="12.1587815"><ele>331.0</ele><time>2026-05-02T11:09:57.72Z</time></trkpt><trkpt lat="43.0295309" lon="12.1588772"><ele>331.0</ele><time>2026-05-02T11:09:59.724Z</time></trkpt><trkpt lat="43.0295885" lon="12.1589346"><ele>331.0</ele><time>2026-05-02T11:10:28.725Z</time></trkpt><trkpt lat="43.0296703" lon="12.1589074"><ele>331.0</ele><time>2026-05-02T11:10:30.722Z</time></trkpt><trkpt lat="43.0297889" lon="12.1588543"><ele>331.0</ele><time>2026-05-02T11:10:32.721Z</time></trkpt><trkpt lat="43.029907" lon="12.1588113"><ele>331.0</ele><time>2026-05-02T11:10:34.721Z</time></trkpt><trkpt lat="43.0299704" lon="12.1588075"><ele>332.3333333333333</ele><time>2026-05-02T11:10:35.726Z</time></trkpt><trkpt lat="43.0300448" lon="12.1588059"><ele>333.66666666666663</ele><time>2026-05-02T11:10:36.722Z</time></trkpt><trkpt lat="43.0301116" lon="12.158808"><ele>335.0</ele><time>2026-05-02T11:10:37.724Z</time></trkpt><trkpt lat="43.0301751" lon="12.158825"><ele>336.3333333333333</ele><time>2026-05-02T11:10:38.726Z</time></trkpt><trkpt lat="43.0302733" lon="12.1588689"><ele>337.6666666666667</ele><time>2026-05-02T11:10:40.727Z</time></trkpt><trkpt lat="43.0303728" lon="12.1589511"><ele>339.0</ele><time>2026-05-02T11:10:42.719Z</time></trkpt><trkpt lat="43.0304331" lon="12.1590342"><ele>340.6</ele><time>2026-05-02T11:10:44.721Z</time></trkpt><trkpt lat="43.0304115" lon="12.159143"><ele>342.2</ele><time>2026-05-02T11:10:47.719Z</time></trkpt><trkpt lat="43.0303281" lon="12.1591827"><ele>343.8</ele><time>2026-05-02T11:10:49.72Z</time></trkpt><trkpt lat="43.0302507" lon="12.1592363"><ele>345.40000000000003</ele><time>2026-05-02T11:10:51.729Z</time></trkpt><trkpt lat="43.0301804" lon="12.1593007"><ele>347.0</ele><time>2026-05-02T11:10:53.729Z</time></trkpt><trkpt lat="43.0300875" lon="12.1594119"><ele>347.0</ele><time>2026-05-02T11:10:55.722Z</time></trkpt><trkpt lat="43.0300526" lon="12.1595003"><ele>347.0</ele><time>2026-05-02T11:10:57.722Z</time></trkpt><trkpt lat="43.0300219" lon="12.1595772"><ele>347.0</ele><time>2026-05-02T11:10:58.722Z</time></trkpt><trkpt lat="43.0300241" lon="12.159687"><ele>347.0</ele><time>2026-05-02T11:11:00.721Z</time></trkpt><trkpt lat="43.0300225" lon="12.159831"><ele>347.0</ele><time>2026-05-02T11:11:02.725Z</time></trkpt><trkpt lat="43.0300067" lon="12.1600182"><ele>347.8</ele><time>2026-05-02T11:11:04.723Z</time></trkpt><trkpt lat="43.029985" lon="12.1601373"><ele>348.6</ele><time>2026-05-02T11:11:05.729Z</time></trkpt><trkpt lat="43.0299742" lon="12.1602639"><ele>349.40000000000003</ele><time>2026-05-02T11:11:06.72Z</time></trkpt><trkpt lat="43.0299439" lon="12.1603781"><ele>350.20000000000005</ele><time>2026-05-02T11:11:07.722Z</time></trkpt><trkpt lat="43.0299284" lon="12.160514"><ele>351.0</ele><time>2026-05-02T11:11:08.712Z</time></trkpt><trkpt lat="43.0299103" lon="12.1606343"><ele>349.4</ele><time>2026-05-02T11:11:09.725Z</time></trkpt><trkpt lat="43.0298133" lon="12.1607845"><ele>347.8</ele><time>2026-05-02T11:11:11.724Z</time></trkpt><trkpt lat="43.0297346" lon="12.1608482"><ele>346.2</ele><time>2026-05-02T11:11:12.719Z</time></trkpt><trkpt lat="43.0296489" lon="12.1609195"><ele>344.59999999999997</ele><time>2026-05-02T11:11:13.719Z</time></trkpt><trkpt lat="43.0295662" lon="12.1609923"><ele>343.0</ele><time>2026-05-02T11:11:14.729Z</time></trkpt><trkpt lat="43.0294925" lon="12.161087"><ele>343.0</ele><time>2026-05-02T11:11:15.723Z</time></trkpt><trkpt lat="43.0294107" lon="12.1611655"><ele>343.0</ele><time>2026-05-02T11:11:16.723Z</time></trkpt><trkpt lat="43.0293698" lon="12.1612725"><ele>343.0</ele><time>2026-05-02T11:11:17.724Z</time></trkpt><trkpt lat="43.0293222" lon="12.1613695"><ele>343.0</ele><time>2026-05-02T11:11:18.722Z</time></trkpt><trkpt lat="43.0292893" lon="12.1614774"><ele>343.0</ele><time>2026-05-02T11:11:19.721Z</time></trkpt><trkpt lat="43.0292676" lon="12.1615912"><ele>343.0</ele><time>2026-05-02T11:11:20.722Z</time></trkpt><trkpt lat="43.0292507" lon="12.1617023"><ele>344.5</ele><time>2026-05-02T11:11:21.722Z</time></trkpt><trkpt lat="43.0292483" lon="12.1618108"><ele>346.0</ele><time>2026-05-02T11:11:22.722Z</time></trkpt><trkpt lat="43.0292694" lon="12.1619562"><ele>347.5</ele><time>2026-05-02T11:11:24.721Z</time></trkpt><trkpt lat="43.0293078" lon="12.1620267"><ele>349.0</ele><time>2026-05-02T11:11:27.723Z</time></trkpt><trkpt lat="43.029381" lon="12.162021"><ele>350.5</ele><time>2026-05-02T11:11:29.722Z</time></trkpt><trkpt lat="43.029475" lon="12.161989"><ele>352.0</ele><time>2026-05-02T11:11:31.72Z</time></trkpt><trkpt lat="43.0295808" lon="12.1619542"><ele>352.0</ele><time>2026-05-02T11:11:33.722Z</time></trkpt><trkpt lat="43.0296513" lon="12.1619457"><ele>352.0</ele><time>2026-05-02T11:11:34.718Z</time></trkpt><trkpt lat="43.0297331" lon="12.1619406"><ele>352.0</ele><time>2026-05-02T11:11:35.721Z</time></trkpt><trkpt lat="43.0298202" lon="12.1619581"><ele>352.0</ele><time>2026-05-02T11:11:36.725Z</time></trkpt><trkpt lat="43.0299114" lon="12.1619955"><ele>352.0</ele><time>2026-05-02T11:11:37.72Z</time></trkpt><trkpt lat="43.0300004" lon="12.1620406"><ele>352.0</ele><time>2026-05-02T11:11:38.721Z</time></trkpt><trkpt lat="43.0300896" lon="12.1621006"><ele>353.6</ele><time>2026-05-02T11:11:39.724Z</time></trkpt><trkpt lat="43.0301777" lon="12.1621663"><ele>355.20000000000005</ele><time>2026-05-02T11:11:40.718Z</time></trkpt><trkpt lat="43.0302731" lon="12.1622335"><ele>356.8</ele><time>2026-05-02T11:11:41.725Z</time></trkpt><trkpt lat="43.0303695" lon="12.162312"><ele>358.4</ele><time>2026-05-02T11:11:42.721Z</time></trkpt><trkpt lat="43.0304651" lon="12.1623866"><ele>360.0</ele><time>2026-05-02T11:11:43.718Z</time></trkpt><trkpt lat="43.0305567" lon="12.1624613"><ele>360.6</ele><time>2026-05-02T11:11:44.72Z</time></trkpt><trkpt lat="43.0306476" lon="12.1625268"><ele>361.2</ele><time>2026-05-02T11:11:45.727Z</time></trkpt><trkpt lat="43.030743" lon="12.1625661"><ele>361.79999999999995</ele><time>2026-05-02T11:11:46.725Z</time></trkpt><trkpt lat="43.0308522" lon="12.162577"><ele>362.4</ele><time>2026-05-02T11:11:47.716Z</time></trkpt><trkpt lat="43.0309691" lon="12.1625737"><ele>363.0</ele><time>2026-05-02T11:11:48.721Z</time></trkpt><trkpt lat="43.0310907" lon="12.162568"><ele>366.0</ele><time>2026-05-02T11:11:49.72Z</time></trkpt><trkpt lat="43.0312101" lon="12.1625617"><ele>369.0</ele><time>2026-05-02T11:11:50.72Z</time></trkpt><trkpt lat="43.0313311" lon="12.1625522"><ele>372.0</ele><time>2026-05-02T11:11:51.729Z</time></trkpt><trkpt lat="43.0314567" lon="12.1625422"><ele>375.0</ele><time>2026-05-02T11:11:52.727Z</time></trkpt><trkpt lat="43.0315888" lon="12.1625304"><ele>376.8</ele><time>2026-05-02T11:11:53.721Z</time></trkpt><trkpt lat="43.0317208" lon="12.1625224"><ele>378.6</ele><time>2026-05-02T11:11:54.724Z</time></trkpt><trkpt lat="43.0318366" lon="12.1625114"><ele>380.4</ele><time>2026-05-02T11:11:55.728Z</time></trkpt><trkpt lat="43.03194" lon="12.1624969"><ele>382.2</ele><time>2026-05-02T11:11:56.72Z</time></trkpt><trkpt lat="43.0320284" lon="12.1624959"><ele>384.0</ele><time>2026-05-02T11:11:57.721Z</time></trkpt><trkpt lat="43.0321033" lon="12.1624914"><ele>384.0</ele><time>2026-05-02T11:11:58.727Z</time></trkpt><trkpt lat="43.0321707" lon="12.1624662"><ele>384.0</ele><time>2026-05-02T11:11:59.727Z</time></trkpt><trkpt lat="43.032243" lon="12.1624187"><ele>384.0</ele><time>2026-05-02T11:12:00.72Z</time></trkpt><trkpt lat="43.0323175" lon="12.162342"><ele>384.0</ele><time>2026-05-02T11:12:01.728Z</time></trkpt><trkpt lat="43.032414" lon="12.162237"><ele>384.0</ele><time>2026-05-02T11:12:02.723Z</time></trkpt><trkpt lat="43.032512" lon="12.1621242"><ele>383.75</ele><time>2026-05-02T11:12:03.721Z</time></trkpt><trkpt lat="43.0326089" lon="12.1620125"><ele>383.5</ele><time>2026-05-02T11:12:04.729Z</time></trkpt><trkpt lat="43.0327017" lon="12.161902"><ele>383.25</ele><time>2026-05-02T11:12:05.729Z</time></trkpt><trkpt lat="43.0327918" lon="12.1618157"><ele>383.0</ele><time>2026-05-02T11:12:06.724Z</time></trkpt><trkpt lat="43.0328742" lon="12.1617201"><ele>383.0</ele><time>2026-05-02T11:12:07.722Z</time></trkpt><trkpt lat="43.0329498" lon="12.1616326"><ele>383.0</ele><time>2026-05-02T11:12:08.718Z</time></trkpt><trkpt lat="43.0330097" lon="12.1615614"><ele>383.0</ele><time>2026-05-02T11:12:09.72Z</time></trkpt><trkpt lat="43.0330718" lon="12.1615127"><ele>383.0</ele><time>2026-05-02T11:12:10.72Z</time></trkpt><trkpt lat="43.0331256" lon="12.161454"><ele>383.0</ele><time>2026-05-02T11:12:11.722Z</time></trkpt><trkpt lat="43.033188" lon="12.1613912"><ele>383.0</ele><time>2026-05-02T11:12:12.723Z</time></trkpt><trkpt lat="43.033254" lon="12.1613397"><ele>381.6666666666667</ele><time>2026-05-02T11:12:13.72Z</time></trkpt><trkpt lat="43.0333311" lon="12.1613074"><ele>380.33333333333337</ele><time>2026-05-02T11:12:14.722Z</time></trkpt><trkpt lat="43.0334136" lon="12.1612764"><ele>379.0</ele><time>2026-05-02T11:12:15.724Z</time></trkpt><trkpt lat="43.0335007" lon="12.1612679"><ele>377.6666666666667</ele><time>2026-05-02T11:12:16.719Z</time></trkpt><trkpt lat="43.0335889" lon="12.1612772"><ele>376.3333333333333</ele><time>2026-05-02T11:12:17.727Z</time></trkpt><trkpt lat="43.0336776" lon="12.1612971"><ele>375.0</ele><time>2026-05-02T11:12:18.723Z</time></trkpt><trkpt lat="43.0337692" lon="12.1613418"><ele>375.0</ele><time>2026-05-02T11:12:19.719Z</time></trkpt><trkpt lat="43.0338595" lon="12.1614026"><ele>375.0</ele><time>2026-05-02T11:12:20.728Z</time></trkpt><trkpt lat="43.0339593" lon="12.1614613"><ele>375.0</ele><time>2026-05-02T11:12:21.728Z</time></trkpt><trkpt lat="43.0340452" lon="12.161522"><ele>375.0</ele><time>2026-05-02T11:12:22.719Z</time></trkpt><trkpt lat="43.0341422" lon="12.1615797"><ele>375.0</ele><time>2026-05-02T11:12:23.719Z</time></trkpt><trkpt lat="43.0342438" lon="12.1616293"><ele>377.6</ele><time>2026-05-02T11:12:24.728Z</time></trkpt><trkpt lat="43.0343363" lon="12.1616747"><ele>380.2</ele><time>2026-05-02T11:12:25.723Z</time></trkpt><trkpt lat="43.0344354" lon="12.1616872"><ele>382.79999999999995</ele><time>2026-05-02T11:12:26.719Z</time></trkpt><trkpt lat="43.0345573" lon="12.1616954"><ele>385.4</ele><time>2026-05-02T11:12:27.729Z</time></trkpt><trkpt lat="43.0346723" lon="12.1616964"><ele>388.0</ele><time>2026-05-02T11:12:28.72Z</time></trkpt><trkpt lat="43.0347911" lon="12.1617016"><ele>388.0</ele><time>2026-05-02T11:12:29.727Z</time></trkpt><trkpt lat="43.0349074" lon="12.1616986"><ele>388.0</ele><time>2026-05-02T11:12:30.728Z</time></trkpt><trkpt lat="43.0350291" lon="12.1617043"><ele>388.0</ele><time>2026-05-02T11:12:31.729Z</time></trkpt><trkpt lat="43.0351277" lon="12.1617081"><ele>388.0</ele><time>2026-05-02T11:12:32.725Z</time></trkpt><trkpt lat="43.0352151" lon="12.1617088"><ele>388.0</ele><time>2026-05-02T11:12:33.719Z</time></trkpt><trkpt lat="43.0353002" lon="12.1617056"><ele>389.1666666666667</ele><time>2026-05-02T11:12:34.723Z</time></trkpt><trkpt lat="43.0353868" lon="12.1617078"><ele>390.33333333333337</ele><time>2026-05-02T11:12:35.722Z</time></trkpt><trkpt lat="43.0354751" lon="12.1617055"><ele>391.5</ele><time>2026-05-02T11:12:36.719Z</time></trkpt><trkpt lat="43.0355642" lon="12.1617039"><ele>392.66666666666663</ele><time>2026-05-02T11:12:37.729Z</time></trkpt><trkpt lat="43.0356471" lon="12.1617101"><ele>393.8333333333333</ele><time>2026-05-02T11:12:38.718Z</time></trkpt><trkpt lat="43.0357323" lon="12.1617147"><ele>395.0</ele><time>2026-05-02T11:12:39.722Z</time></trkpt><trkpt lat="43.0358088" lon="12.1617157"><ele>394.99999999999994</ele><time>2026-05-02T11:12:40.723Z</time></trkpt><trkpt lat="43.0358799" lon="12.1617185"><ele>395.0</ele><time>2026-05-02T11:12:41.725Z</time></trkpt><trkpt lat="43.0359698" lon="12.1617401"><ele>395.0</ele><time>2026-05-02T11:12:43.719Z</time></trkpt><trkpt lat="43.0360209" lon="12.1616768"><ele>395.0</ele><time>2026-05-02T11:12:46.722Z</time></trkpt><trkpt lat="43.0360238" lon="12.1615768"><ele>394.99999999999994</ele><time>2026-05-02T11:12:48.723Z</time></trkpt><trkpt lat="43.0360535" lon="12.1614465"><ele>395.0</ele><time>2026-05-02T11:12:50.72Z</time></trkpt><trkpt lat="43.036079" lon="12.1613246"><ele>394.99999999999994</ele><time>2026-05-02T11:12:52.719Z</time></trkpt><trkpt lat="43.0361008" lon="12.1611781"><ele>395.0</ele><time>2026-05-02T11:12:54.725Z</time></trkpt><trkpt lat="43.0361451" lon="12.1610338"><ele>395.0</ele><time>2026-05-02T11:12:56.719Z</time></trkpt><trkpt lat="43.0361924" lon="12.1609711"><ele>395.0</ele><time>2026-05-02T11:12:57.725Z</time></trkpt><trkpt lat="43.0362398" lon="12.1609065"><ele>394.99999999999994</ele><time>2026-05-02T11:12:58.714Z</time></trkpt><trkpt lat="43.0362979" lon="12.1608516"><ele>395.0</ele><time>2026-05-02T11:12:59.721Z</time></trkpt><trkpt lat="43.0363778" lon="12.1607428"><ele>392.8</ele><time>2026-05-02T11:13:01.718Z</time></trkpt><trkpt lat="43.0364387" lon="12.1606388"><ele>390.6</ele><time>2026-05-02T11:13:03.725Z</time></trkpt><trkpt lat="43.0364842" lon="12.1605582"><ele>388.4</ele><time>2026-05-02T11:13:05.721Z</time></trkpt><trkpt lat="43.0365297" lon="12.1604717"><ele>386.2</ele><time>2026-05-02T11:13:07.719Z</time></trkpt><trkpt lat="43.0365753" lon="12.1603582"><ele>384.0</ele><time>2026-05-02T11:13:09.724Z</time></trkpt><trkpt lat="43.0366378" lon="12.1602318"><ele>384.0</ele><time>2026-05-02T11:13:11.721Z</time></trkpt><trkpt lat="43.0366646" lon="12.1601519"><ele>384.0</ele><time>2026-05-02T11:13:12.721Z</time></trkpt><trkpt lat="43.0367342" lon="12.1600167"><ele>384.0</ele><time>2026-05-02T11:13:14.719Z</time></trkpt><trkpt lat="43.0367993" lon="12.1598904"><ele>384.0</ele><time>2026-05-02T11:13:16.729Z</time></trkpt><trkpt lat="43.0368684" lon="12.1597906"><ele>384.0</ele><time>2026-05-02T11:13:18.723Z</time></trkpt><trkpt lat="43.0369391" lon="12.1597011"><ele>382.2</ele><time>2026-05-02T11:13:20.717Z</time></trkpt><trkpt lat="43.037028" lon="12.159653"><ele>380.4</ele><time>2026-05-02T11:13:22.727Z</time></trkpt><trkpt lat="43.0371089" lon="12.1596396"><ele>378.6</ele><time>2026-05-02T11:13:24.722Z</time></trkpt><trkpt lat="43.0371894" lon="12.1596003"><ele>376.8</ele><time>2026-05-02T11:13:26.72Z</time></trkpt><trkpt lat="43.0372836" lon="12.1595225"><ele>375.0</ele><time>2026-05-02T11:13:28.722Z</time></trkpt><trkpt lat="43.0373686" lon="12.1594413"><ele>375.0</ele><time>2026-05-02T11:13:30.723Z</time></trkpt><trkpt lat="43.0374579" lon="12.1593532"><ele>375.0</ele><time>2026-05-02T11:13:32.725Z</time></trkpt><trkpt lat="43.037501" lon="12.1592394"><ele>375.0</ele><time>2026-05-02T11:13:34.723Z</time></trkpt><trkpt lat="43.0375133" lon="12.1591504"><ele>375.0</ele><time>2026-05-02T11:13:36.721Z</time></trkpt><trkpt lat="43.0375324" lon="12.1590383"><ele>375.0</ele><time>2026-05-02T11:13:43.723Z</time></trkpt><trkpt lat="43.0375576" lon="12.1589443"><ele>375.0</ele><time>2026-05-02T11:13:45.719Z</time></trkpt><trkpt lat="43.0375816" lon="12.1587853"><ele>374.3333333333333</ele><time>2026-05-02T11:13:47.723Z</time></trkpt><trkpt lat="43.0375679" lon="12.1586963"><ele>373.6666666666667</ele><time>2026-05-02T11:13:49.719Z</time></trkpt><trkpt lat="43.0375377" lon="12.1586107"><ele>373.0</ele><time>2026-05-02T11:13:53.727Z</time></trkpt><trkpt lat="43.0374713" lon="12.1585142"><ele>372.33333333333337</ele><time>2026-05-02T11:14:06.729Z</time></trkpt><trkpt lat="43.0374237" lon="12.1584403"><ele>371.6666666666667</ele><time>2026-05-02T11:14:10.719Z</time></trkpt><trkpt lat="43.0373827" lon="12.1583524"><ele>371.0</ele><time>2026-05-02T11:14:14.722Z</time></trkpt><trkpt lat="43.0373396" lon="12.1582578"><ele>372.14285714285717</ele><time>2026-05-02T11:14:19.717Z</time></trkpt><trkpt lat="43.0372986" lon="12.1581859"><ele>373.2857142857143</ele><time>2026-05-02T11:14:23.722Z</time></trkpt><trkpt lat="43.0372562" lon="12.1580938"><ele>374.42857142857144</ele><time>2026-05-02T11:14:26.722Z</time></trkpt><trkpt lat="43.0372145" lon="12.1580216"><ele>375.57142857142856</ele><time>2026-05-02T11:14:28.718Z</time></trkpt><trkpt lat="43.0371837" lon="12.1579464"><ele>376.7142857142857</ele><time>2026-05-02T11:14:30.721Z</time></trkpt><trkpt lat="43.0371473" lon="12.157864"><ele>377.8571428571429</ele><time>2026-05-02T11:14:32.725Z</time></trkpt><trkpt lat="43.0371118" lon="12.1577709"><ele>379.0</ele><time>2026-05-02T11:14:34.718Z</time></trkpt><trkpt lat="43.0370757" lon="12.1576878"><ele>379.00000000000006</ele><time>2026-05-02T11:14:36.722Z</time></trkpt><trkpt lat="43.037028" lon="12.1575908"><ele>379.0</ele><time>2026-05-02T11:14:38.719Z</time></trkpt><trkpt lat="43.0369863" lon="12.1575093"><ele>379.0</ele><time>2026-05-02T11:14:40.718Z</time></trkpt><trkpt lat="43.0369676" lon="12.1574257"><ele>379.0</ele><time>2026-05-02T11:14:42.719Z</time></trkpt><trkpt lat="43.0369448" lon="12.157334"><ele>379.0</ele><time>2026-05-02T11:14:45.721Z</time></trkpt><trkpt lat="43.0369228" lon="12.1572409"><ele>379.00000000000006</ele><time>2026-05-02T11:14:47.721Z</time></trkpt><trkpt lat="43.0369011" lon="12.157151"><ele>379.0</ele><time>2026-05-02T11:14:49.724Z</time></trkpt><trkpt lat="43.0368683" lon="12.1570287"><ele>380.3333333333333</ele><time>2026-05-02T11:14:51.72Z</time></trkpt><trkpt lat="43.0368384" lon="12.1569036"><ele>381.66666666666663</ele><time>2026-05-02T11:14:53.722Z</time></trkpt><trkpt lat="43.0368307" lon="12.1567932"><ele>383.0</ele><time>2026-05-02T11:14:56.729Z</time></trkpt><trkpt lat="43.0368776" lon="12.1566933"><ele>384.3333333333333</ele><time>2026-05-02T11:14:58.723Z</time></trkpt><trkpt lat="43.0369296" lon="12.1565863"><ele>385.6666666666667</ele><time>2026-05-02T11:15:00.722Z</time></trkpt><trkpt lat="43.0369599" lon="12.1564895"><ele>387.0</ele><time>2026-05-02T11:15:02.719Z</time></trkpt><trkpt lat="43.0369964" lon="12.1563783"><ele>387.1666666666667</ele><time>2026-05-02T11:15:04.722Z</time></trkpt><trkpt lat="43.0370396" lon="12.1562916"><ele>387.33333333333337</ele><time>2026-05-02T11:15:06.723Z</time></trkpt><trkpt lat="43.0371014" lon="12.1562514"><ele>387.5</ele><time>2026-05-02T11:15:32.721Z</time></trkpt><trkpt lat="43.0371495" lon="12.1561704"><ele>387.6666666666667</ele><time>2026-05-02T11:15:34.718Z</time></trkpt><trkpt lat="43.0372169" lon="12.1560791"><ele>387.83333333333337</ele><time>2026-05-02T11:15:36.718Z</time></trkpt><trkpt lat="43.0372938" lon="12.1559867"><ele>388.0</ele><time>2026-05-02T11:15:38.72Z</time></trkpt><trkpt lat="43.0373871" lon="12.1558554"><ele>388.0</ele><time>2026-05-02T11:15:40.717Z</time></trkpt><trkpt lat="43.0374558" lon="12.1557799"><ele>388.0</ele><time>2026-05-02T11:15:41.722Z</time></trkpt><trkpt lat="43.0375283" lon="12.1556959"><ele>388.0</ele><time>2026-05-02T11:15:42.72Z</time></trkpt><trkpt lat="43.0376061" lon="12.1556011"><ele>388.0</ele><time>2026-05-02T11:15:43.718Z</time></trkpt><trkpt lat="43.0376953" lon="12.1555035"><ele>388.0</ele><time>2026-05-02T11:15:44.723Z</time></trkpt><trkpt lat="43.0377825" lon="12.1554033"><ele>391.4</ele><time>2026-05-02T11:15:45.717Z</time></trkpt><trkpt lat="43.0378646" lon="12.1553211"><ele>394.79999999999995</ele><time>2026-05-02T11:15:46.718Z</time></trkpt><trkpt lat="43.0379491" lon="12.1552358"><ele>398.2</ele><time>2026-05-02T11:15:47.716Z</time></trkpt><trkpt lat="43.0380312" lon="12.1551374"><ele>401.6</ele><time>2026-05-02T11:15:48.722Z</time></trkpt><trkpt lat="43.0381128" lon="12.1550499"><ele>405.0</ele><time>2026-05-02T11:15:49.72Z</time></trkpt><trkpt lat="43.0381946" lon="12.154958"><ele>404.0</ele><time>2026-05-02T11:15:50.727Z</time></trkpt><trkpt lat="43.0382818" lon="12.1548702"><ele>403.0</ele><time>2026-05-02T11:15:51.718Z</time></trkpt><trkpt lat="43.0383692" lon="12.1547717"><ele>402.0</ele><time>2026-05-02T11:15:52.718Z</time></trkpt><trkpt lat="43.0384638" lon="12.15466"><ele>401.0</ele><time>2026-05-02T11:15:53.718Z</time></trkpt><trkpt lat="43.0385602" lon="12.1545408"><ele>404.8333333333333</ele><time>2026-05-02T11:15:54.722Z</time></trkpt><trkpt lat="43.038642" lon="12.1544372"><ele>408.66666666666663</ele><time>2026-05-02T11:15:55.722Z</time></trkpt><trkpt lat="43.038711" lon="12.1543583"><ele>412.5</ele><time>2026-05-02T11:15:56.718Z</time></trkpt><trkpt lat="43.0387698" lon="12.1542852"><ele>416.33333333333337</ele><time>2026-05-02T11:15:57.718Z</time></trkpt><trkpt lat="43.0388191" lon="12.154226"><ele>420.1666666666667</ele><time>2026-05-02T11:15:58.72Z</time></trkpt><trkpt lat="43.0388736" lon="12.154163"><ele>424.0</ele><time>2026-05-02T11:15:59.722Z</time></trkpt><trkpt lat="43.0389317" lon="12.154112"><ele>424.0</ele><time>2026-05-02T11:16:00.724Z</time></trkpt><trkpt lat="43.0389865" lon="12.154047"><ele>424.0</ele><time>2026-05-02T11:16:01.721Z</time></trkpt><trkpt lat="43.0390435" lon="12.1539893"><ele>424.0</ele><time>2026-05-02T11:16:02.721Z</time></trkpt><trkpt lat="43.039094" lon="12.1539297"><ele>424.0</ele><time>2026-05-02T11:16:03.72Z</time></trkpt><trkpt lat="43.0391389" lon="12.1538646"><ele>424.0</ele><time>2026-05-02T11:16:04.718Z</time></trkpt><trkpt lat="43.039183" lon="12.1538018"><ele>424.0</ele><time>2026-05-02T11:16:05.72Z</time></trkpt><trkpt lat="43.0392453" lon="12.1537141"><ele>424.0</ele><time>2026-05-02T11:16:07.725Z</time></trkpt><trkpt lat="43.0393041" lon="12.1536407"><ele>426.83333333333337</ele><time>2026-05-02T11:16:33.727Z</time></trkpt><trkpt lat="43.0393523" lon="12.1535726"><ele>429.6666666666667</ele><time>2026-05-02T11:16:35.723Z</time></trkpt><trkpt lat="43.0394117" lon="12.1535028"><ele>432.5</ele><time>2026-05-02T11:16:37.718Z</time></trkpt><trkpt lat="43.0394825" lon="12.1534299"><ele>435.33333333333337</ele><time>2026-05-02T11:16:39.723Z</time></trkpt><trkpt lat="43.03955" lon="12.1533645"><ele>438.1666666666667</ele><time>2026-05-02T11:16:41.723Z</time></trkpt><trkpt lat="43.0396293" lon="12.1532796"><ele>441.0</ele><time>2026-05-02T11:16:43.718Z</time></trkpt><trkpt lat="43.0397034" lon="12.1532113"><ele>441.0</ele><time>2026-05-02T11:16:45.729Z</time></trkpt><trkpt lat="43.0397838" lon="12.1531365"><ele>441.0</ele><time>2026-05-02T11:16:47.718Z</time></trkpt><trkpt lat="43.0398686" lon="12.1530466"><ele>441.0</ele><time>2026-05-02T11:16:49.726Z</time></trkpt><trkpt lat="43.0399569" lon="12.1529397"><ele>441.0</ele><time>2026-05-02T11:16:51.72Z</time></trkpt><trkpt lat="43.0400352" lon="12.1528177"><ele>441.0</ele><time>2026-05-02T11:16:53.723Z</time></trkpt><trkpt lat="43.0400732" lon="12.1527431"><ele>444.1666666666667</ele><time>2026-05-02T11:16:54.721Z</time></trkpt><trkpt lat="43.0401122" lon="12.1526731"><ele>447.33333333333337</ele><time>2026-05-02T11:16:55.722Z</time></trkpt><trkpt lat="43.0401535" lon="12.1526078"><ele>450.5</ele><time>2026-05-02T11:16:56.724Z</time></trkpt><trkpt lat="43.0402162" lon="12.1525362"><ele>453.6666666666667</ele><time>2026-05-02T11:16:58.718Z</time></trkpt><trkpt lat="43.0402537" lon="12.1526136"><ele>456.83333333333337</ele><time>2026-05-02T11:17:18.717Z</time></trkpt><trkpt lat="43.0402291" lon="12.1527345"><ele>460.0</ele><time>2026-05-02T11:17:20.716Z</time></trkpt><trkpt lat="43.0401863" lon="12.1528629"><ele>460.00000000000006</ele><time>2026-05-02T11:17:22.719Z</time></trkpt><trkpt lat="43.0401495" lon="12.1529795"><ele>460.0</ele><time>2026-05-02T11:17:24.718Z</time></trkpt><trkpt lat="43.0401342" lon="12.1531044"><ele>460.0</ele><time>2026-05-02T11:17:27.716Z</time></trkpt><trkpt lat="43.0400932" lon="12.1532558"><ele>460.0</ele><time>2026-05-02T11:17:29.72Z</time></trkpt><trkpt lat="43.0400733" lon="12.1533502"><ele>460.00000000000006</ele><time>2026-05-02T11:17:30.718Z</time></trkpt><trkpt lat="43.0400504" lon="12.1534429"><ele>460.0</ele><time>2026-05-02T11:17:31.718Z</time></trkpt><trkpt lat="43.0400251" lon="12.1535329"><ele>461.8</ele><time>2026-05-02T11:17:32.719Z</time></trkpt><trkpt lat="43.039987" lon="12.1536477"><ele>463.6</ele><time>2026-05-02T11:17:34.718Z</time></trkpt><trkpt lat="43.0399496" lon="12.1537724"><ele>465.4</ele><time>2026-05-02T11:17:36.72Z</time></trkpt><trkpt lat="43.039898" lon="12.1539229"><ele>467.2</ele><time>2026-05-02T11:17:38.717Z</time></trkpt><trkpt lat="43.0398698" lon="12.1540026"><ele>469.0</ele><time>2026-05-02T11:17:39.718Z</time></trkpt><trkpt lat="43.0398409" lon="12.1540971"><ele>465.6666666666667</ele><time>2026-05-02T11:17:40.719Z</time></trkpt><trkpt lat="43.03981" lon="12.1541964"><ele>462.33333333333337</ele><time>2026-05-02T11:17:41.721Z</time></trkpt><trkpt lat="43.0397806" lon="12.1542994"><ele>459.0</ele><time>2026-05-02T11:17:42.721Z</time></trkpt><trkpt lat="43.0397499" lon="12.1544081"><ele>455.66666666666663</ele><time>2026-05-02T11:17:43.719Z</time></trkpt><trkpt lat="43.0397211" lon="12.1544966"><ele>452.3333333333333</ele><time>2026-05-02T11:17:44.721Z</time></trkpt><trkpt lat="43.0396945" lon="12.1545943"><ele>449.0</ele><time>2026-05-02T11:17:45.716Z</time></trkpt><trkpt lat="43.0396654" lon="12.154692"><ele>449.0</ele><time>2026-05-02T11:17:46.719Z</time></trkpt><trkpt lat="43.0396388" lon="12.1547815"><ele>448.99999999999994</ele><time>2026-05-02T11:17:47.718Z</time></trkpt><trkpt lat="43.0396147" lon="12.154879"><ele>449.0</ele><time>2026-05-02T11:17:48.716Z</time></trkpt><trkpt lat="43.0395874" lon="12.1549812"><ele>449.0</ele><time>2026-05-02T11:17:49.724Z</time></trkpt><trkpt lat="43.0395675" lon="12.155075"><ele>448.99999999999994</ele><time>2026-05-02T11:17:50.719Z</time></trkpt><trkpt lat="43.0395442" lon="12.1551781"><ele>449.0</ele><time>2026-05-02T11:17:51.719Z</time></trkpt><trkpt lat="43.0395233" lon="12.1552672"><ele>449.0</ele><time>2026-05-02T11:17:52.72Z</time></trkpt><trkpt lat="43.0395199" lon="12.1553545"><ele>451.49999999999994</ele><time>2026-05-02T11:17:53.719Z</time></trkpt><trkpt lat="43.039512" lon="12.1554467"><ele>454.0</ele><time>2026-05-02T11:17:54.718Z</time></trkpt><trkpt lat="43.0395111" lon="12.1555332"><ele>456.5</ele><time>2026-05-02T11:17:55.719Z</time></trkpt><trkpt lat="43.0395205" lon="12.1556322"><ele>459.0</ele><time>2026-05-02T11:17:56.722Z</time></trkpt><trkpt lat="43.0395469" lon="12.1557395"><ele>461.49999999999994</ele><time>2026-05-02T11:17:57.72Z</time></trkpt><trkpt lat="43.0395917" lon="12.1559046"><ele>464.0</ele><time>2026-05-02T11:17:59.718Z</time></trkpt><trkpt lat="43.0396286" lon="12.1559889"><ele>465.4285714285715</ele><time>2026-05-02T11:18:00.717Z</time></trkpt><trkpt lat="43.0396754" lon="12.1560629"><ele>466.8571428571429</ele><time>2026-05-02T11:18:01.72Z</time></trkpt><trkpt lat="43.0397316" lon="12.1561289"><ele>468.2857142857143</ele><time>2026-05-02T11:18:02.721Z</time></trkpt><trkpt lat="43.039791" lon="12.1561811"><ele>469.7142857142857</ele><time>2026-05-02T11:18:03.728Z</time></trkpt><trkpt lat="43.0398575" lon="12.1562246"><ele>471.1428571428571</ele><time>2026-05-02T11:18:04.729Z</time></trkpt><trkpt lat="43.0399283" lon="12.1562523"><ele>472.5714285714285</ele><time>2026-05-02T11:18:05.717Z</time></trkpt><trkpt lat="43.0399967" lon="12.156274"><ele>473.99999999999994</ele><time>2026-05-02T11:18:06.723Z</time></trkpt><trkpt lat="43.0401224" lon="12.1562853"><ele>478.5</ele><time>2026-05-02T11:18:08.72Z</time></trkpt><trkpt lat="43.0401834" lon="12.1563091"><ele>483.0</ele><time>2026-05-02T11:18:09.729Z</time></trkpt><trkpt lat="43.0402469" lon="12.1563342"><ele>487.5</ele><time>2026-05-02T11:18:10.717Z</time></trkpt><trkpt lat="43.0403457" lon="12.1563593"><ele>492.0</ele><time>2026-05-02T11:18:11.719Z</time></trkpt><trkpt lat="43.0404396" lon="12.1563848"><ele>496.5</ele><time>2026-05-02T11:18:12.728Z</time></trkpt><trkpt lat="43.0405255" lon="12.1563981"><ele>501.0</ele><time>2026-05-02T11:18:13.722Z</time></trkpt><trkpt lat="43.0406014" lon="12.1564118"><ele>501.0</ele><time>2026-05-02T11:18:14.719Z</time></trkpt><trkpt lat="43.0406833" lon="12.1564154"><ele>501.0</ele><time>2026-05-02T11:18:15.722Z</time></trkpt><trkpt lat="43.0408002" lon="12.1564264"><ele>501.0</ele><time>2026-05-02T11:18:17.719Z</time></trkpt><trkpt lat="43.0408698" lon="12.1564297"><ele>501.0</ele><time>2026-05-02T11:18:18.72Z</time></trkpt><trkpt lat="43.0409402" lon="12.1564532"><ele>501.0</ele><time>2026-05-02T11:18:19.724Z</time></trkpt><trkpt lat="43.0410149" lon="12.1564633"><ele>501.0</ele><time>2026-05-02T11:18:20.718Z</time></trkpt><trkpt lat="43.041094" lon="12.1564683"><ele>505.8</ele><time>2026-05-02T11:18:21.723Z</time></trkpt><trkpt lat="43.0411664" lon="12.1564717"><ele>510.6</ele><time>2026-05-02T11:18:22.729Z</time></trkpt><trkpt lat="43.0412669" lon="12.1564779"><ele>515.4</ele><time>2026-05-02T11:18:24.721Z</time></trkpt><trkpt lat="43.0413535" lon="12.1564644"><ele>520.2</ele><time>2026-05-02T11:18:26.719Z</time></trkpt><trkpt lat="43.0414611" lon="12.1564341"><ele>525.0</ele><time>2026-05-02T11:18:28.729Z</time></trkpt><trkpt lat="43.0415864" lon="12.156399"><ele>527.8</ele><time>2026-05-02T11:18:30.725Z</time></trkpt><trkpt lat="43.0416496" lon="12.156378"><ele>530.6</ele><time>2026-05-02T11:18:31.727Z</time></trkpt><trkpt lat="43.0417732" lon="12.1563586"><ele>533.4</ele><time>2026-05-02T11:18:33.724Z</time></trkpt><trkpt lat="43.0418823" lon="12.1563419"><ele>536.2</ele><time>2026-05-02T11:18:35.72Z</time></trkpt><trkpt lat="43.0419948" lon="12.1563304"><ele>539.0</ele><time>2026-05-02T11:18:37.726Z</time></trkpt><trkpt lat="43.0420606" lon="12.1563339"><ele>539.0</ele><time>2026-05-02T11:18:38.718Z</time></trkpt><trkpt lat="43.0421225" lon="12.1563514"><ele>539.0</ele><time>2026-05-02T11:18:39.725Z</time></trkpt><trkpt lat="43.0422341" lon="12.1563954"><ele>539.0</ele><time>2026-05-02T11:18:41.72Z</time></trkpt><trkpt lat="43.0423483" lon="12.1564062"><ele>539.0</ele><time>2026-05-02T11:18:43.724Z</time></trkpt><trkpt lat="43.0424814" lon="12.1564219"><ele>539.0</ele><time>2026-05-02T11:18:45.721Z</time></trkpt><trkpt lat="43.0425912" lon="12.1564325"><ele>540.1666666666666</ele><time>2026-05-02T11:18:47.717Z</time></trkpt><trkpt lat="43.0426992" lon="12.1564407"><ele>541.3333333333333</ele><time>2026-05-02T11:18:49.718Z</time></trkpt><trkpt lat="43.042809" lon="12.1564374"><ele>542.5</ele><time>2026-05-02T11:18:51.72Z</time></trkpt><trkpt lat="43.0428786" lon="12.1564403"><ele>543.6666666666666</ele><time>2026-05-02T11:18:52.719Z</time></trkpt><trkpt lat="43.0429486" lon="12.1564374"><ele>544.8333333333334</ele><time>2026-05-02T11:18:53.719Z</time></trkpt><trkpt lat="43.0430364" lon="12.1564419"><ele>546.0</ele><time>2026-05-02T11:18:54.722Z</time></trkpt><trkpt lat="43.0431254" lon="12.1564437"><ele>546.0</ele><time>2026-05-02T11:18:55.726Z</time></trkpt><trkpt lat="43.0432077" lon="12.1564414"><ele>546.0</ele><time>2026-05-02T11:18:56.72Z</time></trkpt><trkpt lat="43.0432725" lon="12.1564322"><ele>546.0</ele><time>2026-05-02T11:18:57.725Z</time></trkpt><trkpt lat="43.0433839" lon="12.156438"><ele>546.0</ele><time>2026-05-02T11:18:59.719Z</time></trkpt><trkpt lat="43.0434844" lon="12.1564527"><ele>546.0</ele><time>2026-05-02T11:19:01.721Z</time></trkpt><trkpt lat="43.04355" lon="12.1564609"><ele>546.0</ele><time>2026-05-02T11:19:02.72Z</time></trkpt><trkpt lat="43.0436378" lon="12.1564658"><ele>545.3333333333334</ele><time>2026-05-02T11:19:04.721Z</time></trkpt><trkpt lat="43.0437293" lon="12.1564719"><ele>544.6666666666666</ele><time>2026-05-02T11:19:06.724Z</time></trkpt><trkpt lat="43.0438532" lon="12.1565"><ele>544.0</ele><time>2026-05-02T11:19:08.718Z</time></trkpt><trkpt lat="43.0439227" lon="12.1565475"><ele>543.3333333333333</ele><time>2026-05-02T11:19:10.726Z</time></trkpt><trkpt lat="43.0439712" lon="12.1566235"><ele>542.6666666666666</ele><time>2026-05-02T11:19:12.719Z</time></trkpt><trkpt lat="43.044003" lon="12.1567212"><ele>542.0</ele><time>2026-05-02T11:19:14.717Z</time></trkpt><trkpt lat="43.0440144" lon="12.156841"><ele>538.6666666666666</ele><time>2026-05-02T11:19:16.724Z</time></trkpt><trkpt lat="43.0440259" lon="12.1569505"><ele>535.3333333333333</ele><time>2026-05-02T11:19:18.719Z</time></trkpt><trkpt lat="43.044037" lon="12.1570764"><ele>532.0</ele><time>2026-05-02T11:19:20.72Z</time></trkpt><trkpt lat="43.0440668" lon="12.1572141"><ele>528.6666666666666</ele><time>2026-05-02T11:19:22.719Z</time></trkpt><trkpt lat="43.0441096" lon="12.1573009"><ele>525.3333333333334</ele><time>2026-05-02T11:19:24.718Z</time></trkpt><trkpt lat="43.0441945" lon="12.1572844"><ele>522.0</ele><time>2026-05-02T11:19:26.719Z</time></trkpt><trkpt lat="43.044258" lon="12.1572381"><ele>522.0</ele><time>2026-05-02T11:19:28.719Z</time></trkpt><trkpt lat="43.0443008" lon="12.1571264"><ele>522.0</ele><time>2026-05-02T11:19:49.719Z</time></trkpt><trkpt lat="43.0443522" lon="12.157027"><ele>522.0</ele><time>2026-05-02T11:19:51.719Z</time></trkpt><trkpt lat="43.0444286" lon="12.1569038"><ele>522.0</ele><time>2026-05-02T11:19:53.719Z</time></trkpt><trkpt lat="43.0444834" lon="12.1568269"><ele>522.0</ele><time>2026-05-02T11:19:54.717Z</time></trkpt><trkpt lat="43.0445542" lon="12.1567506"><ele>522.0</ele><time>2026-05-02T11:19:55.717Z</time></trkpt><trkpt lat="43.0446201" lon="12.1566751"><ele>522.0</ele><time>2026-05-02T11:19:56.719Z</time></trkpt><trkpt lat="43.0446805" lon="12.1565976"><ele>522.0</ele><time>2026-05-02T11:19:57.72Z</time></trkpt><trkpt lat="43.0447364" lon="12.1565225"><ele>522.0</ele><time>2026-05-02T11:19:58.718Z</time></trkpt><trkpt lat="43.0447851" lon="12.1564601"><ele>522.0</ele><time>2026-05-02T11:19:59.72Z</time></trkpt><trkpt lat="43.0448235" lon="12.1563747"><ele>522.0</ele><time>2026-05-02T11:20:00.716Z</time></trkpt><trkpt lat="43.0448461" lon="12.156285"><ele>522.1666666666666</ele><time>2026-05-02T11:20:01.716Z</time></trkpt><trkpt lat="43.0448669" lon="12.1561845"><ele>522.3333333333334</ele><time>2026-05-02T11:20:02.717Z</time></trkpt><trkpt lat="43.0448778" lon="12.1560648"><ele>522.5</ele><time>2026-05-02T11:20:03.722Z</time></trkpt><trkpt lat="43.0448924" lon="12.1559656"><ele>522.6666666666667</ele><time>2026-05-02T11:20:04.72Z</time></trkpt><trkpt lat="43.0449193" lon="12.1558631"><ele>522.8333333333334</ele><time>2026-05-02T11:20:05.717Z</time></trkpt><trkpt lat="43.0449538" lon="12.1557643"><ele>523.0</ele><time>2026-05-02T11:20:06.718Z</time></trkpt><trkpt lat="43.0449967" lon="12.1556705"><ele>523.0</ele><time>2026-05-02T11:20:07.716Z</time></trkpt><trkpt lat="43.0450574" lon="12.155521"><ele>523.0</ele><time>2026-05-02T11:20:09.718Z</time></trkpt><trkpt lat="43.0450835" lon="12.1554368"><ele>523.0</ele><time>2026-05-02T11:20:10.719Z</time></trkpt><trkpt lat="43.045115" lon="12.1553386"><ele>523.0</ele><time>2026-05-02T11:20:11.72Z</time></trkpt><trkpt lat="43.0451462" lon="12.1552401"><ele>523.0</ele><time>2026-05-02T11:20:12.718Z</time></trkpt><trkpt lat="43.0451833" lon="12.1551392"><ele>523.0</ele><time>2026-05-02T11:20:13.716Z</time></trkpt><trkpt lat="43.045219" lon="12.1550387"><ele>523.0</ele><time>2026-05-02T11:20:14.716Z</time></trkpt><trkpt lat="43.0452564" lon="12.1549548"><ele>523.0</ele><time>2026-05-02T11:20:15.716Z</time></trkpt><trkpt lat="43.045299" lon="12.1548586"><ele>523.0</ele><time>2026-05-02T11:20:16.718Z</time></trkpt><trkpt lat="43.0453337" lon="12.1547827"><ele>523.0</ele><time>2026-05-02T11:20:17.721Z</time></trkpt><trkpt lat="43.0453953" lon="12.1546684"><ele>523.0</ele><time>2026-05-02T11:20:19.719Z</time></trkpt><trkpt lat="43.0454453" lon="12.1545954"><ele>523.0</ele><time>2026-05-02T11:20:21.719Z</time></trkpt><trkpt lat="43.0455058" lon="12.1545347"><ele>520.5</ele><time>2026-05-02T11:20:23.72Z</time></trkpt><trkpt lat="43.0455892" lon="12.1544979"><ele>518.0</ele><time>2026-05-02T11:20:25.719Z</time></trkpt><trkpt lat="43.0456667" lon="12.1544803"><ele>515.5</ele><time>2026-05-02T11:20:27.721Z</time></trkpt><trkpt lat="43.0457492" lon="12.1544627"><ele>513.0</ele><time>2026-05-02T11:20:29.719Z</time></trkpt><trkpt lat="43.0458248" lon="12.1544182"><ele>510.50000000000006</ele><time>2026-05-02T11:20:31.722Z</time></trkpt><trkpt lat="43.0459145" lon="12.1543788"><ele>508.0</ele><time>2026-05-02T11:20:34.717Z</time></trkpt><trkpt lat="43.0459727" lon="12.1543027"><ele>505.28571428571433</ele><time>2026-05-02T11:20:36.716Z</time></trkpt><trkpt lat="43.0460104" lon="12.1542046"><ele>502.57142857142856</ele><time>2026-05-02T11:20:38.718Z</time></trkpt><trkpt lat="43.0460397" lon="12.1541169"><ele>499.8571428571429</ele><time>2026-05-02T11:20:40.717Z</time></trkpt><trkpt lat="43.0460745" lon="12.1540261"><ele>497.14285714285717</ele><time>2026-05-02T11:20:42.717Z</time></trkpt><trkpt lat="43.0461283" lon="12.153972"><ele>494.42857142857144</ele><time>2026-05-02T11:20:44.718Z</time></trkpt><trkpt lat="43.0462076" lon="12.15394"><ele>491.7142857142857</ele><time>2026-05-02T11:20:47.718Z</time></trkpt><trkpt lat="43.046277" lon="12.1539073"><ele>489.0</ele><time>2026-05-02T11:20:49.718Z</time></trkpt><trkpt lat="43.046359" lon="12.1538916"><ele>485.4</ele><time>2026-05-02T11:20:51.719Z</time></trkpt><trkpt lat="43.0464412" lon="12.1538332"><ele>481.79999999999995</ele><time>2026-05-02T11:20:53.719Z</time></trkpt><trkpt lat="43.0465261" lon="12.1537599"><ele>478.20000000000005</ele><time>2026-05-02T11:20:55.72Z</time></trkpt><trkpt lat="43.0466134" lon="12.1537114"><ele>474.6</ele><time>2026-05-02T11:20:57.718Z</time></trkpt><trkpt lat="43.0467039" lon="12.153714"><ele>471.0</ele><time>2026-05-02T11:20:59.716Z</time></trkpt><trkpt lat="43.0467965" lon="12.1537394"><ele>469.5</ele><time>2026-05-02T11:21:01.72Z</time></trkpt><trkpt lat="43.0469125" lon="12.1537709"><ele>468.0</ele><time>2026-05-02T11:21:03.719Z</time></trkpt><trkpt lat="43.0470328" lon="12.1537706"><ele>466.5</ele><time>2026-05-02T11:21:05.717Z</time></trkpt><trkpt lat="43.0471443" lon="12.153787"><ele>465.0</ele><time>2026-05-02T11:21:07.716Z</time></trkpt><trkpt lat="43.0472614" lon="12.1537883"><ele>465.0</ele><time>2026-05-02T11:21:09.717Z</time></trkpt><trkpt lat="43.0473745" lon="12.1537612"><ele>465.0</ele><time>2026-05-02T11:21:11.717Z</time></trkpt><trkpt lat="43.0474843" lon="12.1537485"><ele>465.0</ele><time>2026-05-02T11:21:13.719Z</time></trkpt><trkpt lat="43.0475926" lon="12.1537489"><ele>465.0</ele><time>2026-05-02T11:21:15.717Z</time></trkpt><trkpt lat="43.0476778" lon="12.153764"><ele>465.0</ele><time>2026-05-02T11:21:17.723Z</time></trkpt><trkpt lat="43.047699" lon="12.153851"><ele>464.3333333333333</ele><time>2026-05-02T11:21:19.721Z</time></trkpt><trkpt lat="43.0476582" lon="12.1539302"><ele>463.66666666666663</ele><time>2026-05-02T11:21:21.719Z</time></trkpt><trkpt lat="43.0476039" lon="12.1540124"><ele>463.0</ele><time>2026-05-02T11:21:23.72Z</time></trkpt><trkpt lat="43.0475457" lon="12.1540747"><ele>462.3333333333333</ele><time>2026-05-02T11:21:25.719Z</time></trkpt><trkpt lat="43.0474801" lon="12.154137"><ele>461.66666666666663</ele><time>2026-05-02T11:21:27.72Z</time></trkpt><trkpt lat="43.047369" lon="12.1541829"><ele>461.0</ele><time>2026-05-02T11:21:29.722Z</time></trkpt><trkpt lat="43.0472697" lon="12.154252"><ele>463.0</ele><time>2026-05-02T11:21:31.718Z</time></trkpt><trkpt lat="43.0471807" lon="12.1543631"><ele>465.0</ele><time>2026-05-02T11:21:33.717Z</time></trkpt><trkpt lat="43.0471379" lon="12.1544303"><ele>467.0</ele><time>2026-05-02T11:21:34.719Z</time></trkpt><trkpt lat="43.0470974" lon="12.1544965"><ele>469.0</ele><time>2026-05-02T11:21:35.719Z</time></trkpt><trkpt lat="43.0470134" lon="12.1545911"><ele>471.0</ele><time>2026-05-02T11:21:37.721Z</time></trkpt><trkpt lat="43.0469373" lon="12.1546845"><ele>471.0</ele><time>2026-05-02T11:21:39.716Z</time></trkpt><trkpt lat="43.0468527" lon="12.154791"><ele>471.0</ele><time>2026-05-02T11:21:41.716Z</time></trkpt><trkpt lat="43.0468038" lon="12.1548474"><ele>471.0</ele><time>2026-05-02T11:21:42.716Z</time></trkpt><trkpt lat="43.0467366" lon="12.1549393"><ele>471.0</ele><time>2026-05-02T11:21:44.717Z</time></trkpt><trkpt lat="43.0467037" lon="12.1550611"><ele>471.0</ele><time>2026-05-02T11:21:45.716Z</time></trkpt><trkpt lat="43.0466922" lon="12.1551673"><ele>471.0</ele><time>2026-05-02T11:21:46.72Z</time></trkpt><trkpt lat="43.0466681" lon="12.1552555"><ele>472.28571428571433</ele><time>2026-05-02T11:21:47.719Z</time></trkpt><trkpt lat="43.0466365" lon="12.1553396"><ele>473.57142857142856</ele><time>2026-05-02T11:21:48.719Z</time></trkpt><trkpt lat="43.0465946" lon="12.1554102"><ele>474.8571428571429</ele><time>2026-05-02T11:21:49.718Z</time></trkpt><trkpt lat="43.0465476" lon="12.1554769"><ele>476.14285714285717</ele><time>2026-05-02T11:21:50.718Z</time></trkpt><trkpt lat="43.0464838" lon="12.1555223"><ele>477.42857142857144</ele><time>2026-05-02T11:21:51.721Z</time></trkpt><trkpt lat="43.0464135" lon="12.1555603"><ele>478.7142857142857</ele><time>2026-05-02T11:21:52.715Z</time></trkpt><trkpt lat="43.0463489" lon="12.1556049"><ele>480.0</ele><time>2026-05-02T11:21:53.719Z</time></trkpt><trkpt lat="43.0462799" lon="12.1557196"><ele>480.0</ele><time>2026-05-02T11:21:55.718Z</time></trkpt><trkpt lat="43.0462884" lon="12.1559175"><ele>480.0</ele><time>2026-05-02T11:21:57.72Z</time></trkpt><trkpt lat="43.0462967" lon="12.1560105"><ele>480.0</ele><time>2026-05-02T11:21:58.72Z</time></trkpt><trkpt lat="43.0462736" lon="12.156136"><ele>480.0</ele><time>2026-05-02T11:22:00.718Z</time></trkpt><trkpt lat="43.0462354" lon="12.1562146"><ele>480.0</ele><time>2026-05-02T11:22:01.719Z</time></trkpt><trkpt lat="43.0461883" lon="12.1562749"><ele>480.0</ele><time>2026-05-02T11:22:03.716Z</time></trkpt><trkpt lat="43.0461545" lon="12.156373"><ele>480.0</ele><time>2026-05-02T11:22:06.717Z</time></trkpt><trkpt lat="43.0461548" lon="12.1564934"><ele>480.0</ele><time>2026-05-02T11:22:08.722Z</time></trkpt><trkpt lat="43.0461773" lon="12.1565906"><ele>480.0</ele><time>2026-05-02T11:22:09.716Z</time></trkpt><trkpt lat="43.0462201" lon="12.1567428"><ele>480.0</ele><time>2026-05-02T11:22:11.715Z</time></trkpt><trkpt lat="43.0462216" lon="12.1568398"><ele>480.0</ele><time>2026-05-02T11:22:12.716Z</time></trkpt><trkpt lat="43.0462313" lon="12.1569264"><ele>480.0</ele><time>2026-05-02T11:22:13.716Z</time></trkpt><trkpt lat="43.0462826" lon="12.1570336"><ele>478.8</ele><time>2026-05-02T11:22:14.721Z</time></trkpt><trkpt lat="43.0463004" lon="12.1571256"><ele>477.6</ele><time>2026-05-02T11:22:15.72Z</time></trkpt><trkpt lat="43.0463286" lon="12.1572839"><ele>476.4</ele><time>2026-05-02T11:22:17.717Z</time></trkpt><trkpt lat="43.0463189" lon="12.1574289"><ele>475.2</ele><time>2026-05-02T11:22:19.716Z</time></trkpt><trkpt lat="43.0462636" lon="12.1575671"><ele>474.0</ele><time>2026-05-02T11:22:21.729Z</time></trkpt><trkpt lat="43.0461777" lon="12.1576514"><ele>470.75</ele><time>2026-05-02T11:22:23.719Z</time></trkpt><trkpt lat="43.0460987" lon="12.1577379"><ele>467.5</ele><time>2026-05-02T11:22:25.716Z</time></trkpt><trkpt lat="43.0459766" lon="12.1578055"><ele>464.25</ele><time>2026-05-02T11:22:27.719Z</time></trkpt><trkpt lat="43.0458673" lon="12.1578479"><ele>461.0</ele><time>2026-05-02T11:22:29.716Z</time></trkpt><trkpt lat="43.0457405" lon="12.1578594"><ele>464.49999999999994</ele><time>2026-05-02T11:22:31.717Z</time></trkpt><trkpt lat="43.0456786" lon="12.1578777"><ele>468.0</ele><time>2026-05-02T11:22:32.718Z</time></trkpt><trkpt lat="43.0455841" lon="12.1579262"><ele>471.5</ele><time>2026-05-02T11:22:34.719Z</time></trkpt><trkpt lat="43.0455141" lon="12.157972"><ele>475.0</ele><time>2026-05-02T11:22:36.716Z</time></trkpt><trkpt lat="43.0454874" lon="12.1580953"><ele>478.49999999999994</ele><time>2026-05-02T11:22:38.716Z</time></trkpt><trkpt lat="43.0455273" lon="12.1582341"><ele>482.0</ele><time>2026-05-02T11:22:40.717Z</time></trkpt><trkpt lat="43.0455471" lon="12.1583337"><ele>481.99999999999994</ele><time>2026-05-02T11:22:42.719Z</time></trkpt><trkpt lat="43.0455617" lon="12.1584241"><ele>482.0</ele><time>2026-05-02T11:22:43.72Z</time></trkpt><trkpt lat="43.0455854" lon="12.1585269"><ele>482.0</ele><time>2026-05-02T11:22:44.72Z</time></trkpt><trkpt lat="43.0455932" lon="12.1586231"><ele>482.0</ele><time>2026-05-02T11:22:45.718Z</time></trkpt><trkpt lat="43.0456152" lon="12.1587834"><ele>481.99999999999994</ele><time>2026-05-02T11:22:47.718Z</time></trkpt><trkpt lat="43.0456223" lon="12.1588819"><ele>482.0</ele><time>2026-05-02T11:22:48.718Z</time></trkpt><trkpt lat="43.0455721" lon="12.1590418"><ele>479.8</ele><time>2026-05-02T11:22:50.718Z</time></trkpt><trkpt lat="43.0455305" lon="12.1591208"><ele>477.6</ele><time>2026-05-02T11:22:51.717Z</time></trkpt><trkpt lat="43.0454653" lon="12.1592585"><ele>475.40000000000003</ele><time>2026-05-02T11:22:53.72Z</time></trkpt><trkpt lat="43.0453996" lon="12.1593807"><ele>473.20000000000005</ele><time>2026-05-02T11:22:55.715Z</time></trkpt><trkpt lat="43.0453346" lon="12.1595123"><ele>471.0</ele><time>2026-05-02T11:22:57.718Z</time></trkpt><trkpt lat="43.045321" lon="12.1596171"><ele>471.0</ele><time>2026-05-02T11:22:58.717Z</time></trkpt><trkpt lat="43.0453451" lon="12.1597404"><ele>471.0</ele><time>2026-05-02T11:22:59.718Z</time></trkpt><trkpt lat="43.0453513" lon="12.159848"><ele>471.0</ele><time>2026-05-02T11:23:00.716Z</time></trkpt><trkpt lat="43.0453934" lon="12.1599491"><ele>471.0</ele><time>2026-05-02T11:23:03.719Z</time></trkpt><trkpt lat="43.0454329" lon="12.1600883"><ele>471.0</ele><time>2026-05-02T11:23:05.721Z</time></trkpt><trkpt lat="43.0454129" lon="12.1602289"><ele>470.0</ele><time>2026-05-02T11:23:07.717Z</time></trkpt><trkpt lat="43.045374" lon="12.1603604"><ele>469.0</ele><time>2026-05-02T11:23:09.72Z</time></trkpt><trkpt lat="43.0453519" lon="12.160548"><ele>468.0</ele><time>2026-05-02T11:23:11.716Z</time></trkpt><trkpt lat="43.0453631" lon="12.1606361"><ele>467.0</ele><time>2026-05-02T11:23:12.715Z</time></trkpt><trkpt lat="43.0453866" lon="12.1607237"><ele>466.0</ele><time>2026-05-02T11:23:13.718Z</time></trkpt><trkpt lat="43.0454053" lon="12.1608537"><ele>465.0</ele><time>2026-05-02T11:23:15.716Z</time></trkpt><trkpt lat="43.0454141" lon="12.1609949"><ele>464.0</ele><time>2026-05-02T11:23:17.721Z</time></trkpt><trkpt lat="43.0453972" lon="12.1610832"><ele>463.0</ele><time>2026-05-02T11:23:18.716Z</time></trkpt><trkpt lat="43.045367" lon="12.1612662"><ele>462.0</ele><time>2026-05-02T11:23:20.719Z</time></trkpt><trkpt lat="43.0453441" lon="12.1613524"><ele>461.0</ele><time>2026-05-02T11:23:21.716Z</time></trkpt><trkpt lat="43.0452934" lon="12.1614866"><ele>458.66666666666663</ele><time>2026-05-02T11:23:23.717Z</time></trkpt><trkpt lat="43.0452359" lon="12.161609"><ele>456.3333333333333</ele><time>2026-05-02T11:23:25.719Z</time></trkpt><trkpt lat="43.0451909" lon="12.1616762"><ele>454.0</ele><time>2026-05-02T11:23:26.719Z</time></trkpt><trkpt lat="43.0451421" lon="12.1617372"><ele>451.66666666666663</ele><time>2026-05-02T11:23:27.718Z</time></trkpt><trkpt lat="43.0450962" lon="12.1618068"><ele>449.3333333333333</ele><time>2026-05-02T11:23:28.716Z</time></trkpt><trkpt lat="43.0450453" lon="12.1618771"><ele>447.0</ele><time>2026-05-02T11:23:29.715Z</time></trkpt><trkpt lat="43.0449682" lon="12.1620061"><ele>446.8</ele><time>2026-05-02T11:23:31.72Z</time></trkpt><trkpt lat="43.0449283" lon="12.1621398"><ele>446.6</ele><time>2026-05-02T11:23:33.715Z</time></trkpt><trkpt lat="43.044913" lon="12.1623112"><ele>446.40000000000003</ele><time>2026-05-02T11:23:35.716Z</time></trkpt><trkpt lat="43.0449124" lon="12.1624522"><ele>446.20000000000005</ele><time>2026-05-02T11:23:37.714Z</time></trkpt><trkpt lat="43.0448821" lon="12.1625645"><ele>446.0</ele><time>2026-05-02T11:23:39.718Z</time></trkpt><trkpt lat="43.0448384" lon="12.162717"><ele>446.0</ele><time>2026-05-02T11:23:41.718Z</time></trkpt><trkpt lat="43.0447927" lon="12.1628471"><ele>446.0</ele><time>2026-05-02T11:23:43.718Z</time></trkpt><trkpt lat="43.0447572" lon="12.1629507"><ele>446.0</ele><time>2026-05-02T11:23:45.717Z</time></trkpt><trkpt lat="43.0446852" lon="12.1630964"><ele>446.0</ele><time>2026-05-02T11:23:47.719Z</time></trkpt><trkpt lat="43.0446433" lon="12.1631739"><ele>446.0</ele><time>2026-05-02T11:23:48.719Z</time></trkpt><trkpt lat="43.0445885" lon="12.163249"><ele>441.8</ele><time>2026-05-02T11:23:49.718Z</time></trkpt><trkpt lat="43.0445258" lon="12.1633769"><ele>437.6</ele><time>2026-05-02T11:23:51.717Z</time></trkpt><trkpt lat="43.0444715" lon="12.1634776"><ele>433.4</ele><time>2026-05-02T11:23:53.72Z</time></trkpt><trkpt lat="43.0444113" lon="12.1636261"><ele>429.2</ele><time>2026-05-02T11:23:55.718Z</time></trkpt><trkpt lat="43.0443744" lon="12.1637124"><ele>425.0</ele><time>2026-05-02T11:23:56.72Z</time></trkpt><trkpt lat="43.044325" lon="12.163796"><ele>425.0</ele><time>2026-05-02T11:23:57.718Z</time></trkpt><trkpt lat="43.0442838" lon="12.1638697"><ele>425.0</ele><time>2026-05-02T11:23:58.718Z</time></trkpt><trkpt lat="43.0442495" lon="12.1639558"><ele>425.0</ele><time>2026-05-02T11:23:59.718Z</time></trkpt><trkpt lat="43.0442242" lon="12.1640411"><ele>425.0</ele><time>2026-05-02T11:24:00.715Z</time></trkpt><trkpt lat="43.0442006" lon="12.1641347"><ele>425.0</ele><time>2026-05-02T11:24:01.715Z</time></trkpt><trkpt lat="43.0441992" lon="12.1642445"><ele>425.0</ele><time>2026-05-02T11:24:02.718Z</time></trkpt><trkpt lat="43.0442026" lon="12.1643614"><ele>425.0</ele><time>2026-05-02T11:24:03.717Z</time></trkpt><trkpt lat="43.0442015" lon="12.1644801"><ele>424.3333333333333</ele><time>2026-05-02T11:24:04.718Z</time></trkpt><trkpt lat="43.0441847" lon="12.1645975"><ele>423.66666666666663</ele><time>2026-05-02T11:24:05.717Z</time></trkpt><trkpt lat="43.0441574" lon="12.1647135"><ele>423.0</ele><time>2026-05-02T11:24:06.717Z</time></trkpt><trkpt lat="43.0441357" lon="12.1648205"><ele>422.33333333333337</ele><time>2026-05-02T11:24:07.715Z</time></trkpt><trkpt lat="43.0441141" lon="12.1649176"><ele>421.6666666666667</ele><time>2026-05-02T11:24:08.718Z</time></trkpt><trkpt lat="43.0441089" lon="12.1650173"><ele>421.0</ele><time>2026-05-02T11:24:09.72Z</time></trkpt><trkpt lat="43.044122" lon="12.1651178"><ele>422.00000000000006</ele><time>2026-05-02T11:24:10.719Z</time></trkpt><trkpt lat="43.0441424" lon="12.1652533"><ele>423.0</ele><time>2026-05-02T11:24:11.72Z</time></trkpt><trkpt lat="43.0441647" lon="12.1653734"><ele>424.0</ele><time>2026-05-02T11:24:12.719Z</time></trkpt><trkpt lat="43.0441706" lon="12.1654816"><ele>425.0</ele><time>2026-05-02T11:24:13.717Z</time></trkpt><trkpt lat="43.0441539" lon="12.1655848"><ele>426.00000000000006</ele><time>2026-05-02T11:24:14.718Z</time></trkpt><trkpt lat="43.0441185" lon="12.1656906"><ele>427.0</ele><time>2026-05-02T11:24:15.719Z</time></trkpt><trkpt lat="43.044079" lon="12.1658079"><ele>424.6</ele><time>2026-05-02T11:24:16.719Z</time></trkpt><trkpt lat="43.0440325" lon="12.16592"><ele>422.20000000000005</ele><time>2026-05-02T11:24:17.72Z</time></trkpt><trkpt lat="43.0439822" lon="12.1660237"><ele>419.8</ele><time>2026-05-02T11:24:18.719Z</time></trkpt><trkpt lat="43.0439155" lon="12.1661087"><ele>417.4</ele><time>2026-05-02T11:24:19.715Z</time></trkpt><trkpt lat="43.0438412" lon="12.1661906"><ele>415.0</ele><time>2026-05-02T11:24:20.715Z</time></trkpt><trkpt lat="43.0437729" lon="12.1662629"><ele>415.0</ele><time>2026-05-02T11:24:21.715Z</time></trkpt><trkpt lat="43.0437026" lon="12.1663389"><ele>415.0</ele><time>2026-05-02T11:24:22.719Z</time></trkpt><trkpt lat="43.0436296" lon="12.1664277"><ele>415.0</ele><time>2026-05-02T11:24:23.718Z</time></trkpt><trkpt lat="43.043556" lon="12.1665107"><ele>415.0</ele><time>2026-05-02T11:24:24.718Z</time></trkpt><trkpt lat="43.0434917" lon="12.166598"><ele>415.0</ele><time>2026-05-02T11:24:25.718Z</time></trkpt><trkpt lat="43.0434332" lon="12.1666809"><ele>417.83333333333337</ele><time>2026-05-02T11:24:26.719Z</time></trkpt><trkpt lat="43.0433862" lon="12.1667705"><ele>420.6666666666667</ele><time>2026-05-02T11:24:27.716Z</time></trkpt><trkpt lat="43.0433431" lon="12.1668596"><ele>423.5</ele><time>2026-05-02T11:24:28.718Z</time></trkpt><trkpt lat="43.0433193" lon="12.1669609"><ele>426.33333333333337</ele><time>2026-05-02T11:24:29.718Z</time></trkpt><trkpt lat="43.0433077" lon="12.1670626"><ele>429.1666666666667</ele><time>2026-05-02T11:24:30.717Z</time></trkpt><trkpt lat="43.0433196" lon="12.1671734"><ele>432.0</ele><time>2026-05-02T11:24:31.719Z</time></trkpt><trkpt lat="43.0433474" lon="12.1672563"><ele>432.0</ele><time>2026-05-02T11:24:32.716Z</time></trkpt><trkpt lat="43.0433831" lon="12.1673546"><ele>432.0</ele><time>2026-05-02T11:24:33.717Z</time></trkpt><trkpt lat="43.0434238" lon="12.1674441"><ele>432.0</ele><time>2026-05-02T11:24:34.719Z</time></trkpt><trkpt lat="43.0434732" lon="12.1675323"><ele>432.0</ele><time>2026-05-02T11:24:35.718Z</time></trkpt><trkpt lat="43.0435321" lon="12.1676024"><ele>432.0</ele><time>2026-05-02T11:24:36.718Z</time></trkpt><trkpt lat="43.0435863" lon="12.1676783"><ele>432.0</ele><time>2026-05-02T11:24:37.716Z</time></trkpt><trkpt lat="43.0436546" lon="12.1677564"><ele>432.5</ele><time>2026-05-02T11:24:38.717Z</time></trkpt><trkpt lat="43.0437183" lon="12.1678168"><ele>433.0</ele><time>2026-05-02T11:24:39.716Z</time></trkpt><trkpt lat="43.0437822" lon="12.1678596"><ele>433.5</ele><time>2026-05-02T11:24:40.718Z</time></trkpt><trkpt lat="43.043846" lon="12.1679048"><ele>434.0</ele><time>2026-05-02T11:24:41.715Z</time></trkpt><trkpt lat="43.0439036" lon="12.1679483"><ele>434.5</ele><time>2026-05-02T11:24:42.716Z</time></trkpt><trkpt lat="43.0439589" lon="12.1679927"><ele>435.0</ele><time>2026-05-02T11:24:43.717Z</time></trkpt><trkpt lat="43.0440695" lon="12.1680892"><ele>436.6</ele><time>2026-05-02T11:24:45.717Z</time></trkpt><trkpt lat="43.0441321" lon="12.1681416"><ele>438.2</ele><time>2026-05-02T11:24:46.718Z</time></trkpt><trkpt lat="43.0441987" lon="12.1682189"><ele>439.79999999999995</ele><time>2026-05-02T11:24:47.718Z</time></trkpt><trkpt lat="43.0442579" lon="12.1683318"><ele>441.4</ele><time>2026-05-02T11:24:48.718Z</time></trkpt><trkpt lat="43.0443159" lon="12.1684364"><ele>443.0</ele><time>2026-05-02T11:24:49.718Z</time></trkpt><trkpt lat="43.0443872" lon="12.1685161"><ele>442.99999999999994</ele><time>2026-05-02T11:24:50.719Z</time></trkpt><trkpt lat="43.0444653" lon="12.1685898"><ele>443.0</ele><time>2026-05-02T11:24:51.715Z</time></trkpt><trkpt lat="43.0445372" lon="12.1686513"><ele>443.0</ele><time>2026-05-02T11:24:52.72Z</time></trkpt><trkpt lat="43.0446026" lon="12.1687049"><ele>443.0</ele><time>2026-05-02T11:24:53.717Z</time></trkpt><trkpt lat="43.044664" lon="12.1687424"><ele>442.99999999999994</ele><time>2026-05-02T11:24:54.715Z</time></trkpt><trkpt lat="43.044781" lon="12.1687612"><ele>443.0</ele><time>2026-05-02T11:24:56.715Z</time></trkpt><trkpt lat="43.0448465" lon="12.1686519"><ele>443.0</ele><time>2026-05-02T11:24:58.725Z</time></trkpt><trkpt lat="43.044799" lon="12.1685095"><ele>442.99999999999994</ele><time>2026-05-02T11:25:00.717Z</time></trkpt><trkpt lat="43.0447339" lon="12.1684471"><ele>442.99999999999994</ele><time>2026-05-02T11:25:01.714Z</time></trkpt><trkpt lat="43.0446508" lon="12.1683806"><ele>443.0</ele><time>2026-05-02T11:25:02.72Z</time></trkpt><trkpt lat="43.0445769" lon="12.1683034"><ele>443.0</ele><time>2026-05-02T11:25:03.714Z</time></trkpt><trkpt lat="43.0445132" lon="12.1681964"><ele>445.4</ele><time>2026-05-02T11:25:04.721Z</time></trkpt><trkpt lat="43.0444579" lon="12.1680795"><ele>447.79999999999995</ele><time>2026-05-02T11:25:05.72Z</time></trkpt><trkpt lat="43.0444086" lon="12.1679643"><ele>450.2</ele><time>2026-05-02T11:25:06.721Z</time></trkpt><trkpt lat="43.0443604" lon="12.1678543"><ele>452.6</ele><time>2026-05-02T11:25:07.718Z</time></trkpt><trkpt lat="43.0443246" lon="12.1677463"><ele>455.0</ele><time>2026-05-02T11:25:08.718Z</time></trkpt><trkpt lat="43.0442979" lon="12.1676488"><ele>454.99999999999994</ele><time>2026-05-02T11:25:09.72Z</time></trkpt><trkpt lat="43.0442896" lon="12.1675331"><ele>455.0</ele><time>2026-05-02T11:25:10.72Z</time></trkpt><trkpt lat="43.0442989" lon="12.167407"><ele>455.0</ele><time>2026-05-02T11:25:11.722Z</time></trkpt><trkpt lat="43.0443058" lon="12.167287"><ele>455.0</ele><time>2026-05-02T11:25:12.726Z</time></trkpt><trkpt lat="43.0443216" lon="12.16717"><ele>454.99999999999994</ele><time>2026-05-02T11:25:13.723Z</time></trkpt><trkpt lat="43.0443534" lon="12.1670673"><ele>455.0</ele><time>2026-05-02T11:25:14.716Z</time></trkpt><trkpt lat="43.0444077" lon="12.166985"><ele>454.6</ele><time>2026-05-02T11:25:15.715Z</time></trkpt><trkpt lat="43.0444764" lon="12.1669098"><ele>454.2</ele><time>2026-05-02T11:25:16.718Z</time></trkpt><trkpt lat="43.0445502" lon="12.1668368"><ele>453.79999999999995</ele><time>2026-05-02T11:25:17.721Z</time></trkpt><trkpt lat="43.0446363" lon="12.1667761"><ele>453.4</ele><time>2026-05-02T11:25:18.718Z</time></trkpt><trkpt lat="43.0447167" lon="12.1667094"><ele>453.0</ele><time>2026-05-02T11:25:19.722Z</time></trkpt><trkpt lat="43.044801" lon="12.1666462"><ele>453.0</ele><time>2026-05-02T11:25:20.722Z</time></trkpt><trkpt lat="43.0448873" lon="12.1665825"><ele>452.99999999999994</ele><time>2026-05-02T11:25:21.721Z</time></trkpt><trkpt lat="43.0449749" lon="12.1665227"><ele>452.99999999999994</ele><time>2026-05-02T11:25:22.718Z</time></trkpt><trkpt lat="43.0450672" lon="12.1664694"><ele>453.0</ele><time>2026-05-02T11:25:23.718Z</time></trkpt><trkpt lat="43.0451663" lon="12.16643"><ele>453.0</ele><time>2026-05-02T11:25:24.719Z</time></trkpt><trkpt lat="43.0452548" lon="12.1663798"><ele>453.79999999999995</ele><time>2026-05-02T11:25:25.716Z</time></trkpt><trkpt lat="43.0453566" lon="12.1663476"><ele>454.59999999999997</ele><time>2026-05-02T11:25:26.722Z</time></trkpt><trkpt lat="43.0454596" lon="12.1663115"><ele>455.40000000000003</ele><time>2026-05-02T11:25:27.72Z</time></trkpt><trkpt lat="43.0455602" lon="12.1662828"><ele>456.20000000000005</ele><time>2026-05-02T11:25:28.716Z</time></trkpt><trkpt lat="43.0456691" lon="12.1662472"><ele>457.0</ele><time>2026-05-02T11:25:29.717Z</time></trkpt><trkpt lat="43.0457827" lon="12.1662144"><ele>459.40000000000003</ele><time>2026-05-02T11:25:30.719Z</time></trkpt><trkpt lat="43.0458932" lon="12.1661837"><ele>461.80000000000007</ele><time>2026-05-02T11:25:31.719Z</time></trkpt><trkpt lat="43.0459995" lon="12.1661456"><ele>464.2</ele><time>2026-05-02T11:25:32.722Z</time></trkpt><trkpt lat="43.0460972" lon="12.1661067"><ele>466.6</ele><time>2026-05-02T11:25:33.723Z</time></trkpt><trkpt lat="43.0461847" lon="12.166083"><ele>469.0</ele><time>2026-05-02T11:25:34.723Z</time></trkpt><trkpt lat="43.0462607" lon="12.1660796"><ele>469.00000000000006</ele><time>2026-05-02T11:25:35.717Z</time></trkpt><trkpt lat="43.046329" lon="12.1661022"><ele>469.0</ele><time>2026-05-02T11:25:36.715Z</time></trkpt><trkpt lat="43.0463838" lon="12.1661515"><ele>469.0</ele><time>2026-05-02T11:25:37.72Z</time></trkpt><trkpt lat="43.046433" lon="12.1662199"><ele>469.0</ele><time>2026-05-02T11:25:38.719Z</time></trkpt><trkpt lat="43.0464593" lon="12.1663199"><ele>469.00000000000006</ele><time>2026-05-02T11:25:39.723Z</time></trkpt><trkpt lat="43.0464741" lon="12.1664411"><ele>469.0</ele><time>2026-05-02T11:25:40.72Z</time></trkpt><trkpt lat="43.0464795" lon="12.1666035"><ele>471.79999999999995</ele><time>2026-05-02T11:25:41.718Z</time></trkpt><trkpt lat="43.046493" lon="12.1667511"><ele>474.59999999999997</ele><time>2026-05-02T11:25:42.72Z</time></trkpt><trkpt lat="43.0465147" lon="12.1668968"><ele>477.4</ele><time>2026-05-02T11:25:43.723Z</time></trkpt><trkpt lat="43.0465303" lon="12.1670234"><ele>480.2</ele><time>2026-05-02T11:25:44.721Z</time></trkpt><trkpt lat="43.0465552" lon="12.1671323"><ele>483.0</ele><time>2026-05-02T11:25:45.716Z</time></trkpt><trkpt lat="43.0465852" lon="12.1672322"><ele>483.0</ele><time>2026-05-02T11:25:46.719Z</time></trkpt><trkpt lat="43.04662" lon="12.1673206"><ele>483.0</ele><time>2026-05-02T11:25:47.719Z</time></trkpt><trkpt lat="43.0466623" lon="12.1673927"><ele>483.0</ele><time>2026-05-02T11:25:48.72Z</time></trkpt><trkpt lat="43.0467013" lon="12.1674664"><ele>483.0</ele><time>2026-05-02T11:25:49.719Z</time></trkpt><trkpt lat="43.046745" lon="12.1675315"><ele>483.0</ele><time>2026-05-02T11:25:50.719Z</time></trkpt><trkpt lat="43.0468156" lon="12.1676536"><ele>483.0</ele><time>2026-05-02T11:25:52.718Z</time></trkpt><trkpt lat="43.0469008" lon="12.167786"><ele>483.0</ele><time>2026-05-02T11:25:54.717Z</time></trkpt><trkpt lat="43.046947" lon="12.1678524"><ele>483.0</ele><time>2026-05-02T11:25:55.725Z</time></trkpt><trkpt lat="43.0469999" lon="12.1679282"><ele>483.0</ele><time>2026-05-02T11:25:56.721Z</time></trkpt><trkpt lat="43.0470539" lon="12.1680005"><ele>483.0</ele><time>2026-05-02T11:25:57.716Z</time></trkpt><trkpt lat="43.0471072" lon="12.1680742"><ele>483.0</ele><time>2026-05-02T11:25:58.72Z</time></trkpt><trkpt lat="43.0471612" lon="12.1681494"><ele>483.0</ele><time>2026-05-02T11:25:59.721Z</time></trkpt><trkpt lat="43.0472177" lon="12.1682353"><ele>482.6666666666667</ele><time>2026-05-02T11:26:00.715Z</time></trkpt><trkpt lat="43.0472736" lon="12.1683105"><ele>482.33333333333337</ele><time>2026-05-02T11:26:01.719Z</time></trkpt><trkpt lat="43.0473309" lon="12.1683832"><ele>482.0</ele><time>2026-05-02T11:26:02.721Z</time></trkpt><trkpt lat="43.0473797" lon="12.1684492"><ele>481.6666666666667</ele><time>2026-05-02T11:26:03.715Z</time></trkpt><trkpt lat="43.0474325" lon="12.1685136"><ele>481.33333333333337</ele><time>2026-05-02T11:26:04.723Z</time></trkpt><trkpt lat="43.0475396" lon="12.1686191"><ele>481.0</ele><time>2026-05-02T11:26:06.716Z</time></trkpt><trkpt lat="43.0476106" lon="12.1686631"><ele>482.4</ele><time>2026-05-02T11:26:07.719Z</time></trkpt><trkpt lat="43.0476961" lon="12.1687311"><ele>483.8</ele><time>2026-05-02T11:26:08.717Z</time></trkpt><trkpt lat="43.0477944" lon="12.1687979"><ele>485.19999999999993</ele><time>2026-05-02T11:26:09.717Z</time></trkpt><trkpt lat="43.0478987" lon="12.1688704"><ele>486.59999999999997</ele><time>2026-05-02T11:26:10.722Z</time></trkpt><trkpt lat="43.048001" lon="12.1689394"><ele>488.0</ele><time>2026-05-02T11:26:11.722Z</time></trkpt><trkpt lat="43.0480902" lon="12.1690082"><ele>488.0</ele><time>2026-05-02T11:26:12.718Z</time></trkpt><trkpt lat="43.0481662" lon="12.1690716"><ele>487.99999999999994</ele><time>2026-05-02T11:26:13.716Z</time></trkpt><trkpt lat="43.0482504" lon="12.1691345"><ele>487.99999999999994</ele><time>2026-05-02T11:26:14.722Z</time></trkpt><trkpt lat="43.0483339" lon="12.1692052"><ele>488.0</ele><time>2026-05-02T11:26:15.723Z</time></trkpt><trkpt lat="43.0484152" lon="12.1692743"><ele>488.0</ele><time>2026-05-02T11:26:16.719Z</time></trkpt><trkpt lat="43.0484945" lon="12.1693428"><ele>488.4</ele><time>2026-05-02T11:26:17.715Z</time></trkpt><trkpt lat="43.0485796" lon="12.1694083"><ele>488.79999999999995</ele><time>2026-05-02T11:26:18.719Z</time></trkpt><trkpt lat="43.0486613" lon="12.1694817"><ele>489.2</ele><time>2026-05-02T11:26:19.718Z</time></trkpt><trkpt lat="43.0487392" lon="12.1695558"><ele>489.6</ele><time>2026-05-02T11:26:20.718Z</time></trkpt><trkpt lat="43.0488182" lon="12.1696226"><ele>490.0</ele><time>2026-05-02T11:26:21.717Z</time></trkpt><trkpt lat="43.0488911" lon="12.1696838"><ele>490.0</ele><time>2026-05-02T11:26:22.717Z</time></trkpt><trkpt lat="43.0489704" lon="12.169744"><ele>490.0</ele><time>2026-05-02T11:26:23.717Z</time></trkpt><trkpt lat="43.049051" lon="12.1698125"><ele>490.0</ele><time>2026-05-02T11:26:24.719Z</time></trkpt><trkpt lat="43.049134" lon="12.1698813"><ele>490.0</ele><time>2026-05-02T11:26:25.717Z</time></trkpt><trkpt lat="43.0492117" lon="12.1699548"><ele>490.0</ele><time>2026-05-02T11:26:26.721Z</time></trkpt><trkpt lat="43.0492911" lon="12.1700247"><ele>490.8</ele><time>2026-05-02T11:26:27.719Z</time></trkpt><trkpt lat="43.0493734" lon="12.1700995"><ele>491.6</ele><time>2026-05-02T11:26:28.715Z</time></trkpt><trkpt lat="43.0494579" lon="12.1701788"><ele>492.4</ele><time>2026-05-02T11:26:29.721Z</time></trkpt><trkpt lat="43.0495415" lon="12.1702645"><ele>493.2</ele><time>2026-05-02T11:26:30.718Z</time></trkpt><trkpt lat="43.0496172" lon="12.1703292"><ele>494.0</ele><time>2026-05-02T11:26:31.715Z</time></trkpt><trkpt lat="43.0496957" lon="12.1703876"><ele>494.0</ele><time>2026-05-02T11:26:32.719Z</time></trkpt><trkpt lat="43.0497758" lon="12.1704524"><ele>494.0</ele><time>2026-05-02T11:26:33.717Z</time></trkpt><trkpt lat="43.0498611" lon="12.1705156"><ele>494.0</ele><time>2026-05-02T11:26:34.717Z</time></trkpt><trkpt lat="43.0499478" lon="12.1705829"><ele>494.0</ele><time>2026-05-02T11:26:35.72Z</time></trkpt><trkpt lat="43.0500416" lon="12.1706533"><ele>494.0</ele><time>2026-05-02T11:26:36.715Z</time></trkpt><trkpt lat="43.0501415" lon="12.1707237"><ele>496.25</ele><time>2026-05-02T11:26:37.716Z</time></trkpt><trkpt lat="43.0502477" lon="12.1707929"><ele>498.5</ele><time>2026-05-02T11:26:38.719Z</time></trkpt><trkpt lat="43.0503578" lon="12.170844"><ele>500.75</ele><time>2026-05-02T11:26:39.721Z</time></trkpt><trkpt lat="43.0504759" lon="12.1708889"><ele>503.0</ele><time>2026-05-02T11:26:40.718Z</time></trkpt><trkpt lat="43.0506048" lon="12.1709306"><ele>503.0</ele><time>2026-05-02T11:26:41.713Z</time></trkpt><trkpt lat="43.0507312" lon="12.1709719"><ele>503.0</ele><time>2026-05-02T11:26:42.719Z</time></trkpt><trkpt lat="43.050854" lon="12.1710157"><ele>503.0</ele><time>2026-05-02T11:26:43.722Z</time></trkpt><trkpt lat="43.0509831" lon="12.1710617"><ele>503.0</ele><time>2026-05-02T11:26:44.718Z</time></trkpt><trkpt lat="43.0511114" lon="12.1711125"><ele>503.79999999999995</ele><time>2026-05-02T11:26:45.72Z</time></trkpt><trkpt lat="43.0512289" lon="12.1711629"><ele>504.59999999999997</ele><time>2026-05-02T11:26:46.718Z</time></trkpt><trkpt lat="43.0513268" lon="12.1712087"><ele>505.40000000000003</ele><time>2026-05-02T11:26:47.716Z</time></trkpt><trkpt lat="43.0514004" lon="12.1712777"><ele>506.20000000000005</ele><time>2026-05-02T11:26:48.726Z</time></trkpt><trkpt lat="43.0514601" lon="12.1713691"><ele>507.0</ele><time>2026-05-02T11:26:49.723Z</time></trkpt><trkpt lat="43.0515131" lon="12.1714945"><ele>509.6</ele><time>2026-05-02T11:26:50.717Z</time></trkpt><trkpt lat="43.051573" lon="12.1716329"><ele>512.2</ele><time>2026-05-02T11:26:51.721Z</time></trkpt><trkpt lat="43.0516336" lon="12.1717558"><ele>514.8</ele><time>2026-05-02T11:26:52.723Z</time></trkpt><trkpt lat="43.0516934" lon="12.1718576"><ele>517.4</ele><time>2026-05-02T11:26:53.716Z</time></trkpt><trkpt lat="43.0517554" lon="12.1719422"><ele>520.0</ele><time>2026-05-02T11:26:54.719Z</time></trkpt><trkpt lat="43.0518263" lon="12.1719988"><ele>520.0</ele><time>2026-05-02T11:26:55.721Z</time></trkpt><trkpt lat="43.0519173" lon="12.1720267"><ele>520.0</ele><time>2026-05-02T11:26:56.719Z</time></trkpt><trkpt lat="43.0520255" lon="12.1720294"><ele>520.0</ele><time>2026-05-02T11:26:57.72Z</time></trkpt><trkpt lat="43.052147" lon="12.1720261"><ele>520.0</ele><time>2026-05-02T11:26:58.722Z</time></trkpt><trkpt lat="43.0522649" lon="12.172042"><ele>520.0</ele><time>2026-05-02T11:26:59.716Z</time></trkpt><trkpt lat="43.0523955" lon="12.1720935"><ele>518.3333333333334</ele><time>2026-05-02T11:27:00.729Z</time></trkpt><trkpt lat="43.0525285" lon="12.1721295"><ele>516.6666666666666</ele><time>2026-05-02T11:27:01.717Z</time></trkpt><trkpt lat="43.052683" lon="12.1721545"><ele>515.0</ele><time>2026-05-02T11:27:02.72Z</time></trkpt><trkpt lat="43.052844" lon="12.1721605"><ele>515.0</ele><time>2026-05-02T11:27:03.718Z</time></trkpt><trkpt lat="43.0529946" lon="12.172157"><ele>515.0</ele><time>2026-05-02T11:27:04.715Z</time></trkpt><trkpt lat="43.0531455" lon="12.1721385"><ele>515.0</ele><time>2026-05-02T11:27:05.723Z</time></trkpt><trkpt lat="43.0532833" lon="12.1721242"><ele>515.0</ele><time>2026-05-02T11:27:06.715Z</time></trkpt><trkpt lat="43.0534107" lon="12.1721063"><ele>516.2</ele><time>2026-05-02T11:27:07.715Z</time></trkpt><trkpt lat="43.0535288" lon="12.172094"><ele>517.4</ele><time>2026-05-02T11:27:08.715Z</time></trkpt><trkpt lat="43.0536286" lon="12.1720832"><ele>518.6</ele><time>2026-05-02T11:27:09.718Z</time></trkpt><trkpt lat="43.0537162" lon="12.172075"><ele>519.8</ele><time>2026-05-02T11:27:10.723Z</time></trkpt><trkpt lat="43.053787" lon="12.1720675"><ele>521.0</ele><time>2026-05-02T11:27:11.719Z</time></trkpt><trkpt lat="43.0538981" lon="12.1720566"><ele>521.0</ele><time>2026-05-02T11:27:13.725Z</time></trkpt><trkpt lat="43.0539844" lon="12.1720701"><ele>521.0</ele><time>2026-05-02T11:27:15.718Z</time></trkpt><trkpt lat="43.0540807" lon="12.1721183"><ele>521.0</ele><time>2026-05-02T11:27:17.722Z</time></trkpt><trkpt lat="43.0541376" lon="12.1721905"><ele>521.0</ele><time>2026-05-02T11:27:19.718Z</time></trkpt><trkpt lat="43.0542166" lon="12.1721914"><ele>521.0</ele><time>2026-05-02T11:27:22.721Z</time></trkpt><trkpt lat="43.0542807" lon="12.1721552"><ele>521.0</ele><time>2026-05-02T11:27:24.716Z</time></trkpt><trkpt lat="43.0543484" lon="12.1720973"><ele>522.6666666666666</ele><time>2026-05-02T11:27:26.715Z</time></trkpt><trkpt lat="43.0544153" lon="12.1720436"><ele>524.3333333333333</ele><time>2026-05-02T11:27:28.715Z</time></trkpt><trkpt lat="43.0544913" lon="12.1719973"><ele>526.0</ele><time>2026-05-02T11:27:30.716Z</time></trkpt><trkpt lat="43.0545746" lon="12.1719366"><ele>527.6666666666666</ele><time>2026-05-02T11:27:32.719Z</time></trkpt><trkpt lat="43.0546575" lon="12.1718712"><ele>529.3333333333334</ele><time>2026-05-02T11:27:34.718Z</time></trkpt><trkpt lat="43.0547373" lon="12.1718155"><ele>531.0</ele><time>2026-05-02T11:27:36.726Z</time></trkpt><trkpt lat="43.0548303" lon="12.1717622"><ele>531.0</ele><time>2026-05-02T11:27:38.719Z</time></trkpt><trkpt lat="43.0549273" lon="12.1716943"><ele>531.0</ele><time>2026-05-02T11:27:40.714Z</time></trkpt><trkpt lat="43.0550358" lon="12.1716296"><ele>531.0</ele><time>2026-05-02T11:27:42.718Z</time></trkpt><trkpt lat="43.0551105" lon="12.1716021"><ele>531.0</ele><time>2026-05-02T11:27:43.718Z</time></trkpt><trkpt lat="43.055202" lon="12.1715635"><ele>531.0</ele><time>2026-05-02T11:27:44.72Z</time></trkpt><trkpt lat="43.0552943" lon="12.171535"><ele>530.0</ele><time>2026-05-02T11:27:45.721Z</time></trkpt><trkpt lat="43.0553753" lon="12.1715"><ele>529.0</ele><time>2026-05-02T11:27:46.718Z</time></trkpt><trkpt lat="43.055458" lon="12.1714588"><ele>528.0</ele><time>2026-05-02T11:27:47.718Z</time></trkpt><trkpt lat="43.0555434" lon="12.1714378"><ele>527.0</ele><time>2026-05-02T11:27:48.722Z</time></trkpt><trkpt lat="43.0556238" lon="12.1713994"><ele>526.0</ele><time>2026-05-02T11:27:49.719Z</time></trkpt><trkpt lat="43.0557065" lon="12.171355"><ele>525.0</ele><time>2026-05-02T11:27:50.72Z</time></trkpt><trkpt lat="43.0557886" lon="12.1713155"><ele>525.0</ele><time>2026-05-02T11:27:51.715Z</time></trkpt><trkpt lat="43.0558624" lon="12.1712788"><ele>525.0</ele><time>2026-05-02T11:27:52.716Z</time></trkpt><trkpt lat="43.0559362" lon="12.1712422"><ele>525.0</ele><time>2026-05-02T11:27:53.715Z</time></trkpt><trkpt lat="43.0560124" lon="12.1712189"><ele>525.0</ele><time>2026-05-02T11:27:54.719Z</time></trkpt><trkpt lat="43.0561025" lon="12.1712041"><ele>525.0</ele><time>2026-05-02T11:27:55.715Z</time></trkpt><trkpt lat="43.0561971" lon="12.1711887"><ele>525.0</ele><time>2026-05-02T11:27:56.723Z</time></trkpt><trkpt lat="43.0562963" lon="12.1711842"><ele>525.0</ele><time>2026-05-02T11:27:57.718Z</time></trkpt><trkpt lat="43.0563985" lon="12.1711632"><ele>525.0</ele><time>2026-05-02T11:27:58.715Z</time></trkpt><trkpt lat="43.0565073" lon="12.171158"><ele>525.0</ele><time>2026-05-02T11:27:59.726Z</time></trkpt><trkpt lat="43.056621" lon="12.1711621"><ele>525.0</ele><time>2026-05-02T11:28:00.715Z</time></trkpt><trkpt lat="43.0567285" lon="12.1711608"><ele>525.0</ele><time>2026-05-02T11:28:01.722Z</time></trkpt><trkpt lat="43.056835" lon="12.1711582"><ele>524.2</ele><time>2026-05-02T11:28:02.719Z</time></trkpt><trkpt lat="43.0569401" lon="12.1711361"><ele>523.4</ele><time>2026-05-02T11:28:03.717Z</time></trkpt><trkpt lat="43.0570454" lon="12.171127"><ele>522.6</ele><time>2026-05-02T11:28:04.718Z</time></trkpt><trkpt lat="43.0571592" lon="12.1711184"><ele>521.8</ele><time>2026-05-02T11:28:05.718Z</time></trkpt><trkpt lat="43.0572789" lon="12.1711173"><ele>521.0</ele><time>2026-05-02T11:28:06.716Z</time></trkpt><trkpt lat="43.0573902" lon="12.1711065"><ele>520.25</ele><time>2026-05-02T11:28:07.717Z</time></trkpt><trkpt lat="43.0575065" lon="12.1710869"><ele>519.5</ele><time>2026-05-02T11:28:08.717Z</time></trkpt><trkpt lat="43.057632" lon="12.1710776"><ele>518.75</ele><time>2026-05-02T11:28:09.719Z</time></trkpt><trkpt lat="43.0577587" lon="12.171067"><ele>518.0</ele><time>2026-05-02T11:28:10.715Z</time></trkpt><trkpt lat="43.0578796" lon="12.1710751"><ele>518.0</ele><time>2026-05-02T11:28:11.716Z</time></trkpt><trkpt lat="43.0579929" lon="12.1710808"><ele>518.0</ele><time>2026-05-02T11:28:12.718Z</time></trkpt><trkpt lat="43.0580942" lon="12.1710816"><ele>518.0</ele><time>2026-05-02T11:28:13.715Z</time></trkpt><trkpt lat="43.0581846" lon="12.1710801"><ele>518.0</ele><time>2026-05-02T11:28:14.715Z</time></trkpt><trkpt lat="43.0582696" lon="12.1710675"><ele>518.0</ele><time>2026-05-02T11:28:15.722Z</time></trkpt><trkpt lat="43.0583423" lon="12.1710421"><ele>517.5</ele><time>2026-05-02T11:28:16.714Z</time></trkpt><trkpt lat="43.0584202" lon="12.171004"><ele>517.0</ele><time>2026-05-02T11:28:17.716Z</time></trkpt><trkpt lat="43.0584936" lon="12.1709606"><ele>516.5</ele><time>2026-05-02T11:28:18.716Z</time></trkpt><trkpt lat="43.0585861" lon="12.1709033"><ele>516.0</ele><time>2026-05-02T11:28:20.716Z</time></trkpt><trkpt lat="43.0586471" lon="12.1708539"><ele>515.5</ele><time>2026-05-02T11:32:37.715Z</time></trkpt><trkpt lat="43.0587124" lon="12.1708302"><ele>515.0</ele><time>2026-05-02T11:32:40.723Z</time></trkpt><trkpt lat="43.0587869" lon="12.170817"><ele>515.0</ele><time>2026-05-02T11:32:42.716Z</time></trkpt><trkpt lat="43.058878" lon="12.1707847"><ele>515.0</ele><time>2026-05-02T11:32:44.714Z</time></trkpt><trkpt lat="43.0589586" lon="12.1707565"><ele>515.0</ele><time>2026-05-02T11:32:47.717Z</time></trkpt><trkpt lat="43.0590439" lon="12.1707269"><ele>515.0</ele><time>2026-05-02T11:32:50.714Z</time></trkpt><trkpt lat="43.0591104" lon="12.1707433"><ele>515.0</ele><time>2026-05-02T11:32:52.716Z</time></trkpt><trkpt lat="43.0592047" lon="12.1707618"><ele>515.0</ele><time>2026-05-02T11:33:02.719Z</time></trkpt><trkpt lat="43.0593257" lon="12.1708024"><ele>513.8</ele><time>2026-05-02T11:33:04.712Z</time></trkpt><trkpt lat="43.0594204" lon="12.1708243"><ele>512.6</ele><time>2026-05-02T11:33:05.715Z</time></trkpt><trkpt lat="43.0595225" lon="12.170844"><ele>511.4</ele><time>2026-05-02T11:33:06.716Z</time></trkpt><trkpt lat="43.0596263" lon="12.1708644"><ele>510.2</ele><time>2026-05-02T11:33:07.714Z</time></trkpt><trkpt lat="43.0597322" lon="12.1708723"><ele>509.0</ele><time>2026-05-02T11:33:08.715Z</time></trkpt><trkpt lat="43.059838" lon="12.1708705"><ele>509.0</ele><time>2026-05-02T11:33:09.715Z</time></trkpt><trkpt lat="43.0599455" lon="12.1708505"><ele>509.0</ele><time>2026-05-02T11:33:10.718Z</time></trkpt><trkpt lat="43.0600573" lon="12.1708212"><ele>509.0</ele><time>2026-05-02T11:33:11.716Z</time></trkpt><trkpt lat="43.0601653" lon="12.1707946"><ele>509.0</ele><time>2026-05-02T11:33:12.714Z</time></trkpt><trkpt lat="43.0602752" lon="12.1707654"><ele>509.0</ele><time>2026-05-02T11:33:13.714Z</time></trkpt><trkpt lat="43.0603862" lon="12.1707498"><ele>508.5</ele><time>2026-05-02T11:33:14.728Z</time></trkpt><trkpt lat="43.0605077" lon="12.1707588"><ele>508.0</ele><time>2026-05-02T11:33:15.715Z</time></trkpt><trkpt lat="43.0606366" lon="12.1707901"><ele>507.5</ele><time>2026-05-02T11:33:16.717Z</time></trkpt><trkpt lat="43.060763" lon="12.1708061"><ele>507.0</ele><time>2026-05-02T11:33:17.714Z</time></trkpt><trkpt lat="43.0608912" lon="12.1708191"><ele>507.0</ele><time>2026-05-02T11:33:18.716Z</time></trkpt><trkpt lat="43.0610196" lon="12.1708362"><ele>507.0</ele><time>2026-05-02T11:33:19.715Z</time></trkpt><trkpt lat="43.0611402" lon="12.1708754"><ele>507.0</ele><time>2026-05-02T11:33:20.714Z</time></trkpt><trkpt lat="43.0612556" lon="12.1709318"><ele>507.0</ele><time>2026-05-02T11:33:21.715Z</time></trkpt><trkpt lat="43.0613691" lon="12.1709578"><ele>507.0</ele><time>2026-05-02T11:33:22.717Z</time></trkpt><trkpt lat="43.061487" lon="12.1709643"><ele>507.0</ele><time>2026-05-02T11:33:23.715Z</time></trkpt><trkpt lat="43.0616009" lon="12.1709565"><ele>507.0</ele><time>2026-05-02T11:33:24.719Z</time></trkpt><trkpt lat="43.0617168" lon="12.1709203"><ele>507.0</ele><time>2026-05-02T11:33:25.714Z</time></trkpt><trkpt lat="43.0618295" lon="12.1708809"><ele>507.8</ele><time>2026-05-02T11:33:26.716Z</time></trkpt><trkpt lat="43.0619438" lon="12.1708384"><ele>508.6</ele><time>2026-05-02T11:33:27.715Z</time></trkpt><trkpt lat="43.0620558" lon="12.170808"><ele>509.40000000000003</ele><time>2026-05-02T11:33:28.713Z</time></trkpt><trkpt lat="43.0621667" lon="12.1708012"><ele>510.20000000000005</ele><time>2026-05-02T11:33:29.714Z</time></trkpt><trkpt lat="43.0622683" lon="12.1708154"><ele>511.0</ele><time>2026-05-02T11:33:30.716Z</time></trkpt><trkpt lat="43.0623373" lon="12.1708402"><ele>511.0</ele><time>2026-05-02T11:33:31.717Z</time></trkpt><trkpt lat="43.0623835" lon="12.1709028"><ele>511.0</ele><time>2026-05-02T11:33:32.713Z</time></trkpt><trkpt lat="43.062419" lon="12.170977"><ele>511.0</ele><time>2026-05-02T11:33:33.72Z</time></trkpt><trkpt lat="43.0625057" lon="12.1710584"><ele>511.0</ele><time>2026-05-02T11:33:35.714Z</time></trkpt><trkpt lat="43.0626203" lon="12.1710122"><ele>511.0</ele><time>2026-05-02T11:33:37.716Z</time></trkpt><trkpt lat="43.0626988" lon="12.1709348"><ele>511.20000000000005</ele><time>2026-05-02T11:33:38.719Z</time></trkpt><trkpt lat="43.0628091" lon="12.1708649"><ele>511.40000000000003</ele><time>2026-05-02T11:33:39.715Z</time></trkpt><trkpt lat="43.0629051" lon="12.1708014"><ele>511.6</ele><time>2026-05-02T11:33:40.716Z</time></trkpt><trkpt lat="43.0629957" lon="12.1707468"><ele>511.8</ele><time>2026-05-02T11:33:41.715Z</time></trkpt><trkpt lat="43.0630913" lon="12.1706918"><ele>512.0</ele><time>2026-05-02T11:33:42.715Z</time></trkpt><trkpt lat="43.0631811" lon="12.1706361"><ele>510.6</ele><time>2026-05-02T11:33:43.717Z</time></trkpt><trkpt lat="43.0632776" lon="12.1705825"><ele>509.20000000000005</ele><time>2026-05-02T11:33:44.717Z</time></trkpt><trkpt lat="43.0633736" lon="12.1705381"><ele>507.8</ele><time>2026-05-02T11:33:45.718Z</time></trkpt><trkpt lat="43.0634675" lon="12.1705158"><ele>506.4</ele><time>2026-05-02T11:33:46.717Z</time></trkpt><trkpt lat="43.0635574" lon="12.170507"><ele>505.0</ele><time>2026-05-02T11:33:47.715Z</time></trkpt><trkpt lat="43.0636415" lon="12.1705322"><ele>504.6666666666667</ele><time>2026-05-02T11:33:48.717Z</time></trkpt><trkpt lat="43.0637134" lon="12.1705946"><ele>504.33333333333337</ele><time>2026-05-02T11:33:49.716Z</time></trkpt><trkpt lat="43.0637877" lon="12.1706794"><ele>504.0</ele><time>2026-05-02T11:33:50.722Z</time></trkpt><trkpt lat="43.0638688" lon="12.1707473"><ele>503.66666666666663</ele><time>2026-05-02T11:33:51.717Z</time></trkpt><trkpt lat="43.0639498" lon="12.1708051"><ele>503.3333333333333</ele><time>2026-05-02T11:33:52.714Z</time></trkpt><trkpt lat="43.0640095" lon="12.1708603"><ele>503.0</ele><time>2026-05-02T11:33:53.715Z</time></trkpt><trkpt lat="43.0640764" lon="12.1709161"><ele>502.3333333333333</ele><time>2026-05-02T11:33:54.717Z</time></trkpt><trkpt lat="43.0641422" lon="12.1709473"><ele>501.66666666666663</ele><time>2026-05-02T11:33:55.719Z</time></trkpt><trkpt lat="43.0642221" lon="12.1709512"><ele>501.0</ele><time>2026-05-02T11:33:57.718Z</time></trkpt><trkpt lat="43.0643007" lon="12.1708648"><ele>500.33333333333337</ele><time>2026-05-02T11:33:59.714Z</time></trkpt><trkpt lat="43.0643734" lon="12.1707335"><ele>499.6666666666667</ele><time>2026-05-02T11:34:01.715Z</time></trkpt><trkpt lat="43.0644282" lon="12.1706572"><ele>499.0</ele><time>2026-05-02T11:34:02.713Z</time></trkpt><trkpt lat="43.0644777" lon="12.170581"><ele>499.00000000000006</ele><time>2026-05-02T11:34:03.718Z</time></trkpt><trkpt lat="43.0645356" lon="12.1704932"><ele>499.0</ele><time>2026-05-02T11:34:04.715Z</time></trkpt><trkpt lat="43.0645962" lon="12.17042"><ele>499.0</ele><time>2026-05-02T11:34:05.719Z</time></trkpt><trkpt lat="43.0646746" lon="12.1703739"><ele>499.0</ele><time>2026-05-02T11:34:06.715Z</time></trkpt><trkpt lat="43.0647623" lon="12.1703232"><ele>499.00000000000006</ele><time>2026-05-02T11:34:07.714Z</time></trkpt><trkpt lat="43.0648383" lon="12.1702845"><ele>499.0</ele><time>2026-05-02T11:34:08.715Z</time></trkpt><trkpt lat="43.0649204" lon="12.1702211"><ele>498.1666666666667</ele><time>2026-05-02T11:34:10.715Z</time></trkpt><trkpt lat="43.064985" lon="12.1701748"><ele>497.33333333333337</ele><time>2026-05-02T11:34:12.719Z</time></trkpt><trkpt lat="43.0650707" lon="12.1701224"><ele>496.5</ele><time>2026-05-02T11:34:14.717Z</time></trkpt><trkpt lat="43.0651268" lon="12.1700786"><ele>495.66666666666663</ele><time>2026-05-02T11:34:15.715Z</time></trkpt><trkpt lat="43.0652119" lon="12.1699627"><ele>494.8333333333333</ele><time>2026-05-02T11:34:17.716Z</time></trkpt><trkpt lat="43.0652465" lon="12.1698817"><ele>494.0</ele><time>2026-05-02T11:34:19.715Z</time></trkpt><trkpt lat="43.0652731" lon="12.1697819"><ele>494.0</ele><time>2026-05-02T11:34:21.716Z</time></trkpt><trkpt lat="43.0653681" lon="12.1697272"><ele>494.0</ele><time>2026-05-02T11:34:23.717Z</time></trkpt><trkpt lat="43.0654784" lon="12.1696981"><ele>494.0</ele><time>2026-05-02T11:34:25.716Z</time></trkpt><trkpt lat="43.0655539" lon="12.1697246"><ele>494.0</ele><time>2026-05-02T11:34:26.717Z</time></trkpt><trkpt lat="43.0656838" lon="12.1697333"><ele>494.0</ele><time>2026-05-02T11:34:28.714Z</time></trkpt><trkpt lat="43.0657966" lon="12.1697617"><ele>495.4</ele><time>2026-05-02T11:34:30.713Z</time></trkpt><trkpt lat="43.0658975" lon="12.1697644"><ele>496.79999999999995</ele><time>2026-05-02T11:34:32.718Z</time></trkpt><trkpt lat="43.066004" lon="12.1697109"><ele>498.20000000000005</ele><time>2026-05-02T11:34:34.714Z</time></trkpt><trkpt lat="43.0660949" lon="12.169631"><ele>499.6</ele><time>2026-05-02T11:34:36.717Z</time></trkpt><trkpt lat="43.0661933" lon="12.1696104"><ele>501.0</ele><time>2026-05-02T11:34:38.713Z</time></trkpt><trkpt lat="43.0662841" lon="12.1695363"><ele>501.0</ele><time>2026-05-02T11:34:40.718Z</time></trkpt><trkpt lat="43.0663998" lon="12.1694642"><ele>501.0</ele><time>2026-05-02T11:34:42.714Z</time></trkpt><trkpt lat="43.0665032" lon="12.1693861"><ele>501.0</ele><time>2026-05-02T11:34:44.717Z</time></trkpt><trkpt lat="43.0665539" lon="12.1693184"><ele>501.0</ele><time>2026-05-02T11:34:45.716Z</time></trkpt><trkpt lat="43.0666588" lon="12.1692641"><ele>501.0</ele><time>2026-05-02T11:34:47.715Z</time></trkpt><trkpt lat="43.0667518" lon="12.1692559"><ele>502.28571428571433</ele><time>2026-05-02T11:34:49.714Z</time></trkpt><trkpt lat="43.0668192" lon="12.1692763"><ele>503.57142857142856</ele><time>2026-05-02T11:34:50.712Z</time></trkpt><trkpt lat="43.0668842" lon="12.1692971"><ele>504.8571428571429</ele><time>2026-05-02T11:34:51.713Z</time></trkpt><trkpt lat="43.0669486" lon="12.1693277"><ele>506.14285714285717</ele><time>2026-05-02T11:34:52.716Z</time></trkpt><trkpt lat="43.0670159" lon="12.1693653"><ele>507.42857142857144</ele><time>2026-05-02T11:34:53.714Z</time></trkpt><trkpt lat="43.0670795" lon="12.1694142"><ele>508.7142857142857</ele><time>2026-05-02T11:34:54.716Z</time></trkpt><trkpt lat="43.0671415" lon="12.169448"><ele>510.0</ele><time>2026-05-02T11:34:55.712Z</time></trkpt><trkpt lat="43.0672084" lon="12.1694805"><ele>510.0</ele><time>2026-05-02T11:34:56.718Z</time></trkpt><trkpt lat="43.0672692" lon="12.1695116"><ele>510.0</ele><time>2026-05-02T11:34:57.713Z</time></trkpt><trkpt lat="43.0673293" lon="12.1695404"><ele>510.0</ele><time>2026-05-02T11:34:58.712Z</time></trkpt><trkpt lat="43.0674135" lon="12.1695478"><ele>510.0</ele><time>2026-05-02T11:34:59.715Z</time></trkpt><trkpt lat="43.0675022" lon="12.1695539"><ele>510.0</ele><time>2026-05-02T11:35:00.715Z</time></trkpt><trkpt lat="43.0675855" lon="12.1695673"><ele>510.0</ele><time>2026-05-02T11:35:01.714Z</time></trkpt><trkpt lat="43.0676568" lon="12.1695675"><ele>510.8333333333333</ele><time>2026-05-02T11:35:02.713Z</time></trkpt><trkpt lat="43.0677465" lon="12.1695626"><ele>511.66666666666663</ele><time>2026-05-02T11:35:03.716Z</time></trkpt><trkpt lat="43.0678175" lon="12.1695777"><ele>512.5</ele><time>2026-05-02T11:35:04.713Z</time></trkpt><trkpt lat="43.067886" lon="12.1695983"><ele>513.3333333333333</ele><time>2026-05-02T11:35:05.716Z</time></trkpt><trkpt lat="43.0679548" lon="12.1696008"><ele>514.1666666666666</ele><time>2026-05-02T11:35:06.714Z</time></trkpt><trkpt lat="43.0680216" lon="12.1695905"><ele>515.0</ele><time>2026-05-02T11:35:07.713Z</time></trkpt><trkpt lat="43.0681393" lon="12.1695576"><ele>515.0</ele><time>2026-05-02T11:35:09.715Z</time></trkpt><trkpt lat="43.068242" lon="12.1695382"><ele>515.0</ele><time>2026-05-02T11:35:11.717Z</time></trkpt><trkpt lat="43.0683292" lon="12.1695248"><ele>515.0</ele><time>2026-05-02T11:35:13.716Z</time></trkpt><trkpt lat="43.0684025" lon="12.1694449"><ele>515.0</ele><time>2026-05-02T11:35:15.715Z</time></trkpt><trkpt lat="43.0684991" lon="12.1693347"><ele>515.0</ele><time>2026-05-02T11:35:17.716Z</time></trkpt><trkpt lat="43.0685604" lon="12.1692826"><ele>514.1666666666666</ele><time>2026-05-02T11:35:18.714Z</time></trkpt><trkpt lat="43.0686193" lon="12.1692439"><ele>513.3333333333333</ele><time>2026-05-02T11:35:19.713Z</time></trkpt><trkpt lat="43.068717" lon="12.1691902"><ele>512.5</ele><time>2026-05-02T11:35:21.716Z</time></trkpt><trkpt lat="43.0688448" lon="12.1691696"><ele>511.66666666666663</ele><time>2026-05-02T11:35:23.714Z</time></trkpt><trkpt lat="43.0689078" lon="12.1691536"><ele>510.8333333333333</ele><time>2026-05-02T11:35:24.715Z</time></trkpt><trkpt lat="43.068973" lon="12.1691383"><ele>510.0</ele><time>2026-05-02T11:35:25.718Z</time></trkpt><trkpt lat="43.069039" lon="12.1691207"><ele>509.3333333333333</ele><time>2026-05-02T11:35:26.715Z</time></trkpt><trkpt lat="43.0691113" lon="12.169105"><ele>508.66666666666663</ele><time>2026-05-02T11:35:27.716Z</time></trkpt><trkpt lat="43.0691755" lon="12.1690967"><ele>508.0</ele><time>2026-05-02T11:35:28.716Z</time></trkpt><trkpt lat="43.0692526" lon="12.1690868"><ele>507.3333333333333</ele><time>2026-05-02T11:35:29.718Z</time></trkpt><trkpt lat="43.0693489" lon="12.1691431"><ele>506.66666666666663</ele><time>2026-05-02T11:35:31.718Z</time></trkpt><trkpt lat="43.0694304" lon="12.1692399"><ele>506.0</ele><time>2026-05-02T11:35:33.717Z</time></trkpt><trkpt lat="43.0694382" lon="12.1693297"><ele>505.99999999999994</ele><time>2026-05-02T11:35:34.713Z</time></trkpt><trkpt lat="43.0694621" lon="12.1694239"><ele>506.0</ele><time>2026-05-02T11:35:35.715Z</time></trkpt><trkpt lat="43.0694499" lon="12.1695656"><ele>506.0</ele><time>2026-05-02T11:35:37.715Z</time></trkpt><trkpt lat="43.069426" lon="12.1697104"><ele>506.0</ele><time>2026-05-02T11:35:39.713Z</time></trkpt><trkpt lat="43.0694194" lon="12.1697995"><ele>505.99999999999994</ele><time>2026-05-02T11:35:40.716Z</time></trkpt><trkpt lat="43.0694058" lon="12.169893"><ele>506.0</ele><time>2026-05-02T11:35:41.715Z</time></trkpt><trkpt lat="43.0693992" lon="12.1700683"><ele>503.16666666666663</ele><time>2026-05-02T11:35:43.715Z</time></trkpt><trkpt lat="43.0693893" lon="12.1701593"><ele>500.3333333333333</ele><time>2026-05-02T11:35:44.711Z</time></trkpt><trkpt lat="43.069381" lon="12.1703359"><ele>497.5</ele><time>2026-05-02T11:35:46.716Z</time></trkpt><trkpt lat="43.0693769" lon="12.1704445"><ele>494.66666666666663</ele><time>2026-05-02T11:35:47.717Z</time></trkpt><trkpt lat="43.0693655" lon="12.1705629"><ele>491.8333333333333</ele><time>2026-05-02T11:35:48.716Z</time></trkpt><trkpt lat="43.06936" lon="12.17067"><ele>489.0</ele><time>2026-05-02T11:35:49.715Z</time></trkpt><trkpt lat="43.0693693" lon="12.1707812"><ele>488.5</ele><time>2026-05-02T11:35:50.713Z</time></trkpt><trkpt lat="43.0693704" lon="12.1708831"><ele>488.0</ele><time>2026-05-02T11:35:51.714Z</time></trkpt><trkpt lat="43.0693658" lon="12.1710145"><ele>487.5</ele><time>2026-05-02T11:35:52.715Z</time></trkpt><trkpt lat="43.0693578" lon="12.1711025"><ele>487.0</ele><time>2026-05-02T11:35:53.717Z</time></trkpt><trkpt lat="43.069328" lon="12.1712021"><ele>486.5</ele><time>2026-05-02T11:35:54.714Z</time></trkpt><trkpt lat="43.0693079" lon="12.171288"><ele>486.0</ele><time>2026-05-02T11:35:55.714Z</time></trkpt><trkpt lat="43.0692977" lon="12.1713849"><ele>485.8</ele><time>2026-05-02T11:35:56.714Z</time></trkpt><trkpt lat="43.0692834" lon="12.1715303"><ele>485.6</ele><time>2026-05-02T11:35:58.715Z</time></trkpt><trkpt lat="43.0693091" lon="12.1716621"><ele>485.4</ele><time>2026-05-02T11:36:00.714Z</time></trkpt><trkpt lat="43.0693792" lon="12.1717728"><ele>485.2</ele><time>2026-05-02T11:36:02.717Z</time></trkpt><trkpt lat="43.0694275" lon="12.1718645"><ele>485.0</ele><time>2026-05-02T11:36:04.713Z</time></trkpt><trkpt lat="43.0694895" lon="12.17196"><ele>485.0</ele><time>2026-05-02T11:36:06.717Z</time></trkpt><trkpt lat="43.0695785" lon="12.172027"><ele>485.0</ele><time>2026-05-02T11:36:08.717Z</time></trkpt><trkpt lat="43.0696847" lon="12.1720213"><ele>485.0</ele><time>2026-05-02T11:36:10.716Z</time></trkpt><trkpt lat="43.0697844" lon="12.1719939"><ele>485.0</ele><time>2026-05-02T11:36:12.713Z</time></trkpt><trkpt lat="43.0698878" lon="12.1719581"><ele>485.0</ele><time>2026-05-02T11:36:14.716Z</time></trkpt><trkpt lat="43.0700137" lon="12.1719251"><ele>486.8333333333333</ele><time>2026-05-02T11:36:16.719Z</time></trkpt><trkpt lat="43.0700977" lon="12.1719142"><ele>488.66666666666663</ele><time>2026-05-02T11:36:17.713Z</time></trkpt><trkpt lat="43.0701819" lon="12.1718884"><ele>490.5</ele><time>2026-05-02T11:36:18.72Z</time></trkpt><trkpt lat="43.0702579" lon="12.171877"><ele>492.33333333333337</ele><time>2026-05-02T11:36:19.72Z</time></trkpt><trkpt lat="43.070339" lon="12.1718515"><ele>494.1666666666667</ele><time>2026-05-02T11:36:20.717Z</time></trkpt><trkpt lat="43.0704311" lon="12.1718471"><ele>496.0</ele><time>2026-05-02T11:36:21.718Z</time></trkpt><trkpt lat="43.0704933" lon="12.1718302"><ele>496.0</ele><time>2026-05-02T11:36:22.716Z</time></trkpt><trkpt lat="43.0706211" lon="12.171795"><ele>496.0</ele><time>2026-05-02T11:36:24.724Z</time></trkpt><trkpt lat="43.070687" lon="12.171785"><ele>496.0</ele><time>2026-05-02T11:36:25.719Z</time></trkpt><trkpt lat="43.0707869" lon="12.1718354"><ele>496.0</ele><time>2026-05-02T11:36:27.715Z</time></trkpt><trkpt lat="43.0708303" lon="12.1719929"><ele>496.0</ele><time>2026-05-02T11:36:29.716Z</time></trkpt><trkpt lat="43.0708357" lon="12.1720986"><ele>496.50000000000006</ele><time>2026-05-02T11:36:30.716Z</time></trkpt><trkpt lat="43.0708379" lon="12.1722065"><ele>497.0</ele><time>2026-05-02T11:36:31.713Z</time></trkpt><trkpt lat="43.0708403" lon="12.1723165"><ele>497.5</ele><time>2026-05-02T11:36:32.717Z</time></trkpt><trkpt lat="43.0708478" lon="12.17241"><ele>498.0</ele><time>2026-05-02T11:36:33.715Z</time></trkpt><trkpt lat="43.0708478" lon="12.1724985"><ele>498.50000000000006</ele><time>2026-05-02T11:36:34.715Z</time></trkpt><trkpt lat="43.0708641" lon="12.1726719"><ele>499.0</ele><time>2026-05-02T11:36:36.712Z</time></trkpt><trkpt lat="43.0708724" lon="12.1727584"><ele>496.6</ele><time>2026-05-02T11:36:37.714Z</time></trkpt><trkpt lat="43.0708832" lon="12.1728505"><ele>494.2</ele><time>2026-05-02T11:36:38.712Z</time></trkpt><trkpt lat="43.0708988" lon="12.1729394"><ele>491.80000000000007</ele><time>2026-05-02T11:36:39.713Z</time></trkpt><trkpt lat="43.0709649" lon="12.1731746"><ele>489.40000000000003</ele><time>2026-05-02T11:36:41.715Z</time></trkpt><trkpt lat="43.0709913" lon="12.173293"><ele>487.0</ele><time>2026-05-02T11:36:43.713Z</time></trkpt><trkpt lat="43.0710373" lon="12.1734201"><ele>486.6666666666667</ele><time>2026-05-02T11:36:45.721Z</time></trkpt><trkpt lat="43.0710574" lon="12.1735863"><ele>486.33333333333337</ele><time>2026-05-02T11:36:47.716Z</time></trkpt><trkpt lat="43.0710682" lon="12.173678"><ele>486.0</ele><time>2026-05-02T11:36:48.715Z</time></trkpt><trkpt lat="43.0710785" lon="12.1737684"><ele>485.66666666666663</ele><time>2026-05-02T11:36:49.713Z</time></trkpt><trkpt lat="43.0710892" lon="12.173854"><ele>485.3333333333333</ele><time>2026-05-02T11:36:50.715Z</time></trkpt><trkpt lat="43.0711368" lon="12.1739303"><ele>485.0</ele><time>2026-05-02T11:36:51.714Z</time></trkpt><trkpt lat="43.0711851" lon="12.1740031"><ele>484.6</ele><time>2026-05-02T11:36:52.715Z</time></trkpt><trkpt lat="43.0712816" lon="12.1741101"><ele>484.2</ele><time>2026-05-02T11:36:54.716Z</time></trkpt><trkpt lat="43.0714002" lon="12.1741708"><ele>483.79999999999995</ele><time>2026-05-02T11:36:56.717Z</time></trkpt><trkpt lat="43.071499" lon="12.1741315"><ele>483.4</ele><time>2026-05-02T11:36:58.714Z</time></trkpt><trkpt lat="43.0715801" lon="12.1740708"><ele>483.0</ele><time>2026-05-02T11:37:00.713Z</time></trkpt><trkpt lat="43.0716573" lon="12.1739914"><ele>487.0</ele><time>2026-05-02T11:37:02.716Z</time></trkpt><trkpt lat="43.0717323" lon="12.173907"><ele>490.99999999999994</ele><time>2026-05-02T11:37:04.716Z</time></trkpt><trkpt lat="43.0718" lon="12.1738493"><ele>494.99999999999994</ele><time>2026-05-02T11:37:06.713Z</time></trkpt><trkpt lat="43.0718879" lon="12.1737842"><ele>499.0</ele><time>2026-05-02T11:37:08.718Z</time></trkpt><trkpt lat="43.0719979" lon="12.1737071"><ele>503.0</ele><time>2026-05-02T11:37:10.716Z</time></trkpt><trkpt lat="43.0720584" lon="12.1736801"><ele>503.0</ele><time>2026-05-02T11:37:11.712Z</time></trkpt><trkpt lat="43.0721852" lon="12.1736204"><ele>502.99999999999994</ele><time>2026-05-02T11:37:13.715Z</time></trkpt><trkpt lat="43.0722514" lon="12.1735634"><ele>502.99999999999994</ele><time>2026-05-02T11:37:14.715Z</time></trkpt><trkpt lat="43.0723267" lon="12.1734608"><ele>503.0</ele><time>2026-05-02T11:37:15.712Z</time></trkpt><trkpt lat="43.072392" lon="12.1733638"><ele>503.0</ele><time>2026-05-02T11:37:16.713Z</time></trkpt><trkpt lat="43.0724547" lon="12.1732492"><ele>500.59999999999997</ele><time>2026-05-02T11:37:18.713Z</time></trkpt><trkpt lat="43.072595" lon="12.1732656"><ele>498.19999999999993</ele><time>2026-05-02T11:37:20.712Z</time></trkpt><trkpt lat="43.0726684" lon="12.173302"><ele>495.8</ele><time>2026-05-02T11:37:21.713Z</time></trkpt><trkpt lat="43.0727598" lon="12.1733294"><ele>493.4</ele><time>2026-05-02T11:37:22.715Z</time></trkpt><trkpt lat="43.0728317" lon="12.1733664"><ele>491.0</ele><time>2026-05-02T11:37:23.716Z</time></trkpt><trkpt lat="43.0728946" lon="12.1734117"><ele>491.0</ele><time>2026-05-02T11:37:24.713Z</time></trkpt><trkpt lat="43.0729623" lon="12.1735272"><ele>491.0</ele><time>2026-05-02T11:37:26.715Z</time></trkpt><trkpt lat="43.072983" lon="12.1736823"><ele>491.0</ele><time>2026-05-02T11:37:28.714Z</time></trkpt><trkpt lat="43.0729952" lon="12.1737788"><ele>491.0</ele><time>2026-05-02T11:37:29.714Z</time></trkpt><trkpt lat="43.0729968" lon="12.1739215"><ele>491.0</ele><time>2026-05-02T11:37:31.714Z</time></trkpt><trkpt lat="43.0730459" lon="12.174025"><ele>488.6</ele><time>2026-05-02T11:38:17.716Z</time></trkpt><trkpt lat="43.0731139" lon="12.1740735"><ele>486.20000000000005</ele><time>2026-05-02T11:38:19.712Z</time></trkpt><trkpt lat="43.0731911" lon="12.1741978"><ele>483.79999999999995</ele><time>2026-05-02T11:38:21.717Z</time></trkpt><trkpt lat="43.0732302" lon="12.17427"><ele>481.4</ele><time>2026-05-02T11:38:22.717Z</time></trkpt><trkpt lat="43.0733019" lon="12.1743948"><ele>479.0</ele><time>2026-05-02T11:38:24.715Z</time></trkpt><trkpt lat="43.0733641" lon="12.1745067"><ele>479.0</ele><time>2026-05-02T11:38:26.716Z</time></trkpt><trkpt lat="43.0734703" lon="12.1745746"><ele>479.0</ele><time>2026-05-02T11:38:28.714Z</time></trkpt><trkpt lat="43.0735349" lon="12.174574"><ele>479.0</ele><time>2026-05-02T11:38:29.712Z</time></trkpt><trkpt lat="43.0736632" lon="12.1744947"><ele>479.0</ele><time>2026-05-02T11:38:31.716Z</time></trkpt><trkpt lat="43.0737321" lon="12.1744447"><ele>479.0</ele><time>2026-05-02T11:38:32.718Z</time></trkpt><trkpt lat="43.0738036" lon="12.174401"><ele>478.99999999999994</ele><time>2026-05-02T11:38:33.717Z</time></trkpt><trkpt lat="43.0738703" lon="12.1743665"><ele>479.0</ele><time>2026-05-02T11:38:34.713Z</time></trkpt><trkpt lat="43.0739329" lon="12.1743223"><ele>479.0</ele><time>2026-05-02T11:38:35.714Z</time></trkpt><trkpt lat="43.0739945" lon="12.1742708"><ele>479.0</ele><time>2026-05-02T11:38:36.723Z</time></trkpt><trkpt lat="43.0740516" lon="12.1742311"><ele>478.99999999999994</ele><time>2026-05-02T11:38:37.714Z</time></trkpt><trkpt lat="43.0741625" lon="12.1742277"><ele>479.0</ele><time>2026-05-02T11:38:39.716Z</time></trkpt><trkpt lat="43.0742216" lon="12.1742626"><ele>479.16666666666663</ele><time>2026-05-02T11:38:40.712Z</time></trkpt><trkpt lat="43.074273" lon="12.1743174"><ele>479.3333333333333</ele><time>2026-05-02T11:38:41.713Z</time></trkpt><trkpt lat="43.074322" lon="12.1743981"><ele>479.5</ele><time>2026-05-02T11:38:42.718Z</time></trkpt><trkpt lat="43.0743661" lon="12.1744808"><ele>479.66666666666663</ele><time>2026-05-02T11:38:43.716Z</time></trkpt><trkpt lat="43.0744146" lon="12.1745515"><ele>479.8333333333333</ele><time>2026-05-02T11:38:44.716Z</time></trkpt><trkpt lat="43.0745469" lon="12.1746139"><ele>480.0</ele><time>2026-05-02T11:38:46.718Z</time></trkpt><trkpt lat="43.074626" lon="12.1746329"><ele>480.0</ele><time>2026-05-02T11:38:47.71Z</time></trkpt><trkpt lat="43.074702" lon="12.1746702"><ele>480.0</ele><time>2026-05-02T11:38:48.712Z</time></trkpt><trkpt lat="43.0747847" lon="12.1747115"><ele>480.0</ele><time>2026-05-02T11:38:49.711Z</time></trkpt><trkpt lat="43.0748535" lon="12.1747565"><ele>480.0</ele><time>2026-05-02T11:38:50.714Z</time></trkpt><trkpt lat="43.0749147" lon="12.1748095"><ele>480.0</ele><time>2026-05-02T11:38:51.712Z</time></trkpt><trkpt lat="43.0749747" lon="12.174854"><ele>480.0</ele><time>2026-05-02T11:38:52.723Z</time></trkpt><trkpt lat="43.0750256" lon="12.1749122"><ele>476.4</ele><time>2026-05-02T11:38:53.713Z</time></trkpt><trkpt lat="43.0750982" lon="12.175025"><ele>472.8</ele><time>2026-05-02T11:38:55.713Z</time></trkpt><trkpt lat="43.0751414" lon="12.1751"><ele>469.20000000000005</ele><time>2026-05-02T11:38:56.718Z</time></trkpt><trkpt lat="43.0751866" lon="12.1752322"><ele>465.6</ele><time>2026-05-02T11:38:58.713Z</time></trkpt><trkpt lat="43.0752173" lon="12.1753185"><ele>462.0</ele><time>2026-05-02T11:39:00.714Z</time></trkpt><trkpt lat="43.0752632" lon="12.175431"><ele>462.0</ele><time>2026-05-02T11:39:02.713Z</time></trkpt><trkpt lat="43.0753467" lon="12.1755236"><ele>462.00000000000006</ele><time>2026-05-02T11:39:04.712Z</time></trkpt><trkpt lat="43.0754505" lon="12.1755833"><ele>462.00000000000006</ele><time>2026-05-02T11:39:06.723Z</time></trkpt><trkpt lat="43.0755349" lon="12.1756432"><ele>462.0</ele><time>2026-05-02T11:39:08.718Z</time></trkpt><trkpt lat="43.0756289" lon="12.1757121"><ele>462.0</ele><time>2026-05-02T11:39:10.716Z</time></trkpt><trkpt lat="43.0757334" lon="12.1757762"><ele>461.0</ele><time>2026-05-02T11:39:12.723Z</time></trkpt><trkpt lat="43.0758214" lon="12.1758417"><ele>460.0</ele><time>2026-05-02T11:39:14.716Z</time></trkpt><trkpt lat="43.0758415" lon="12.1759505"><ele>459.0</ele><time>2026-05-02T11:39:16.719Z</time></trkpt><trkpt lat="43.0758189" lon="12.1760769"><ele>458.0</ele><time>2026-05-02T11:39:18.714Z</time></trkpt><trkpt lat="43.0758139" lon="12.1761747"><ele>457.0</ele><time>2026-05-02T11:39:20.716Z</time></trkpt><trkpt lat="43.0757851" lon="12.176257"><ele>456.0</ele><time>2026-05-02T11:40:31.713Z</time></trkpt><trkpt lat="43.0757559" lon="12.1763846"><ele>454.20000000000005</ele><time>2026-05-02T11:40:33.714Z</time></trkpt><trkpt lat="43.0757367" lon="12.1764845"><ele>452.40000000000003</ele><time>2026-05-02T11:40:34.716Z</time></trkpt><trkpt lat="43.0757187" lon="12.1765956"><ele>450.6</ele><time>2026-05-02T11:40:35.716Z</time></trkpt><trkpt lat="43.0756955" lon="12.1767177"><ele>448.8</ele><time>2026-05-02T11:40:36.717Z</time></trkpt><trkpt lat="43.075677" lon="12.1768472"><ele>447.0</ele><time>2026-05-02T11:40:37.715Z</time></trkpt><trkpt lat="43.0756482" lon="12.1769875"><ele>446.0</ele><time>2026-05-02T11:40:38.713Z</time></trkpt><trkpt lat="43.0756327" lon="12.1771296"><ele>445.00000000000006</ele><time>2026-05-02T11:40:39.713Z</time></trkpt><trkpt lat="43.0756268" lon="12.1772887"><ele>444.00000000000006</ele><time>2026-05-02T11:40:40.719Z</time></trkpt><trkpt lat="43.0756082" lon="12.1774523"><ele>443.0</ele><time>2026-05-02T11:40:41.713Z</time></trkpt><trkpt lat="43.0755891" lon="12.177586"><ele>442.0</ele><time>2026-05-02T11:40:42.714Z</time></trkpt><trkpt lat="43.0755742" lon="12.1777113"><ele>442.0</ele><time>2026-05-02T11:40:43.714Z</time></trkpt><trkpt lat="43.0755688" lon="12.1778199"><ele>442.00000000000006</ele><time>2026-05-02T11:40:44.718Z</time></trkpt><trkpt lat="43.0755856" lon="12.1779301"><ele>442.00000000000006</ele><time>2026-05-02T11:40:45.714Z</time></trkpt><trkpt lat="43.0756353" lon="12.178041"><ele>442.0</ele><time>2026-05-02T11:40:46.714Z</time></trkpt><trkpt lat="43.075697" lon="12.1781639"><ele>442.0</ele><time>2026-05-02T11:40:47.716Z</time></trkpt><trkpt lat="43.0757802" lon="12.1782942"><ele>447.6</ele><time>2026-05-02T11:40:48.714Z</time></trkpt><trkpt lat="43.0758619" lon="12.1784158"><ele>453.20000000000005</ele><time>2026-05-02T11:40:49.712Z</time></trkpt><trkpt lat="43.0759215" lon="12.1785258"><ele>458.8</ele><time>2026-05-02T11:40:50.715Z</time></trkpt><trkpt lat="43.0759565" lon="12.1786502"><ele>464.4</ele><time>2026-05-02T11:40:51.714Z</time></trkpt><trkpt lat="43.0759944" lon="12.1787713"><ele>470.0</ele><time>2026-05-02T11:40:52.713Z</time></trkpt><trkpt lat="43.0760476" lon="12.1788907"><ele>470.0</ele><time>2026-05-02T11:40:53.712Z</time></trkpt><trkpt lat="43.0761192" lon="12.1790045"><ele>470.0</ele><time>2026-05-02T11:40:54.714Z</time></trkpt><trkpt lat="43.0761922" lon="12.1790994"><ele>470.0</ele><time>2026-05-02T11:40:55.712Z</time></trkpt><trkpt lat="43.0762797" lon="12.1792018"><ele>470.0</ele><time>2026-05-02T11:40:56.714Z</time></trkpt><trkpt lat="43.0763781" lon="12.1792937"><ele>470.0</ele><time>2026-05-02T11:40:57.712Z</time></trkpt><trkpt lat="43.0764613" lon="12.1793725"><ele>467.8</ele><time>2026-05-02T11:40:58.714Z</time></trkpt><trkpt lat="43.0765338" lon="12.1794513"><ele>465.6</ele><time>2026-05-02T11:40:59.715Z</time></trkpt><trkpt lat="43.0765822" lon="12.1795397"><ele>463.4</ele><time>2026-05-02T11:41:00.729Z</time></trkpt><trkpt lat="43.0766021" lon="12.1796539"><ele>461.2</ele><time>2026-05-02T11:41:01.716Z</time></trkpt><trkpt lat="43.0766021" lon="12.179795"><ele>459.0</ele><time>2026-05-02T11:41:02.715Z</time></trkpt><trkpt lat="43.0765894" lon="12.1799646"><ele>457.2</ele><time>2026-05-02T11:41:03.712Z</time></trkpt><trkpt lat="43.0765891" lon="12.1801363"><ele>455.4</ele><time>2026-05-02T11:41:04.716Z</time></trkpt><trkpt lat="43.0765843" lon="12.1802971"><ele>453.6</ele><time>2026-05-02T11:41:05.713Z</time></trkpt><trkpt lat="43.0765687" lon="12.1804345"><ele>451.8</ele><time>2026-05-02T11:41:06.713Z</time></trkpt><trkpt lat="43.0765397" lon="12.180561"><ele>450.0</ele><time>2026-05-02T11:41:07.713Z</time></trkpt><trkpt lat="43.0764956" lon="12.180708"><ele>450.0</ele><time>2026-05-02T11:41:08.714Z</time></trkpt><trkpt lat="43.0764542" lon="12.1808469"><ele>450.0</ele><time>2026-05-02T11:41:09.713Z</time></trkpt><trkpt lat="43.0764266" lon="12.1809843"><ele>450.0</ele><time>2026-05-02T11:41:10.715Z</time></trkpt><trkpt lat="43.0764032" lon="12.1811149"><ele>450.0</ele><time>2026-05-02T11:41:11.715Z</time></trkpt><trkpt lat="43.0763816" lon="12.1812332"><ele>450.0</ele><time>2026-05-02T11:41:12.713Z</time></trkpt><trkpt lat="43.0763357" lon="12.1813419"><ele>450.0</ele><time>2026-05-02T11:41:13.717Z</time></trkpt><trkpt lat="43.0762841" lon="12.1814449"><ele>450.0</ele><time>2026-05-02T11:41:14.716Z</time></trkpt><trkpt lat="43.0762412" lon="12.1815689"><ele>450.0</ele><time>2026-05-02T11:41:15.712Z</time></trkpt><trkpt lat="43.0762119" lon="12.1816785"><ele>450.0</ele><time>2026-05-02T11:41:16.727Z</time></trkpt><trkpt lat="43.0761873" lon="12.1817852"><ele>450.0</ele><time>2026-05-02T11:41:17.712Z</time></trkpt><trkpt lat="43.0761843" lon="12.1818813"><ele>450.0</ele><time>2026-05-02T11:41:18.713Z</time></trkpt><trkpt lat="43.0762003" lon="12.1819785"><ele>451.8</ele><time>2026-05-02T11:41:19.716Z</time></trkpt><trkpt lat="43.0762262" lon="12.1820575"><ele>453.6</ele><time>2026-05-02T11:41:20.714Z</time></trkpt><trkpt lat="43.0762636" lon="12.1821563"><ele>455.4</ele><time>2026-05-02T11:41:22.715Z</time></trkpt><trkpt lat="43.0763261" lon="12.1822281"><ele>457.2</ele><time>2026-05-02T11:41:35.712Z</time></trkpt><trkpt lat="43.076419" lon="12.1822783"><ele>459.0</ele><time>2026-05-02T11:41:37.719Z</time></trkpt><trkpt lat="43.076536" lon="12.1823339"><ele>459.0</ele><time>2026-05-02T11:41:39.714Z</time></trkpt><trkpt lat="43.0765975" lon="12.1823828"><ele>459.0</ele><time>2026-05-02T11:41:40.715Z</time></trkpt><trkpt lat="43.0766662" lon="12.1824281"><ele>459.0</ele><time>2026-05-02T11:41:41.714Z</time></trkpt><trkpt lat="43.076741" lon="12.1824737"><ele>459.0</ele><time>2026-05-02T11:41:42.714Z</time></trkpt><trkpt lat="43.0768274" lon="12.1825156"><ele>459.0</ele><time>2026-05-02T11:41:43.712Z</time></trkpt><trkpt lat="43.0769098" lon="12.1825455"><ele>459.0</ele><time>2026-05-02T11:41:44.714Z</time></trkpt><trkpt lat="43.0769874" lon="12.1825637"><ele>461.1666666666667</ele><time>2026-05-02T11:41:45.714Z</time></trkpt><trkpt lat="43.0770645" lon="12.182571"><ele>463.33333333333337</ele><time>2026-05-02T11:41:46.715Z</time></trkpt><trkpt lat="43.077149" lon="12.1825573"><ele>465.5</ele><time>2026-05-02T11:41:47.714Z</time></trkpt><trkpt lat="43.077221" lon="12.1825438"><ele>467.6666666666667</ele><time>2026-05-02T11:41:48.712Z</time></trkpt><trkpt lat="43.0772978" lon="12.1825269"><ele>469.83333333333337</ele><time>2026-05-02T11:41:50.715Z</time></trkpt><trkpt lat="43.077339" lon="12.1826084"><ele>472.0</ele><time>2026-05-02T11:42:04.715Z</time></trkpt><trkpt lat="43.0773897" lon="12.1827584"><ele>472.0</ele><time>2026-05-02T11:42:06.714Z</time></trkpt><trkpt lat="43.0774281" lon="12.1828377"><ele>472.0</ele><time>2026-05-02T11:42:07.714Z</time></trkpt><trkpt lat="43.0774657" lon="12.1829215"><ele>472.0</ele><time>2026-05-02T11:42:08.716Z</time></trkpt><trkpt lat="43.0775161" lon="12.1829892"><ele>472.0</ele><time>2026-05-02T11:42:09.714Z</time></trkpt><trkpt lat="43.0775679" lon="12.1830582"><ele>472.0</ele><time>2026-05-02T11:42:10.716Z</time></trkpt><trkpt lat="43.0776159" lon="12.1831143"><ele>472.0</ele><time>2026-05-02T11:42:11.711Z</time></trkpt><trkpt lat="43.0776776" lon="12.1831716"><ele>472.0</ele><time>2026-05-02T11:42:12.714Z</time></trkpt><trkpt lat="43.0777431" lon="12.1832276"><ele>472.83333333333337</ele><time>2026-05-02T11:42:13.712Z</time></trkpt><trkpt lat="43.0778075" lon="12.1832813"><ele>473.6666666666667</ele><time>2026-05-02T11:42:14.717Z</time></trkpt><trkpt lat="43.0778849" lon="12.1833004"><ele>474.5</ele><time>2026-05-02T11:42:15.711Z</time></trkpt><trkpt lat="43.0779777" lon="12.183294"><ele>475.33333333333337</ele><time>2026-05-02T11:42:17.716Z</time></trkpt><trkpt lat="43.0780524" lon="12.1832686"><ele>476.1666666666667</ele><time>2026-05-02T11:42:18.716Z</time></trkpt><trkpt lat="43.0781212" lon="12.1832476"><ele>477.0</ele><time>2026-05-02T11:42:19.714Z</time></trkpt><trkpt lat="43.0781816" lon="12.1832125"><ele>476.6</ele><time>2026-05-02T11:42:20.717Z</time></trkpt><trkpt lat="43.078269" lon="12.1832209"><ele>476.20000000000005</ele><time>2026-05-02T11:42:23.714Z</time></trkpt><trkpt lat="43.0782951" lon="12.1833966"><ele>475.8</ele><time>2026-05-02T11:42:25.71Z</time></trkpt><trkpt lat="43.0783463" lon="12.183555"><ele>475.4</ele><time>2026-05-02T11:42:27.714Z</time></trkpt><trkpt lat="43.0783679" lon="12.1836424"><ele>475.0</ele><time>2026-05-02T11:42:28.717Z</time></trkpt><trkpt lat="43.0784199" lon="12.1837718"><ele>475.0</ele><time>2026-05-02T11:42:30.715Z</time></trkpt><trkpt lat="43.0784796" lon="12.1839128"><ele>475.0</ele><time>2026-05-02T11:42:32.711Z</time></trkpt><trkpt lat="43.078516" lon="12.184039"><ele>475.0</ele><time>2026-05-02T11:42:34.714Z</time></trkpt><trkpt lat="43.0785125" lon="12.1841353"><ele>475.0</ele><time>2026-05-02T11:42:36.713Z</time></trkpt><trkpt lat="43.0784784" lon="12.1842817"><ele>475.0</ele><time>2026-05-02T11:42:38.712Z</time></trkpt><trkpt lat="43.0784291" lon="12.1844218"><ele>475.2</ele><time>2026-05-02T11:42:40.713Z</time></trkpt><trkpt lat="43.078373" lon="12.1845151"><ele>475.4</ele><time>2026-05-02T11:42:42.713Z</time></trkpt><trkpt lat="43.078276" lon="12.1846076"><ele>475.6</ele><time>2026-05-02T11:42:44.715Z</time></trkpt><trkpt lat="43.0781893" lon="12.1846771"><ele>475.8</ele><time>2026-05-02T11:42:46.71Z</time></trkpt><trkpt lat="43.0781173" lon="12.1847684"><ele>476.0</ele><time>2026-05-02T11:42:48.713Z</time></trkpt><trkpt lat="43.0780691" lon="12.1848926"><ele>476.0</ele><time>2026-05-02T11:42:50.711Z</time></trkpt><trkpt lat="43.0780378" lon="12.185008"><ele>476.0</ele><time>2026-05-02T11:42:52.713Z</time></trkpt><trkpt lat="43.0779712" lon="12.1851031"><ele>476.0</ele><time>2026-05-02T11:42:54.714Z</time></trkpt><trkpt lat="43.0778772" lon="12.1851965"><ele>476.0</ele><time>2026-05-02T11:42:56.712Z</time></trkpt><trkpt lat="43.0777767" lon="12.1852945"><ele>476.0</ele><time>2026-05-02T11:42:58.714Z</time></trkpt><trkpt lat="43.0777011" lon="12.1854175"><ele>476.0</ele><time>2026-05-02T11:43:00.712Z</time></trkpt><trkpt lat="43.0776502" lon="12.1855405"><ele>476.0</ele><time>2026-05-02T11:43:02.71Z</time></trkpt><trkpt lat="43.077614" lon="12.185666"><ele>476.0</ele><time>2026-05-02T11:43:04.71Z</time></trkpt><trkpt lat="43.0775555" lon="12.1857924"><ele>476.0</ele><time>2026-05-02T11:43:06.715Z</time></trkpt><trkpt lat="43.0774812" lon="12.1859002"><ele>476.0</ele><time>2026-05-02T11:43:08.71Z</time></trkpt><trkpt lat="43.0774153" lon="12.1860373"><ele>473.8</ele><time>2026-05-02T11:43:10.711Z</time></trkpt><trkpt lat="43.0773792" lon="12.1861548"><ele>471.6</ele><time>2026-05-02T11:43:12.712Z</time></trkpt><trkpt lat="43.0773887" lon="12.1862929"><ele>469.4</ele><time>2026-05-02T11:43:14.714Z</time></trkpt><trkpt lat="43.0774136" lon="12.1864109"><ele>467.2</ele><time>2026-05-02T11:43:16.713Z</time></trkpt><trkpt lat="43.0774155" lon="12.1865408"><ele>465.0</ele><time>2026-05-02T11:43:18.713Z</time></trkpt><trkpt lat="43.0773718" lon="12.1866292"><ele>465.0</ele><time>2026-05-02T11:43:20.713Z</time></trkpt><trkpt lat="43.0773019" lon="12.1866443"><ele>465.0</ele><time>2026-05-02T11:43:43.714Z</time></trkpt><trkpt lat="43.0773416" lon="12.1867434"><ele>465.0</ele><time>2026-05-02T11:43:46.71Z</time></trkpt><trkpt lat="43.0774006" lon="12.1868111"><ele>465.0</ele><time>2026-05-02T11:43:48.714Z</time></trkpt><trkpt lat="43.0774814" lon="12.1868762"><ele>465.0</ele><time>2026-05-02T11:43:50.714Z</time></trkpt><trkpt lat="43.0775626" lon="12.186954"><ele>465.0</ele><time>2026-05-02T11:43:52.712Z</time></trkpt><trkpt lat="43.0776408" lon="12.1870071"><ele>467.2</ele><time>2026-05-02T11:43:54.712Z</time></trkpt><trkpt lat="43.0777018" lon="12.1870668"><ele>469.4</ele><time>2026-05-02T11:43:56.714Z</time></trkpt><trkpt lat="43.0777854" lon="12.1871389"><ele>471.6</ele><time>2026-05-02T11:43:58.711Z</time></trkpt><trkpt lat="43.0778808" lon="12.1871938"><ele>473.8</ele><time>2026-05-02T11:44:00.714Z</time></trkpt><trkpt lat="43.0779906" lon="12.1872426"><ele>476.0</ele><time>2026-05-02T11:44:02.71Z</time></trkpt><trkpt lat="43.0780826" lon="12.1872722"><ele>475.99999999999994</ele><time>2026-05-02T11:44:04.713Z</time></trkpt><trkpt lat="43.0781829" lon="12.1873266"><ele>476.0</ele><time>2026-05-02T11:44:06.711Z</time></trkpt><trkpt lat="43.078245" lon="12.1873551"><ele>476.0</ele><time>2026-05-02T11:44:08.709Z</time></trkpt><trkpt lat="43.0783099" lon="12.1873818"><ele>476.0</ele><time>2026-05-02T11:44:10.711Z</time></trkpt><trkpt lat="43.0783871" lon="12.1874343"><ele>475.99999999999994</ele><time>2026-05-02T11:44:12.713Z</time></trkpt><trkpt lat="43.0784529" lon="12.1874689"><ele>476.0</ele><time>2026-05-02T11:44:14.712Z</time></trkpt><trkpt lat="43.078531" lon="12.1875069"><ele>471.99999999999994</ele><time>2026-05-02T11:44:16.71Z</time></trkpt><trkpt lat="43.0786234" lon="12.1875418"><ele>468.0</ele><time>2026-05-02T11:44:18.714Z</time></trkpt><trkpt lat="43.0787182" lon="12.1875486"><ele>464.0</ele><time>2026-05-02T11:44:20.711Z</time></trkpt><trkpt lat="43.0788025" lon="12.1875719"><ele>460.0</ele><time>2026-05-02T11:44:22.714Z</time></trkpt><trkpt lat="43.0788817" lon="12.1875916"><ele>455.99999999999994</ele><time>2026-05-02T11:44:24.711Z</time></trkpt><trkpt lat="43.0789526" lon="12.187606"><ele>452.0</ele><time>2026-05-02T11:44:26.708Z</time></trkpt><trkpt lat="43.079017" lon="12.1876153"><ele>451.99999999999994</ele><time>2026-05-02T11:44:28.712Z</time></trkpt><trkpt lat="43.0790773" lon="12.1876531"><ele>452.0</ele><time>2026-05-02T11:44:30.712Z</time></trkpt><trkpt lat="43.079141" lon="12.187676"><ele>452.0</ele><time>2026-05-02T11:44:32.712Z</time></trkpt><trkpt lat="43.0792071" lon="12.1877214"><ele>452.0</ele><time>2026-05-02T11:44:35.711Z</time></trkpt><trkpt lat="43.0793005" lon="12.1877872"><ele>451.99999999999994</ele><time>2026-05-02T11:44:38.717Z</time></trkpt><trkpt lat="43.0793631" lon="12.1878457"><ele>452.0</ele><time>2026-05-02T11:44:42.713Z</time></trkpt><trkpt lat="43.0794444" lon="12.1878798"><ele>450.99999999999994</ele><time>2026-05-02T11:44:44.712Z</time></trkpt><trkpt lat="43.0795129" lon="12.1879489"><ele>450.0</ele><time>2026-05-02T11:44:46.714Z</time></trkpt><trkpt lat="43.0795645" lon="12.1880246"><ele>449.0</ele><time>2026-05-02T11:44:48.711Z</time></trkpt><trkpt lat="43.079645" lon="12.1880666"><ele>448.0</ele><time>2026-05-02T11:44:50.714Z</time></trkpt><trkpt lat="43.0797204" lon="12.1880878"><ele>446.99999999999994</ele><time>2026-05-02T11:44:52.714Z</time></trkpt><trkpt lat="43.0798148" lon="12.1881677"><ele>446.0</ele><time>2026-05-02T11:44:54.715Z</time></trkpt><trkpt lat="43.0799056" lon="12.1882679"><ele>442.49999999999994</ele><time>2026-05-02T11:44:56.715Z</time></trkpt><trkpt lat="43.0799802" lon="12.1883468"><ele>439.0</ele><time>2026-05-02T11:44:58.715Z</time></trkpt><trkpt lat="43.0799997" lon="12.1884446"><ele>435.5</ele><time>2026-05-02T11:45:01.712Z</time></trkpt><trkpt lat="43.0800911" lon="12.1885087"><ele>432.0</ele><time>2026-05-02T11:45:04.714Z</time></trkpt><trkpt lat="43.0801672" lon="12.1885161"><ele>428.49999999999994</ele><time>2026-05-02T11:45:06.712Z</time></trkpt><trkpt lat="43.0802503" lon="12.1885457"><ele>425.0</ele><time>2026-05-02T11:45:08.711Z</time></trkpt><trkpt lat="43.0803269" lon="12.1886086"><ele>424.99999999999994</ele><time>2026-05-02T11:45:10.713Z</time></trkpt><trkpt lat="43.0804028" lon="12.1886758"><ele>425.0</ele><time>2026-05-02T11:45:12.714Z</time></trkpt><trkpt lat="43.0804592" lon="12.1887215"><ele>425.0</ele><time>2026-05-02T11:45:14.714Z</time></trkpt><trkpt lat="43.0805522" lon="12.1887699"><ele>425.0</ele><time>2026-05-02T11:45:16.711Z</time></trkpt><trkpt lat="43.0806341" lon="12.1887818"><ele>424.99999999999994</ele><time>2026-05-02T11:45:18.716Z</time></trkpt><trkpt lat="43.0807343" lon="12.1887864"><ele>425.0</ele><time>2026-05-02T11:45:20.712Z</time></trkpt><trkpt lat="43.0808245" lon="12.1887994"><ele>423.0</ele><time>2026-05-02T11:45:22.714Z</time></trkpt><trkpt lat="43.0809153" lon="12.1888333"><ele>421.0</ele><time>2026-05-02T11:45:24.711Z</time></trkpt><trkpt lat="43.0809931" lon="12.1889219"><ele>419.0</ele><time>2026-05-02T11:45:26.713Z</time></trkpt><trkpt lat="43.0810774" lon="12.1889644"><ele>417.0</ele><time>2026-05-02T11:45:28.71Z</time></trkpt><trkpt lat="43.0811657" lon="12.1890236"><ele>415.0</ele><time>2026-05-02T11:45:30.714Z</time></trkpt><trkpt lat="43.081261" lon="12.1890925"><ele>414.6</ele><time>2026-05-02T11:45:32.715Z</time></trkpt><trkpt lat="43.0813512" lon="12.1891738"><ele>414.2</ele><time>2026-05-02T11:45:34.715Z</time></trkpt><trkpt lat="43.0814413" lon="12.1892564"><ele>413.79999999999995</ele><time>2026-05-02T11:45:36.713Z</time></trkpt><trkpt lat="43.0815001" lon="12.1893126"><ele>413.4</ele><time>2026-05-02T11:45:38.714Z</time></trkpt><trkpt lat="43.0815505" lon="12.1893979"><ele>413.0</ele><time>2026-05-02T11:45:40.712Z</time></trkpt><trkpt lat="43.0815862" lon="12.1895068"><ele>410.0</ele><time>2026-05-02T11:45:42.708Z</time></trkpt><trkpt lat="43.0816228" lon="12.1896433"><ele>407.0</ele><time>2026-05-02T11:45:44.713Z</time></trkpt><trkpt lat="43.0816554" lon="12.1897863"><ele>404.0</ele><time>2026-05-02T11:45:46.715Z</time></trkpt><trkpt lat="43.0817218" lon="12.1899177"><ele>401.0</ele><time>2026-05-02T11:45:48.712Z</time></trkpt><trkpt lat="43.0817887" lon="12.1900569"><ele>400.66666666666663</ele><time>2026-05-02T11:45:50.716Z</time></trkpt><trkpt lat="43.0818238" lon="12.1901374"><ele>400.3333333333333</ele><time>2026-05-02T11:45:51.713Z</time></trkpt><trkpt lat="43.0818458" lon="12.1902297"><ele>400.0</ele><time>2026-05-02T11:45:52.716Z</time></trkpt><trkpt lat="43.0818783" lon="12.1903188"><ele>399.66666666666663</ele><time>2026-05-02T11:45:53.713Z</time></trkpt><trkpt lat="43.0819165" lon="12.1904249"><ele>399.3333333333333</ele><time>2026-05-02T11:45:54.714Z</time></trkpt><trkpt lat="43.0819679" lon="12.1905504"><ele>399.0</ele><time>2026-05-02T11:45:55.713Z</time></trkpt><trkpt lat="43.0820124" lon="12.1906613"><ele>398.1666666666667</ele><time>2026-05-02T11:45:56.714Z</time></trkpt><trkpt lat="43.082057" lon="12.1907704"><ele>397.33333333333337</ele><time>2026-05-02T11:45:57.713Z</time></trkpt><trkpt lat="43.0820874" lon="12.1908663"><ele>396.5</ele><time>2026-05-02T11:45:58.713Z</time></trkpt><trkpt lat="43.0821172" lon="12.1909564"><ele>395.6666666666667</ele><time>2026-05-02T11:45:59.714Z</time></trkpt><trkpt lat="43.0821566" lon="12.1910989"><ele>394.83333333333337</ele><time>2026-05-02T11:46:01.711Z</time></trkpt><trkpt lat="43.0821924" lon="12.1912081"><ele>394.0</ele><time>2026-05-02T11:46:03.71Z</time></trkpt><trkpt lat="43.0822355" lon="12.1913004"><ele>394.0</ele><time>2026-05-02T11:46:05.713Z</time></trkpt><trkpt lat="43.0822946" lon="12.1914275"><ele>394.0</ele><time>2026-05-02T11:46:07.713Z</time></trkpt><trkpt lat="43.082363" lon="12.1915016"><ele>394.0</ele><time>2026-05-02T11:46:09.713Z</time></trkpt><trkpt lat="43.0824652" lon="12.1915377"><ele>394.0</ele><time>2026-05-02T11:46:11.711Z</time></trkpt><trkpt lat="43.0825555" lon="12.1915903"><ele>394.0</ele><time>2026-05-02T11:46:13.714Z</time></trkpt><trkpt lat="43.0826461" lon="12.1916639"><ele>393.4</ele><time>2026-05-02T11:46:15.713Z</time></trkpt><trkpt lat="43.0827515" lon="12.1917263"><ele>392.79999999999995</ele><time>2026-05-02T11:46:17.713Z</time></trkpt><trkpt lat="43.0828465" lon="12.1917774"><ele>392.20000000000005</ele><time>2026-05-02T11:46:19.712Z</time></trkpt><trkpt lat="43.0829382" lon="12.1918238"><ele>391.6</ele><time>2026-05-02T11:46:21.712Z</time></trkpt><trkpt lat="43.0830184" lon="12.1918801"><ele>391.0</ele><time>2026-05-02T11:46:23.714Z</time></trkpt><trkpt lat="43.0831173" lon="12.1919458"><ele>391.00000000000006</ele><time>2026-05-02T11:46:25.711Z</time></trkpt><trkpt lat="43.0832058" lon="12.1920085"><ele>391.0</ele><time>2026-05-02T11:46:27.713Z</time></trkpt><trkpt lat="43.083301" lon="12.192085"><ele>391.0</ele><time>2026-05-02T11:46:29.713Z</time></trkpt><trkpt lat="43.0833602" lon="12.1921357"><ele>391.0</ele><time>2026-05-02T11:46:30.712Z</time></trkpt><trkpt lat="43.0834162" lon="12.192198"><ele>391.00000000000006</ele><time>2026-05-02T11:46:31.71Z</time></trkpt><trkpt lat="43.0834703" lon="12.1922599"><ele>391.0</ele><time>2026-05-02T11:46:32.716Z</time></trkpt><trkpt lat="43.0835101" lon="12.1923441"><ele>389.0</ele><time>2026-05-02T11:46:33.711Z</time></trkpt><trkpt lat="43.0835418" lon="12.1924285"><ele>387.0</ele><time>2026-05-02T11:46:34.712Z</time></trkpt><trkpt lat="43.0836057" lon="12.1925734"><ele>385.0</ele><time>2026-05-02T11:46:36.712Z</time></trkpt><trkpt lat="43.0836854" lon="12.1926872"><ele>383.0</ele><time>2026-05-02T11:46:38.714Z</time></trkpt><trkpt lat="43.0837305" lon="12.1927849"><ele>381.0</ele><time>2026-05-02T11:46:40.714Z</time></trkpt><trkpt lat="43.0837834" lon="12.1929335"><ele>381.0</ele><time>2026-05-02T11:46:42.711Z</time></trkpt><trkpt lat="43.083815" lon="12.1930834"><ele>381.0</ele><time>2026-05-02T11:46:44.711Z</time></trkpt><trkpt lat="43.0838375" lon="12.1931655"><ele>381.0</ele><time>2026-05-02T11:46:45.711Z</time></trkpt><trkpt lat="43.0838615" lon="12.1932491"><ele>381.0</ele><time>2026-05-02T11:46:46.71Z</time></trkpt><trkpt lat="43.0838824" lon="12.1933894"><ele>381.0</ele><time>2026-05-02T11:46:48.712Z</time></trkpt><trkpt lat="43.0838761" lon="12.1934792"><ele>381.0</ele><time>2026-05-02T11:46:49.712Z</time></trkpt><trkpt lat="43.0838739" lon="12.1936349"><ele>379.1666666666667</ele><time>2026-05-02T11:46:51.713Z</time></trkpt><trkpt lat="43.083848" lon="12.1937471"><ele>377.3333333333333</ele><time>2026-05-02T11:46:52.713Z</time></trkpt><trkpt lat="43.083845" lon="12.1938485"><ele>375.5</ele><time>2026-05-02T11:46:53.725Z</time></trkpt><trkpt lat="43.0838279" lon="12.1939581"><ele>373.66666666666663</ele><time>2026-05-02T11:46:54.712Z</time></trkpt><trkpt lat="43.0838126" lon="12.1940731"><ele>371.8333333333333</ele><time>2026-05-02T11:46:55.715Z</time></trkpt><trkpt lat="43.083795" lon="12.1941794"><ele>370.0</ele><time>2026-05-02T11:46:56.713Z</time></trkpt><trkpt lat="43.0837853" lon="12.1942744"><ele>368.0</ele><time>2026-05-02T11:46:57.71Z</time></trkpt><trkpt lat="43.0838032" lon="12.1944226"><ele>366.0</ele><time>2026-05-02T11:46:59.716Z</time></trkpt><trkpt lat="43.0837961" lon="12.1945116"><ele>364.0</ele><time>2026-05-02T11:47:00.714Z</time></trkpt><trkpt lat="43.0837597" lon="12.1946013"><ele>362.0</ele><time>2026-05-02T11:47:01.711Z</time></trkpt><trkpt lat="43.083745" lon="12.1947009"><ele>360.0</ele><time>2026-05-02T11:47:02.713Z</time></trkpt><trkpt lat="43.0837598" lon="12.1947954"><ele>358.0</ele><time>2026-05-02T11:47:03.714Z</time></trkpt><trkpt lat="43.0837989" lon="12.1948647"><ele>358.66666666666663</ele><time>2026-05-02T11:47:04.711Z</time></trkpt><trkpt lat="43.0838465" lon="12.1949293"><ele>359.3333333333333</ele><time>2026-05-02T11:47:05.712Z</time></trkpt><trkpt lat="43.0839085" lon="12.1950049"><ele>360.0</ele><time>2026-05-02T11:47:06.711Z</time></trkpt><trkpt lat="43.0839751" lon="12.1950898"><ele>360.6666666666667</ele><time>2026-05-02T11:47:07.712Z</time></trkpt><trkpt lat="43.0840347" lon="12.1951669"><ele>361.33333333333337</ele><time>2026-05-02T11:47:08.715Z</time></trkpt><trkpt lat="43.0840903" lon="12.1952427"><ele>362.0</ele><time>2026-05-02T11:47:09.71Z</time></trkpt><trkpt lat="43.0841489" lon="12.1953221"><ele>362.0</ele><time>2026-05-02T11:47:10.713Z</time></trkpt><trkpt lat="43.0842139" lon="12.1954206"><ele>362.0</ele><time>2026-05-02T11:47:11.711Z</time></trkpt><trkpt lat="43.0842775" lon="12.1955189"><ele>362.0</ele><time>2026-05-02T11:47:12.713Z</time></trkpt><trkpt lat="43.0843298" lon="12.1956075"><ele>362.0</ele><time>2026-05-02T11:47:13.712Z</time></trkpt><trkpt lat="43.0843857" lon="12.1956827"><ele>362.0</ele><time>2026-05-02T11:47:14.717Z</time></trkpt><trkpt lat="43.0844386" lon="12.1957452"><ele>362.0</ele><time>2026-05-02T11:47:15.713Z</time></trkpt><trkpt lat="43.0844854" lon="12.1958138"><ele>359.83333333333337</ele><time>2026-05-02T11:47:16.711Z</time></trkpt><trkpt lat="43.0845343" lon="12.195911"><ele>357.6666666666667</ele><time>2026-05-02T11:47:17.711Z</time></trkpt><trkpt lat="43.0845728" lon="12.1960152"><ele>355.5</ele><time>2026-05-02T11:47:18.714Z</time></trkpt><trkpt lat="43.0846159" lon="12.1961094"><ele>353.3333333333333</ele><time>2026-05-02T11:47:19.71Z</time></trkpt><trkpt lat="43.0846438" lon="12.1962088"><ele>351.16666666666663</ele><time>2026-05-02T11:47:20.716Z</time></trkpt><trkpt lat="43.0846627" lon="12.1963025"><ele>349.0</ele><time>2026-05-02T11:47:21.715Z</time></trkpt><trkpt lat="43.0846673" lon="12.196396"><ele>349.0</ele><time>2026-05-02T11:47:22.712Z</time></trkpt><trkpt lat="43.0846289" lon="12.1965329"><ele>349.0</ele><time>2026-05-02T11:47:24.711Z</time></trkpt><trkpt lat="43.0845672" lon="12.1965791"><ele>349.0</ele><time>2026-05-02T11:47:26.71Z</time></trkpt><trkpt lat="43.084495" lon="12.1966179"><ele>349.0</ele><time>2026-05-02T11:47:29.712Z</time></trkpt><trkpt lat="43.0844277" lon="12.1966155"><ele>349.0</ele><time>2026-05-02T11:47:31.712Z</time></trkpt><trkpt lat="43.0843814" lon="12.1965493"><ele>349.0</ele><time>2026-05-02T11:47:33.71Z</time></trkpt><trkpt lat="43.0843449" lon="12.1964597"><ele>349.0</ele><time>2026-05-02T11:47:35.713Z</time></trkpt><trkpt lat="43.0843047" lon="12.1963769"><ele>349.0</ele><time>2026-05-02T11:47:37.713Z</time></trkpt><trkpt lat="43.0842377" lon="12.19634"><ele>349.0</ele><time>2026-05-02T11:47:39.713Z</time></trkpt><trkpt lat="43.0841598" lon="12.1963732"><ele>349.0</ele><time>2026-05-02T11:47:41.711Z</time></trkpt><trkpt lat="43.0840881" lon="12.19645"><ele>349.0</ele><time>2026-05-02T11:47:43.714Z</time></trkpt><trkpt lat="43.08404" lon="12.1965772"><ele>349.0</ele><time>2026-05-02T11:47:45.711Z</time></trkpt><trkpt lat="43.0839648" lon="12.196663"><ele>344.0</ele><time>2026-05-02T11:47:47.715Z</time></trkpt><trkpt lat="43.0838562" lon="12.196702"><ele>339.0</ele><time>2026-05-02T11:47:49.716Z</time></trkpt><trkpt lat="43.0837879" lon="12.1967127"><ele>334.0</ele><time>2026-05-02T11:47:50.714Z</time></trkpt><trkpt lat="43.0837005" lon="12.1967843"><ele>329.0</ele><time>2026-05-02T11:47:52.711Z</time></trkpt><trkpt lat="43.0836754" lon="12.1969124"><ele>324.0</ele><time>2026-05-02T11:47:54.714Z</time></trkpt><trkpt lat="43.0836935" lon="12.1970871"><ele>324.0</ele><time>2026-05-02T11:47:56.712Z</time></trkpt><trkpt lat="43.0837877" lon="12.1972172"><ele>324.0</ele><time>2026-05-02T11:47:58.71Z</time></trkpt><trkpt lat="43.0838456" lon="12.1972616"><ele>324.0</ele><time>2026-05-02T11:47:59.712Z</time></trkpt><trkpt lat="43.083926" lon="12.1973168"><ele>324.0</ele><time>2026-05-02T11:48:01.709Z</time></trkpt><trkpt lat="43.0840207" lon="12.1973415"><ele>324.0</ele><time>2026-05-02T11:48:03.711Z</time></trkpt><trkpt lat="43.0841171" lon="12.1973689"><ele>323.4</ele><time>2026-05-02T11:48:05.711Z</time></trkpt><trkpt lat="43.0842101" lon="12.1974364"><ele>322.79999999999995</ele><time>2026-05-02T11:48:07.711Z</time></trkpt><trkpt lat="43.0842952" lon="12.1975022"><ele>322.20000000000005</ele><time>2026-05-02T11:48:09.711Z</time></trkpt><trkpt lat="43.0844055" lon="12.197583"><ele>321.6</ele><time>2026-05-02T11:48:11.714Z</time></trkpt><trkpt lat="43.0845076" lon="12.1976592"><ele>321.0</ele><time>2026-05-02T11:48:13.71Z</time></trkpt><trkpt lat="43.0845961" lon="12.1977265"><ele>321.0</ele><time>2026-05-02T11:48:15.71Z</time></trkpt><trkpt lat="43.0846587" lon="12.1977504"><ele>321.0</ele><time>2026-05-02T11:48:17.71Z</time></trkpt><trkpt lat="43.0847553" lon="12.1977975"><ele>321.0</ele><time>2026-05-02T11:48:20.711Z</time></trkpt><trkpt lat="43.0848349" lon="12.1977943"><ele>321.0</ele><time>2026-05-02T11:48:22.722Z</time></trkpt><trkpt lat="43.0849009" lon="12.1977957"><ele>321.0</ele><time>2026-05-02T11:48:25.714Z</time></trkpt><trkpt lat="43.0849816" lon="12.1978141"><ele>321.0</ele><time>2026-05-02T11:48:39.714Z</time></trkpt><trkpt lat="43.0850978" lon="12.1977556"><ele>321.25</ele><time>2026-05-02T11:48:41.713Z</time></trkpt><trkpt lat="43.0851859" lon="12.1976907"><ele>321.5</ele><time>2026-05-02T11:48:42.713Z</time></trkpt><trkpt lat="43.0852685" lon="12.1976056"><ele>321.75</ele><time>2026-05-02T11:48:43.712Z</time></trkpt><trkpt lat="43.0853628" lon="12.1974939"><ele>322.0</ele><time>2026-05-02T11:48:44.711Z</time></trkpt><trkpt lat="43.085452" lon="12.1973678"><ele>322.0</ele><time>2026-05-02T11:48:45.714Z</time></trkpt><trkpt lat="43.0855425" lon="12.197229"><ele>322.0</ele><time>2026-05-02T11:48:46.712Z</time></trkpt><trkpt lat="43.0856259" lon="12.1970837"><ele>322.0</ele><time>2026-05-02T11:48:47.715Z</time></trkpt><trkpt lat="43.085713" lon="12.1969321"><ele>322.0</ele><time>2026-05-02T11:48:48.713Z</time></trkpt><trkpt lat="43.0857969" lon="12.1967804"><ele>322.0</ele><time>2026-05-02T11:48:49.712Z</time></trkpt><trkpt lat="43.0858857" lon="12.196625"><ele>322.0</ele><time>2026-05-02T11:48:50.709Z</time></trkpt><trkpt lat="43.0859762" lon="12.1964562"><ele>322.0</ele><time>2026-05-02T11:48:51.711Z</time></trkpt><trkpt lat="43.0860723" lon="12.1962913"><ele>320.75</ele><time>2026-05-02T11:48:52.712Z</time></trkpt><trkpt lat="43.0861616" lon="12.1961276"><ele>319.5</ele><time>2026-05-02T11:48:53.712Z</time></trkpt><trkpt lat="43.0862525" lon="12.1959702"><ele>318.25</ele><time>2026-05-02T11:48:54.713Z</time></trkpt><trkpt lat="43.0863415" lon="12.1958192"><ele>317.0</ele><time>2026-05-02T11:48:55.712Z</time></trkpt><trkpt lat="43.0864221" lon="12.1956719"><ele>317.5</ele><time>2026-05-02T11:48:56.712Z</time></trkpt><trkpt lat="43.0865025" lon="12.1955243"><ele>318.0</ele><time>2026-05-02T11:48:57.711Z</time></trkpt><trkpt lat="43.0865836" lon="12.1953842"><ele>318.5</ele><time>2026-05-02T11:48:58.717Z</time></trkpt><trkpt lat="43.0866575" lon="12.1952584"><ele>319.0</ele><time>2026-05-02T11:48:59.714Z</time></trkpt><trkpt lat="43.0867297" lon="12.1951407"><ele>316.0</ele><time>2026-05-02T11:49:00.709Z</time></trkpt><trkpt lat="43.0867931" lon="12.1950197"><ele>313.0</ele><time>2026-05-02T11:49:01.714Z</time></trkpt><trkpt lat="43.08686" lon="12.1948921"><ele>310.0</ele><time>2026-05-02T11:49:02.712Z</time></trkpt><trkpt lat="43.0869255" lon="12.1947716"><ele>307.0</ele><time>2026-05-02T11:49:03.715Z</time></trkpt><trkpt lat="43.0869933" lon="12.1946539"><ele>304.0</ele><time>2026-05-02T11:49:04.711Z</time></trkpt><trkpt lat="43.0870613" lon="12.1945298"><ele>304.0</ele><time>2026-05-02T11:49:05.713Z</time></trkpt><trkpt lat="43.0871264" lon="12.1944247"><ele>304.0</ele><time>2026-05-02T11:49:06.712Z</time></trkpt><trkpt lat="43.0871917" lon="12.1943485"><ele>304.0</ele><time>2026-05-02T11:49:07.709Z</time></trkpt><trkpt lat="43.0872699" lon="12.1943098"><ele>304.0</ele><time>2026-05-02T11:49:08.71Z</time></trkpt><trkpt lat="43.0873472" lon="12.1942953"><ele>304.0</ele><time>2026-05-02T11:49:09.712Z</time></trkpt><trkpt lat="43.0874119" lon="12.1943225"><ele>304.0</ele><time>2026-05-02T11:49:10.712Z</time></trkpt><trkpt lat="43.0874577" lon="12.1943839"><ele>301.3333333333333</ele><time>2026-05-02T11:49:11.716Z</time></trkpt><trkpt lat="43.0874826" lon="12.1944773"><ele>298.66666666666663</ele><time>2026-05-02T11:49:12.71Z</time></trkpt><trkpt lat="43.0874811" lon="12.1945846"><ele>296.0</ele><time>2026-05-02T11:49:13.713Z</time></trkpt><trkpt lat="43.0874733" lon="12.1947162"><ele>293.3333333333333</ele><time>2026-05-02T11:49:14.717Z</time></trkpt><trkpt lat="43.0874769" lon="12.1948617"><ele>290.6666666666667</ele><time>2026-05-02T11:49:15.717Z</time></trkpt><trkpt lat="43.0874938" lon="12.1949886"><ele>288.0</ele><time>2026-05-02T11:49:16.718Z</time></trkpt><trkpt lat="43.0875215" lon="12.1950985"><ele>288.0</ele><time>2026-05-02T11:49:17.714Z</time></trkpt><trkpt lat="43.0875496" lon="12.1951911"><ele>288.0</ele><time>2026-05-02T11:49:18.713Z</time></trkpt><trkpt lat="43.0875785" lon="12.1953293"><ele>288.0</ele><time>2026-05-02T11:49:20.71Z</time></trkpt><trkpt lat="43.0875297" lon="12.1953882"><ele>288.0</ele><time>2026-05-02T11:49:22.709Z</time></trkpt><trkpt lat="43.0874548" lon="12.1954112"><ele>288.0</ele><time>2026-05-02T11:49:24.712Z</time></trkpt><trkpt lat="43.0874171" lon="12.1953243"><ele>288.0</ele><time>2026-05-02T11:49:27.711Z</time></trkpt><trkpt lat="43.0873923" lon="12.1952019"><ele>300.0</ele><time>2026-05-02T11:49:30.712Z</time></trkpt></trkseg></trk></gpx>